<?xml version="1.0" encoding="UTF-8" standalone="no" ?>
<gpx xmlns="http://www.topografix.com/GPX/1/1" xmlns:xsi="http://www.w3.org/2001/XMLSchema-instance" xsi:schemaLocation="http://www.topografix.com/GPX/1/1 http://www.topografix.com/GPX/1/1/gpx.xsd" version="1.1" creator="VisuGPX - https://www.visugpx.com">
  <metadata>
    <name>raid vtt ardeche 2013</name>
    <desc><![CDATA[trace du jour 2]]></desc>
  </metadata>
  <trk>
    <name><![CDATA[J2 trace ardeche]]></name>
    <trkseg>
      <trkpt lat="44.60008" lon="4.05047">
        <ele>1228.7</ele>
        <time>2013-08-25T06:37:22Z</time>
      </trkpt>
      <trkpt lat="44.60008" lon="4.05047">
        <ele>1228.22</ele>
        <time>2013-08-25T06:37:51Z</time>
      </trkpt>
      <trkpt lat="44.60008" lon="4.05045">
        <ele>1229.18</ele>
        <time>2013-08-25T06:38:18Z</time>
      </trkpt>
      <trkpt lat="44.60012" lon="4.05044">
        <ele>1229.18</ele>
        <time>2013-08-25T06:38:29Z</time>
      </trkpt>
      <trkpt lat="44.60014" lon="4.05048">
        <ele>1230.14</ele>
        <time>2013-08-25T06:38:31Z</time>
      </trkpt>
      <trkpt lat="44.6002" lon="4.05055">
        <ele>1230.62</ele>
        <time>2013-08-25T06:38:35Z</time>
      </trkpt>
      <trkpt lat="44.60048" lon="4.05065">
        <ele>1233.51</ele>
        <time>2013-08-25T06:38:50Z</time>
      </trkpt>
      <trkpt lat="44.60069" lon="4.05086">
        <ele>1235.91</ele>
        <time>2013-08-25T06:39:03Z</time>
      </trkpt>
      <trkpt lat="44.60075" lon="4.05087">
        <ele>1236.87</ele>
        <time>2013-08-25T06:39:06Z</time>
      </trkpt>
      <trkpt lat="44.60088" lon="4.05105">
        <ele>1238.8</ele>
        <time>2013-08-25T06:39:15Z</time>
      </trkpt>
      <trkpt lat="44.60096" lon="4.05101">
        <ele>1240.24</ele>
        <time>2013-08-25T06:39:20Z</time>
      </trkpt>
      <trkpt lat="44.60098" lon="4.05091">
        <ele>1239.76</ele>
        <time>2013-08-25T06:39:25Z</time>
      </trkpt>
      <trkpt lat="44.60083" lon="4.05054">
        <ele>1236.39</ele>
        <time>2013-08-25T06:39:36Z</time>
      </trkpt>
      <trkpt lat="44.60083" lon="4.05048">
        <ele>1235.91</ele>
        <time>2013-08-25T06:39:37Z</time>
      </trkpt>
      <trkpt lat="44.6008" lon="4.05029">
        <ele>1235.43</ele>
        <time>2013-08-25T06:39:40Z</time>
      </trkpt>
      <trkpt lat="44.60079" lon="4.05016">
        <ele>1234.47</ele>
        <time>2013-08-25T06:39:42Z</time>
      </trkpt>
      <trkpt lat="44.60079" lon="4.0501">
        <ele>1234.47</ele>
        <time>2013-08-25T06:39:43Z</time>
      </trkpt>
      <trkpt lat="44.60078" lon="4.05006">
        <ele>1234.47</ele>
        <time>2013-08-25T06:39:44Z</time>
      </trkpt>
      <trkpt lat="44.60082" lon="4.04976">
        <ele>1233.51</ele>
        <time>2013-08-25T06:39:50Z</time>
      </trkpt>
      <trkpt lat="44.60085" lon="4.04952">
        <ele>1231.59</ele>
        <time>2013-08-25T06:39:54Z</time>
      </trkpt>
      <trkpt lat="44.60086" lon="4.04946">
        <ele>1231.11</ele>
        <time>2013-08-25T06:39:55Z</time>
      </trkpt>
      <trkpt lat="44.60086" lon="4.04939">
        <ele>1231.11</ele>
        <time>2013-08-25T06:39:56Z</time>
      </trkpt>
      <trkpt lat="44.6009" lon="4.04897">
        <ele>1229.66</ele>
        <time>2013-08-25T06:40:02Z</time>
      </trkpt>
      <trkpt lat="44.6009" lon="4.04853">
        <ele>1228.22</ele>
        <time>2013-08-25T06:40:11Z</time>
      </trkpt>
      <trkpt lat="44.6009" lon="4.04839">
        <ele>1228.7</ele>
        <time>2013-08-25T06:40:17Z</time>
      </trkpt>
      <trkpt lat="44.6009" lon="4.04838">
        <ele>1228.7</ele>
        <time>2013-08-25T06:40:18Z</time>
      </trkpt>
      <trkpt lat="44.6009" lon="4.04836">
        <ele>1228.22</ele>
        <time>2013-08-25T06:40:19Z</time>
      </trkpt>
      <trkpt lat="44.6009" lon="4.04834">
        <ele>1228.22</ele>
        <time>2013-08-25T06:40:20Z</time>
      </trkpt>
      <trkpt lat="44.60091" lon="4.04833">
        <ele>1228.22</ele>
        <time>2013-08-25T06:40:21Z</time>
      </trkpt>
      <trkpt lat="44.60092" lon="4.04827">
        <ele>1227.26</ele>
        <time>2013-08-25T06:40:25Z</time>
      </trkpt>
      <trkpt lat="44.60093" lon="4.04826">
        <ele>1227.26</ele>
        <time>2013-08-25T06:40:26Z</time>
      </trkpt>
      <trkpt lat="44.60094" lon="4.04825">
        <ele>1226.78</ele>
        <time>2013-08-25T06:40:27Z</time>
      </trkpt>
      <trkpt lat="44.60094" lon="4.04825">
        <ele>1229.18</ele>
        <time>2013-08-25T06:40:39Z</time>
      </trkpt>
      <trkpt lat="44.60094" lon="4.04825">
        <ele>1226.3</ele>
        <time>2013-08-25T06:40:40Z</time>
      </trkpt>
      <trkpt lat="44.60095" lon="4.04822">
        <ele>1227.26</ele>
        <time>2013-08-25T06:40:55Z</time>
      </trkpt>
      <trkpt lat="44.60107" lon="4.04793">
        <ele>1226.3</ele>
        <time>2013-08-25T06:41:07Z</time>
      </trkpt>
      <trkpt lat="44.60117" lon="4.04775">
        <ele>1225.34</ele>
        <time>2013-08-25T06:41:12Z</time>
      </trkpt>
      <trkpt lat="44.60118" lon="4.04771">
        <ele>1225.34</ele>
        <time>2013-08-25T06:41:13Z</time>
      </trkpt>
      <trkpt lat="44.60118" lon="4.04768">
        <ele>1225.82</ele>
        <time>2013-08-25T06:41:14Z</time>
      </trkpt>
      <trkpt lat="44.60118" lon="4.04764">
        <ele>1225.82</ele>
        <time>2013-08-25T06:41:15Z</time>
      </trkpt>
      <trkpt lat="44.60117" lon="4.0476">
        <ele>1225.82</ele>
        <time>2013-08-25T06:41:16Z</time>
      </trkpt>
      <trkpt lat="44.60115" lon="4.04757">
        <ele>1226.3</ele>
        <time>2013-08-25T06:41:17Z</time>
      </trkpt>
      <trkpt lat="44.60114" lon="4.04754">
        <ele>1226.3</ele>
        <time>2013-08-25T06:41:18Z</time>
      </trkpt>
      <trkpt lat="44.60113" lon="4.04752">
        <ele>1226.3</ele>
        <time>2013-08-25T06:41:19Z</time>
      </trkpt>
      <trkpt lat="44.60106" lon="4.04723">
        <ele>1228.22</ele>
        <time>2013-08-25T06:41:30Z</time>
      </trkpt>
      <trkpt lat="44.60108" lon="4.04713">
        <ele>1228.7</ele>
        <time>2013-08-25T06:41:34Z</time>
      </trkpt>
      <trkpt lat="44.60109" lon="4.0471">
        <ele>1228.7</ele>
        <time>2013-08-25T06:41:35Z</time>
      </trkpt>
      <trkpt lat="44.60115" lon="4.0468">
        <ele>1231.11</ele>
        <time>2013-08-25T06:41:47Z</time>
      </trkpt>
      <trkpt lat="44.6012" lon="4.0465">
        <ele>1233.51</ele>
        <time>2013-08-25T06:41:59Z</time>
      </trkpt>
      <trkpt lat="44.60127" lon="4.0461">
        <ele>1232.55</ele>
        <time>2013-08-25T06:42:14Z</time>
      </trkpt>
      <trkpt lat="44.60138" lon="4.04563">
        <ele>1233.51</ele>
        <time>2013-08-25T06:42:32Z</time>
      </trkpt>
      <trkpt lat="44.60147" lon="4.04533">
        <ele>1233.03</ele>
        <time>2013-08-25T06:42:47Z</time>
      </trkpt>
      <trkpt lat="44.60148" lon="4.04528">
        <ele>1232.55</ele>
        <time>2013-08-25T06:42:58Z</time>
      </trkpt>
      <trkpt lat="44.60151" lon="4.04524">
        <ele>1232.07</ele>
        <time>2013-08-25T06:43:00Z</time>
      </trkpt>
      <trkpt lat="44.60153" lon="4.04522">
        <ele>1231.59</ele>
        <time>2013-08-25T06:43:01Z</time>
      </trkpt>
      <trkpt lat="44.60156" lon="4.04519">
        <ele>1231.11</ele>
        <time>2013-08-25T06:43:02Z</time>
      </trkpt>
      <trkpt lat="44.60159" lon="4.04518">
        <ele>1231.11</ele>
        <time>2013-08-25T06:43:03Z</time>
      </trkpt>
      <trkpt lat="44.60162" lon="4.04517">
        <ele>1230.14</ele>
        <time>2013-08-25T06:43:04Z</time>
      </trkpt>
      <trkpt lat="44.60165" lon="4.04516">
        <ele>1229.66</ele>
        <time>2013-08-25T06:43:05Z</time>
      </trkpt>
      <trkpt lat="44.60175" lon="4.04518">
        <ele>1228.7</ele>
        <time>2013-08-25T06:43:08Z</time>
      </trkpt>
      <trkpt lat="44.60178" lon="4.0452">
        <ele>1228.22</ele>
        <time>2013-08-25T06:43:09Z</time>
      </trkpt>
      <trkpt lat="44.60182" lon="4.04522">
        <ele>1227.26</ele>
        <time>2013-08-25T06:43:10Z</time>
      </trkpt>
      <trkpt lat="44.60187" lon="4.04523">
        <ele>1226.78</ele>
        <time>2013-08-25T06:43:11Z</time>
      </trkpt>
      <trkpt lat="44.60192" lon="4.04521">
        <ele>1226.3</ele>
        <time>2013-08-25T06:43:12Z</time>
      </trkpt>
      <trkpt lat="44.60196" lon="4.04517">
        <ele>1225.82</ele>
        <time>2013-08-25T06:43:13Z</time>
      </trkpt>
      <trkpt lat="44.60201" lon="4.04512">
        <ele>1225.34</ele>
        <time>2013-08-25T06:43:14Z</time>
      </trkpt>
      <trkpt lat="44.60204" lon="4.04506">
        <ele>1224.86</ele>
        <time>2013-08-25T06:43:15Z</time>
      </trkpt>
      <trkpt lat="44.60207" lon="4.04499">
        <ele>1224.86</ele>
        <time>2013-08-25T06:43:16Z</time>
      </trkpt>
      <trkpt lat="44.6021" lon="4.04492">
        <ele>1224.38</ele>
        <time>2013-08-25T06:43:17Z</time>
      </trkpt>
      <trkpt lat="44.60214" lon="4.04486">
        <ele>1223.9</ele>
        <time>2013-08-25T06:43:18Z</time>
      </trkpt>
      <trkpt lat="44.60217" lon="4.0448">
        <ele>1223.42</ele>
        <time>2013-08-25T06:43:19Z</time>
      </trkpt>
      <trkpt lat="44.60258" lon="4.0441">
        <ele>1222.93</ele>
        <time>2013-08-25T06:43:32Z</time>
      </trkpt>
      <trkpt lat="44.60263" lon="4.04393">
        <ele>1223.9</ele>
        <time>2013-08-25T06:43:35Z</time>
      </trkpt>
      <trkpt lat="44.60284" lon="4.04355">
        <ele>1226.78</ele>
        <time>2013-08-25T06:43:44Z</time>
      </trkpt>
      <trkpt lat="44.60317" lon="4.04326">
        <ele>1228.22</ele>
        <time>2013-08-25T06:43:55Z</time>
      </trkpt>
      <trkpt lat="44.60353" lon="4.043">
        <ele>1227.26</ele>
        <time>2013-08-25T06:44:06Z</time>
      </trkpt>
      <trkpt lat="44.60415" lon="4.04264">
        <ele>1227.26</ele>
        <time>2013-08-25T06:44:24Z</time>
      </trkpt>
      <trkpt lat="44.60446" lon="4.0424">
        <ele>1229.18</ele>
        <time>2013-08-25T06:44:37Z</time>
      </trkpt>
      <trkpt lat="44.60469" lon="4.04203">
        <ele>1230.62</ele>
        <time>2013-08-25T06:44:51Z</time>
      </trkpt>
      <trkpt lat="44.60463" lon="4.04172">
        <ele>1230.14</ele>
        <time>2013-08-25T06:45:02Z</time>
      </trkpt>
      <trkpt lat="44.60446" lon="4.04144">
        <ele>1228.7</ele>
        <time>2013-08-25T06:45:10Z</time>
      </trkpt>
      <trkpt lat="44.60428" lon="4.04096">
        <ele>1226.78</ele>
        <time>2013-08-25T06:45:19Z</time>
      </trkpt>
      <trkpt lat="44.6042" lon="4.04021">
        <ele>1226.78</ele>
        <time>2013-08-25T06:45:34Z</time>
      </trkpt>
      <trkpt lat="44.60421" lon="4.03985">
        <ele>1225.34</ele>
        <time>2013-08-25T06:45:40Z</time>
      </trkpt>
      <trkpt lat="44.60423" lon="4.03962">
        <ele>1222.93</ele>
        <time>2013-08-25T06:45:43Z</time>
      </trkpt>
      <trkpt lat="44.6043" lon="4.03921">
        <ele>1221.49</ele>
        <time>2013-08-25T06:45:48Z</time>
      </trkpt>
      <trkpt lat="44.60433" lon="4.03912">
        <ele>1221.49</ele>
        <time>2013-08-25T06:45:49Z</time>
      </trkpt>
      <trkpt lat="44.60437" lon="4.03905">
        <ele>1220.53</ele>
        <time>2013-08-25T06:45:50Z</time>
      </trkpt>
      <trkpt lat="44.60442" lon="4.03897">
        <ele>1220.53</ele>
        <time>2013-08-25T06:45:51Z</time>
      </trkpt>
      <trkpt lat="44.60447" lon="4.03891">
        <ele>1220.05</ele>
        <time>2013-08-25T06:45:52Z</time>
      </trkpt>
      <trkpt lat="44.60451" lon="4.03884">
        <ele>1219.57</ele>
        <time>2013-08-25T06:45:53Z</time>
      </trkpt>
      <trkpt lat="44.60453" lon="4.03874">
        <ele>1219.09</ele>
        <time>2013-08-25T06:45:54Z</time>
      </trkpt>
      <trkpt lat="44.60453" lon="4.03865">
        <ele>1219.09</ele>
        <time>2013-08-25T06:45:55Z</time>
      </trkpt>
      <trkpt lat="44.6045" lon="4.03856">
        <ele>1219.57</ele>
        <time>2013-08-25T06:45:56Z</time>
      </trkpt>
      <trkpt lat="44.60447" lon="4.03848">
        <ele>1219.09</ele>
        <time>2013-08-25T06:45:57Z</time>
      </trkpt>
      <trkpt lat="44.60443" lon="4.03841">
        <ele>1218.61</ele>
        <time>2013-08-25T06:45:58Z</time>
      </trkpt>
      <trkpt lat="44.60411" lon="4.03759">
        <ele>1215.24</ele>
        <time>2013-08-25T06:46:09Z</time>
      </trkpt>
      <trkpt lat="44.60407" lon="4.03751">
        <ele>1214.28</ele>
        <time>2013-08-25T06:46:10Z</time>
      </trkpt>
      <trkpt lat="44.60402" lon="4.03742">
        <ele>1212.84</ele>
        <time>2013-08-25T06:46:11Z</time>
      </trkpt>
      <trkpt lat="44.60397" lon="4.03735">
        <ele>1213.32</ele>
        <time>2013-08-25T06:46:12Z</time>
      </trkpt>
      <trkpt lat="44.6039" lon="4.03728">
        <ele>1213.32</ele>
        <time>2013-08-25T06:46:13Z</time>
      </trkpt>
      <trkpt lat="44.60383" lon="4.03723">
        <ele>1213.32</ele>
        <time>2013-08-25T06:46:14Z</time>
      </trkpt>
      <trkpt lat="44.60326" lon="4.03669">
        <ele>1214.28</ele>
        <time>2013-08-25T06:46:25Z</time>
      </trkpt>
      <trkpt lat="44.60311" lon="4.03621">
        <ele>1213.32</ele>
        <time>2013-08-25T06:46:36Z</time>
      </trkpt>
      <trkpt lat="44.60313" lon="4.03604">
        <ele>1211.4</ele>
        <time>2013-08-25T06:46:39Z</time>
      </trkpt>
      <trkpt lat="44.60326" lon="4.03563">
        <ele>1209.48</ele>
        <time>2013-08-25T06:46:48Z</time>
      </trkpt>
      <trkpt lat="44.60337" lon="4.03542">
        <ele>1207.55</ele>
        <time>2013-08-25T06:46:52Z</time>
      </trkpt>
      <trkpt lat="44.6034" lon="4.03538">
        <ele>1206.59</ele>
        <time>2013-08-25T06:46:53Z</time>
      </trkpt>
      <trkpt lat="44.60363" lon="4.03518">
        <ele>1204.19</ele>
        <time>2013-08-25T06:46:59Z</time>
      </trkpt>
      <trkpt lat="44.60368" lon="4.03514">
        <ele>1203.71</ele>
        <time>2013-08-25T06:47:00Z</time>
      </trkpt>
      <trkpt lat="44.60376" lon="4.03508">
        <ele>1202.75</ele>
        <time>2013-08-25T06:47:02Z</time>
      </trkpt>
      <trkpt lat="44.60384" lon="4.035">
        <ele>1201.79</ele>
        <time>2013-08-25T06:47:04Z</time>
      </trkpt>
      <trkpt lat="44.60399" lon="4.03483">
        <ele>1198.9</ele>
        <time>2013-08-25T06:47:08Z</time>
      </trkpt>
      <trkpt lat="44.60402" lon="4.0348">
        <ele>1197.94</ele>
        <time>2013-08-25T06:47:10Z</time>
      </trkpt>
      <trkpt lat="44.60403" lon="4.03478">
        <ele>1197.94</ele>
        <time>2013-08-25T06:47:11Z</time>
      </trkpt>
      <trkpt lat="44.60404" lon="4.03476">
        <ele>1197.94</ele>
        <time>2013-08-25T06:47:12Z</time>
      </trkpt>
      <trkpt lat="44.60405" lon="4.03476">
        <ele>1197.46</ele>
        <time>2013-08-25T06:47:13Z</time>
      </trkpt>
      <trkpt lat="44.60407" lon="4.03476">
        <ele>1196.98</ele>
        <time>2013-08-25T06:47:14Z</time>
      </trkpt>
      <trkpt lat="44.6041" lon="4.03472">
        <ele>1196.5</ele>
        <time>2013-08-25T06:47:22Z</time>
      </trkpt>
      <trkpt lat="44.6041" lon="4.03471">
        <ele>1196.5</ele>
        <time>2013-08-25T06:47:25Z</time>
      </trkpt>
      <trkpt lat="44.60395" lon="4.03469">
        <ele>1194.09</ele>
        <time>2013-08-25T06:47:31Z</time>
      </trkpt>
      <trkpt lat="44.60376" lon="4.0347">
        <ele>1189.29</ele>
        <time>2013-08-25T06:47:37Z</time>
      </trkpt>
      <trkpt lat="44.60373" lon="4.03469">
        <ele>1189.29</ele>
        <time>2013-08-25T06:47:38Z</time>
      </trkpt>
      <trkpt lat="44.6036" lon="4.03467">
        <ele>1186.4</ele>
        <time>2013-08-25T06:47:42Z</time>
      </trkpt>
      <trkpt lat="44.60358" lon="4.03467">
        <ele>1185.92</ele>
        <time>2013-08-25T06:47:43Z</time>
      </trkpt>
      <trkpt lat="44.60356" lon="4.03463">
        <ele>1184.96</ele>
        <time>2013-08-25T06:47:45Z</time>
      </trkpt>
      <trkpt lat="44.60371" lon="4.0345">
        <ele>1181.6</ele>
        <time>2013-08-25T06:47:51Z</time>
      </trkpt>
      <trkpt lat="44.60372" lon="4.0344">
        <ele>1179.67</ele>
        <time>2013-08-25T06:47:56Z</time>
      </trkpt>
      <trkpt lat="44.60361" lon="4.03437">
        <ele>1176.79</ele>
        <time>2013-08-25T06:48:00Z</time>
      </trkpt>
      <trkpt lat="44.6036" lon="4.03434">
        <ele>1175.83</ele>
        <time>2013-08-25T06:48:02Z</time>
      </trkpt>
      <trkpt lat="44.60371" lon="4.03423">
        <ele>1173.43</ele>
        <time>2013-08-25T06:48:07Z</time>
      </trkpt>
      <trkpt lat="44.60382" lon="4.03402">
        <ele>1170.06</ele>
        <time>2013-08-25T06:48:13Z</time>
      </trkpt>
      <trkpt lat="44.60392" lon="4.03378">
        <ele>1166.7</ele>
        <time>2013-08-25T06:48:19Z</time>
      </trkpt>
      <trkpt lat="44.60402" lon="4.03357">
        <ele>1163.33</ele>
        <time>2013-08-25T06:48:25Z</time>
      </trkpt>
      <trkpt lat="44.60405" lon="4.03351">
        <ele>1162.37</ele>
        <time>2013-08-25T06:48:27Z</time>
      </trkpt>
      <trkpt lat="44.60407" lon="4.03346">
        <ele>1161.41</ele>
        <time>2013-08-25T06:48:37Z</time>
      </trkpt>
      <trkpt lat="44.60405" lon="4.03346">
        <ele>1160.93</ele>
        <time>2013-08-25T06:48:43Z</time>
      </trkpt>
      <trkpt lat="44.60405" lon="4.0334">
        <ele>1159.97</ele>
        <time>2013-08-25T06:48:48Z</time>
      </trkpt>
      <trkpt lat="44.60407" lon="4.03334">
        <ele>1159.49</ele>
        <time>2013-08-25T06:49:01Z</time>
      </trkpt>
      <trkpt lat="44.60407" lon="4.03334">
        <ele>1159.01</ele>
        <time>2013-08-25T06:49:16Z</time>
      </trkpt>
      <trkpt lat="44.60407" lon="4.03334">
        <ele>1158.53</ele>
        <time>2013-08-25T06:49:29Z</time>
      </trkpt>
      <trkpt lat="44.60402" lon="4.03333">
        <ele>1159.01</ele>
        <time>2013-08-25T06:49:33Z</time>
      </trkpt>
      <trkpt lat="44.60403" lon="4.03332">
        <ele>1158.53</ele>
        <time>2013-08-25T06:49:45Z</time>
      </trkpt>
      <trkpt lat="44.60407" lon="4.0333">
        <ele>1158.53</ele>
        <time>2013-08-25T06:49:50Z</time>
      </trkpt>
      <trkpt lat="44.60411" lon="4.0333">
        <ele>1159.49</ele>
        <time>2013-08-25T06:49:54Z</time>
      </trkpt>
      <trkpt lat="44.60416" lon="4.03325">
        <ele>1159.49</ele>
        <time>2013-08-25T06:50:05Z</time>
      </trkpt>
      <trkpt lat="44.60419" lon="4.0332">
        <ele>1158.53</ele>
        <time>2013-08-25T06:50:07Z</time>
      </trkpt>
      <trkpt lat="44.60428" lon="4.03301">
        <ele>1155.16</ele>
        <time>2013-08-25T06:50:12Z</time>
      </trkpt>
      <trkpt lat="44.60437" lon="4.0328">
        <ele>1151.8</ele>
        <time>2013-08-25T06:50:17Z</time>
      </trkpt>
      <trkpt lat="44.60442" lon="4.03267">
        <ele>1148.43</ele>
        <time>2013-08-25T06:50:20Z</time>
      </trkpt>
      <trkpt lat="44.60444" lon="4.03263">
        <ele>1148.43</ele>
        <time>2013-08-25T06:50:21Z</time>
      </trkpt>
      <trkpt lat="44.60453" lon="4.03254">
        <ele>1146.03</ele>
        <time>2013-08-25T06:50:26Z</time>
      </trkpt>
      <trkpt lat="44.60458" lon="4.0325">
        <ele>1145.07</ele>
        <time>2013-08-25T06:50:28Z</time>
      </trkpt>
      <trkpt lat="44.60463" lon="4.03243">
        <ele>1143.63</ele>
        <time>2013-08-25T06:50:30Z</time>
      </trkpt>
      <trkpt lat="44.6047" lon="4.03222">
        <ele>1140.74</ele>
        <time>2013-08-25T06:50:38Z</time>
      </trkpt>
      <trkpt lat="44.6047" lon="4.03222">
        <ele>1140.74</ele>
        <time>2013-08-25T06:50:58Z</time>
      </trkpt>
      <trkpt lat="44.60471" lon="4.03219">
        <ele>1140.26</ele>
        <time>2013-08-25T06:51:09Z</time>
      </trkpt>
      <trkpt lat="44.60473" lon="4.03216">
        <ele>1138.82</ele>
        <time>2013-08-25T06:51:21Z</time>
      </trkpt>
      <trkpt lat="44.60473" lon="4.03216">
        <ele>1139.78</ele>
        <time>2013-08-25T06:51:23Z</time>
      </trkpt>
      <trkpt lat="44.60473" lon="4.03216">
        <ele>1139.3</ele>
        <time>2013-08-25T06:51:39Z</time>
      </trkpt>
      <trkpt lat="44.60485" lon="4.03212">
        <ele>1137.86</ele>
        <time>2013-08-25T06:51:43Z</time>
      </trkpt>
      <trkpt lat="44.60489" lon="4.03212">
        <ele>1137.38</ele>
        <time>2013-08-25T06:51:44Z</time>
      </trkpt>
      <trkpt lat="44.60494" lon="4.03214">
        <ele>1136.9</ele>
        <time>2013-08-25T06:51:45Z</time>
      </trkpt>
      <trkpt lat="44.60498" lon="4.03215">
        <ele>1136.42</ele>
        <time>2013-08-25T06:51:46Z</time>
      </trkpt>
      <trkpt lat="44.60503" lon="4.03215">
        <ele>1136.42</ele>
        <time>2013-08-25T06:51:47Z</time>
      </trkpt>
      <trkpt lat="44.60508" lon="4.03213">
        <ele>1135.45</ele>
        <time>2013-08-25T06:51:48Z</time>
      </trkpt>
      <trkpt lat="44.60512" lon="4.0321">
        <ele>1135.45</ele>
        <time>2013-08-25T06:51:49Z</time>
      </trkpt>
      <trkpt lat="44.60516" lon="4.03206">
        <ele>1134.49</ele>
        <time>2013-08-25T06:51:50Z</time>
      </trkpt>
      <trkpt lat="44.60519" lon="4.03201">
        <ele>1133.53</ele>
        <time>2013-08-25T06:51:51Z</time>
      </trkpt>
      <trkpt lat="44.6052" lon="4.03193">
        <ele>1132.57</ele>
        <time>2013-08-25T06:51:52Z</time>
      </trkpt>
      <trkpt lat="44.60521" lon="4.03185">
        <ele>1131.61</ele>
        <time>2013-08-25T06:51:53Z</time>
      </trkpt>
      <trkpt lat="44.60524" lon="4.03176">
        <ele>1131.13</ele>
        <time>2013-08-25T06:51:54Z</time>
      </trkpt>
      <trkpt lat="44.60527" lon="4.03167">
        <ele>1129.21</ele>
        <time>2013-08-25T06:51:55Z</time>
      </trkpt>
      <trkpt lat="44.60531" lon="4.03157">
        <ele>1127.76</ele>
        <time>2013-08-25T06:51:56Z</time>
      </trkpt>
      <trkpt lat="44.60536" lon="4.03148">
        <ele>1127.76</ele>
        <time>2013-08-25T06:51:57Z</time>
      </trkpt>
      <trkpt lat="44.60542" lon="4.03133">
        <ele>1127.28</ele>
        <time>2013-08-25T06:51:59Z</time>
      </trkpt>
      <trkpt lat="44.60545" lon="4.03127">
        <ele>1126.8</ele>
        <time>2013-08-25T06:52:00Z</time>
      </trkpt>
      <trkpt lat="44.60548" lon="4.03123">
        <ele>1126.8</ele>
        <time>2013-08-25T06:52:01Z</time>
      </trkpt>
      <trkpt lat="44.60551" lon="4.03119">
        <ele>1126.32</ele>
        <time>2013-08-25T06:52:02Z</time>
      </trkpt>
      <trkpt lat="44.60554" lon="4.03115">
        <ele>1125.36</ele>
        <time>2013-08-25T06:52:03Z</time>
      </trkpt>
      <trkpt lat="44.60555" lon="4.03111">
        <ele>1125.36</ele>
        <time>2013-08-25T06:52:04Z</time>
      </trkpt>
      <trkpt lat="44.60556" lon="4.03108">
        <ele>1125.84</ele>
        <time>2013-08-25T06:52:05Z</time>
      </trkpt>
      <trkpt lat="44.60557" lon="4.03107">
        <ele>1125.36</ele>
        <time>2013-08-25T06:52:13Z</time>
      </trkpt>
      <trkpt lat="44.60557" lon="4.03107">
        <ele>1125.36</ele>
        <time>2013-08-25T06:52:27Z</time>
      </trkpt>
      <trkpt lat="44.60555" lon="4.03105">
        <ele>1123.92</ele>
        <time>2013-08-25T06:52:33Z</time>
      </trkpt>
      <trkpt lat="44.60557" lon="4.031">
        <ele>1122.96</ele>
        <time>2013-08-25T06:52:51Z</time>
      </trkpt>
      <trkpt lat="44.60558" lon="4.03098">
        <ele>1122.48</ele>
        <time>2013-08-25T06:52:52Z</time>
      </trkpt>
      <trkpt lat="44.60556" lon="4.03095">
        <ele>1121.03</ele>
        <time>2013-08-25T06:53:01Z</time>
      </trkpt>
      <trkpt lat="44.60556" lon="4.03095">
        <ele>1121.03</ele>
        <time>2013-08-25T06:53:12Z</time>
      </trkpt>
      <trkpt lat="44.60554" lon="4.03095">
        <ele>1121.03</ele>
        <time>2013-08-25T06:53:13Z</time>
      </trkpt>
      <trkpt lat="44.6055" lon="4.03096">
        <ele>1120.55</ele>
        <time>2013-08-25T06:53:15Z</time>
      </trkpt>
      <trkpt lat="44.60547" lon="4.03096">
        <ele>1120.55</ele>
        <time>2013-08-25T06:53:16Z</time>
      </trkpt>
      <trkpt lat="44.60545" lon="4.03097">
        <ele>1120.55</ele>
        <time>2013-08-25T06:53:17Z</time>
      </trkpt>
      <trkpt lat="44.60543" lon="4.03097">
        <ele>1120.07</ele>
        <time>2013-08-25T06:53:18Z</time>
      </trkpt>
      <trkpt lat="44.6054" lon="4.03098">
        <ele>1119.11</ele>
        <time>2013-08-25T06:53:19Z</time>
      </trkpt>
      <trkpt lat="44.60539" lon="4.03099">
        <ele>1118.63</ele>
        <time>2013-08-25T06:53:20Z</time>
      </trkpt>
      <trkpt lat="44.60536" lon="4.031">
        <ele>1118.15</ele>
        <time>2013-08-25T06:53:21Z</time>
      </trkpt>
      <trkpt lat="44.60534" lon="4.03101">
        <ele>1117.67</ele>
        <time>2013-08-25T06:53:22Z</time>
      </trkpt>
      <trkpt lat="44.60532" lon="4.03102">
        <ele>1117.19</ele>
        <time>2013-08-25T06:53:23Z</time>
      </trkpt>
      <trkpt lat="44.60531" lon="4.03099">
        <ele>1116.23</ele>
        <time>2013-08-25T06:53:25Z</time>
      </trkpt>
      <trkpt lat="44.60535" lon="4.03086">
        <ele>1114.79</ele>
        <time>2013-08-25T06:53:29Z</time>
      </trkpt>
      <trkpt lat="44.60538" lon="4.03078">
        <ele>1113.34</ele>
        <time>2013-08-25T06:53:32Z</time>
      </trkpt>
      <trkpt lat="44.6054" lon="4.03075">
        <ele>1112.38</ele>
        <time>2013-08-25T06:53:34Z</time>
      </trkpt>
      <trkpt lat="44.60539" lon="4.03072">
        <ele>1110.46</ele>
        <time>2013-08-25T06:53:40Z</time>
      </trkpt>
      <trkpt lat="44.6053" lon="4.03056">
        <ele>1108.54</ele>
        <time>2013-08-25T06:53:48Z</time>
      </trkpt>
      <trkpt lat="44.60524" lon="4.03058">
        <ele>1108.06</ele>
        <time>2013-08-25T06:53:51Z</time>
      </trkpt>
      <trkpt lat="44.60513" lon="4.03063">
        <ele>1105.65</ele>
        <time>2013-08-25T06:53:57Z</time>
      </trkpt>
      <trkpt lat="44.60494" lon="4.03064">
        <ele>1102.77</ele>
        <time>2013-08-25T06:54:05Z</time>
      </trkpt>
      <trkpt lat="44.60484" lon="4.03074">
        <ele>1100.37</ele>
        <time>2013-08-25T06:54:10Z</time>
      </trkpt>
      <trkpt lat="44.60484" lon="4.03074">
        <ele>1099.89</ele>
        <time>2013-08-25T06:54:12Z</time>
      </trkpt>
      <trkpt lat="44.60483" lon="4.03058">
        <ele>1097.96</ele>
        <time>2013-08-25T06:54:19Z</time>
      </trkpt>
      <trkpt lat="44.60483" lon="4.03049">
        <ele>1097</ele>
        <time>2013-08-25T06:54:21Z</time>
      </trkpt>
      <trkpt lat="44.6049" lon="4.03029">
        <ele>1094.6</ele>
        <time>2013-08-25T06:54:27Z</time>
      </trkpt>
      <trkpt lat="44.60481" lon="4.03027">
        <ele>1091.71</ele>
        <time>2013-08-25T06:54:33Z</time>
      </trkpt>
      <trkpt lat="44.60477" lon="4.03028">
        <ele>1091.71</ele>
        <time>2013-08-25T06:54:35Z</time>
      </trkpt>
      <trkpt lat="44.60472" lon="4.03026">
        <ele>1090.27</ele>
        <time>2013-08-25T06:54:42Z</time>
      </trkpt>
      <trkpt lat="44.60472" lon="4.03013">
        <ele>1089.31</ele>
        <time>2013-08-25T06:54:48Z</time>
      </trkpt>
      <trkpt lat="44.60475" lon="4.03013">
        <ele>1088.83</ele>
        <time>2013-08-25T06:54:54Z</time>
      </trkpt>
      <trkpt lat="44.60479" lon="4.03003">
        <ele>1086.91</ele>
        <time>2013-08-25T06:54:58Z</time>
      </trkpt>
      <trkpt lat="44.60481" lon="4.02998">
        <ele>1086.43</ele>
        <time>2013-08-25T06:55:00Z</time>
      </trkpt>
      <trkpt lat="44.60485" lon="4.02993">
        <ele>1085.95</ele>
        <time>2013-08-25T06:55:08Z</time>
      </trkpt>
      <trkpt lat="44.60488" lon="4.02988">
        <ele>1084.99</ele>
        <time>2013-08-25T06:55:20Z</time>
      </trkpt>
      <trkpt lat="44.60489" lon="4.02988">
        <ele>1084.02</ele>
        <time>2013-08-25T06:55:36Z</time>
      </trkpt>
      <trkpt lat="44.60489" lon="4.02988">
        <ele>1084.02</ele>
        <time>2013-08-25T06:55:41Z</time>
      </trkpt>
      <trkpt lat="44.60484" lon="4.0298">
        <ele>1083.06</ele>
        <time>2013-08-25T06:55:48Z</time>
      </trkpt>
      <trkpt lat="44.60486" lon="4.02971">
        <ele>1081.14</ele>
        <time>2013-08-25T06:55:55Z</time>
      </trkpt>
      <trkpt lat="44.60482" lon="4.0297">
        <ele>1081.62</ele>
        <time>2013-08-25T06:56:06Z</time>
      </trkpt>
      <trkpt lat="44.60481" lon="4.02969">
        <ele>1081.62</ele>
        <time>2013-08-25T06:56:21Z</time>
      </trkpt>
      <trkpt lat="44.60481" lon="4.02969">
        <ele>1081.62</ele>
        <time>2013-08-25T06:56:33Z</time>
      </trkpt>
      <trkpt lat="44.60481" lon="4.0297">
        <ele>1081.62</ele>
        <time>2013-08-25T06:56:51Z</time>
      </trkpt>
      <trkpt lat="44.60481" lon="4.0297">
        <ele>1081.14</ele>
        <time>2013-08-25T06:57:11Z</time>
      </trkpt>
      <trkpt lat="44.60481" lon="4.02971">
        <ele>1080.66</ele>
        <time>2013-08-25T06:57:26Z</time>
      </trkpt>
      <trkpt lat="44.60479" lon="4.0296">
        <ele>1079.22</ele>
        <time>2013-08-25T06:57:32Z</time>
      </trkpt>
      <trkpt lat="44.60474" lon="4.02952">
        <ele>1078.26</ele>
        <time>2013-08-25T06:57:37Z</time>
      </trkpt>
      <trkpt lat="44.60478" lon="4.02926">
        <ele>1073.93</ele>
        <time>2013-08-25T06:57:45Z</time>
      </trkpt>
      <trkpt lat="44.60479" lon="4.02923">
        <ele>1073.93</ele>
        <time>2013-08-25T06:57:46Z</time>
      </trkpt>
      <trkpt lat="44.60481" lon="4.02917">
        <ele>1073.45</ele>
        <time>2013-08-25T06:57:48Z</time>
      </trkpt>
      <trkpt lat="44.60481" lon="4.02903">
        <ele>1071.53</ele>
        <time>2013-08-25T06:57:52Z</time>
      </trkpt>
      <trkpt lat="44.60481" lon="4.029">
        <ele>1072.01</ele>
        <time>2013-08-25T06:57:53Z</time>
      </trkpt>
      <trkpt lat="44.60486" lon="4.0288">
        <ele>1067.68</ele>
        <time>2013-08-25T06:58:00Z</time>
      </trkpt>
      <trkpt lat="44.60487" lon="4.02872">
        <ele>1066.72</ele>
        <time>2013-08-25T06:58:02Z</time>
      </trkpt>
      <trkpt lat="44.60492" lon="4.02852">
        <ele>1062.87</ele>
        <time>2013-08-25T06:58:07Z</time>
      </trkpt>
      <trkpt lat="44.60492" lon="4.02847">
        <ele>1062.39</ele>
        <time>2013-08-25T06:58:08Z</time>
      </trkpt>
      <trkpt lat="44.60494" lon="4.02831">
        <ele>1059.99</ele>
        <time>2013-08-25T06:58:12Z</time>
      </trkpt>
      <trkpt lat="44.60495" lon="4.0282">
        <ele>1058.55</ele>
        <time>2013-08-25T06:58:15Z</time>
      </trkpt>
      <trkpt lat="44.60503" lon="4.02799">
        <ele>1053.74</ele>
        <time>2013-08-25T06:58:20Z</time>
      </trkpt>
      <trkpt lat="44.60505" lon="4.0279">
        <ele>1052.3</ele>
        <time>2013-08-25T06:58:22Z</time>
      </trkpt>
      <trkpt lat="44.60512" lon="4.02762">
        <ele>1048.94</ele>
        <time>2013-08-25T06:58:28Z</time>
      </trkpt>
      <trkpt lat="44.60511" lon="4.02755">
        <ele>1047.49</ele>
        <time>2013-08-25T06:58:30Z</time>
      </trkpt>
      <trkpt lat="44.60515" lon="4.02739">
        <ele>1046.05</ele>
        <time>2013-08-25T06:58:38Z</time>
      </trkpt>
      <trkpt lat="44.60516" lon="4.02737">
        <ele>1046.05</ele>
        <time>2013-08-25T06:58:46Z</time>
      </trkpt>
      <trkpt lat="44.6052" lon="4.02735">
        <ele>1047.01</ele>
        <time>2013-08-25T06:58:57Z</time>
      </trkpt>
      <trkpt lat="44.6052" lon="4.02735">
        <ele>1046.53</ele>
        <time>2013-08-25T06:59:02Z</time>
      </trkpt>
      <trkpt lat="44.60523" lon="4.0272">
        <ele>1045.09</ele>
        <time>2013-08-25T06:59:09Z</time>
      </trkpt>
      <trkpt lat="44.60523" lon="4.02713">
        <ele>1042.69</ele>
        <time>2013-08-25T06:59:11Z</time>
      </trkpt>
      <trkpt lat="44.60523" lon="4.02689">
        <ele>1040.76</ele>
        <time>2013-08-25T06:59:20Z</time>
      </trkpt>
      <trkpt lat="44.60524" lon="4.02679">
        <ele>1037.88</ele>
        <time>2013-08-25T06:59:28Z</time>
      </trkpt>
      <trkpt lat="44.60525" lon="4.02678">
        <ele>1037.88</ele>
        <time>2013-08-25T06:59:37Z</time>
      </trkpt>
      <trkpt lat="44.60525" lon="4.02671">
        <ele>1037.4</ele>
        <time>2013-08-25T06:59:41Z</time>
      </trkpt>
      <trkpt lat="44.60527" lon="4.02659">
        <ele>1036.44</ele>
        <time>2013-08-25T06:59:52Z</time>
      </trkpt>
      <trkpt lat="44.60531" lon="4.02651">
        <ele>1037.4</ele>
        <time>2013-08-25T07:00:04Z</time>
      </trkpt>
      <trkpt lat="44.60532" lon="4.02635">
        <ele>1037.88</ele>
        <time>2013-08-25T07:00:10Z</time>
      </trkpt>
      <trkpt lat="44.60526" lon="4.02622">
        <ele>1034.04</ele>
        <time>2013-08-25T07:00:16Z</time>
      </trkpt>
      <trkpt lat="44.60521" lon="4.0261">
        <ele>1031.63</ele>
        <time>2013-08-25T07:00:20Z</time>
      </trkpt>
      <trkpt lat="44.60518" lon="4.02605">
        <ele>1031.63</ele>
        <time>2013-08-25T07:00:22Z</time>
      </trkpt>
      <trkpt lat="44.60519" lon="4.02589">
        <ele>1028.75</ele>
        <time>2013-08-25T07:00:32Z</time>
      </trkpt>
      <trkpt lat="44.60519" lon="4.02589">
        <ele>1028.27</ele>
        <time>2013-08-25T07:00:41Z</time>
      </trkpt>
      <trkpt lat="44.60526" lon="4.02574">
        <ele>1028.27</ele>
        <time>2013-08-25T07:00:50Z</time>
      </trkpt>
      <trkpt lat="44.60525" lon="4.0256">
        <ele>1026.83</ele>
        <time>2013-08-25T07:00:54Z</time>
      </trkpt>
      <trkpt lat="44.60525" lon="4.02553">
        <ele>1026.34</ele>
        <time>2013-08-25T07:01:04Z</time>
      </trkpt>
      <trkpt lat="44.60525" lon="4.02553">
        <ele>1026.83</ele>
        <time>2013-08-25T07:01:17Z</time>
      </trkpt>
      <trkpt lat="44.60525" lon="4.02553">
        <ele>1026.83</ele>
        <time>2013-08-25T07:01:27Z</time>
      </trkpt>
      <trkpt lat="44.60525" lon="4.02556">
        <ele>1027.79</ele>
        <time>2013-08-25T07:01:30Z</time>
      </trkpt>
      <trkpt lat="44.60524" lon="4.02565">
        <ele>1027.79</ele>
        <time>2013-08-25T07:01:36Z</time>
      </trkpt>
      <trkpt lat="44.60525" lon="4.02581">
        <ele>1030.19</ele>
        <time>2013-08-25T07:01:45Z</time>
      </trkpt>
      <trkpt lat="44.60519" lon="4.02596">
        <ele>1030.67</ele>
        <time>2013-08-25T07:01:56Z</time>
      </trkpt>
      <trkpt lat="44.60515" lon="4.0261">
        <ele>1031.15</ele>
        <time>2013-08-25T07:02:06Z</time>
      </trkpt>
      <trkpt lat="44.60511" lon="4.02607">
        <ele>1028.75</ele>
        <time>2013-08-25T07:02:17Z</time>
      </trkpt>
      <trkpt lat="44.60511" lon="4.02604">
        <ele>1028.27</ele>
        <time>2013-08-25T07:02:21Z</time>
      </trkpt>
      <trkpt lat="44.60517" lon="4.02573">
        <ele>1025.86</ele>
        <time>2013-08-25T07:02:33Z</time>
      </trkpt>
      <trkpt lat="44.60523" lon="4.0255">
        <ele>1023.46</ele>
        <time>2013-08-25T07:02:43Z</time>
      </trkpt>
      <trkpt lat="44.60528" lon="4.0253">
        <ele>1021.54</ele>
        <time>2013-08-25T07:02:53Z</time>
      </trkpt>
      <trkpt lat="44.60528" lon="4.0253">
        <ele>1021.54</ele>
        <time>2013-08-25T07:02:55Z</time>
      </trkpt>
      <trkpt lat="44.60531" lon="4.02521">
        <ele>1020.1</ele>
        <time>2013-08-25T07:03:05Z</time>
      </trkpt>
      <trkpt lat="44.60534" lon="4.02494">
        <ele>1020.58</ele>
        <time>2013-08-25T07:03:15Z</time>
      </trkpt>
      <trkpt lat="44.60538" lon="4.02469">
        <ele>1019.62</ele>
        <time>2013-08-25T07:03:23Z</time>
      </trkpt>
      <trkpt lat="44.60548" lon="4.02432">
        <ele>1018.65</ele>
        <time>2013-08-25T07:03:32Z</time>
      </trkpt>
      <trkpt lat="44.6056" lon="4.0241">
        <ele>1017.21</ele>
        <time>2013-08-25T07:03:38Z</time>
      </trkpt>
      <trkpt lat="44.60565" lon="4.02401">
        <ele>1017.21</ele>
        <time>2013-08-25T07:03:40Z</time>
      </trkpt>
      <trkpt lat="44.60575" lon="4.0238">
        <ele>1015.77</ele>
        <time>2013-08-25T07:03:44Z</time>
      </trkpt>
      <trkpt lat="44.60579" lon="4.02372">
        <ele>1014.33</ele>
        <time>2013-08-25T07:03:47Z</time>
      </trkpt>
      <trkpt lat="44.6058" lon="4.02369">
        <ele>1014.33</ele>
        <time>2013-08-25T07:03:48Z</time>
      </trkpt>
      <trkpt lat="44.6058" lon="4.02367">
        <ele>1013.85</ele>
        <time>2013-08-25T07:03:49Z</time>
      </trkpt>
      <trkpt lat="44.60582" lon="4.02364">
        <ele>1013.85</ele>
        <time>2013-08-25T07:03:50Z</time>
      </trkpt>
      <trkpt lat="44.60582" lon="4.02361">
        <ele>1013.37</ele>
        <time>2013-08-25T07:03:51Z</time>
      </trkpt>
      <trkpt lat="44.60584" lon="4.02358">
        <ele>1012.89</ele>
        <time>2013-08-25T07:03:52Z</time>
      </trkpt>
      <trkpt lat="44.60585" lon="4.02355">
        <ele>1012.89</ele>
        <time>2013-08-25T07:03:53Z</time>
      </trkpt>
      <trkpt lat="44.60591" lon="4.02338">
        <ele>1010.48</ele>
        <time>2013-08-25T07:03:57Z</time>
      </trkpt>
      <trkpt lat="44.60593" lon="4.02332">
        <ele>1010.48</ele>
        <time>2013-08-25T07:03:58Z</time>
      </trkpt>
      <trkpt lat="44.60595" lon="4.02326">
        <ele>1010</ele>
        <time>2013-08-25T07:03:59Z</time>
      </trkpt>
      <trkpt lat="44.60597" lon="4.0232">
        <ele>1009.52</ele>
        <time>2013-08-25T07:04:00Z</time>
      </trkpt>
      <trkpt lat="44.606" lon="4.02314">
        <ele>1009.04</ele>
        <time>2013-08-25T07:04:01Z</time>
      </trkpt>
      <trkpt lat="44.60605" lon="4.02296">
        <ele>1008.56</ele>
        <time>2013-08-25T07:04:06Z</time>
      </trkpt>
      <trkpt lat="44.60605" lon="4.02293">
        <ele>1007.6</ele>
        <time>2013-08-25T07:04:07Z</time>
      </trkpt>
      <trkpt lat="44.60606" lon="4.02289">
        <ele>1007.6</ele>
        <time>2013-08-25T07:04:08Z</time>
      </trkpt>
      <trkpt lat="44.60607" lon="4.02285">
        <ele>1007.6</ele>
        <time>2013-08-25T07:04:09Z</time>
      </trkpt>
      <trkpt lat="44.60609" lon="4.02281">
        <ele>1006.64</ele>
        <time>2013-08-25T07:04:10Z</time>
      </trkpt>
      <trkpt lat="44.60614" lon="4.02272">
        <ele>1006.16</ele>
        <time>2013-08-25T07:04:12Z</time>
      </trkpt>
      <trkpt lat="44.60616" lon="4.02268">
        <ele>1005.68</ele>
        <time>2013-08-25T07:04:13Z</time>
      </trkpt>
      <trkpt lat="44.60617" lon="4.02262">
        <ele>1005.68</ele>
        <time>2013-08-25T07:04:14Z</time>
      </trkpt>
      <trkpt lat="44.60617" lon="4.02252">
        <ele>1003.75</ele>
        <time>2013-08-25T07:04:16Z</time>
      </trkpt>
      <trkpt lat="44.60618" lon="4.02246">
        <ele>1004.23</ele>
        <time>2013-08-25T07:04:17Z</time>
      </trkpt>
      <trkpt lat="44.60619" lon="4.0224">
        <ele>1004.23</ele>
        <time>2013-08-25T07:04:18Z</time>
      </trkpt>
      <trkpt lat="44.60619" lon="4.02235">
        <ele>1004.23</ele>
        <time>2013-08-25T07:04:19Z</time>
      </trkpt>
      <trkpt lat="44.60619" lon="4.02231">
        <ele>1003.75</ele>
        <time>2013-08-25T07:04:20Z</time>
      </trkpt>
      <trkpt lat="44.6062" lon="4.02227">
        <ele>1004.72</ele>
        <time>2013-08-25T07:04:21Z</time>
      </trkpt>
      <trkpt lat="44.6062" lon="4.02223">
        <ele>1004.72</ele>
        <time>2013-08-25T07:04:22Z</time>
      </trkpt>
      <trkpt lat="44.60621" lon="4.02212">
        <ele>1004.72</ele>
        <time>2013-08-25T07:04:25Z</time>
      </trkpt>
      <trkpt lat="44.60619" lon="4.02209">
        <ele>1004.72</ele>
        <time>2013-08-25T07:04:26Z</time>
      </trkpt>
      <trkpt lat="44.60606" lon="4.02163">
        <ele>1002.31</ele>
        <time>2013-08-25T07:04:36Z</time>
      </trkpt>
      <trkpt lat="44.60606" lon="4.02128">
        <ele>1000.39</ele>
        <time>2013-08-25T07:04:43Z</time>
      </trkpt>
      <trkpt lat="44.60605" lon="4.02127">
        <ele>1000.39</ele>
        <time>2013-08-25T07:04:50Z</time>
      </trkpt>
      <trkpt lat="44.60604" lon="4.02127">
        <ele>1000.39</ele>
        <time>2013-08-25T07:05:03Z</time>
      </trkpt>
      <trkpt lat="44.60606" lon="4.02122">
        <ele>1000.39</ele>
        <time>2013-08-25T07:05:16Z</time>
      </trkpt>
      <trkpt lat="44.60606" lon="4.02122">
        <ele>1000.87</ele>
        <time>2013-08-25T07:05:26Z</time>
      </trkpt>
      <trkpt lat="44.60606" lon="4.02122">
        <ele>999.91</ele>
        <time>2013-08-25T07:05:31Z</time>
      </trkpt>
      <trkpt lat="44.60606" lon="4.0212">
        <ele>1000.39</ele>
        <time>2013-08-25T07:05:46Z</time>
      </trkpt>
      <trkpt lat="44.60607" lon="4.02117">
        <ele>999.91</ele>
        <time>2013-08-25T07:05:47Z</time>
      </trkpt>
      <trkpt lat="44.60607" lon="4.02114">
        <ele>999.91</ele>
        <time>2013-08-25T07:05:48Z</time>
      </trkpt>
      <trkpt lat="44.60607" lon="4.02111">
        <ele>999.43</ele>
        <time>2013-08-25T07:05:49Z</time>
      </trkpt>
      <trkpt lat="44.60622" lon="4.02072">
        <ele>997.02</ele>
        <time>2013-08-25T07:05:59Z</time>
      </trkpt>
      <trkpt lat="44.60625" lon="4.0206">
        <ele>995.58</ele>
        <time>2013-08-25T07:06:01Z</time>
      </trkpt>
      <trkpt lat="44.60627" lon="4.02048">
        <ele>995.1</ele>
        <time>2013-08-25T07:06:03Z</time>
      </trkpt>
      <trkpt lat="44.60627" lon="4.02042">
        <ele>994.62</ele>
        <time>2013-08-25T07:06:04Z</time>
      </trkpt>
      <trkpt lat="44.60624" lon="4.02038">
        <ele>995.1</ele>
        <time>2013-08-25T07:06:05Z</time>
      </trkpt>
      <trkpt lat="44.60617" lon="4.02033">
        <ele>994.62</ele>
        <time>2013-08-25T07:06:07Z</time>
      </trkpt>
      <trkpt lat="44.60609" lon="4.02027">
        <ele>993.18</ele>
        <time>2013-08-25T07:06:09Z</time>
      </trkpt>
      <trkpt lat="44.60606" lon="4.02024">
        <ele>992.7</ele>
        <time>2013-08-25T07:06:10Z</time>
      </trkpt>
      <trkpt lat="44.60601" lon="4.02021">
        <ele>992.7</ele>
        <time>2013-08-25T07:06:11Z</time>
      </trkpt>
      <trkpt lat="44.60597" lon="4.02019">
        <ele>992.22</ele>
        <time>2013-08-25T07:06:12Z</time>
      </trkpt>
      <trkpt lat="44.60593" lon="4.02015">
        <ele>991.74</ele>
        <time>2013-08-25T07:06:13Z</time>
      </trkpt>
      <trkpt lat="44.60589" lon="4.02011">
        <ele>991.26</ele>
        <time>2013-08-25T07:06:14Z</time>
      </trkpt>
      <trkpt lat="44.60584" lon="4.02002">
        <ele>991.26</ele>
        <time>2013-08-25T07:06:16Z</time>
      </trkpt>
      <trkpt lat="44.60579" lon="4.01991">
        <ele>990.78</ele>
        <time>2013-08-25T07:06:18Z</time>
      </trkpt>
      <trkpt lat="44.60572" lon="4.01974">
        <ele>988.85</ele>
        <time>2013-08-25T07:06:21Z</time>
      </trkpt>
      <trkpt lat="44.6057" lon="4.01968">
        <ele>988.37</ele>
        <time>2013-08-25T07:06:22Z</time>
      </trkpt>
      <trkpt lat="44.60568" lon="4.01961">
        <ele>987.41</ele>
        <time>2013-08-25T07:06:23Z</time>
      </trkpt>
      <trkpt lat="44.60567" lon="4.01954">
        <ele>986.45</ele>
        <time>2013-08-25T07:06:24Z</time>
      </trkpt>
      <trkpt lat="44.60564" lon="4.01938">
        <ele>985.97</ele>
        <time>2013-08-25T07:06:26Z</time>
      </trkpt>
      <trkpt lat="44.60561" lon="4.01922">
        <ele>985.01</ele>
        <time>2013-08-25T07:06:28Z</time>
      </trkpt>
      <trkpt lat="44.60555" lon="4.01898">
        <ele>984.05</ele>
        <time>2013-08-25T07:06:31Z</time>
      </trkpt>
      <trkpt lat="44.60552" lon="4.01892">
        <ele>983.57</ele>
        <time>2013-08-25T07:06:32Z</time>
      </trkpt>
      <trkpt lat="44.60548" lon="4.01886">
        <ele>983.57</ele>
        <time>2013-08-25T07:06:33Z</time>
      </trkpt>
      <trkpt lat="44.60545" lon="4.01881">
        <ele>983.09</ele>
        <time>2013-08-25T07:06:34Z</time>
      </trkpt>
      <trkpt lat="44.60542" lon="4.01878">
        <ele>983.57</ele>
        <time>2013-08-25T07:06:35Z</time>
      </trkpt>
      <trkpt lat="44.60539" lon="4.01875">
        <ele>983.57</ele>
        <time>2013-08-25T07:06:36Z</time>
      </trkpt>
      <trkpt lat="44.60537" lon="4.01872">
        <ele>983.09</ele>
        <time>2013-08-25T07:06:37Z</time>
      </trkpt>
      <trkpt lat="44.60535" lon="4.01868">
        <ele>983.09</ele>
        <time>2013-08-25T07:06:38Z</time>
      </trkpt>
      <trkpt lat="44.60532" lon="4.01864">
        <ele>983.09</ele>
        <time>2013-08-25T07:06:39Z</time>
      </trkpt>
      <trkpt lat="44.60529" lon="4.01861">
        <ele>983.09</ele>
        <time>2013-08-25T07:06:40Z</time>
      </trkpt>
      <trkpt lat="44.60522" lon="4.01849">
        <ele>982.6</ele>
        <time>2013-08-25T07:06:43Z</time>
      </trkpt>
      <trkpt lat="44.6052" lon="4.01843">
        <ele>982.12</ele>
        <time>2013-08-25T07:06:44Z</time>
      </trkpt>
      <trkpt lat="44.60519" lon="4.01837">
        <ele>981.16</ele>
        <time>2013-08-25T07:06:45Z</time>
      </trkpt>
      <trkpt lat="44.6052" lon="4.01829">
        <ele>980.68</ele>
        <time>2013-08-25T07:06:46Z</time>
      </trkpt>
      <trkpt lat="44.60521" lon="4.01823">
        <ele>979.72</ele>
        <time>2013-08-25T07:06:47Z</time>
      </trkpt>
      <trkpt lat="44.60523" lon="4.01817">
        <ele>979.24</ele>
        <time>2013-08-25T07:06:48Z</time>
      </trkpt>
      <trkpt lat="44.60525" lon="4.01813">
        <ele>979.24</ele>
        <time>2013-08-25T07:06:49Z</time>
      </trkpt>
      <trkpt lat="44.60528" lon="4.01809">
        <ele>978.28</ele>
        <time>2013-08-25T07:06:50Z</time>
      </trkpt>
      <trkpt lat="44.60537" lon="4.01799">
        <ele>977.8</ele>
        <time>2013-08-25T07:06:53Z</time>
      </trkpt>
      <trkpt lat="44.6054" lon="4.018">
        <ele>977.32</ele>
        <time>2013-08-25T07:06:54Z</time>
      </trkpt>
      <trkpt lat="44.60557" lon="4.01814">
        <ele>973.95</ele>
        <time>2013-08-25T07:06:59Z</time>
      </trkpt>
      <trkpt lat="44.60565" lon="4.01818">
        <ele>972.51</ele>
        <time>2013-08-25T07:07:01Z</time>
      </trkpt>
      <trkpt lat="44.60569" lon="4.01818">
        <ele>972.03</ele>
        <time>2013-08-25T07:07:02Z</time>
      </trkpt>
      <trkpt lat="44.60574" lon="4.01816">
        <ele>971.55</ele>
        <time>2013-08-25T07:07:03Z</time>
      </trkpt>
      <trkpt lat="44.60577" lon="4.01813">
        <ele>971.07</ele>
        <time>2013-08-25T07:07:04Z</time>
      </trkpt>
      <trkpt lat="44.60581" lon="4.0181">
        <ele>970.59</ele>
        <time>2013-08-25T07:07:05Z</time>
      </trkpt>
      <trkpt lat="44.60588" lon="4.01805">
        <ele>969.63</ele>
        <time>2013-08-25T07:07:07Z</time>
      </trkpt>
      <trkpt lat="44.60598" lon="4.01804">
        <ele>968.67</ele>
        <time>2013-08-25T07:07:09Z</time>
      </trkpt>
      <trkpt lat="44.60604" lon="4.01803">
        <ele>967.7</ele>
        <time>2013-08-25T07:07:10Z</time>
      </trkpt>
      <trkpt lat="44.60609" lon="4.01802">
        <ele>967.22</ele>
        <time>2013-08-25T07:07:11Z</time>
      </trkpt>
      <trkpt lat="44.60619" lon="4.01799">
        <ele>966.74</ele>
        <time>2013-08-25T07:07:13Z</time>
      </trkpt>
      <trkpt lat="44.60624" lon="4.018">
        <ele>965.78</ele>
        <time>2013-08-25T07:07:14Z</time>
      </trkpt>
      <trkpt lat="44.60629" lon="4.01801">
        <ele>966.26</ele>
        <time>2013-08-25T07:07:15Z</time>
      </trkpt>
      <trkpt lat="44.60633" lon="4.01801">
        <ele>965.78</ele>
        <time>2013-08-25T07:07:16Z</time>
      </trkpt>
      <trkpt lat="44.60637" lon="4.018">
        <ele>965.3</ele>
        <time>2013-08-25T07:07:17Z</time>
      </trkpt>
      <trkpt lat="44.60641" lon="4.01798">
        <ele>964.34</ele>
        <time>2013-08-25T07:07:18Z</time>
      </trkpt>
      <trkpt lat="44.60645" lon="4.01797">
        <ele>963.86</ele>
        <time>2013-08-25T07:07:19Z</time>
      </trkpt>
      <trkpt lat="44.60649" lon="4.01797">
        <ele>963.86</ele>
        <time>2013-08-25T07:07:20Z</time>
      </trkpt>
      <trkpt lat="44.60651" lon="4.01798">
        <ele>963.38</ele>
        <time>2013-08-25T07:07:21Z</time>
      </trkpt>
      <trkpt lat="44.60653" lon="4.01798">
        <ele>962.9</ele>
        <time>2013-08-25T07:07:30Z</time>
      </trkpt>
      <trkpt lat="44.60653" lon="4.01799">
        <ele>962.9</ele>
        <time>2013-08-25T07:07:43Z</time>
      </trkpt>
      <trkpt lat="44.60654" lon="4.01796">
        <ele>962.9</ele>
        <time>2013-08-25T07:07:53Z</time>
      </trkpt>
      <trkpt lat="44.60654" lon="4.01794">
        <ele>960.98</ele>
        <time>2013-08-25T07:08:02Z</time>
      </trkpt>
      <trkpt lat="44.60654" lon="4.01794">
        <ele>961.46</ele>
        <time>2013-08-25T07:08:25Z</time>
      </trkpt>
      <trkpt lat="44.60654" lon="4.01794">
        <ele>961.46</ele>
        <time>2013-08-25T07:08:37Z</time>
      </trkpt>
      <trkpt lat="44.60655" lon="4.01792">
        <ele>961.94</ele>
        <time>2013-08-25T07:08:39Z</time>
      </trkpt>
      <trkpt lat="44.60655" lon="4.01789">
        <ele>960.98</ele>
        <time>2013-08-25T07:08:40Z</time>
      </trkpt>
      <trkpt lat="44.60655" lon="4.01784">
        <ele>960.49</ele>
        <time>2013-08-25T07:08:41Z</time>
      </trkpt>
      <trkpt lat="44.60654" lon="4.01779">
        <ele>960.01</ele>
        <time>2013-08-25T07:08:42Z</time>
      </trkpt>
      <trkpt lat="44.60655" lon="4.01773">
        <ele>960.01</ele>
        <time>2013-08-25T07:08:43Z</time>
      </trkpt>
      <trkpt lat="44.60655" lon="4.01767">
        <ele>959.53</ele>
        <time>2013-08-25T07:08:44Z</time>
      </trkpt>
      <trkpt lat="44.60656" lon="4.01761">
        <ele>959.05</ele>
        <time>2013-08-25T07:08:45Z</time>
      </trkpt>
      <trkpt lat="44.60659" lon="4.01756">
        <ele>959.05</ele>
        <time>2013-08-25T07:08:46Z</time>
      </trkpt>
      <trkpt lat="44.60664" lon="4.01753">
        <ele>958.57</ele>
        <time>2013-08-25T07:08:47Z</time>
      </trkpt>
      <trkpt lat="44.60667" lon="4.01749">
        <ele>958.09</ele>
        <time>2013-08-25T07:08:48Z</time>
      </trkpt>
      <trkpt lat="44.60668" lon="4.01743">
        <ele>957.61</ele>
        <time>2013-08-25T07:08:49Z</time>
      </trkpt>
      <trkpt lat="44.60667" lon="4.01736">
        <ele>957.61</ele>
        <time>2013-08-25T07:08:50Z</time>
      </trkpt>
      <trkpt lat="44.60667" lon="4.0173">
        <ele>957.13</ele>
        <time>2013-08-25T07:08:51Z</time>
      </trkpt>
      <trkpt lat="44.60667" lon="4.01723">
        <ele>957.13</ele>
        <time>2013-08-25T07:08:52Z</time>
      </trkpt>
      <trkpt lat="44.60667" lon="4.01716">
        <ele>957.13</ele>
        <time>2013-08-25T07:08:53Z</time>
      </trkpt>
      <trkpt lat="44.60669" lon="4.01709">
        <ele>956.65</ele>
        <time>2013-08-25T07:08:54Z</time>
      </trkpt>
      <trkpt lat="44.60672" lon="4.01695">
        <ele>955.69</ele>
        <time>2013-08-25T07:08:56Z</time>
      </trkpt>
      <trkpt lat="44.60677" lon="4.01672">
        <ele>953.77</ele>
        <time>2013-08-25T07:08:59Z</time>
      </trkpt>
      <trkpt lat="44.6068" lon="4.01664">
        <ele>952.8</ele>
        <time>2013-08-25T07:09:00Z</time>
      </trkpt>
      <trkpt lat="44.60691" lon="4.01627">
        <ele>949.44</ele>
        <time>2013-08-25T07:09:04Z</time>
      </trkpt>
      <trkpt lat="44.60693" lon="4.01618">
        <ele>948.48</ele>
        <time>2013-08-25T07:09:05Z</time>
      </trkpt>
      <trkpt lat="44.60696" lon="4.016">
        <ele>948</ele>
        <time>2013-08-25T07:09:07Z</time>
      </trkpt>
      <trkpt lat="44.60698" lon="4.01592">
        <ele>947.04</ele>
        <time>2013-08-25T07:09:08Z</time>
      </trkpt>
      <trkpt lat="44.60701" lon="4.01584">
        <ele>946.07</ele>
        <time>2013-08-25T07:09:09Z</time>
      </trkpt>
      <trkpt lat="44.60704" lon="4.01576">
        <ele>945.59</ele>
        <time>2013-08-25T07:09:10Z</time>
      </trkpt>
      <trkpt lat="44.60707" lon="4.01569">
        <ele>945.11</ele>
        <time>2013-08-25T07:09:11Z</time>
      </trkpt>
      <trkpt lat="44.6071" lon="4.01562">
        <ele>944.63</ele>
        <time>2013-08-25T07:09:12Z</time>
      </trkpt>
      <trkpt lat="44.60714" lon="4.01555">
        <ele>943.19</ele>
        <time>2013-08-25T07:09:13Z</time>
      </trkpt>
      <trkpt lat="44.60717" lon="4.01547">
        <ele>943.19</ele>
        <time>2013-08-25T07:09:14Z</time>
      </trkpt>
      <trkpt lat="44.6072" lon="4.01538">
        <ele>942.71</ele>
        <time>2013-08-25T07:09:15Z</time>
      </trkpt>
      <trkpt lat="44.60723" lon="4.01529">
        <ele>941.27</ele>
        <time>2013-08-25T07:09:16Z</time>
      </trkpt>
      <trkpt lat="44.60726" lon="4.0152">
        <ele>941.27</ele>
        <time>2013-08-25T07:09:17Z</time>
      </trkpt>
      <trkpt lat="44.60737" lon="4.01487">
        <ele>937.9</ele>
        <time>2013-08-25T07:09:20Z</time>
      </trkpt>
      <trkpt lat="44.60745" lon="4.01465">
        <ele>936.46</ele>
        <time>2013-08-25T07:09:22Z</time>
      </trkpt>
      <trkpt lat="44.60756" lon="4.01434">
        <ele>935.02</ele>
        <time>2013-08-25T07:09:25Z</time>
      </trkpt>
      <trkpt lat="44.6076" lon="4.01412">
        <ele>934.06</ele>
        <time>2013-08-25T07:09:27Z</time>
      </trkpt>
      <trkpt lat="44.60762" lon="4.01402">
        <ele>933.1</ele>
        <time>2013-08-25T07:09:28Z</time>
      </trkpt>
      <trkpt lat="44.60769" lon="4.01362">
        <ele>930.69</ele>
        <time>2013-08-25T07:09:32Z</time>
      </trkpt>
      <trkpt lat="44.6077" lon="4.01353">
        <ele>929.73</ele>
        <time>2013-08-25T07:09:33Z</time>
      </trkpt>
      <trkpt lat="44.60771" lon="4.01344">
        <ele>929.73</ele>
        <time>2013-08-25T07:09:34Z</time>
      </trkpt>
      <trkpt lat="44.60773" lon="4.01335">
        <ele>928.77</ele>
        <time>2013-08-25T07:09:35Z</time>
      </trkpt>
      <trkpt lat="44.60773" lon="4.01325">
        <ele>927.33</ele>
        <time>2013-08-25T07:09:36Z</time>
      </trkpt>
      <trkpt lat="44.60773" lon="4.01313">
        <ele>926.85</ele>
        <time>2013-08-25T07:09:37Z</time>
      </trkpt>
      <trkpt lat="44.60772" lon="4.01303">
        <ele>926.85</ele>
        <time>2013-08-25T07:09:38Z</time>
      </trkpt>
      <trkpt lat="44.60772" lon="4.01295">
        <ele>926.37</ele>
        <time>2013-08-25T07:09:39Z</time>
      </trkpt>
      <trkpt lat="44.60772" lon="4.01287">
        <ele>925.89</ele>
        <time>2013-08-25T07:09:40Z</time>
      </trkpt>
      <trkpt lat="44.60772" lon="4.0128">
        <ele>925.89</ele>
        <time>2013-08-25T07:09:41Z</time>
      </trkpt>
      <trkpt lat="44.60772" lon="4.01272">
        <ele>924.45</ele>
        <time>2013-08-25T07:09:42Z</time>
      </trkpt>
      <trkpt lat="44.6077" lon="4.01239">
        <ele>921.56</ele>
        <time>2013-08-25T07:09:46Z</time>
      </trkpt>
      <trkpt lat="44.6077" lon="4.01213">
        <ele>920.12</ele>
        <time>2013-08-25T07:09:49Z</time>
      </trkpt>
      <trkpt lat="44.6077" lon="4.01205">
        <ele>919.64</ele>
        <time>2013-08-25T07:09:50Z</time>
      </trkpt>
      <trkpt lat="44.6077" lon="4.01198">
        <ele>919.16</ele>
        <time>2013-08-25T07:09:51Z</time>
      </trkpt>
      <trkpt lat="44.6077" lon="4.01191">
        <ele>918.68</ele>
        <time>2013-08-25T07:09:52Z</time>
      </trkpt>
      <trkpt lat="44.60769" lon="4.01182">
        <ele>917.72</ele>
        <time>2013-08-25T07:09:53Z</time>
      </trkpt>
      <trkpt lat="44.60765" lon="4.01152">
        <ele>914.83</ele>
        <time>2013-08-25T07:09:56Z</time>
      </trkpt>
      <trkpt lat="44.60765" lon="4.01143">
        <ele>913.87</ele>
        <time>2013-08-25T07:09:57Z</time>
      </trkpt>
      <trkpt lat="44.60764" lon="4.01125">
        <ele>912.43</ele>
        <time>2013-08-25T07:09:59Z</time>
      </trkpt>
      <trkpt lat="44.60764" lon="4.01118">
        <ele>911.95</ele>
        <time>2013-08-25T07:10:00Z</time>
      </trkpt>
      <trkpt lat="44.60766" lon="4.01093">
        <ele>910.51</ele>
        <time>2013-08-25T07:10:05Z</time>
      </trkpt>
      <trkpt lat="44.60767" lon="4.01078">
        <ele>909.54</ele>
        <time>2013-08-25T07:10:15Z</time>
      </trkpt>
      <trkpt lat="44.60768" lon="4.01067">
        <ele>908.1</ele>
        <time>2013-08-25T07:10:33Z</time>
      </trkpt>
      <trkpt lat="44.60768" lon="4.01063">
        <ele>907.62</ele>
        <time>2013-08-25T07:10:34Z</time>
      </trkpt>
      <trkpt lat="44.60768" lon="4.0106">
        <ele>907.14</ele>
        <time>2013-08-25T07:10:35Z</time>
      </trkpt>
      <trkpt lat="44.60767" lon="4.01057">
        <ele>906.66</ele>
        <time>2013-08-25T07:10:36Z</time>
      </trkpt>
      <trkpt lat="44.60766" lon="4.01053">
        <ele>904.74</ele>
        <time>2013-08-25T07:10:37Z</time>
      </trkpt>
      <trkpt lat="44.60766" lon="4.01049">
        <ele>903.78</ele>
        <time>2013-08-25T07:10:38Z</time>
      </trkpt>
      <trkpt lat="44.60767" lon="4.01045">
        <ele>903.3</ele>
        <time>2013-08-25T07:10:39Z</time>
      </trkpt>
      <trkpt lat="44.60768" lon="4.01041">
        <ele>902.33</ele>
        <time>2013-08-25T07:10:40Z</time>
      </trkpt>
      <trkpt lat="44.60767" lon="4.01037">
        <ele>902.33</ele>
        <time>2013-08-25T07:10:41Z</time>
      </trkpt>
      <trkpt lat="44.60766" lon="4.01019">
        <ele>899.93</ele>
        <time>2013-08-25T07:10:44Z</time>
      </trkpt>
      <trkpt lat="44.60766" lon="4.01012">
        <ele>898.49</ele>
        <time>2013-08-25T07:10:45Z</time>
      </trkpt>
      <trkpt lat="44.60767" lon="4.01007">
        <ele>898.49</ele>
        <time>2013-08-25T07:10:46Z</time>
      </trkpt>
      <trkpt lat="44.60766" lon="4.01002">
        <ele>898.49</ele>
        <time>2013-08-25T07:10:47Z</time>
      </trkpt>
      <trkpt lat="44.60765" lon="4.00994">
        <ele>898.49</ele>
        <time>2013-08-25T07:10:57Z</time>
      </trkpt>
      <trkpt lat="44.60765" lon="4.00991">
        <ele>897.53</ele>
        <time>2013-08-25T07:10:58Z</time>
      </trkpt>
      <trkpt lat="44.60765" lon="4.00987">
        <ele>897.05</ele>
        <time>2013-08-25T07:10:59Z</time>
      </trkpt>
      <trkpt lat="44.60765" lon="4.00983">
        <ele>897.05</ele>
        <time>2013-08-25T07:11:00Z</time>
      </trkpt>
      <trkpt lat="44.60765" lon="4.00978">
        <ele>895.61</ele>
        <time>2013-08-25T07:11:01Z</time>
      </trkpt>
      <trkpt lat="44.60766" lon="4.00973">
        <ele>895.12</ele>
        <time>2013-08-25T07:11:02Z</time>
      </trkpt>
      <trkpt lat="44.60767" lon="4.00969">
        <ele>895.12</ele>
        <time>2013-08-25T07:11:03Z</time>
      </trkpt>
      <trkpt lat="44.60768" lon="4.00964">
        <ele>894.16</ele>
        <time>2013-08-25T07:11:04Z</time>
      </trkpt>
      <trkpt lat="44.60769" lon="4.00961">
        <ele>893.68</ele>
        <time>2013-08-25T07:11:05Z</time>
      </trkpt>
      <trkpt lat="44.6077" lon="4.00957">
        <ele>893.2</ele>
        <time>2013-08-25T07:11:06Z</time>
      </trkpt>
      <trkpt lat="44.60771" lon="4.00954">
        <ele>892.72</ele>
        <time>2013-08-25T07:11:07Z</time>
      </trkpt>
      <trkpt lat="44.60772" lon="4.0095">
        <ele>892.24</ele>
        <time>2013-08-25T07:11:08Z</time>
      </trkpt>
      <trkpt lat="44.60772" lon="4.00947">
        <ele>892.24</ele>
        <time>2013-08-25T07:11:09Z</time>
      </trkpt>
      <trkpt lat="44.60775" lon="4.00924">
        <ele>889.36</ele>
        <time>2013-08-25T07:11:14Z</time>
      </trkpt>
      <trkpt lat="44.60782" lon="4.00898">
        <ele>885.99</ele>
        <time>2013-08-25T07:11:21Z</time>
      </trkpt>
      <trkpt lat="44.60785" lon="4.00879">
        <ele>882.63</ele>
        <time>2013-08-25T07:11:26Z</time>
      </trkpt>
      <trkpt lat="44.60786" lon="4.00875">
        <ele>881.67</ele>
        <time>2013-08-25T07:11:27Z</time>
      </trkpt>
      <trkpt lat="44.60787" lon="4.00869">
        <ele>880.71</ele>
        <time>2013-08-25T07:11:28Z</time>
      </trkpt>
      <trkpt lat="44.60788" lon="4.00864">
        <ele>879.74</ele>
        <time>2013-08-25T07:11:29Z</time>
      </trkpt>
      <trkpt lat="44.60788" lon="4.00859">
        <ele>879.26</ele>
        <time>2013-08-25T07:11:30Z</time>
      </trkpt>
      <trkpt lat="44.60788" lon="4.00854">
        <ele>878.78</ele>
        <time>2013-08-25T07:11:31Z</time>
      </trkpt>
      <trkpt lat="44.60789" lon="4.0085">
        <ele>878.3</ele>
        <time>2013-08-25T07:11:32Z</time>
      </trkpt>
      <trkpt lat="44.60796" lon="4.00833">
        <ele>876.86</ele>
        <time>2013-08-25T07:11:37Z</time>
      </trkpt>
      <trkpt lat="44.60798" lon="4.00829">
        <ele>876.38</ele>
        <time>2013-08-25T07:11:38Z</time>
      </trkpt>
      <trkpt lat="44.60799" lon="4.00824">
        <ele>875.9</ele>
        <time>2013-08-25T07:11:39Z</time>
      </trkpt>
      <trkpt lat="44.60804" lon="4.00806">
        <ele>873.5</ele>
        <time>2013-08-25T07:11:42Z</time>
      </trkpt>
      <trkpt lat="44.60806" lon="4.00798">
        <ele>873.01</ele>
        <time>2013-08-25T07:11:43Z</time>
      </trkpt>
      <trkpt lat="44.60808" lon="4.00789">
        <ele>873.01</ele>
        <time>2013-08-25T07:11:44Z</time>
      </trkpt>
      <trkpt lat="44.60809" lon="4.00782">
        <ele>872.53</ele>
        <time>2013-08-25T07:11:45Z</time>
      </trkpt>
      <trkpt lat="44.60811" lon="4.00776">
        <ele>872.53</ele>
        <time>2013-08-25T07:11:46Z</time>
      </trkpt>
      <trkpt lat="44.60812" lon="4.0077">
        <ele>872.05</ele>
        <time>2013-08-25T07:11:47Z</time>
      </trkpt>
      <trkpt lat="44.60825" lon="4.00745">
        <ele>870.61</ele>
        <time>2013-08-25T07:11:53Z</time>
      </trkpt>
      <trkpt lat="44.60826" lon="4.00742">
        <ele>870.13</ele>
        <time>2013-08-25T07:11:54Z</time>
      </trkpt>
      <trkpt lat="44.60829" lon="4.00735">
        <ele>869.17</ele>
        <time>2013-08-25T07:11:56Z</time>
      </trkpt>
      <trkpt lat="44.60831" lon="4.00731">
        <ele>869.65</ele>
        <time>2013-08-25T07:11:57Z</time>
      </trkpt>
      <trkpt lat="44.60832" lon="4.00727">
        <ele>869.65</ele>
        <time>2013-08-25T07:11:58Z</time>
      </trkpt>
      <trkpt lat="44.60832" lon="4.00723">
        <ele>869.17</ele>
        <time>2013-08-25T07:11:59Z</time>
      </trkpt>
      <trkpt lat="44.60832" lon="4.00715">
        <ele>868.21</ele>
        <time>2013-08-25T07:12:01Z</time>
      </trkpt>
      <trkpt lat="44.6083" lon="4.0071">
        <ele>868.21</ele>
        <time>2013-08-25T07:12:02Z</time>
      </trkpt>
      <trkpt lat="44.60829" lon="4.00704">
        <ele>867.73</ele>
        <time>2013-08-25T07:12:03Z</time>
      </trkpt>
      <trkpt lat="44.60827" lon="4.00699">
        <ele>866.77</ele>
        <time>2013-08-25T07:12:04Z</time>
      </trkpt>
      <trkpt lat="44.60825" lon="4.00694">
        <ele>865.8</ele>
        <time>2013-08-25T07:12:05Z</time>
      </trkpt>
      <trkpt lat="44.60824" lon="4.00688">
        <ele>864.84</ele>
        <time>2013-08-25T07:12:06Z</time>
      </trkpt>
      <trkpt lat="44.60823" lon="4.00681">
        <ele>863.88</ele>
        <time>2013-08-25T07:12:07Z</time>
      </trkpt>
      <trkpt lat="44.60821" lon="4.00674">
        <ele>862.44</ele>
        <time>2013-08-25T07:12:08Z</time>
      </trkpt>
      <trkpt lat="44.6082" lon="4.00668">
        <ele>861.48</ele>
        <time>2013-08-25T07:12:09Z</time>
      </trkpt>
      <trkpt lat="44.60819" lon="4.00661">
        <ele>860.52</ele>
        <time>2013-08-25T07:12:10Z</time>
      </trkpt>
      <trkpt lat="44.60818" lon="4.00638">
        <ele>857.63</ele>
        <time>2013-08-25T07:12:13Z</time>
      </trkpt>
      <trkpt lat="44.60818" lon="4.00614">
        <ele>854.27</ele>
        <time>2013-08-25T07:12:16Z</time>
      </trkpt>
      <trkpt lat="44.60818" lon="4.00606">
        <ele>853.79</ele>
        <time>2013-08-25T07:12:17Z</time>
      </trkpt>
      <trkpt lat="44.60819" lon="4.00598">
        <ele>854.27</ele>
        <time>2013-08-25T07:12:18Z</time>
      </trkpt>
      <trkpt lat="44.6082" lon="4.00589">
        <ele>853.31</ele>
        <time>2013-08-25T07:12:19Z</time>
      </trkpt>
      <trkpt lat="44.6082" lon="4.00571">
        <ele>851.38</ele>
        <time>2013-08-25T07:12:21Z</time>
      </trkpt>
      <trkpt lat="44.6082" lon="4.00562">
        <ele>850.9</ele>
        <time>2013-08-25T07:12:22Z</time>
      </trkpt>
      <trkpt lat="44.6082" lon="4.00554">
        <ele>850.42</ele>
        <time>2013-08-25T07:12:23Z</time>
      </trkpt>
      <trkpt lat="44.6082" lon="4.00544">
        <ele>849.94</ele>
        <time>2013-08-25T07:12:24Z</time>
      </trkpt>
      <trkpt lat="44.6082" lon="4.00534">
        <ele>849.94</ele>
        <time>2013-08-25T07:12:25Z</time>
      </trkpt>
      <trkpt lat="44.60819" lon="4.00506">
        <ele>848.98</ele>
        <time>2013-08-25T07:12:28Z</time>
      </trkpt>
      <trkpt lat="44.60819" lon="4.00497">
        <ele>848.5</ele>
        <time>2013-08-25T07:12:29Z</time>
      </trkpt>
      <trkpt lat="44.60819" lon="4.00488">
        <ele>848.98</ele>
        <time>2013-08-25T07:12:30Z</time>
      </trkpt>
      <trkpt lat="44.6082" lon="4.00454">
        <ele>848.5</ele>
        <time>2013-08-25T07:12:34Z</time>
      </trkpt>
      <trkpt lat="44.6082" lon="4.00448">
        <ele>848.5</ele>
        <time>2013-08-25T07:12:35Z</time>
      </trkpt>
      <trkpt lat="44.60821" lon="4.00442">
        <ele>848.98</ele>
        <time>2013-08-25T07:12:36Z</time>
      </trkpt>
      <trkpt lat="44.60822" lon="4.00436">
        <ele>849.46</ele>
        <time>2013-08-25T07:12:37Z</time>
      </trkpt>
      <trkpt lat="44.60823" lon="4.00432">
        <ele>850.9</ele>
        <time>2013-08-25T07:12:38Z</time>
      </trkpt>
      <trkpt lat="44.60824" lon="4.00428">
        <ele>851.87</ele>
        <time>2013-08-25T07:12:39Z</time>
      </trkpt>
      <trkpt lat="44.60825" lon="4.00424">
        <ele>851.87</ele>
        <time>2013-08-25T07:12:40Z</time>
      </trkpt>
      <trkpt lat="44.60828" lon="4.00415">
        <ele>849.94</ele>
        <time>2013-08-25T07:12:43Z</time>
      </trkpt>
      <trkpt lat="44.60837" lon="4.00407">
        <ele>846.58</ele>
        <time>2013-08-25T07:12:47Z</time>
      </trkpt>
      <trkpt lat="44.60841" lon="4.00403">
        <ele>844.66</ele>
        <time>2013-08-25T07:12:50Z</time>
      </trkpt>
      <trkpt lat="44.6084" lon="4.00402">
        <ele>843.69</ele>
        <time>2013-08-25T07:12:51Z</time>
      </trkpt>
      <trkpt lat="44.60838" lon="4.00401">
        <ele>843.21</ele>
        <time>2013-08-25T07:12:52Z</time>
      </trkpt>
      <trkpt lat="44.60836" lon="4.004">
        <ele>841.77</ele>
        <time>2013-08-25T07:12:53Z</time>
      </trkpt>
      <trkpt lat="44.60835" lon="4.00398">
        <ele>841.29</ele>
        <time>2013-08-25T07:12:54Z</time>
      </trkpt>
      <trkpt lat="44.60834" lon="4.00394">
        <ele>841.29</ele>
        <time>2013-08-25T07:12:55Z</time>
      </trkpt>
      <trkpt lat="44.60834" lon="4.0039">
        <ele>840.33</ele>
        <time>2013-08-25T07:12:57Z</time>
      </trkpt>
      <trkpt lat="44.60833" lon="4.00388">
        <ele>840.33</ele>
        <time>2013-08-25T07:12:58Z</time>
      </trkpt>
      <trkpt lat="44.60833" lon="4.00384">
        <ele>839.37</ele>
        <time>2013-08-25T07:12:59Z</time>
      </trkpt>
      <trkpt lat="44.60831" lon="4.00381">
        <ele>838.89</ele>
        <time>2013-08-25T07:13:00Z</time>
      </trkpt>
      <trkpt lat="44.60829" lon="4.00378">
        <ele>838.41</ele>
        <time>2013-08-25T07:13:01Z</time>
      </trkpt>
      <trkpt lat="44.60827" lon="4.00376">
        <ele>837.93</ele>
        <time>2013-08-25T07:13:02Z</time>
      </trkpt>
      <trkpt lat="44.60825" lon="4.00375">
        <ele>838.41</ele>
        <time>2013-08-25T07:13:03Z</time>
      </trkpt>
      <trkpt lat="44.60824" lon="4.00374">
        <ele>838.41</ele>
        <time>2013-08-25T07:13:04Z</time>
      </trkpt>
      <trkpt lat="44.60822" lon="4.00373">
        <ele>837.93</ele>
        <time>2013-08-25T07:13:05Z</time>
      </trkpt>
      <trkpt lat="44.6082" lon="4.00372">
        <ele>837.93</ele>
        <time>2013-08-25T07:13:06Z</time>
      </trkpt>
      <trkpt lat="44.60818" lon="4.00372">
        <ele>837.45</ele>
        <time>2013-08-25T07:13:07Z</time>
      </trkpt>
      <trkpt lat="44.60816" lon="4.00372">
        <ele>836.96</ele>
        <time>2013-08-25T07:13:08Z</time>
      </trkpt>
      <trkpt lat="44.60814" lon="4.00371">
        <ele>836.96</ele>
        <time>2013-08-25T07:13:09Z</time>
      </trkpt>
      <trkpt lat="44.60813" lon="4.00369">
        <ele>836.48</ele>
        <time>2013-08-25T07:13:10Z</time>
      </trkpt>
      <trkpt lat="44.60813" lon="4.00366">
        <ele>836</ele>
        <time>2013-08-25T07:13:11Z</time>
      </trkpt>
      <trkpt lat="44.60814" lon="4.00364">
        <ele>836.48</ele>
        <time>2013-08-25T07:13:12Z</time>
      </trkpt>
      <trkpt lat="44.60816" lon="4.00363">
        <ele>835.52</ele>
        <time>2013-08-25T07:13:14Z</time>
      </trkpt>
      <trkpt lat="44.60818" lon="4.00362">
        <ele>834.56</ele>
        <time>2013-08-25T07:13:15Z</time>
      </trkpt>
      <trkpt lat="44.6082" lon="4.00363">
        <ele>834.56</ele>
        <time>2013-08-25T07:13:16Z</time>
      </trkpt>
      <trkpt lat="44.60822" lon="4.00363">
        <ele>834.56</ele>
        <time>2013-08-25T07:13:17Z</time>
      </trkpt>
      <trkpt lat="44.60824" lon="4.00364">
        <ele>834.08</ele>
        <time>2013-08-25T07:13:18Z</time>
      </trkpt>
      <trkpt lat="44.60825" lon="4.00365">
        <ele>834.56</ele>
        <time>2013-08-25T07:13:29Z</time>
      </trkpt>
      <trkpt lat="44.60825" lon="4.00365">
        <ele>834.56</ele>
        <time>2013-08-25T07:13:51Z</time>
      </trkpt>
      <trkpt lat="44.60825" lon="4.00365">
        <ele>834.08</ele>
        <time>2013-08-25T07:14:19Z</time>
      </trkpt>
      <trkpt lat="44.60825" lon="4.00365">
        <ele>834.08</ele>
        <time>2013-08-25T07:14:26Z</time>
      </trkpt>
      <trkpt lat="44.60827" lon="4.00365">
        <ele>834.08</ele>
        <time>2013-08-25T07:14:27Z</time>
      </trkpt>
      <trkpt lat="44.60828" lon="4.00366">
        <ele>834.56</ele>
        <time>2013-08-25T07:14:37Z</time>
      </trkpt>
      <trkpt lat="44.60832" lon="4.00365">
        <ele>832.64</ele>
        <time>2013-08-25T07:14:40Z</time>
      </trkpt>
      <trkpt lat="44.60832" lon="4.00363">
        <ele>832.16</ele>
        <time>2013-08-25T07:14:41Z</time>
      </trkpt>
      <trkpt lat="44.60832" lon="4.00362">
        <ele>832.64</ele>
        <time>2013-08-25T07:14:44Z</time>
      </trkpt>
      <trkpt lat="44.60828" lon="4.00361">
        <ele>832.16</ele>
        <time>2013-08-25T07:14:51Z</time>
      </trkpt>
      <trkpt lat="44.60827" lon="4.00361">
        <ele>832.16</ele>
        <time>2013-08-25T07:15:02Z</time>
      </trkpt>
      <trkpt lat="44.60823" lon="4.00357">
        <ele>830.72</ele>
        <time>2013-08-25T07:15:09Z</time>
      </trkpt>
      <trkpt lat="44.60824" lon="4.00354">
        <ele>830.24</ele>
        <time>2013-08-25T07:15:12Z</time>
      </trkpt>
      <trkpt lat="44.60827" lon="4.00355">
        <ele>829.27</ele>
        <time>2013-08-25T07:15:22Z</time>
      </trkpt>
      <trkpt lat="44.60828" lon="4.00356">
        <ele>829.27</ele>
        <time>2013-08-25T07:15:27Z</time>
      </trkpt>
      <trkpt lat="44.6083" lon="4.00356">
        <ele>828.79</ele>
        <time>2013-08-25T07:15:29Z</time>
      </trkpt>
      <trkpt lat="44.60832" lon="4.00354">
        <ele>828.31</ele>
        <time>2013-08-25T07:15:31Z</time>
      </trkpt>
      <trkpt lat="44.60828" lon="4.00348">
        <ele>826.87</ele>
        <time>2013-08-25T07:15:35Z</time>
      </trkpt>
      <trkpt lat="44.60825" lon="4.00344">
        <ele>826.39</ele>
        <time>2013-08-25T07:15:37Z</time>
      </trkpt>
      <trkpt lat="44.6082" lon="4.00333">
        <ele>823.51</ele>
        <time>2013-08-25T07:15:43Z</time>
      </trkpt>
      <trkpt lat="44.60836" lon="4.00337">
        <ele>822.06</ele>
        <time>2013-08-25T07:15:49Z</time>
      </trkpt>
      <trkpt lat="44.60843" lon="4.00342">
        <ele>819.66</ele>
        <time>2013-08-25T07:15:53Z</time>
      </trkpt>
      <trkpt lat="44.60844" lon="4.00342">
        <ele>819.18</ele>
        <time>2013-08-25T07:15:54Z</time>
      </trkpt>
      <trkpt lat="44.60844" lon="4.00338">
        <ele>817.74</ele>
        <time>2013-08-25T07:15:57Z</time>
      </trkpt>
      <trkpt lat="44.60835" lon="4.0033">
        <ele>815.34</ele>
        <time>2013-08-25T07:16:03Z</time>
      </trkpt>
      <trkpt lat="44.60826" lon="4.00315">
        <ele>811.49</ele>
        <time>2013-08-25T07:16:09Z</time>
      </trkpt>
      <trkpt lat="44.60817" lon="4.00302">
        <ele>809.57</ele>
        <time>2013-08-25T07:16:13Z</time>
      </trkpt>
      <trkpt lat="44.60814" lon="4.00298">
        <ele>808.13</ele>
        <time>2013-08-25T07:16:15Z</time>
      </trkpt>
      <trkpt lat="44.60798" lon="4.00286">
        <ele>805.24</ele>
        <time>2013-08-25T07:16:23Z</time>
      </trkpt>
      <trkpt lat="44.60785" lon="4.00283">
        <ele>801.88</ele>
        <time>2013-08-25T07:16:29Z</time>
      </trkpt>
      <trkpt lat="44.6078" lon="4.00267">
        <ele>798.51</ele>
        <time>2013-08-25T07:16:34Z</time>
      </trkpt>
      <trkpt lat="44.60785" lon="4.00259">
        <ele>797.07</ele>
        <time>2013-08-25T07:16:37Z</time>
      </trkpt>
      <trkpt lat="44.60787" lon="4.00257">
        <ele>795.63</ele>
        <time>2013-08-25T07:16:48Z</time>
      </trkpt>
      <trkpt lat="44.60791" lon="4.00251">
        <ele>792.26</ele>
        <time>2013-08-25T07:16:56Z</time>
      </trkpt>
      <trkpt lat="44.60795" lon="4.00246">
        <ele>791.3</ele>
        <time>2013-08-25T07:16:58Z</time>
      </trkpt>
      <trkpt lat="44.60798" lon="4.0024">
        <ele>791.3</ele>
        <time>2013-08-25T07:17:04Z</time>
      </trkpt>
      <trkpt lat="44.60798" lon="4.0024">
        <ele>791.3</ele>
        <time>2013-08-25T07:17:25Z</time>
      </trkpt>
      <trkpt lat="44.60799" lon="4.00239">
        <ele>790.82</ele>
        <time>2013-08-25T07:17:40Z</time>
      </trkpt>
      <trkpt lat="44.60802" lon="4.00227">
        <ele>791.78</ele>
        <time>2013-08-25T07:17:51Z</time>
      </trkpt>
      <trkpt lat="44.60802" lon="4.00228">
        <ele>791.3</ele>
        <time>2013-08-25T07:18:05Z</time>
      </trkpt>
      <trkpt lat="44.60803" lon="4.00224">
        <ele>791.3</ele>
        <time>2013-08-25T07:18:07Z</time>
      </trkpt>
      <trkpt lat="44.60801" lon="4.00204">
        <ele>791.3</ele>
        <time>2013-08-25T07:18:20Z</time>
      </trkpt>
      <trkpt lat="44.608" lon="4.00201">
        <ele>790.82</ele>
        <time>2013-08-25T07:18:32Z</time>
      </trkpt>
      <trkpt lat="44.608" lon="4.00201">
        <ele>790.82</ele>
        <time>2013-08-25T07:18:58Z</time>
      </trkpt>
      <trkpt lat="44.608" lon="4.00201">
        <ele>791.3</ele>
        <time>2013-08-25T07:19:27Z</time>
      </trkpt>
      <trkpt lat="44.60801" lon="4.00201">
        <ele>790.82</ele>
        <time>2013-08-25T07:19:54Z</time>
      </trkpt>
      <trkpt lat="44.60801" lon="4.00201">
        <ele>791.3</ele>
        <time>2013-08-25T07:20:22Z</time>
      </trkpt>
      <trkpt lat="44.60801" lon="4.00201">
        <ele>790.82</ele>
        <time>2013-08-25T07:20:48Z</time>
      </trkpt>
      <trkpt lat="44.60801" lon="4.00201">
        <ele>791.3</ele>
        <time>2013-08-25T07:21:16Z</time>
      </trkpt>
      <trkpt lat="44.60801" lon="4.00201">
        <ele>790.82</ele>
        <time>2013-08-25T07:21:43Z</time>
      </trkpt>
      <trkpt lat="44.608" lon="4.00201">
        <ele>789.86</ele>
        <time>2013-08-25T07:22:04Z</time>
      </trkpt>
      <trkpt lat="44.608" lon="4.00201">
        <ele>786.5</ele>
        <time>2013-08-25T07:22:05Z</time>
      </trkpt>
      <trkpt lat="44.608" lon="4.00201">
        <ele>790.34</ele>
        <time>2013-08-25T07:22:06Z</time>
      </trkpt>
      <trkpt lat="44.608" lon="4.00201">
        <ele>792.74</ele>
        <time>2013-08-25T07:22:18Z</time>
      </trkpt>
      <trkpt lat="44.608" lon="4.00201">
        <ele>786.98</ele>
        <time>2013-08-25T07:22:19Z</time>
      </trkpt>
      <trkpt lat="44.608" lon="4.00201">
        <ele>791.3</ele>
        <time>2013-08-25T07:22:20Z</time>
      </trkpt>
      <trkpt lat="44.608" lon="4.00201">
        <ele>790.34</ele>
        <time>2013-08-25T07:22:29Z</time>
      </trkpt>
      <trkpt lat="44.60789" lon="4.00195">
        <ele>790.82</ele>
        <time>2013-08-25T07:22:35Z</time>
      </trkpt>
      <trkpt lat="44.60762" lon="4.00189">
        <ele>789.86</ele>
        <time>2013-08-25T07:22:46Z</time>
      </trkpt>
      <trkpt lat="44.60757" lon="4.0019">
        <ele>790.82</ele>
        <time>2013-08-25T07:22:56Z</time>
      </trkpt>
      <trkpt lat="44.60756" lon="4.0019">
        <ele>791.3</ele>
        <time>2013-08-25T07:23:08Z</time>
      </trkpt>
      <trkpt lat="44.60757" lon="4.00184">
        <ele>791.3</ele>
        <time>2013-08-25T07:23:17Z</time>
      </trkpt>
      <trkpt lat="44.60757" lon="4.00176">
        <ele>791.78</ele>
        <time>2013-08-25T07:23:33Z</time>
      </trkpt>
      <trkpt lat="44.60761" lon="4.00169">
        <ele>792.74</ele>
        <time>2013-08-25T07:23:40Z</time>
      </trkpt>
      <trkpt lat="44.60764" lon="4.00157">
        <ele>794.19</ele>
        <time>2013-08-25T07:23:45Z</time>
      </trkpt>
      <trkpt lat="44.60765" lon="4.0015">
        <ele>794.67</ele>
        <time>2013-08-25T07:23:49Z</time>
      </trkpt>
      <trkpt lat="44.60767" lon="4.00145">
        <ele>795.15</ele>
        <time>2013-08-25T07:24:02Z</time>
      </trkpt>
      <trkpt lat="44.60767" lon="4.00144">
        <ele>795.15</ele>
        <time>2013-08-25T07:24:17Z</time>
      </trkpt>
      <trkpt lat="44.60764" lon="4.00129">
        <ele>796.11</ele>
        <time>2013-08-25T07:24:24Z</time>
      </trkpt>
      <trkpt lat="44.60761" lon="4.00103">
        <ele>798.51</ele>
        <time>2013-08-25T07:24:37Z</time>
      </trkpt>
      <trkpt lat="44.6076" lon="4.00087">
        <ele>800.44</ele>
        <time>2013-08-25T07:24:50Z</time>
      </trkpt>
      <trkpt lat="44.60757" lon="4.00071">
        <ele>802.84</ele>
        <time>2013-08-25T07:25:04Z</time>
      </trkpt>
      <trkpt lat="44.60759" lon="4.00059">
        <ele>805.72</ele>
        <time>2013-08-25T07:25:17Z</time>
      </trkpt>
      <trkpt lat="44.60758" lon="4.00046">
        <ele>806.68</ele>
        <time>2013-08-25T07:25:29Z</time>
      </trkpt>
      <trkpt lat="44.60759" lon="4.00042">
        <ele>807.16</ele>
        <time>2013-08-25T07:25:42Z</time>
      </trkpt>
      <trkpt lat="44.60759" lon="4.00042">
        <ele>807.16</ele>
        <time>2013-08-25T07:25:45Z</time>
      </trkpt>
      <trkpt lat="44.60762" lon="4.00042">
        <ele>807.64</ele>
        <time>2013-08-25T07:25:49Z</time>
      </trkpt>
      <trkpt lat="44.60765" lon="4.00045">
        <ele>807.64</ele>
        <time>2013-08-25T07:25:52Z</time>
      </trkpt>
      <trkpt lat="44.60766" lon="4.00047">
        <ele>808.13</ele>
        <time>2013-08-25T07:25:54Z</time>
      </trkpt>
      <trkpt lat="44.60786" lon="4.00048">
        <ele>811.49</ele>
        <time>2013-08-25T07:26:05Z</time>
      </trkpt>
      <trkpt lat="44.60788" lon="4.00049">
        <ele>811.49</ele>
        <time>2013-08-25T07:26:07Z</time>
      </trkpt>
      <trkpt lat="44.60793" lon="4.00054">
        <ele>812.45</ele>
        <time>2013-08-25T07:26:11Z</time>
      </trkpt>
      <trkpt lat="44.60793" lon="4.00057">
        <ele>812.93</ele>
        <time>2013-08-25T07:26:13Z</time>
      </trkpt>
      <trkpt lat="44.60795" lon="4.0006">
        <ele>812.45</ele>
        <time>2013-08-25T07:26:14Z</time>
      </trkpt>
      <trkpt lat="44.60811" lon="4.00059">
        <ele>813.41</ele>
        <time>2013-08-25T07:26:24Z</time>
      </trkpt>
      <trkpt lat="44.60825" lon="4.00053">
        <ele>814.37</ele>
        <time>2013-08-25T07:26:31Z</time>
      </trkpt>
      <trkpt lat="44.60844" lon="4.00052">
        <ele>816.3</ele>
        <time>2013-08-25T07:26:45Z</time>
      </trkpt>
      <trkpt lat="44.60845" lon="4.00053">
        <ele>816.3</ele>
        <time>2013-08-25T07:26:48Z</time>
      </trkpt>
      <trkpt lat="44.60862" lon="4.00045">
        <ele>818.22</ele>
        <time>2013-08-25T07:26:58Z</time>
      </trkpt>
      <trkpt lat="44.60862" lon="4.00049">
        <ele>819.18</ele>
        <time>2013-08-25T07:27:10Z</time>
      </trkpt>
      <trkpt lat="44.60875" lon="4.00046">
        <ele>820.62</ele>
        <time>2013-08-25T07:27:28Z</time>
      </trkpt>
      <trkpt lat="44.60889" lon="4.00036">
        <ele>821.58</ele>
        <time>2013-08-25T07:27:45Z</time>
      </trkpt>
      <trkpt lat="44.60892" lon="4.00034">
        <ele>821.58</ele>
        <time>2013-08-25T07:27:57Z</time>
      </trkpt>
      <trkpt lat="44.60892" lon="4.00034">
        <ele>821.58</ele>
        <time>2013-08-25T07:28:19Z</time>
      </trkpt>
      <trkpt lat="44.60892" lon="4.00034">
        <ele>821.58</ele>
        <time>2013-08-25T07:28:45Z</time>
      </trkpt>
      <trkpt lat="44.60892" lon="4.00034">
        <ele>821.58</ele>
        <time>2013-08-25T07:29:04Z</time>
      </trkpt>
      <trkpt lat="44.60893" lon="4.00034">
        <ele>821.58</ele>
        <time>2013-08-25T07:29:09Z</time>
      </trkpt>
      <trkpt lat="44.60901" lon="4.00025">
        <ele>821.58</ele>
        <time>2013-08-25T07:29:13Z</time>
      </trkpt>
      <trkpt lat="44.60913" lon="4.00015">
        <ele>819.66</ele>
        <time>2013-08-25T07:29:18Z</time>
      </trkpt>
      <trkpt lat="44.60925" lon="4.00005">
        <ele>818.7</ele>
        <time>2013-08-25T07:29:23Z</time>
      </trkpt>
      <trkpt lat="44.60933" lon="3.99992">
        <ele>818.7</ele>
        <time>2013-08-25T07:29:31Z</time>
      </trkpt>
      <trkpt lat="44.6093" lon="3.99989">
        <ele>819.18</ele>
        <time>2013-08-25T07:29:47Z</time>
      </trkpt>
      <trkpt lat="44.60929" lon="3.99988">
        <ele>819.18</ele>
        <time>2013-08-25T07:30:02Z</time>
      </trkpt>
      <trkpt lat="44.60928" lon="3.99987">
        <ele>819.66</ele>
        <time>2013-08-25T07:30:04Z</time>
      </trkpt>
      <trkpt lat="44.60925" lon="3.99983">
        <ele>819.18</ele>
        <time>2013-08-25T07:30:19Z</time>
      </trkpt>
      <trkpt lat="44.60924" lon="3.99984">
        <ele>818.7</ele>
        <time>2013-08-25T07:30:48Z</time>
      </trkpt>
      <trkpt lat="44.60924" lon="3.99984">
        <ele>818.7</ele>
        <time>2013-08-25T07:31:10Z</time>
      </trkpt>
      <trkpt lat="44.6092" lon="3.99981">
        <ele>819.18</ele>
        <time>2013-08-25T07:31:23Z</time>
      </trkpt>
      <trkpt lat="44.6092" lon="3.9998">
        <ele>819.66</ele>
        <time>2013-08-25T07:31:30Z</time>
      </trkpt>
      <trkpt lat="44.60912" lon="3.99967">
        <ele>819.66</ele>
        <time>2013-08-25T07:31:39Z</time>
      </trkpt>
      <trkpt lat="44.60911" lon="3.99966">
        <ele>819.66</ele>
        <time>2013-08-25T07:31:40Z</time>
      </trkpt>
      <trkpt lat="44.60894" lon="3.99946">
        <ele>821.1</ele>
        <time>2013-08-25T07:31:54Z</time>
      </trkpt>
      <trkpt lat="44.6089" lon="3.99942">
        <ele>822.06</ele>
        <time>2013-08-25T07:31:58Z</time>
      </trkpt>
      <trkpt lat="44.60887" lon="3.99936">
        <ele>823.03</ele>
        <time>2013-08-25T07:32:02Z</time>
      </trkpt>
      <trkpt lat="44.60876" lon="3.99923">
        <ele>825.91</ele>
        <time>2013-08-25T07:32:13Z</time>
      </trkpt>
      <trkpt lat="44.60871" lon="3.99918">
        <ele>827.35</ele>
        <time>2013-08-25T07:32:23Z</time>
      </trkpt>
      <trkpt lat="44.60869" lon="3.99908">
        <ele>829.27</ele>
        <time>2013-08-25T07:32:33Z</time>
      </trkpt>
      <trkpt lat="44.6087" lon="3.99895">
        <ele>831.2</ele>
        <time>2013-08-25T07:32:48Z</time>
      </trkpt>
      <trkpt lat="44.6087" lon="3.99895">
        <ele>831.68</ele>
        <time>2013-08-25T07:33:02Z</time>
      </trkpt>
      <trkpt lat="44.60877" lon="3.99881">
        <ele>834.08</ele>
        <time>2013-08-25T07:33:16Z</time>
      </trkpt>
      <trkpt lat="44.60881" lon="3.99873">
        <ele>836.48</ele>
        <time>2013-08-25T07:33:29Z</time>
      </trkpt>
      <trkpt lat="44.60888" lon="3.99866">
        <ele>837.93</ele>
        <time>2013-08-25T07:33:41Z</time>
      </trkpt>
      <trkpt lat="44.6089" lon="3.9986">
        <ele>839.85</ele>
        <time>2013-08-25T07:33:54Z</time>
      </trkpt>
      <trkpt lat="44.6089" lon="3.9986">
        <ele>839.37</ele>
        <time>2013-08-25T07:34:10Z</time>
      </trkpt>
      <trkpt lat="44.6089" lon="3.9986">
        <ele>839.37</ele>
        <time>2013-08-25T07:34:37Z</time>
      </trkpt>
      <trkpt lat="44.60891" lon="3.99858">
        <ele>840.33</ele>
        <time>2013-08-25T07:34:53Z</time>
      </trkpt>
      <trkpt lat="44.60894" lon="3.9985">
        <ele>842.73</ele>
        <time>2013-08-25T07:35:09Z</time>
      </trkpt>
      <trkpt lat="44.60894" lon="3.99849">
        <ele>842.73</ele>
        <time>2013-08-25T07:35:10Z</time>
      </trkpt>
      <trkpt lat="44.60895" lon="3.99831">
        <ele>844.18</ele>
        <time>2013-08-25T07:35:22Z</time>
      </trkpt>
      <trkpt lat="44.60894" lon="3.99818">
        <ele>845.62</ele>
        <time>2013-08-25T07:35:34Z</time>
      </trkpt>
      <trkpt lat="44.60893" lon="3.99814">
        <ele>846.1</ele>
        <time>2013-08-25T07:35:47Z</time>
      </trkpt>
      <trkpt lat="44.60894" lon="3.99809">
        <ele>846.1</ele>
        <time>2013-08-25T07:35:50Z</time>
      </trkpt>
      <trkpt lat="44.60893" lon="3.99801">
        <ele>848.02</ele>
        <time>2013-08-25T07:35:55Z</time>
      </trkpt>
      <trkpt lat="44.60894" lon="3.99788">
        <ele>849.46</ele>
        <time>2013-08-25T07:36:02Z</time>
      </trkpt>
      <trkpt lat="44.60893" lon="3.99775">
        <ele>850.9</ele>
        <time>2013-08-25T07:36:11Z</time>
      </trkpt>
      <trkpt lat="44.60897" lon="3.99766">
        <ele>853.31</ele>
        <time>2013-08-25T07:36:21Z</time>
      </trkpt>
      <trkpt lat="44.60904" lon="3.99764">
        <ele>855.23</ele>
        <time>2013-08-25T07:36:33Z</time>
      </trkpt>
      <trkpt lat="44.60904" lon="3.99754">
        <ele>856.67</ele>
        <time>2013-08-25T07:36:47Z</time>
      </trkpt>
      <trkpt lat="44.60903" lon="3.99746">
        <ele>858.11</ele>
        <time>2013-08-25T07:37:00Z</time>
      </trkpt>
      <trkpt lat="44.60904" lon="3.99737">
        <ele>860.52</ele>
        <time>2013-08-25T07:37:08Z</time>
      </trkpt>
      <trkpt lat="44.60906" lon="3.99718">
        <ele>862.44</ele>
        <time>2013-08-25T07:37:21Z</time>
      </trkpt>
      <trkpt lat="44.60906" lon="3.99716">
        <ele>862.92</ele>
        <time>2013-08-25T07:37:23Z</time>
      </trkpt>
      <trkpt lat="44.60908" lon="3.99703">
        <ele>865.32</ele>
        <time>2013-08-25T07:37:37Z</time>
      </trkpt>
      <trkpt lat="44.60908" lon="3.99701">
        <ele>866.29</ele>
        <time>2013-08-25T07:37:47Z</time>
      </trkpt>
      <trkpt lat="44.60907" lon="3.99696">
        <ele>867.73</ele>
        <time>2013-08-25T07:38:01Z</time>
      </trkpt>
      <trkpt lat="44.60907" lon="3.99684">
        <ele>869.17</ele>
        <time>2013-08-25T07:38:12Z</time>
      </trkpt>
      <trkpt lat="44.60906" lon="3.99678">
        <ele>870.13</ele>
        <time>2013-08-25T07:38:23Z</time>
      </trkpt>
      <trkpt lat="44.60901" lon="3.99672">
        <ele>871.09</ele>
        <time>2013-08-25T07:38:35Z</time>
      </trkpt>
      <trkpt lat="44.60901" lon="3.99671">
        <ele>871.09</ele>
        <time>2013-08-25T07:38:36Z</time>
      </trkpt>
      <trkpt lat="44.60899" lon="3.99665">
        <ele>872.53</ele>
        <time>2013-08-25T07:38:48Z</time>
      </trkpt>
      <trkpt lat="44.60898" lon="3.99665">
        <ele>872.05</ele>
        <time>2013-08-25T07:39:11Z</time>
      </trkpt>
      <trkpt lat="44.60897" lon="3.99663">
        <ele>872.05</ele>
        <time>2013-08-25T07:39:14Z</time>
      </trkpt>
      <trkpt lat="44.60886" lon="3.99667">
        <ele>872.05</ele>
        <time>2013-08-25T07:39:25Z</time>
      </trkpt>
      <trkpt lat="44.60881" lon="3.99668">
        <ele>872.05</ele>
        <time>2013-08-25T07:39:31Z</time>
      </trkpt>
      <trkpt lat="44.60865" lon="3.99678">
        <ele>873.98</ele>
        <time>2013-08-25T07:39:42Z</time>
      </trkpt>
      <trkpt lat="44.60862" lon="3.9968">
        <ele>874.46</ele>
        <time>2013-08-25T07:39:44Z</time>
      </trkpt>
      <trkpt lat="44.6086" lon="3.9968">
        <ele>875.42</ele>
        <time>2013-08-25T07:39:46Z</time>
      </trkpt>
      <trkpt lat="44.60849" lon="3.99684">
        <ele>876.86</ele>
        <time>2013-08-25T07:39:53Z</time>
      </trkpt>
      <trkpt lat="44.60843" lon="3.99681">
        <ele>877.34</ele>
        <time>2013-08-25T07:39:58Z</time>
      </trkpt>
      <trkpt lat="44.6084" lon="3.99676">
        <ele>878.3</ele>
        <time>2013-08-25T07:40:02Z</time>
      </trkpt>
      <trkpt lat="44.60835" lon="3.99652">
        <ele>881.19</ele>
        <time>2013-08-25T07:40:14Z</time>
      </trkpt>
      <trkpt lat="44.60832" lon="3.99643">
        <ele>882.15</ele>
        <time>2013-08-25T07:40:19Z</time>
      </trkpt>
      <trkpt lat="44.60828" lon="3.99637">
        <ele>883.11</ele>
        <time>2013-08-25T07:40:24Z</time>
      </trkpt>
      <trkpt lat="44.60827" lon="3.99623">
        <ele>883.11</ele>
        <time>2013-08-25T07:40:30Z</time>
      </trkpt>
      <trkpt lat="44.60821" lon="3.99609">
        <ele>885.03</ele>
        <time>2013-08-25T07:40:39Z</time>
      </trkpt>
      <trkpt lat="44.60818" lon="3.99597">
        <ele>885.99</ele>
        <time>2013-08-25T07:40:46Z</time>
      </trkpt>
      <trkpt lat="44.60817" lon="3.99594">
        <ele>886.47</ele>
        <time>2013-08-25T07:40:48Z</time>
      </trkpt>
      <trkpt lat="44.60814" lon="3.99573">
        <ele>888.4</ele>
        <time>2013-08-25T07:40:59Z</time>
      </trkpt>
      <trkpt lat="44.60813" lon="3.99564">
        <ele>888.88</ele>
        <time>2013-08-25T07:41:03Z</time>
      </trkpt>
      <trkpt lat="44.60809" lon="3.99555">
        <ele>889.36</ele>
        <time>2013-08-25T07:41:09Z</time>
      </trkpt>
      <trkpt lat="44.60806" lon="3.99544">
        <ele>889.84</ele>
        <time>2013-08-25T07:41:15Z</time>
      </trkpt>
      <trkpt lat="44.60804" lon="3.9953">
        <ele>890.32</ele>
        <time>2013-08-25T07:41:21Z</time>
      </trkpt>
      <trkpt lat="44.60801" lon="3.99523">
        <ele>890.8</ele>
        <time>2013-08-25T07:41:25Z</time>
      </trkpt>
      <trkpt lat="44.60793" lon="3.99499">
        <ele>892.24</ele>
        <time>2013-08-25T07:41:38Z</time>
      </trkpt>
      <trkpt lat="44.60785" lon="3.99483">
        <ele>893.68</ele>
        <time>2013-08-25T07:41:48Z</time>
      </trkpt>
      <trkpt lat="44.60775" lon="3.99459">
        <ele>895.61</ele>
        <time>2013-08-25T07:42:02Z</time>
      </trkpt>
      <trkpt lat="44.60773" lon="3.99453">
        <ele>897.05</ele>
        <time>2013-08-25T07:42:05Z</time>
      </trkpt>
      <trkpt lat="44.60773" lon="3.99451">
        <ele>896.57</ele>
        <time>2013-08-25T07:42:06Z</time>
      </trkpt>
      <trkpt lat="44.60768" lon="3.9944">
        <ele>898.97</ele>
        <time>2013-08-25T07:42:13Z</time>
      </trkpt>
      <trkpt lat="44.60763" lon="3.99434">
        <ele>899.45</ele>
        <time>2013-08-25T07:42:17Z</time>
      </trkpt>
      <trkpt lat="44.60759" lon="3.99423">
        <ele>898.97</ele>
        <time>2013-08-25T07:42:23Z</time>
      </trkpt>
      <trkpt lat="44.60764" lon="3.99416">
        <ele>897.53</ele>
        <time>2013-08-25T07:42:33Z</time>
      </trkpt>
      <trkpt lat="44.60765" lon="3.99414">
        <ele>897.53</ele>
        <time>2013-08-25T07:42:47Z</time>
      </trkpt>
      <trkpt lat="44.60765" lon="3.99414">
        <ele>897.05</ele>
        <time>2013-08-25T07:43:09Z</time>
      </trkpt>
      <trkpt lat="44.60765" lon="3.99414">
        <ele>896.57</ele>
        <time>2013-08-25T07:43:33Z</time>
      </trkpt>
      <trkpt lat="44.60765" lon="3.99414">
        <ele>896.57</ele>
        <time>2013-08-25T07:44:02Z</time>
      </trkpt>
      <trkpt lat="44.60765" lon="3.99414">
        <ele>896.57</ele>
        <time>2013-08-25T07:44:26Z</time>
      </trkpt>
      <trkpt lat="44.60765" lon="3.99414">
        <ele>896.09</ele>
        <time>2013-08-25T07:44:50Z</time>
      </trkpt>
      <trkpt lat="44.60765" lon="3.99414">
        <ele>894.64</ele>
        <time>2013-08-25T07:44:52Z</time>
      </trkpt>
      <trkpt lat="44.60766" lon="3.99412">
        <ele>895.61</ele>
        <time>2013-08-25T07:45:17Z</time>
      </trkpt>
      <trkpt lat="44.60768" lon="3.99388">
        <ele>895.61</ele>
        <time>2013-08-25T07:45:24Z</time>
      </trkpt>
      <trkpt lat="44.60776" lon="3.99341">
        <ele>893.2</ele>
        <time>2013-08-25T07:45:34Z</time>
      </trkpt>
      <trkpt lat="44.608" lon="3.99297">
        <ele>894.64</ele>
        <time>2013-08-25T07:45:45Z</time>
      </trkpt>
      <trkpt lat="44.60815" lon="3.99263">
        <ele>897.05</ele>
        <time>2013-08-25T07:45:55Z</time>
      </trkpt>
      <trkpt lat="44.60823" lon="3.99233">
        <ele>898.49</ele>
        <time>2013-08-25T07:46:04Z</time>
      </trkpt>
      <trkpt lat="44.60824" lon="3.99232">
        <ele>898.97</ele>
        <time>2013-08-25T07:46:05Z</time>
      </trkpt>
      <trkpt lat="44.60825" lon="3.99229">
        <ele>898.97</ele>
        <time>2013-08-25T07:46:06Z</time>
      </trkpt>
      <trkpt lat="44.60826" lon="3.99226">
        <ele>899.45</ele>
        <time>2013-08-25T07:46:07Z</time>
      </trkpt>
      <trkpt lat="44.60827" lon="3.99224">
        <ele>899.93</ele>
        <time>2013-08-25T07:46:08Z</time>
      </trkpt>
      <trkpt lat="44.60827" lon="3.99221">
        <ele>899.45</ele>
        <time>2013-08-25T07:46:09Z</time>
      </trkpt>
      <trkpt lat="44.60827" lon="3.99218">
        <ele>899.45</ele>
        <time>2013-08-25T07:46:10Z</time>
      </trkpt>
      <trkpt lat="44.60833" lon="3.9918">
        <ele>901.85</ele>
        <time>2013-08-25T07:46:22Z</time>
      </trkpt>
      <trkpt lat="44.6084" lon="3.99152">
        <ele>902.82</ele>
        <time>2013-08-25T07:46:32Z</time>
      </trkpt>
      <trkpt lat="44.60841" lon="3.99148">
        <ele>903.3</ele>
        <time>2013-08-25T07:46:34Z</time>
      </trkpt>
      <trkpt lat="44.60842" lon="3.99147">
        <ele>902.33</ele>
        <time>2013-08-25T07:46:35Z</time>
      </trkpt>
      <trkpt lat="44.60846" lon="3.99144">
        <ele>901.37</ele>
        <time>2013-08-25T07:46:43Z</time>
      </trkpt>
      <trkpt lat="44.60851" lon="3.9914">
        <ele>901.37</ele>
        <time>2013-08-25T07:46:52Z</time>
      </trkpt>
      <trkpt lat="44.6085" lon="3.9913">
        <ele>901.85</ele>
        <time>2013-08-25T07:46:59Z</time>
      </trkpt>
      <trkpt lat="44.60845" lon="3.99113">
        <ele>902.82</ele>
        <time>2013-08-25T07:47:09Z</time>
      </trkpt>
      <trkpt lat="44.60841" lon="3.99087">
        <ele>905.22</ele>
        <time>2013-08-25T07:47:21Z</time>
      </trkpt>
      <trkpt lat="44.60841" lon="3.99085">
        <ele>905.22</ele>
        <time>2013-08-25T07:47:22Z</time>
      </trkpt>
      <trkpt lat="44.60841" lon="3.9908">
        <ele>905.7</ele>
        <time>2013-08-25T07:47:24Z</time>
      </trkpt>
      <trkpt lat="44.60841" lon="3.99073">
        <ele>907.14</ele>
        <time>2013-08-25T07:47:27Z</time>
      </trkpt>
      <trkpt lat="44.60835" lon="3.99044">
        <ele>909.06</ele>
        <time>2013-08-25T07:47:40Z</time>
      </trkpt>
      <trkpt lat="44.60833" lon="3.99036">
        <ele>908.58</ele>
        <time>2013-08-25T07:47:43Z</time>
      </trkpt>
      <trkpt lat="44.60826" lon="3.99007">
        <ele>910.03</ele>
        <time>2013-08-25T07:47:55Z</time>
      </trkpt>
      <trkpt lat="44.6082" lon="3.9898">
        <ele>910.99</ele>
        <time>2013-08-25T07:48:06Z</time>
      </trkpt>
      <trkpt lat="44.60809" lon="3.98952">
        <ele>912.43</ele>
        <time>2013-08-25T07:48:18Z</time>
      </trkpt>
      <trkpt lat="44.60804" lon="3.98921">
        <ele>913.39</ele>
        <time>2013-08-25T07:48:29Z</time>
      </trkpt>
      <trkpt lat="44.60801" lon="3.98898">
        <ele>912.43</ele>
        <time>2013-08-25T07:48:37Z</time>
      </trkpt>
      <trkpt lat="44.60799" lon="3.98896">
        <ele>912.43</ele>
        <time>2013-08-25T07:48:39Z</time>
      </trkpt>
      <trkpt lat="44.60783" lon="3.98888">
        <ele>913.87</ele>
        <time>2013-08-25T07:48:48Z</time>
      </trkpt>
      <trkpt lat="44.60779" lon="3.98884">
        <ele>913.87</ele>
        <time>2013-08-25T07:48:51Z</time>
      </trkpt>
      <trkpt lat="44.6077" lon="3.98843">
        <ele>912.91</ele>
        <time>2013-08-25T07:49:01Z</time>
      </trkpt>
      <trkpt lat="44.60773" lon="3.98818">
        <ele>913.87</ele>
        <time>2013-08-25T07:49:08Z</time>
      </trkpt>
      <trkpt lat="44.60789" lon="3.98802">
        <ele>913.87</ele>
        <time>2013-08-25T07:49:18Z</time>
      </trkpt>
      <trkpt lat="44.60789" lon="3.988">
        <ele>913.87</ele>
        <time>2013-08-25T07:49:31Z</time>
      </trkpt>
      <trkpt lat="44.60793" lon="3.98789">
        <ele>915.79</ele>
        <time>2013-08-25T07:49:47Z</time>
      </trkpt>
      <trkpt lat="44.60794" lon="3.98786">
        <ele>916.27</ele>
        <time>2013-08-25T07:50:01Z</time>
      </trkpt>
      <trkpt lat="44.60794" lon="3.98785">
        <ele>915.31</ele>
        <time>2013-08-25T07:50:19Z</time>
      </trkpt>
      <trkpt lat="44.60793" lon="3.98783">
        <ele>916.27</ele>
        <time>2013-08-25T07:50:33Z</time>
      </trkpt>
      <trkpt lat="44.60793" lon="3.98783">
        <ele>917.24</ele>
        <time>2013-08-25T07:50:46Z</time>
      </trkpt>
      <trkpt lat="44.60793" lon="3.98783">
        <ele>916.75</ele>
        <time>2013-08-25T07:50:48Z</time>
      </trkpt>
      <trkpt lat="44.60789" lon="3.98788">
        <ele>915.79</ele>
        <time>2013-08-25T07:50:59Z</time>
      </trkpt>
      <trkpt lat="44.60764" lon="3.98782">
        <ele>918.68</ele>
        <time>2013-08-25T07:51:14Z</time>
      </trkpt>
      <trkpt lat="44.60764" lon="3.9878">
        <ele>920.12</ele>
        <time>2013-08-25T07:51:31Z</time>
      </trkpt>
      <trkpt lat="44.60764" lon="3.98778">
        <ele>921.56</ele>
        <time>2013-08-25T07:52:01Z</time>
      </trkpt>
      <trkpt lat="44.60765" lon="3.98776">
        <ele>921.56</ele>
        <time>2013-08-25T07:52:09Z</time>
      </trkpt>
      <trkpt lat="44.60769" lon="3.98768">
        <ele>924.93</ele>
        <time>2013-08-25T07:52:20Z</time>
      </trkpt>
      <trkpt lat="44.6077" lon="3.98756">
        <ele>927.33</ele>
        <time>2013-08-25T07:52:33Z</time>
      </trkpt>
      <trkpt lat="44.60772" lon="3.98757">
        <ele>928.29</ele>
        <time>2013-08-25T07:52:54Z</time>
      </trkpt>
      <trkpt lat="44.60767" lon="3.98759">
        <ele>931.17</ele>
        <time>2013-08-25T07:53:06Z</time>
      </trkpt>
      <trkpt lat="44.60761" lon="3.98759">
        <ele>933.58</ele>
        <time>2013-08-25T07:53:20Z</time>
      </trkpt>
      <trkpt lat="44.60756" lon="3.98759">
        <ele>936.46</ele>
        <time>2013-08-25T07:53:31Z</time>
      </trkpt>
      <trkpt lat="44.60756" lon="3.98748">
        <ele>938.38</ele>
        <time>2013-08-25T07:53:42Z</time>
      </trkpt>
      <trkpt lat="44.60761" lon="3.98739">
        <ele>940.79</ele>
        <time>2013-08-25T07:53:54Z</time>
      </trkpt>
      <trkpt lat="44.6077" lon="3.98728">
        <ele>942.23</ele>
        <time>2013-08-25T07:54:07Z</time>
      </trkpt>
      <trkpt lat="44.60772" lon="3.98727">
        <ele>944.63</ele>
        <time>2013-08-25T07:54:19Z</time>
      </trkpt>
      <trkpt lat="44.60772" lon="3.98725">
        <ele>945.59</ele>
        <time>2013-08-25T07:54:22Z</time>
      </trkpt>
      <trkpt lat="44.60775" lon="3.98715">
        <ele>948</ele>
        <time>2013-08-25T07:54:34Z</time>
      </trkpt>
      <trkpt lat="44.60775" lon="3.98706">
        <ele>949.92</ele>
        <time>2013-08-25T07:54:45Z</time>
      </trkpt>
      <trkpt lat="44.60769" lon="3.98691">
        <ele>952.32</ele>
        <time>2013-08-25T07:54:57Z</time>
      </trkpt>
      <trkpt lat="44.60771" lon="3.98683">
        <ele>955.21</ele>
        <time>2013-08-25T07:55:09Z</time>
      </trkpt>
      <trkpt lat="44.60777" lon="3.98672">
        <ele>957.61</ele>
        <time>2013-08-25T07:55:20Z</time>
      </trkpt>
      <trkpt lat="44.60775" lon="3.98664">
        <ele>960.49</ele>
        <time>2013-08-25T07:55:34Z</time>
      </trkpt>
      <trkpt lat="44.60775" lon="3.98662">
        <ele>962.9</ele>
        <time>2013-08-25T07:55:46Z</time>
      </trkpt>
      <trkpt lat="44.60774" lon="3.98662">
        <ele>964.82</ele>
        <time>2013-08-25T07:56:00Z</time>
      </trkpt>
      <trkpt lat="44.6076" lon="3.98667">
        <ele>966.74</ele>
        <time>2013-08-25T07:56:13Z</time>
      </trkpt>
      <trkpt lat="44.60753" lon="3.9866">
        <ele>968.18</ele>
        <time>2013-08-25T07:56:24Z</time>
      </trkpt>
      <trkpt lat="44.60745" lon="3.98665">
        <ele>970.59</ele>
        <time>2013-08-25T07:56:36Z</time>
      </trkpt>
      <trkpt lat="44.60736" lon="3.98665">
        <ele>972.51</ele>
        <time>2013-08-25T07:56:48Z</time>
      </trkpt>
      <trkpt lat="44.60735" lon="3.98661">
        <ele>974.43</ele>
        <time>2013-08-25T07:57:00Z</time>
      </trkpt>
      <trkpt lat="44.60731" lon="3.98656">
        <ele>975.88</ele>
        <time>2013-08-25T07:57:14Z</time>
      </trkpt>
      <trkpt lat="44.60723" lon="3.98652">
        <ele>978.28</ele>
        <time>2013-08-25T07:57:27Z</time>
      </trkpt>
      <trkpt lat="44.60726" lon="3.98641">
        <ele>981.16</ele>
        <time>2013-08-25T07:57:39Z</time>
      </trkpt>
      <trkpt lat="44.60719" lon="3.9864">
        <ele>983.57</ele>
        <time>2013-08-25T07:57:54Z</time>
      </trkpt>
      <trkpt lat="44.60713" lon="3.98649">
        <ele>985.97</ele>
        <time>2013-08-25T07:58:07Z</time>
      </trkpt>
      <trkpt lat="44.60705" lon="3.98656">
        <ele>987.41</ele>
        <time>2013-08-25T07:58:18Z</time>
      </trkpt>
      <trkpt lat="44.60694" lon="3.98666">
        <ele>988.37</ele>
        <time>2013-08-25T07:58:32Z</time>
      </trkpt>
      <trkpt lat="44.6069" lon="3.9867">
        <ele>990.3</ele>
        <time>2013-08-25T07:58:43Z</time>
      </trkpt>
      <trkpt lat="44.60681" lon="3.98679">
        <ele>992.7</ele>
        <time>2013-08-25T07:58:56Z</time>
      </trkpt>
      <trkpt lat="44.60679" lon="3.98682">
        <ele>993.66</ele>
        <time>2013-08-25T07:59:01Z</time>
      </trkpt>
      <trkpt lat="44.60677" lon="3.98688">
        <ele>994.14</ele>
        <time>2013-08-25T07:59:07Z</time>
      </trkpt>
      <trkpt lat="44.60675" lon="3.98688">
        <ele>997.02</ele>
        <time>2013-08-25T07:59:19Z</time>
      </trkpt>
      <trkpt lat="44.60679" lon="3.98678">
        <ele>998.95</ele>
        <time>2013-08-25T07:59:32Z</time>
      </trkpt>
      <trkpt lat="44.60678" lon="3.98669">
        <ele>1000.87</ele>
        <time>2013-08-25T07:59:44Z</time>
      </trkpt>
      <trkpt lat="44.60678" lon="3.98662">
        <ele>1001.35</ele>
        <time>2013-08-25T07:59:50Z</time>
      </trkpt>
      <trkpt lat="44.60679" lon="3.98645">
        <ele>1004.23</ele>
        <time>2013-08-25T08:00:03Z</time>
      </trkpt>
      <trkpt lat="44.60681" lon="3.98641">
        <ele>1004.72</ele>
        <time>2013-08-25T08:00:08Z</time>
      </trkpt>
      <trkpt lat="44.60687" lon="3.98626">
        <ele>1006.16</ele>
        <time>2013-08-25T08:00:22Z</time>
      </trkpt>
      <trkpt lat="44.6069" lon="3.98624">
        <ele>1006.64</ele>
        <time>2013-08-25T08:00:25Z</time>
      </trkpt>
      <trkpt lat="44.60695" lon="3.98607">
        <ele>1008.56</ele>
        <time>2013-08-25T08:00:38Z</time>
      </trkpt>
      <trkpt lat="44.60701" lon="3.98595">
        <ele>1010.48</ele>
        <time>2013-08-25T08:00:51Z</time>
      </trkpt>
      <trkpt lat="44.60704" lon="3.98587">
        <ele>1011.44</ele>
        <time>2013-08-25T08:01:03Z</time>
      </trkpt>
      <trkpt lat="44.607" lon="3.98576">
        <ele>1013.85</ele>
        <time>2013-08-25T08:01:18Z</time>
      </trkpt>
      <trkpt lat="44.60699" lon="3.9857">
        <ele>1016.25</ele>
        <time>2013-08-25T08:01:30Z</time>
      </trkpt>
      <trkpt lat="44.60701" lon="3.98567">
        <ele>1016.73</ele>
        <time>2013-08-25T08:01:35Z</time>
      </trkpt>
      <trkpt lat="44.60704" lon="3.98557">
        <ele>1019.62</ele>
        <time>2013-08-25T08:01:50Z</time>
      </trkpt>
      <trkpt lat="44.60703" lon="3.98555">
        <ele>1020.1</ele>
        <time>2013-08-25T08:02:01Z</time>
      </trkpt>
      <trkpt lat="44.607" lon="3.98547">
        <ele>1022.02</ele>
        <time>2013-08-25T08:02:15Z</time>
      </trkpt>
      <trkpt lat="44.60704" lon="3.98535">
        <ele>1024.9</ele>
        <time>2013-08-25T08:02:30Z</time>
      </trkpt>
      <trkpt lat="44.60701" lon="3.98528">
        <ele>1027.79</ele>
        <time>2013-08-25T08:02:43Z</time>
      </trkpt>
      <trkpt lat="44.60701" lon="3.9852">
        <ele>1029.23</ele>
        <time>2013-08-25T08:02:55Z</time>
      </trkpt>
      <trkpt lat="44.60706" lon="3.9851">
        <ele>1031.63</ele>
        <time>2013-08-25T08:03:06Z</time>
      </trkpt>
      <trkpt lat="44.60712" lon="3.98496">
        <ele>1034.04</ele>
        <time>2013-08-25T08:03:20Z</time>
      </trkpt>
      <trkpt lat="44.60711" lon="3.9848">
        <ele>1035.48</ele>
        <time>2013-08-25T08:03:34Z</time>
      </trkpt>
      <trkpt lat="44.60711" lon="3.98479">
        <ele>1035.96</ele>
        <time>2013-08-25T08:03:50Z</time>
      </trkpt>
      <trkpt lat="44.60711" lon="3.98479">
        <ele>1035.48</ele>
        <time>2013-08-25T08:04:18Z</time>
      </trkpt>
      <trkpt lat="44.60711" lon="3.98479">
        <ele>1036.44</ele>
        <time>2013-08-25T08:04:49Z</time>
      </trkpt>
      <trkpt lat="44.60711" lon="3.98479">
        <ele>1035</ele>
        <time>2013-08-25T08:05:21Z</time>
      </trkpt>
      <trkpt lat="44.60711" lon="3.98479">
        <ele>1035.96</ele>
        <time>2013-08-25T08:05:55Z</time>
      </trkpt>
      <trkpt lat="44.60711" lon="3.98479">
        <ele>1035.48</ele>
        <time>2013-08-25T08:06:33Z</time>
      </trkpt>
      <trkpt lat="44.60711" lon="3.98478">
        <ele>1035.96</ele>
        <time>2013-08-25T08:07:08Z</time>
      </trkpt>
      <trkpt lat="44.60711" lon="3.98478">
        <ele>1035.96</ele>
        <time>2013-08-25T08:07:45Z</time>
      </trkpt>
      <trkpt lat="44.60711" lon="3.98478">
        <ele>1035</ele>
        <time>2013-08-25T08:08:17Z</time>
      </trkpt>
      <trkpt lat="44.60711" lon="3.98478">
        <ele>1035.48</ele>
        <time>2013-08-25T08:08:51Z</time>
      </trkpt>
      <trkpt lat="44.60711" lon="3.98478">
        <ele>1035</ele>
        <time>2013-08-25T08:09:14Z</time>
      </trkpt>
      <trkpt lat="44.60712" lon="3.98475">
        <ele>1034.52</ele>
        <time>2013-08-25T08:09:28Z</time>
      </trkpt>
      <trkpt lat="44.60712" lon="3.98475">
        <ele>1034.52</ele>
        <time>2013-08-25T08:09:47Z</time>
      </trkpt>
      <trkpt lat="44.60726" lon="3.9845">
        <ele>1038.36</ele>
        <time>2013-08-25T08:10:01Z</time>
      </trkpt>
      <trkpt lat="44.60731" lon="3.98444">
        <ele>1039.32</ele>
        <time>2013-08-25T08:10:06Z</time>
      </trkpt>
      <trkpt lat="44.60732" lon="3.9844">
        <ele>1039.32</ele>
        <time>2013-08-25T08:10:08Z</time>
      </trkpt>
      <trkpt lat="44.6074" lon="3.98423">
        <ele>1043.17</ele>
        <time>2013-08-25T08:10:19Z</time>
      </trkpt>
      <trkpt lat="44.60748" lon="3.98416">
        <ele>1045.09</ele>
        <time>2013-08-25T08:10:33Z</time>
      </trkpt>
      <trkpt lat="44.60754" lon="3.98412">
        <ele>1047.49</ele>
        <time>2013-08-25T08:10:46Z</time>
      </trkpt>
      <trkpt lat="44.60749" lon="3.98403">
        <ele>1050.38</ele>
        <time>2013-08-25T08:10:59Z</time>
      </trkpt>
      <trkpt lat="44.60745" lon="3.9839">
        <ele>1052.3</ele>
        <time>2013-08-25T08:11:12Z</time>
      </trkpt>
      <trkpt lat="44.60742" lon="3.98372">
        <ele>1053.74</ele>
        <time>2013-08-25T08:11:27Z</time>
      </trkpt>
      <trkpt lat="44.60742" lon="3.98371">
        <ele>1054.22</ele>
        <time>2013-08-25T08:11:28Z</time>
      </trkpt>
      <trkpt lat="44.60743" lon="3.98365">
        <ele>1055.18</ele>
        <time>2013-08-25T08:11:41Z</time>
      </trkpt>
      <trkpt lat="44.60743" lon="3.98365">
        <ele>1054.22</ele>
        <time>2013-08-25T08:12:04Z</time>
      </trkpt>
      <trkpt lat="44.60743" lon="3.98365">
        <ele>1055.67</ele>
        <time>2013-08-25T08:12:28Z</time>
      </trkpt>
      <trkpt lat="44.60743" lon="3.98365">
        <ele>1055.67</ele>
        <time>2013-08-25T08:12:49Z</time>
      </trkpt>
      <trkpt lat="44.60741" lon="3.98352">
        <ele>1052.3</ele>
        <time>2013-08-25T08:13:01Z</time>
      </trkpt>
      <trkpt lat="44.60741" lon="3.98347">
        <ele>1051.34</ele>
        <time>2013-08-25T08:13:02Z</time>
      </trkpt>
      <trkpt lat="44.60743" lon="3.98335">
        <ele>1049.42</ele>
        <time>2013-08-25T08:13:04Z</time>
      </trkpt>
      <trkpt lat="44.60746" lon="3.9833">
        <ele>1048.45</ele>
        <time>2013-08-25T08:13:05Z</time>
      </trkpt>
      <trkpt lat="44.60754" lon="3.98316">
        <ele>1046.05</ele>
        <time>2013-08-25T08:13:09Z</time>
      </trkpt>
      <trkpt lat="44.60756" lon="3.98314">
        <ele>1045.57</ele>
        <time>2013-08-25T08:13:10Z</time>
      </trkpt>
      <trkpt lat="44.60767" lon="3.98304">
        <ele>1042.21</ele>
        <time>2013-08-25T08:13:15Z</time>
      </trkpt>
      <trkpt lat="44.6077" lon="3.98299">
        <ele>1040.76</ele>
        <time>2013-08-25T08:13:17Z</time>
      </trkpt>
      <trkpt lat="44.60771" lon="3.98295">
        <ele>1040.76</ele>
        <time>2013-08-25T08:13:18Z</time>
      </trkpt>
      <trkpt lat="44.60772" lon="3.98282">
        <ele>1038.84</ele>
        <time>2013-08-25T08:13:21Z</time>
      </trkpt>
      <trkpt lat="44.60773" lon="3.98274">
        <ele>1037.88</ele>
        <time>2013-08-25T08:13:23Z</time>
      </trkpt>
      <trkpt lat="44.60774" lon="3.98241">
        <ele>1035</ele>
        <time>2013-08-25T08:13:30Z</time>
      </trkpt>
      <trkpt lat="44.60784" lon="3.98185">
        <ele>1031.63</ele>
        <time>2013-08-25T08:13:40Z</time>
      </trkpt>
      <trkpt lat="44.6079" lon="3.98125">
        <ele>1028.75</ele>
        <time>2013-08-25T08:13:49Z</time>
      </trkpt>
      <trkpt lat="44.6079" lon="3.98119">
        <ele>1028.27</ele>
        <time>2013-08-25T08:13:50Z</time>
      </trkpt>
      <trkpt lat="44.6079" lon="3.98112">
        <ele>1028.27</ele>
        <time>2013-08-25T08:13:51Z</time>
      </trkpt>
      <trkpt lat="44.60791" lon="3.98078">
        <ele>1025.86</ele>
        <time>2013-08-25T08:13:55Z</time>
      </trkpt>
      <trkpt lat="44.60795" lon="3.98023">
        <ele>1022.98</ele>
        <time>2013-08-25T08:14:02Z</time>
      </trkpt>
      <trkpt lat="44.60799" lon="3.98">
        <ele>1021.06</ele>
        <time>2013-08-25T08:14:06Z</time>
      </trkpt>
      <trkpt lat="44.60798" lon="3.97994">
        <ele>1020.58</ele>
        <time>2013-08-25T08:14:07Z</time>
      </trkpt>
      <trkpt lat="44.60801" lon="3.97978">
        <ele>1021.06</ele>
        <time>2013-08-25T08:14:16Z</time>
      </trkpt>
      <trkpt lat="44.60801" lon="3.97978">
        <ele>1021.06</ele>
        <time>2013-08-25T08:14:36Z</time>
      </trkpt>
      <trkpt lat="44.608" lon="3.97976">
        <ele>1021.06</ele>
        <time>2013-08-25T08:14:46Z</time>
      </trkpt>
      <trkpt lat="44.60798" lon="3.97973">
        <ele>1020.58</ele>
        <time>2013-08-25T08:14:47Z</time>
      </trkpt>
      <trkpt lat="44.60796" lon="3.9797">
        <ele>1020.1</ele>
        <time>2013-08-25T08:14:48Z</time>
      </trkpt>
      <trkpt lat="44.60785" lon="3.97951">
        <ele>1016.73</ele>
        <time>2013-08-25T08:14:53Z</time>
      </trkpt>
      <trkpt lat="44.60769" lon="3.97926">
        <ele>1014.81</ele>
        <time>2013-08-25T08:14:58Z</time>
      </trkpt>
      <trkpt lat="44.60765" lon="3.9792">
        <ele>1014.33</ele>
        <time>2013-08-25T08:14:59Z</time>
      </trkpt>
      <trkpt lat="44.60752" lon="3.97892">
        <ele>1012.41</ele>
        <time>2013-08-25T08:15:04Z</time>
      </trkpt>
      <trkpt lat="44.60746" lon="3.97885">
        <ele>1012.41</ele>
        <time>2013-08-25T08:15:06Z</time>
      </trkpt>
      <trkpt lat="44.60743" lon="3.97885">
        <ele>1012.41</ele>
        <time>2013-08-25T08:15:07Z</time>
      </trkpt>
      <trkpt lat="44.6074" lon="3.97885">
        <ele>1011.93</ele>
        <time>2013-08-25T08:15:08Z</time>
      </trkpt>
      <trkpt lat="44.60727" lon="3.97888">
        <ele>1010.96</ele>
        <time>2013-08-25T08:15:11Z</time>
      </trkpt>
      <trkpt lat="44.60715" lon="3.97894">
        <ele>1010.96</ele>
        <time>2013-08-25T08:15:14Z</time>
      </trkpt>
      <trkpt lat="44.6071" lon="3.97897">
        <ele>1010.48</ele>
        <time>2013-08-25T08:15:15Z</time>
      </trkpt>
      <trkpt lat="44.60701" lon="3.97902">
        <ele>1009.52</ele>
        <time>2013-08-25T08:15:17Z</time>
      </trkpt>
      <trkpt lat="44.60688" lon="3.97906">
        <ele>1009.04</ele>
        <time>2013-08-25T08:15:20Z</time>
      </trkpt>
      <trkpt lat="44.60683" lon="3.97907">
        <ele>1008.56</ele>
        <time>2013-08-25T08:15:21Z</time>
      </trkpt>
      <trkpt lat="44.60678" lon="3.97908">
        <ele>1008.08</ele>
        <time>2013-08-25T08:15:22Z</time>
      </trkpt>
      <trkpt lat="44.60673" lon="3.97909">
        <ele>1008.08</ele>
        <time>2013-08-25T08:15:23Z</time>
      </trkpt>
      <trkpt lat="44.60669" lon="3.9791">
        <ele>1008.08</ele>
        <time>2013-08-25T08:15:24Z</time>
      </trkpt>
      <trkpt lat="44.60647" lon="3.97919">
        <ele>1006.64</ele>
        <time>2013-08-25T08:15:29Z</time>
      </trkpt>
      <trkpt lat="44.60643" lon="3.97921">
        <ele>1006.16</ele>
        <time>2013-08-25T08:15:30Z</time>
      </trkpt>
      <trkpt lat="44.60639" lon="3.97923">
        <ele>1006.16</ele>
        <time>2013-08-25T08:15:31Z</time>
      </trkpt>
      <trkpt lat="44.60635" lon="3.97925">
        <ele>1005.2</ele>
        <time>2013-08-25T08:15:32Z</time>
      </trkpt>
      <trkpt lat="44.60631" lon="3.97927">
        <ele>1005.2</ele>
        <time>2013-08-25T08:15:33Z</time>
      </trkpt>
      <trkpt lat="44.60628" lon="3.97927">
        <ele>1004.72</ele>
        <time>2013-08-25T08:15:34Z</time>
      </trkpt>
      <trkpt lat="44.60611" lon="3.97917">
        <ele>1003.75</ele>
        <time>2013-08-25T08:15:41Z</time>
      </trkpt>
      <trkpt lat="44.60609" lon="3.97914">
        <ele>1003.75</ele>
        <time>2013-08-25T08:15:42Z</time>
      </trkpt>
      <trkpt lat="44.60606" lon="3.97911">
        <ele>1003.27</ele>
        <time>2013-08-25T08:15:43Z</time>
      </trkpt>
      <trkpt lat="44.60603" lon="3.97909">
        <ele>1003.27</ele>
        <time>2013-08-25T08:15:44Z</time>
      </trkpt>
      <trkpt lat="44.60601" lon="3.97906">
        <ele>1002.79</ele>
        <time>2013-08-25T08:15:45Z</time>
      </trkpt>
      <trkpt lat="44.606" lon="3.97905">
        <ele>1002.79</ele>
        <time>2013-08-25T08:15:46Z</time>
      </trkpt>
      <trkpt lat="44.60592" lon="3.97898">
        <ele>1001.35</ele>
        <time>2013-08-25T08:15:50Z</time>
      </trkpt>
      <trkpt lat="44.60591" lon="3.97895">
        <ele>1000.87</ele>
        <time>2013-08-25T08:15:51Z</time>
      </trkpt>
      <trkpt lat="44.6059" lon="3.97893">
        <ele>1000.39</ele>
        <time>2013-08-25T08:15:52Z</time>
      </trkpt>
      <trkpt lat="44.60588" lon="3.97891">
        <ele>1000.39</ele>
        <time>2013-08-25T08:15:53Z</time>
      </trkpt>
      <trkpt lat="44.60586" lon="3.9789">
        <ele>1000.39</ele>
        <time>2013-08-25T08:15:54Z</time>
      </trkpt>
      <trkpt lat="44.60584" lon="3.97889">
        <ele>999.91</ele>
        <time>2013-08-25T08:15:55Z</time>
      </trkpt>
      <trkpt lat="44.60582" lon="3.97887">
        <ele>999.43</ele>
        <time>2013-08-25T08:15:56Z</time>
      </trkpt>
      <trkpt lat="44.60581" lon="3.97884">
        <ele>998.95</ele>
        <time>2013-08-25T08:15:57Z</time>
      </trkpt>
      <trkpt lat="44.60579" lon="3.9788">
        <ele>998.95</ele>
        <time>2013-08-25T08:16:00Z</time>
      </trkpt>
      <trkpt lat="44.60577" lon="3.97877">
        <ele>998.47</ele>
        <time>2013-08-25T08:16:01Z</time>
      </trkpt>
      <trkpt lat="44.60575" lon="3.97874">
        <ele>998.47</ele>
        <time>2013-08-25T08:16:02Z</time>
      </trkpt>
      <trkpt lat="44.60573" lon="3.97871">
        <ele>997.99</ele>
        <time>2013-08-25T08:16:03Z</time>
      </trkpt>
      <trkpt lat="44.60571" lon="3.97869">
        <ele>997.51</ele>
        <time>2013-08-25T08:16:04Z</time>
      </trkpt>
      <trkpt lat="44.60568" lon="3.97867">
        <ele>997.02</ele>
        <time>2013-08-25T08:16:05Z</time>
      </trkpt>
      <trkpt lat="44.60566" lon="3.97865">
        <ele>997.02</ele>
        <time>2013-08-25T08:16:06Z</time>
      </trkpt>
      <trkpt lat="44.60563" lon="3.97863">
        <ele>997.02</ele>
        <time>2013-08-25T08:16:07Z</time>
      </trkpt>
      <trkpt lat="44.60561" lon="3.97862">
        <ele>996.54</ele>
        <time>2013-08-25T08:16:08Z</time>
      </trkpt>
      <trkpt lat="44.60559" lon="3.97861">
        <ele>996.06</ele>
        <time>2013-08-25T08:16:09Z</time>
      </trkpt>
      <trkpt lat="44.60557" lon="3.97859">
        <ele>996.06</ele>
        <time>2013-08-25T08:16:10Z</time>
      </trkpt>
      <trkpt lat="44.60555" lon="3.97857">
        <ele>995.1</ele>
        <time>2013-08-25T08:16:11Z</time>
      </trkpt>
      <trkpt lat="44.60553" lon="3.97855">
        <ele>995.1</ele>
        <time>2013-08-25T08:16:12Z</time>
      </trkpt>
      <trkpt lat="44.6053" lon="3.97828">
        <ele>994.14</ele>
        <time>2013-08-25T08:16:23Z</time>
      </trkpt>
      <trkpt lat="44.60515" lon="3.97812">
        <ele>990.3</ele>
        <time>2013-08-25T08:16:28Z</time>
      </trkpt>
      <trkpt lat="44.60505" lon="3.97796">
        <ele>986.93</ele>
        <time>2013-08-25T08:16:32Z</time>
      </trkpt>
      <trkpt lat="44.605" lon="3.97788">
        <ele>985.49</ele>
        <time>2013-08-25T08:16:34Z</time>
      </trkpt>
      <trkpt lat="44.60499" lon="3.97784">
        <ele>985.97</ele>
        <time>2013-08-25T08:16:35Z</time>
      </trkpt>
      <trkpt lat="44.60499" lon="3.97779">
        <ele>986.45</ele>
        <time>2013-08-25T08:16:36Z</time>
      </trkpt>
      <trkpt lat="44.605" lon="3.97774">
        <ele>985.97</ele>
        <time>2013-08-25T08:16:37Z</time>
      </trkpt>
      <trkpt lat="44.60498" lon="3.97769">
        <ele>985.49</ele>
        <time>2013-08-25T08:16:38Z</time>
      </trkpt>
      <trkpt lat="44.60496" lon="3.97765">
        <ele>985.49</ele>
        <time>2013-08-25T08:16:39Z</time>
      </trkpt>
      <trkpt lat="44.60481" lon="3.97748">
        <ele>982.6</ele>
        <time>2013-08-25T08:16:44Z</time>
      </trkpt>
      <trkpt lat="44.6047" lon="3.97737">
        <ele>979.72</ele>
        <time>2013-08-25T08:16:48Z</time>
      </trkpt>
      <trkpt lat="44.60467" lon="3.97734">
        <ele>979.72</ele>
        <time>2013-08-25T08:16:49Z</time>
      </trkpt>
      <trkpt lat="44.60453" lon="3.97706">
        <ele>977.8</ele>
        <time>2013-08-25T08:16:55Z</time>
      </trkpt>
      <trkpt lat="44.60451" lon="3.977">
        <ele>978.28</ele>
        <time>2013-08-25T08:16:56Z</time>
      </trkpt>
      <trkpt lat="44.60451" lon="3.97694">
        <ele>978.76</ele>
        <time>2013-08-25T08:16:57Z</time>
      </trkpt>
      <trkpt lat="44.60452" lon="3.97689">
        <ele>978.76</ele>
        <time>2013-08-25T08:16:58Z</time>
      </trkpt>
      <trkpt lat="44.60455" lon="3.97685">
        <ele>978.28</ele>
        <time>2013-08-25T08:16:59Z</time>
      </trkpt>
      <trkpt lat="44.60457" lon="3.97673">
        <ele>978.28</ele>
        <time>2013-08-25T08:17:02Z</time>
      </trkpt>
      <trkpt lat="44.60448" lon="3.97646">
        <ele>974.91</ele>
        <time>2013-08-25T08:17:07Z</time>
      </trkpt>
      <trkpt lat="44.60442" lon="3.9762">
        <ele>971.55</ele>
        <time>2013-08-25T08:17:12Z</time>
      </trkpt>
      <trkpt lat="44.60442" lon="3.97604">
        <ele>969.15</ele>
        <time>2013-08-25T08:17:15Z</time>
      </trkpt>
      <trkpt lat="44.60448" lon="3.97581">
        <ele>967.7</ele>
        <time>2013-08-25T08:17:19Z</time>
      </trkpt>
      <trkpt lat="44.60449" lon="3.97571">
        <ele>966.74</ele>
        <time>2013-08-25T08:17:21Z</time>
      </trkpt>
      <trkpt lat="44.60451" lon="3.97562">
        <ele>965.3</ele>
        <time>2013-08-25T08:17:23Z</time>
      </trkpt>
      <trkpt lat="44.60451" lon="3.97558">
        <ele>964.82</ele>
        <time>2013-08-25T08:17:24Z</time>
      </trkpt>
      <trkpt lat="44.60451" lon="3.97553">
        <ele>964.34</ele>
        <time>2013-08-25T08:17:25Z</time>
      </trkpt>
      <trkpt lat="44.60451" lon="3.97549">
        <ele>962.9</ele>
        <time>2013-08-25T08:17:26Z</time>
      </trkpt>
      <trkpt lat="44.60451" lon="3.97545">
        <ele>962.9</ele>
        <time>2013-08-25T08:17:27Z</time>
      </trkpt>
      <trkpt lat="44.60451" lon="3.97541">
        <ele>961.94</ele>
        <time>2013-08-25T08:17:28Z</time>
      </trkpt>
      <trkpt lat="44.60451" lon="3.97536">
        <ele>961.46</ele>
        <time>2013-08-25T08:17:29Z</time>
      </trkpt>
      <trkpt lat="44.60454" lon="3.9752">
        <ele>960.01</ele>
        <time>2013-08-25T08:17:33Z</time>
      </trkpt>
      <trkpt lat="44.60459" lon="3.97497">
        <ele>956.17</ele>
        <time>2013-08-25T08:17:39Z</time>
      </trkpt>
      <trkpt lat="44.60463" lon="3.97486">
        <ele>955.21</ele>
        <time>2013-08-25T08:17:42Z</time>
      </trkpt>
      <trkpt lat="44.60465" lon="3.97484">
        <ele>955.21</ele>
        <time>2013-08-25T08:17:43Z</time>
      </trkpt>
      <trkpt lat="44.60467" lon="3.97481">
        <ele>954.73</ele>
        <time>2013-08-25T08:17:44Z</time>
      </trkpt>
      <trkpt lat="44.6047" lon="3.97474">
        <ele>953.77</ele>
        <time>2013-08-25T08:17:46Z</time>
      </trkpt>
      <trkpt lat="44.60481" lon="3.97455">
        <ele>950.4</ele>
        <time>2013-08-25T08:17:52Z</time>
      </trkpt>
      <trkpt lat="44.60492" lon="3.97434">
        <ele>947.04</ele>
        <time>2013-08-25T08:17:58Z</time>
      </trkpt>
      <trkpt lat="44.60496" lon="3.97428">
        <ele>946.07</ele>
        <time>2013-08-25T08:18:00Z</time>
      </trkpt>
      <trkpt lat="44.60502" lon="3.97418">
        <ele>942.71</ele>
        <time>2013-08-25T08:18:04Z</time>
      </trkpt>
      <trkpt lat="44.60505" lon="3.97412">
        <ele>942.23</ele>
        <time>2013-08-25T08:18:06Z</time>
      </trkpt>
      <trkpt lat="44.60515" lon="3.97394">
        <ele>938.86</ele>
        <time>2013-08-25T08:18:11Z</time>
      </trkpt>
      <trkpt lat="44.60514" lon="3.97377">
        <ele>935.98</ele>
        <time>2013-08-25T08:18:15Z</time>
      </trkpt>
      <trkpt lat="44.60514" lon="3.97372">
        <ele>935.5</ele>
        <time>2013-08-25T08:18:16Z</time>
      </trkpt>
      <trkpt lat="44.60521" lon="3.97346">
        <ele>932.14</ele>
        <time>2013-08-25T08:18:22Z</time>
      </trkpt>
      <trkpt lat="44.60531" lon="3.97337">
        <ele>931.65</ele>
        <time>2013-08-25T08:18:26Z</time>
      </trkpt>
      <trkpt lat="44.60532" lon="3.97334">
        <ele>931.17</ele>
        <time>2013-08-25T08:18:27Z</time>
      </trkpt>
      <trkpt lat="44.60533" lon="3.9733">
        <ele>930.21</ele>
        <time>2013-08-25T08:18:28Z</time>
      </trkpt>
      <trkpt lat="44.60535" lon="3.97327">
        <ele>929.73</ele>
        <time>2013-08-25T08:18:29Z</time>
      </trkpt>
      <trkpt lat="44.60536" lon="3.97324">
        <ele>929.25</ele>
        <time>2013-08-25T08:18:30Z</time>
      </trkpt>
      <trkpt lat="44.60539" lon="3.97321">
        <ele>928.29</ele>
        <time>2013-08-25T08:18:31Z</time>
      </trkpt>
      <trkpt lat="44.60541" lon="3.97319">
        <ele>928.29</ele>
        <time>2013-08-25T08:18:32Z</time>
      </trkpt>
      <trkpt lat="44.60543" lon="3.97317">
        <ele>927.81</ele>
        <time>2013-08-25T08:18:33Z</time>
      </trkpt>
      <trkpt lat="44.60547" lon="3.97314">
        <ele>926.85</ele>
        <time>2013-08-25T08:18:34Z</time>
      </trkpt>
      <trkpt lat="44.6055" lon="3.97312">
        <ele>926.37</ele>
        <time>2013-08-25T08:18:35Z</time>
      </trkpt>
      <trkpt lat="44.60568" lon="3.97298">
        <ele>923.48</ele>
        <time>2013-08-25T08:18:42Z</time>
      </trkpt>
      <trkpt lat="44.6057" lon="3.97295">
        <ele>923.48</ele>
        <time>2013-08-25T08:18:43Z</time>
      </trkpt>
      <trkpt lat="44.6058" lon="3.97284">
        <ele>920.12</ele>
        <time>2013-08-25T08:18:48Z</time>
      </trkpt>
      <trkpt lat="44.60592" lon="3.9728">
        <ele>916.75</ele>
        <time>2013-08-25T08:18:52Z</time>
      </trkpt>
      <trkpt lat="44.60606" lon="3.97271">
        <ele>913.39</ele>
        <time>2013-08-25T08:18:57Z</time>
      </trkpt>
      <trkpt lat="44.60609" lon="3.9727">
        <ele>912.91</ele>
        <time>2013-08-25T08:18:58Z</time>
      </trkpt>
      <trkpt lat="44.6062" lon="3.97256">
        <ele>909.06</ele>
        <time>2013-08-25T08:19:03Z</time>
      </trkpt>
      <trkpt lat="44.60622" lon="3.97252">
        <ele>909.06</ele>
        <time>2013-08-25T08:19:04Z</time>
      </trkpt>
      <trkpt lat="44.60629" lon="3.97239">
        <ele>906.18</ele>
        <time>2013-08-25T08:19:08Z</time>
      </trkpt>
      <trkpt lat="44.60635" lon="3.9723">
        <ele>904.26</ele>
        <time>2013-08-25T08:19:11Z</time>
      </trkpt>
      <trkpt lat="44.60638" lon="3.97228">
        <ele>903.78</ele>
        <time>2013-08-25T08:19:12Z</time>
      </trkpt>
      <trkpt lat="44.6064" lon="3.97226">
        <ele>902.82</ele>
        <time>2013-08-25T08:19:13Z</time>
      </trkpt>
      <trkpt lat="44.60642" lon="3.97224">
        <ele>902.33</ele>
        <time>2013-08-25T08:19:14Z</time>
      </trkpt>
      <trkpt lat="44.60645" lon="3.97222">
        <ele>901.37</ele>
        <time>2013-08-25T08:19:15Z</time>
      </trkpt>
      <trkpt lat="44.60652" lon="3.97221">
        <ele>899.93</ele>
        <time>2013-08-25T08:19:19Z</time>
      </trkpt>
      <trkpt lat="44.60653" lon="3.9722">
        <ele>898.97</ele>
        <time>2013-08-25T08:19:20Z</time>
      </trkpt>
      <trkpt lat="44.60654" lon="3.97218">
        <ele>898.49</ele>
        <time>2013-08-25T08:19:21Z</time>
      </trkpt>
      <trkpt lat="44.60665" lon="3.9722">
        <ele>895.61</ele>
        <time>2013-08-25T08:19:27Z</time>
      </trkpt>
      <trkpt lat="44.60668" lon="3.97223">
        <ele>895.12</ele>
        <time>2013-08-25T08:19:28Z</time>
      </trkpt>
      <trkpt lat="44.60675" lon="3.97229">
        <ele>894.16</ele>
        <time>2013-08-25T08:19:30Z</time>
      </trkpt>
      <trkpt lat="44.60679" lon="3.97233">
        <ele>894.16</ele>
        <time>2013-08-25T08:19:31Z</time>
      </trkpt>
      <trkpt lat="44.60682" lon="3.97236">
        <ele>893.68</ele>
        <time>2013-08-25T08:19:32Z</time>
      </trkpt>
      <trkpt lat="44.60686" lon="3.97238">
        <ele>893.68</ele>
        <time>2013-08-25T08:19:33Z</time>
      </trkpt>
      <trkpt lat="44.60689" lon="3.9724">
        <ele>893.2</ele>
        <time>2013-08-25T08:19:34Z</time>
      </trkpt>
      <trkpt lat="44.60691" lon="3.97243">
        <ele>893.2</ele>
        <time>2013-08-25T08:19:35Z</time>
      </trkpt>
      <trkpt lat="44.60693" lon="3.97246">
        <ele>892.24</ele>
        <time>2013-08-25T08:19:36Z</time>
      </trkpt>
      <trkpt lat="44.60694" lon="3.97249">
        <ele>891.76</ele>
        <time>2013-08-25T08:19:37Z</time>
      </trkpt>
      <trkpt lat="44.60695" lon="3.97252">
        <ele>891.28</ele>
        <time>2013-08-25T08:19:38Z</time>
      </trkpt>
      <trkpt lat="44.60697" lon="3.97254">
        <ele>890.32</ele>
        <time>2013-08-25T08:19:39Z</time>
      </trkpt>
      <trkpt lat="44.60699" lon="3.97257">
        <ele>889.84</ele>
        <time>2013-08-25T08:19:40Z</time>
      </trkpt>
      <trkpt lat="44.60702" lon="3.97258">
        <ele>889.36</ele>
        <time>2013-08-25T08:19:41Z</time>
      </trkpt>
      <trkpt lat="44.60706" lon="3.97258">
        <ele>888.88</ele>
        <time>2013-08-25T08:19:42Z</time>
      </trkpt>
      <trkpt lat="44.60708" lon="3.97255">
        <ele>888.4</ele>
        <time>2013-08-25T08:19:43Z</time>
      </trkpt>
      <trkpt lat="44.6071" lon="3.97249">
        <ele>887.91</ele>
        <time>2013-08-25T08:19:44Z</time>
      </trkpt>
      <trkpt lat="44.60712" lon="3.97244">
        <ele>886.95</ele>
        <time>2013-08-25T08:19:45Z</time>
      </trkpt>
      <trkpt lat="44.60713" lon="3.97242">
        <ele>886.95</ele>
        <time>2013-08-25T08:19:46Z</time>
      </trkpt>
      <trkpt lat="44.60714" lon="3.97241">
        <ele>886.47</ele>
        <time>2013-08-25T08:20:00Z</time>
      </trkpt>
      <trkpt lat="44.60714" lon="3.97241">
        <ele>886.95</ele>
        <time>2013-08-25T08:20:25Z</time>
      </trkpt>
      <trkpt lat="44.60714" lon="3.97241">
        <ele>883.59</ele>
        <time>2013-08-25T08:20:35Z</time>
      </trkpt>
      <trkpt lat="44.60714" lon="3.97241">
        <ele>885.51</ele>
        <time>2013-08-25T08:20:57Z</time>
      </trkpt>
      <trkpt lat="44.60714" lon="3.97241">
        <ele>885.99</ele>
        <time>2013-08-25T08:21:19Z</time>
      </trkpt>
      <trkpt lat="44.60714" lon="3.97241">
        <ele>885.03</ele>
        <time>2013-08-25T08:21:38Z</time>
      </trkpt>
      <trkpt lat="44.60714" lon="3.97241">
        <ele>888.4</ele>
        <time>2013-08-25T08:21:42Z</time>
      </trkpt>
      <trkpt lat="44.60714" lon="3.97241">
        <ele>882.63</ele>
        <time>2013-08-25T08:21:43Z</time>
      </trkpt>
      <trkpt lat="44.60714" lon="3.97241">
        <ele>886.47</ele>
        <time>2013-08-25T08:21:44Z</time>
      </trkpt>
      <trkpt lat="44.60714" lon="3.97241">
        <ele>882.63</ele>
        <time>2013-08-25T08:21:49Z</time>
      </trkpt>
      <trkpt lat="44.60714" lon="3.97241">
        <ele>886.95</ele>
        <time>2013-08-25T08:21:50Z</time>
      </trkpt>
      <trkpt lat="44.60714" lon="3.97241">
        <ele>883.59</ele>
        <time>2013-08-25T08:21:52Z</time>
      </trkpt>
      <trkpt lat="44.60714" lon="3.97241">
        <ele>887.91</ele>
        <time>2013-08-25T08:22:00Z</time>
      </trkpt>
      <trkpt lat="44.60714" lon="3.97241">
        <ele>884.07</ele>
        <time>2013-08-25T08:22:02Z</time>
      </trkpt>
      <trkpt lat="44.60714" lon="3.97241">
        <ele>887.43</ele>
        <time>2013-08-25T08:22:08Z</time>
      </trkpt>
      <trkpt lat="44.60714" lon="3.97241">
        <ele>883.59</ele>
        <time>2013-08-25T08:22:20Z</time>
      </trkpt>
      <trkpt lat="44.60715" lon="3.97241">
        <ele>887.43</ele>
        <time>2013-08-25T08:22:34Z</time>
      </trkpt>
      <trkpt lat="44.60715" lon="3.97241">
        <ele>880.22</ele>
        <time>2013-08-25T08:22:35Z</time>
      </trkpt>
      <trkpt lat="44.60715" lon="3.97241">
        <ele>883.59</ele>
        <time>2013-08-25T08:22:36Z</time>
      </trkpt>
      <trkpt lat="44.60715" lon="3.97241">
        <ele>887.43</ele>
        <time>2013-08-25T08:22:37Z</time>
      </trkpt>
      <trkpt lat="44.60715" lon="3.97241">
        <ele>883.59</ele>
        <time>2013-08-25T08:22:38Z</time>
      </trkpt>
      <trkpt lat="44.60715" lon="3.97241">
        <ele>887.43</ele>
        <time>2013-08-25T08:22:39Z</time>
      </trkpt>
      <trkpt lat="44.60715" lon="3.97241">
        <ele>881.67</ele>
        <time>2013-08-25T08:22:40Z</time>
      </trkpt>
      <trkpt lat="44.60715" lon="3.97241">
        <ele>885.99</ele>
        <time>2013-08-25T08:22:41Z</time>
      </trkpt>
      <trkpt lat="44.60715" lon="3.97241">
        <ele>882.15</ele>
        <time>2013-08-25T08:22:43Z</time>
      </trkpt>
      <trkpt lat="44.60715" lon="3.97241">
        <ele>885.51</ele>
        <time>2013-08-25T08:22:44Z</time>
      </trkpt>
      <trkpt lat="44.60715" lon="3.97241">
        <ele>884.55</ele>
        <time>2013-08-25T08:22:45Z</time>
      </trkpt>
      <trkpt lat="44.60715" lon="3.97241">
        <ele>888.4</ele>
        <time>2013-08-25T08:22:46Z</time>
      </trkpt>
      <trkpt lat="44.60715" lon="3.97241">
        <ele>880.71</ele>
        <time>2013-08-25T08:22:47Z</time>
      </trkpt>
      <trkpt lat="44.60715" lon="3.97241">
        <ele>885.51</ele>
        <time>2013-08-25T08:22:48Z</time>
      </trkpt>
      <trkpt lat="44.60715" lon="3.97241">
        <ele>882.15</ele>
        <time>2013-08-25T08:22:59Z</time>
      </trkpt>
      <trkpt lat="44.60715" lon="3.97241">
        <ele>886.47</ele>
        <time>2013-08-25T08:23:00Z</time>
      </trkpt>
      <trkpt lat="44.60715" lon="3.97241">
        <ele>890.8</ele>
        <time>2013-08-25T08:23:03Z</time>
      </trkpt>
      <trkpt lat="44.60715" lon="3.97241">
        <ele>886.47</ele>
        <time>2013-08-25T08:23:04Z</time>
      </trkpt>
      <trkpt lat="44.60715" lon="3.97241">
        <ele>885.51</ele>
        <time>2013-08-25T08:23:06Z</time>
      </trkpt>
      <trkpt lat="44.60715" lon="3.9724">
        <ele>888.88</ele>
        <time>2013-08-25T08:23:15Z</time>
      </trkpt>
      <trkpt lat="44.60715" lon="3.9724">
        <ele>883.59</ele>
        <time>2013-08-25T08:23:16Z</time>
      </trkpt>
      <trkpt lat="44.60715" lon="3.9724">
        <ele>886.95</ele>
        <time>2013-08-25T08:23:17Z</time>
      </trkpt>
      <trkpt lat="44.60715" lon="3.9724">
        <ele>881.67</ele>
        <time>2013-08-25T08:23:20Z</time>
      </trkpt>
      <trkpt lat="44.60715" lon="3.9724">
        <ele>885.51</ele>
        <time>2013-08-25T08:23:21Z</time>
      </trkpt>
      <trkpt lat="44.60715" lon="3.9724">
        <ele>880.71</ele>
        <time>2013-08-25T08:23:22Z</time>
      </trkpt>
      <trkpt lat="44.60715" lon="3.9724">
        <ele>885.03</ele>
        <time>2013-08-25T08:23:23Z</time>
      </trkpt>
      <trkpt lat="44.60715" lon="3.9724">
        <ele>888.88</ele>
        <time>2013-08-25T08:23:25Z</time>
      </trkpt>
      <trkpt lat="44.60715" lon="3.9724">
        <ele>885.03</ele>
        <time>2013-08-25T08:23:26Z</time>
      </trkpt>
      <trkpt lat="44.60715" lon="3.9724">
        <ele>882.15</ele>
        <time>2013-08-25T08:23:29Z</time>
      </trkpt>
      <trkpt lat="44.60715" lon="3.9724">
        <ele>887.43</ele>
        <time>2013-08-25T08:23:33Z</time>
      </trkpt>
      <trkpt lat="44.60715" lon="3.9724">
        <ele>880.22</ele>
        <time>2013-08-25T08:23:34Z</time>
      </trkpt>
      <trkpt lat="44.60715" lon="3.9724">
        <ele>885.51</ele>
        <time>2013-08-25T08:23:35Z</time>
      </trkpt>
      <trkpt lat="44.60715" lon="3.9724">
        <ele>882.15</ele>
        <time>2013-08-25T08:23:38Z</time>
      </trkpt>
      <trkpt lat="44.60715" lon="3.9724">
        <ele>885.51</ele>
        <time>2013-08-25T08:23:39Z</time>
      </trkpt>
      <trkpt lat="44.60715" lon="3.9724">
        <ele>881.19</ele>
        <time>2013-08-25T08:23:40Z</time>
      </trkpt>
      <trkpt lat="44.60715" lon="3.9724">
        <ele>885.99</ele>
        <time>2013-08-25T08:23:41Z</time>
      </trkpt>
      <trkpt lat="44.60715" lon="3.9724">
        <ele>885.03</ele>
        <time>2013-08-25T08:24:07Z</time>
      </trkpt>
      <trkpt lat="44.60715" lon="3.97241">
        <ele>885.03</ele>
        <time>2013-08-25T08:24:35Z</time>
      </trkpt>
      <trkpt lat="44.60715" lon="3.97241">
        <ele>884.55</ele>
        <time>2013-08-25T08:24:59Z</time>
      </trkpt>
      <trkpt lat="44.60715" lon="3.97241">
        <ele>884.55</ele>
        <time>2013-08-25T08:25:26Z</time>
      </trkpt>
      <trkpt lat="44.60715" lon="3.97241">
        <ele>885.99</ele>
        <time>2013-08-25T08:25:51Z</time>
      </trkpt>
      <trkpt lat="44.60715" lon="3.97241">
        <ele>885.99</ele>
        <time>2013-08-25T08:26:19Z</time>
      </trkpt>
      <trkpt lat="44.60715" lon="3.97241">
        <ele>885.51</ele>
        <time>2013-08-25T08:26:42Z</time>
      </trkpt>
      <trkpt lat="44.60715" lon="3.97241">
        <ele>885.51</ele>
        <time>2013-08-25T08:27:09Z</time>
      </trkpt>
      <trkpt lat="44.60716" lon="3.97241">
        <ele>885.99</ele>
        <time>2013-08-25T08:27:34Z</time>
      </trkpt>
      <trkpt lat="44.60716" lon="3.97241">
        <ele>886.95</ele>
        <time>2013-08-25T08:27:58Z</time>
      </trkpt>
      <trkpt lat="44.60716" lon="3.97241">
        <ele>885.99</ele>
        <time>2013-08-25T08:28:23Z</time>
      </trkpt>
      <trkpt lat="44.60715" lon="3.97241">
        <ele>885.99</ele>
        <time>2013-08-25T08:28:48Z</time>
      </trkpt>
      <trkpt lat="44.60716" lon="3.9724">
        <ele>885.99</ele>
        <time>2013-08-25T08:29:18Z</time>
      </trkpt>
      <trkpt lat="44.60715" lon="3.97238">
        <ele>885.99</ele>
        <time>2013-08-25T08:29:19Z</time>
      </trkpt>
      <trkpt lat="44.60717" lon="3.97234">
        <ele>885.51</ele>
        <time>2013-08-25T08:29:21Z</time>
      </trkpt>
      <trkpt lat="44.60719" lon="3.97234">
        <ele>884.55</ele>
        <time>2013-08-25T08:29:22Z</time>
      </trkpt>
      <trkpt lat="44.60726" lon="3.97231">
        <ele>881.67</ele>
        <time>2013-08-25T08:29:25Z</time>
      </trkpt>
      <trkpt lat="44.60733" lon="3.97218">
        <ele>879.74</ele>
        <time>2013-08-25T08:29:29Z</time>
      </trkpt>
      <trkpt lat="44.60733" lon="3.97213">
        <ele>879.74</ele>
        <time>2013-08-25T08:29:30Z</time>
      </trkpt>
      <trkpt lat="44.60732" lon="3.97208">
        <ele>880.22</ele>
        <time>2013-08-25T08:29:31Z</time>
      </trkpt>
      <trkpt lat="44.60732" lon="3.97203">
        <ele>880.22</ele>
        <time>2013-08-25T08:29:32Z</time>
      </trkpt>
      <trkpt lat="44.60732" lon="3.972">
        <ele>880.22</ele>
        <time>2013-08-25T08:29:33Z</time>
      </trkpt>
      <trkpt lat="44.60734" lon="3.97167">
        <ele>877.34</ele>
        <time>2013-08-25T08:29:41Z</time>
      </trkpt>
      <trkpt lat="44.60724" lon="3.97153">
        <ele>875.9</ele>
        <time>2013-08-25T08:29:48Z</time>
      </trkpt>
      <trkpt lat="44.60723" lon="3.97149">
        <ele>876.38</ele>
        <time>2013-08-25T08:29:49Z</time>
      </trkpt>
      <trkpt lat="44.60723" lon="3.97146">
        <ele>875.9</ele>
        <time>2013-08-25T08:29:50Z</time>
      </trkpt>
      <trkpt lat="44.60724" lon="3.97143">
        <ele>876.38</ele>
        <time>2013-08-25T08:29:51Z</time>
      </trkpt>
      <trkpt lat="44.60724" lon="3.97139">
        <ele>876.38</ele>
        <time>2013-08-25T08:29:52Z</time>
      </trkpt>
      <trkpt lat="44.60731" lon="3.97122">
        <ele>877.34</ele>
        <time>2013-08-25T08:29:57Z</time>
      </trkpt>
      <trkpt lat="44.60732" lon="3.97118">
        <ele>877.34</ele>
        <time>2013-08-25T08:29:58Z</time>
      </trkpt>
      <trkpt lat="44.60732" lon="3.97113">
        <ele>877.34</ele>
        <time>2013-08-25T08:29:59Z</time>
      </trkpt>
      <trkpt lat="44.60731" lon="3.97101">
        <ele>875.9</ele>
        <time>2013-08-25T08:30:01Z</time>
      </trkpt>
      <trkpt lat="44.60729" lon="3.97082">
        <ele>874.94</ele>
        <time>2013-08-25T08:30:05Z</time>
      </trkpt>
      <trkpt lat="44.60727" lon="3.97079">
        <ele>873.98</ele>
        <time>2013-08-25T08:30:06Z</time>
      </trkpt>
      <trkpt lat="44.60725" lon="3.97076">
        <ele>873.5</ele>
        <time>2013-08-25T08:30:07Z</time>
      </trkpt>
      <trkpt lat="44.60725" lon="3.97073">
        <ele>873.01</ele>
        <time>2013-08-25T08:30:08Z</time>
      </trkpt>
      <trkpt lat="44.60725" lon="3.9707">
        <ele>872.53</ele>
        <time>2013-08-25T08:30:09Z</time>
      </trkpt>
      <trkpt lat="44.60727" lon="3.97067">
        <ele>871.09</ele>
        <time>2013-08-25T08:30:10Z</time>
      </trkpt>
      <trkpt lat="44.60728" lon="3.97065">
        <ele>870.61</ele>
        <time>2013-08-25T08:30:11Z</time>
      </trkpt>
      <trkpt lat="44.60729" lon="3.97062">
        <ele>869.65</ele>
        <time>2013-08-25T08:30:12Z</time>
      </trkpt>
      <trkpt lat="44.60729" lon="3.97059">
        <ele>869.17</ele>
        <time>2013-08-25T08:30:13Z</time>
      </trkpt>
      <trkpt lat="44.6073" lon="3.97057">
        <ele>868.21</ele>
        <time>2013-08-25T08:30:14Z</time>
      </trkpt>
      <trkpt lat="44.60731" lon="3.97055">
        <ele>867.25</ele>
        <time>2013-08-25T08:30:15Z</time>
      </trkpt>
      <trkpt lat="44.6073" lon="3.97053">
        <ele>867.25</ele>
        <time>2013-08-25T08:30:16Z</time>
      </trkpt>
      <trkpt lat="44.60728" lon="3.97051">
        <ele>866.29</ele>
        <time>2013-08-25T08:30:17Z</time>
      </trkpt>
      <trkpt lat="44.60714" lon="3.97051">
        <ele>862.92</ele>
        <time>2013-08-25T08:30:26Z</time>
      </trkpt>
      <trkpt lat="44.60696" lon="3.9705">
        <ele>861.48</ele>
        <time>2013-08-25T08:30:33Z</time>
      </trkpt>
      <trkpt lat="44.60695" lon="3.97046">
        <ele>860.52</ele>
        <time>2013-08-25T08:30:34Z</time>
      </trkpt>
      <trkpt lat="44.60694" lon="3.97041">
        <ele>859.56</ele>
        <time>2013-08-25T08:30:35Z</time>
      </trkpt>
      <trkpt lat="44.60693" lon="3.97005">
        <ele>856.19</ele>
        <time>2013-08-25T08:30:43Z</time>
      </trkpt>
      <trkpt lat="44.60694" lon="3.96995">
        <ele>854.75</ele>
        <time>2013-08-25T08:30:51Z</time>
      </trkpt>
      <trkpt lat="44.60693" lon="3.96994">
        <ele>854.75</ele>
        <time>2013-08-25T08:30:52Z</time>
      </trkpt>
      <trkpt lat="44.60692" lon="3.96994">
        <ele>854.75</ele>
        <time>2013-08-25T08:30:53Z</time>
      </trkpt>
      <trkpt lat="44.60683" lon="3.96994">
        <ele>854.75</ele>
        <time>2013-08-25T08:30:57Z</time>
      </trkpt>
      <trkpt lat="44.60681" lon="3.96995">
        <ele>854.75</ele>
        <time>2013-08-25T08:30:58Z</time>
      </trkpt>
      <trkpt lat="44.60679" lon="3.96996">
        <ele>854.75</ele>
        <time>2013-08-25T08:30:59Z</time>
      </trkpt>
      <trkpt lat="44.60677" lon="3.96998">
        <ele>854.75</ele>
        <time>2013-08-25T08:31:00Z</time>
      </trkpt>
      <trkpt lat="44.60676" lon="3.97">
        <ele>854.27</ele>
        <time>2013-08-25T08:31:11Z</time>
      </trkpt>
      <trkpt lat="44.60676" lon="3.97">
        <ele>852.83</ele>
        <time>2013-08-25T08:31:34Z</time>
      </trkpt>
      <trkpt lat="44.60676" lon="3.97">
        <ele>854.27</ele>
        <time>2013-08-25T08:32:04Z</time>
      </trkpt>
      <trkpt lat="44.60678" lon="3.97001">
        <ele>854.75</ele>
        <time>2013-08-25T08:32:32Z</time>
      </trkpt>
      <trkpt lat="44.60679" lon="3.97001">
        <ele>855.71</ele>
        <time>2013-08-25T08:33:10Z</time>
      </trkpt>
      <trkpt lat="44.60679" lon="3.97001">
        <ele>855.71</ele>
        <time>2013-08-25T08:33:41Z</time>
      </trkpt>
      <trkpt lat="44.60679" lon="3.97001">
        <ele>855.71</ele>
        <time>2013-08-25T08:34:21Z</time>
      </trkpt>
      <trkpt lat="44.6068" lon="3.97001">
        <ele>855.71</ele>
        <time>2013-08-25T08:34:47Z</time>
      </trkpt>
      <trkpt lat="44.6068" lon="3.97001">
        <ele>856.19</ele>
        <time>2013-08-25T08:35:21Z</time>
      </trkpt>
      <trkpt lat="44.6068" lon="3.97001">
        <ele>856.19</ele>
        <time>2013-08-25T08:35:57Z</time>
      </trkpt>
      <trkpt lat="44.60679" lon="3.96999">
        <ele>856.19</ele>
        <time>2013-08-25T08:36:23Z</time>
      </trkpt>
      <trkpt lat="44.60679" lon="3.96999">
        <ele>856.67</ele>
        <time>2013-08-25T08:36:53Z</time>
      </trkpt>
      <trkpt lat="44.60679" lon="3.96999">
        <ele>857.15</ele>
        <time>2013-08-25T08:37:18Z</time>
      </trkpt>
      <trkpt lat="44.60679" lon="3.96999">
        <ele>856.67</ele>
        <time>2013-08-25T08:37:36Z</time>
      </trkpt>
      <trkpt lat="44.60679" lon="3.97001">
        <ele>856.19</ele>
        <time>2013-08-25T08:37:37Z</time>
      </trkpt>
      <trkpt lat="44.60678" lon="3.97007">
        <ele>855.71</ele>
        <time>2013-08-25T08:37:39Z</time>
      </trkpt>
      <trkpt lat="44.60677" lon="3.97011">
        <ele>855.71</ele>
        <time>2013-08-25T08:37:41Z</time>
      </trkpt>
      <trkpt lat="44.60676" lon="3.97016">
        <ele>855.71</ele>
        <time>2013-08-25T08:37:43Z</time>
      </trkpt>
      <trkpt lat="44.60675" lon="3.9702">
        <ele>855.71</ele>
        <time>2013-08-25T08:37:44Z</time>
      </trkpt>
      <trkpt lat="44.60674" lon="3.97023">
        <ele>855.23</ele>
        <time>2013-08-25T08:37:45Z</time>
      </trkpt>
      <trkpt lat="44.60672" lon="3.97027">
        <ele>854.75</ele>
        <time>2013-08-25T08:37:46Z</time>
      </trkpt>
      <trkpt lat="44.60671" lon="3.9703">
        <ele>855.23</ele>
        <time>2013-08-25T08:37:47Z</time>
      </trkpt>
      <trkpt lat="44.60669" lon="3.97034">
        <ele>854.27</ele>
        <time>2013-08-25T08:37:48Z</time>
      </trkpt>
      <trkpt lat="44.60668" lon="3.97039">
        <ele>853.79</ele>
        <time>2013-08-25T08:37:49Z</time>
      </trkpt>
      <trkpt lat="44.60666" lon="3.97043">
        <ele>853.79</ele>
        <time>2013-08-25T08:37:50Z</time>
      </trkpt>
      <trkpt lat="44.60664" lon="3.97049">
        <ele>853.79</ele>
        <time>2013-08-25T08:37:51Z</time>
      </trkpt>
      <trkpt lat="44.60662" lon="3.97062">
        <ele>853.79</ele>
        <time>2013-08-25T08:37:59Z</time>
      </trkpt>
      <trkpt lat="44.60662" lon="3.97062">
        <ele>853.79</ele>
        <time>2013-08-25T08:38:21Z</time>
      </trkpt>
      <trkpt lat="44.60662" lon="3.97062">
        <ele>853.31</ele>
        <time>2013-08-25T08:38:36Z</time>
      </trkpt>
      <trkpt lat="44.60661" lon="3.97063">
        <ele>853.31</ele>
        <time>2013-08-25T08:38:37Z</time>
      </trkpt>
      <trkpt lat="44.6066" lon="3.97065">
        <ele>852.83</ele>
        <time>2013-08-25T08:38:38Z</time>
      </trkpt>
      <trkpt lat="44.6066" lon="3.97068">
        <ele>852.83</ele>
        <time>2013-08-25T08:38:39Z</time>
      </trkpt>
      <trkpt lat="44.60659" lon="3.97071">
        <ele>852.83</ele>
        <time>2013-08-25T08:38:40Z</time>
      </trkpt>
      <trkpt lat="44.60656" lon="3.97079">
        <ele>852.35</ele>
        <time>2013-08-25T08:38:45Z</time>
      </trkpt>
      <trkpt lat="44.60655" lon="3.9708">
        <ele>851.87</ele>
        <time>2013-08-25T08:38:46Z</time>
      </trkpt>
      <trkpt lat="44.60653" lon="3.9708">
        <ele>852.35</ele>
        <time>2013-08-25T08:38:47Z</time>
      </trkpt>
      <trkpt lat="44.60651" lon="3.9708">
        <ele>851.87</ele>
        <time>2013-08-25T08:38:48Z</time>
      </trkpt>
      <trkpt lat="44.60651" lon="3.9708">
        <ele>852.35</ele>
        <time>2013-08-25T08:39:01Z</time>
      </trkpt>
      <trkpt lat="44.60651" lon="3.9708">
        <ele>852.35</ele>
        <time>2013-08-25T08:39:22Z</time>
      </trkpt>
      <trkpt lat="44.60651" lon="3.9708">
        <ele>852.35</ele>
        <time>2013-08-25T08:39:46Z</time>
      </trkpt>
      <trkpt lat="44.60651" lon="3.9708">
        <ele>852.83</ele>
        <time>2013-08-25T08:40:07Z</time>
      </trkpt>
      <trkpt lat="44.60651" lon="3.97079">
        <ele>852.83</ele>
        <time>2013-08-25T08:40:32Z</time>
      </trkpt>
      <trkpt lat="44.60651" lon="3.9708">
        <ele>852.35</ele>
        <time>2013-08-25T08:40:56Z</time>
      </trkpt>
      <trkpt lat="44.60651" lon="3.9708">
        <ele>851.38</ele>
        <time>2013-08-25T08:41:20Z</time>
      </trkpt>
      <trkpt lat="44.60652" lon="3.9708">
        <ele>851.38</ele>
        <time>2013-08-25T08:41:49Z</time>
      </trkpt>
      <trkpt lat="44.60652" lon="3.9708">
        <ele>851.38</ele>
        <time>2013-08-25T08:42:18Z</time>
      </trkpt>
      <trkpt lat="44.60652" lon="3.9708">
        <ele>850.9</ele>
        <time>2013-08-25T08:42:43Z</time>
      </trkpt>
      <trkpt lat="44.60651" lon="3.97081">
        <ele>851.38</ele>
        <time>2013-08-25T08:42:50Z</time>
      </trkpt>
      <trkpt lat="44.6063" lon="3.97095">
        <ele>849.46</ele>
        <time>2013-08-25T08:42:58Z</time>
      </trkpt>
      <trkpt lat="44.60626" lon="3.97096">
        <ele>849.46</ele>
        <time>2013-08-25T08:42:59Z</time>
      </trkpt>
      <trkpt lat="44.60621" lon="3.97098">
        <ele>848.5</ele>
        <time>2013-08-25T08:43:00Z</time>
      </trkpt>
      <trkpt lat="44.60617" lon="3.97101">
        <ele>848.98</ele>
        <time>2013-08-25T08:43:01Z</time>
      </trkpt>
      <trkpt lat="44.60612" lon="3.97102">
        <ele>848.02</ele>
        <time>2013-08-25T08:43:02Z</time>
      </trkpt>
      <trkpt lat="44.60607" lon="3.97105">
        <ele>848.02</ele>
        <time>2013-08-25T08:43:03Z</time>
      </trkpt>
      <trkpt lat="44.60602" lon="3.97109">
        <ele>847.54</ele>
        <time>2013-08-25T08:43:04Z</time>
      </trkpt>
      <trkpt lat="44.60597" lon="3.97114">
        <ele>846.58</ele>
        <time>2013-08-25T08:43:05Z</time>
      </trkpt>
      <trkpt lat="44.60591" lon="3.97118">
        <ele>845.62</ele>
        <time>2013-08-25T08:43:06Z</time>
      </trkpt>
      <trkpt lat="44.60585" lon="3.97123">
        <ele>845.62</ele>
        <time>2013-08-25T08:43:07Z</time>
      </trkpt>
      <trkpt lat="44.60549" lon="3.97142">
        <ele>841.77</ele>
        <time>2013-08-25T08:43:12Z</time>
      </trkpt>
      <trkpt lat="44.60531" lon="3.97146">
        <ele>840.33</ele>
        <time>2013-08-25T08:43:14Z</time>
      </trkpt>
      <trkpt lat="44.60513" lon="3.9715">
        <ele>839.37</ele>
        <time>2013-08-25T08:43:16Z</time>
      </trkpt>
      <trkpt lat="44.60503" lon="3.97155">
        <ele>838.41</ele>
        <time>2013-08-25T08:43:17Z</time>
      </trkpt>
      <trkpt lat="44.60484" lon="3.97166">
        <ele>835.04</ele>
        <time>2013-08-25T08:43:19Z</time>
      </trkpt>
      <trkpt lat="44.60447" lon="3.97187">
        <ele>833.12</ele>
        <time>2013-08-25T08:43:24Z</time>
      </trkpt>
      <trkpt lat="44.6044" lon="3.97186">
        <ele>832.64</ele>
        <time>2013-08-25T08:43:25Z</time>
      </trkpt>
      <trkpt lat="44.60426" lon="3.97182">
        <ele>831.68</ele>
        <time>2013-08-25T08:43:27Z</time>
      </trkpt>
      <trkpt lat="44.60419" lon="3.97181">
        <ele>831.2</ele>
        <time>2013-08-25T08:43:28Z</time>
      </trkpt>
      <trkpt lat="44.60403" lon="3.97182">
        <ele>830.24</ele>
        <time>2013-08-25T08:43:30Z</time>
      </trkpt>
      <trkpt lat="44.60395" lon="3.97183">
        <ele>828.79</ele>
        <time>2013-08-25T08:43:31Z</time>
      </trkpt>
      <trkpt lat="44.60387" lon="3.97187">
        <ele>827.83</ele>
        <time>2013-08-25T08:43:32Z</time>
      </trkpt>
      <trkpt lat="44.60379" lon="3.97192">
        <ele>827.35</ele>
        <time>2013-08-25T08:43:33Z</time>
      </trkpt>
      <trkpt lat="44.60372" lon="3.972">
        <ele>825.43</ele>
        <time>2013-08-25T08:43:34Z</time>
      </trkpt>
      <trkpt lat="44.60365" lon="3.97208">
        <ele>824.95</ele>
        <time>2013-08-25T08:43:35Z</time>
      </trkpt>
      <trkpt lat="44.60359" lon="3.97216">
        <ele>824.47</ele>
        <time>2013-08-25T08:43:36Z</time>
      </trkpt>
      <trkpt lat="44.60352" lon="3.97221">
        <ele>823.99</ele>
        <time>2013-08-25T08:43:37Z</time>
      </trkpt>
      <trkpt lat="44.60344" lon="3.9722">
        <ele>823.03</ele>
        <time>2013-08-25T08:43:38Z</time>
      </trkpt>
      <trkpt lat="44.60336" lon="3.97217">
        <ele>823.03</ele>
        <time>2013-08-25T08:43:39Z</time>
      </trkpt>
      <trkpt lat="44.60328" lon="3.97216">
        <ele>822.55</ele>
        <time>2013-08-25T08:43:40Z</time>
      </trkpt>
      <trkpt lat="44.6032" lon="3.97219">
        <ele>822.06</ele>
        <time>2013-08-25T08:43:41Z</time>
      </trkpt>
      <trkpt lat="44.60311" lon="3.97224">
        <ele>821.1</ele>
        <time>2013-08-25T08:43:42Z</time>
      </trkpt>
      <trkpt lat="44.60302" lon="3.97229">
        <ele>819.66</ele>
        <time>2013-08-25T08:43:43Z</time>
      </trkpt>
      <trkpt lat="44.60274" lon="3.97246">
        <ele>816.78</ele>
        <time>2013-08-25T08:43:46Z</time>
      </trkpt>
      <trkpt lat="44.60265" lon="3.97256">
        <ele>816.3</ele>
        <time>2013-08-25T08:43:47Z</time>
      </trkpt>
      <trkpt lat="44.60259" lon="3.97268">
        <ele>815.34</ele>
        <time>2013-08-25T08:43:48Z</time>
      </trkpt>
      <trkpt lat="44.6024" lon="3.97304">
        <ele>812.93</ele>
        <time>2013-08-25T08:43:51Z</time>
      </trkpt>
      <trkpt lat="44.60224" lon="3.97325">
        <ele>811.01</ele>
        <time>2013-08-25T08:43:53Z</time>
      </trkpt>
      <trkpt lat="44.60218" lon="3.97338">
        <ele>809.57</ele>
        <time>2013-08-25T08:43:54Z</time>
      </trkpt>
      <trkpt lat="44.60214" lon="3.97352">
        <ele>809.09</ele>
        <time>2013-08-25T08:43:55Z</time>
      </trkpt>
      <trkpt lat="44.60207" lon="3.97379">
        <ele>808.13</ele>
        <time>2013-08-25T08:43:57Z</time>
      </trkpt>
      <trkpt lat="44.60201" lon="3.97388">
        <ele>807.64</ele>
        <time>2013-08-25T08:43:58Z</time>
      </trkpt>
      <trkpt lat="44.60192" lon="3.97405">
        <ele>807.64</ele>
        <time>2013-08-25T08:44:00Z</time>
      </trkpt>
      <trkpt lat="44.60189" lon="3.97413">
        <ele>807.16</ele>
        <time>2013-08-25T08:44:01Z</time>
      </trkpt>
      <trkpt lat="44.60189" lon="3.97422">
        <ele>806.68</ele>
        <time>2013-08-25T08:44:02Z</time>
      </trkpt>
      <trkpt lat="44.6019" lon="3.97443">
        <ele>804.76</ele>
        <time>2013-08-25T08:44:04Z</time>
      </trkpt>
      <trkpt lat="44.6019" lon="3.97453">
        <ele>803.8</ele>
        <time>2013-08-25T08:44:05Z</time>
      </trkpt>
      <trkpt lat="44.60188" lon="3.97462">
        <ele>803.32</ele>
        <time>2013-08-25T08:44:06Z</time>
      </trkpt>
      <trkpt lat="44.60183" lon="3.9747">
        <ele>801.88</ele>
        <time>2013-08-25T08:44:07Z</time>
      </trkpt>
      <trkpt lat="44.60176" lon="3.97476">
        <ele>800.92</ele>
        <time>2013-08-25T08:44:08Z</time>
      </trkpt>
      <trkpt lat="44.60169" lon="3.9748">
        <ele>800.44</ele>
        <time>2013-08-25T08:44:09Z</time>
      </trkpt>
      <trkpt lat="44.60161" lon="3.97484">
        <ele>799.47</ele>
        <time>2013-08-25T08:44:10Z</time>
      </trkpt>
      <trkpt lat="44.60154" lon="3.9749">
        <ele>798.99</ele>
        <time>2013-08-25T08:44:11Z</time>
      </trkpt>
      <trkpt lat="44.60147" lon="3.97499">
        <ele>798.51</ele>
        <time>2013-08-25T08:44:12Z</time>
      </trkpt>
      <trkpt lat="44.60141" lon="3.97508">
        <ele>797.55</ele>
        <time>2013-08-25T08:44:13Z</time>
      </trkpt>
      <trkpt lat="44.60117" lon="3.97548">
        <ele>794.19</ele>
        <time>2013-08-25T08:44:17Z</time>
      </trkpt>
      <trkpt lat="44.60111" lon="3.97557">
        <ele>794.19</ele>
        <time>2013-08-25T08:44:18Z</time>
      </trkpt>
      <trkpt lat="44.60091" lon="3.97586">
        <ele>791.3</ele>
        <time>2013-08-25T08:44:21Z</time>
      </trkpt>
      <trkpt lat="44.60085" lon="3.97598">
        <ele>790.82</ele>
        <time>2013-08-25T08:44:22Z</time>
      </trkpt>
      <trkpt lat="44.60068" lon="3.97648">
        <ele>786.98</ele>
        <time>2013-08-25T08:44:26Z</time>
      </trkpt>
      <trkpt lat="44.60064" lon="3.97661">
        <ele>786.98</ele>
        <time>2013-08-25T08:44:27Z</time>
      </trkpt>
      <trkpt lat="44.60057" lon="3.97688">
        <ele>784.09</ele>
        <time>2013-08-25T08:44:29Z</time>
      </trkpt>
      <trkpt lat="44.60054" lon="3.97702">
        <ele>784.09</ele>
        <time>2013-08-25T08:44:30Z</time>
      </trkpt>
      <trkpt lat="44.60054" lon="3.97714">
        <ele>784.57</ele>
        <time>2013-08-25T08:44:31Z</time>
      </trkpt>
      <trkpt lat="44.60054" lon="3.97724">
        <ele>785.05</ele>
        <time>2013-08-25T08:44:32Z</time>
      </trkpt>
      <trkpt lat="44.60054" lon="3.97733">
        <ele>784.57</ele>
        <time>2013-08-25T08:44:33Z</time>
      </trkpt>
      <trkpt lat="44.60051" lon="3.97737">
        <ele>784.57</ele>
        <time>2013-08-25T08:44:34Z</time>
      </trkpt>
      <trkpt lat="44.60047" lon="3.97737">
        <ele>783.13</ele>
        <time>2013-08-25T08:44:35Z</time>
      </trkpt>
      <trkpt lat="44.60045" lon="3.97731">
        <ele>782.65</ele>
        <time>2013-08-25T08:44:36Z</time>
      </trkpt>
      <trkpt lat="44.60045" lon="3.97723">
        <ele>782.17</ele>
        <time>2013-08-25T08:44:37Z</time>
      </trkpt>
      <trkpt lat="44.60046" lon="3.97715">
        <ele>782.17</ele>
        <time>2013-08-25T08:44:38Z</time>
      </trkpt>
      <trkpt lat="44.60047" lon="3.97707">
        <ele>782.17</ele>
        <time>2013-08-25T08:44:39Z</time>
      </trkpt>
      <trkpt lat="44.60048" lon="3.97699">
        <ele>781.69</ele>
        <time>2013-08-25T08:44:40Z</time>
      </trkpt>
      <trkpt lat="44.60052" lon="3.97661">
        <ele>778.81</ele>
        <time>2013-08-25T08:44:44Z</time>
      </trkpt>
      <trkpt lat="44.60055" lon="3.9764">
        <ele>777.84</ele>
        <time>2013-08-25T08:44:46Z</time>
      </trkpt>
      <trkpt lat="44.60057" lon="3.97629">
        <ele>777.36</ele>
        <time>2013-08-25T08:44:47Z</time>
      </trkpt>
      <trkpt lat="44.60058" lon="3.97617">
        <ele>776.88</ele>
        <time>2013-08-25T08:44:48Z</time>
      </trkpt>
      <trkpt lat="44.60069" lon="3.97571">
        <ele>774.48</ele>
        <time>2013-08-25T08:44:52Z</time>
      </trkpt>
      <trkpt lat="44.60072" lon="3.97561">
        <ele>774.48</ele>
        <time>2013-08-25T08:44:53Z</time>
      </trkpt>
      <trkpt lat="44.60082" lon="3.97541">
        <ele>773.52</ele>
        <time>2013-08-25T08:44:56Z</time>
      </trkpt>
      <trkpt lat="44.60085" lon="3.97537">
        <ele>773.04</ele>
        <time>2013-08-25T08:44:57Z</time>
      </trkpt>
      <trkpt lat="44.60089" lon="3.97532">
        <ele>772.56</ele>
        <time>2013-08-25T08:44:58Z</time>
      </trkpt>
      <trkpt lat="44.60092" lon="3.97527">
        <ele>772.56</ele>
        <time>2013-08-25T08:44:59Z</time>
      </trkpt>
      <trkpt lat="44.60093" lon="3.97521">
        <ele>772.56</ele>
        <time>2013-08-25T08:45:00Z</time>
      </trkpt>
      <trkpt lat="44.60095" lon="3.97517">
        <ele>772.56</ele>
        <time>2013-08-25T08:45:01Z</time>
      </trkpt>
      <trkpt lat="44.60096" lon="3.97513">
        <ele>772.08</ele>
        <time>2013-08-25T08:45:02Z</time>
      </trkpt>
      <trkpt lat="44.60097" lon="3.97511">
        <ele>772.56</ele>
        <time>2013-08-25T08:45:03Z</time>
      </trkpt>
      <trkpt lat="44.60098" lon="3.97509">
        <ele>772.56</ele>
        <time>2013-08-25T08:45:04Z</time>
      </trkpt>
      <trkpt lat="44.60099" lon="3.97507">
        <ele>772.08</ele>
        <time>2013-08-25T08:45:05Z</time>
      </trkpt>
      <trkpt lat="44.60101" lon="3.97506">
        <ele>772.08</ele>
        <time>2013-08-25T08:45:06Z</time>
      </trkpt>
      <trkpt lat="44.60102" lon="3.97505">
        <ele>771.6</ele>
        <time>2013-08-25T08:45:07Z</time>
      </trkpt>
      <trkpt lat="44.60102" lon="3.97503">
        <ele>771.6</ele>
        <time>2013-08-25T08:45:08Z</time>
      </trkpt>
      <trkpt lat="44.60102" lon="3.97501">
        <ele>771.6</ele>
        <time>2013-08-25T08:45:09Z</time>
      </trkpt>
      <trkpt lat="44.60103" lon="3.97497">
        <ele>771.11</ele>
        <time>2013-08-25T08:45:11Z</time>
      </trkpt>
      <trkpt lat="44.60103" lon="3.97495">
        <ele>771.6</ele>
        <time>2013-08-25T08:45:12Z</time>
      </trkpt>
      <trkpt lat="44.60104" lon="3.97492">
        <ele>770.63</ele>
        <time>2013-08-25T08:45:22Z</time>
      </trkpt>
      <trkpt lat="44.60105" lon="3.97491">
        <ele>769.67</ele>
        <time>2013-08-25T08:45:31Z</time>
      </trkpt>
      <trkpt lat="44.60106" lon="3.97488">
        <ele>770.15</ele>
        <time>2013-08-25T08:45:32Z</time>
      </trkpt>
      <trkpt lat="44.60116" lon="3.9747">
        <ele>767.27</ele>
        <time>2013-08-25T08:45:38Z</time>
      </trkpt>
      <trkpt lat="44.60127" lon="3.9745">
        <ele>763.9</ele>
        <time>2013-08-25T08:45:43Z</time>
      </trkpt>
      <trkpt lat="44.60128" lon="3.97445">
        <ele>763.9</ele>
        <time>2013-08-25T08:45:44Z</time>
      </trkpt>
      <trkpt lat="44.60135" lon="3.97413">
        <ele>760.54</ele>
        <time>2013-08-25T08:45:48Z</time>
      </trkpt>
      <trkpt lat="44.60143" lon="3.97371">
        <ele>759.1</ele>
        <time>2013-08-25T08:45:54Z</time>
      </trkpt>
      <trkpt lat="44.60133" lon="3.97382">
        <ele>757.66</ele>
        <time>2013-08-25T08:45:59Z</time>
      </trkpt>
      <trkpt lat="44.60132" lon="3.9739">
        <ele>757.18</ele>
        <time>2013-08-25T08:46:03Z</time>
      </trkpt>
      <trkpt lat="44.60132" lon="3.9739">
        <ele>756.69</ele>
        <time>2013-08-25T08:46:09Z</time>
      </trkpt>
      <trkpt lat="44.60138" lon="3.9738">
        <ele>758.14</ele>
        <time>2013-08-25T08:46:15Z</time>
      </trkpt>
      <trkpt lat="44.60138" lon="3.97376">
        <ele>758.14</ele>
        <time>2013-08-25T08:46:17Z</time>
      </trkpt>
      <trkpt lat="44.60143" lon="3.97343">
        <ele>757.18</ele>
        <time>2013-08-25T08:46:26Z</time>
      </trkpt>
      <trkpt lat="44.60144" lon="3.97337">
        <ele>756.69</ele>
        <time>2013-08-25T08:46:27Z</time>
      </trkpt>
      <trkpt lat="44.60146" lon="3.97331">
        <ele>756.69</ele>
        <time>2013-08-25T08:46:28Z</time>
      </trkpt>
      <trkpt lat="44.60149" lon="3.9732">
        <ele>756.21</ele>
        <time>2013-08-25T08:46:30Z</time>
      </trkpt>
      <trkpt lat="44.6015" lon="3.97314">
        <ele>756.21</ele>
        <time>2013-08-25T08:46:31Z</time>
      </trkpt>
      <trkpt lat="44.6015" lon="3.97308">
        <ele>756.21</ele>
        <time>2013-08-25T08:46:32Z</time>
      </trkpt>
      <trkpt lat="44.60149" lon="3.97302">
        <ele>756.21</ele>
        <time>2013-08-25T08:46:33Z</time>
      </trkpt>
      <trkpt lat="44.60147" lon="3.97298">
        <ele>756.21</ele>
        <time>2013-08-25T08:46:34Z</time>
      </trkpt>
      <trkpt lat="44.60145" lon="3.97295">
        <ele>756.21</ele>
        <time>2013-08-25T08:46:35Z</time>
      </trkpt>
      <trkpt lat="44.60143" lon="3.97293">
        <ele>756.69</ele>
        <time>2013-08-25T08:46:36Z</time>
      </trkpt>
      <trkpt lat="44.60116" lon="3.97291">
        <ele>757.18</ele>
        <time>2013-08-25T08:46:45Z</time>
      </trkpt>
      <trkpt lat="44.60095" lon="3.97315">
        <ele>758.14</ele>
        <time>2013-08-25T08:46:57Z</time>
      </trkpt>
      <trkpt lat="44.60078" lon="3.97347">
        <ele>760.54</ele>
        <time>2013-08-25T08:47:09Z</time>
      </trkpt>
      <trkpt lat="44.60058" lon="3.97373">
        <ele>760.54</ele>
        <time>2013-08-25T08:47:22Z</time>
      </trkpt>
      <trkpt lat="44.60053" lon="3.9738">
        <ele>761.5</ele>
        <time>2013-08-25T08:47:27Z</time>
      </trkpt>
      <trkpt lat="44.60053" lon="3.97382">
        <ele>761.02</ele>
        <time>2013-08-25T08:47:28Z</time>
      </trkpt>
      <trkpt lat="44.60052" lon="3.97385">
        <ele>760.06</ele>
        <time>2013-08-25T08:47:29Z</time>
      </trkpt>
      <trkpt lat="44.60051" lon="3.97388">
        <ele>758.62</ele>
        <time>2013-08-25T08:47:30Z</time>
      </trkpt>
      <trkpt lat="44.6005" lon="3.97391">
        <ele>757.66</ele>
        <time>2013-08-25T08:47:31Z</time>
      </trkpt>
      <trkpt lat="44.60051" lon="3.97396">
        <ele>757.18</ele>
        <time>2013-08-25T08:47:32Z</time>
      </trkpt>
      <trkpt lat="44.60051" lon="3.97401">
        <ele>755.25</ele>
        <time>2013-08-25T08:47:33Z</time>
      </trkpt>
      <trkpt lat="44.6005" lon="3.97407">
        <ele>754.29</ele>
        <time>2013-08-25T08:47:34Z</time>
      </trkpt>
      <trkpt lat="44.6005" lon="3.97413">
        <ele>753.33</ele>
        <time>2013-08-25T08:47:35Z</time>
      </trkpt>
      <trkpt lat="44.60049" lon="3.97419">
        <ele>752.37</ele>
        <time>2013-08-25T08:47:36Z</time>
      </trkpt>
      <trkpt lat="44.60048" lon="3.97423">
        <ele>751.41</ele>
        <time>2013-08-25T08:47:37Z</time>
      </trkpt>
      <trkpt lat="44.60044" lon="3.97427">
        <ele>750.45</ele>
        <time>2013-08-25T08:47:38Z</time>
      </trkpt>
      <trkpt lat="44.60036" lon="3.97434">
        <ele>749</ele>
        <time>2013-08-25T08:47:40Z</time>
      </trkpt>
      <trkpt lat="44.60032" lon="3.97436">
        <ele>748.04</ele>
        <time>2013-08-25T08:47:41Z</time>
      </trkpt>
      <trkpt lat="44.60028" lon="3.97439">
        <ele>747.08</ele>
        <time>2013-08-25T08:47:42Z</time>
      </trkpt>
      <trkpt lat="44.60024" lon="3.97442">
        <ele>746.12</ele>
        <time>2013-08-25T08:47:43Z</time>
      </trkpt>
      <trkpt lat="44.60019" lon="3.97444">
        <ele>745.64</ele>
        <time>2013-08-25T08:47:44Z</time>
      </trkpt>
      <trkpt lat="44.60015" lon="3.97447">
        <ele>745.16</ele>
        <time>2013-08-25T08:47:45Z</time>
      </trkpt>
      <trkpt lat="44.60012" lon="3.97449">
        <ele>745.16</ele>
        <time>2013-08-25T08:47:46Z</time>
      </trkpt>
      <trkpt lat="44.60009" lon="3.97449">
        <ele>745.64</ele>
        <time>2013-08-25T08:47:47Z</time>
      </trkpt>
      <trkpt lat="44.60007" lon="3.97449">
        <ele>745.64</ele>
        <time>2013-08-25T08:47:48Z</time>
      </trkpt>
      <trkpt lat="44.60004" lon="3.97449">
        <ele>745.16</ele>
        <time>2013-08-25T08:47:49Z</time>
      </trkpt>
      <trkpt lat="44.60001" lon="3.97449">
        <ele>744.68</ele>
        <time>2013-08-25T08:47:50Z</time>
      </trkpt>
      <trkpt lat="44.59999" lon="3.97451">
        <ele>744.2</ele>
        <time>2013-08-25T08:47:51Z</time>
      </trkpt>
      <trkpt lat="44.59996" lon="3.97452">
        <ele>743.24</ele>
        <time>2013-08-25T08:47:52Z</time>
      </trkpt>
      <trkpt lat="44.59993" lon="3.97456">
        <ele>742.76</ele>
        <time>2013-08-25T08:47:53Z</time>
      </trkpt>
      <trkpt lat="44.59989" lon="3.97459">
        <ele>742.76</ele>
        <time>2013-08-25T08:47:54Z</time>
      </trkpt>
      <trkpt lat="44.5997" lon="3.9749">
        <ele>744.68</ele>
        <time>2013-08-25T08:48:04Z</time>
      </trkpt>
      <trkpt lat="44.59963" lon="3.97516">
        <ele>746.12</ele>
        <time>2013-08-25T08:48:14Z</time>
      </trkpt>
      <trkpt lat="44.59963" lon="3.97517">
        <ele>746.6</ele>
        <time>2013-08-25T08:48:15Z</time>
      </trkpt>
      <trkpt lat="44.5996" lon="3.9752">
        <ele>747.08</ele>
        <time>2013-08-25T08:48:28Z</time>
      </trkpt>
      <trkpt lat="44.59955" lon="3.97525">
        <ele>749</ele>
        <time>2013-08-25T08:48:43Z</time>
      </trkpt>
      <trkpt lat="44.5995" lon="3.97532">
        <ele>750.45</ele>
        <time>2013-08-25T08:48:57Z</time>
      </trkpt>
      <trkpt lat="44.59935" lon="3.97544">
        <ele>750.93</ele>
        <time>2013-08-25T08:49:07Z</time>
      </trkpt>
      <trkpt lat="44.5992" lon="3.97545">
        <ele>751.89</ele>
        <time>2013-08-25T08:49:16Z</time>
      </trkpt>
      <trkpt lat="44.59914" lon="3.97542">
        <ele>753.33</ele>
        <time>2013-08-25T08:49:20Z</time>
      </trkpt>
      <trkpt lat="44.599" lon="3.97554">
        <ele>754.77</ele>
        <time>2013-08-25T08:49:30Z</time>
      </trkpt>
      <trkpt lat="44.59886" lon="3.97569">
        <ele>756.69</ele>
        <time>2013-08-25T08:49:43Z</time>
      </trkpt>
      <trkpt lat="44.59885" lon="3.9757">
        <ele>757.18</ele>
        <time>2013-08-25T08:49:44Z</time>
      </trkpt>
      <trkpt lat="44.59879" lon="3.97574">
        <ele>758.14</ele>
        <time>2013-08-25T08:49:49Z</time>
      </trkpt>
      <trkpt lat="44.5987" lon="3.97585">
        <ele>761.02</ele>
        <time>2013-08-25T08:49:59Z</time>
      </trkpt>
      <trkpt lat="44.59858" lon="3.97591">
        <ele>762.94</ele>
        <time>2013-08-25T08:50:07Z</time>
      </trkpt>
      <trkpt lat="44.59849" lon="3.97595">
        <ele>764.87</ele>
        <time>2013-08-25T08:50:13Z</time>
      </trkpt>
      <trkpt lat="44.59848" lon="3.97595">
        <ele>764.39</ele>
        <time>2013-08-25T08:50:14Z</time>
      </trkpt>
      <trkpt lat="44.59846" lon="3.97596">
        <ele>764.87</ele>
        <time>2013-08-25T08:50:15Z</time>
      </trkpt>
      <trkpt lat="44.59845" lon="3.97597">
        <ele>765.83</ele>
        <time>2013-08-25T08:50:16Z</time>
      </trkpt>
      <trkpt lat="44.59843" lon="3.97598">
        <ele>765.83</ele>
        <time>2013-08-25T08:50:17Z</time>
      </trkpt>
      <trkpt lat="44.59829" lon="3.97603">
        <ele>766.79</ele>
        <time>2013-08-25T08:50:26Z</time>
      </trkpt>
      <trkpt lat="44.59827" lon="3.97603">
        <ele>767.75</ele>
        <time>2013-08-25T08:50:27Z</time>
      </trkpt>
      <trkpt lat="44.59826" lon="3.97602">
        <ele>766.79</ele>
        <time>2013-08-25T08:50:28Z</time>
      </trkpt>
      <trkpt lat="44.5982" lon="3.97597">
        <ele>767.75</ele>
        <time>2013-08-25T08:50:33Z</time>
      </trkpt>
      <trkpt lat="44.59818" lon="3.97595">
        <ele>768.23</ele>
        <time>2013-08-25T08:50:35Z</time>
      </trkpt>
      <trkpt lat="44.59817" lon="3.97593">
        <ele>768.71</ele>
        <time>2013-08-25T08:50:36Z</time>
      </trkpt>
      <trkpt lat="44.59816" lon="3.97592">
        <ele>768.71</ele>
        <time>2013-08-25T08:50:37Z</time>
      </trkpt>
      <trkpt lat="44.59815" lon="3.97591">
        <ele>769.19</ele>
        <time>2013-08-25T08:50:38Z</time>
      </trkpt>
      <trkpt lat="44.59814" lon="3.9759">
        <ele>769.19</ele>
        <time>2013-08-25T08:50:39Z</time>
      </trkpt>
      <trkpt lat="44.59813" lon="3.97588">
        <ele>769.67</ele>
        <time>2013-08-25T08:50:40Z</time>
      </trkpt>
      <trkpt lat="44.59812" lon="3.97587">
        <ele>770.15</ele>
        <time>2013-08-25T08:50:41Z</time>
      </trkpt>
      <trkpt lat="44.59811" lon="3.97585">
        <ele>770.15</ele>
        <time>2013-08-25T08:50:42Z</time>
      </trkpt>
      <trkpt lat="44.5981" lon="3.97584">
        <ele>769.67</ele>
        <time>2013-08-25T08:50:43Z</time>
      </trkpt>
      <trkpt lat="44.59808" lon="3.97583">
        <ele>769.67</ele>
        <time>2013-08-25T08:50:44Z</time>
      </trkpt>
      <trkpt lat="44.59806" lon="3.97582">
        <ele>769.67</ele>
        <time>2013-08-25T08:50:45Z</time>
      </trkpt>
      <trkpt lat="44.59803" lon="3.97581">
        <ele>769.67</ele>
        <time>2013-08-25T08:50:46Z</time>
      </trkpt>
      <trkpt lat="44.59801" lon="3.97581">
        <ele>769.67</ele>
        <time>2013-08-25T08:50:47Z</time>
      </trkpt>
      <trkpt lat="44.59799" lon="3.9758">
        <ele>769.67</ele>
        <time>2013-08-25T08:50:48Z</time>
      </trkpt>
      <trkpt lat="44.59791" lon="3.97578">
        <ele>770.63</ele>
        <time>2013-08-25T08:50:53Z</time>
      </trkpt>
      <trkpt lat="44.5979" lon="3.97576">
        <ele>770.63</ele>
        <time>2013-08-25T08:50:54Z</time>
      </trkpt>
      <trkpt lat="44.59788" lon="3.97575">
        <ele>770.63</ele>
        <time>2013-08-25T08:50:55Z</time>
      </trkpt>
      <trkpt lat="44.59787" lon="3.97575">
        <ele>771.11</ele>
        <time>2013-08-25T08:50:56Z</time>
      </trkpt>
      <trkpt lat="44.59785" lon="3.97574">
        <ele>771.6</ele>
        <time>2013-08-25T08:50:57Z</time>
      </trkpt>
      <trkpt lat="44.59784" lon="3.97573">
        <ele>771.6</ele>
        <time>2013-08-25T08:50:58Z</time>
      </trkpt>
      <trkpt lat="44.59782" lon="3.97573">
        <ele>771.6</ele>
        <time>2013-08-25T08:50:59Z</time>
      </trkpt>
      <trkpt lat="44.59762" lon="3.97568">
        <ele>772.56</ele>
        <time>2013-08-25T08:51:11Z</time>
      </trkpt>
      <trkpt lat="44.5976" lon="3.97567">
        <ele>772.56</ele>
        <time>2013-08-25T08:51:12Z</time>
      </trkpt>
      <trkpt lat="44.59739" lon="3.97559">
        <ele>774.48</ele>
        <time>2013-08-25T08:51:25Z</time>
      </trkpt>
      <trkpt lat="44.59735" lon="3.97556">
        <ele>774.96</ele>
        <time>2013-08-25T08:51:28Z</time>
      </trkpt>
      <trkpt lat="44.59734" lon="3.97555">
        <ele>774.96</ele>
        <time>2013-08-25T08:51:29Z</time>
      </trkpt>
      <trkpt lat="44.5973" lon="3.97551">
        <ele>774.96</ele>
        <time>2013-08-25T08:51:32Z</time>
      </trkpt>
      <trkpt lat="44.59729" lon="3.9755">
        <ele>775.44</ele>
        <time>2013-08-25T08:51:33Z</time>
      </trkpt>
      <trkpt lat="44.59728" lon="3.97549">
        <ele>775.92</ele>
        <time>2013-08-25T08:51:34Z</time>
      </trkpt>
      <trkpt lat="44.59727" lon="3.97548">
        <ele>775.92</ele>
        <time>2013-08-25T08:51:35Z</time>
      </trkpt>
      <trkpt lat="44.59725" lon="3.97547">
        <ele>775.92</ele>
        <time>2013-08-25T08:51:36Z</time>
      </trkpt>
      <trkpt lat="44.59719" lon="3.97543">
        <ele>777.84</ele>
        <time>2013-08-25T08:51:45Z</time>
      </trkpt>
      <trkpt lat="44.59716" lon="3.97544">
        <ele>778.81</ele>
        <time>2013-08-25T08:51:47Z</time>
      </trkpt>
      <trkpt lat="44.59711" lon="3.97545">
        <ele>779.77</ele>
        <time>2013-08-25T08:51:52Z</time>
      </trkpt>
      <trkpt lat="44.59709" lon="3.97546">
        <ele>779.29</ele>
        <time>2013-08-25T08:51:53Z</time>
      </trkpt>
      <trkpt lat="44.59707" lon="3.97547">
        <ele>779.29</ele>
        <time>2013-08-25T08:51:54Z</time>
      </trkpt>
      <trkpt lat="44.59705" lon="3.97548">
        <ele>779.29</ele>
        <time>2013-08-25T08:51:55Z</time>
      </trkpt>
      <trkpt lat="44.59704" lon="3.97549">
        <ele>779.77</ele>
        <time>2013-08-25T08:51:56Z</time>
      </trkpt>
      <trkpt lat="44.59702" lon="3.97549">
        <ele>779.29</ele>
        <time>2013-08-25T08:51:57Z</time>
      </trkpt>
      <trkpt lat="44.59698" lon="3.9755">
        <ele>779.29</ele>
        <time>2013-08-25T08:51:59Z</time>
      </trkpt>
      <trkpt lat="44.59697" lon="3.9755">
        <ele>779.29</ele>
        <time>2013-08-25T08:52:00Z</time>
      </trkpt>
      <trkpt lat="44.59695" lon="3.9755">
        <ele>779.77</ele>
        <time>2013-08-25T08:52:01Z</time>
      </trkpt>
      <trkpt lat="44.59671" lon="3.97542">
        <ele>780.73</ele>
        <time>2013-08-25T08:52:14Z</time>
      </trkpt>
      <trkpt lat="44.59653" lon="3.97537">
        <ele>783.61</ele>
        <time>2013-08-25T08:52:26Z</time>
      </trkpt>
      <trkpt lat="44.59647" lon="3.9753">
        <ele>784.09</ele>
        <time>2013-08-25T08:52:38Z</time>
      </trkpt>
      <trkpt lat="44.59645" lon="3.97529">
        <ele>784.57</ele>
        <time>2013-08-25T08:52:40Z</time>
      </trkpt>
      <trkpt lat="44.59638" lon="3.97529">
        <ele>786.02</ele>
        <time>2013-08-25T08:52:50Z</time>
      </trkpt>
      <trkpt lat="44.59633" lon="3.97536">
        <ele>787.46</ele>
        <time>2013-08-25T08:53:01Z</time>
      </trkpt>
      <trkpt lat="44.59633" lon="3.97536">
        <ele>786.98</ele>
        <time>2013-08-25T08:53:27Z</time>
      </trkpt>
      <trkpt lat="44.5963" lon="3.97539">
        <ele>787.46</ele>
        <time>2013-08-25T08:53:41Z</time>
      </trkpt>
      <trkpt lat="44.59623" lon="3.97543">
        <ele>786.98</ele>
        <time>2013-08-25T08:53:45Z</time>
      </trkpt>
      <trkpt lat="44.59621" lon="3.97544">
        <ele>787.46</ele>
        <time>2013-08-25T08:53:46Z</time>
      </trkpt>
      <trkpt lat="44.59619" lon="3.97545">
        <ele>786.98</ele>
        <time>2013-08-25T08:53:47Z</time>
      </trkpt>
      <trkpt lat="44.59592" lon="3.97535">
        <ele>789.38</ele>
        <time>2013-08-25T08:54:02Z</time>
      </trkpt>
      <trkpt lat="44.59589" lon="3.97534">
        <ele>789.86</ele>
        <time>2013-08-25T08:54:04Z</time>
      </trkpt>
      <trkpt lat="44.59587" lon="3.97533">
        <ele>790.34</ele>
        <time>2013-08-25T08:54:05Z</time>
      </trkpt>
      <trkpt lat="44.59586" lon="3.97532">
        <ele>790.34</ele>
        <time>2013-08-25T08:54:06Z</time>
      </trkpt>
      <trkpt lat="44.59584" lon="3.97532">
        <ele>790.34</ele>
        <time>2013-08-25T08:54:07Z</time>
      </trkpt>
      <trkpt lat="44.59581" lon="3.97531">
        <ele>790.82</ele>
        <time>2013-08-25T08:54:08Z</time>
      </trkpt>
      <trkpt lat="44.59565" lon="3.97527">
        <ele>791.3</ele>
        <time>2013-08-25T08:54:16Z</time>
      </trkpt>
      <trkpt lat="44.59563" lon="3.97526">
        <ele>791.78</ele>
        <time>2013-08-25T08:54:17Z</time>
      </trkpt>
      <trkpt lat="44.59561" lon="3.97526">
        <ele>791.78</ele>
        <time>2013-08-25T08:54:18Z</time>
      </trkpt>
      <trkpt lat="44.59559" lon="3.97524">
        <ele>791.78</ele>
        <time>2013-08-25T08:54:19Z</time>
      </trkpt>
      <trkpt lat="44.59557" lon="3.97523">
        <ele>791.78</ele>
        <time>2013-08-25T08:54:20Z</time>
      </trkpt>
      <trkpt lat="44.59555" lon="3.97522">
        <ele>792.26</ele>
        <time>2013-08-25T08:54:21Z</time>
      </trkpt>
      <trkpt lat="44.59554" lon="3.97521">
        <ele>792.26</ele>
        <time>2013-08-25T08:54:22Z</time>
      </trkpt>
      <trkpt lat="44.59541" lon="3.97514">
        <ele>793.22</ele>
        <time>2013-08-25T08:54:30Z</time>
      </trkpt>
      <trkpt lat="44.59539" lon="3.97513">
        <ele>793.71</ele>
        <time>2013-08-25T08:54:31Z</time>
      </trkpt>
      <trkpt lat="44.59538" lon="3.97513">
        <ele>793.22</ele>
        <time>2013-08-25T08:54:32Z</time>
      </trkpt>
      <trkpt lat="44.59525" lon="3.97515">
        <ele>793.71</ele>
        <time>2013-08-25T08:54:39Z</time>
      </trkpt>
      <trkpt lat="44.59514" lon="3.97511">
        <ele>793.22</ele>
        <time>2013-08-25T08:54:45Z</time>
      </trkpt>
      <trkpt lat="44.59507" lon="3.97511">
        <ele>794.19</ele>
        <time>2013-08-25T08:54:56Z</time>
      </trkpt>
      <trkpt lat="44.59502" lon="3.9751">
        <ele>794.19</ele>
        <time>2013-08-25T08:55:00Z</time>
      </trkpt>
      <trkpt lat="44.59498" lon="3.97504">
        <ele>793.22</ele>
        <time>2013-08-25T08:55:08Z</time>
      </trkpt>
      <trkpt lat="44.59497" lon="3.97503">
        <ele>793.71</ele>
        <time>2013-08-25T08:55:09Z</time>
      </trkpt>
      <trkpt lat="44.59496" lon="3.97501">
        <ele>793.22</ele>
        <time>2013-08-25T08:55:10Z</time>
      </trkpt>
      <trkpt lat="44.59494" lon="3.97499">
        <ele>793.22</ele>
        <time>2013-08-25T08:55:11Z</time>
      </trkpt>
      <trkpt lat="44.59494" lon="3.97496">
        <ele>793.22</ele>
        <time>2013-08-25T08:55:12Z</time>
      </trkpt>
      <trkpt lat="44.59491" lon="3.97488">
        <ele>793.22</ele>
        <time>2013-08-25T08:55:16Z</time>
      </trkpt>
      <trkpt lat="44.59489" lon="3.97486">
        <ele>793.71</ele>
        <time>2013-08-25T08:55:18Z</time>
      </trkpt>
      <trkpt lat="44.59478" lon="3.97482">
        <ele>793.71</ele>
        <time>2013-08-25T08:55:24Z</time>
      </trkpt>
      <trkpt lat="44.59469" lon="3.97478">
        <ele>792.74</ele>
        <time>2013-08-25T08:55:29Z</time>
      </trkpt>
      <trkpt lat="44.59457" lon="3.97483">
        <ele>794.19</ele>
        <time>2013-08-25T08:55:35Z</time>
      </trkpt>
      <trkpt lat="44.59426" lon="3.97492">
        <ele>792.26</ele>
        <time>2013-08-25T08:55:45Z</time>
      </trkpt>
      <trkpt lat="44.59397" lon="3.97485">
        <ele>790.82</ele>
        <time>2013-08-25T08:55:54Z</time>
      </trkpt>
      <trkpt lat="44.59389" lon="3.97488">
        <ele>791.3</ele>
        <time>2013-08-25T08:56:01Z</time>
      </trkpt>
      <trkpt lat="44.59379" lon="3.97499">
        <ele>793.71</ele>
        <time>2013-08-25T08:56:12Z</time>
      </trkpt>
      <trkpt lat="44.59374" lon="3.97501">
        <ele>795.63</ele>
        <time>2013-08-25T08:56:25Z</time>
      </trkpt>
      <trkpt lat="44.59366" lon="3.97503">
        <ele>798.51</ele>
        <time>2013-08-25T08:56:38Z</time>
      </trkpt>
      <trkpt lat="44.59358" lon="3.97504">
        <ele>799.47</ele>
        <time>2013-08-25T08:56:48Z</time>
      </trkpt>
      <trkpt lat="44.59351" lon="3.97508">
        <ele>800.92</ele>
        <time>2013-08-25T08:57:02Z</time>
      </trkpt>
      <trkpt lat="44.59337" lon="3.97515">
        <ele>802.36</ele>
        <time>2013-08-25T08:57:12Z</time>
      </trkpt>
      <trkpt lat="44.59331" lon="3.97517">
        <ele>803.8</ele>
        <time>2013-08-25T08:57:16Z</time>
      </trkpt>
      <trkpt lat="44.59315" lon="3.9753">
        <ele>806.2</ele>
        <time>2013-08-25T08:57:26Z</time>
      </trkpt>
      <trkpt lat="44.593" lon="3.97536">
        <ele>807.16</ele>
        <time>2013-08-25T08:57:36Z</time>
      </trkpt>
      <trkpt lat="44.59282" lon="3.97533">
        <ele>807.64</ele>
        <time>2013-08-25T08:57:46Z</time>
      </trkpt>
      <trkpt lat="44.59276" lon="3.9753">
        <ele>808.61</ele>
        <time>2013-08-25T08:57:50Z</time>
      </trkpt>
      <trkpt lat="44.59272" lon="3.97527">
        <ele>809.09</ele>
        <time>2013-08-25T08:57:53Z</time>
      </trkpt>
      <trkpt lat="44.5926" lon="3.97519">
        <ele>810.53</ele>
        <time>2013-08-25T08:58:01Z</time>
      </trkpt>
      <trkpt lat="44.59255" lon="3.97513">
        <ele>811.49</ele>
        <time>2013-08-25T08:58:05Z</time>
      </trkpt>
      <trkpt lat="44.59252" lon="3.97508">
        <ele>812.45</ele>
        <time>2013-08-25T08:58:08Z</time>
      </trkpt>
      <trkpt lat="44.5925" lon="3.97505">
        <ele>812.45</ele>
        <time>2013-08-25T08:58:10Z</time>
      </trkpt>
      <trkpt lat="44.59244" lon="3.97494">
        <ele>812.93</ele>
        <time>2013-08-25T08:58:17Z</time>
      </trkpt>
      <trkpt lat="44.59234" lon="3.97471">
        <ele>815.82</ele>
        <time>2013-08-25T08:58:31Z</time>
      </trkpt>
      <trkpt lat="44.59224" lon="3.97461">
        <ele>818.22</ele>
        <time>2013-08-25T08:58:40Z</time>
      </trkpt>
      <trkpt lat="44.5922" lon="3.97459">
        <ele>819.18</ele>
        <time>2013-08-25T08:58:43Z</time>
      </trkpt>
      <trkpt lat="44.59211" lon="3.97448">
        <ele>820.62</ele>
        <time>2013-08-25T08:58:53Z</time>
      </trkpt>
      <trkpt lat="44.59206" lon="3.97427">
        <ele>823.99</ele>
        <time>2013-08-25T08:59:06Z</time>
      </trkpt>
      <trkpt lat="44.59205" lon="3.97423">
        <ele>824.95</ele>
        <time>2013-08-25T08:59:08Z</time>
      </trkpt>
      <trkpt lat="44.59204" lon="3.97407">
        <ele>826.87</ele>
        <time>2013-08-25T08:59:20Z</time>
      </trkpt>
      <trkpt lat="44.59203" lon="3.97405">
        <ele>826.39</ele>
        <time>2013-08-25T08:59:21Z</time>
      </trkpt>
      <trkpt lat="44.59199" lon="3.97405">
        <ele>826.39</ele>
        <time>2013-08-25T08:59:32Z</time>
      </trkpt>
      <trkpt lat="44.59199" lon="3.97405">
        <ele>826.39</ele>
        <time>2013-08-25T08:59:55Z</time>
      </trkpt>
      <trkpt lat="44.59199" lon="3.97405">
        <ele>826.39</ele>
        <time>2013-08-25T09:00:25Z</time>
      </trkpt>
      <trkpt lat="44.59199" lon="3.97405">
        <ele>826.39</ele>
        <time>2013-08-25T09:00:55Z</time>
      </trkpt>
      <trkpt lat="44.59199" lon="3.97405">
        <ele>826.87</ele>
        <time>2013-08-25T09:01:21Z</time>
      </trkpt>
      <trkpt lat="44.59199" lon="3.97405">
        <ele>827.35</ele>
        <time>2013-08-25T09:01:48Z</time>
      </trkpt>
      <trkpt lat="44.59198" lon="3.97404">
        <ele>827.83</ele>
        <time>2013-08-25T09:02:17Z</time>
      </trkpt>
      <trkpt lat="44.59197" lon="3.97398">
        <ele>827.35</ele>
        <time>2013-08-25T09:02:20Z</time>
      </trkpt>
      <trkpt lat="44.59193" lon="3.97388">
        <ele>826.39</ele>
        <time>2013-08-25T09:02:25Z</time>
      </trkpt>
      <trkpt lat="44.59192" lon="3.97382">
        <ele>826.39</ele>
        <time>2013-08-25T09:02:27Z</time>
      </trkpt>
      <trkpt lat="44.59157" lon="3.97368">
        <ele>824.95</ele>
        <time>2013-08-25T09:02:40Z</time>
      </trkpt>
      <trkpt lat="44.59142" lon="3.97349">
        <ele>822.55</ele>
        <time>2013-08-25T09:02:47Z</time>
      </trkpt>
      <trkpt lat="44.59139" lon="3.97345">
        <ele>821.1</ele>
        <time>2013-08-25T09:02:48Z</time>
      </trkpt>
      <trkpt lat="44.59124" lon="3.97326">
        <ele>819.18</ele>
        <time>2013-08-25T09:02:52Z</time>
      </trkpt>
      <trkpt lat="44.59116" lon="3.97316">
        <ele>819.18</ele>
        <time>2013-08-25T09:02:57Z</time>
      </trkpt>
      <trkpt lat="44.5911" lon="3.97312">
        <ele>816.78</ele>
        <time>2013-08-25T09:03:04Z</time>
      </trkpt>
      <trkpt lat="44.59107" lon="3.97307">
        <ele>817.26</ele>
        <time>2013-08-25T09:03:06Z</time>
      </trkpt>
      <trkpt lat="44.59106" lon="3.97305">
        <ele>817.26</ele>
        <time>2013-08-25T09:03:07Z</time>
      </trkpt>
      <trkpt lat="44.59104" lon="3.97303">
        <ele>816.78</ele>
        <time>2013-08-25T09:03:08Z</time>
      </trkpt>
      <trkpt lat="44.59102" lon="3.973">
        <ele>817.26</ele>
        <time>2013-08-25T09:03:09Z</time>
      </trkpt>
      <trkpt lat="44.591" lon="3.97298">
        <ele>817.26</ele>
        <time>2013-08-25T09:03:10Z</time>
      </trkpt>
      <trkpt lat="44.59098" lon="3.97295">
        <ele>816.78</ele>
        <time>2013-08-25T09:03:11Z</time>
      </trkpt>
      <trkpt lat="44.59097" lon="3.97293">
        <ele>817.26</ele>
        <time>2013-08-25T09:03:12Z</time>
      </trkpt>
      <trkpt lat="44.59095" lon="3.97291">
        <ele>816.78</ele>
        <time>2013-08-25T09:03:13Z</time>
      </trkpt>
      <trkpt lat="44.59064" lon="3.97264">
        <ele>817.74</ele>
        <time>2013-08-25T09:03:27Z</time>
      </trkpt>
      <trkpt lat="44.59054" lon="3.97254">
        <ele>817.26</ele>
        <time>2013-08-25T09:03:33Z</time>
      </trkpt>
      <trkpt lat="44.59053" lon="3.97254">
        <ele>817.74</ele>
        <time>2013-08-25T09:03:34Z</time>
      </trkpt>
      <trkpt lat="44.59051" lon="3.97253">
        <ele>817.26</ele>
        <time>2013-08-25T09:03:35Z</time>
      </trkpt>
      <trkpt lat="44.59049" lon="3.97253">
        <ele>817.74</ele>
        <time>2013-08-25T09:03:36Z</time>
      </trkpt>
      <trkpt lat="44.59047" lon="3.97253">
        <ele>817.74</ele>
        <time>2013-08-25T09:03:37Z</time>
      </trkpt>
      <trkpt lat="44.59036" lon="3.97249">
        <ele>814.37</ele>
        <time>2013-08-25T09:03:41Z</time>
      </trkpt>
      <trkpt lat="44.59021" lon="3.97242">
        <ele>811.01</ele>
        <time>2013-08-25T09:03:45Z</time>
      </trkpt>
      <trkpt lat="44.59007" lon="3.97235">
        <ele>807.64</ele>
        <time>2013-08-25T09:03:49Z</time>
      </trkpt>
      <trkpt lat="44.59002" lon="3.97234">
        <ele>806.68</ele>
        <time>2013-08-25T09:03:51Z</time>
      </trkpt>
      <trkpt lat="44.59" lon="3.97234">
        <ele>805.72</ele>
        <time>2013-08-25T09:03:52Z</time>
      </trkpt>
      <trkpt lat="44.58997" lon="3.97234">
        <ele>805.72</ele>
        <time>2013-08-25T09:03:53Z</time>
      </trkpt>
      <trkpt lat="44.58995" lon="3.97235">
        <ele>804.76</ele>
        <time>2013-08-25T09:03:54Z</time>
      </trkpt>
      <trkpt lat="44.58992" lon="3.97236">
        <ele>804.76</ele>
        <time>2013-08-25T09:03:55Z</time>
      </trkpt>
      <trkpt lat="44.58986" lon="3.97239">
        <ele>803.8</ele>
        <time>2013-08-25T09:03:57Z</time>
      </trkpt>
      <trkpt lat="44.58984" lon="3.97239">
        <ele>803.32</ele>
        <time>2013-08-25T09:03:58Z</time>
      </trkpt>
      <trkpt lat="44.58981" lon="3.97239">
        <ele>802.84</ele>
        <time>2013-08-25T09:03:59Z</time>
      </trkpt>
      <trkpt lat="44.58976" lon="3.9724">
        <ele>801.88</ele>
        <time>2013-08-25T09:04:01Z</time>
      </trkpt>
      <trkpt lat="44.58974" lon="3.9724">
        <ele>801.4</ele>
        <time>2013-08-25T09:04:02Z</time>
      </trkpt>
      <trkpt lat="44.58973" lon="3.97239">
        <ele>800.44</ele>
        <time>2013-08-25T09:04:03Z</time>
      </trkpt>
      <trkpt lat="44.58973" lon="3.97237">
        <ele>799.95</ele>
        <time>2013-08-25T09:04:04Z</time>
      </trkpt>
      <trkpt lat="44.58972" lon="3.97235">
        <ele>798.99</ele>
        <time>2013-08-25T09:04:05Z</time>
      </trkpt>
      <trkpt lat="44.5897" lon="3.97234">
        <ele>798.51</ele>
        <time>2013-08-25T09:04:06Z</time>
      </trkpt>
      <trkpt lat="44.58968" lon="3.97235">
        <ele>798.99</ele>
        <time>2013-08-25T09:04:07Z</time>
      </trkpt>
      <trkpt lat="44.58966" lon="3.97236">
        <ele>798.03</ele>
        <time>2013-08-25T09:04:08Z</time>
      </trkpt>
      <trkpt lat="44.58964" lon="3.97236">
        <ele>797.07</ele>
        <time>2013-08-25T09:04:09Z</time>
      </trkpt>
      <trkpt lat="44.58962" lon="3.97235">
        <ele>796.59</ele>
        <time>2013-08-25T09:04:10Z</time>
      </trkpt>
      <trkpt lat="44.5896" lon="3.97235">
        <ele>795.63</ele>
        <time>2013-08-25T09:04:11Z</time>
      </trkpt>
      <trkpt lat="44.58958" lon="3.97235">
        <ele>795.15</ele>
        <time>2013-08-25T09:04:12Z</time>
      </trkpt>
      <trkpt lat="44.58957" lon="3.97234">
        <ele>794.67</ele>
        <time>2013-08-25T09:04:13Z</time>
      </trkpt>
      <trkpt lat="44.58956" lon="3.97232">
        <ele>794.19</ele>
        <time>2013-08-25T09:04:14Z</time>
      </trkpt>
      <trkpt lat="44.58955" lon="3.97231">
        <ele>793.71</ele>
        <time>2013-08-25T09:04:15Z</time>
      </trkpt>
      <trkpt lat="44.58953" lon="3.9723">
        <ele>793.22</ele>
        <time>2013-08-25T09:04:16Z</time>
      </trkpt>
      <trkpt lat="44.58951" lon="3.9723">
        <ele>792.74</ele>
        <time>2013-08-25T09:04:17Z</time>
      </trkpt>
      <trkpt lat="44.58948" lon="3.9723">
        <ele>792.26</ele>
        <time>2013-08-25T09:04:18Z</time>
      </trkpt>
      <trkpt lat="44.58945" lon="3.9723">
        <ele>791.78</ele>
        <time>2013-08-25T09:04:19Z</time>
      </trkpt>
      <trkpt lat="44.58942" lon="3.97228">
        <ele>790.82</ele>
        <time>2013-08-25T09:04:20Z</time>
      </trkpt>
      <trkpt lat="44.58938" lon="3.97226">
        <ele>790.34</ele>
        <time>2013-08-25T09:04:21Z</time>
      </trkpt>
      <trkpt lat="44.58935" lon="3.97224">
        <ele>790.34</ele>
        <time>2013-08-25T09:04:22Z</time>
      </trkpt>
      <trkpt lat="44.58931" lon="3.97224">
        <ele>790.34</ele>
        <time>2013-08-25T09:04:23Z</time>
      </trkpt>
      <trkpt lat="44.58928" lon="3.97224">
        <ele>789.38</ele>
        <time>2013-08-25T09:04:24Z</time>
      </trkpt>
      <trkpt lat="44.58925" lon="3.97223">
        <ele>789.38</ele>
        <time>2013-08-25T09:04:25Z</time>
      </trkpt>
      <trkpt lat="44.58923" lon="3.97223">
        <ele>788.42</ele>
        <time>2013-08-25T09:04:26Z</time>
      </trkpt>
      <trkpt lat="44.58917" lon="3.97221">
        <ele>786.98</ele>
        <time>2013-08-25T09:04:29Z</time>
      </trkpt>
      <trkpt lat="44.58917" lon="3.97219">
        <ele>786.98</ele>
        <time>2013-08-25T09:04:30Z</time>
      </trkpt>
      <trkpt lat="44.58915" lon="3.97214">
        <ele>786.02</ele>
        <time>2013-08-25T09:04:32Z</time>
      </trkpt>
      <trkpt lat="44.58915" lon="3.97212">
        <ele>785.53</ele>
        <time>2013-08-25T09:04:33Z</time>
      </trkpt>
      <trkpt lat="44.58913" lon="3.9721">
        <ele>784.57</ele>
        <time>2013-08-25T09:04:39Z</time>
      </trkpt>
      <trkpt lat="44.58911" lon="3.97216">
        <ele>783.61</ele>
        <time>2013-08-25T09:04:43Z</time>
      </trkpt>
      <trkpt lat="44.58909" lon="3.97219">
        <ele>783.13</ele>
        <time>2013-08-25T09:04:45Z</time>
      </trkpt>
      <trkpt lat="44.58907" lon="3.97214">
        <ele>781.69</ele>
        <time>2013-08-25T09:04:49Z</time>
      </trkpt>
      <trkpt lat="44.58906" lon="3.9721">
        <ele>781.21</ele>
        <time>2013-08-25T09:04:51Z</time>
      </trkpt>
      <trkpt lat="44.58904" lon="3.97204">
        <ele>781.21</ele>
        <time>2013-08-25T09:04:55Z</time>
      </trkpt>
      <trkpt lat="44.58893" lon="3.97218">
        <ele>777.36</ele>
        <time>2013-08-25T09:05:03Z</time>
      </trkpt>
      <trkpt lat="44.58888" lon="3.97222">
        <ele>775.92</ele>
        <time>2013-08-25T09:05:06Z</time>
      </trkpt>
      <trkpt lat="44.58881" lon="3.97223">
        <ele>773.52</ele>
        <time>2013-08-25T09:05:10Z</time>
      </trkpt>
      <trkpt lat="44.58872" lon="3.9722">
        <ele>770.63</ele>
        <time>2013-08-25T09:05:15Z</time>
      </trkpt>
      <trkpt lat="44.58871" lon="3.97217">
        <ele>769.19</ele>
        <time>2013-08-25T09:05:16Z</time>
      </trkpt>
      <trkpt lat="44.58868" lon="3.97212">
        <ele>768.23</ele>
        <time>2013-08-25T09:05:18Z</time>
      </trkpt>
      <trkpt lat="44.58865" lon="3.97211">
        <ele>767.27</ele>
        <time>2013-08-25T09:05:20Z</time>
      </trkpt>
      <trkpt lat="44.58858" lon="3.97214">
        <ele>764.87</ele>
        <time>2013-08-25T09:05:23Z</time>
      </trkpt>
      <trkpt lat="44.58849" lon="3.97213">
        <ele>761.98</ele>
        <time>2013-08-25T09:05:29Z</time>
      </trkpt>
      <trkpt lat="44.58847" lon="3.97212">
        <ele>761.5</ele>
        <time>2013-08-25T09:05:31Z</time>
      </trkpt>
      <trkpt lat="44.5884" lon="3.9721">
        <ele>758.62</ele>
        <time>2013-08-25T09:05:35Z</time>
      </trkpt>
      <trkpt lat="44.58837" lon="3.9721">
        <ele>758.14</ele>
        <time>2013-08-25T09:05:37Z</time>
      </trkpt>
      <trkpt lat="44.58831" lon="3.97208">
        <ele>756.69</ele>
        <time>2013-08-25T09:05:40Z</time>
      </trkpt>
      <trkpt lat="44.58814" lon="3.97203">
        <ele>751.89</ele>
        <time>2013-08-25T09:05:48Z</time>
      </trkpt>
      <trkpt lat="44.58812" lon="3.97202">
        <ele>751.89</ele>
        <time>2013-08-25T09:05:49Z</time>
      </trkpt>
      <trkpt lat="44.58804" lon="3.97199">
        <ele>750.93</ele>
        <time>2013-08-25T09:05:52Z</time>
      </trkpt>
      <trkpt lat="44.58798" lon="3.97195">
        <ele>750.93</ele>
        <time>2013-08-25T09:05:55Z</time>
      </trkpt>
      <trkpt lat="44.58785" lon="3.97192">
        <ele>749</ele>
        <time>2013-08-25T09:06:01Z</time>
      </trkpt>
      <trkpt lat="44.58784" lon="3.97193">
        <ele>749</ele>
        <time>2013-08-25T09:06:02Z</time>
      </trkpt>
      <trkpt lat="44.58777" lon="3.9719">
        <ele>747.56</ele>
        <time>2013-08-25T09:06:05Z</time>
      </trkpt>
      <trkpt lat="44.58758" lon="3.97187">
        <ele>744.68</ele>
        <time>2013-08-25T09:06:13Z</time>
      </trkpt>
      <trkpt lat="44.58743" lon="3.97183">
        <ele>741.31</ele>
        <time>2013-08-25T09:06:20Z</time>
      </trkpt>
      <trkpt lat="44.5873" lon="3.97179">
        <ele>739.39</ele>
        <time>2013-08-25T09:06:25Z</time>
      </trkpt>
      <trkpt lat="44.58703" lon="3.97175">
        <ele>738.43</ele>
        <time>2013-08-25T09:06:37Z</time>
      </trkpt>
      <trkpt lat="44.58669" lon="3.9717">
        <ele>736.51</ele>
        <time>2013-08-25T09:06:51Z</time>
      </trkpt>
      <trkpt lat="44.58667" lon="3.97169">
        <ele>736.03</ele>
        <time>2013-08-25T09:06:58Z</time>
      </trkpt>
      <trkpt lat="44.58652" lon="3.97163">
        <ele>735.07</ele>
        <time>2013-08-25T09:07:06Z</time>
      </trkpt>
      <trkpt lat="44.58645" lon="3.97156">
        <ele>734.58</ele>
        <time>2013-08-25T09:07:12Z</time>
      </trkpt>
      <trkpt lat="44.58629" lon="3.97139">
        <ele>732.18</ele>
        <time>2013-08-25T09:07:22Z</time>
      </trkpt>
      <trkpt lat="44.58611" lon="3.97126">
        <ele>731.22</ele>
        <time>2013-08-25T09:07:32Z</time>
      </trkpt>
      <trkpt lat="44.58611" lon="3.97125">
        <ele>731.22</ele>
        <time>2013-08-25T09:07:50Z</time>
      </trkpt>
      <trkpt lat="44.58611" lon="3.97125">
        <ele>730.74</ele>
        <time>2013-08-25T09:08:04Z</time>
      </trkpt>
      <trkpt lat="44.586" lon="3.97113">
        <ele>728.82</ele>
        <time>2013-08-25T09:08:11Z</time>
      </trkpt>
      <trkpt lat="44.58589" lon="3.97101">
        <ele>726.89</ele>
        <time>2013-08-25T09:08:16Z</time>
      </trkpt>
      <trkpt lat="44.58582" lon="3.97094">
        <ele>724.97</ele>
        <time>2013-08-25T09:08:24Z</time>
      </trkpt>
      <trkpt lat="44.58582" lon="3.97094">
        <ele>724.97</ele>
        <time>2013-08-25T09:08:26Z</time>
      </trkpt>
      <trkpt lat="44.58575" lon="3.97098">
        <ele>723.05</ele>
        <time>2013-08-25T09:08:32Z</time>
      </trkpt>
      <trkpt lat="44.5857" lon="3.97087">
        <ele>719.68</ele>
        <time>2013-08-25T09:08:37Z</time>
      </trkpt>
      <trkpt lat="44.58571" lon="3.9707">
        <ele>717.28</ele>
        <time>2013-08-25T09:08:43Z</time>
      </trkpt>
      <trkpt lat="44.58567" lon="3.97066">
        <ele>716.32</ele>
        <time>2013-08-25T09:08:53Z</time>
      </trkpt>
      <trkpt lat="44.58567" lon="3.97068">
        <ele>715.84</ele>
        <time>2013-08-25T09:08:54Z</time>
      </trkpt>
      <trkpt lat="44.58561" lon="3.97077">
        <ele>713.92</ele>
        <time>2013-08-25T09:08:59Z</time>
      </trkpt>
      <trkpt lat="44.58558" lon="3.97083">
        <ele>712.47</ele>
        <time>2013-08-25T09:09:03Z</time>
      </trkpt>
      <trkpt lat="44.58554" lon="3.97088">
        <ele>711.03</ele>
        <time>2013-08-25T09:09:06Z</time>
      </trkpt>
      <trkpt lat="44.5855" lon="3.97096">
        <ele>709.59</ele>
        <time>2013-08-25T09:09:09Z</time>
      </trkpt>
      <trkpt lat="44.58545" lon="3.97108">
        <ele>707.67</ele>
        <time>2013-08-25T09:09:13Z</time>
      </trkpt>
      <trkpt lat="44.58542" lon="3.97114">
        <ele>706.71</ele>
        <time>2013-08-25T09:09:15Z</time>
      </trkpt>
      <trkpt lat="44.5854" lon="3.97119">
        <ele>705.75</ele>
        <time>2013-08-25T09:09:17Z</time>
      </trkpt>
      <trkpt lat="44.58537" lon="3.97131">
        <ele>702.86</ele>
        <time>2013-08-25T09:09:22Z</time>
      </trkpt>
      <trkpt lat="44.58537" lon="3.97134">
        <ele>701.9</ele>
        <time>2013-08-25T09:09:23Z</time>
      </trkpt>
      <trkpt lat="44.58535" lon="3.9714">
        <ele>700.94</ele>
        <time>2013-08-25T09:09:25Z</time>
      </trkpt>
      <trkpt lat="44.58534" lon="3.97145">
        <ele>699.5</ele>
        <time>2013-08-25T09:09:27Z</time>
      </trkpt>
      <trkpt lat="44.58534" lon="3.97147">
        <ele>699.02</ele>
        <time>2013-08-25T09:09:28Z</time>
      </trkpt>
      <trkpt lat="44.58532" lon="3.97153">
        <ele>697.57</ele>
        <time>2013-08-25T09:09:31Z</time>
      </trkpt>
      <trkpt lat="44.58528" lon="3.97159">
        <ele>694.21</ele>
        <time>2013-08-25T09:09:36Z</time>
      </trkpt>
      <trkpt lat="44.5852" lon="3.97178">
        <ele>690.36</ele>
        <time>2013-08-25T09:09:42Z</time>
      </trkpt>
      <trkpt lat="44.58519" lon="3.9718">
        <ele>689.88</ele>
        <time>2013-08-25T09:09:43Z</time>
      </trkpt>
      <trkpt lat="44.58518" lon="3.97185">
        <ele>688.92</ele>
        <time>2013-08-25T09:09:45Z</time>
      </trkpt>
      <trkpt lat="44.58511" lon="3.97189">
        <ele>686.04</ele>
        <time>2013-08-25T09:09:50Z</time>
      </trkpt>
      <trkpt lat="44.58505" lon="3.97182">
        <ele>683.15</ele>
        <time>2013-08-25T09:09:54Z</time>
      </trkpt>
      <trkpt lat="44.58497" lon="3.97173">
        <ele>681.23</ele>
        <time>2013-08-25T09:09:59Z</time>
      </trkpt>
      <trkpt lat="44.5849" lon="3.9716">
        <ele>677.87</ele>
        <time>2013-08-25T09:10:07Z</time>
      </trkpt>
      <trkpt lat="44.58488" lon="3.97142">
        <ele>674.02</ele>
        <time>2013-08-25T09:10:14Z</time>
      </trkpt>
      <trkpt lat="44.58488" lon="3.97133">
        <ele>673.54</ele>
        <time>2013-08-25T09:10:16Z</time>
      </trkpt>
      <trkpt lat="44.58474" lon="3.97124">
        <ele>673.54</ele>
        <time>2013-08-25T09:10:24Z</time>
      </trkpt>
      <trkpt lat="44.58468" lon="3.97124">
        <ele>672.58</ele>
        <time>2013-08-25T09:10:34Z</time>
      </trkpt>
      <trkpt lat="44.58468" lon="3.97124">
        <ele>672.1</ele>
        <time>2013-08-25T09:10:47Z</time>
      </trkpt>
      <trkpt lat="44.58468" lon="3.97124">
        <ele>672.1</ele>
        <time>2013-08-25T09:11:06Z</time>
      </trkpt>
      <trkpt lat="44.58468" lon="3.97124">
        <ele>667.77</ele>
        <time>2013-08-25T09:11:28Z</time>
      </trkpt>
      <trkpt lat="44.58468" lon="3.97124">
        <ele>672.58</ele>
        <time>2013-08-25T09:11:29Z</time>
      </trkpt>
      <trkpt lat="44.58468" lon="3.97124">
        <ele>669.22</ele>
        <time>2013-08-25T09:11:31Z</time>
      </trkpt>
      <trkpt lat="44.58468" lon="3.97124">
        <ele>674.98</ele>
        <time>2013-08-25T09:11:32Z</time>
      </trkpt>
      <trkpt lat="44.58468" lon="3.97124">
        <ele>669.7</ele>
        <time>2013-08-25T09:11:33Z</time>
      </trkpt>
      <trkpt lat="44.58468" lon="3.97124">
        <ele>674.98</ele>
        <time>2013-08-25T09:11:34Z</time>
      </trkpt>
      <trkpt lat="44.58468" lon="3.97124">
        <ele>672.58</ele>
        <time>2013-08-25T09:11:37Z</time>
      </trkpt>
      <trkpt lat="44.58469" lon="3.97124">
        <ele>671.62</ele>
        <time>2013-08-25T09:12:07Z</time>
      </trkpt>
      <trkpt lat="44.58469" lon="3.97124">
        <ele>671.62</ele>
        <time>2013-08-25T09:12:30Z</time>
      </trkpt>
      <trkpt lat="44.58469" lon="3.97124">
        <ele>672.1</ele>
        <time>2013-08-25T09:12:58Z</time>
      </trkpt>
      <trkpt lat="44.58468" lon="3.97124">
        <ele>671.62</ele>
        <time>2013-08-25T09:13:31Z</time>
      </trkpt>
      <trkpt lat="44.58468" lon="3.97124">
        <ele>672.58</ele>
        <time>2013-08-25T09:14:00Z</time>
      </trkpt>
      <trkpt lat="44.58468" lon="3.97123">
        <ele>672.58</ele>
        <time>2013-08-25T09:14:33Z</time>
      </trkpt>
      <trkpt lat="44.58468" lon="3.97123">
        <ele>672.58</ele>
        <time>2013-08-25T09:15:06Z</time>
      </trkpt>
      <trkpt lat="44.58467" lon="3.97123">
        <ele>673.06</ele>
        <time>2013-08-25T09:15:40Z</time>
      </trkpt>
      <trkpt lat="44.58467" lon="3.97122">
        <ele>672.58</ele>
        <time>2013-08-25T09:16:15Z</time>
      </trkpt>
      <trkpt lat="44.58467" lon="3.97122">
        <ele>673.06</ele>
        <time>2013-08-25T09:16:46Z</time>
      </trkpt>
      <trkpt lat="44.58467" lon="3.97122">
        <ele>672.58</ele>
        <time>2013-08-25T09:17:21Z</time>
      </trkpt>
      <trkpt lat="44.58467" lon="3.97122">
        <ele>673.06</ele>
        <time>2013-08-25T09:17:51Z</time>
      </trkpt>
      <trkpt lat="44.58467" lon="3.97122">
        <ele>672.58</ele>
        <time>2013-08-25T09:18:26Z</time>
      </trkpt>
      <trkpt lat="44.58467" lon="3.97123">
        <ele>672.58</ele>
        <time>2013-08-25T09:19:03Z</time>
      </trkpt>
      <trkpt lat="44.58464" lon="3.9712">
        <ele>673.06</ele>
        <time>2013-08-25T09:19:17Z</time>
      </trkpt>
      <trkpt lat="44.5846" lon="3.97109">
        <ele>675.46</ele>
        <time>2013-08-25T09:19:30Z</time>
      </trkpt>
      <trkpt lat="44.58459" lon="3.97102">
        <ele>676.91</ele>
        <time>2013-08-25T09:19:40Z</time>
      </trkpt>
      <trkpt lat="44.58457" lon="3.97103">
        <ele>678.35</ele>
        <time>2013-08-25T09:19:49Z</time>
      </trkpt>
      <trkpt lat="44.58457" lon="3.97106">
        <ele>680.27</ele>
        <time>2013-08-25T09:19:59Z</time>
      </trkpt>
      <trkpt lat="44.58455" lon="3.97104">
        <ele>682.19</ele>
        <time>2013-08-25T09:20:10Z</time>
      </trkpt>
      <trkpt lat="44.5845" lon="3.97095">
        <ele>683.63</ele>
        <time>2013-08-25T09:20:21Z</time>
      </trkpt>
      <trkpt lat="44.58448" lon="3.97088">
        <ele>685.56</ele>
        <time>2013-08-25T09:20:35Z</time>
      </trkpt>
      <trkpt lat="44.58449" lon="3.97074">
        <ele>686.04</ele>
        <time>2013-08-25T09:20:48Z</time>
      </trkpt>
      <trkpt lat="44.5845" lon="3.97056">
        <ele>688.44</ele>
        <time>2013-08-25T09:21:01Z</time>
      </trkpt>
      <trkpt lat="44.58453" lon="3.97043">
        <ele>691.33</ele>
        <time>2013-08-25T09:21:14Z</time>
      </trkpt>
      <trkpt lat="44.58454" lon="3.97041">
        <ele>691.81</ele>
        <time>2013-08-25T09:21:16Z</time>
      </trkpt>
      <trkpt lat="44.58453" lon="3.97033">
        <ele>694.21</ele>
        <time>2013-08-25T09:21:29Z</time>
      </trkpt>
      <trkpt lat="44.58452" lon="3.97025">
        <ele>696.61</ele>
        <time>2013-08-25T09:21:43Z</time>
      </trkpt>
      <trkpt lat="44.58446" lon="3.97022">
        <ele>699.5</ele>
        <time>2013-08-25T09:21:54Z</time>
      </trkpt>
      <trkpt lat="44.58443" lon="3.97017">
        <ele>701.42</ele>
        <time>2013-08-25T09:22:06Z</time>
      </trkpt>
      <trkpt lat="44.5844" lon="3.97007">
        <ele>702.86</ele>
        <time>2013-08-25T09:22:17Z</time>
      </trkpt>
      <trkpt lat="44.58441" lon="3.96986">
        <ele>704.78</ele>
        <time>2013-08-25T09:22:31Z</time>
      </trkpt>
      <trkpt lat="44.58445" lon="3.96971">
        <ele>707.19</ele>
        <time>2013-08-25T09:22:44Z</time>
      </trkpt>
      <trkpt lat="44.58446" lon="3.96955">
        <ele>709.59</ele>
        <time>2013-08-25T09:22:58Z</time>
      </trkpt>
      <trkpt lat="44.58447" lon="3.96951">
        <ele>710.55</ele>
        <time>2013-08-25T09:23:02Z</time>
      </trkpt>
      <trkpt lat="44.58451" lon="3.96937">
        <ele>711.99</ele>
        <time>2013-08-25T09:23:16Z</time>
      </trkpt>
      <trkpt lat="44.58453" lon="3.9693">
        <ele>713.44</ele>
        <time>2013-08-25T09:23:24Z</time>
      </trkpt>
      <trkpt lat="44.58452" lon="3.96927">
        <ele>713.92</ele>
        <time>2013-08-25T09:23:35Z</time>
      </trkpt>
      <trkpt lat="44.58443" lon="3.9693">
        <ele>715.84</ele>
        <time>2013-08-25T09:23:49Z</time>
      </trkpt>
      <trkpt lat="44.58434" lon="3.96932">
        <ele>717.28</ele>
        <time>2013-08-25T09:24:01Z</time>
      </trkpt>
      <trkpt lat="44.58425" lon="3.96937">
        <ele>719.68</ele>
        <time>2013-08-25T09:24:15Z</time>
      </trkpt>
      <trkpt lat="44.58417" lon="3.96938">
        <ele>722.09</ele>
        <time>2013-08-25T09:24:28Z</time>
      </trkpt>
      <trkpt lat="44.58411" lon="3.96941">
        <ele>724.01</ele>
        <time>2013-08-25T09:24:42Z</time>
      </trkpt>
      <trkpt lat="44.58406" lon="3.9694">
        <ele>725.93</ele>
        <time>2013-08-25T09:24:55Z</time>
      </trkpt>
      <trkpt lat="44.58408" lon="3.96928">
        <ele>728.34</ele>
        <time>2013-08-25T09:25:08Z</time>
      </trkpt>
      <trkpt lat="44.58412" lon="3.96913">
        <ele>730.74</ele>
        <time>2013-08-25T09:25:23Z</time>
      </trkpt>
      <trkpt lat="44.58411" lon="3.96901">
        <ele>733.62</ele>
        <time>2013-08-25T09:25:34Z</time>
      </trkpt>
      <trkpt lat="44.58408" lon="3.96895">
        <ele>734.1</ele>
        <time>2013-08-25T09:25:41Z</time>
      </trkpt>
      <trkpt lat="44.58405" lon="3.96892">
        <ele>735.07</ele>
        <time>2013-08-25T09:25:45Z</time>
      </trkpt>
      <trkpt lat="44.58402" lon="3.9689">
        <ele>735.55</ele>
        <time>2013-08-25T09:25:48Z</time>
      </trkpt>
      <trkpt lat="44.58393" lon="3.96887">
        <ele>736.03</ele>
        <time>2013-08-25T09:25:59Z</time>
      </trkpt>
      <trkpt lat="44.58381" lon="3.96876">
        <ele>738.43</ele>
        <time>2013-08-25T09:26:16Z</time>
      </trkpt>
      <trkpt lat="44.58379" lon="3.96873">
        <ele>738.91</ele>
        <time>2013-08-25T09:26:19Z</time>
      </trkpt>
      <trkpt lat="44.58371" lon="3.96867">
        <ele>740.35</ele>
        <time>2013-08-25T09:26:30Z</time>
      </trkpt>
      <trkpt lat="44.58358" lon="3.96863">
        <ele>740.35</ele>
        <time>2013-08-25T09:26:44Z</time>
      </trkpt>
      <trkpt lat="44.58352" lon="3.96857">
        <ele>740.35</ele>
        <time>2013-08-25T09:26:56Z</time>
      </trkpt>
      <trkpt lat="44.58334" lon="3.96838">
        <ele>738.91</ele>
        <time>2013-08-25T09:27:08Z</time>
      </trkpt>
      <trkpt lat="44.58321" lon="3.96825">
        <ele>737.95</ele>
        <time>2013-08-25T09:27:12Z</time>
      </trkpt>
      <trkpt lat="44.58319" lon="3.96824">
        <ele>738.43</ele>
        <time>2013-08-25T09:27:13Z</time>
      </trkpt>
      <trkpt lat="44.58316" lon="3.96819">
        <ele>738.91</ele>
        <time>2013-08-25T09:27:16Z</time>
      </trkpt>
      <trkpt lat="44.58316" lon="3.96817">
        <ele>738.91</ele>
        <time>2013-08-25T09:27:27Z</time>
      </trkpt>
      <trkpt lat="44.58316" lon="3.96817">
        <ele>739.39</ele>
        <time>2013-08-25T09:27:56Z</time>
      </trkpt>
      <trkpt lat="44.58316" lon="3.96817">
        <ele>737.47</ele>
        <time>2013-08-25T09:27:59Z</time>
      </trkpt>
      <trkpt lat="44.58316" lon="3.96817">
        <ele>738.43</ele>
        <time>2013-08-25T09:28:01Z</time>
      </trkpt>
      <trkpt lat="44.58316" lon="3.96817">
        <ele>737.95</ele>
        <time>2013-08-25T09:28:13Z</time>
      </trkpt>
      <trkpt lat="44.58316" lon="3.96817">
        <ele>738.91</ele>
        <time>2013-08-25T09:28:35Z</time>
      </trkpt>
      <trkpt lat="44.58315" lon="3.96817">
        <ele>738.91</ele>
        <time>2013-08-25T09:28:51Z</time>
      </trkpt>
      <trkpt lat="44.58316" lon="3.96816">
        <ele>738.43</ele>
        <time>2013-08-25T09:29:13Z</time>
      </trkpt>
      <trkpt lat="44.58316" lon="3.96816">
        <ele>735.07</ele>
        <time>2013-08-25T09:29:28Z</time>
      </trkpt>
      <trkpt lat="44.58316" lon="3.96816">
        <ele>738.91</ele>
        <time>2013-08-25T09:29:29Z</time>
      </trkpt>
      <trkpt lat="44.58316" lon="3.96815">
        <ele>738.43</ele>
        <time>2013-08-25T09:29:57Z</time>
      </trkpt>
      <trkpt lat="44.58316" lon="3.96815">
        <ele>741.79</ele>
        <time>2013-08-25T09:30:01Z</time>
      </trkpt>
      <trkpt lat="44.58316" lon="3.96815">
        <ele>738.43</ele>
        <time>2013-08-25T09:30:02Z</time>
      </trkpt>
      <trkpt lat="44.58316" lon="3.96815">
        <ele>741.79</ele>
        <time>2013-08-25T09:30:03Z</time>
      </trkpt>
      <trkpt lat="44.58316" lon="3.96815">
        <ele>737.47</ele>
        <time>2013-08-25T09:30:04Z</time>
      </trkpt>
      <trkpt lat="44.58316" lon="3.96815">
        <ele>736.51</ele>
        <time>2013-08-25T09:30:06Z</time>
      </trkpt>
      <trkpt lat="44.58316" lon="3.96815">
        <ele>737.95</ele>
        <time>2013-08-25T09:30:08Z</time>
      </trkpt>
      <trkpt lat="44.58316" lon="3.96815">
        <ele>744.2</ele>
        <time>2013-08-25T09:30:24Z</time>
      </trkpt>
      <trkpt lat="44.58316" lon="3.96815">
        <ele>732.66</ele>
        <time>2013-08-25T09:30:25Z</time>
      </trkpt>
      <trkpt lat="44.58316" lon="3.96815">
        <ele>739.39</ele>
        <time>2013-08-25T09:30:26Z</time>
      </trkpt>
      <trkpt lat="44.58316" lon="3.96815">
        <ele>745.16</ele>
        <time>2013-08-25T09:30:28Z</time>
      </trkpt>
      <trkpt lat="44.58316" lon="3.96815">
        <ele>735.55</ele>
        <time>2013-08-25T09:30:29Z</time>
      </trkpt>
      <trkpt lat="44.58316" lon="3.96815">
        <ele>739.87</ele>
        <time>2013-08-25T09:30:30Z</time>
      </trkpt>
      <trkpt lat="44.58316" lon="3.96815">
        <ele>732.66</ele>
        <time>2013-08-25T09:30:32Z</time>
      </trkpt>
      <trkpt lat="44.58316" lon="3.96815">
        <ele>738.91</ele>
        <time>2013-08-25T09:30:33Z</time>
      </trkpt>
      <trkpt lat="44.58316" lon="3.96815">
        <ele>744.2</ele>
        <time>2013-08-25T09:30:34Z</time>
      </trkpt>
      <trkpt lat="44.58316" lon="3.96815">
        <ele>738.43</ele>
        <time>2013-08-25T09:30:35Z</time>
      </trkpt>
      <trkpt lat="44.58316" lon="3.96815">
        <ele>742.28</ele>
        <time>2013-08-25T09:30:36Z</time>
      </trkpt>
      <trkpt lat="44.58316" lon="3.96815">
        <ele>736.51</ele>
        <time>2013-08-25T09:30:37Z</time>
      </trkpt>
      <trkpt lat="44.58315" lon="3.96814">
        <ele>738.43</ele>
        <time>2013-08-25T09:31:10Z</time>
      </trkpt>
      <trkpt lat="44.58315" lon="3.96813">
        <ele>738.43</ele>
        <time>2013-08-25T09:31:40Z</time>
      </trkpt>
      <trkpt lat="44.58315" lon="3.96813">
        <ele>737.95</ele>
        <time>2013-08-25T09:32:10Z</time>
      </trkpt>
      <trkpt lat="44.58314" lon="3.9681">
        <ele>737.95</ele>
        <time>2013-08-25T09:32:37Z</time>
      </trkpt>
      <trkpt lat="44.58313" lon="3.96807">
        <ele>736.99</ele>
        <time>2013-08-25T09:32:38Z</time>
      </trkpt>
      <trkpt lat="44.58311" lon="3.96805">
        <ele>736.99</ele>
        <time>2013-08-25T09:32:39Z</time>
      </trkpt>
      <trkpt lat="44.5831" lon="3.96802">
        <ele>737.47</ele>
        <time>2013-08-25T09:32:40Z</time>
      </trkpt>
      <trkpt lat="44.58309" lon="3.96799">
        <ele>736.99</ele>
        <time>2013-08-25T09:32:41Z</time>
      </trkpt>
      <trkpt lat="44.58308" lon="3.96795">
        <ele>736.03</ele>
        <time>2013-08-25T09:32:42Z</time>
      </trkpt>
      <trkpt lat="44.58306" lon="3.96792">
        <ele>736.03</ele>
        <time>2013-08-25T09:32:43Z</time>
      </trkpt>
      <trkpt lat="44.58289" lon="3.9677">
        <ele>738.43</ele>
        <time>2013-08-25T09:32:55Z</time>
      </trkpt>
      <trkpt lat="44.58272" lon="3.9675">
        <ele>736.99</ele>
        <time>2013-08-25T09:33:04Z</time>
      </trkpt>
      <trkpt lat="44.58246" lon="3.96723">
        <ele>736.03</ele>
        <time>2013-08-25T09:33:14Z</time>
      </trkpt>
      <trkpt lat="44.58237" lon="3.96717">
        <ele>736.99</ele>
        <time>2013-08-25T09:33:18Z</time>
      </trkpt>
      <trkpt lat="44.58235" lon="3.96711">
        <ele>736.99</ele>
        <time>2013-08-25T09:33:20Z</time>
      </trkpt>
      <trkpt lat="44.58234" lon="3.96709">
        <ele>736.99</ele>
        <time>2013-08-25T09:33:21Z</time>
      </trkpt>
      <trkpt lat="44.58233" lon="3.96707">
        <ele>736.99</ele>
        <time>2013-08-25T09:33:22Z</time>
      </trkpt>
      <trkpt lat="44.58232" lon="3.96706">
        <ele>736.99</ele>
        <time>2013-08-25T09:33:23Z</time>
      </trkpt>
      <trkpt lat="44.5823" lon="3.96704">
        <ele>737.47</ele>
        <time>2013-08-25T09:33:24Z</time>
      </trkpt>
      <trkpt lat="44.58228" lon="3.967">
        <ele>737.95</ele>
        <time>2013-08-25T09:33:34Z</time>
      </trkpt>
      <trkpt lat="44.58222" lon="3.96692">
        <ele>739.87</ele>
        <time>2013-08-25T09:33:46Z</time>
      </trkpt>
      <trkpt lat="44.5822" lon="3.96687">
        <ele>739.87</ele>
        <time>2013-08-25T09:33:54Z</time>
      </trkpt>
      <trkpt lat="44.58219" lon="3.96685">
        <ele>739.87</ele>
        <time>2013-08-25T09:33:55Z</time>
      </trkpt>
      <trkpt lat="44.58218" lon="3.96683">
        <ele>739.87</ele>
        <time>2013-08-25T09:33:56Z</time>
      </trkpt>
      <trkpt lat="44.58217" lon="3.96682">
        <ele>739.87</ele>
        <time>2013-08-25T09:33:57Z</time>
      </trkpt>
      <trkpt lat="44.58215" lon="3.96681">
        <ele>740.35</ele>
        <time>2013-08-25T09:33:58Z</time>
      </trkpt>
      <trkpt lat="44.58204" lon="3.96677">
        <ele>740.83</ele>
        <time>2013-08-25T09:34:05Z</time>
      </trkpt>
      <trkpt lat="44.58186" lon="3.9668">
        <ele>742.76</ele>
        <time>2013-08-25T09:34:16Z</time>
      </trkpt>
      <trkpt lat="44.58184" lon="3.9668">
        <ele>742.28</ele>
        <time>2013-08-25T09:34:17Z</time>
      </trkpt>
      <trkpt lat="44.58183" lon="3.96679">
        <ele>742.76</ele>
        <time>2013-08-25T09:34:18Z</time>
      </trkpt>
      <trkpt lat="44.58181" lon="3.96679">
        <ele>743.72</ele>
        <time>2013-08-25T09:34:19Z</time>
      </trkpt>
      <trkpt lat="44.5818" lon="3.96679">
        <ele>743.24</ele>
        <time>2013-08-25T09:34:20Z</time>
      </trkpt>
      <trkpt lat="44.58178" lon="3.96679">
        <ele>743.24</ele>
        <time>2013-08-25T09:34:22Z</time>
      </trkpt>
      <trkpt lat="44.58156" lon="3.96687">
        <ele>744.68</ele>
        <time>2013-08-25T09:34:37Z</time>
      </trkpt>
      <trkpt lat="44.58141" lon="3.96691">
        <ele>746.12</ele>
        <time>2013-08-25T09:34:46Z</time>
      </trkpt>
      <trkpt lat="44.58132" lon="3.9669">
        <ele>747.08</ele>
        <time>2013-08-25T09:34:52Z</time>
      </trkpt>
      <trkpt lat="44.58123" lon="3.96694">
        <ele>749</ele>
        <time>2013-08-25T09:34:58Z</time>
      </trkpt>
      <trkpt lat="44.58122" lon="3.96694">
        <ele>749.49</ele>
        <time>2013-08-25T09:34:59Z</time>
      </trkpt>
      <trkpt lat="44.58118" lon="3.96693">
        <ele>750.45</ele>
        <time>2013-08-25T09:35:02Z</time>
      </trkpt>
      <trkpt lat="44.58117" lon="3.96693">
        <ele>750.45</ele>
        <time>2013-08-25T09:35:03Z</time>
      </trkpt>
      <trkpt lat="44.58106" lon="3.96691">
        <ele>752.85</ele>
        <time>2013-08-25T09:35:12Z</time>
      </trkpt>
      <trkpt lat="44.58103" lon="3.96691">
        <ele>753.81</ele>
        <time>2013-08-25T09:35:14Z</time>
      </trkpt>
      <trkpt lat="44.58091" lon="3.9669">
        <ele>754.77</ele>
        <time>2013-08-25T09:35:21Z</time>
      </trkpt>
      <trkpt lat="44.58089" lon="3.96689">
        <ele>754.77</ele>
        <time>2013-08-25T09:35:22Z</time>
      </trkpt>
      <trkpt lat="44.58088" lon="3.96689">
        <ele>755.73</ele>
        <time>2013-08-25T09:35:23Z</time>
      </trkpt>
      <trkpt lat="44.58085" lon="3.96689">
        <ele>755.25</ele>
        <time>2013-08-25T09:35:24Z</time>
      </trkpt>
      <trkpt lat="44.58084" lon="3.96688">
        <ele>756.21</ele>
        <time>2013-08-25T09:35:25Z</time>
      </trkpt>
      <trkpt lat="44.58082" lon="3.96688">
        <ele>756.21</ele>
        <time>2013-08-25T09:35:26Z</time>
      </trkpt>
      <trkpt lat="44.5808" lon="3.96687">
        <ele>756.21</ele>
        <time>2013-08-25T09:35:27Z</time>
      </trkpt>
      <trkpt lat="44.58078" lon="3.96687">
        <ele>756.69</ele>
        <time>2013-08-25T09:35:28Z</time>
      </trkpt>
      <trkpt lat="44.58059" lon="3.96683">
        <ele>756.69</ele>
        <time>2013-08-25T09:35:39Z</time>
      </trkpt>
      <trkpt lat="44.58032" lon="3.96677">
        <ele>755.25</ele>
        <time>2013-08-25T09:35:50Z</time>
      </trkpt>
      <trkpt lat="44.58019" lon="3.9668">
        <ele>754.29</ele>
        <time>2013-08-25T09:35:56Z</time>
      </trkpt>
      <trkpt lat="44.58017" lon="3.96681">
        <ele>754.29</ele>
        <time>2013-08-25T09:35:57Z</time>
      </trkpt>
      <trkpt lat="44.58016" lon="3.96682">
        <ele>753.81</ele>
        <time>2013-08-25T09:35:58Z</time>
      </trkpt>
      <trkpt lat="44.58014" lon="3.96683">
        <ele>753.81</ele>
        <time>2013-08-25T09:35:59Z</time>
      </trkpt>
      <trkpt lat="44.58012" lon="3.96685">
        <ele>753.81</ele>
        <time>2013-08-25T09:36:00Z</time>
      </trkpt>
      <trkpt lat="44.5801" lon="3.96687">
        <ele>753.33</ele>
        <time>2013-08-25T09:36:01Z</time>
      </trkpt>
      <trkpt lat="44.58009" lon="3.96689">
        <ele>753.33</ele>
        <time>2013-08-25T09:36:02Z</time>
      </trkpt>
      <trkpt lat="44.58006" lon="3.96694">
        <ele>753.81</ele>
        <time>2013-08-25T09:36:05Z</time>
      </trkpt>
      <trkpt lat="44.58004" lon="3.96695">
        <ele>753.81</ele>
        <time>2013-08-25T09:36:06Z</time>
      </trkpt>
      <trkpt lat="44.57994" lon="3.9671">
        <ele>756.21</ele>
        <time>2013-08-25T09:36:17Z</time>
      </trkpt>
      <trkpt lat="44.57989" lon="3.96719">
        <ele>759.1</ele>
        <time>2013-08-25T09:36:25Z</time>
      </trkpt>
      <trkpt lat="44.57983" lon="3.96724">
        <ele>761.5</ele>
        <time>2013-08-25T09:36:34Z</time>
      </trkpt>
      <trkpt lat="44.5798" lon="3.96727">
        <ele>761.98</ele>
        <time>2013-08-25T09:36:37Z</time>
      </trkpt>
      <trkpt lat="44.57974" lon="3.96729">
        <ele>762.46</ele>
        <time>2013-08-25T09:36:47Z</time>
      </trkpt>
      <trkpt lat="44.57967" lon="3.96735">
        <ele>762.94</ele>
        <time>2013-08-25T09:37:06Z</time>
      </trkpt>
      <trkpt lat="44.57955" lon="3.9674">
        <ele>763.9</ele>
        <time>2013-08-25T09:37:18Z</time>
      </trkpt>
      <trkpt lat="44.57952" lon="3.96743">
        <ele>764.39</ele>
        <time>2013-08-25T09:37:23Z</time>
      </trkpt>
      <trkpt lat="44.57943" lon="3.96752">
        <ele>765.35</ele>
        <time>2013-08-25T09:37:33Z</time>
      </trkpt>
      <trkpt lat="44.5794" lon="3.96755">
        <ele>766.31</ele>
        <time>2013-08-25T09:37:46Z</time>
      </trkpt>
      <trkpt lat="44.57938" lon="3.9676">
        <ele>767.27</ele>
        <time>2013-08-25T09:37:57Z</time>
      </trkpt>
      <trkpt lat="44.57933" lon="3.9676">
        <ele>768.23</ele>
        <time>2013-08-25T09:38:07Z</time>
      </trkpt>
      <trkpt lat="44.57933" lon="3.96759">
        <ele>768.71</ele>
        <time>2013-08-25T09:38:08Z</time>
      </trkpt>
      <trkpt lat="44.57933" lon="3.96757">
        <ele>768.23</ele>
        <time>2013-08-25T09:38:09Z</time>
      </trkpt>
      <trkpt lat="44.57925" lon="3.96747">
        <ele>770.63</ele>
        <time>2013-08-25T09:38:22Z</time>
      </trkpt>
      <trkpt lat="44.57914" lon="3.9674">
        <ele>773.04</ele>
        <time>2013-08-25T09:38:38Z</time>
      </trkpt>
      <trkpt lat="44.57913" lon="3.9674">
        <ele>773.04</ele>
        <time>2013-08-25T09:38:39Z</time>
      </trkpt>
      <trkpt lat="44.57906" lon="3.96739">
        <ele>774.96</ele>
        <time>2013-08-25T09:38:50Z</time>
      </trkpt>
      <trkpt lat="44.57903" lon="3.9673">
        <ele>776.88</ele>
        <time>2013-08-25T09:39:03Z</time>
      </trkpt>
      <trkpt lat="44.57898" lon="3.96723">
        <ele>778.32</ele>
        <time>2013-08-25T09:39:18Z</time>
      </trkpt>
      <trkpt lat="44.57888" lon="3.96714">
        <ele>779.77</ele>
        <time>2013-08-25T09:39:31Z</time>
      </trkpt>
      <trkpt lat="44.57883" lon="3.96705">
        <ele>781.69</ele>
        <time>2013-08-25T09:39:43Z</time>
      </trkpt>
      <trkpt lat="44.57876" lon="3.9669">
        <ele>784.57</ele>
        <time>2013-08-25T09:39:58Z</time>
      </trkpt>
      <trkpt lat="44.57874" lon="3.9668">
        <ele>786.5</ele>
        <time>2013-08-25T09:40:12Z</time>
      </trkpt>
      <trkpt lat="44.57869" lon="3.96677">
        <ele>787.46</ele>
        <time>2013-08-25T09:40:26Z</time>
      </trkpt>
      <trkpt lat="44.57869" lon="3.96677">
        <ele>787.46</ele>
        <time>2013-08-25T09:40:49Z</time>
      </trkpt>
      <trkpt lat="44.57868" lon="3.96676">
        <ele>786.5</ele>
        <time>2013-08-25T09:41:08Z</time>
      </trkpt>
      <trkpt lat="44.57869" lon="3.96676">
        <ele>787.46</ele>
        <time>2013-08-25T09:41:51Z</time>
      </trkpt>
      <trkpt lat="44.57869" lon="3.96676">
        <ele>785.05</ele>
        <time>2013-08-25T09:42:19Z</time>
      </trkpt>
      <trkpt lat="44.57869" lon="3.96676">
        <ele>789.38</ele>
        <time>2013-08-25T09:42:21Z</time>
      </trkpt>
      <trkpt lat="44.57869" lon="3.96676">
        <ele>785.05</ele>
        <time>2013-08-25T09:42:27Z</time>
      </trkpt>
      <trkpt lat="44.57869" lon="3.96676">
        <ele>788.42</ele>
        <time>2013-08-25T09:42:28Z</time>
      </trkpt>
      <trkpt lat="44.57869" lon="3.96676">
        <ele>789.86</ele>
        <time>2013-08-25T09:42:32Z</time>
      </trkpt>
      <trkpt lat="44.57869" lon="3.96676">
        <ele>788.42</ele>
        <time>2013-08-25T09:42:59Z</time>
      </trkpt>
      <trkpt lat="44.57869" lon="3.96676">
        <ele>788.42</ele>
        <time>2013-08-25T09:43:33Z</time>
      </trkpt>
      <trkpt lat="44.57863" lon="3.96678">
        <ele>790.34</ele>
        <time>2013-08-25T09:43:51Z</time>
      </trkpt>
      <trkpt lat="44.57858" lon="3.96681">
        <ele>792.74</ele>
        <time>2013-08-25T09:44:04Z</time>
      </trkpt>
      <trkpt lat="44.57852" lon="3.96687">
        <ele>793.22</ele>
        <time>2013-08-25T09:44:18Z</time>
      </trkpt>
      <trkpt lat="44.57843" lon="3.96689">
        <ele>794.67</ele>
        <time>2013-08-25T09:44:32Z</time>
      </trkpt>
      <trkpt lat="44.57838" lon="3.96688">
        <ele>795.15</ele>
        <time>2013-08-25T09:44:44Z</time>
      </trkpt>
      <trkpt lat="44.5782" lon="3.96682">
        <ele>796.59</ele>
        <time>2013-08-25T09:44:57Z</time>
      </trkpt>
      <trkpt lat="44.57805" lon="3.96676">
        <ele>797.07</ele>
        <time>2013-08-25T09:45:09Z</time>
      </trkpt>
      <trkpt lat="44.5779" lon="3.9667">
        <ele>798.99</ele>
        <time>2013-08-25T09:45:21Z</time>
      </trkpt>
      <trkpt lat="44.5778" lon="3.96665">
        <ele>800.44</ele>
        <time>2013-08-25T09:45:28Z</time>
      </trkpt>
      <trkpt lat="44.57778" lon="3.96664">
        <ele>799.95</ele>
        <time>2013-08-25T09:45:29Z</time>
      </trkpt>
      <trkpt lat="44.57777" lon="3.96664">
        <ele>799.95</ele>
        <time>2013-08-25T09:45:30Z</time>
      </trkpt>
      <trkpt lat="44.57776" lon="3.96663">
        <ele>800.92</ele>
        <time>2013-08-25T09:45:31Z</time>
      </trkpt>
      <trkpt lat="44.57774" lon="3.96662">
        <ele>800.44</ele>
        <time>2013-08-25T09:45:32Z</time>
      </trkpt>
      <trkpt lat="44.57772" lon="3.96662">
        <ele>800.92</ele>
        <time>2013-08-25T09:45:33Z</time>
      </trkpt>
      <trkpt lat="44.57771" lon="3.96661">
        <ele>800.92</ele>
        <time>2013-08-25T09:45:34Z</time>
      </trkpt>
      <trkpt lat="44.5777" lon="3.96661">
        <ele>800.92</ele>
        <time>2013-08-25T09:45:35Z</time>
      </trkpt>
      <trkpt lat="44.5775" lon="3.96654">
        <ele>802.84</ele>
        <time>2013-08-25T09:45:49Z</time>
      </trkpt>
      <trkpt lat="44.57745" lon="3.96652">
        <ele>802.84</ele>
        <time>2013-08-25T09:45:53Z</time>
      </trkpt>
      <trkpt lat="44.57743" lon="3.96651">
        <ele>803.32</ele>
        <time>2013-08-25T09:45:54Z</time>
      </trkpt>
      <trkpt lat="44.57742" lon="3.9665">
        <ele>803.8</ele>
        <time>2013-08-25T09:45:55Z</time>
      </trkpt>
      <trkpt lat="44.57741" lon="3.96649">
        <ele>803.8</ele>
        <time>2013-08-25T09:45:56Z</time>
      </trkpt>
      <trkpt lat="44.57739" lon="3.96649">
        <ele>803.8</ele>
        <time>2013-08-25T09:45:57Z</time>
      </trkpt>
      <trkpt lat="44.57738" lon="3.96648">
        <ele>803.8</ele>
        <time>2013-08-25T09:45:58Z</time>
      </trkpt>
      <trkpt lat="44.57736" lon="3.96647">
        <ele>804.28</ele>
        <time>2013-08-25T09:45:59Z</time>
      </trkpt>
      <trkpt lat="44.57734" lon="3.96646">
        <ele>804.76</ele>
        <time>2013-08-25T09:46:00Z</time>
      </trkpt>
      <trkpt lat="44.57733" lon="3.96645">
        <ele>804.76</ele>
        <time>2013-08-25T09:46:01Z</time>
      </trkpt>
      <trkpt lat="44.57732" lon="3.96645">
        <ele>804.28</ele>
        <time>2013-08-25T09:46:02Z</time>
      </trkpt>
      <trkpt lat="44.57731" lon="3.96644">
        <ele>804.76</ele>
        <time>2013-08-25T09:46:03Z</time>
      </trkpt>
      <trkpt lat="44.57719" lon="3.96638">
        <ele>806.2</ele>
        <time>2013-08-25T09:46:11Z</time>
      </trkpt>
      <trkpt lat="44.57718" lon="3.96636">
        <ele>806.68</ele>
        <time>2013-08-25T09:46:12Z</time>
      </trkpt>
      <trkpt lat="44.57718" lon="3.96635">
        <ele>807.16</ele>
        <time>2013-08-25T09:46:13Z</time>
      </trkpt>
      <trkpt lat="44.57716" lon="3.96634">
        <ele>806.68</ele>
        <time>2013-08-25T09:46:14Z</time>
      </trkpt>
      <trkpt lat="44.57715" lon="3.96633">
        <ele>807.16</ele>
        <time>2013-08-25T09:46:15Z</time>
      </trkpt>
      <trkpt lat="44.57713" lon="3.96632">
        <ele>807.16</ele>
        <time>2013-08-25T09:46:16Z</time>
      </trkpt>
      <trkpt lat="44.57712" lon="3.96631">
        <ele>807.64</ele>
        <time>2013-08-25T09:46:17Z</time>
      </trkpt>
      <trkpt lat="44.57706" lon="3.96627">
        <ele>808.13</ele>
        <time>2013-08-25T09:46:22Z</time>
      </trkpt>
      <trkpt lat="44.57692" lon="3.96619">
        <ele>811.01</ele>
        <time>2013-08-25T09:46:32Z</time>
      </trkpt>
      <trkpt lat="44.57679" lon="3.96617">
        <ele>814.37</ele>
        <time>2013-08-25T09:46:42Z</time>
      </trkpt>
      <trkpt lat="44.57663" lon="3.96624">
        <ele>817.74</ele>
        <time>2013-08-25T09:46:57Z</time>
      </trkpt>
      <trkpt lat="44.57658" lon="3.96628">
        <ele>819.18</ele>
        <time>2013-08-25T09:47:07Z</time>
      </trkpt>
      <trkpt lat="44.57656" lon="3.96635">
        <ele>820.62</ele>
        <time>2013-08-25T09:47:15Z</time>
      </trkpt>
      <trkpt lat="44.57654" lon="3.96636">
        <ele>820.62</ele>
        <time>2013-08-25T09:47:28Z</time>
      </trkpt>
      <trkpt lat="44.57654" lon="3.96635">
        <ele>820.62</ele>
        <time>2013-08-25T09:47:42Z</time>
      </trkpt>
      <trkpt lat="44.57654" lon="3.96635">
        <ele>820.14</ele>
        <time>2013-08-25T09:48:01Z</time>
      </trkpt>
      <trkpt lat="44.57654" lon="3.96635">
        <ele>820.14</ele>
        <time>2013-08-25T09:48:26Z</time>
      </trkpt>
      <trkpt lat="44.57654" lon="3.96634">
        <ele>819.18</ele>
        <time>2013-08-25T09:48:56Z</time>
      </trkpt>
      <trkpt lat="44.57652" lon="3.96632">
        <ele>819.18</ele>
        <time>2013-08-25T09:49:19Z</time>
      </trkpt>
      <trkpt lat="44.57651" lon="3.9663">
        <ele>818.22</ele>
        <time>2013-08-25T09:49:20Z</time>
      </trkpt>
      <trkpt lat="44.57649" lon="3.96629">
        <ele>818.22</ele>
        <time>2013-08-25T09:49:21Z</time>
      </trkpt>
      <trkpt lat="44.57647" lon="3.96628">
        <ele>818.22</ele>
        <time>2013-08-25T09:49:22Z</time>
      </trkpt>
      <trkpt lat="44.57645" lon="3.96627">
        <ele>817.74</ele>
        <time>2013-08-25T09:49:23Z</time>
      </trkpt>
      <trkpt lat="44.57643" lon="3.96627">
        <ele>817.74</ele>
        <time>2013-08-25T09:49:24Z</time>
      </trkpt>
      <trkpt lat="44.57641" lon="3.96626">
        <ele>817.74</ele>
        <time>2013-08-25T09:49:25Z</time>
      </trkpt>
      <trkpt lat="44.57639" lon="3.96625">
        <ele>817.26</ele>
        <time>2013-08-25T09:49:26Z</time>
      </trkpt>
      <trkpt lat="44.57626" lon="3.96622">
        <ele>815.82</ele>
        <time>2013-08-25T09:49:31Z</time>
      </trkpt>
      <trkpt lat="44.57621" lon="3.96622">
        <ele>814.85</ele>
        <time>2013-08-25T09:49:32Z</time>
      </trkpt>
      <trkpt lat="44.57604" lon="3.9662">
        <ele>813.41</ele>
        <time>2013-08-25T09:49:35Z</time>
      </trkpt>
      <trkpt lat="44.5755" lon="3.9662">
        <ele>811.01</ele>
        <time>2013-08-25T09:49:44Z</time>
      </trkpt>
      <trkpt lat="44.57546" lon="3.96622">
        <ele>811.97</ele>
        <time>2013-08-25T09:49:45Z</time>
      </trkpt>
      <trkpt lat="44.57544" lon="3.96625">
        <ele>812.45</ele>
        <time>2013-08-25T09:49:46Z</time>
      </trkpt>
      <trkpt lat="44.57537" lon="3.96633">
        <ele>812.93</ele>
        <time>2013-08-25T09:49:54Z</time>
      </trkpt>
      <trkpt lat="44.57535" lon="3.96637">
        <ele>811.49</ele>
        <time>2013-08-25T09:49:57Z</time>
      </trkpt>
      <trkpt lat="44.57532" lon="3.96639">
        <ele>811.49</ele>
        <time>2013-08-25T09:50:00Z</time>
      </trkpt>
      <trkpt lat="44.57531" lon="3.96638">
        <ele>811.01</ele>
        <time>2013-08-25T09:50:01Z</time>
      </trkpt>
      <trkpt lat="44.57528" lon="3.96638">
        <ele>810.05</ele>
        <time>2013-08-25T09:50:02Z</time>
      </trkpt>
      <trkpt lat="44.57526" lon="3.96638">
        <ele>809.57</ele>
        <time>2013-08-25T09:50:03Z</time>
      </trkpt>
      <trkpt lat="44.57523" lon="3.96637">
        <ele>809.09</ele>
        <time>2013-08-25T09:50:04Z</time>
      </trkpt>
      <trkpt lat="44.57523" lon="3.96636">
        <ele>809.09</ele>
        <time>2013-08-25T09:50:05Z</time>
      </trkpt>
      <trkpt lat="44.57523" lon="3.96635">
        <ele>809.09</ele>
        <time>2013-08-25T09:50:06Z</time>
      </trkpt>
      <trkpt lat="44.57523" lon="3.96634">
        <ele>809.09</ele>
        <time>2013-08-25T09:50:07Z</time>
      </trkpt>
      <trkpt lat="44.57522" lon="3.96633">
        <ele>809.09</ele>
        <time>2013-08-25T09:50:08Z</time>
      </trkpt>
      <trkpt lat="44.57521" lon="3.9663">
        <ele>808.61</ele>
        <time>2013-08-25T09:50:10Z</time>
      </trkpt>
      <trkpt lat="44.5752" lon="3.96629">
        <ele>808.61</ele>
        <time>2013-08-25T09:50:11Z</time>
      </trkpt>
      <trkpt lat="44.57517" lon="3.96622">
        <ele>807.64</ele>
        <time>2013-08-25T09:50:15Z</time>
      </trkpt>
      <trkpt lat="44.57515" lon="3.9662">
        <ele>807.64</ele>
        <time>2013-08-25T09:50:16Z</time>
      </trkpt>
      <trkpt lat="44.57513" lon="3.96618">
        <ele>806.68</ele>
        <time>2013-08-25T09:50:17Z</time>
      </trkpt>
      <trkpt lat="44.57505" lon="3.96607">
        <ele>805.72</ele>
        <time>2013-08-25T09:50:20Z</time>
      </trkpt>
      <trkpt lat="44.57501" lon="3.96603">
        <ele>805.72</ele>
        <time>2013-08-25T09:50:22Z</time>
      </trkpt>
      <trkpt lat="44.575" lon="3.96602">
        <ele>805.72</ele>
        <time>2013-08-25T09:50:23Z</time>
      </trkpt>
      <trkpt lat="44.57474" lon="3.96565">
        <ele>804.28</ele>
        <time>2013-08-25T09:50:32Z</time>
      </trkpt>
      <trkpt lat="44.57463" lon="3.96556">
        <ele>804.76</ele>
        <time>2013-08-25T09:50:40Z</time>
      </trkpt>
      <trkpt lat="44.57462" lon="3.96555">
        <ele>804.76</ele>
        <time>2013-08-25T09:50:56Z</time>
      </trkpt>
      <trkpt lat="44.57458" lon="3.96552">
        <ele>805.24</ele>
        <time>2013-08-25T09:51:11Z</time>
      </trkpt>
      <trkpt lat="44.57454" lon="3.96545">
        <ele>807.16</ele>
        <time>2013-08-25T09:51:24Z</time>
      </trkpt>
      <trkpt lat="44.57447" lon="3.96539">
        <ele>805.72</ele>
        <time>2013-08-25T09:51:28Z</time>
      </trkpt>
      <trkpt lat="44.57446" lon="3.96538">
        <ele>804.76</ele>
        <time>2013-08-25T09:51:29Z</time>
      </trkpt>
      <trkpt lat="44.57444" lon="3.96536">
        <ele>805.72</ele>
        <time>2013-08-25T09:51:30Z</time>
      </trkpt>
      <trkpt lat="44.57443" lon="3.96534">
        <ele>805.24</ele>
        <time>2013-08-25T09:51:31Z</time>
      </trkpt>
      <trkpt lat="44.57441" lon="3.96532">
        <ele>804.76</ele>
        <time>2013-08-25T09:51:32Z</time>
      </trkpt>
      <trkpt lat="44.57432" lon="3.96507">
        <ele>802.36</ele>
        <time>2013-08-25T09:51:39Z</time>
      </trkpt>
      <trkpt lat="44.5743" lon="3.96504">
        <ele>801.88</ele>
        <time>2013-08-25T09:51:40Z</time>
      </trkpt>
      <trkpt lat="44.5743" lon="3.965">
        <ele>801.88</ele>
        <time>2013-08-25T09:51:41Z</time>
      </trkpt>
      <trkpt lat="44.5743" lon="3.96496">
        <ele>801.4</ele>
        <time>2013-08-25T09:51:42Z</time>
      </trkpt>
      <trkpt lat="44.57429" lon="3.96492">
        <ele>801.4</ele>
        <time>2013-08-25T09:51:43Z</time>
      </trkpt>
      <trkpt lat="44.57428" lon="3.96488">
        <ele>800.92</ele>
        <time>2013-08-25T09:51:44Z</time>
      </trkpt>
      <trkpt lat="44.57428" lon="3.96483">
        <ele>800.92</ele>
        <time>2013-08-25T09:51:45Z</time>
      </trkpt>
      <trkpt lat="44.57426" lon="3.96473">
        <ele>799.95</ele>
        <time>2013-08-25T09:51:47Z</time>
      </trkpt>
      <trkpt lat="44.57422" lon="3.96441">
        <ele>798.99</ele>
        <time>2013-08-25T09:51:56Z</time>
      </trkpt>
      <trkpt lat="44.5741" lon="3.96396">
        <ele>797.55</ele>
        <time>2013-08-25T09:52:06Z</time>
      </trkpt>
      <trkpt lat="44.57398" lon="3.96368">
        <ele>797.55</ele>
        <time>2013-08-25T09:52:15Z</time>
      </trkpt>
      <trkpt lat="44.57394" lon="3.96347">
        <ele>799.47</ele>
        <time>2013-08-25T09:52:23Z</time>
      </trkpt>
      <trkpt lat="44.57393" lon="3.96345">
        <ele>799.47</ele>
        <time>2013-08-25T09:52:24Z</time>
      </trkpt>
      <trkpt lat="44.57392" lon="3.96343">
        <ele>799.47</ele>
        <time>2013-08-25T09:52:25Z</time>
      </trkpt>
      <trkpt lat="44.57391" lon="3.96341">
        <ele>799.95</ele>
        <time>2013-08-25T09:52:26Z</time>
      </trkpt>
      <trkpt lat="44.57391" lon="3.9634">
        <ele>800.44</ele>
        <time>2013-08-25T09:52:27Z</time>
      </trkpt>
      <trkpt lat="44.5739" lon="3.96338">
        <ele>800.44</ele>
        <time>2013-08-25T09:52:28Z</time>
      </trkpt>
      <trkpt lat="44.57389" lon="3.96336">
        <ele>800.44</ele>
        <time>2013-08-25T09:52:29Z</time>
      </trkpt>
      <trkpt lat="44.57388" lon="3.96335">
        <ele>800.92</ele>
        <time>2013-08-25T09:52:30Z</time>
      </trkpt>
      <trkpt lat="44.57387" lon="3.96333">
        <ele>801.4</ele>
        <time>2013-08-25T09:52:31Z</time>
      </trkpt>
      <trkpt lat="44.57386" lon="3.96332">
        <ele>800.92</ele>
        <time>2013-08-25T09:52:32Z</time>
      </trkpt>
      <trkpt lat="44.57385" lon="3.9633">
        <ele>801.4</ele>
        <time>2013-08-25T09:52:33Z</time>
      </trkpt>
      <trkpt lat="44.57381" lon="3.96325">
        <ele>802.36</ele>
        <time>2013-08-25T09:52:37Z</time>
      </trkpt>
      <trkpt lat="44.5738" lon="3.96323">
        <ele>802.36</ele>
        <time>2013-08-25T09:52:38Z</time>
      </trkpt>
      <trkpt lat="44.57379" lon="3.96321">
        <ele>801.88</ele>
        <time>2013-08-25T09:52:39Z</time>
      </trkpt>
      <trkpt lat="44.57378" lon="3.9632">
        <ele>801.88</ele>
        <time>2013-08-25T09:52:40Z</time>
      </trkpt>
      <trkpt lat="44.57377" lon="3.96318">
        <ele>802.36</ele>
        <time>2013-08-25T09:52:41Z</time>
      </trkpt>
      <trkpt lat="44.57376" lon="3.96316">
        <ele>801.88</ele>
        <time>2013-08-25T09:52:42Z</time>
      </trkpt>
      <trkpt lat="44.57375" lon="3.96314">
        <ele>801.88</ele>
        <time>2013-08-25T09:52:43Z</time>
      </trkpt>
      <trkpt lat="44.57375" lon="3.96312">
        <ele>801.88</ele>
        <time>2013-08-25T09:52:44Z</time>
      </trkpt>
      <trkpt lat="44.57374" lon="3.9631">
        <ele>801.88</ele>
        <time>2013-08-25T09:52:45Z</time>
      </trkpt>
      <trkpt lat="44.57373" lon="3.96307">
        <ele>801.88</ele>
        <time>2013-08-25T09:52:46Z</time>
      </trkpt>
      <trkpt lat="44.57366" lon="3.96277">
        <ele>804.28</ele>
        <time>2013-08-25T09:52:59Z</time>
      </trkpt>
      <trkpt lat="44.57362" lon="3.96247">
        <ele>805.72</ele>
        <time>2013-08-25T09:53:12Z</time>
      </trkpt>
      <trkpt lat="44.57361" lon="3.96221">
        <ele>808.13</ele>
        <time>2013-08-25T09:53:25Z</time>
      </trkpt>
      <trkpt lat="44.57361" lon="3.96219">
        <ele>808.13</ele>
        <time>2013-08-25T09:53:26Z</time>
      </trkpt>
      <trkpt lat="44.5736" lon="3.96216">
        <ele>808.61</ele>
        <time>2013-08-25T09:53:27Z</time>
      </trkpt>
      <trkpt lat="44.5736" lon="3.96214">
        <ele>808.61</ele>
        <time>2013-08-25T09:53:28Z</time>
      </trkpt>
      <trkpt lat="44.5736" lon="3.96212">
        <ele>809.09</ele>
        <time>2013-08-25T09:53:29Z</time>
      </trkpt>
      <trkpt lat="44.57359" lon="3.96211">
        <ele>809.09</ele>
        <time>2013-08-25T09:53:30Z</time>
      </trkpt>
      <trkpt lat="44.57359" lon="3.96209">
        <ele>809.09</ele>
        <time>2013-08-25T09:53:31Z</time>
      </trkpt>
      <trkpt lat="44.57349" lon="3.96178">
        <ele>811.49</ele>
        <time>2013-08-25T09:53:48Z</time>
      </trkpt>
      <trkpt lat="44.57345" lon="3.96169">
        <ele>812.93</ele>
        <time>2013-08-25T09:53:54Z</time>
      </trkpt>
      <trkpt lat="44.57336" lon="3.96148">
        <ele>814.85</ele>
        <time>2013-08-25T09:54:07Z</time>
      </trkpt>
      <trkpt lat="44.57335" lon="3.96145">
        <ele>815.34</ele>
        <time>2013-08-25T09:54:08Z</time>
      </trkpt>
      <trkpt lat="44.57334" lon="3.96144">
        <ele>815.34</ele>
        <time>2013-08-25T09:54:09Z</time>
      </trkpt>
      <trkpt lat="44.57322" lon="3.96115">
        <ele>815.34</ele>
        <time>2013-08-25T09:54:21Z</time>
      </trkpt>
      <trkpt lat="44.57317" lon="3.96103">
        <ele>816.3</ele>
        <time>2013-08-25T09:54:28Z</time>
      </trkpt>
      <trkpt lat="44.57315" lon="3.96101">
        <ele>816.3</ele>
        <time>2013-08-25T09:54:29Z</time>
      </trkpt>
      <trkpt lat="44.57314" lon="3.96099">
        <ele>816.78</ele>
        <time>2013-08-25T09:54:30Z</time>
      </trkpt>
      <trkpt lat="44.5731" lon="3.96089">
        <ele>817.26</ele>
        <time>2013-08-25T09:54:36Z</time>
      </trkpt>
      <trkpt lat="44.57304" lon="3.96081">
        <ele>818.7</ele>
        <time>2013-08-25T09:54:43Z</time>
      </trkpt>
      <trkpt lat="44.57303" lon="3.96079">
        <ele>818.7</ele>
        <time>2013-08-25T09:54:44Z</time>
      </trkpt>
      <trkpt lat="44.57302" lon="3.96077">
        <ele>819.18</ele>
        <time>2013-08-25T09:54:45Z</time>
      </trkpt>
      <trkpt lat="44.57301" lon="3.96076">
        <ele>819.18</ele>
        <time>2013-08-25T09:54:46Z</time>
      </trkpt>
      <trkpt lat="44.57299" lon="3.96072">
        <ele>819.18</ele>
        <time>2013-08-25T09:54:49Z</time>
      </trkpt>
      <trkpt lat="44.57297" lon="3.96069">
        <ele>819.66</ele>
        <time>2013-08-25T09:54:52Z</time>
      </trkpt>
      <trkpt lat="44.57296" lon="3.96066">
        <ele>820.14</ele>
        <time>2013-08-25T09:54:53Z</time>
      </trkpt>
      <trkpt lat="44.57294" lon="3.96061">
        <ele>820.62</ele>
        <time>2013-08-25T09:54:56Z</time>
      </trkpt>
      <trkpt lat="44.57293" lon="3.96059">
        <ele>821.1</ele>
        <time>2013-08-25T09:54:57Z</time>
      </trkpt>
      <trkpt lat="44.57289" lon="3.96043">
        <ele>822.06</ele>
        <time>2013-08-25T09:55:05Z</time>
      </trkpt>
      <trkpt lat="44.57287" lon="3.96027">
        <ele>823.99</ele>
        <time>2013-08-25T09:55:14Z</time>
      </trkpt>
      <trkpt lat="44.57285" lon="3.96014">
        <ele>825.43</ele>
        <time>2013-08-25T09:55:20Z</time>
      </trkpt>
      <trkpt lat="44.57284" lon="3.96012">
        <ele>825.91</ele>
        <time>2013-08-25T09:55:21Z</time>
      </trkpt>
      <trkpt lat="44.57284" lon="3.9601">
        <ele>826.39</ele>
        <time>2013-08-25T09:55:22Z</time>
      </trkpt>
      <trkpt lat="44.57285" lon="3.96008">
        <ele>826.39</ele>
        <time>2013-08-25T09:55:23Z</time>
      </trkpt>
      <trkpt lat="44.57285" lon="3.96006">
        <ele>826.39</ele>
        <time>2013-08-25T09:55:24Z</time>
      </trkpt>
      <trkpt lat="44.57285" lon="3.96004">
        <ele>826.39</ele>
        <time>2013-08-25T09:55:25Z</time>
      </trkpt>
      <trkpt lat="44.57285" lon="3.96001">
        <ele>826.87</ele>
        <time>2013-08-25T09:55:26Z</time>
      </trkpt>
      <trkpt lat="44.57284" lon="3.95999">
        <ele>827.35</ele>
        <time>2013-08-25T09:55:27Z</time>
      </trkpt>
      <trkpt lat="44.57285" lon="3.95997">
        <ele>827.35</ele>
        <time>2013-08-25T09:55:28Z</time>
      </trkpt>
      <trkpt lat="44.57284" lon="3.95995">
        <ele>827.35</ele>
        <time>2013-08-25T09:55:29Z</time>
      </trkpt>
      <trkpt lat="44.57284" lon="3.95993">
        <ele>827.83</ele>
        <time>2013-08-25T09:55:30Z</time>
      </trkpt>
      <trkpt lat="44.57285" lon="3.9599">
        <ele>827.35</ele>
        <time>2013-08-25T09:55:31Z</time>
      </trkpt>
      <trkpt lat="44.57285" lon="3.95988">
        <ele>828.31</ele>
        <time>2013-08-25T09:55:32Z</time>
      </trkpt>
      <trkpt lat="44.57286" lon="3.95986">
        <ele>828.31</ele>
        <time>2013-08-25T09:55:33Z</time>
      </trkpt>
      <trkpt lat="44.57286" lon="3.95983">
        <ele>828.31</ele>
        <time>2013-08-25T09:55:34Z</time>
      </trkpt>
      <trkpt lat="44.57286" lon="3.95981">
        <ele>828.31</ele>
        <time>2013-08-25T09:55:35Z</time>
      </trkpt>
      <trkpt lat="44.57286" lon="3.95979">
        <ele>829.27</ele>
        <time>2013-08-25T09:55:36Z</time>
      </trkpt>
      <trkpt lat="44.57286" lon="3.95977">
        <ele>829.76</ele>
        <time>2013-08-25T09:55:37Z</time>
      </trkpt>
      <trkpt lat="44.57286" lon="3.95975">
        <ele>829.76</ele>
        <time>2013-08-25T09:55:38Z</time>
      </trkpt>
      <trkpt lat="44.57286" lon="3.95968">
        <ele>830.72</ele>
        <time>2013-08-25T09:55:42Z</time>
      </trkpt>
      <trkpt lat="44.57286" lon="3.95966">
        <ele>830.72</ele>
        <time>2013-08-25T09:55:43Z</time>
      </trkpt>
      <trkpt lat="44.57285" lon="3.95964">
        <ele>830.72</ele>
        <time>2013-08-25T09:55:44Z</time>
      </trkpt>
      <trkpt lat="44.57285" lon="3.95962">
        <ele>831.2</ele>
        <time>2013-08-25T09:55:45Z</time>
      </trkpt>
      <trkpt lat="44.57283" lon="3.95958">
        <ele>832.16</ele>
        <time>2013-08-25T09:55:48Z</time>
      </trkpt>
      <trkpt lat="44.57283" lon="3.95956">
        <ele>832.64</ele>
        <time>2013-08-25T09:55:49Z</time>
      </trkpt>
      <trkpt lat="44.57266" lon="3.95934">
        <ele>830.72</ele>
        <time>2013-08-25T09:56:01Z</time>
      </trkpt>
      <trkpt lat="44.5725" lon="3.95925">
        <ele>829.76</ele>
        <time>2013-08-25T09:56:06Z</time>
      </trkpt>
      <trkpt lat="44.57247" lon="3.95922">
        <ele>828.79</ele>
        <time>2013-08-25T09:56:07Z</time>
      </trkpt>
      <trkpt lat="44.57219" lon="3.959">
        <ele>830.24</ele>
        <time>2013-08-25T09:56:17Z</time>
      </trkpt>
      <trkpt lat="44.57199" lon="3.95873">
        <ele>830.72</ele>
        <time>2013-08-25T09:56:28Z</time>
      </trkpt>
      <trkpt lat="44.57175" lon="3.95852">
        <ele>830.24</ele>
        <time>2013-08-25T09:56:39Z</time>
      </trkpt>
      <trkpt lat="44.57165" lon="3.95841">
        <ele>831.2</ele>
        <time>2013-08-25T09:56:45Z</time>
      </trkpt>
      <trkpt lat="44.57163" lon="3.95839">
        <ele>831.68</ele>
        <time>2013-08-25T09:56:46Z</time>
      </trkpt>
      <trkpt lat="44.57161" lon="3.95836">
        <ele>831.68</ele>
        <time>2013-08-25T09:56:47Z</time>
      </trkpt>
      <trkpt lat="44.57159" lon="3.95834">
        <ele>831.68</ele>
        <time>2013-08-25T09:56:48Z</time>
      </trkpt>
      <trkpt lat="44.57158" lon="3.95833">
        <ele>831.68</ele>
        <time>2013-08-25T09:56:49Z</time>
      </trkpt>
      <trkpt lat="44.57156" lon="3.95831">
        <ele>832.16</ele>
        <time>2013-08-25T09:56:50Z</time>
      </trkpt>
      <trkpt lat="44.57155" lon="3.9583">
        <ele>832.16</ele>
        <time>2013-08-25T09:56:51Z</time>
      </trkpt>
      <trkpt lat="44.57151" lon="3.95826">
        <ele>832.64</ele>
        <time>2013-08-25T09:56:53Z</time>
      </trkpt>
      <trkpt lat="44.5715" lon="3.95824">
        <ele>833.12</ele>
        <time>2013-08-25T09:56:54Z</time>
      </trkpt>
      <trkpt lat="44.57149" lon="3.95822">
        <ele>832.64</ele>
        <time>2013-08-25T09:56:55Z</time>
      </trkpt>
      <trkpt lat="44.57148" lon="3.9582">
        <ele>833.12</ele>
        <time>2013-08-25T09:56:56Z</time>
      </trkpt>
      <trkpt lat="44.57147" lon="3.95818">
        <ele>833.6</ele>
        <time>2013-08-25T09:56:57Z</time>
      </trkpt>
      <trkpt lat="44.57145" lon="3.95816">
        <ele>834.08</ele>
        <time>2013-08-25T09:56:58Z</time>
      </trkpt>
      <trkpt lat="44.57143" lon="3.95814">
        <ele>834.08</ele>
        <time>2013-08-25T09:56:59Z</time>
      </trkpt>
      <trkpt lat="44.57142" lon="3.95811">
        <ele>834.56</ele>
        <time>2013-08-25T09:57:00Z</time>
      </trkpt>
      <trkpt lat="44.57134" lon="3.958">
        <ele>835.52</ele>
        <time>2013-08-25T09:57:07Z</time>
      </trkpt>
      <trkpt lat="44.57134" lon="3.95798">
        <ele>836</ele>
        <time>2013-08-25T09:57:08Z</time>
      </trkpt>
      <trkpt lat="44.57132" lon="3.95796">
        <ele>836.48</ele>
        <time>2013-08-25T09:57:09Z</time>
      </trkpt>
      <trkpt lat="44.57132" lon="3.95795">
        <ele>836.48</ele>
        <time>2013-08-25T09:57:10Z</time>
      </trkpt>
      <trkpt lat="44.5713" lon="3.95794">
        <ele>836.96</ele>
        <time>2013-08-25T09:57:11Z</time>
      </trkpt>
      <trkpt lat="44.57129" lon="3.95793">
        <ele>837.45</ele>
        <time>2013-08-25T09:57:12Z</time>
      </trkpt>
      <trkpt lat="44.57129" lon="3.95792">
        <ele>837.93</ele>
        <time>2013-08-25T09:57:13Z</time>
      </trkpt>
      <trkpt lat="44.57127" lon="3.95791">
        <ele>837.93</ele>
        <time>2013-08-25T09:57:14Z</time>
      </trkpt>
      <trkpt lat="44.57123" lon="3.95787">
        <ele>836.96</ele>
        <time>2013-08-25T09:57:17Z</time>
      </trkpt>
      <trkpt lat="44.57121" lon="3.95787">
        <ele>836.96</ele>
        <time>2013-08-25T09:57:18Z</time>
      </trkpt>
      <trkpt lat="44.57121" lon="3.95788">
        <ele>836.48</ele>
        <time>2013-08-25T09:57:31Z</time>
      </trkpt>
      <trkpt lat="44.57121" lon="3.95788">
        <ele>835.52</ele>
        <time>2013-08-25T09:58:13Z</time>
      </trkpt>
      <trkpt lat="44.57121" lon="3.95787">
        <ele>831.2</ele>
        <time>2013-08-25T09:58:36Z</time>
      </trkpt>
      <trkpt lat="44.57121" lon="3.95787">
        <ele>837.45</ele>
        <time>2013-08-25T09:58:37Z</time>
      </trkpt>
      <trkpt lat="44.57121" lon="3.95787">
        <ele>830.24</ele>
        <time>2013-08-25T09:58:42Z</time>
      </trkpt>
      <trkpt lat="44.57121" lon="3.95787">
        <ele>837.93</ele>
        <time>2013-08-25T09:58:43Z</time>
      </trkpt>
      <trkpt lat="44.57121" lon="3.95787">
        <ele>836.48</ele>
        <time>2013-08-25T09:58:44Z</time>
      </trkpt>
      <trkpt lat="44.57121" lon="3.95787">
        <ele>837.45</ele>
        <time>2013-08-25T09:59:15Z</time>
      </trkpt>
      <trkpt lat="44.57121" lon="3.95787">
        <ele>838.89</ele>
        <time>2013-08-25T09:59:34Z</time>
      </trkpt>
      <trkpt lat="44.57121" lon="3.95787">
        <ele>835.04</ele>
        <time>2013-08-25T09:59:35Z</time>
      </trkpt>
      <trkpt lat="44.57121" lon="3.95787">
        <ele>841.29</ele>
        <time>2013-08-25T09:59:37Z</time>
      </trkpt>
      <trkpt lat="44.57121" lon="3.95787">
        <ele>835.52</ele>
        <time>2013-08-25T09:59:38Z</time>
      </trkpt>
      <trkpt lat="44.57117" lon="3.95789">
        <ele>836.96</ele>
        <time>2013-08-25T09:59:52Z</time>
      </trkpt>
      <trkpt lat="44.57114" lon="3.9579">
        <ele>836.48</ele>
        <time>2013-08-25T09:59:53Z</time>
      </trkpt>
      <trkpt lat="44.57112" lon="3.9579">
        <ele>835.04</ele>
        <time>2013-08-25T09:59:54Z</time>
      </trkpt>
      <trkpt lat="44.57097" lon="3.95792">
        <ele>831.68</ele>
        <time>2013-08-25T09:59:59Z</time>
      </trkpt>
      <trkpt lat="44.57086" lon="3.95792">
        <ele>829.76</ele>
        <time>2013-08-25T10:00:02Z</time>
      </trkpt>
      <trkpt lat="44.57069" lon="3.95801">
        <ele>826.87</ele>
        <time>2013-08-25T10:00:08Z</time>
      </trkpt>
      <trkpt lat="44.57034" lon="3.95822">
        <ele>825.43</ele>
        <time>2013-08-25T10:00:18Z</time>
      </trkpt>
      <trkpt lat="44.57015" lon="3.95828">
        <ele>825.43</ele>
        <time>2013-08-25T10:00:23Z</time>
      </trkpt>
      <trkpt lat="44.57012" lon="3.9583">
        <ele>825.43</ele>
        <time>2013-08-25T10:00:24Z</time>
      </trkpt>
      <trkpt lat="44.56974" lon="3.95863">
        <ele>823.99</ele>
        <time>2013-08-25T10:00:37Z</time>
      </trkpt>
      <trkpt lat="44.56966" lon="3.95874">
        <ele>822.55</ele>
        <time>2013-08-25T10:00:41Z</time>
      </trkpt>
      <trkpt lat="44.56965" lon="3.95877">
        <ele>822.06</ele>
        <time>2013-08-25T10:00:42Z</time>
      </trkpt>
      <trkpt lat="44.56963" lon="3.9588">
        <ele>821.58</ele>
        <time>2013-08-25T10:00:43Z</time>
      </trkpt>
      <trkpt lat="44.56961" lon="3.95883">
        <ele>820.62</ele>
        <time>2013-08-25T10:00:44Z</time>
      </trkpt>
      <trkpt lat="44.56958" lon="3.95885">
        <ele>820.62</ele>
        <time>2013-08-25T10:00:45Z</time>
      </trkpt>
      <trkpt lat="44.56957" lon="3.95888">
        <ele>820.14</ele>
        <time>2013-08-25T10:00:46Z</time>
      </trkpt>
      <trkpt lat="44.56954" lon="3.9589">
        <ele>819.18</ele>
        <time>2013-08-25T10:00:47Z</time>
      </trkpt>
      <trkpt lat="44.56952" lon="3.95892">
        <ele>818.7</ele>
        <time>2013-08-25T10:00:48Z</time>
      </trkpt>
      <trkpt lat="44.5695" lon="3.95895">
        <ele>817.74</ele>
        <time>2013-08-25T10:00:49Z</time>
      </trkpt>
      <trkpt lat="44.56947" lon="3.95897">
        <ele>817.26</ele>
        <time>2013-08-25T10:00:50Z</time>
      </trkpt>
      <trkpt lat="44.56942" lon="3.95902">
        <ele>816.78</ele>
        <time>2013-08-25T10:00:52Z</time>
      </trkpt>
      <trkpt lat="44.56933" lon="3.95909">
        <ele>812.93</ele>
        <time>2013-08-25T10:00:56Z</time>
      </trkpt>
      <trkpt lat="44.56927" lon="3.95913">
        <ele>811.97</ele>
        <time>2013-08-25T10:00:58Z</time>
      </trkpt>
      <trkpt lat="44.56921" lon="3.95919">
        <ele>810.53</ele>
        <time>2013-08-25T10:01:01Z</time>
      </trkpt>
      <trkpt lat="44.5692" lon="3.9592">
        <ele>810.05</ele>
        <time>2013-08-25T10:01:02Z</time>
      </trkpt>
      <trkpt lat="44.56914" lon="3.95925">
        <ele>808.13</ele>
        <time>2013-08-25T10:01:05Z</time>
      </trkpt>
      <trkpt lat="44.56912" lon="3.95924">
        <ele>807.16</ele>
        <time>2013-08-25T10:01:06Z</time>
      </trkpt>
      <trkpt lat="44.56911" lon="3.95923">
        <ele>806.68</ele>
        <time>2013-08-25T10:01:07Z</time>
      </trkpt>
      <trkpt lat="44.56912" lon="3.95921">
        <ele>806.68</ele>
        <time>2013-08-25T10:01:17Z</time>
      </trkpt>
      <trkpt lat="44.56912" lon="3.95921">
        <ele>806.68</ele>
        <time>2013-08-25T10:01:18Z</time>
      </trkpt>
      <trkpt lat="44.56911" lon="3.95923">
        <ele>806.68</ele>
        <time>2013-08-25T10:01:26Z</time>
      </trkpt>
      <trkpt lat="44.56911" lon="3.95923">
        <ele>806.68</ele>
        <time>2013-08-25T10:01:49Z</time>
      </trkpt>
      <trkpt lat="44.56911" lon="3.95923">
        <ele>806.68</ele>
        <time>2013-08-25T10:02:09Z</time>
      </trkpt>
      <trkpt lat="44.56911" lon="3.95922">
        <ele>806.2</ele>
        <time>2013-08-25T10:02:14Z</time>
      </trkpt>
      <trkpt lat="44.5691" lon="3.95919">
        <ele>805.72</ele>
        <time>2013-08-25T10:02:15Z</time>
      </trkpt>
      <trkpt lat="44.56908" lon="3.95918">
        <ele>805.24</ele>
        <time>2013-08-25T10:02:16Z</time>
      </trkpt>
      <trkpt lat="44.56906" lon="3.95917">
        <ele>805.24</ele>
        <time>2013-08-25T10:02:17Z</time>
      </trkpt>
      <trkpt lat="44.56904" lon="3.95918">
        <ele>804.76</ele>
        <time>2013-08-25T10:02:18Z</time>
      </trkpt>
      <trkpt lat="44.56902" lon="3.9592">
        <ele>804.28</ele>
        <time>2013-08-25T10:02:19Z</time>
      </trkpt>
      <trkpt lat="44.569" lon="3.95923">
        <ele>803.32</ele>
        <time>2013-08-25T10:02:20Z</time>
      </trkpt>
      <trkpt lat="44.56897" lon="3.95926">
        <ele>802.84</ele>
        <time>2013-08-25T10:02:21Z</time>
      </trkpt>
      <trkpt lat="44.56886" lon="3.95934">
        <ele>800.44</ele>
        <time>2013-08-25T10:02:24Z</time>
      </trkpt>
      <trkpt lat="44.56871" lon="3.95939">
        <ele>798.03</ele>
        <time>2013-08-25T10:02:28Z</time>
      </trkpt>
      <trkpt lat="44.56862" lon="3.95941">
        <ele>796.59</ele>
        <time>2013-08-25T10:02:31Z</time>
      </trkpt>
      <trkpt lat="44.56859" lon="3.95941">
        <ele>795.15</ele>
        <time>2013-08-25T10:02:32Z</time>
      </trkpt>
      <trkpt lat="44.56854" lon="3.9594">
        <ele>793.71</ele>
        <time>2013-08-25T10:02:34Z</time>
      </trkpt>
      <trkpt lat="44.56834" lon="3.95945">
        <ele>790.82</ele>
        <time>2013-08-25T10:02:39Z</time>
      </trkpt>
      <trkpt lat="44.56829" lon="3.95945">
        <ele>790.34</ele>
        <time>2013-08-25T10:02:40Z</time>
      </trkpt>
      <trkpt lat="44.56809" lon="3.9595">
        <ele>787.46</ele>
        <time>2013-08-25T10:02:44Z</time>
      </trkpt>
      <trkpt lat="44.56804" lon="3.95951">
        <ele>786.02</ele>
        <time>2013-08-25T10:02:45Z</time>
      </trkpt>
      <trkpt lat="44.5678" lon="3.95957">
        <ele>782.65</ele>
        <time>2013-08-25T10:02:50Z</time>
      </trkpt>
      <trkpt lat="44.56763" lon="3.95957">
        <ele>779.29</ele>
        <time>2013-08-25T10:02:55Z</time>
      </trkpt>
      <trkpt lat="44.56742" lon="3.95977">
        <ele>779.77</ele>
        <time>2013-08-25T10:03:06Z</time>
      </trkpt>
      <trkpt lat="44.56736" lon="3.95982">
        <ele>780.25</ele>
        <time>2013-08-25T10:03:18Z</time>
      </trkpt>
      <trkpt lat="44.56736" lon="3.95986">
        <ele>779.77</ele>
        <time>2013-08-25T10:03:32Z</time>
      </trkpt>
      <trkpt lat="44.56736" lon="3.95986">
        <ele>780.25</ele>
        <time>2013-08-25T10:03:34Z</time>
      </trkpt>
      <trkpt lat="44.56736" lon="3.95983">
        <ele>779.77</ele>
        <time>2013-08-25T10:03:45Z</time>
      </trkpt>
      <trkpt lat="44.56736" lon="3.95982">
        <ele>779.77</ele>
        <time>2013-08-25T10:03:46Z</time>
      </trkpt>
      <trkpt lat="44.56733" lon="3.95981">
        <ele>778.32</ele>
        <time>2013-08-25T10:03:49Z</time>
      </trkpt>
      <trkpt lat="44.56726" lon="3.95985">
        <ele>776.88</ele>
        <time>2013-08-25T10:03:59Z</time>
      </trkpt>
      <trkpt lat="44.56723" lon="3.95985">
        <ele>776.4</ele>
        <time>2013-08-25T10:04:01Z</time>
      </trkpt>
      <trkpt lat="44.56722" lon="3.95985">
        <ele>775.92</ele>
        <time>2013-08-25T10:04:02Z</time>
      </trkpt>
      <trkpt lat="44.56718" lon="3.95984">
        <ele>774</ele>
        <time>2013-08-25T10:04:05Z</time>
      </trkpt>
      <trkpt lat="44.56712" lon="3.95985">
        <ele>773.52</ele>
        <time>2013-08-25T10:04:08Z</time>
      </trkpt>
      <trkpt lat="44.56707" lon="3.95982">
        <ele>772.08</ele>
        <time>2013-08-25T10:04:11Z</time>
      </trkpt>
      <trkpt lat="44.56695" lon="3.95984">
        <ele>769.19</ele>
        <time>2013-08-25T10:04:18Z</time>
      </trkpt>
      <trkpt lat="44.56692" lon="3.95987">
        <ele>768.71</ele>
        <time>2013-08-25T10:04:20Z</time>
      </trkpt>
      <trkpt lat="44.56685" lon="3.95992">
        <ele>766.31</ele>
        <time>2013-08-25T10:04:25Z</time>
      </trkpt>
      <trkpt lat="44.56669" lon="3.95999">
        <ele>762.94</ele>
        <time>2013-08-25T10:04:30Z</time>
      </trkpt>
      <trkpt lat="44.56664" lon="3.96008">
        <ele>761.5</ele>
        <time>2013-08-25T10:04:33Z</time>
      </trkpt>
      <trkpt lat="44.56661" lon="3.96016">
        <ele>759.58</ele>
        <time>2013-08-25T10:04:36Z</time>
      </trkpt>
      <trkpt lat="44.56654" lon="3.96028">
        <ele>757.66</ele>
        <time>2013-08-25T10:04:40Z</time>
      </trkpt>
      <trkpt lat="44.56652" lon="3.96033">
        <ele>756.69</ele>
        <time>2013-08-25T10:04:42Z</time>
      </trkpt>
      <trkpt lat="44.56651" lon="3.96035">
        <ele>756.69</ele>
        <time>2013-08-25T10:04:43Z</time>
      </trkpt>
      <trkpt lat="44.56641" lon="3.96038">
        <ele>753.81</ele>
        <time>2013-08-25T10:04:48Z</time>
      </trkpt>
      <trkpt lat="44.56625" lon="3.96027">
        <ele>750.93</ele>
        <time>2013-08-25T10:04:53Z</time>
      </trkpt>
      <trkpt lat="44.56611" lon="3.96017">
        <ele>748.04</ele>
        <time>2013-08-25T10:05:00Z</time>
      </trkpt>
      <trkpt lat="44.56596" lon="3.96027">
        <ele>745.64</ele>
        <time>2013-08-25T10:05:04Z</time>
      </trkpt>
      <trkpt lat="44.56591" lon="3.96032">
        <ele>745.16</ele>
        <time>2013-08-25T10:05:05Z</time>
      </trkpt>
      <trkpt lat="44.56587" lon="3.96037">
        <ele>744.2</ele>
        <time>2013-08-25T10:05:06Z</time>
      </trkpt>
      <trkpt lat="44.56582" lon="3.96041">
        <ele>743.72</ele>
        <time>2013-08-25T10:05:07Z</time>
      </trkpt>
      <trkpt lat="44.56577" lon="3.96046">
        <ele>742.76</ele>
        <time>2013-08-25T10:05:08Z</time>
      </trkpt>
      <trkpt lat="44.56572" lon="3.96051">
        <ele>741.79</ele>
        <time>2013-08-25T10:05:09Z</time>
      </trkpt>
      <trkpt lat="44.56567" lon="3.96055">
        <ele>742.28</ele>
        <time>2013-08-25T10:05:10Z</time>
      </trkpt>
      <trkpt lat="44.56561" lon="3.96057">
        <ele>741.31</ele>
        <time>2013-08-25T10:05:11Z</time>
      </trkpt>
      <trkpt lat="44.56556" lon="3.96059">
        <ele>740.83</ele>
        <time>2013-08-25T10:05:12Z</time>
      </trkpt>
      <trkpt lat="44.56553" lon="3.96061">
        <ele>740.35</ele>
        <time>2013-08-25T10:05:13Z</time>
      </trkpt>
      <trkpt lat="44.56549" lon="3.96064">
        <ele>738.91</ele>
        <time>2013-08-25T10:05:14Z</time>
      </trkpt>
      <trkpt lat="44.56544" lon="3.96067">
        <ele>737.47</ele>
        <time>2013-08-25T10:05:15Z</time>
      </trkpt>
      <trkpt lat="44.56537" lon="3.9607">
        <ele>736.99</ele>
        <time>2013-08-25T10:05:16Z</time>
      </trkpt>
      <trkpt lat="44.5653" lon="3.96072">
        <ele>735.55</ele>
        <time>2013-08-25T10:05:17Z</time>
      </trkpt>
      <trkpt lat="44.56522" lon="3.96076">
        <ele>734.1</ele>
        <time>2013-08-25T10:05:18Z</time>
      </trkpt>
      <trkpt lat="44.56514" lon="3.9608">
        <ele>734.1</ele>
        <time>2013-08-25T10:05:19Z</time>
      </trkpt>
      <trkpt lat="44.5648" lon="3.96094">
        <ele>735.07</ele>
        <time>2013-08-25T10:05:24Z</time>
      </trkpt>
      <trkpt lat="44.56476" lon="3.96097">
        <ele>736.03</ele>
        <time>2013-08-25T10:05:25Z</time>
      </trkpt>
      <trkpt lat="44.56472" lon="3.96099">
        <ele>736.51</ele>
        <time>2013-08-25T10:05:26Z</time>
      </trkpt>
      <trkpt lat="44.56467" lon="3.96105">
        <ele>737.47</ele>
        <time>2013-08-25T10:05:29Z</time>
      </trkpt>
      <trkpt lat="44.56465" lon="3.96107">
        <ele>737.47</ele>
        <time>2013-08-25T10:05:30Z</time>
      </trkpt>
      <trkpt lat="44.56463" lon="3.96109">
        <ele>737.95</ele>
        <time>2013-08-25T10:05:31Z</time>
      </trkpt>
      <trkpt lat="44.56461" lon="3.96111">
        <ele>738.43</ele>
        <time>2013-08-25T10:05:32Z</time>
      </trkpt>
      <trkpt lat="44.56459" lon="3.96114">
        <ele>738.43</ele>
        <time>2013-08-25T10:05:33Z</time>
      </trkpt>
      <trkpt lat="44.56457" lon="3.96117">
        <ele>738.43</ele>
        <time>2013-08-25T10:05:34Z</time>
      </trkpt>
      <trkpt lat="44.56455" lon="3.9612">
        <ele>738.91</ele>
        <time>2013-08-25T10:05:35Z</time>
      </trkpt>
      <trkpt lat="44.56453" lon="3.96123">
        <ele>739.39</ele>
        <time>2013-08-25T10:05:36Z</time>
      </trkpt>
      <trkpt lat="44.56452" lon="3.96126">
        <ele>738.91</ele>
        <time>2013-08-25T10:05:37Z</time>
      </trkpt>
      <trkpt lat="44.56423" lon="3.96157">
        <ele>737.47</ele>
        <time>2013-08-25T10:05:49Z</time>
      </trkpt>
      <trkpt lat="44.56419" lon="3.96161">
        <ele>737.95</ele>
        <time>2013-08-25T10:05:50Z</time>
      </trkpt>
      <trkpt lat="44.56414" lon="3.96165">
        <ele>737.95</ele>
        <time>2013-08-25T10:05:51Z</time>
      </trkpt>
      <trkpt lat="44.5641" lon="3.96167">
        <ele>738.43</ele>
        <time>2013-08-25T10:05:52Z</time>
      </trkpt>
      <trkpt lat="44.56406" lon="3.96169">
        <ele>738.43</ele>
        <time>2013-08-25T10:05:53Z</time>
      </trkpt>
      <trkpt lat="44.56403" lon="3.96169">
        <ele>738.91</ele>
        <time>2013-08-25T10:05:54Z</time>
      </trkpt>
      <trkpt lat="44.564" lon="3.96168">
        <ele>739.39</ele>
        <time>2013-08-25T10:05:55Z</time>
      </trkpt>
      <trkpt lat="44.5636" lon="3.96181">
        <ele>737.95</ele>
        <time>2013-08-25T10:06:06Z</time>
      </trkpt>
      <trkpt lat="44.56342" lon="3.96189">
        <ele>739.39</ele>
        <time>2013-08-25T10:06:17Z</time>
      </trkpt>
      <trkpt lat="44.56322" lon="3.96197">
        <ele>738.91</ele>
        <time>2013-08-25T10:06:30Z</time>
      </trkpt>
      <trkpt lat="44.56295" lon="3.96206">
        <ele>736.99</ele>
        <time>2013-08-25T10:06:41Z</time>
      </trkpt>
      <trkpt lat="44.56278" lon="3.96213">
        <ele>733.62</ele>
        <time>2013-08-25T10:06:46Z</time>
      </trkpt>
      <trkpt lat="44.5626" lon="3.96214">
        <ele>730.26</ele>
        <time>2013-08-25T10:06:51Z</time>
      </trkpt>
      <trkpt lat="44.56257" lon="3.96215">
        <ele>729.78</ele>
        <time>2013-08-25T10:06:52Z</time>
      </trkpt>
      <trkpt lat="44.56253" lon="3.96216">
        <ele>729.3</ele>
        <time>2013-08-25T10:06:53Z</time>
      </trkpt>
      <trkpt lat="44.5625" lon="3.96217">
        <ele>729.3</ele>
        <time>2013-08-25T10:06:54Z</time>
      </trkpt>
      <trkpt lat="44.56248" lon="3.96218">
        <ele>729.78</ele>
        <time>2013-08-25T10:06:55Z</time>
      </trkpt>
      <trkpt lat="44.56246" lon="3.9622">
        <ele>729.78</ele>
        <time>2013-08-25T10:06:56Z</time>
      </trkpt>
      <trkpt lat="44.56245" lon="3.96221">
        <ele>730.26</ele>
        <time>2013-08-25T10:06:57Z</time>
      </trkpt>
      <trkpt lat="44.56243" lon="3.96222">
        <ele>730.26</ele>
        <time>2013-08-25T10:06:58Z</time>
      </trkpt>
      <trkpt lat="44.56242" lon="3.96224">
        <ele>730.26</ele>
        <time>2013-08-25T10:06:59Z</time>
      </trkpt>
      <trkpt lat="44.56241" lon="3.96225">
        <ele>730.26</ele>
        <time>2013-08-25T10:07:00Z</time>
      </trkpt>
      <trkpt lat="44.56239" lon="3.96227">
        <ele>730.26</ele>
        <time>2013-08-25T10:07:01Z</time>
      </trkpt>
      <trkpt lat="44.56238" lon="3.96228">
        <ele>730.74</ele>
        <time>2013-08-25T10:07:02Z</time>
      </trkpt>
      <trkpt lat="44.56236" lon="3.96232">
        <ele>730.74</ele>
        <time>2013-08-25T10:07:05Z</time>
      </trkpt>
      <trkpt lat="44.56234" lon="3.96233">
        <ele>731.22</ele>
        <time>2013-08-25T10:07:06Z</time>
      </trkpt>
      <trkpt lat="44.56234" lon="3.96234">
        <ele>730.74</ele>
        <time>2013-08-25T10:07:07Z</time>
      </trkpt>
      <trkpt lat="44.56233" lon="3.96235">
        <ele>730.74</ele>
        <time>2013-08-25T10:07:08Z</time>
      </trkpt>
      <trkpt lat="44.56231" lon="3.96236">
        <ele>730.74</ele>
        <time>2013-08-25T10:07:09Z</time>
      </trkpt>
      <trkpt lat="44.56229" lon="3.96237">
        <ele>730.26</ele>
        <time>2013-08-25T10:07:18Z</time>
      </trkpt>
      <trkpt lat="44.56229" lon="3.96237">
        <ele>726.41</ele>
        <time>2013-08-25T10:07:41Z</time>
      </trkpt>
      <trkpt lat="44.56229" lon="3.96237">
        <ele>731.22</ele>
        <time>2013-08-25T10:07:42Z</time>
      </trkpt>
      <trkpt lat="44.56229" lon="3.96237">
        <ele>725.93</ele>
        <time>2013-08-25T10:07:43Z</time>
      </trkpt>
      <trkpt lat="44.56229" lon="3.96237">
        <ele>731.22</ele>
        <time>2013-08-25T10:07:44Z</time>
      </trkpt>
      <trkpt lat="44.56229" lon="3.96237">
        <ele>728.34</ele>
        <time>2013-08-25T10:07:46Z</time>
      </trkpt>
      <trkpt lat="44.56229" lon="3.96237">
        <ele>735.07</ele>
        <time>2013-08-25T10:07:51Z</time>
      </trkpt>
      <trkpt lat="44.56229" lon="3.96237">
        <ele>726.41</ele>
        <time>2013-08-25T10:07:52Z</time>
      </trkpt>
      <trkpt lat="44.56228" lon="3.96237">
        <ele>727.37</ele>
        <time>2013-08-25T10:07:53Z</time>
      </trkpt>
      <trkpt lat="44.56228" lon="3.96237">
        <ele>732.18</ele>
        <time>2013-08-25T10:07:55Z</time>
      </trkpt>
      <trkpt lat="44.56228" lon="3.96237">
        <ele>727.86</ele>
        <time>2013-08-25T10:07:57Z</time>
      </trkpt>
      <trkpt lat="44.56228" lon="3.96237">
        <ele>728.82</ele>
        <time>2013-08-25T10:07:58Z</time>
      </trkpt>
      <trkpt lat="44.56228" lon="3.96237">
        <ele>731.7</ele>
        <time>2013-08-25T10:07:59Z</time>
      </trkpt>
      <trkpt lat="44.56228" lon="3.96237">
        <ele>732.66</ele>
        <time>2013-08-25T10:08:01Z</time>
      </trkpt>
      <trkpt lat="44.56228" lon="3.96237">
        <ele>725.93</ele>
        <time>2013-08-25T10:08:02Z</time>
      </trkpt>
      <trkpt lat="44.56228" lon="3.96237">
        <ele>731.7</ele>
        <time>2013-08-25T10:08:03Z</time>
      </trkpt>
      <trkpt lat="44.56228" lon="3.96237">
        <ele>731.22</ele>
        <time>2013-08-25T10:08:10Z</time>
      </trkpt>
      <trkpt lat="44.56228" lon="3.96237">
        <ele>730.74</ele>
        <time>2013-08-25T10:08:12Z</time>
      </trkpt>
      <trkpt lat="44.56228" lon="3.96237">
        <ele>730.74</ele>
        <time>2013-08-25T10:08:20Z</time>
      </trkpt>
      <trkpt lat="44.56228" lon="3.96237">
        <ele>730.26</ele>
        <time>2013-08-25T10:08:43Z</time>
      </trkpt>
      <trkpt lat="44.56228" lon="3.96238">
        <ele>730.26</ele>
        <time>2013-08-25T10:09:01Z</time>
      </trkpt>
      <trkpt lat="44.56207" lon="3.96257">
        <ele>729.78</ele>
        <time>2013-08-25T10:09:11Z</time>
      </trkpt>
      <trkpt lat="44.562" lon="3.96263">
        <ele>728.82</ele>
        <time>2013-08-25T10:09:13Z</time>
      </trkpt>
      <trkpt lat="44.56197" lon="3.96266">
        <ele>728.82</ele>
        <time>2013-08-25T10:09:14Z</time>
      </trkpt>
      <trkpt lat="44.5617" lon="3.96298">
        <ele>730.26</ele>
        <time>2013-08-25T10:09:25Z</time>
      </trkpt>
      <trkpt lat="44.56161" lon="3.96312">
        <ele>732.18</ele>
        <time>2013-08-25T10:09:30Z</time>
      </trkpt>
      <trkpt lat="44.56142" lon="3.96352">
        <ele>734.58</ele>
        <time>2013-08-25T10:09:43Z</time>
      </trkpt>
      <trkpt lat="44.56123" lon="3.96385">
        <ele>736.03</ele>
        <time>2013-08-25T10:09:55Z</time>
      </trkpt>
      <trkpt lat="44.56121" lon="3.96384">
        <ele>736.03</ele>
        <time>2013-08-25T10:09:56Z</time>
      </trkpt>
      <trkpt lat="44.56118" lon="3.96383">
        <ele>736.03</ele>
        <time>2013-08-25T10:09:57Z</time>
      </trkpt>
      <trkpt lat="44.56083" lon="3.96366">
        <ele>737.95</ele>
        <time>2013-08-25T10:10:11Z</time>
      </trkpt>
      <trkpt lat="44.5603" lon="3.9636">
        <ele>736.99</ele>
        <time>2013-08-25T10:10:26Z</time>
      </trkpt>
      <trkpt lat="44.56008" lon="3.9637">
        <ele>737.47</ele>
        <time>2013-08-25T10:10:36Z</time>
      </trkpt>
      <trkpt lat="44.56006" lon="3.96372">
        <ele>737.95</ele>
        <time>2013-08-25T10:10:37Z</time>
      </trkpt>
      <trkpt lat="44.56005" lon="3.96372">
        <ele>737.95</ele>
        <time>2013-08-25T10:10:38Z</time>
      </trkpt>
      <trkpt lat="44.56002" lon="3.96372">
        <ele>737.95</ele>
        <time>2013-08-25T10:10:39Z</time>
      </trkpt>
      <trkpt lat="44.56001" lon="3.96372">
        <ele>738.43</ele>
        <time>2013-08-25T10:10:40Z</time>
      </trkpt>
      <trkpt lat="44.55999" lon="3.96373">
        <ele>738.43</ele>
        <time>2013-08-25T10:10:41Z</time>
      </trkpt>
      <trkpt lat="44.55998" lon="3.96374">
        <ele>738.43</ele>
        <time>2013-08-25T10:10:42Z</time>
      </trkpt>
      <trkpt lat="44.55996" lon="3.96375">
        <ele>738.43</ele>
        <time>2013-08-25T10:10:43Z</time>
      </trkpt>
      <trkpt lat="44.55994" lon="3.96375">
        <ele>738.43</ele>
        <time>2013-08-25T10:10:44Z</time>
      </trkpt>
      <trkpt lat="44.55993" lon="3.96376">
        <ele>738.43</ele>
        <time>2013-08-25T10:10:45Z</time>
      </trkpt>
      <trkpt lat="44.5599" lon="3.96377">
        <ele>738.91</ele>
        <time>2013-08-25T10:10:46Z</time>
      </trkpt>
      <trkpt lat="44.55958" lon="3.9639">
        <ele>741.79</ele>
        <time>2013-08-25T10:11:00Z</time>
      </trkpt>
      <trkpt lat="44.55935" lon="3.96409">
        <ele>743.24</ele>
        <time>2013-08-25T10:11:11Z</time>
      </trkpt>
      <trkpt lat="44.5591" lon="3.96422">
        <ele>743.72</ele>
        <time>2013-08-25T10:11:21Z</time>
      </trkpt>
      <trkpt lat="44.55888" lon="3.96441">
        <ele>745.16</ele>
        <time>2013-08-25T10:11:35Z</time>
      </trkpt>
      <trkpt lat="44.55875" lon="3.96454">
        <ele>745.16</ele>
        <time>2013-08-25T10:11:45Z</time>
      </trkpt>
      <trkpt lat="44.55872" lon="3.96456">
        <ele>745.64</ele>
        <time>2013-08-25T10:11:47Z</time>
      </trkpt>
      <trkpt lat="44.55871" lon="3.96458">
        <ele>746.12</ele>
        <time>2013-08-25T10:11:48Z</time>
      </trkpt>
      <trkpt lat="44.55869" lon="3.96459">
        <ele>745.64</ele>
        <time>2013-08-25T10:11:49Z</time>
      </trkpt>
      <trkpt lat="44.55852" lon="3.96467">
        <ele>748.04</ele>
        <time>2013-08-25T10:12:00Z</time>
      </trkpt>
      <trkpt lat="44.55834" lon="3.96472">
        <ele>750.45</ele>
        <time>2013-08-25T10:12:12Z</time>
      </trkpt>
      <trkpt lat="44.55831" lon="3.96473">
        <ele>750.45</ele>
        <time>2013-08-25T10:12:14Z</time>
      </trkpt>
      <trkpt lat="44.55829" lon="3.96474">
        <ele>750.93</ele>
        <time>2013-08-25T10:12:15Z</time>
      </trkpt>
      <trkpt lat="44.55828" lon="3.96475">
        <ele>751.41</ele>
        <time>2013-08-25T10:12:16Z</time>
      </trkpt>
      <trkpt lat="44.55826" lon="3.96475">
        <ele>751.41</ele>
        <time>2013-08-25T10:12:17Z</time>
      </trkpt>
      <trkpt lat="44.55825" lon="3.96476">
        <ele>751.41</ele>
        <time>2013-08-25T10:12:18Z</time>
      </trkpt>
      <trkpt lat="44.55821" lon="3.9648">
        <ele>751.89</ele>
        <time>2013-08-25T10:12:29Z</time>
      </trkpt>
      <trkpt lat="44.55821" lon="3.9648">
        <ele>752.37</ele>
        <time>2013-08-25T10:12:51Z</time>
      </trkpt>
      <trkpt lat="44.55813" lon="3.96482">
        <ele>752.85</ele>
        <time>2013-08-25T10:13:12Z</time>
      </trkpt>
      <trkpt lat="44.55795" lon="3.96484">
        <ele>754.77</ele>
        <time>2013-08-25T10:13:23Z</time>
      </trkpt>
      <trkpt lat="44.55787" lon="3.9648">
        <ele>755.73</ele>
        <time>2013-08-25T10:13:28Z</time>
      </trkpt>
      <trkpt lat="44.55786" lon="3.96479">
        <ele>756.21</ele>
        <time>2013-08-25T10:13:29Z</time>
      </trkpt>
      <trkpt lat="44.55784" lon="3.96479">
        <ele>756.21</ele>
        <time>2013-08-25T10:13:30Z</time>
      </trkpt>
      <trkpt lat="44.55782" lon="3.96478">
        <ele>756.21</ele>
        <time>2013-08-25T10:13:31Z</time>
      </trkpt>
      <trkpt lat="44.5578" lon="3.96478">
        <ele>757.18</ele>
        <time>2013-08-25T10:13:32Z</time>
      </trkpt>
      <trkpt lat="44.55763" lon="3.96472">
        <ele>758.62</ele>
        <time>2013-08-25T10:13:42Z</time>
      </trkpt>
      <trkpt lat="44.55755" lon="3.96469">
        <ele>759.58</ele>
        <time>2013-08-25T10:13:48Z</time>
      </trkpt>
      <trkpt lat="44.55753" lon="3.96468">
        <ele>759.58</ele>
        <time>2013-08-25T10:13:49Z</time>
      </trkpt>
      <trkpt lat="44.55751" lon="3.96467">
        <ele>759.58</ele>
        <time>2013-08-25T10:13:50Z</time>
      </trkpt>
      <trkpt lat="44.5575" lon="3.96466">
        <ele>759.58</ele>
        <time>2013-08-25T10:13:51Z</time>
      </trkpt>
      <trkpt lat="44.55748" lon="3.96465">
        <ele>760.06</ele>
        <time>2013-08-25T10:13:52Z</time>
      </trkpt>
      <trkpt lat="44.55747" lon="3.96463">
        <ele>759.58</ele>
        <time>2013-08-25T10:13:53Z</time>
      </trkpt>
      <trkpt lat="44.55746" lon="3.96461">
        <ele>759.58</ele>
        <time>2013-08-25T10:13:54Z</time>
      </trkpt>
      <trkpt lat="44.55745" lon="3.9646">
        <ele>759.58</ele>
        <time>2013-08-25T10:13:55Z</time>
      </trkpt>
      <trkpt lat="44.55743" lon="3.96458">
        <ele>759.58</ele>
        <time>2013-08-25T10:13:56Z</time>
      </trkpt>
      <trkpt lat="44.55742" lon="3.96455">
        <ele>759.1</ele>
        <time>2013-08-25T10:13:57Z</time>
      </trkpt>
      <trkpt lat="44.55726" lon="3.96416">
        <ele>758.14</ele>
        <time>2013-08-25T10:14:09Z</time>
      </trkpt>
      <trkpt lat="44.55724" lon="3.96411">
        <ele>757.66</ele>
        <time>2013-08-25T10:14:10Z</time>
      </trkpt>
      <trkpt lat="44.55721" lon="3.96406">
        <ele>757.18</ele>
        <time>2013-08-25T10:14:11Z</time>
      </trkpt>
      <trkpt lat="44.55717" lon="3.96403">
        <ele>756.69</ele>
        <time>2013-08-25T10:14:12Z</time>
      </trkpt>
      <trkpt lat="44.55712" lon="3.964">
        <ele>756.21</ele>
        <time>2013-08-25T10:14:13Z</time>
      </trkpt>
      <trkpt lat="44.55705" lon="3.96399">
        <ele>755.25</ele>
        <time>2013-08-25T10:14:14Z</time>
      </trkpt>
      <trkpt lat="44.55698" lon="3.96401">
        <ele>754.77</ele>
        <time>2013-08-25T10:14:15Z</time>
      </trkpt>
      <trkpt lat="44.55692" lon="3.96405">
        <ele>754.29</ele>
        <time>2013-08-25T10:14:16Z</time>
      </trkpt>
      <trkpt lat="44.55686" lon="3.96411">
        <ele>753.81</ele>
        <time>2013-08-25T10:14:17Z</time>
      </trkpt>
      <trkpt lat="44.55682" lon="3.96419">
        <ele>753.81</ele>
        <time>2013-08-25T10:14:18Z</time>
      </trkpt>
      <trkpt lat="44.55679" lon="3.96427">
        <ele>754.29</ele>
        <time>2013-08-25T10:14:19Z</time>
      </trkpt>
      <trkpt lat="44.55678" lon="3.96436">
        <ele>753.33</ele>
        <time>2013-08-25T10:14:20Z</time>
      </trkpt>
      <trkpt lat="44.55677" lon="3.96444">
        <ele>752.85</ele>
        <time>2013-08-25T10:14:21Z</time>
      </trkpt>
      <trkpt lat="44.55677" lon="3.96453">
        <ele>753.81</ele>
        <time>2013-08-25T10:14:22Z</time>
      </trkpt>
      <trkpt lat="44.55677" lon="3.9646">
        <ele>753.33</ele>
        <time>2013-08-25T10:14:23Z</time>
      </trkpt>
      <trkpt lat="44.55677" lon="3.96468">
        <ele>752.85</ele>
        <time>2013-08-25T10:14:24Z</time>
      </trkpt>
      <trkpt lat="44.55676" lon="3.96501">
        <ele>752.85</ele>
        <time>2013-08-25T10:14:28Z</time>
      </trkpt>
      <trkpt lat="44.55668" lon="3.96566">
        <ele>751.89</ele>
        <time>2013-08-25T10:14:36Z</time>
      </trkpt>
      <trkpt lat="44.55664" lon="3.96579">
        <ele>751.89</ele>
        <time>2013-08-25T10:14:38Z</time>
      </trkpt>
      <trkpt lat="44.55661" lon="3.96585">
        <ele>751.89</ele>
        <time>2013-08-25T10:14:39Z</time>
      </trkpt>
      <trkpt lat="44.55654" lon="3.96596">
        <ele>751.41</ele>
        <time>2013-08-25T10:14:41Z</time>
      </trkpt>
      <trkpt lat="44.55651" lon="3.96603">
        <ele>751.41</ele>
        <time>2013-08-25T10:14:42Z</time>
      </trkpt>
      <trkpt lat="44.55648" lon="3.96609">
        <ele>751.41</ele>
        <time>2013-08-25T10:14:43Z</time>
      </trkpt>
      <trkpt lat="44.55645" lon="3.96616">
        <ele>750.45</ele>
        <time>2013-08-25T10:14:44Z</time>
      </trkpt>
      <trkpt lat="44.55643" lon="3.96625">
        <ele>750.45</ele>
        <time>2013-08-25T10:14:45Z</time>
      </trkpt>
      <trkpt lat="44.55642" lon="3.96634">
        <ele>749.97</ele>
        <time>2013-08-25T10:14:46Z</time>
      </trkpt>
      <trkpt lat="44.55621" lon="3.96694">
        <ele>750.93</ele>
        <time>2013-08-25T10:14:56Z</time>
      </trkpt>
      <trkpt lat="44.55593" lon="3.96741">
        <ele>751.41</ele>
        <time>2013-08-25T10:15:10Z</time>
      </trkpt>
      <trkpt lat="44.55564" lon="3.96793">
        <ele>751.89</ele>
        <time>2013-08-25T10:15:25Z</time>
      </trkpt>
      <trkpt lat="44.55544" lon="3.96851">
        <ele>751.41</ele>
        <time>2013-08-25T10:15:37Z</time>
      </trkpt>
      <trkpt lat="44.55515" lon="3.969">
        <ele>750.93</ele>
        <time>2013-08-25T10:15:49Z</time>
      </trkpt>
      <trkpt lat="44.55486" lon="3.96929">
        <ele>750.93</ele>
        <time>2013-08-25T10:15:59Z</time>
      </trkpt>
      <trkpt lat="44.55465" lon="3.96958">
        <ele>750.93</ele>
        <time>2013-08-25T10:16:09Z</time>
      </trkpt>
      <trkpt lat="44.55449" lon="3.96977">
        <ele>751.41</ele>
        <time>2013-08-25T10:16:20Z</time>
      </trkpt>
      <trkpt lat="44.55448" lon="3.96979">
        <ele>751.41</ele>
        <time>2013-08-25T10:16:21Z</time>
      </trkpt>
      <trkpt lat="44.55448" lon="3.96982">
        <ele>751.89</ele>
        <time>2013-08-25T10:16:22Z</time>
      </trkpt>
      <trkpt lat="44.55447" lon="3.96984">
        <ele>751.89</ele>
        <time>2013-08-25T10:16:23Z</time>
      </trkpt>
      <trkpt lat="44.55447" lon="3.96986">
        <ele>751.89</ele>
        <time>2013-08-25T10:16:24Z</time>
      </trkpt>
      <trkpt lat="44.55446" lon="3.96988">
        <ele>751.89</ele>
        <time>2013-08-25T10:16:25Z</time>
      </trkpt>
      <trkpt lat="44.55445" lon="3.9699">
        <ele>752.37</ele>
        <time>2013-08-25T10:16:27Z</time>
      </trkpt>
      <trkpt lat="44.55445" lon="3.96991">
        <ele>752.85</ele>
        <time>2013-08-25T10:16:28Z</time>
      </trkpt>
      <trkpt lat="44.55446" lon="3.96993">
        <ele>752.37</ele>
        <time>2013-08-25T10:16:29Z</time>
      </trkpt>
      <trkpt lat="44.55447" lon="3.96994">
        <ele>752.85</ele>
        <time>2013-08-25T10:16:30Z</time>
      </trkpt>
      <trkpt lat="44.55449" lon="3.96996">
        <ele>753.33</ele>
        <time>2013-08-25T10:16:31Z</time>
      </trkpt>
      <trkpt lat="44.5545" lon="3.96998">
        <ele>753.33</ele>
        <time>2013-08-25T10:16:32Z</time>
      </trkpt>
      <trkpt lat="44.5545" lon="3.97006">
        <ele>753.33</ele>
        <time>2013-08-25T10:16:41Z</time>
      </trkpt>
      <trkpt lat="44.5545" lon="3.97006">
        <ele>749.97</ele>
        <time>2013-08-25T10:16:53Z</time>
      </trkpt>
      <trkpt lat="44.5545" lon="3.97006">
        <ele>754.77</ele>
        <time>2013-08-25T10:16:54Z</time>
      </trkpt>
      <trkpt lat="44.5545" lon="3.97006">
        <ele>748.52</ele>
        <time>2013-08-25T10:16:56Z</time>
      </trkpt>
      <trkpt lat="44.5545" lon="3.97006">
        <ele>757.18</ele>
        <time>2013-08-25T10:16:57Z</time>
      </trkpt>
      <trkpt lat="44.5545" lon="3.97006">
        <ele>751.41</ele>
        <time>2013-08-25T10:16:58Z</time>
      </trkpt>
      <trkpt lat="44.5545" lon="3.97006">
        <ele>757.18</ele>
        <time>2013-08-25T10:16:59Z</time>
      </trkpt>
      <trkpt lat="44.5545" lon="3.97006">
        <ele>753.33</ele>
        <time>2013-08-25T10:17:00Z</time>
      </trkpt>
      <trkpt lat="44.5545" lon="3.97006">
        <ele>756.21</ele>
        <time>2013-08-25T10:17:01Z</time>
      </trkpt>
      <trkpt lat="44.5545" lon="3.97006">
        <ele>757.66</ele>
        <time>2013-08-25T10:17:02Z</time>
      </trkpt>
      <trkpt lat="44.5545" lon="3.97006">
        <ele>757.66</ele>
        <time>2013-08-25T10:17:03Z</time>
      </trkpt>
      <trkpt lat="44.5545" lon="3.97006">
        <ele>753.81</ele>
        <time>2013-08-25T10:17:04Z</time>
      </trkpt>
      <trkpt lat="44.5545" lon="3.97006">
        <ele>758.62</ele>
        <time>2013-08-25T10:17:05Z</time>
      </trkpt>
      <trkpt lat="44.5545" lon="3.97006">
        <ele>755.73</ele>
        <time>2013-08-25T10:17:06Z</time>
      </trkpt>
      <trkpt lat="44.5545" lon="3.97006">
        <ele>748.04</ele>
        <time>2013-08-25T10:17:07Z</time>
      </trkpt>
      <trkpt lat="44.5545" lon="3.97006">
        <ele>753.81</ele>
        <time>2013-08-25T10:17:08Z</time>
      </trkpt>
      <trkpt lat="44.5545" lon="3.97006">
        <ele>757.66</ele>
        <time>2013-08-25T10:17:09Z</time>
      </trkpt>
      <trkpt lat="44.5545" lon="3.97006">
        <ele>753.81</ele>
        <time>2013-08-25T10:17:10Z</time>
      </trkpt>
      <trkpt lat="44.5545" lon="3.97006">
        <ele>748.04</ele>
        <time>2013-08-25T10:17:11Z</time>
      </trkpt>
      <trkpt lat="44.5545" lon="3.97006">
        <ele>754.29</ele>
        <time>2013-08-25T10:17:12Z</time>
      </trkpt>
      <trkpt lat="44.5545" lon="3.97006">
        <ele>755.73</ele>
        <time>2013-08-25T10:17:14Z</time>
      </trkpt>
      <trkpt lat="44.5545" lon="3.97006">
        <ele>758.62</ele>
        <time>2013-08-25T10:17:16Z</time>
      </trkpt>
      <trkpt lat="44.5545" lon="3.97006">
        <ele>752.85</ele>
        <time>2013-08-25T10:17:17Z</time>
      </trkpt>
      <trkpt lat="44.55441" lon="3.9702">
        <ele>754.29</ele>
        <time>2013-08-25T10:17:28Z</time>
      </trkpt>
      <trkpt lat="44.55434" lon="3.97029">
        <ele>754.77</ele>
        <time>2013-08-25T10:17:33Z</time>
      </trkpt>
      <trkpt lat="44.55427" lon="3.97038">
        <ele>754.77</ele>
        <time>2013-08-25T10:17:37Z</time>
      </trkpt>
      <trkpt lat="44.55413" lon="3.97058">
        <ele>753.33</ele>
        <time>2013-08-25T10:17:42Z</time>
      </trkpt>
      <trkpt lat="44.55412" lon="3.97064">
        <ele>753.33</ele>
        <time>2013-08-25T10:17:43Z</time>
      </trkpt>
      <trkpt lat="44.55409" lon="3.9707">
        <ele>751.89</ele>
        <time>2013-08-25T10:17:44Z</time>
      </trkpt>
      <trkpt lat="44.55406" lon="3.97076">
        <ele>751.41</ele>
        <time>2013-08-25T10:17:45Z</time>
      </trkpt>
      <trkpt lat="44.55404" lon="3.97083">
        <ele>750.93</ele>
        <time>2013-08-25T10:17:46Z</time>
      </trkpt>
      <trkpt lat="44.55397" lon="3.971">
        <ele>748.52</ele>
        <time>2013-08-25T10:17:48Z</time>
      </trkpt>
      <trkpt lat="44.55389" lon="3.97115">
        <ele>747.08</ele>
        <time>2013-08-25T10:17:50Z</time>
      </trkpt>
      <trkpt lat="44.55385" lon="3.97123">
        <ele>747.08</ele>
        <time>2013-08-25T10:17:51Z</time>
      </trkpt>
      <trkpt lat="44.55378" lon="3.97136">
        <ele>747.56</ele>
        <time>2013-08-25T10:17:53Z</time>
      </trkpt>
      <trkpt lat="44.55363" lon="3.97161">
        <ele>745.64</ele>
        <time>2013-08-25T10:17:57Z</time>
      </trkpt>
      <trkpt lat="44.55358" lon="3.97173">
        <ele>745.16</ele>
        <time>2013-08-25T10:17:59Z</time>
      </trkpt>
      <trkpt lat="44.55354" lon="3.97177">
        <ele>744.2</ele>
        <time>2013-08-25T10:18:00Z</time>
      </trkpt>
      <trkpt lat="44.55351" lon="3.9718">
        <ele>744.2</ele>
        <time>2013-08-25T10:18:01Z</time>
      </trkpt>
      <trkpt lat="44.55348" lon="3.97182">
        <ele>744.2</ele>
        <time>2013-08-25T10:18:02Z</time>
      </trkpt>
      <trkpt lat="44.55345" lon="3.97184">
        <ele>744.2</ele>
        <time>2013-08-25T10:18:03Z</time>
      </trkpt>
      <trkpt lat="44.55343" lon="3.97187">
        <ele>743.24</ele>
        <time>2013-08-25T10:18:04Z</time>
      </trkpt>
      <trkpt lat="44.55341" lon="3.9719">
        <ele>742.28</ele>
        <time>2013-08-25T10:18:05Z</time>
      </trkpt>
      <trkpt lat="44.55338" lon="3.97193">
        <ele>742.28</ele>
        <time>2013-08-25T10:18:06Z</time>
      </trkpt>
      <trkpt lat="44.55337" lon="3.97196">
        <ele>741.31</ele>
        <time>2013-08-25T10:18:07Z</time>
      </trkpt>
      <trkpt lat="44.55335" lon="3.97199">
        <ele>741.31</ele>
        <time>2013-08-25T10:18:08Z</time>
      </trkpt>
      <trkpt lat="44.55334" lon="3.97202">
        <ele>740.83</ele>
        <time>2013-08-25T10:18:09Z</time>
      </trkpt>
      <trkpt lat="44.55333" lon="3.97205">
        <ele>739.87</ele>
        <time>2013-08-25T10:18:10Z</time>
      </trkpt>
      <trkpt lat="44.5533" lon="3.97216">
        <ele>737.95</ele>
        <time>2013-08-25T10:18:13Z</time>
      </trkpt>
      <trkpt lat="44.5533" lon="3.97227">
        <ele>737.47</ele>
        <time>2013-08-25T10:18:16Z</time>
      </trkpt>
      <trkpt lat="44.55327" lon="3.97238">
        <ele>736.99</ele>
        <time>2013-08-25T10:18:19Z</time>
      </trkpt>
      <trkpt lat="44.55328" lon="3.97242">
        <ele>736.99</ele>
        <time>2013-08-25T10:18:20Z</time>
      </trkpt>
      <trkpt lat="44.55331" lon="3.97263">
        <ele>735.07</ele>
        <time>2013-08-25T10:18:25Z</time>
      </trkpt>
      <trkpt lat="44.55325" lon="3.97309">
        <ele>734.1</ele>
        <time>2013-08-25T10:18:34Z</time>
      </trkpt>
      <trkpt lat="44.55327" lon="3.97311">
        <ele>734.58</ele>
        <time>2013-08-25T10:18:35Z</time>
      </trkpt>
      <trkpt lat="44.5533" lon="3.97314">
        <ele>734.1</ele>
        <time>2013-08-25T10:18:36Z</time>
      </trkpt>
      <trkpt lat="44.55331" lon="3.97318">
        <ele>733.14</ele>
        <time>2013-08-25T10:18:37Z</time>
      </trkpt>
      <trkpt lat="44.55333" lon="3.97323">
        <ele>732.18</ele>
        <time>2013-08-25T10:18:38Z</time>
      </trkpt>
      <trkpt lat="44.55336" lon="3.97334">
        <ele>731.22</ele>
        <time>2013-08-25T10:18:40Z</time>
      </trkpt>
      <trkpt lat="44.55347" lon="3.97349">
        <ele>729.78</ele>
        <time>2013-08-25T10:18:44Z</time>
      </trkpt>
      <trkpt lat="44.55363" lon="3.97384">
        <ele>731.22</ele>
        <time>2013-08-25T10:18:54Z</time>
      </trkpt>
      <trkpt lat="44.55365" lon="3.97389">
        <ele>732.66</ele>
        <time>2013-08-25T10:18:57Z</time>
      </trkpt>
      <trkpt lat="44.55365" lon="3.97392">
        <ele>732.66</ele>
        <time>2013-08-25T10:18:58Z</time>
      </trkpt>
      <trkpt lat="44.55365" lon="3.97398">
        <ele>733.62</ele>
        <time>2013-08-25T10:19:01Z</time>
      </trkpt>
      <trkpt lat="44.55367" lon="3.97412">
        <ele>732.18</ele>
        <time>2013-08-25T10:19:06Z</time>
      </trkpt>
      <trkpt lat="44.55367" lon="3.97415">
        <ele>732.18</ele>
        <time>2013-08-25T10:19:07Z</time>
      </trkpt>
      <trkpt lat="44.55367" lon="3.97425">
        <ele>730.74</ele>
        <time>2013-08-25T10:19:10Z</time>
      </trkpt>
      <trkpt lat="44.55366" lon="3.97428">
        <ele>730.74</ele>
        <time>2013-08-25T10:19:11Z</time>
      </trkpt>
      <trkpt lat="44.55365" lon="3.97433">
        <ele>729.78</ele>
        <time>2013-08-25T10:19:12Z</time>
      </trkpt>
      <trkpt lat="44.55364" lon="3.97438">
        <ele>728.82</ele>
        <time>2013-08-25T10:19:13Z</time>
      </trkpt>
      <trkpt lat="44.55363" lon="3.97442">
        <ele>728.34</ele>
        <time>2013-08-25T10:19:14Z</time>
      </trkpt>
      <trkpt lat="44.55362" lon="3.97448">
        <ele>727.86</ele>
        <time>2013-08-25T10:19:15Z</time>
      </trkpt>
      <trkpt lat="44.55361" lon="3.97452">
        <ele>728.34</ele>
        <time>2013-08-25T10:19:16Z</time>
      </trkpt>
      <trkpt lat="44.55361" lon="3.97455">
        <ele>728.34</ele>
        <time>2013-08-25T10:19:17Z</time>
      </trkpt>
      <trkpt lat="44.5536" lon="3.97459">
        <ele>728.82</ele>
        <time>2013-08-25T10:19:18Z</time>
      </trkpt>
      <trkpt lat="44.5536" lon="3.97462">
        <ele>729.3</ele>
        <time>2013-08-25T10:19:19Z</time>
      </trkpt>
      <trkpt lat="44.5536" lon="3.97465">
        <ele>729.3</ele>
        <time>2013-08-25T10:19:20Z</time>
      </trkpt>
      <trkpt lat="44.5536" lon="3.97468">
        <ele>729.78</ele>
        <time>2013-08-25T10:19:21Z</time>
      </trkpt>
      <trkpt lat="44.5536" lon="3.9747">
        <ele>729.3</ele>
        <time>2013-08-25T10:19:22Z</time>
      </trkpt>
      <trkpt lat="44.5536" lon="3.97473">
        <ele>730.26</ele>
        <time>2013-08-25T10:19:23Z</time>
      </trkpt>
      <trkpt lat="44.55363" lon="3.97476">
        <ele>729.3</ele>
        <time>2013-08-25T10:19:25Z</time>
      </trkpt>
      <trkpt lat="44.55365" lon="3.97479">
        <ele>728.34</ele>
        <time>2013-08-25T10:19:26Z</time>
      </trkpt>
      <trkpt lat="44.55367" lon="3.97482">
        <ele>727.37</ele>
        <time>2013-08-25T10:19:27Z</time>
      </trkpt>
      <trkpt lat="44.5537" lon="3.97486">
        <ele>726.89</ele>
        <time>2013-08-25T10:19:28Z</time>
      </trkpt>
      <trkpt lat="44.55373" lon="3.97488">
        <ele>725.93</ele>
        <time>2013-08-25T10:19:29Z</time>
      </trkpt>
      <trkpt lat="44.55375" lon="3.9749">
        <ele>725.45</ele>
        <time>2013-08-25T10:19:30Z</time>
      </trkpt>
      <trkpt lat="44.55378" lon="3.97491">
        <ele>724.97</ele>
        <time>2013-08-25T10:19:31Z</time>
      </trkpt>
      <trkpt lat="44.5538" lon="3.97493">
        <ele>724.49</ele>
        <time>2013-08-25T10:19:32Z</time>
      </trkpt>
      <trkpt lat="44.55381" lon="3.97496">
        <ele>724.01</ele>
        <time>2013-08-25T10:19:33Z</time>
      </trkpt>
      <trkpt lat="44.55382" lon="3.97499">
        <ele>723.53</ele>
        <time>2013-08-25T10:19:34Z</time>
      </trkpt>
      <trkpt lat="44.55382" lon="3.97502">
        <ele>723.05</ele>
        <time>2013-08-25T10:19:35Z</time>
      </trkpt>
      <trkpt lat="44.55382" lon="3.97506">
        <ele>722.57</ele>
        <time>2013-08-25T10:19:36Z</time>
      </trkpt>
      <trkpt lat="44.55383" lon="3.97508">
        <ele>722.57</ele>
        <time>2013-08-25T10:19:37Z</time>
      </trkpt>
      <trkpt lat="44.55385" lon="3.9751">
        <ele>722.09</ele>
        <time>2013-08-25T10:19:38Z</time>
      </trkpt>
      <trkpt lat="44.55386" lon="3.97513">
        <ele>721.61</ele>
        <time>2013-08-25T10:19:39Z</time>
      </trkpt>
      <trkpt lat="44.55386" lon="3.97515">
        <ele>721.61</ele>
        <time>2013-08-25T10:19:40Z</time>
      </trkpt>
      <trkpt lat="44.55388" lon="3.97518">
        <ele>721.61</ele>
        <time>2013-08-25T10:19:41Z</time>
      </trkpt>
      <trkpt lat="44.5539" lon="3.9752">
        <ele>721.13</ele>
        <time>2013-08-25T10:19:43Z</time>
      </trkpt>
      <trkpt lat="44.55391" lon="3.97522">
        <ele>720.65</ele>
        <time>2013-08-25T10:19:44Z</time>
      </trkpt>
      <trkpt lat="44.55402" lon="3.97533">
        <ele>719.2</ele>
        <time>2013-08-25T10:19:49Z</time>
      </trkpt>
      <trkpt lat="44.55405" lon="3.97537">
        <ele>719.2</ele>
        <time>2013-08-25T10:19:51Z</time>
      </trkpt>
      <trkpt lat="44.55406" lon="3.97543">
        <ele>719.68</ele>
        <time>2013-08-25T10:19:55Z</time>
      </trkpt>
      <trkpt lat="44.55407" lon="3.97552">
        <ele>720.16</ele>
        <time>2013-08-25T10:20:03Z</time>
      </trkpt>
      <trkpt lat="44.55407" lon="3.97552">
        <ele>720.16</ele>
        <time>2013-08-25T10:20:21Z</time>
      </trkpt>
      <trkpt lat="44.55408" lon="3.9756">
        <ele>719.68</ele>
        <time>2013-08-25T10:20:33Z</time>
      </trkpt>
      <trkpt lat="44.55408" lon="3.9756">
        <ele>719.68</ele>
        <time>2013-08-25T10:20:55Z</time>
      </trkpt>
      <trkpt lat="44.55408" lon="3.9756">
        <ele>719.68</ele>
        <time>2013-08-25T10:21:26Z</time>
      </trkpt>
      <trkpt lat="44.55408" lon="3.97559">
        <ele>719.2</ele>
        <time>2013-08-25T10:21:46Z</time>
      </trkpt>
      <trkpt lat="44.55417" lon="3.97562">
        <ele>722.09</ele>
        <time>2013-08-25T11:12:24Z</time>
      </trkpt>
      <trkpt lat="44.55418" lon="3.97566">
        <ele>722.57</ele>
        <time>2013-08-25T11:12:43Z</time>
      </trkpt>
      <trkpt lat="44.55421" lon="3.97567">
        <ele>724.01</ele>
        <time>2013-08-25T11:13:01Z</time>
      </trkpt>
      <trkpt lat="44.55421" lon="3.97567">
        <ele>721.13</ele>
        <time>2013-08-25T11:13:02Z</time>
      </trkpt>
      <trkpt lat="44.55422" lon="3.97567">
        <ele>723.53</ele>
        <time>2013-08-25T11:13:03Z</time>
      </trkpt>
      <trkpt lat="44.55423" lon="3.97567">
        <ele>720.65</ele>
        <time>2013-08-25T11:13:11Z</time>
      </trkpt>
      <trkpt lat="44.55423" lon="3.97567">
        <ele>724.49</ele>
        <time>2013-08-25T11:13:22Z</time>
      </trkpt>
      <trkpt lat="44.55424" lon="3.97567">
        <ele>721.13</ele>
        <time>2013-08-25T11:13:24Z</time>
      </trkpt>
      <trkpt lat="44.55425" lon="3.97567">
        <ele>720.16</ele>
        <time>2013-08-25T11:13:26Z</time>
      </trkpt>
      <trkpt lat="44.55425" lon="3.97567">
        <ele>724.01</ele>
        <time>2013-08-25T11:13:28Z</time>
      </trkpt>
      <trkpt lat="44.55426" lon="3.97568">
        <ele>720.16</ele>
        <time>2013-08-25T11:13:31Z</time>
      </trkpt>
      <trkpt lat="44.55426" lon="3.97568">
        <ele>723.05</ele>
        <time>2013-08-25T11:13:32Z</time>
      </trkpt>
      <trkpt lat="44.55424" lon="3.97567">
        <ele>720.65</ele>
        <time>2013-08-25T11:13:41Z</time>
      </trkpt>
      <trkpt lat="44.55422" lon="3.97567">
        <ele>722.57</ele>
        <time>2013-08-25T11:13:44Z</time>
      </trkpt>
      <trkpt lat="44.55417" lon="3.97563">
        <ele>723.53</ele>
        <time>2013-08-25T11:14:09Z</time>
      </trkpt>
      <trkpt lat="44.55417" lon="3.97563">
        <ele>718.72</ele>
        <time>2013-08-25T11:14:11Z</time>
      </trkpt>
      <trkpt lat="44.55417" lon="3.97563">
        <ele>723.05</ele>
        <time>2013-08-25T11:14:12Z</time>
      </trkpt>
      <trkpt lat="44.55417" lon="3.97563">
        <ele>723.05</ele>
        <time>2013-08-25T11:14:38Z</time>
      </trkpt>
      <trkpt lat="44.55417" lon="3.97563">
        <ele>723.05</ele>
        <time>2013-08-25T11:14:55Z</time>
      </trkpt>
      <trkpt lat="44.55417" lon="3.97563">
        <ele>723.53</ele>
        <time>2013-08-25T11:15:17Z</time>
      </trkpt>
      <trkpt lat="44.55417" lon="3.97564">
        <ele>720.16</ele>
        <time>2013-08-25T11:15:38Z</time>
      </trkpt>
      <trkpt lat="44.55417" lon="3.97564">
        <ele>717.28</ele>
        <time>2013-08-25T11:15:54Z</time>
      </trkpt>
      <trkpt lat="44.55417" lon="3.97564">
        <ele>717.28</ele>
        <time>2013-08-25T11:15:57Z</time>
      </trkpt>
      <trkpt lat="44.55421" lon="3.9757">
        <ele>716.8</ele>
        <time>2013-08-25T11:16:07Z</time>
      </trkpt>
      <trkpt lat="44.55431" lon="3.97579">
        <ele>718.72</ele>
        <time>2013-08-25T11:16:17Z</time>
      </trkpt>
      <trkpt lat="44.55438" lon="3.97589">
        <ele>720.16</ele>
        <time>2013-08-25T11:16:30Z</time>
      </trkpt>
      <trkpt lat="44.5544" lon="3.97596">
        <ele>722.09</ele>
        <time>2013-08-25T11:16:42Z</time>
      </trkpt>
      <trkpt lat="44.55441" lon="3.97603">
        <ele>723.05</ele>
        <time>2013-08-25T11:16:52Z</time>
      </trkpt>
      <trkpt lat="44.55438" lon="3.97607">
        <ele>724.01</ele>
        <time>2013-08-25T11:17:06Z</time>
      </trkpt>
      <trkpt lat="44.55437" lon="3.97608">
        <ele>724.97</ele>
        <time>2013-08-25T11:17:20Z</time>
      </trkpt>
      <trkpt lat="44.55434" lon="3.97607">
        <ele>726.41</ele>
        <time>2013-08-25T11:17:33Z</time>
      </trkpt>
      <trkpt lat="44.55434" lon="3.97606">
        <ele>727.86</ele>
        <time>2013-08-25T11:17:42Z</time>
      </trkpt>
      <trkpt lat="44.55434" lon="3.97603">
        <ele>728.82</ele>
        <time>2013-08-25T11:17:53Z</time>
      </trkpt>
      <trkpt lat="44.55437" lon="3.9761">
        <ele>730.26</ele>
        <time>2013-08-25T11:18:03Z</time>
      </trkpt>
      <trkpt lat="44.5543" lon="3.97608">
        <ele>732.18</ele>
        <time>2013-08-25T11:18:15Z</time>
      </trkpt>
      <trkpt lat="44.55432" lon="3.9761">
        <ele>733.62</ele>
        <time>2013-08-25T11:18:26Z</time>
      </trkpt>
      <trkpt lat="44.55436" lon="3.97619">
        <ele>735.07</ele>
        <time>2013-08-25T11:18:37Z</time>
      </trkpt>
      <trkpt lat="44.55439" lon="3.97629">
        <ele>736.99</ele>
        <time>2013-08-25T11:18:49Z</time>
      </trkpt>
      <trkpt lat="44.55441" lon="3.97634">
        <ele>737.47</ele>
        <time>2013-08-25T11:18:56Z</time>
      </trkpt>
      <trkpt lat="44.55443" lon="3.97638">
        <ele>738.43</ele>
        <time>2013-08-25T11:19:00Z</time>
      </trkpt>
      <trkpt lat="44.55448" lon="3.97643">
        <ele>738.91</ele>
        <time>2013-08-25T11:19:05Z</time>
      </trkpt>
      <trkpt lat="44.55447" lon="3.97644">
        <ele>738.91</ele>
        <time>2013-08-25T11:19:07Z</time>
      </trkpt>
      <trkpt lat="44.55449" lon="3.97646">
        <ele>739.87</ele>
        <time>2013-08-25T11:19:11Z</time>
      </trkpt>
      <trkpt lat="44.55452" lon="3.97651">
        <ele>741.31</ele>
        <time>2013-08-25T11:19:23Z</time>
      </trkpt>
      <trkpt lat="44.55451" lon="3.97661">
        <ele>742.76</ele>
        <time>2013-08-25T11:19:34Z</time>
      </trkpt>
      <trkpt lat="44.55455" lon="3.97671">
        <ele>743.72</ele>
        <time>2013-08-25T11:19:47Z</time>
      </trkpt>
      <trkpt lat="44.55457" lon="3.97679">
        <ele>744.68</ele>
        <time>2013-08-25T11:20:00Z</time>
      </trkpt>
      <trkpt lat="44.55457" lon="3.9769">
        <ele>744.68</ele>
        <time>2013-08-25T11:20:10Z</time>
      </trkpt>
      <trkpt lat="44.55462" lon="3.97698">
        <ele>745.64</ele>
        <time>2013-08-25T11:20:20Z</time>
      </trkpt>
      <trkpt lat="44.55465" lon="3.97704">
        <ele>746.12</ele>
        <time>2013-08-25T11:20:29Z</time>
      </trkpt>
      <trkpt lat="44.55467" lon="3.97708">
        <ele>746.6</ele>
        <time>2013-08-25T11:20:35Z</time>
      </trkpt>
      <trkpt lat="44.55465" lon="3.97717">
        <ele>747.56</ele>
        <time>2013-08-25T11:20:46Z</time>
      </trkpt>
      <trkpt lat="44.55466" lon="3.97721">
        <ele>748.52</ele>
        <time>2013-08-25T11:20:55Z</time>
      </trkpt>
      <trkpt lat="44.55468" lon="3.97724">
        <ele>749</ele>
        <time>2013-08-25T11:20:58Z</time>
      </trkpt>
      <trkpt lat="44.55475" lon="3.97729">
        <ele>748.52</ele>
        <time>2013-08-25T11:21:01Z</time>
      </trkpt>
      <trkpt lat="44.55484" lon="3.97741">
        <ele>750.45</ele>
        <time>2013-08-25T11:21:12Z</time>
      </trkpt>
      <trkpt lat="44.55495" lon="3.97754">
        <ele>751.89</ele>
        <time>2013-08-25T11:21:25Z</time>
      </trkpt>
      <trkpt lat="44.55496" lon="3.97763">
        <ele>753.33</ele>
        <time>2013-08-25T11:21:35Z</time>
      </trkpt>
      <trkpt lat="44.55498" lon="3.97768">
        <ele>754.29</ele>
        <time>2013-08-25T11:21:40Z</time>
      </trkpt>
      <trkpt lat="44.55499" lon="3.97776">
        <ele>755.25</ele>
        <time>2013-08-25T11:21:51Z</time>
      </trkpt>
      <trkpt lat="44.555" lon="3.97778">
        <ele>755.73</ele>
        <time>2013-08-25T11:21:55Z</time>
      </trkpt>
      <trkpt lat="44.55506" lon="3.97787">
        <ele>757.66</ele>
        <time>2013-08-25T11:22:06Z</time>
      </trkpt>
      <trkpt lat="44.55509" lon="3.97797">
        <ele>757.66</ele>
        <time>2013-08-25T11:22:20Z</time>
      </trkpt>
      <trkpt lat="44.5551" lon="3.97807">
        <ele>757.66</ele>
        <time>2013-08-25T11:22:29Z</time>
      </trkpt>
      <trkpt lat="44.5551" lon="3.97816">
        <ele>757.18</ele>
        <time>2013-08-25T11:22:32Z</time>
      </trkpt>
      <trkpt lat="44.55522" lon="3.97823">
        <ele>760.06</ele>
        <time>2013-08-25T11:22:42Z</time>
      </trkpt>
      <trkpt lat="44.55524" lon="3.97828">
        <ele>760.54</ele>
        <time>2013-08-25T11:22:47Z</time>
      </trkpt>
      <trkpt lat="44.55533" lon="3.97842">
        <ele>761.02</ele>
        <time>2013-08-25T11:22:53Z</time>
      </trkpt>
      <trkpt lat="44.5554" lon="3.97846">
        <ele>761.5</ele>
        <time>2013-08-25T11:22:57Z</time>
      </trkpt>
      <trkpt lat="44.55543" lon="3.97846">
        <ele>761.5</ele>
        <time>2013-08-25T11:23:02Z</time>
      </trkpt>
      <trkpt lat="44.55553" lon="3.97855">
        <ele>762.94</ele>
        <time>2013-08-25T11:23:10Z</time>
      </trkpt>
      <trkpt lat="44.55564" lon="3.97868">
        <ele>765.35</ele>
        <time>2013-08-25T11:23:23Z</time>
      </trkpt>
      <trkpt lat="44.55568" lon="3.97872">
        <ele>766.79</ele>
        <time>2013-08-25T11:23:28Z</time>
      </trkpt>
      <trkpt lat="44.55579" lon="3.97876">
        <ele>768.23</ele>
        <time>2013-08-25T11:23:38Z</time>
      </trkpt>
      <trkpt lat="44.55581" lon="3.97881">
        <ele>769.19</ele>
        <time>2013-08-25T11:23:53Z</time>
      </trkpt>
      <trkpt lat="44.55582" lon="3.97884">
        <ele>769.19</ele>
        <time>2013-08-25T11:24:01Z</time>
      </trkpt>
      <trkpt lat="44.55582" lon="3.97887">
        <ele>769.67</ele>
        <time>2013-08-25T11:24:03Z</time>
      </trkpt>
      <trkpt lat="44.55583" lon="3.97893">
        <ele>771.11</ele>
        <time>2013-08-25T11:24:09Z</time>
      </trkpt>
      <trkpt lat="44.55589" lon="3.97898">
        <ele>772.56</ele>
        <time>2013-08-25T11:24:15Z</time>
      </trkpt>
      <trkpt lat="44.55591" lon="3.979">
        <ele>773.52</ele>
        <time>2013-08-25T11:24:18Z</time>
      </trkpt>
      <trkpt lat="44.55594" lon="3.979">
        <ele>773.52</ele>
        <time>2013-08-25T11:24:20Z</time>
      </trkpt>
      <trkpt lat="44.55604" lon="3.97902">
        <ele>775.92</ele>
        <time>2013-08-25T11:24:30Z</time>
      </trkpt>
      <trkpt lat="44.55613" lon="3.97904">
        <ele>777.84</ele>
        <time>2013-08-25T11:24:41Z</time>
      </trkpt>
      <trkpt lat="44.5562" lon="3.97905">
        <ele>778.32</ele>
        <time>2013-08-25T11:24:45Z</time>
      </trkpt>
      <trkpt lat="44.55629" lon="3.97907">
        <ele>780.25</ele>
        <time>2013-08-25T11:24:57Z</time>
      </trkpt>
      <trkpt lat="44.55635" lon="3.97907">
        <ele>781.69</ele>
        <time>2013-08-25T11:25:07Z</time>
      </trkpt>
      <trkpt lat="44.55642" lon="3.97908">
        <ele>783.13</ele>
        <time>2013-08-25T11:25:19Z</time>
      </trkpt>
      <trkpt lat="44.55652" lon="3.9791">
        <ele>785.05</ele>
        <time>2013-08-25T11:25:32Z</time>
      </trkpt>
      <trkpt lat="44.55656" lon="3.97911">
        <ele>786.5</ele>
        <time>2013-08-25T11:25:42Z</time>
      </trkpt>
      <trkpt lat="44.55667" lon="3.97914">
        <ele>787.94</ele>
        <time>2013-08-25T11:25:54Z</time>
      </trkpt>
      <trkpt lat="44.55676" lon="3.97912">
        <ele>789.86</ele>
        <time>2013-08-25T11:26:05Z</time>
      </trkpt>
      <trkpt lat="44.55686" lon="3.97913">
        <ele>791.3</ele>
        <time>2013-08-25T11:26:16Z</time>
      </trkpt>
      <trkpt lat="44.55695" lon="3.97913">
        <ele>792.26</ele>
        <time>2013-08-25T11:26:26Z</time>
      </trkpt>
      <trkpt lat="44.55701" lon="3.97912">
        <ele>793.22</ele>
        <time>2013-08-25T11:26:31Z</time>
      </trkpt>
      <trkpt lat="44.55711" lon="3.97908">
        <ele>794.19</ele>
        <time>2013-08-25T11:26:43Z</time>
      </trkpt>
      <trkpt lat="44.55718" lon="3.97907">
        <ele>794.67</ele>
        <time>2013-08-25T11:26:55Z</time>
      </trkpt>
      <trkpt lat="44.5572" lon="3.97905">
        <ele>795.15</ele>
        <time>2013-08-25T11:26:59Z</time>
      </trkpt>
      <trkpt lat="44.55727" lon="3.979">
        <ele>796.59</ele>
        <time>2013-08-25T11:27:07Z</time>
      </trkpt>
      <trkpt lat="44.55743" lon="3.97889">
        <ele>798.99</ele>
        <time>2013-08-25T11:27:18Z</time>
      </trkpt>
      <trkpt lat="44.55745" lon="3.97887">
        <ele>798.99</ele>
        <time>2013-08-25T11:27:20Z</time>
      </trkpt>
      <trkpt lat="44.55755" lon="3.97881">
        <ele>800.92</ele>
        <time>2013-08-25T11:27:26Z</time>
      </trkpt>
      <trkpt lat="44.55756" lon="3.97879">
        <ele>801.4</ele>
        <time>2013-08-25T11:27:28Z</time>
      </trkpt>
      <trkpt lat="44.55765" lon="3.97875">
        <ele>802.36</ele>
        <time>2013-08-25T11:27:33Z</time>
      </trkpt>
      <trkpt lat="44.55775" lon="3.97872">
        <ele>804.28</ele>
        <time>2013-08-25T11:27:44Z</time>
      </trkpt>
      <trkpt lat="44.55785" lon="3.97868">
        <ele>805.24</ele>
        <time>2013-08-25T11:27:52Z</time>
      </trkpt>
      <trkpt lat="44.55785" lon="3.97868">
        <ele>800.92</ele>
        <time>2013-08-25T11:27:57Z</time>
      </trkpt>
      <trkpt lat="44.55785" lon="3.97868">
        <ele>808.61</ele>
        <time>2013-08-25T11:27:58Z</time>
      </trkpt>
      <trkpt lat="44.55785" lon="3.97868">
        <ele>801.88</ele>
        <time>2013-08-25T11:27:59Z</time>
      </trkpt>
      <trkpt lat="44.55785" lon="3.97868">
        <ele>805.72</ele>
        <time>2013-08-25T11:28:00Z</time>
      </trkpt>
      <trkpt lat="44.55785" lon="3.97868">
        <ele>802.36</ele>
        <time>2013-08-25T11:28:01Z</time>
      </trkpt>
      <trkpt lat="44.55785" lon="3.97868">
        <ele>804.28</ele>
        <time>2013-08-25T11:28:02Z</time>
      </trkpt>
      <trkpt lat="44.55785" lon="3.97868">
        <ele>806.68</ele>
        <time>2013-08-25T11:28:03Z</time>
      </trkpt>
      <trkpt lat="44.55785" lon="3.97868">
        <ele>800.92</ele>
        <time>2013-08-25T11:28:06Z</time>
      </trkpt>
      <trkpt lat="44.55785" lon="3.97868">
        <ele>805.72</ele>
        <time>2013-08-25T11:28:07Z</time>
      </trkpt>
      <trkpt lat="44.55785" lon="3.97868">
        <ele>809.09</ele>
        <time>2013-08-25T11:28:08Z</time>
      </trkpt>
      <trkpt lat="44.55785" lon="3.97868">
        <ele>802.36</ele>
        <time>2013-08-25T11:28:09Z</time>
      </trkpt>
      <trkpt lat="44.55785" lon="3.97868">
        <ele>806.2</ele>
        <time>2013-08-25T11:28:10Z</time>
      </trkpt>
      <trkpt lat="44.55785" lon="3.97868">
        <ele>804.28</ele>
        <time>2013-08-25T11:28:11Z</time>
      </trkpt>
      <trkpt lat="44.55791" lon="3.97872">
        <ele>806.68</ele>
        <time>2013-08-25T11:28:23Z</time>
      </trkpt>
      <trkpt lat="44.55791" lon="3.97877">
        <ele>808.13</ele>
        <time>2013-08-25T11:28:33Z</time>
      </trkpt>
      <trkpt lat="44.55788" lon="3.97885">
        <ele>809.09</ele>
        <time>2013-08-25T11:28:41Z</time>
      </trkpt>
      <trkpt lat="44.55788" lon="3.97892">
        <ele>809.57</ele>
        <time>2013-08-25T11:28:47Z</time>
      </trkpt>
      <trkpt lat="44.55785" lon="3.97905">
        <ele>811.97</ele>
        <time>2013-08-25T11:29:00Z</time>
      </trkpt>
      <trkpt lat="44.55781" lon="3.97915">
        <ele>813.41</ele>
        <time>2013-08-25T11:29:12Z</time>
      </trkpt>
      <trkpt lat="44.55788" lon="3.97915">
        <ele>815.34</ele>
        <time>2013-08-25T11:29:23Z</time>
      </trkpt>
      <trkpt lat="44.55789" lon="3.97915">
        <ele>815.34</ele>
        <time>2013-08-25T11:29:24Z</time>
      </trkpt>
      <trkpt lat="44.55797" lon="3.97912">
        <ele>816.78</ele>
        <time>2013-08-25T11:29:34Z</time>
      </trkpt>
      <trkpt lat="44.55806" lon="3.97906">
        <ele>819.66</ele>
        <time>2013-08-25T11:29:46Z</time>
      </trkpt>
      <trkpt lat="44.55817" lon="3.97901">
        <ele>820.62</ele>
        <time>2013-08-25T11:29:58Z</time>
      </trkpt>
      <trkpt lat="44.55826" lon="3.97895">
        <ele>822.55</ele>
        <time>2013-08-25T11:30:10Z</time>
      </trkpt>
      <trkpt lat="44.55832" lon="3.97892">
        <ele>824.47</ele>
        <time>2013-08-25T11:30:24Z</time>
      </trkpt>
      <trkpt lat="44.55841" lon="3.97887">
        <ele>826.39</ele>
        <time>2013-08-25T11:30:35Z</time>
      </trkpt>
      <trkpt lat="44.55849" lon="3.97881">
        <ele>828.79</ele>
        <time>2013-08-25T11:30:48Z</time>
      </trkpt>
      <trkpt lat="44.55856" lon="3.97877">
        <ele>830.24</ele>
        <time>2013-08-25T11:30:59Z</time>
      </trkpt>
      <trkpt lat="44.55861" lon="3.97874">
        <ele>831.68</ele>
        <time>2013-08-25T11:31:09Z</time>
      </trkpt>
      <trkpt lat="44.5587" lon="3.97869">
        <ele>833.6</ele>
        <time>2013-08-25T11:31:21Z</time>
      </trkpt>
      <trkpt lat="44.55872" lon="3.97869">
        <ele>833.6</ele>
        <time>2013-08-25T11:31:24Z</time>
      </trkpt>
      <trkpt lat="44.55883" lon="3.97863">
        <ele>835.04</ele>
        <time>2013-08-25T11:31:37Z</time>
      </trkpt>
      <trkpt lat="44.55891" lon="3.97863">
        <ele>836.96</ele>
        <time>2013-08-25T11:31:47Z</time>
      </trkpt>
      <trkpt lat="44.55896" lon="3.97866">
        <ele>838.41</ele>
        <time>2013-08-25T11:31:58Z</time>
      </trkpt>
      <trkpt lat="44.55898" lon="3.97868">
        <ele>838.89</ele>
        <time>2013-08-25T11:32:01Z</time>
      </trkpt>
      <trkpt lat="44.559" lon="3.97869">
        <ele>839.37</ele>
        <time>2013-08-25T11:32:04Z</time>
      </trkpt>
      <trkpt lat="44.55897" lon="3.97873">
        <ele>840.81</ele>
        <time>2013-08-25T11:32:10Z</time>
      </trkpt>
      <trkpt lat="44.55887" lon="3.97883">
        <ele>842.25</ele>
        <time>2013-08-25T11:32:26Z</time>
      </trkpt>
      <trkpt lat="44.55839" lon="3.9791">
        <ele>844.18</ele>
        <time>2013-08-25T11:32:41Z</time>
      </trkpt>
      <trkpt lat="44.55829" lon="3.97922">
        <ele>845.14</ele>
        <time>2013-08-25T11:32:53Z</time>
      </trkpt>
      <trkpt lat="44.55824" lon="3.97935">
        <ele>846.58</ele>
        <time>2013-08-25T11:33:05Z</time>
      </trkpt>
      <trkpt lat="44.55821" lon="3.97944">
        <ele>848.02</ele>
        <time>2013-08-25T11:33:14Z</time>
      </trkpt>
      <trkpt lat="44.55814" lon="3.97959">
        <ele>849.94</ele>
        <time>2013-08-25T11:33:28Z</time>
      </trkpt>
      <trkpt lat="44.55808" lon="3.97971">
        <ele>851.38</ele>
        <time>2013-08-25T11:33:40Z</time>
      </trkpt>
      <trkpt lat="44.55803" lon="3.97987">
        <ele>853.79</ele>
        <time>2013-08-25T11:33:54Z</time>
      </trkpt>
      <trkpt lat="44.55803" lon="3.9799">
        <ele>853.79</ele>
        <time>2013-08-25T11:33:57Z</time>
      </trkpt>
      <trkpt lat="44.55796" lon="3.98">
        <ele>855.71</ele>
        <time>2013-08-25T11:34:09Z</time>
      </trkpt>
      <trkpt lat="44.5579" lon="3.98014">
        <ele>858.11</ele>
        <time>2013-08-25T11:34:23Z</time>
      </trkpt>
      <trkpt lat="44.55788" lon="3.98022">
        <ele>860.04</ele>
        <time>2013-08-25T11:34:38Z</time>
      </trkpt>
      <trkpt lat="44.55786" lon="3.98031">
        <ele>861</ele>
        <time>2013-08-25T11:35:02Z</time>
      </trkpt>
      <trkpt lat="44.55781" lon="3.98042">
        <ele>862.92</ele>
        <time>2013-08-25T11:35:14Z</time>
      </trkpt>
      <trkpt lat="44.55774" lon="3.98052">
        <ele>863.88</ele>
        <time>2013-08-25T11:35:24Z</time>
      </trkpt>
      <trkpt lat="44.55779" lon="3.98051">
        <ele>864.84</ele>
        <time>2013-08-25T11:35:34Z</time>
      </trkpt>
      <trkpt lat="44.5578" lon="3.98051">
        <ele>864.84</ele>
        <time>2013-08-25T11:35:35Z</time>
      </trkpt>
      <trkpt lat="44.55788" lon="3.98051">
        <ele>867.25</ele>
        <time>2013-08-25T11:35:47Z</time>
      </trkpt>
      <trkpt lat="44.55796" lon="3.98046">
        <ele>868.21</ele>
        <time>2013-08-25T11:35:57Z</time>
      </trkpt>
      <trkpt lat="44.55803" lon="3.98045">
        <ele>870.13</ele>
        <time>2013-08-25T11:36:08Z</time>
      </trkpt>
      <trkpt lat="44.55805" lon="3.98044">
        <ele>870.61</ele>
        <time>2013-08-25T11:36:10Z</time>
      </trkpt>
      <trkpt lat="44.55813" lon="3.98042">
        <ele>871.57</ele>
        <time>2013-08-25T11:36:18Z</time>
      </trkpt>
      <trkpt lat="44.55815" lon="3.98041">
        <ele>871.57</ele>
        <time>2013-08-25T11:36:20Z</time>
      </trkpt>
      <trkpt lat="44.55828" lon="3.98039">
        <ele>873.5</ele>
        <time>2013-08-25T11:36:33Z</time>
      </trkpt>
      <trkpt lat="44.5583" lon="3.98046">
        <ele>876.38</ele>
        <time>2013-08-25T11:36:45Z</time>
      </trkpt>
      <trkpt lat="44.55829" lon="3.98056">
        <ele>878.3</ele>
        <time>2013-08-25T11:36:57Z</time>
      </trkpt>
      <trkpt lat="44.55825" lon="3.98064">
        <ele>879.74</ele>
        <time>2013-08-25T11:37:08Z</time>
      </trkpt>
      <trkpt lat="44.55824" lon="3.98074">
        <ele>881.67</ele>
        <time>2013-08-25T11:37:19Z</time>
      </trkpt>
      <trkpt lat="44.55829" lon="3.98078">
        <ele>882.63</ele>
        <time>2013-08-25T11:37:28Z</time>
      </trkpt>
      <trkpt lat="44.55835" lon="3.98083">
        <ele>884.07</ele>
        <time>2013-08-25T11:37:37Z</time>
      </trkpt>
      <trkpt lat="44.55846" lon="3.9809">
        <ele>885.99</ele>
        <time>2013-08-25T11:37:49Z</time>
      </trkpt>
      <trkpt lat="44.55848" lon="3.98096">
        <ele>886.95</ele>
        <time>2013-08-25T11:38:01Z</time>
      </trkpt>
      <trkpt lat="44.55848" lon="3.98096">
        <ele>886.95</ele>
        <time>2013-08-25T11:38:08Z</time>
      </trkpt>
      <trkpt lat="44.55848" lon="3.98107">
        <ele>888.88</ele>
        <time>2013-08-25T11:38:18Z</time>
      </trkpt>
      <trkpt lat="44.55845" lon="3.98116">
        <ele>891.28</ele>
        <time>2013-08-25T11:38:32Z</time>
      </trkpt>
      <trkpt lat="44.55841" lon="3.98124">
        <ele>893.68</ele>
        <time>2013-08-25T11:38:43Z</time>
      </trkpt>
      <trkpt lat="44.5584" lon="3.98134">
        <ele>895.61</ele>
        <time>2013-08-25T11:38:54Z</time>
      </trkpt>
      <trkpt lat="44.55841" lon="3.98145">
        <ele>897.53</ele>
        <time>2013-08-25T11:39:04Z</time>
      </trkpt>
      <trkpt lat="44.55843" lon="3.98155">
        <ele>898.97</ele>
        <time>2013-08-25T11:39:17Z</time>
      </trkpt>
      <trkpt lat="44.55843" lon="3.98155">
        <ele>900.41</ele>
        <time>2013-08-25T11:39:26Z</time>
      </trkpt>
      <trkpt lat="44.55843" lon="3.98155">
        <ele>898.97</ele>
        <time>2013-08-25T11:39:27Z</time>
      </trkpt>
      <trkpt lat="44.55843" lon="3.98155">
        <ele>899.93</ele>
        <time>2013-08-25T11:39:28Z</time>
      </trkpt>
      <trkpt lat="44.55843" lon="3.98155">
        <ele>899.45</ele>
        <time>2013-08-25T11:39:29Z</time>
      </trkpt>
      <trkpt lat="44.55843" lon="3.98155">
        <ele>898.01</ele>
        <time>2013-08-25T11:39:31Z</time>
      </trkpt>
      <trkpt lat="44.55843" lon="3.98155">
        <ele>897.53</ele>
        <time>2013-08-25T11:39:33Z</time>
      </trkpt>
      <trkpt lat="44.55843" lon="3.98155">
        <ele>899.45</ele>
        <time>2013-08-25T11:39:35Z</time>
      </trkpt>
      <trkpt lat="44.55843" lon="3.98155">
        <ele>898.01</ele>
        <time>2013-08-25T11:39:36Z</time>
      </trkpt>
      <trkpt lat="44.55843" lon="3.98155">
        <ele>899.93</ele>
        <time>2013-08-25T11:39:37Z</time>
      </trkpt>
      <trkpt lat="44.55841" lon="3.98164">
        <ele>900.89</ele>
        <time>2013-08-25T11:39:51Z</time>
      </trkpt>
      <trkpt lat="44.55838" lon="3.98172">
        <ele>904.26</ele>
        <time>2013-08-25T11:40:02Z</time>
      </trkpt>
      <trkpt lat="44.55837" lon="3.98182">
        <ele>905.7</ele>
        <time>2013-08-25T11:40:10Z</time>
      </trkpt>
      <trkpt lat="44.55842" lon="3.98193">
        <ele>908.1</ele>
        <time>2013-08-25T11:40:22Z</time>
      </trkpt>
      <trkpt lat="44.55849" lon="3.98204">
        <ele>910.99</ele>
        <time>2013-08-25T11:40:38Z</time>
      </trkpt>
      <trkpt lat="44.55851" lon="3.98212">
        <ele>913.39</ele>
        <time>2013-08-25T11:40:47Z</time>
      </trkpt>
      <trkpt lat="44.55846" lon="3.98219">
        <ele>914.83</ele>
        <time>2013-08-25T11:40:59Z</time>
      </trkpt>
      <trkpt lat="44.55848" lon="3.98225">
        <ele>916.75</ele>
        <time>2013-08-25T11:41:10Z</time>
      </trkpt>
      <trkpt lat="44.55848" lon="3.98231">
        <ele>919.16</ele>
        <time>2013-08-25T11:41:22Z</time>
      </trkpt>
      <trkpt lat="44.5585" lon="3.98239">
        <ele>922.04</ele>
        <time>2013-08-25T11:41:36Z</time>
      </trkpt>
      <trkpt lat="44.5585" lon="3.98247">
        <ele>923.48</ele>
        <time>2013-08-25T11:41:48Z</time>
      </trkpt>
      <trkpt lat="44.55852" lon="3.98256">
        <ele>925.89</ele>
        <time>2013-08-25T11:42:00Z</time>
      </trkpt>
      <trkpt lat="44.55855" lon="3.98266">
        <ele>927.81</ele>
        <time>2013-08-25T11:42:11Z</time>
      </trkpt>
      <trkpt lat="44.55853" lon="3.98275">
        <ele>929.73</ele>
        <time>2013-08-25T11:42:23Z</time>
      </trkpt>
      <trkpt lat="44.55853" lon="3.98282">
        <ele>932.14</ele>
        <time>2013-08-25T11:42:35Z</time>
      </trkpt>
      <trkpt lat="44.55852" lon="3.9829">
        <ele>934.54</ele>
        <time>2013-08-25T11:42:48Z</time>
      </trkpt>
      <trkpt lat="44.55854" lon="3.98299">
        <ele>935.98</ele>
        <time>2013-08-25T11:42:58Z</time>
      </trkpt>
      <trkpt lat="44.55856" lon="3.9831">
        <ele>937.9</ele>
        <time>2013-08-25T11:43:10Z</time>
      </trkpt>
      <trkpt lat="44.55852" lon="3.98327">
        <ele>938.86</ele>
        <time>2013-08-25T11:43:20Z</time>
      </trkpt>
      <trkpt lat="44.55851" lon="3.98337">
        <ele>939.83</ele>
        <time>2013-08-25T11:43:31Z</time>
      </trkpt>
      <trkpt lat="44.55849" lon="3.98341">
        <ele>940.79</ele>
        <time>2013-08-25T11:43:46Z</time>
      </trkpt>
      <trkpt lat="44.55852" lon="3.98338">
        <ele>940.31</ele>
        <time>2013-08-25T11:43:54Z</time>
      </trkpt>
      <trkpt lat="44.55852" lon="3.98338">
        <ele>940.79</ele>
        <time>2013-08-25T11:43:56Z</time>
      </trkpt>
      <trkpt lat="44.55852" lon="3.98337">
        <ele>936.94</ele>
        <time>2013-08-25T11:44:07Z</time>
      </trkpt>
      <trkpt lat="44.55852" lon="3.98337">
        <ele>940.79</ele>
        <time>2013-08-25T11:44:08Z</time>
      </trkpt>
      <trkpt lat="44.55851" lon="3.98339">
        <ele>937.42</ele>
        <time>2013-08-25T11:44:17Z</time>
      </trkpt>
      <trkpt lat="44.55851" lon="3.98339">
        <ele>942.23</ele>
        <time>2013-08-25T11:44:18Z</time>
      </trkpt>
      <trkpt lat="44.55851" lon="3.98338">
        <ele>937.42</ele>
        <time>2013-08-25T11:44:22Z</time>
      </trkpt>
      <trkpt lat="44.55851" lon="3.98338">
        <ele>942.23</ele>
        <time>2013-08-25T11:44:24Z</time>
      </trkpt>
      <trkpt lat="44.55851" lon="3.98337">
        <ele>936.94</ele>
        <time>2013-08-25T11:44:25Z</time>
      </trkpt>
      <trkpt lat="44.55851" lon="3.98337">
        <ele>941.27</ele>
        <time>2013-08-25T11:44:26Z</time>
      </trkpt>
      <trkpt lat="44.55862" lon="3.9833">
        <ele>940.79</ele>
        <time>2013-08-25T11:44:54Z</time>
      </trkpt>
      <trkpt lat="44.55862" lon="3.98329">
        <ele>941.75</ele>
        <time>2013-08-25T11:45:23Z</time>
      </trkpt>
      <trkpt lat="44.55862" lon="3.98329">
        <ele>941.75</ele>
        <time>2013-08-25T11:45:57Z</time>
      </trkpt>
      <trkpt lat="44.55862" lon="3.98329">
        <ele>941.75</ele>
        <time>2013-08-25T11:46:23Z</time>
      </trkpt>
      <trkpt lat="44.55857" lon="3.98332">
        <ele>942.71</ele>
        <time>2013-08-25T11:46:50Z</time>
      </trkpt>
      <trkpt lat="44.55853" lon="3.98336">
        <ele>942.71</ele>
        <time>2013-08-25T11:47:04Z</time>
      </trkpt>
      <trkpt lat="44.55852" lon="3.98336">
        <ele>942.23</ele>
        <time>2013-08-25T11:47:25Z</time>
      </trkpt>
      <trkpt lat="44.55851" lon="3.9834">
        <ele>943.19</ele>
        <time>2013-08-25T11:47:40Z</time>
      </trkpt>
      <trkpt lat="44.55853" lon="3.98341">
        <ele>944.15</ele>
        <time>2013-08-25T11:47:51Z</time>
      </trkpt>
      <trkpt lat="44.55861" lon="3.98341">
        <ele>946.56</ele>
        <time>2013-08-25T11:48:05Z</time>
      </trkpt>
      <trkpt lat="44.55878" lon="3.98347">
        <ele>947.52</ele>
        <time>2013-08-25T11:48:22Z</time>
      </trkpt>
      <trkpt lat="44.55883" lon="3.98347">
        <ele>948.96</ele>
        <time>2013-08-25T11:48:34Z</time>
      </trkpt>
      <trkpt lat="44.55889" lon="3.98348">
        <ele>950.4</ele>
        <time>2013-08-25T11:48:47Z</time>
      </trkpt>
      <trkpt lat="44.55898" lon="3.98342">
        <ele>952.8</ele>
        <time>2013-08-25T11:49:00Z</time>
      </trkpt>
      <trkpt lat="44.55912" lon="3.98337">
        <ele>954.25</ele>
        <time>2013-08-25T11:49:16Z</time>
      </trkpt>
      <trkpt lat="44.5592" lon="3.98335">
        <ele>955.21</ele>
        <time>2013-08-25T11:49:28Z</time>
      </trkpt>
      <trkpt lat="44.55925" lon="3.98334">
        <ele>957.13</ele>
        <time>2013-08-25T11:49:33Z</time>
      </trkpt>
      <trkpt lat="44.55935" lon="3.98336">
        <ele>959.05</ele>
        <time>2013-08-25T11:49:46Z</time>
      </trkpt>
      <trkpt lat="44.55939" lon="3.98334">
        <ele>959.05</ele>
        <time>2013-08-25T11:49:54Z</time>
      </trkpt>
      <trkpt lat="44.55947" lon="3.98336">
        <ele>959.53</ele>
        <time>2013-08-25T11:50:07Z</time>
      </trkpt>
      <trkpt lat="44.5595" lon="3.98336">
        <ele>960.98</ele>
        <time>2013-08-25T11:50:12Z</time>
      </trkpt>
      <trkpt lat="44.55964" lon="3.98335">
        <ele>962.42</ele>
        <time>2013-08-25T11:50:27Z</time>
      </trkpt>
      <trkpt lat="44.5597" lon="3.98336">
        <ele>963.86</ele>
        <time>2013-08-25T11:50:39Z</time>
      </trkpt>
      <trkpt lat="44.55975" lon="3.98335">
        <ele>964.34</ele>
        <time>2013-08-25T11:50:42Z</time>
      </trkpt>
      <trkpt lat="44.5598" lon="3.98336">
        <ele>964.34</ele>
        <time>2013-08-25T11:50:46Z</time>
      </trkpt>
      <trkpt lat="44.55993" lon="3.98338">
        <ele>966.74</ele>
        <time>2013-08-25T11:50:56Z</time>
      </trkpt>
      <trkpt lat="44.56002" lon="3.98342">
        <ele>968.18</ele>
        <time>2013-08-25T11:51:07Z</time>
      </trkpt>
      <trkpt lat="44.56005" lon="3.98344">
        <ele>969.63</ele>
        <time>2013-08-25T11:51:11Z</time>
      </trkpt>
      <trkpt lat="44.5601" lon="3.98347">
        <ele>970.59</ele>
        <time>2013-08-25T11:51:18Z</time>
      </trkpt>
      <trkpt lat="44.56018" lon="3.98353">
        <ele>972.51</ele>
        <time>2013-08-25T11:51:30Z</time>
      </trkpt>
      <trkpt lat="44.56023" lon="3.98354">
        <ele>973.95</ele>
        <time>2013-08-25T11:51:36Z</time>
      </trkpt>
      <trkpt lat="44.56034" lon="3.98357">
        <ele>975.88</ele>
        <time>2013-08-25T11:51:49Z</time>
      </trkpt>
      <trkpt lat="44.56043" lon="3.98365">
        <ele>977.32</ele>
        <time>2013-08-25T11:52:01Z</time>
      </trkpt>
      <trkpt lat="44.56049" lon="3.98372">
        <ele>978.76</ele>
        <time>2013-08-25T11:52:12Z</time>
      </trkpt>
      <trkpt lat="44.56053" lon="3.98378">
        <ele>980.68</ele>
        <time>2013-08-25T11:52:19Z</time>
      </trkpt>
      <trkpt lat="44.56062" lon="3.98383">
        <ele>982.6</ele>
        <time>2013-08-25T11:52:33Z</time>
      </trkpt>
      <trkpt lat="44.56067" lon="3.98393">
        <ele>985.49</ele>
        <time>2013-08-25T11:52:47Z</time>
      </trkpt>
      <trkpt lat="44.5607" lon="3.98399">
        <ele>987.41</ele>
        <time>2013-08-25T11:52:57Z</time>
      </trkpt>
      <trkpt lat="44.56075" lon="3.98408">
        <ele>989.33</ele>
        <time>2013-08-25T11:53:09Z</time>
      </trkpt>
      <trkpt lat="44.56083" lon="3.98417">
        <ele>991.26</ele>
        <time>2013-08-25T11:53:22Z</time>
      </trkpt>
      <trkpt lat="44.56091" lon="3.98423">
        <ele>992.7</ele>
        <time>2013-08-25T11:53:34Z</time>
      </trkpt>
      <trkpt lat="44.56101" lon="3.98426">
        <ele>994.62</ele>
        <time>2013-08-25T11:53:46Z</time>
      </trkpt>
      <trkpt lat="44.56108" lon="3.98434">
        <ele>995.58</ele>
        <time>2013-08-25T11:53:58Z</time>
      </trkpt>
      <trkpt lat="44.56115" lon="3.98442">
        <ele>997.51</ele>
        <time>2013-08-25T11:54:09Z</time>
      </trkpt>
      <trkpt lat="44.56119" lon="3.98447">
        <ele>998.47</ele>
        <time>2013-08-25T11:54:23Z</time>
      </trkpt>
      <trkpt lat="44.56129" lon="3.98452">
        <ele>999.43</ele>
        <time>2013-08-25T11:54:37Z</time>
      </trkpt>
      <trkpt lat="44.56138" lon="3.98456">
        <ele>1001.83</ele>
        <time>2013-08-25T11:54:51Z</time>
      </trkpt>
      <trkpt lat="44.56145" lon="3.98457">
        <ele>1002.79</ele>
        <time>2013-08-25T11:55:03Z</time>
      </trkpt>
      <trkpt lat="44.56158" lon="3.98459">
        <ele>1004.23</ele>
        <time>2013-08-25T11:55:17Z</time>
      </trkpt>
      <trkpt lat="44.56168" lon="3.98463">
        <ele>1006.16</ele>
        <time>2013-08-25T11:55:30Z</time>
      </trkpt>
      <trkpt lat="44.56177" lon="3.98467">
        <ele>1007.12</ele>
        <time>2013-08-25T11:55:43Z</time>
      </trkpt>
      <trkpt lat="44.5619" lon="3.98467">
        <ele>1009.52</ele>
        <time>2013-08-25T11:55:58Z</time>
      </trkpt>
      <trkpt lat="44.56196" lon="3.98469">
        <ele>1010.96</ele>
        <time>2013-08-25T11:56:06Z</time>
      </trkpt>
      <trkpt lat="44.56198" lon="3.98469">
        <ele>1011.44</ele>
        <time>2013-08-25T11:56:08Z</time>
      </trkpt>
      <trkpt lat="44.5621" lon="3.98472">
        <ele>1012.89</ele>
        <time>2013-08-25T11:56:22Z</time>
      </trkpt>
      <trkpt lat="44.56218" lon="3.98474">
        <ele>1015.29</ele>
        <time>2013-08-25T11:56:35Z</time>
      </trkpt>
      <trkpt lat="44.56226" lon="3.98477">
        <ele>1016.73</ele>
        <time>2013-08-25T11:56:47Z</time>
      </trkpt>
      <trkpt lat="44.56236" lon="3.98481">
        <ele>1019.13</ele>
        <time>2013-08-25T11:57:03Z</time>
      </trkpt>
      <trkpt lat="44.56238" lon="3.98485">
        <ele>1019.62</ele>
        <time>2013-08-25T11:57:17Z</time>
      </trkpt>
      <trkpt lat="44.56238" lon="3.98485">
        <ele>1022.02</ele>
        <time>2013-08-25T11:57:29Z</time>
      </trkpt>
      <trkpt lat="44.56238" lon="3.98485">
        <ele>1020.1</ele>
        <time>2013-08-25T11:57:32Z</time>
      </trkpt>
      <trkpt lat="44.56238" lon="3.98485">
        <ele>1018.65</ele>
        <time>2013-08-25T11:57:38Z</time>
      </trkpt>
      <trkpt lat="44.56238" lon="3.98485">
        <ele>1019.62</ele>
        <time>2013-08-25T11:58:00Z</time>
      </trkpt>
      <trkpt lat="44.56238" lon="3.98486">
        <ele>1020.1</ele>
        <time>2013-08-25T11:58:06Z</time>
      </trkpt>
      <trkpt lat="44.56239" lon="3.98496">
        <ele>1020.58</ele>
        <time>2013-08-25T11:58:11Z</time>
      </trkpt>
      <trkpt lat="44.5624" lon="3.98511">
        <ele>1022.02</ele>
        <time>2013-08-25T11:58:18Z</time>
      </trkpt>
      <trkpt lat="44.56238" lon="3.98517">
        <ele>1022.5</ele>
        <time>2013-08-25T11:58:21Z</time>
      </trkpt>
      <trkpt lat="44.56236" lon="3.98534">
        <ele>1022.02</ele>
        <time>2013-08-25T11:58:32Z</time>
      </trkpt>
      <trkpt lat="44.56232" lon="3.98541">
        <ele>1021.06</ele>
        <time>2013-08-25T11:58:37Z</time>
      </trkpt>
      <trkpt lat="44.56223" lon="3.98563">
        <ele>1018.17</ele>
        <time>2013-08-25T11:58:47Z</time>
      </trkpt>
      <trkpt lat="44.5622" lon="3.98574">
        <ele>1016.25</ele>
        <time>2013-08-25T11:58:57Z</time>
      </trkpt>
      <trkpt lat="44.56223" lon="3.98576">
        <ele>1016.25</ele>
        <time>2013-08-25T11:59:10Z</time>
      </trkpt>
      <trkpt lat="44.56223" lon="3.98576">
        <ele>1015.29</ele>
        <time>2013-08-25T11:59:13Z</time>
      </trkpt>
      <trkpt lat="44.56216" lon="3.98592">
        <ele>1011.44</ele>
        <time>2013-08-25T11:59:20Z</time>
      </trkpt>
      <trkpt lat="44.56212" lon="3.98594">
        <ele>1010</ele>
        <time>2013-08-25T11:59:23Z</time>
      </trkpt>
      <trkpt lat="44.56207" lon="3.98597">
        <ele>1008.56</ele>
        <time>2013-08-25T11:59:25Z</time>
      </trkpt>
      <trkpt lat="44.56201" lon="3.98604">
        <ele>1006.64</ele>
        <time>2013-08-25T11:59:28Z</time>
      </trkpt>
      <trkpt lat="44.56194" lon="3.98609">
        <ele>1004.23</ele>
        <time>2013-08-25T11:59:31Z</time>
      </trkpt>
      <trkpt lat="44.56186" lon="3.98624">
        <ele>1000.87</ele>
        <time>2013-08-25T11:59:35Z</time>
      </trkpt>
      <trkpt lat="44.56182" lon="3.98628">
        <ele>1000.39</ele>
        <time>2013-08-25T11:59:36Z</time>
      </trkpt>
      <trkpt lat="44.56168" lon="3.98647">
        <ele>997.02</ele>
        <time>2013-08-25T11:59:41Z</time>
      </trkpt>
      <trkpt lat="44.56158" lon="3.98662">
        <ele>992.7</ele>
        <time>2013-08-25T11:59:45Z</time>
      </trkpt>
      <trkpt lat="44.56155" lon="3.98664">
        <ele>992.7</ele>
        <time>2013-08-25T11:59:46Z</time>
      </trkpt>
      <trkpt lat="44.56148" lon="3.98672">
        <ele>990.78</ele>
        <time>2013-08-25T11:59:49Z</time>
      </trkpt>
      <trkpt lat="44.56147" lon="3.98675">
        <ele>990.3</ele>
        <time>2013-08-25T11:59:50Z</time>
      </trkpt>
      <trkpt lat="44.56146" lon="3.98677">
        <ele>989.81</ele>
        <time>2013-08-25T11:59:51Z</time>
      </trkpt>
      <trkpt lat="44.56144" lon="3.98681">
        <ele>988.85</ele>
        <time>2013-08-25T11:59:52Z</time>
      </trkpt>
      <trkpt lat="44.56139" lon="3.98688">
        <ele>986.93</ele>
        <time>2013-08-25T11:59:54Z</time>
      </trkpt>
      <trkpt lat="44.56137" lon="3.9869">
        <ele>986.45</ele>
        <time>2013-08-25T11:59:55Z</time>
      </trkpt>
      <trkpt lat="44.56131" lon="3.98696">
        <ele>985.97</ele>
        <time>2013-08-25T11:59:58Z</time>
      </trkpt>
      <trkpt lat="44.5613" lon="3.98698">
        <ele>985.01</ele>
        <time>2013-08-25T11:59:59Z</time>
      </trkpt>
      <trkpt lat="44.56129" lon="3.987">
        <ele>984.53</ele>
        <time>2013-08-25T12:00:00Z</time>
      </trkpt>
      <trkpt lat="44.56119" lon="3.98712">
        <ele>981.16</ele>
        <time>2013-08-25T12:00:06Z</time>
      </trkpt>
      <trkpt lat="44.56114" lon="3.98717">
        <ele>980.68</ele>
        <time>2013-08-25T12:00:17Z</time>
      </trkpt>
      <trkpt lat="44.56113" lon="3.98719">
        <ele>980.68</ele>
        <time>2013-08-25T12:00:40Z</time>
      </trkpt>
      <trkpt lat="44.56112" lon="3.98721">
        <ele>979.72</ele>
        <time>2013-08-25T12:00:41Z</time>
      </trkpt>
      <trkpt lat="44.5611" lon="3.98724">
        <ele>979.72</ele>
        <time>2013-08-25T12:00:42Z</time>
      </trkpt>
      <trkpt lat="44.56108" lon="3.98727">
        <ele>978.76</ele>
        <time>2013-08-25T12:00:43Z</time>
      </trkpt>
      <trkpt lat="44.56105" lon="3.98731">
        <ele>978.28</ele>
        <time>2013-08-25T12:00:44Z</time>
      </trkpt>
      <trkpt lat="44.56102" lon="3.98736">
        <ele>976.84</ele>
        <time>2013-08-25T12:00:46Z</time>
      </trkpt>
      <trkpt lat="44.561" lon="3.98737">
        <ele>976.84</ele>
        <time>2013-08-25T12:00:47Z</time>
      </trkpt>
      <trkpt lat="44.56098" lon="3.98739">
        <ele>975.39</ele>
        <time>2013-08-25T12:00:48Z</time>
      </trkpt>
      <trkpt lat="44.56095" lon="3.98741">
        <ele>974.91</ele>
        <time>2013-08-25T12:00:49Z</time>
      </trkpt>
      <trkpt lat="44.56093" lon="3.98744">
        <ele>974.91</ele>
        <time>2013-08-25T12:00:50Z</time>
      </trkpt>
      <trkpt lat="44.56091" lon="3.98746">
        <ele>973.95</ele>
        <time>2013-08-25T12:00:51Z</time>
      </trkpt>
      <trkpt lat="44.56088" lon="3.9875">
        <ele>973.95</ele>
        <time>2013-08-25T12:00:52Z</time>
      </trkpt>
      <trkpt lat="44.56077" lon="3.98766">
        <ele>971.07</ele>
        <time>2013-08-25T12:00:56Z</time>
      </trkpt>
      <trkpt lat="44.56074" lon="3.9877">
        <ele>969.63</ele>
        <time>2013-08-25T12:00:57Z</time>
      </trkpt>
      <trkpt lat="44.56062" lon="3.98782">
        <ele>968.18</ele>
        <time>2013-08-25T12:01:01Z</time>
      </trkpt>
      <trkpt lat="44.56051" lon="3.98798">
        <ele>965.3</ele>
        <time>2013-08-25T12:01:05Z</time>
      </trkpt>
      <trkpt lat="44.56044" lon="3.98808">
        <ele>964.82</ele>
        <time>2013-08-25T12:01:07Z</time>
      </trkpt>
      <trkpt lat="44.56035" lon="3.98823">
        <ele>962.42</ele>
        <time>2013-08-25T12:01:10Z</time>
      </trkpt>
      <trkpt lat="44.56033" lon="3.98829">
        <ele>962.42</ele>
        <time>2013-08-25T12:01:11Z</time>
      </trkpt>
      <trkpt lat="44.56024" lon="3.98846">
        <ele>959.05</ele>
        <time>2013-08-25T12:01:14Z</time>
      </trkpt>
      <trkpt lat="44.5602" lon="3.98851">
        <ele>959.05</ele>
        <time>2013-08-25T12:01:15Z</time>
      </trkpt>
      <trkpt lat="44.56016" lon="3.98855">
        <ele>958.57</ele>
        <time>2013-08-25T12:01:16Z</time>
      </trkpt>
      <trkpt lat="44.56012" lon="3.9886">
        <ele>957.61</ele>
        <time>2013-08-25T12:01:17Z</time>
      </trkpt>
      <trkpt lat="44.56009" lon="3.98866">
        <ele>957.13</ele>
        <time>2013-08-25T12:01:18Z</time>
      </trkpt>
      <trkpt lat="44.56005" lon="3.98872">
        <ele>956.17</ele>
        <time>2013-08-25T12:01:19Z</time>
      </trkpt>
      <trkpt lat="44.56" lon="3.98877">
        <ele>955.69</ele>
        <time>2013-08-25T12:01:20Z</time>
      </trkpt>
      <trkpt lat="44.55996" lon="3.98881">
        <ele>954.73</ele>
        <time>2013-08-25T12:01:21Z</time>
      </trkpt>
      <trkpt lat="44.55982" lon="3.98901">
        <ele>950.88</ele>
        <time>2013-08-25T12:01:25Z</time>
      </trkpt>
      <trkpt lat="44.55979" lon="3.98906">
        <ele>950.4</ele>
        <time>2013-08-25T12:01:26Z</time>
      </trkpt>
      <trkpt lat="44.55971" lon="3.98915">
        <ele>948.48</ele>
        <time>2013-08-25T12:01:28Z</time>
      </trkpt>
      <trkpt lat="44.55958" lon="3.98932">
        <ele>945.59</ele>
        <time>2013-08-25T12:01:32Z</time>
      </trkpt>
      <trkpt lat="44.55955" lon="3.98937">
        <ele>944.15</ele>
        <time>2013-08-25T12:01:33Z</time>
      </trkpt>
      <trkpt lat="44.55939" lon="3.9895">
        <ele>940.79</ele>
        <time>2013-08-25T12:01:39Z</time>
      </trkpt>
      <trkpt lat="44.55926" lon="3.98957">
        <ele>937.9</ele>
        <time>2013-08-25T12:01:43Z</time>
      </trkpt>
      <trkpt lat="44.55912" lon="3.98955">
        <ele>934.54</ele>
        <time>2013-08-25T12:01:48Z</time>
      </trkpt>
      <trkpt lat="44.55907" lon="3.98959">
        <ele>934.06</ele>
        <time>2013-08-25T12:01:49Z</time>
      </trkpt>
      <trkpt lat="44.55899" lon="3.98967">
        <ele>932.14</ele>
        <time>2013-08-25T12:01:51Z</time>
      </trkpt>
      <trkpt lat="44.5587" lon="3.98983">
        <ele>932.14</ele>
        <time>2013-08-25T12:01:59Z</time>
      </trkpt>
      <trkpt lat="44.55861" lon="3.98987">
        <ele>931.65</ele>
        <time>2013-08-25T12:02:01Z</time>
      </trkpt>
      <trkpt lat="44.55856" lon="3.98991">
        <ele>930.21</ele>
        <time>2013-08-25T12:02:02Z</time>
      </trkpt>
      <trkpt lat="44.55846" lon="3.98995">
        <ele>928.29</ele>
        <time>2013-08-25T12:02:05Z</time>
      </trkpt>
      <trkpt lat="44.55843" lon="3.98996">
        <ele>928.77</ele>
        <time>2013-08-25T12:02:06Z</time>
      </trkpt>
      <trkpt lat="44.55819" lon="3.99005">
        <ele>925.41</ele>
        <time>2013-08-25T12:02:13Z</time>
      </trkpt>
      <trkpt lat="44.55814" lon="3.99004">
        <ele>924.45</ele>
        <time>2013-08-25T12:02:16Z</time>
      </trkpt>
      <trkpt lat="44.55808" lon="3.99008">
        <ele>923</ele>
        <time>2013-08-25T12:02:19Z</time>
      </trkpt>
      <trkpt lat="44.55805" lon="3.99009">
        <ele>922.52</ele>
        <time>2013-08-25T12:02:20Z</time>
      </trkpt>
      <trkpt lat="44.55803" lon="3.99009">
        <ele>922.52</ele>
        <time>2013-08-25T12:02:21Z</time>
      </trkpt>
      <trkpt lat="44.55788" lon="3.99013">
        <ele>919.64</ele>
        <time>2013-08-25T12:02:26Z</time>
      </trkpt>
      <trkpt lat="44.55777" lon="3.99014">
        <ele>917.24</ele>
        <time>2013-08-25T12:02:31Z</time>
      </trkpt>
      <trkpt lat="44.55767" lon="3.9902">
        <ele>915.31</ele>
        <time>2013-08-25T12:02:35Z</time>
      </trkpt>
      <trkpt lat="44.55765" lon="3.99021">
        <ele>914.35</ele>
        <time>2013-08-25T12:02:36Z</time>
      </trkpt>
      <trkpt lat="44.5576" lon="3.99027">
        <ele>912.91</ele>
        <time>2013-08-25T12:02:39Z</time>
      </trkpt>
      <trkpt lat="44.55758" lon="3.99027">
        <ele>911.95</ele>
        <time>2013-08-25T12:02:40Z</time>
      </trkpt>
      <trkpt lat="44.55756" lon="3.99027">
        <ele>910.51</ele>
        <time>2013-08-25T12:02:41Z</time>
      </trkpt>
      <trkpt lat="44.55741" lon="3.9903">
        <ele>907.14</ele>
        <time>2013-08-25T12:02:47Z</time>
      </trkpt>
      <trkpt lat="44.55723" lon="3.99034">
        <ele>904.26</ele>
        <time>2013-08-25T12:02:52Z</time>
      </trkpt>
      <trkpt lat="44.55711" lon="3.9904">
        <ele>901.85</ele>
        <time>2013-08-25T12:02:56Z</time>
      </trkpt>
      <trkpt lat="44.55699" lon="3.99043">
        <ele>900.41</ele>
        <time>2013-08-25T12:03:01Z</time>
      </trkpt>
      <trkpt lat="44.55692" lon="3.99046">
        <ele>899.45</ele>
        <time>2013-08-25T12:03:04Z</time>
      </trkpt>
      <trkpt lat="44.55691" lon="3.99047">
        <ele>898.97</ele>
        <time>2013-08-25T12:03:05Z</time>
      </trkpt>
      <trkpt lat="44.55672" lon="3.99057">
        <ele>897.05</ele>
        <time>2013-08-25T12:03:12Z</time>
      </trkpt>
      <trkpt lat="44.55658" lon="3.99067">
        <ele>894.16</ele>
        <time>2013-08-25T12:03:17Z</time>
      </trkpt>
      <trkpt lat="44.55655" lon="3.99068">
        <ele>892.72</ele>
        <time>2013-08-25T12:03:19Z</time>
      </trkpt>
      <trkpt lat="44.55653" lon="3.99069">
        <ele>892.24</ele>
        <time>2013-08-25T12:03:20Z</time>
      </trkpt>
      <trkpt lat="44.55651" lon="3.9907">
        <ele>891.76</ele>
        <time>2013-08-25T12:03:21Z</time>
      </trkpt>
      <trkpt lat="44.55641" lon="3.99079">
        <ele>888.4</ele>
        <time>2013-08-25T12:03:26Z</time>
      </trkpt>
      <trkpt lat="44.55623" lon="3.99089">
        <ele>885.03</ele>
        <time>2013-08-25T12:03:31Z</time>
      </trkpt>
      <trkpt lat="44.55619" lon="3.99094">
        <ele>884.07</ele>
        <time>2013-08-25T12:03:33Z</time>
      </trkpt>
      <trkpt lat="44.55616" lon="3.99098">
        <ele>883.11</ele>
        <time>2013-08-25T12:03:34Z</time>
      </trkpt>
      <trkpt lat="44.55613" lon="3.99103">
        <ele>881.19</ele>
        <time>2013-08-25T12:03:35Z</time>
      </trkpt>
      <trkpt lat="44.55609" lon="3.99106">
        <ele>880.71</ele>
        <time>2013-08-25T12:03:36Z</time>
      </trkpt>
      <trkpt lat="44.55591" lon="3.99111">
        <ele>877.82</ele>
        <time>2013-08-25T12:03:42Z</time>
      </trkpt>
      <trkpt lat="44.55587" lon="3.99115">
        <ele>876.86</ele>
        <time>2013-08-25T12:03:43Z</time>
      </trkpt>
      <trkpt lat="44.55582" lon="3.99121">
        <ele>876.38</ele>
        <time>2013-08-25T12:03:44Z</time>
      </trkpt>
      <trkpt lat="44.55577" lon="3.99125">
        <ele>875.42</ele>
        <time>2013-08-25T12:03:45Z</time>
      </trkpt>
      <trkpt lat="44.55563" lon="3.99136">
        <ele>875.42</ele>
        <time>2013-08-25T12:03:48Z</time>
      </trkpt>
      <trkpt lat="44.55553" lon="3.99141">
        <ele>874.94</ele>
        <time>2013-08-25T12:03:51Z</time>
      </trkpt>
      <trkpt lat="44.55552" lon="3.99143">
        <ele>874.94</ele>
        <time>2013-08-25T12:03:52Z</time>
      </trkpt>
      <trkpt lat="44.55531" lon="3.99159">
        <ele>873.5</ele>
        <time>2013-08-25T12:03:59Z</time>
      </trkpt>
      <trkpt lat="44.55526" lon="3.99161">
        <ele>873.01</ele>
        <time>2013-08-25T12:04:00Z</time>
      </trkpt>
      <trkpt lat="44.55517" lon="3.99166">
        <ele>872.05</ele>
        <time>2013-08-25T12:04:02Z</time>
      </trkpt>
      <trkpt lat="44.55513" lon="3.9917">
        <ele>871.57</ele>
        <time>2013-08-25T12:04:03Z</time>
      </trkpt>
      <trkpt lat="44.55493" lon="3.99186">
        <ele>871.09</ele>
        <time>2013-08-25T12:04:08Z</time>
      </trkpt>
      <trkpt lat="44.55488" lon="3.99189">
        <ele>870.13</ele>
        <time>2013-08-25T12:04:10Z</time>
      </trkpt>
      <trkpt lat="44.55478" lon="3.99197">
        <ele>867.25</ele>
        <time>2013-08-25T12:04:16Z</time>
      </trkpt>
      <trkpt lat="44.55471" lon="3.99211">
        <ele>864.84</ele>
        <time>2013-08-25T12:04:20Z</time>
      </trkpt>
      <trkpt lat="44.55465" lon="3.99215">
        <ele>863.88</ele>
        <time>2013-08-25T12:04:24Z</time>
      </trkpt>
      <trkpt lat="44.55461" lon="3.99214">
        <ele>862.44</ele>
        <time>2013-08-25T12:04:26Z</time>
      </trkpt>
      <trkpt lat="44.55458" lon="3.99213">
        <ele>861.96</ele>
        <time>2013-08-25T12:04:29Z</time>
      </trkpt>
      <trkpt lat="44.55457" lon="3.99214">
        <ele>861.96</ele>
        <time>2013-08-25T12:04:30Z</time>
      </trkpt>
      <trkpt lat="44.55453" lon="3.99222">
        <ele>861</ele>
        <time>2013-08-25T12:04:34Z</time>
      </trkpt>
      <trkpt lat="44.55444" lon="3.99247">
        <ele>858.11</ele>
        <time>2013-08-25T12:04:41Z</time>
      </trkpt>
      <trkpt lat="44.5544" lon="3.99258">
        <ele>857.15</ele>
        <time>2013-08-25T12:04:43Z</time>
      </trkpt>
      <trkpt lat="44.55433" lon="3.99271">
        <ele>855.23</ele>
        <time>2013-08-25T12:04:45Z</time>
      </trkpt>
      <trkpt lat="44.55427" lon="3.99277">
        <ele>853.31</ele>
        <time>2013-08-25T12:04:46Z</time>
      </trkpt>
      <trkpt lat="44.55409" lon="3.99292">
        <ele>851.38</ele>
        <time>2013-08-25T12:04:49Z</time>
      </trkpt>
      <trkpt lat="44.55394" lon="3.99308">
        <ele>848.5</ele>
        <time>2013-08-25T12:04:55Z</time>
      </trkpt>
      <trkpt lat="44.55386" lon="3.99316">
        <ele>848.02</ele>
        <time>2013-08-25T12:05:01Z</time>
      </trkpt>
      <trkpt lat="44.55386" lon="3.9932">
        <ele>847.06</ele>
        <time>2013-08-25T12:05:14Z</time>
      </trkpt>
      <trkpt lat="44.55387" lon="3.99325">
        <ele>847.06</ele>
        <time>2013-08-25T12:05:16Z</time>
      </trkpt>
      <trkpt lat="44.55378" lon="3.99334">
        <ele>847.06</ele>
        <time>2013-08-25T12:05:31Z</time>
      </trkpt>
      <trkpt lat="44.55389" lon="3.99326">
        <ele>847.54</ele>
        <time>2013-08-25T12:05:53Z</time>
      </trkpt>
      <trkpt lat="44.55393" lon="3.99324">
        <ele>843.69</ele>
        <time>2013-08-25T12:06:15Z</time>
      </trkpt>
      <trkpt lat="44.55393" lon="3.99324">
        <ele>844.18</ele>
        <time>2013-08-25T12:06:20Z</time>
      </trkpt>
      <trkpt lat="44.55393" lon="3.99324">
        <ele>848.02</ele>
        <time>2013-08-25T12:06:23Z</time>
      </trkpt>
      <trkpt lat="44.55394" lon="3.99323">
        <ele>844.18</ele>
        <time>2013-08-25T12:06:31Z</time>
      </trkpt>
      <trkpt lat="44.55394" lon="3.99323">
        <ele>846.58</ele>
        <time>2013-08-25T12:06:33Z</time>
      </trkpt>
      <trkpt lat="44.554" lon="3.9932">
        <ele>849.94</ele>
        <time>2013-08-25T12:06:43Z</time>
      </trkpt>
      <trkpt lat="44.554" lon="3.9932">
        <ele>843.21</ele>
        <time>2013-08-25T12:06:44Z</time>
      </trkpt>
      <trkpt lat="44.554" lon="3.9932">
        <ele>848.5</ele>
        <time>2013-08-25T12:06:45Z</time>
      </trkpt>
      <trkpt lat="44.55401" lon="3.9932">
        <ele>845.14</ele>
        <time>2013-08-25T12:06:46Z</time>
      </trkpt>
      <trkpt lat="44.55401" lon="3.9932">
        <ele>843.21</ele>
        <time>2013-08-25T12:06:48Z</time>
      </trkpt>
      <trkpt lat="44.55402" lon="3.9932">
        <ele>847.54</ele>
        <time>2013-08-25T12:06:49Z</time>
      </trkpt>
      <trkpt lat="44.55402" lon="3.9932">
        <ele>842.25</ele>
        <time>2013-08-25T12:06:50Z</time>
      </trkpt>
      <trkpt lat="44.55402" lon="3.9932">
        <ele>850.42</ele>
        <time>2013-08-25T12:06:51Z</time>
      </trkpt>
      <trkpt lat="44.55402" lon="3.9932">
        <ele>843.21</ele>
        <time>2013-08-25T12:06:52Z</time>
      </trkpt>
      <trkpt lat="44.55402" lon="3.99319">
        <ele>846.58</ele>
        <time>2013-08-25T12:06:53Z</time>
      </trkpt>
      <trkpt lat="44.55403" lon="3.99319">
        <ele>847.54</ele>
        <time>2013-08-25T12:07:16Z</time>
      </trkpt>
      <trkpt lat="44.55403" lon="3.99319">
        <ele>846.58</ele>
        <time>2013-08-25T12:07:18Z</time>
      </trkpt>
      <trkpt lat="44.55403" lon="3.99319">
        <ele>846.58</ele>
        <time>2013-08-25T12:07:46Z</time>
      </trkpt>
      <trkpt lat="44.55403" lon="3.99319">
        <ele>847.54</ele>
        <time>2013-08-25T12:07:50Z</time>
      </trkpt>
      <trkpt lat="44.55403" lon="3.99319">
        <ele>844.18</ele>
        <time>2013-08-25T12:08:07Z</time>
      </trkpt>
      <trkpt lat="44.55403" lon="3.99319">
        <ele>848.98</ele>
        <time>2013-08-25T12:08:11Z</time>
      </trkpt>
      <trkpt lat="44.55403" lon="3.99319">
        <ele>844.66</ele>
        <time>2013-08-25T12:08:17Z</time>
      </trkpt>
      <trkpt lat="44.55404" lon="3.99318">
        <ele>846.58</ele>
        <time>2013-08-25T12:08:40Z</time>
      </trkpt>
      <trkpt lat="44.55403" lon="3.99319">
        <ele>846.1</ele>
        <time>2013-08-25T12:09:00Z</time>
      </trkpt>
      <trkpt lat="44.55404" lon="3.99318">
        <ele>846.58</ele>
        <time>2013-08-25T12:09:30Z</time>
      </trkpt>
      <trkpt lat="44.55404" lon="3.99318">
        <ele>846.1</ele>
        <time>2013-08-25T12:10:00Z</time>
      </trkpt>
      <trkpt lat="44.55404" lon="3.99318">
        <ele>847.54</ele>
        <time>2013-08-25T12:10:34Z</time>
      </trkpt>
      <trkpt lat="44.55404" lon="3.99318">
        <ele>848.5</ele>
        <time>2013-08-25T12:11:09Z</time>
      </trkpt>
      <trkpt lat="44.55404" lon="3.99316">
        <ele>848.98</ele>
        <time>2013-08-25T12:11:27Z</time>
      </trkpt>
      <trkpt lat="44.55406" lon="3.9932">
        <ele>849.46</ele>
        <time>2013-08-25T12:11:39Z</time>
      </trkpt>
      <trkpt lat="44.55407" lon="3.9933">
        <ele>851.87</ele>
        <time>2013-08-25T12:11:51Z</time>
      </trkpt>
      <trkpt lat="44.55409" lon="3.99341">
        <ele>851.87</ele>
        <time>2013-08-25T12:12:04Z</time>
      </trkpt>
      <trkpt lat="44.55409" lon="3.99341">
        <ele>851.87</ele>
        <time>2013-08-25T12:12:05Z</time>
      </trkpt>
      <trkpt lat="44.554" lon="3.99352">
        <ele>850.42</ele>
        <time>2013-08-25T12:12:10Z</time>
      </trkpt>
      <trkpt lat="44.55394" lon="3.99365">
        <ele>852.83</ele>
        <time>2013-08-25T12:12:18Z</time>
      </trkpt>
      <trkpt lat="44.55396" lon="3.99373">
        <ele>853.31</ele>
        <time>2013-08-25T12:12:22Z</time>
      </trkpt>
      <trkpt lat="44.55399" lon="3.99381">
        <ele>853.79</ele>
        <time>2013-08-25T12:12:26Z</time>
      </trkpt>
      <trkpt lat="44.55405" lon="3.99395">
        <ele>854.75</ele>
        <time>2013-08-25T12:12:33Z</time>
      </trkpt>
      <trkpt lat="44.55397" lon="3.9939">
        <ele>854.75</ele>
        <time>2013-08-25T12:12:42Z</time>
      </trkpt>
      <trkpt lat="44.55396" lon="3.99389">
        <ele>855.23</ele>
        <time>2013-08-25T12:12:43Z</time>
      </trkpt>
      <trkpt lat="44.55378" lon="3.99365">
        <ele>854.75</ele>
        <time>2013-08-25T12:12:57Z</time>
      </trkpt>
      <trkpt lat="44.55376" lon="3.99361">
        <ele>855.23</ele>
        <time>2013-08-25T12:12:59Z</time>
      </trkpt>
      <trkpt lat="44.55363" lon="3.99336">
        <ele>855.71</ele>
        <time>2013-08-25T12:13:10Z</time>
      </trkpt>
      <trkpt lat="44.55352" lon="3.99316">
        <ele>856.19</ele>
        <time>2013-08-25T12:13:20Z</time>
      </trkpt>
      <trkpt lat="44.55333" lon="3.99288">
        <ele>856.67</ele>
        <time>2013-08-25T12:13:31Z</time>
      </trkpt>
      <trkpt lat="44.5531" lon="3.99263">
        <ele>856.19</ele>
        <time>2013-08-25T12:13:43Z</time>
      </trkpt>
      <trkpt lat="44.55293" lon="3.99251">
        <ele>857.63</ele>
        <time>2013-08-25T12:13:52Z</time>
      </trkpt>
      <trkpt lat="44.55268" lon="3.99244">
        <ele>859.08</ele>
        <time>2013-08-25T12:14:04Z</time>
      </trkpt>
      <trkpt lat="44.55239" lon="3.99248">
        <ele>861</ele>
        <time>2013-08-25T12:14:18Z</time>
      </trkpt>
      <trkpt lat="44.55235" lon="3.99251">
        <ele>861.48</ele>
        <time>2013-08-25T12:14:20Z</time>
      </trkpt>
      <trkpt lat="44.55209" lon="3.99273">
        <ele>863.4</ele>
        <time>2013-08-25T12:14:34Z</time>
      </trkpt>
      <trkpt lat="44.55185" lon="3.9929">
        <ele>864.84</ele>
        <time>2013-08-25T12:14:46Z</time>
      </trkpt>
      <trkpt lat="44.55163" lon="3.99313">
        <ele>865.32</ele>
        <time>2013-08-25T12:14:58Z</time>
      </trkpt>
      <trkpt lat="44.55135" lon="3.99336">
        <ele>866.29</ele>
        <time>2013-08-25T12:15:11Z</time>
      </trkpt>
      <trkpt lat="44.55111" lon="3.99355">
        <ele>866.29</ele>
        <time>2013-08-25T12:15:21Z</time>
      </trkpt>
      <trkpt lat="44.55086" lon="3.99376">
        <ele>866.29</ele>
        <time>2013-08-25T12:15:32Z</time>
      </trkpt>
      <trkpt lat="44.55059" lon="3.99381">
        <ele>867.25</ele>
        <time>2013-08-25T12:15:43Z</time>
      </trkpt>
      <trkpt lat="44.5503" lon="3.9939">
        <ele>867.73</ele>
        <time>2013-08-25T12:15:53Z</time>
      </trkpt>
      <trkpt lat="44.55005" lon="3.994">
        <ele>869.17</ele>
        <time>2013-08-25T12:16:03Z</time>
      </trkpt>
      <trkpt lat="44.54995" lon="3.99402">
        <ele>869.65</ele>
        <time>2013-08-25T12:16:08Z</time>
      </trkpt>
      <trkpt lat="44.54992" lon="3.99401">
        <ele>869.65</ele>
        <time>2013-08-25T12:16:09Z</time>
      </trkpt>
      <trkpt lat="44.54951" lon="3.99397">
        <ele>870.61</ele>
        <time>2013-08-25T12:16:23Z</time>
      </trkpt>
      <trkpt lat="44.54915" lon="3.99392">
        <ele>872.53</ele>
        <time>2013-08-25T12:16:35Z</time>
      </trkpt>
      <trkpt lat="44.54898" lon="3.99385">
        <ele>873.5</ele>
        <time>2013-08-25T12:16:42Z</time>
      </trkpt>
      <trkpt lat="44.54857" lon="3.99375">
        <ele>875.42</ele>
        <time>2013-08-25T12:16:57Z</time>
      </trkpt>
      <trkpt lat="44.54836" lon="3.99374">
        <ele>877.82</ele>
        <time>2013-08-25T12:17:07Z</time>
      </trkpt>
      <trkpt lat="44.54813" lon="3.99377">
        <ele>880.22</ele>
        <time>2013-08-25T12:17:19Z</time>
      </trkpt>
      <trkpt lat="44.54798" lon="3.99382">
        <ele>881.67</ele>
        <time>2013-08-25T12:17:29Z</time>
      </trkpt>
      <trkpt lat="44.54792" lon="3.99385">
        <ele>881.19</ele>
        <time>2013-08-25T12:17:33Z</time>
      </trkpt>
      <trkpt lat="44.54776" lon="3.99391">
        <ele>885.03</ele>
        <time>2013-08-25T12:17:44Z</time>
      </trkpt>
      <trkpt lat="44.54759" lon="3.994">
        <ele>885.99</ele>
        <time>2013-08-25T12:17:56Z</time>
      </trkpt>
      <trkpt lat="44.54737" lon="3.99415">
        <ele>888.4</ele>
        <time>2013-08-25T12:18:10Z</time>
      </trkpt>
      <trkpt lat="44.54718" lon="3.99432">
        <ele>889.36</ele>
        <time>2013-08-25T12:18:23Z</time>
      </trkpt>
      <trkpt lat="44.54694" lon="3.99457">
        <ele>890.32</ele>
        <time>2013-08-25T12:18:36Z</time>
      </trkpt>
      <trkpt lat="44.54678" lon="3.99482">
        <ele>890.8</ele>
        <time>2013-08-25T12:18:46Z</time>
      </trkpt>
      <trkpt lat="44.54665" lon="3.99515">
        <ele>890.8</ele>
        <time>2013-08-25T12:18:58Z</time>
      </trkpt>
      <trkpt lat="44.54661" lon="3.99539">
        <ele>891.28</ele>
        <time>2013-08-25T12:19:07Z</time>
      </trkpt>
      <trkpt lat="44.54654" lon="3.99547">
        <ele>891.76</ele>
        <time>2013-08-25T12:19:11Z</time>
      </trkpt>
      <trkpt lat="44.54625" lon="3.99539">
        <ele>892.72</ele>
        <time>2013-08-25T12:19:23Z</time>
      </trkpt>
      <trkpt lat="44.54599" lon="3.99525">
        <ele>893.68</ele>
        <time>2013-08-25T12:19:34Z</time>
      </trkpt>
      <trkpt lat="44.54591" lon="3.99526">
        <ele>894.16</ele>
        <time>2013-08-25T12:19:38Z</time>
      </trkpt>
      <trkpt lat="44.54561" lon="3.99523">
        <ele>896.09</ele>
        <time>2013-08-25T12:19:51Z</time>
      </trkpt>
      <trkpt lat="44.54559" lon="3.99523">
        <ele>896.57</ele>
        <time>2013-08-25T12:19:52Z</time>
      </trkpt>
      <trkpt lat="44.54557" lon="3.99525">
        <ele>897.05</ele>
        <time>2013-08-25T12:19:55Z</time>
      </trkpt>
      <trkpt lat="44.54535" lon="3.99527">
        <ele>898.01</ele>
        <time>2013-08-25T12:20:03Z</time>
      </trkpt>
      <trkpt lat="44.54506" lon="3.99546">
        <ele>900.41</ele>
        <time>2013-08-25T12:20:17Z</time>
      </trkpt>
      <trkpt lat="44.54499" lon="3.99546">
        <ele>900.41</ele>
        <time>2013-08-25T12:20:20Z</time>
      </trkpt>
      <trkpt lat="44.54472" lon="3.99521">
        <ele>901.37</ele>
        <time>2013-08-25T12:20:34Z</time>
      </trkpt>
      <trkpt lat="44.54448" lon="3.99499">
        <ele>903.3</ele>
        <time>2013-08-25T12:20:46Z</time>
      </trkpt>
      <trkpt lat="44.54425" lon="3.99478">
        <ele>905.7</ele>
        <time>2013-08-25T12:20:58Z</time>
      </trkpt>
      <trkpt lat="44.544" lon="3.99455">
        <ele>907.62</ele>
        <time>2013-08-25T12:21:11Z</time>
      </trkpt>
      <trkpt lat="44.54377" lon="3.99434">
        <ele>910.51</ele>
        <time>2013-08-25T12:21:22Z</time>
      </trkpt>
      <trkpt lat="44.54356" lon="3.99428">
        <ele>911.95</ele>
        <time>2013-08-25T12:21:30Z</time>
      </trkpt>
      <trkpt lat="44.54342" lon="3.99427">
        <ele>912.91</ele>
        <time>2013-08-25T12:21:35Z</time>
      </trkpt>
      <trkpt lat="44.54301" lon="3.99427">
        <ele>913.87</ele>
        <time>2013-08-25T12:21:51Z</time>
      </trkpt>
      <trkpt lat="44.54268" lon="3.99439">
        <ele>915.31</ele>
        <time>2013-08-25T12:22:05Z</time>
      </trkpt>
      <trkpt lat="44.54266" lon="3.99484">
        <ele>914.83</ele>
        <time>2013-08-25T12:22:18Z</time>
      </trkpt>
      <trkpt lat="44.54269" lon="3.9952">
        <ele>914.83</ele>
        <time>2013-08-25T12:22:29Z</time>
      </trkpt>
      <trkpt lat="44.54271" lon="3.99553">
        <ele>915.79</ele>
        <time>2013-08-25T12:22:39Z</time>
      </trkpt>
      <trkpt lat="44.54273" lon="3.99571">
        <ele>916.27</ele>
        <time>2013-08-25T12:22:45Z</time>
      </trkpt>
      <trkpt lat="44.54272" lon="3.99586">
        <ele>916.27</ele>
        <time>2013-08-25T12:22:50Z</time>
      </trkpt>
      <trkpt lat="44.54269" lon="3.99628">
        <ele>916.75</ele>
        <time>2013-08-25T12:23:03Z</time>
      </trkpt>
      <trkpt lat="44.54268" lon="3.99645">
        <ele>916.75</ele>
        <time>2013-08-25T12:23:08Z</time>
      </trkpt>
      <trkpt lat="44.54267" lon="3.99649">
        <ele>916.27</ele>
        <time>2013-08-25T12:23:10Z</time>
      </trkpt>
      <trkpt lat="44.54262" lon="3.99683">
        <ele>917.24</ele>
        <time>2013-08-25T12:23:20Z</time>
      </trkpt>
      <trkpt lat="44.54259" lon="3.99701">
        <ele>917.24</ele>
        <time>2013-08-25T12:23:26Z</time>
      </trkpt>
      <trkpt lat="44.5425" lon="3.99739">
        <ele>919.16</ele>
        <time>2013-08-25T12:23:37Z</time>
      </trkpt>
      <trkpt lat="44.54244" lon="3.99753">
        <ele>919.64</ele>
        <time>2013-08-25T12:23:42Z</time>
      </trkpt>
      <trkpt lat="44.5424" lon="3.99768">
        <ele>919.64</ele>
        <time>2013-08-25T12:23:46Z</time>
      </trkpt>
      <trkpt lat="44.54231" lon="3.99809">
        <ele>921.08</ele>
        <time>2013-08-25T12:23:59Z</time>
      </trkpt>
      <trkpt lat="44.5422" lon="3.99821">
        <ele>921.56</ele>
        <time>2013-08-25T12:24:04Z</time>
      </trkpt>
      <trkpt lat="44.54213" lon="3.99822">
        <ele>922.52</ele>
        <time>2013-08-25T12:24:09Z</time>
      </trkpt>
      <trkpt lat="44.54205" lon="3.99812">
        <ele>923</ele>
        <time>2013-08-25T12:24:14Z</time>
      </trkpt>
      <trkpt lat="44.54195" lon="3.99793">
        <ele>923.96</ele>
        <time>2013-08-25T12:24:22Z</time>
      </trkpt>
      <trkpt lat="44.54193" lon="3.99791">
        <ele>923.96</ele>
        <time>2013-08-25T12:24:23Z</time>
      </trkpt>
      <trkpt lat="44.54187" lon="3.99794">
        <ele>924.93</ele>
        <time>2013-08-25T12:24:32Z</time>
      </trkpt>
      <trkpt lat="44.54187" lon="3.99794">
        <ele>924.93</ele>
        <time>2013-08-25T12:25:00Z</time>
      </trkpt>
      <trkpt lat="44.54187" lon="3.99795">
        <ele>924.45</ele>
        <time>2013-08-25T12:25:15Z</time>
      </trkpt>
      <trkpt lat="44.54195" lon="3.99817">
        <ele>924.45</ele>
        <time>2013-08-25T12:25:27Z</time>
      </trkpt>
      <trkpt lat="44.54199" lon="3.99828">
        <ele>925.41</ele>
        <time>2013-08-25T12:25:31Z</time>
      </trkpt>
      <trkpt lat="44.54199" lon="3.99832">
        <ele>925.41</ele>
        <time>2013-08-25T12:25:33Z</time>
      </trkpt>
      <trkpt lat="44.54206" lon="3.99854">
        <ele>928.29</ele>
        <time>2013-08-25T12:25:42Z</time>
      </trkpt>
      <trkpt lat="44.54218" lon="3.99881">
        <ele>931.17</ele>
        <time>2013-08-25T12:25:55Z</time>
      </trkpt>
      <trkpt lat="44.54236" lon="3.99898">
        <ele>933.58</ele>
        <time>2013-08-25T12:26:10Z</time>
      </trkpt>
      <trkpt lat="44.54253" lon="3.99915">
        <ele>935.98</ele>
        <time>2013-08-25T12:26:24Z</time>
      </trkpt>
      <trkpt lat="44.54267" lon="3.99941">
        <ele>937.9</ele>
        <time>2013-08-25T12:26:39Z</time>
      </trkpt>
      <trkpt lat="44.54282" lon="3.99966">
        <ele>939.83</ele>
        <time>2013-08-25T12:26:54Z</time>
      </trkpt>
      <trkpt lat="44.54283" lon="3.99971">
        <ele>940.31</ele>
        <time>2013-08-25T12:26:56Z</time>
      </trkpt>
      <trkpt lat="44.54296" lon="3.99988">
        <ele>941.27</ele>
        <time>2013-08-25T12:27:06Z</time>
      </trkpt>
      <trkpt lat="44.54303" lon="3.99996">
        <ele>941.75</ele>
        <time>2013-08-25T12:27:11Z</time>
      </trkpt>
      <trkpt lat="44.5432" lon="4.00009">
        <ele>942.23</ele>
        <time>2013-08-25T12:27:22Z</time>
      </trkpt>
      <trkpt lat="44.54345" lon="4.00041">
        <ele>944.63</ele>
        <time>2013-08-25T12:27:41Z</time>
      </trkpt>
      <trkpt lat="44.54368" lon="4.00043">
        <ele>947.04</ele>
        <time>2013-08-25T12:27:53Z</time>
      </trkpt>
      <trkpt lat="44.54399" lon="4.00029">
        <ele>947.04</ele>
        <time>2013-08-25T12:28:08Z</time>
      </trkpt>
      <trkpt lat="44.54417" lon="4.00017">
        <ele>946.07</ele>
        <time>2013-08-25T12:28:15Z</time>
      </trkpt>
      <trkpt lat="44.54418" lon="3.99996">
        <ele>945.11</ele>
        <time>2013-08-25T12:28:19Z</time>
      </trkpt>
      <trkpt lat="44.54401" lon="3.99967">
        <ele>947.04</ele>
        <time>2013-08-25T12:28:27Z</time>
      </trkpt>
      <trkpt lat="44.54384" lon="3.99945">
        <ele>948.96</ele>
        <time>2013-08-25T12:28:39Z</time>
      </trkpt>
      <trkpt lat="44.54383" lon="3.99913">
        <ele>951.36</ele>
        <time>2013-08-25T12:28:52Z</time>
      </trkpt>
      <trkpt lat="44.54382" lon="3.99876">
        <ele>951.36</ele>
        <time>2013-08-25T12:29:06Z</time>
      </trkpt>
      <trkpt lat="44.5437" lon="3.99836">
        <ele>952.32</ele>
        <time>2013-08-25T12:29:23Z</time>
      </trkpt>
      <trkpt lat="44.54356" lon="3.99804">
        <ele>955.21</ele>
        <time>2013-08-25T12:29:37Z</time>
      </trkpt>
      <trkpt lat="44.54344" lon="3.99788">
        <ele>955.69</ele>
        <time>2013-08-25T12:29:46Z</time>
      </trkpt>
      <trkpt lat="44.54351" lon="3.99779">
        <ele>957.13</ele>
        <time>2013-08-25T12:29:55Z</time>
      </trkpt>
      <trkpt lat="44.54382" lon="3.99812">
        <ele>959.05</ele>
        <time>2013-08-25T12:30:15Z</time>
      </trkpt>
      <trkpt lat="44.54403" lon="3.99829">
        <ele>960.98</ele>
        <time>2013-08-25T12:30:28Z</time>
      </trkpt>
      <trkpt lat="44.54425" lon="3.99849">
        <ele>963.86</ele>
        <time>2013-08-25T12:30:42Z</time>
      </trkpt>
      <trkpt lat="44.54437" lon="3.9986">
        <ele>964.34</ele>
        <time>2013-08-25T12:30:50Z</time>
      </trkpt>
      <trkpt lat="44.54445" lon="3.99872">
        <ele>965.3</ele>
        <time>2013-08-25T12:30:57Z</time>
      </trkpt>
      <trkpt lat="44.54459" lon="3.99907">
        <ele>966.26</ele>
        <time>2013-08-25T12:31:13Z</time>
      </trkpt>
      <trkpt lat="44.54477" lon="3.99934">
        <ele>968.18</ele>
        <time>2013-08-25T12:31:27Z</time>
      </trkpt>
      <trkpt lat="44.54496" lon="3.9997">
        <ele>969.15</ele>
        <time>2013-08-25T12:31:43Z</time>
      </trkpt>
      <trkpt lat="44.54528" lon="4.00005">
        <ele>971.55</ele>
        <time>2013-08-25T12:32:04Z</time>
      </trkpt>
      <trkpt lat="44.54545" lon="4.0001">
        <ele>973.95</ele>
        <time>2013-08-25T12:32:13Z</time>
      </trkpt>
      <trkpt lat="44.54567" lon="4.00017">
        <ele>974.91</ele>
        <time>2013-08-25T12:32:25Z</time>
      </trkpt>
      <trkpt lat="44.54571" lon="4.00019">
        <ele>974.91</ele>
        <time>2013-08-25T12:32:27Z</time>
      </trkpt>
      <trkpt lat="44.54596" lon="4.00024">
        <ele>978.28</ele>
        <time>2013-08-25T12:32:41Z</time>
      </trkpt>
      <trkpt lat="44.54622" lon="4.00026">
        <ele>980.68</ele>
        <time>2013-08-25T12:32:54Z</time>
      </trkpt>
      <trkpt lat="44.54648" lon="4.00022">
        <ele>982.6</ele>
        <time>2013-08-25T12:33:08Z</time>
      </trkpt>
      <trkpt lat="44.54653" lon="4.00021">
        <ele>983.09</ele>
        <time>2013-08-25T12:33:11Z</time>
      </trkpt>
      <trkpt lat="44.5468" lon="4.0002">
        <ele>984.53</ele>
        <time>2013-08-25T12:33:25Z</time>
      </trkpt>
      <trkpt lat="44.54708" lon="4.00019">
        <ele>986.93</ele>
        <time>2013-08-25T12:33:39Z</time>
      </trkpt>
      <trkpt lat="44.54738" lon="4.00016">
        <ele>988.85</ele>
        <time>2013-08-25T12:33:54Z</time>
      </trkpt>
      <trkpt lat="44.5477" lon="4.00019">
        <ele>990.78</ele>
        <time>2013-08-25T12:34:10Z</time>
      </trkpt>
      <trkpt lat="44.54798" lon="4.00021">
        <ele>992.7</ele>
        <time>2013-08-25T12:34:24Z</time>
      </trkpt>
      <trkpt lat="44.54822" lon="4.00025">
        <ele>993.18</ele>
        <time>2013-08-25T12:34:36Z</time>
      </trkpt>
      <trkpt lat="44.54843" lon="4.00028">
        <ele>996.06</ele>
        <time>2013-08-25T12:34:46Z</time>
      </trkpt>
      <trkpt lat="44.54849" lon="4.00056">
        <ele>997.99</ele>
        <time>2013-08-25T12:34:58Z</time>
      </trkpt>
      <trkpt lat="44.54847" lon="4.00091">
        <ele>998.95</ele>
        <time>2013-08-25T12:35:11Z</time>
      </trkpt>
      <trkpt lat="44.54842" lon="4.00133">
        <ele>1000.39</ele>
        <time>2013-08-25T12:35:26Z</time>
      </trkpt>
      <trkpt lat="44.54833" lon="4.00164">
        <ele>1001.83</ele>
        <time>2013-08-25T12:35:38Z</time>
      </trkpt>
      <trkpt lat="44.5482" lon="4.00178">
        <ele>1003.75</ele>
        <time>2013-08-25T12:35:47Z</time>
      </trkpt>
      <trkpt lat="44.54797" lon="4.00203">
        <ele>1005.2</ele>
        <time>2013-08-25T12:36:01Z</time>
      </trkpt>
      <trkpt lat="44.54766" lon="4.00228">
        <ele>1007.12</ele>
        <time>2013-08-25T12:36:17Z</time>
      </trkpt>
      <trkpt lat="44.54728" lon="4.00247">
        <ele>1009.52</ele>
        <time>2013-08-25T12:36:35Z</time>
      </trkpt>
      <trkpt lat="44.54696" lon="4.00268">
        <ele>1011.93</ele>
        <time>2013-08-25T12:36:52Z</time>
      </trkpt>
      <trkpt lat="44.5467" lon="4.00287">
        <ele>1013.85</ele>
        <time>2013-08-25T12:37:06Z</time>
      </trkpt>
      <trkpt lat="44.54646" lon="4.00308">
        <ele>1017.21</ele>
        <time>2013-08-25T12:37:20Z</time>
      </trkpt>
      <trkpt lat="44.54619" lon="4.00335">
        <ele>1018.17</ele>
        <time>2013-08-25T12:37:36Z</time>
      </trkpt>
      <trkpt lat="44.54595" lon="4.00362">
        <ele>1021.06</ele>
        <time>2013-08-25T12:37:51Z</time>
      </trkpt>
      <trkpt lat="44.54568" lon="4.0039">
        <ele>1022.98</ele>
        <time>2013-08-25T12:38:07Z</time>
      </trkpt>
      <trkpt lat="44.54532" lon="4.00409">
        <ele>1025.38</ele>
        <time>2013-08-25T12:38:24Z</time>
      </trkpt>
      <trkpt lat="44.54493" lon="4.00413">
        <ele>1028.27</ele>
        <time>2013-08-25T12:38:42Z</time>
      </trkpt>
      <trkpt lat="44.5447" lon="4.00416">
        <ele>1029.23</ele>
        <time>2013-08-25T12:38:53Z</time>
      </trkpt>
      <trkpt lat="44.54451" lon="4.0042">
        <ele>1030.67</ele>
        <time>2013-08-25T12:39:04Z</time>
      </trkpt>
      <trkpt lat="44.54421" lon="4.00431">
        <ele>1033.07</ele>
        <time>2013-08-25T12:39:19Z</time>
      </trkpt>
      <trkpt lat="44.54394" lon="4.00451">
        <ele>1035</ele>
        <time>2013-08-25T12:39:34Z</time>
      </trkpt>
      <trkpt lat="44.54366" lon="4.00463">
        <ele>1036.92</ele>
        <time>2013-08-25T12:39:48Z</time>
      </trkpt>
      <trkpt lat="44.5434" lon="4.00468">
        <ele>1038.84</ele>
        <time>2013-08-25T12:40:00Z</time>
      </trkpt>
      <trkpt lat="44.54313" lon="4.00461">
        <ele>1040.76</ele>
        <time>2013-08-25T12:40:13Z</time>
      </trkpt>
      <trkpt lat="44.54291" lon="4.00448">
        <ele>1042.21</ele>
        <time>2013-08-25T12:40:24Z</time>
      </trkpt>
      <trkpt lat="44.54255" lon="4.00434">
        <ele>1044.13</ele>
        <time>2013-08-25T12:40:41Z</time>
      </trkpt>
      <trkpt lat="44.54223" lon="4.00425">
        <ele>1047.01</ele>
        <time>2013-08-25T12:40:56Z</time>
      </trkpt>
      <trkpt lat="44.54191" lon="4.00409">
        <ele>1048.94</ele>
        <time>2013-08-25T12:41:11Z</time>
      </trkpt>
      <trkpt lat="44.54163" lon="4.00385">
        <ele>1049.9</ele>
        <time>2013-08-25T12:41:26Z</time>
      </trkpt>
      <trkpt lat="44.54131" lon="4.00363">
        <ele>1052.3</ele>
        <time>2013-08-25T12:41:43Z</time>
      </trkpt>
      <trkpt lat="44.54094" lon="4.00344">
        <ele>1055.18</ele>
        <time>2013-08-25T12:42:01Z</time>
      </trkpt>
      <trkpt lat="44.54064" lon="4.0033">
        <ele>1056.15</ele>
        <time>2013-08-25T12:42:16Z</time>
      </trkpt>
      <trkpt lat="44.5405" lon="4.00357">
        <ele>1055.67</ele>
        <time>2013-08-25T12:42:27Z</time>
      </trkpt>
      <trkpt lat="44.54054" lon="4.00407">
        <ele>1056.63</ele>
        <time>2013-08-25T12:42:42Z</time>
      </trkpt>
      <trkpt lat="44.54035" lon="4.00433">
        <ele>1058.07</ele>
        <time>2013-08-25T12:42:54Z</time>
      </trkpt>
      <trkpt lat="44.53993" lon="4.0044">
        <ele>1059.51</ele>
        <time>2013-08-25T12:43:11Z</time>
      </trkpt>
      <trkpt lat="44.53957" lon="4.00433">
        <ele>1059.51</ele>
        <time>2013-08-25T12:43:25Z</time>
      </trkpt>
      <trkpt lat="44.53917" lon="4.00423">
        <ele>1061.91</ele>
        <time>2013-08-25T12:43:40Z</time>
      </trkpt>
      <trkpt lat="44.53872" lon="4.00411">
        <ele>1062.87</ele>
        <time>2013-08-25T12:43:56Z</time>
      </trkpt>
      <trkpt lat="44.53836" lon="4.00411">
        <ele>1064.8</ele>
        <time>2013-08-25T12:44:09Z</time>
      </trkpt>
      <trkpt lat="44.53804" lon="4.0041">
        <ele>1066.72</ele>
        <time>2013-08-25T12:44:20Z</time>
      </trkpt>
      <trkpt lat="44.53765" lon="4.00406">
        <ele>1069.12</ele>
        <time>2013-08-25T12:44:34Z</time>
      </trkpt>
      <trkpt lat="44.53728" lon="4.00406">
        <ele>1071.05</ele>
        <time>2013-08-25T12:44:47Z</time>
      </trkpt>
      <trkpt lat="44.53682" lon="4.00408">
        <ele>1073.45</ele>
        <time>2013-08-25T12:45:03Z</time>
      </trkpt>
      <trkpt lat="44.53636" lon="4.00412">
        <ele>1075.85</ele>
        <time>2013-08-25T12:45:19Z</time>
      </trkpt>
      <trkpt lat="44.536" lon="4.00415">
        <ele>1077.29</ele>
        <time>2013-08-25T12:45:32Z</time>
      </trkpt>
      <trkpt lat="44.53562" lon="4.0041">
        <ele>1079.22</ele>
        <time>2013-08-25T12:45:46Z</time>
      </trkpt>
      <trkpt lat="44.53525" lon="4.0039">
        <ele>1081.62</ele>
        <time>2013-08-25T12:46:02Z</time>
      </trkpt>
      <trkpt lat="44.5351" lon="4.00382">
        <ele>1081.62</ele>
        <time>2013-08-25T12:46:13Z</time>
      </trkpt>
      <trkpt lat="44.5351" lon="4.00382">
        <ele>1081.62</ele>
        <time>2013-08-25T12:46:30Z</time>
      </trkpt>
      <trkpt lat="44.5351" lon="4.00382">
        <ele>1081.62</ele>
        <time>2013-08-25T12:46:49Z</time>
      </trkpt>
      <trkpt lat="44.5351" lon="4.00382">
        <ele>1081.14</ele>
        <time>2013-08-25T12:47:16Z</time>
      </trkpt>
      <trkpt lat="44.53507" lon="4.00384">
        <ele>1082.58</ele>
        <time>2013-08-25T12:47:34Z</time>
      </trkpt>
      <trkpt lat="44.53492" lon="4.00388">
        <ele>1081.62</ele>
        <time>2013-08-25T12:47:44Z</time>
      </trkpt>
      <trkpt lat="44.5349" lon="4.00396">
        <ele>1082.1</ele>
        <time>2013-08-25T12:47:58Z</time>
      </trkpt>
      <trkpt lat="44.53489" lon="4.00398">
        <ele>1082.1</ele>
        <time>2013-08-25T12:48:11Z</time>
      </trkpt>
      <trkpt lat="44.53488" lon="4.00403">
        <ele>1082.58</ele>
        <time>2013-08-25T12:48:24Z</time>
      </trkpt>
      <trkpt lat="44.53492" lon="4.00417">
        <ele>1083.06</ele>
        <time>2013-08-25T12:48:36Z</time>
      </trkpt>
      <trkpt lat="44.535" lon="4.00441">
        <ele>1085.47</ele>
        <time>2013-08-25T12:48:53Z</time>
      </trkpt>
      <trkpt lat="44.53503" lon="4.00445">
        <ele>1085.95</ele>
        <time>2013-08-25T12:48:57Z</time>
      </trkpt>
      <trkpt lat="44.53504" lon="4.00449">
        <ele>1086.43</ele>
        <time>2013-08-25T12:49:00Z</time>
      </trkpt>
      <trkpt lat="44.53508" lon="4.00469">
        <ele>1088.35</ele>
        <time>2013-08-25T12:49:15Z</time>
      </trkpt>
      <trkpt lat="44.53507" lon="4.00477">
        <ele>1089.31</ele>
        <time>2013-08-25T12:49:21Z</time>
      </trkpt>
      <trkpt lat="44.53506" lon="4.00483">
        <ele>1090.27</ele>
        <time>2013-08-25T12:49:26Z</time>
      </trkpt>
      <trkpt lat="44.53507" lon="4.00495">
        <ele>1092.68</ele>
        <time>2013-08-25T12:49:39Z</time>
      </trkpt>
      <trkpt lat="44.53509" lon="4.00503">
        <ele>1094.12</ele>
        <time>2013-08-25T12:49:52Z</time>
      </trkpt>
      <trkpt lat="44.53513" lon="4.0051">
        <ele>1095.56</ele>
        <time>2013-08-25T12:50:02Z</time>
      </trkpt>
      <trkpt lat="44.53516" lon="4.00515">
        <ele>1096.04</ele>
        <time>2013-08-25T12:50:07Z</time>
      </trkpt>
      <trkpt lat="44.53523" lon="4.00525">
        <ele>1097.96</ele>
        <time>2013-08-25T12:50:21Z</time>
      </trkpt>
      <trkpt lat="44.53526" lon="4.00532">
        <ele>1097.96</ele>
        <time>2013-08-25T12:50:31Z</time>
      </trkpt>
      <trkpt lat="44.53536" lon="4.0054">
        <ele>1097.96</ele>
        <time>2013-08-25T12:50:39Z</time>
      </trkpt>
      <trkpt lat="44.53555" lon="4.00559">
        <ele>1099.89</ele>
        <time>2013-08-25T12:50:53Z</time>
      </trkpt>
      <trkpt lat="44.53573" lon="4.00573">
        <ele>1101.33</ele>
        <time>2013-08-25T12:51:05Z</time>
      </trkpt>
      <trkpt lat="44.53579" lon="4.00579">
        <ele>1100.85</ele>
        <time>2013-08-25T12:51:09Z</time>
      </trkpt>
      <trkpt lat="44.53585" lon="4.00584">
        <ele>1101.81</ele>
        <time>2013-08-25T12:51:13Z</time>
      </trkpt>
      <trkpt lat="44.53596" lon="4.00594">
        <ele>1102.29</ele>
        <time>2013-08-25T12:51:21Z</time>
      </trkpt>
      <trkpt lat="44.53617" lon="4.00585">
        <ele>1103.25</ele>
        <time>2013-08-25T12:51:33Z</time>
      </trkpt>
      <trkpt lat="44.53645" lon="4.00576">
        <ele>1104.21</ele>
        <time>2013-08-25T12:51:47Z</time>
      </trkpt>
      <trkpt lat="44.53676" lon="4.00571">
        <ele>1105.17</ele>
        <time>2013-08-25T12:52:02Z</time>
      </trkpt>
      <trkpt lat="44.53714" lon="4.0058">
        <ele>1105.65</ele>
        <time>2013-08-25T12:52:18Z</time>
      </trkpt>
      <trkpt lat="44.53749" lon="4.00603">
        <ele>1103.73</ele>
        <time>2013-08-25T12:52:29Z</time>
      </trkpt>
      <trkpt lat="44.5377" lon="4.00634">
        <ele>1102.77</ele>
        <time>2013-08-25T12:52:36Z</time>
      </trkpt>
      <trkpt lat="44.53774" lon="4.00638">
        <ele>1103.25</ele>
        <time>2013-08-25T12:52:37Z</time>
      </trkpt>
      <trkpt lat="44.53826" lon="4.00693">
        <ele>1103.73</ele>
        <time>2013-08-25T12:52:53Z</time>
      </trkpt>
      <trkpt lat="44.53851" lon="4.00721">
        <ele>1105.65</ele>
        <time>2013-08-25T12:53:06Z</time>
      </trkpt>
      <trkpt lat="44.53853" lon="4.00722">
        <ele>1105.65</ele>
        <time>2013-08-25T12:53:07Z</time>
      </trkpt>
      <trkpt lat="44.53854" lon="4.00724">
        <ele>1106.13</ele>
        <time>2013-08-25T12:53:08Z</time>
      </trkpt>
      <trkpt lat="44.53856" lon="4.00725">
        <ele>1106.13</ele>
        <time>2013-08-25T12:53:09Z</time>
      </trkpt>
      <trkpt lat="44.53857" lon="4.00726">
        <ele>1106.13</ele>
        <time>2013-08-25T12:53:10Z</time>
      </trkpt>
      <trkpt lat="44.53859" lon="4.00726">
        <ele>1106.61</ele>
        <time>2013-08-25T12:53:11Z</time>
      </trkpt>
      <trkpt lat="44.53861" lon="4.00726">
        <ele>1107.58</ele>
        <time>2013-08-25T12:53:12Z</time>
      </trkpt>
      <trkpt lat="44.53875" lon="4.00731">
        <ele>1108.54</ele>
        <time>2013-08-25T12:53:20Z</time>
      </trkpt>
      <trkpt lat="44.53877" lon="4.00733">
        <ele>1109.02</ele>
        <time>2013-08-25T12:53:21Z</time>
      </trkpt>
      <trkpt lat="44.53893" lon="4.0075">
        <ele>1111.42</ele>
        <time>2013-08-25T12:53:33Z</time>
      </trkpt>
      <trkpt lat="44.53897" lon="4.00751">
        <ele>1111.42</ele>
        <time>2013-08-25T12:53:35Z</time>
      </trkpt>
      <trkpt lat="44.53898" lon="4.00752">
        <ele>1111.9</ele>
        <time>2013-08-25T12:53:36Z</time>
      </trkpt>
      <trkpt lat="44.53921" lon="4.00777">
        <ele>1113.82</ele>
        <time>2013-08-25T12:53:51Z</time>
      </trkpt>
      <trkpt lat="44.53923" lon="4.00783">
        <ele>1113.82</ele>
        <time>2013-08-25T12:54:00Z</time>
      </trkpt>
      <trkpt lat="44.53923" lon="4.00784">
        <ele>1114.31</ele>
        <time>2013-08-25T12:54:13Z</time>
      </trkpt>
      <trkpt lat="44.53924" lon="4.00783">
        <ele>1113.82</ele>
        <time>2013-08-25T12:54:25Z</time>
      </trkpt>
      <trkpt lat="44.53924" lon="4.00783">
        <ele>1113.34</ele>
        <time>2013-08-25T12:54:42Z</time>
      </trkpt>
      <trkpt lat="44.53933" lon="4.00789">
        <ele>1113.82</ele>
        <time>2013-08-25T12:54:51Z</time>
      </trkpt>
      <trkpt lat="44.53971" lon="4.00822">
        <ele>1114.31</ele>
        <time>2013-08-25T12:55:06Z</time>
      </trkpt>
      <trkpt lat="44.54008" lon="4.00853">
        <ele>1114.31</ele>
        <time>2013-08-25T12:55:21Z</time>
      </trkpt>
      <trkpt lat="44.54037" lon="4.0088">
        <ele>1115.75</ele>
        <time>2013-08-25T12:55:34Z</time>
      </trkpt>
      <trkpt lat="44.5406" lon="4.009">
        <ele>1117.19</ele>
        <time>2013-08-25T12:55:47Z</time>
      </trkpt>
      <trkpt lat="44.5409" lon="4.00927">
        <ele>1119.11</ele>
        <time>2013-08-25T12:56:04Z</time>
      </trkpt>
      <trkpt lat="44.54107" lon="4.00942">
        <ele>1120.55</ele>
        <time>2013-08-25T12:56:14Z</time>
      </trkpt>
      <trkpt lat="44.54109" lon="4.00943">
        <ele>1121.03</ele>
        <time>2013-08-25T12:56:15Z</time>
      </trkpt>
      <trkpt lat="44.54111" lon="4.00944">
        <ele>1120.55</ele>
        <time>2013-08-25T12:56:16Z</time>
      </trkpt>
      <trkpt lat="44.54113" lon="4.00945">
        <ele>1121.03</ele>
        <time>2013-08-25T12:56:17Z</time>
      </trkpt>
      <trkpt lat="44.54115" lon="4.00947">
        <ele>1121.03</ele>
        <time>2013-08-25T12:56:18Z</time>
      </trkpt>
      <trkpt lat="44.54145" lon="4.00968">
        <ele>1122.48</ele>
        <time>2013-08-25T12:56:34Z</time>
      </trkpt>
      <trkpt lat="44.54178" lon="4.00992">
        <ele>1124.4</ele>
        <time>2013-08-25T12:56:53Z</time>
      </trkpt>
      <trkpt lat="44.54181" lon="4.00993">
        <ele>1123.92</ele>
        <time>2013-08-25T12:57:03Z</time>
      </trkpt>
      <trkpt lat="44.54184" lon="4.00994">
        <ele>1124.88</ele>
        <time>2013-08-25T12:57:12Z</time>
      </trkpt>
      <trkpt lat="44.54186" lon="4.00992">
        <ele>1124.4</ele>
        <time>2013-08-25T12:57:20Z</time>
      </trkpt>
      <trkpt lat="44.54187" lon="4.00994">
        <ele>1124.4</ele>
        <time>2013-08-25T12:57:29Z</time>
      </trkpt>
      <trkpt lat="44.54187" lon="4.00994">
        <ele>1124.4</ele>
        <time>2013-08-25T12:57:32Z</time>
      </trkpt>
      <trkpt lat="44.54188" lon="4.00996">
        <ele>1124.4</ele>
        <time>2013-08-25T12:57:33Z</time>
      </trkpt>
      <trkpt lat="44.5419" lon="4.00997">
        <ele>1123.92</ele>
        <time>2013-08-25T12:57:34Z</time>
      </trkpt>
      <trkpt lat="44.54218" lon="4.01009">
        <ele>1124.88</ele>
        <time>2013-08-25T12:57:47Z</time>
      </trkpt>
      <trkpt lat="44.54246" lon="4.01015">
        <ele>1124.88</ele>
        <time>2013-08-25T12:58:00Z</time>
      </trkpt>
      <trkpt lat="44.54276" lon="4.0101">
        <ele>1125.36</ele>
        <time>2013-08-25T12:58:12Z</time>
      </trkpt>
      <trkpt lat="44.54314" lon="4.00992">
        <ele>1127.28</ele>
        <time>2013-08-25T12:58:27Z</time>
      </trkpt>
      <trkpt lat="44.54318" lon="4.00991">
        <ele>1128.24</ele>
        <time>2013-08-25T12:58:29Z</time>
      </trkpt>
      <trkpt lat="44.54345" lon="4.00981">
        <ele>1129.21</ele>
        <time>2013-08-25T12:58:43Z</time>
      </trkpt>
      <trkpt lat="44.54354" lon="4.00979">
        <ele>1130.65</ele>
        <time>2013-08-25T12:58:47Z</time>
      </trkpt>
      <trkpt lat="44.54356" lon="4.00979">
        <ele>1130.65</ele>
        <time>2013-08-25T12:58:48Z</time>
      </trkpt>
      <trkpt lat="44.54358" lon="4.00978">
        <ele>1130.65</ele>
        <time>2013-08-25T12:58:49Z</time>
      </trkpt>
      <trkpt lat="44.5436" lon="4.00978">
        <ele>1130.65</ele>
        <time>2013-08-25T12:58:50Z</time>
      </trkpt>
      <trkpt lat="44.54362" lon="4.00977">
        <ele>1130.65</ele>
        <time>2013-08-25T12:58:51Z</time>
      </trkpt>
      <trkpt lat="44.54364" lon="4.00977">
        <ele>1131.13</ele>
        <time>2013-08-25T12:58:52Z</time>
      </trkpt>
      <trkpt lat="44.54366" lon="4.00976">
        <ele>1132.09</ele>
        <time>2013-08-25T12:58:53Z</time>
      </trkpt>
      <trkpt lat="44.54368" lon="4.00975">
        <ele>1131.61</ele>
        <time>2013-08-25T12:58:54Z</time>
      </trkpt>
      <trkpt lat="44.54371" lon="4.00975">
        <ele>1131.61</ele>
        <time>2013-08-25T12:58:55Z</time>
      </trkpt>
      <trkpt lat="44.54373" lon="4.00974">
        <ele>1131.61</ele>
        <time>2013-08-25T12:58:56Z</time>
      </trkpt>
      <trkpt lat="44.54412" lon="4.00957">
        <ele>1133.53</ele>
        <time>2013-08-25T12:59:13Z</time>
      </trkpt>
      <trkpt lat="44.54457" lon="4.00936">
        <ele>1135.45</ele>
        <time>2013-08-25T12:59:30Z</time>
      </trkpt>
      <trkpt lat="44.54499" lon="4.00927">
        <ele>1135.45</ele>
        <time>2013-08-25T12:59:46Z</time>
      </trkpt>
      <trkpt lat="44.54533" lon="4.00922">
        <ele>1136.42</ele>
        <time>2013-08-25T12:59:58Z</time>
      </trkpt>
      <trkpt lat="44.5458" lon="4.00907">
        <ele>1135.45</ele>
        <time>2013-08-25T13:00:14Z</time>
      </trkpt>
      <trkpt lat="44.54627" lon="4.00894">
        <ele>1135.94</ele>
        <time>2013-08-25T13:00:29Z</time>
      </trkpt>
      <trkpt lat="44.54661" lon="4.00892">
        <ele>1135.94</ele>
        <time>2013-08-25T13:00:41Z</time>
      </trkpt>
      <trkpt lat="44.54694" lon="4.00891">
        <ele>1136.9</ele>
        <time>2013-08-25T13:00:51Z</time>
      </trkpt>
      <trkpt lat="44.54748" lon="4.00884">
        <ele>1135.94</ele>
        <time>2013-08-25T13:01:08Z</time>
      </trkpt>
      <trkpt lat="44.54798" lon="4.00887">
        <ele>1138.34</ele>
        <time>2013-08-25T13:01:25Z</time>
      </trkpt>
      <trkpt lat="44.54835" lon="4.00892">
        <ele>1138.34</ele>
        <time>2013-08-25T13:01:37Z</time>
      </trkpt>
      <trkpt lat="44.54885" lon="4.00901">
        <ele>1137.38</ele>
        <time>2013-08-25T13:01:53Z</time>
      </trkpt>
      <trkpt lat="44.54931" lon="4.00913">
        <ele>1134.01</ele>
        <time>2013-08-25T13:02:04Z</time>
      </trkpt>
      <trkpt lat="44.54978" lon="4.00929">
        <ele>1132.57</ele>
        <time>2013-08-25T13:02:13Z</time>
      </trkpt>
      <trkpt lat="44.54983" lon="4.0093">
        <ele>1132.57</ele>
        <time>2013-08-25T13:02:14Z</time>
      </trkpt>
      <trkpt lat="44.54988" lon="4.00932">
        <ele>1132.57</ele>
        <time>2013-08-25T13:02:15Z</time>
      </trkpt>
      <trkpt lat="44.55043" lon="4.00954">
        <ele>1132.09</ele>
        <time>2013-08-25T13:02:29Z</time>
      </trkpt>
      <trkpt lat="44.55093" lon="4.00975">
        <ele>1128.73</ele>
        <time>2013-08-25T13:02:40Z</time>
      </trkpt>
      <trkpt lat="44.55124" lon="4.00996">
        <ele>1126.8</ele>
        <time>2013-08-25T13:02:46Z</time>
      </trkpt>
      <trkpt lat="44.55141" lon="4.01016">
        <ele>1125.84</ele>
        <time>2013-08-25T13:02:50Z</time>
      </trkpt>
      <trkpt lat="44.55156" lon="4.01036">
        <ele>1124.88</ele>
        <time>2013-08-25T13:02:54Z</time>
      </trkpt>
      <trkpt lat="44.55164" lon="4.01045">
        <ele>1123.44</ele>
        <time>2013-08-25T13:02:56Z</time>
      </trkpt>
      <trkpt lat="44.55168" lon="4.01051">
        <ele>1122.96</ele>
        <time>2013-08-25T13:02:57Z</time>
      </trkpt>
      <trkpt lat="44.5517" lon="4.01056">
        <ele>1122.96</ele>
        <time>2013-08-25T13:02:58Z</time>
      </trkpt>
      <trkpt lat="44.55173" lon="4.01059">
        <ele>1122.96</ele>
        <time>2013-08-25T13:02:59Z</time>
      </trkpt>
      <trkpt lat="44.55175" lon="4.01062">
        <ele>1122.96</ele>
        <time>2013-08-25T13:03:00Z</time>
      </trkpt>
      <trkpt lat="44.55178" lon="4.01065">
        <ele>1122.96</ele>
        <time>2013-08-25T13:03:01Z</time>
      </trkpt>
      <trkpt lat="44.55179" lon="4.01068">
        <ele>1122.96</ele>
        <time>2013-08-25T13:03:02Z</time>
      </trkpt>
      <trkpt lat="44.55181" lon="4.01071">
        <ele>1122</ele>
        <time>2013-08-25T13:03:03Z</time>
      </trkpt>
      <trkpt lat="44.55182" lon="4.01073">
        <ele>1121.03</ele>
        <time>2013-08-25T13:03:04Z</time>
      </trkpt>
      <trkpt lat="44.55184" lon="4.01076">
        <ele>1121.52</ele>
        <time>2013-08-25T13:03:05Z</time>
      </trkpt>
      <trkpt lat="44.55185" lon="4.01079">
        <ele>1121.03</ele>
        <time>2013-08-25T13:03:06Z</time>
      </trkpt>
      <trkpt lat="44.55187" lon="4.01082">
        <ele>1120.55</ele>
        <time>2013-08-25T13:03:07Z</time>
      </trkpt>
      <trkpt lat="44.5519" lon="4.01084">
        <ele>1120.07</ele>
        <time>2013-08-25T13:03:08Z</time>
      </trkpt>
      <trkpt lat="44.55192" lon="4.01087">
        <ele>1119.11</ele>
        <time>2013-08-25T13:03:09Z</time>
      </trkpt>
      <trkpt lat="44.55199" lon="4.01093">
        <ele>1117.67</ele>
        <time>2013-08-25T13:03:11Z</time>
      </trkpt>
      <trkpt lat="44.55202" lon="4.01096">
        <ele>1117.19</ele>
        <time>2013-08-25T13:03:12Z</time>
      </trkpt>
      <trkpt lat="44.55206" lon="4.011">
        <ele>1116.71</ele>
        <time>2013-08-25T13:03:13Z</time>
      </trkpt>
      <trkpt lat="44.55211" lon="4.01105">
        <ele>1115.75</ele>
        <time>2013-08-25T13:03:14Z</time>
      </trkpt>
      <trkpt lat="44.55215" lon="4.01111">
        <ele>1115.75</ele>
        <time>2013-08-25T13:03:15Z</time>
      </trkpt>
      <trkpt lat="44.55219" lon="4.01118">
        <ele>1114.79</ele>
        <time>2013-08-25T13:03:16Z</time>
      </trkpt>
      <trkpt lat="44.55221" lon="4.01126">
        <ele>1114.79</ele>
        <time>2013-08-25T13:03:17Z</time>
      </trkpt>
      <trkpt lat="44.55249" lon="4.01183">
        <ele>1111.42</ele>
        <time>2013-08-25T13:03:24Z</time>
      </trkpt>
      <trkpt lat="44.55269" lon="4.01215">
        <ele>1111.42</ele>
        <time>2013-08-25T13:03:29Z</time>
      </trkpt>
      <trkpt lat="44.55272" lon="4.01221">
        <ele>1111.42</ele>
        <time>2013-08-25T13:03:30Z</time>
      </trkpt>
      <trkpt lat="44.55275" lon="4.01226">
        <ele>1111.9</ele>
        <time>2013-08-25T13:03:31Z</time>
      </trkpt>
      <trkpt lat="44.55278" lon="4.0123">
        <ele>1112.38</ele>
        <time>2013-08-25T13:03:32Z</time>
      </trkpt>
      <trkpt lat="44.5528" lon="4.01234">
        <ele>1111.42</ele>
        <time>2013-08-25T13:03:33Z</time>
      </trkpt>
      <trkpt lat="44.55283" lon="4.01238">
        <ele>1111.42</ele>
        <time>2013-08-25T13:03:34Z</time>
      </trkpt>
      <trkpt lat="44.55286" lon="4.01241">
        <ele>1112.38</ele>
        <time>2013-08-25T13:03:35Z</time>
      </trkpt>
      <trkpt lat="44.55312" lon="4.01277">
        <ele>1114.31</ele>
        <time>2013-08-25T13:03:47Z</time>
      </trkpt>
      <trkpt lat="44.55326" lon="4.01295">
        <ele>1117.19</ele>
        <time>2013-08-25T13:03:59Z</time>
      </trkpt>
      <trkpt lat="44.55327" lon="4.01296">
        <ele>1117.19</ele>
        <time>2013-08-25T13:04:00Z</time>
      </trkpt>
      <trkpt lat="44.55335" lon="4.01303">
        <ele>1118.63</ele>
        <time>2013-08-25T13:04:06Z</time>
      </trkpt>
      <trkpt lat="44.55336" lon="4.01304">
        <ele>1119.11</ele>
        <time>2013-08-25T13:04:07Z</time>
      </trkpt>
      <trkpt lat="44.55338" lon="4.01306">
        <ele>1119.11</ele>
        <time>2013-08-25T13:04:08Z</time>
      </trkpt>
      <trkpt lat="44.55339" lon="4.01307">
        <ele>1119.59</ele>
        <time>2013-08-25T13:04:09Z</time>
      </trkpt>
      <trkpt lat="44.5534" lon="4.01308">
        <ele>1119.59</ele>
        <time>2013-08-25T13:04:10Z</time>
      </trkpt>
      <trkpt lat="44.55342" lon="4.0131">
        <ele>1120.07</ele>
        <time>2013-08-25T13:04:11Z</time>
      </trkpt>
      <trkpt lat="44.55357" lon="4.01323">
        <ele>1122.48</ele>
        <time>2013-08-25T13:04:22Z</time>
      </trkpt>
      <trkpt lat="44.55379" lon="4.01344">
        <ele>1124.88</ele>
        <time>2013-08-25T13:04:36Z</time>
      </trkpt>
      <trkpt lat="44.55381" lon="4.01348">
        <ele>1125.36</ele>
        <time>2013-08-25T13:04:38Z</time>
      </trkpt>
      <trkpt lat="44.55382" lon="4.01349">
        <ele>1125.36</ele>
        <time>2013-08-25T13:04:39Z</time>
      </trkpt>
      <trkpt lat="44.55382" lon="4.01351">
        <ele>1125.36</ele>
        <time>2013-08-25T13:04:40Z</time>
      </trkpt>
      <trkpt lat="44.55383" lon="4.01352">
        <ele>1125.36</ele>
        <time>2013-08-25T13:04:41Z</time>
      </trkpt>
      <trkpt lat="44.55385" lon="4.01354">
        <ele>1125.84</ele>
        <time>2013-08-25T13:04:42Z</time>
      </trkpt>
      <trkpt lat="44.55386" lon="4.01356">
        <ele>1125.84</ele>
        <time>2013-08-25T13:04:43Z</time>
      </trkpt>
      <trkpt lat="44.55397" lon="4.01367">
        <ele>1127.28</ele>
        <time>2013-08-25T13:04:50Z</time>
      </trkpt>
      <trkpt lat="44.55419" lon="4.01398">
        <ele>1128.24</ele>
        <time>2013-08-25T13:05:05Z</time>
      </trkpt>
      <trkpt lat="44.5544" lon="4.01432">
        <ele>1128.24</ele>
        <time>2013-08-25T13:05:17Z</time>
      </trkpt>
      <trkpt lat="44.55462" lon="4.01472">
        <ele>1130.17</ele>
        <time>2013-08-25T13:05:30Z</time>
      </trkpt>
      <trkpt lat="44.55481" lon="4.0152">
        <ele>1130.65</ele>
        <time>2013-08-25T13:05:45Z</time>
      </trkpt>
      <trkpt lat="44.55491" lon="4.01542">
        <ele>1134.01</ele>
        <time>2013-08-25T13:05:52Z</time>
      </trkpt>
      <trkpt lat="44.55508" lon="4.01578">
        <ele>1134.97</ele>
        <time>2013-08-25T13:06:04Z</time>
      </trkpt>
      <trkpt lat="44.55522" lon="4.01595">
        <ele>1131.61</ele>
        <time>2013-08-25T13:06:11Z</time>
      </trkpt>
      <trkpt lat="44.55524" lon="4.01597">
        <ele>1135.45</ele>
        <time>2013-08-25T13:06:12Z</time>
      </trkpt>
      <trkpt lat="44.55534" lon="4.01608">
        <ele>1138.82</ele>
        <time>2013-08-25T13:06:17Z</time>
      </trkpt>
      <trkpt lat="44.55536" lon="4.0161">
        <ele>1135.45</ele>
        <time>2013-08-25T13:06:18Z</time>
      </trkpt>
      <trkpt lat="44.55545" lon="4.0162">
        <ele>1131.61</ele>
        <time>2013-08-25T13:06:22Z</time>
      </trkpt>
      <trkpt lat="44.55547" lon="4.01622">
        <ele>1135.94</ele>
        <time>2013-08-25T13:06:23Z</time>
      </trkpt>
      <trkpt lat="44.5557" lon="4.01642">
        <ele>1138.34</ele>
        <time>2013-08-25T13:06:34Z</time>
      </trkpt>
      <trkpt lat="44.55595" lon="4.01672">
        <ele>1139.3</ele>
        <time>2013-08-25T13:06:48Z</time>
      </trkpt>
      <trkpt lat="44.55631" lon="4.01716">
        <ele>1137.86</ele>
        <time>2013-08-25T13:07:03Z</time>
      </trkpt>
      <trkpt lat="44.55662" lon="4.01761">
        <ele>1137.86</ele>
        <time>2013-08-25T13:07:17Z</time>
      </trkpt>
      <trkpt lat="44.55683" lon="4.01805">
        <ele>1138.82</ele>
        <time>2013-08-25T13:07:31Z</time>
      </trkpt>
      <trkpt lat="44.5571" lon="4.01852">
        <ele>1139.3</ele>
        <time>2013-08-25T13:07:48Z</time>
      </trkpt>
      <trkpt lat="44.55713" lon="4.01858">
        <ele>1135.94</ele>
        <time>2013-08-25T13:07:57Z</time>
      </trkpt>
      <trkpt lat="44.55713" lon="4.01858">
        <ele>1140.74</ele>
        <time>2013-08-25T13:08:00Z</time>
      </trkpt>
      <trkpt lat="44.55713" lon="4.01858">
        <ele>1136.9</ele>
        <time>2013-08-25T13:08:02Z</time>
      </trkpt>
      <trkpt lat="44.55713" lon="4.01858">
        <ele>1139.3</ele>
        <time>2013-08-25T13:08:03Z</time>
      </trkpt>
      <trkpt lat="44.55713" lon="4.01858">
        <ele>1136.9</ele>
        <time>2013-08-25T13:08:06Z</time>
      </trkpt>
      <trkpt lat="44.55713" lon="4.01858">
        <ele>1140.74</ele>
        <time>2013-08-25T13:08:08Z</time>
      </trkpt>
      <trkpt lat="44.55713" lon="4.01858">
        <ele>1136.42</ele>
        <time>2013-08-25T13:08:09Z</time>
      </trkpt>
      <trkpt lat="44.55713" lon="4.01858">
        <ele>1139.78</ele>
        <time>2013-08-25T13:08:10Z</time>
      </trkpt>
      <trkpt lat="44.55713" lon="4.01858">
        <ele>1140.26</ele>
        <time>2013-08-25T13:08:15Z</time>
      </trkpt>
      <trkpt lat="44.55713" lon="4.01858">
        <ele>1136.42</ele>
        <time>2013-08-25T13:08:18Z</time>
      </trkpt>
      <trkpt lat="44.55713" lon="4.01858">
        <ele>1140.74</ele>
        <time>2013-08-25T13:08:19Z</time>
      </trkpt>
      <trkpt lat="44.55713" lon="4.01858">
        <ele>1141.22</ele>
        <time>2013-08-25T13:08:29Z</time>
      </trkpt>
      <trkpt lat="44.55713" lon="4.01858">
        <ele>1139.78</ele>
        <time>2013-08-25T13:08:31Z</time>
      </trkpt>
      <trkpt lat="44.55713" lon="4.01858">
        <ele>1139.78</ele>
        <time>2013-08-25T13:09:05Z</time>
      </trkpt>
      <trkpt lat="44.55713" lon="4.01858">
        <ele>1139.3</ele>
        <time>2013-08-25T13:09:31Z</time>
      </trkpt>
      <trkpt lat="44.55714" lon="4.01862">
        <ele>1139.78</ele>
        <time>2013-08-25T13:09:50Z</time>
      </trkpt>
      <trkpt lat="44.55714" lon="4.01863">
        <ele>1139.78</ele>
        <time>2013-08-25T13:09:51Z</time>
      </trkpt>
      <trkpt lat="44.55718" lon="4.01874">
        <ele>1138.34</ele>
        <time>2013-08-25T13:09:56Z</time>
      </trkpt>
      <trkpt lat="44.5572" lon="4.01876">
        <ele>1138.34</ele>
        <time>2013-08-25T13:09:57Z</time>
      </trkpt>
      <trkpt lat="44.55721" lon="4.01878">
        <ele>1138.34</ele>
        <time>2013-08-25T13:09:58Z</time>
      </trkpt>
      <trkpt lat="44.55742" lon="4.0191">
        <ele>1136.9</ele>
        <time>2013-08-25T13:10:09Z</time>
      </trkpt>
      <trkpt lat="44.55748" lon="4.01919">
        <ele>1136.9</ele>
        <time>2013-08-25T13:10:11Z</time>
      </trkpt>
      <trkpt lat="44.55757" lon="4.0193">
        <ele>1134.49</ele>
        <time>2013-08-25T13:10:13Z</time>
      </trkpt>
      <trkpt lat="44.55763" lon="4.01934">
        <ele>1133.53</ele>
        <time>2013-08-25T13:10:14Z</time>
      </trkpt>
      <trkpt lat="44.55769" lon="4.01938">
        <ele>1132.57</ele>
        <time>2013-08-25T13:10:15Z</time>
      </trkpt>
      <trkpt lat="44.55775" lon="4.0194">
        <ele>1132.09</ele>
        <time>2013-08-25T13:10:16Z</time>
      </trkpt>
      <trkpt lat="44.55779" lon="4.01941">
        <ele>1132.57</ele>
        <time>2013-08-25T13:10:17Z</time>
      </trkpt>
      <trkpt lat="44.55782" lon="4.01941">
        <ele>1132.09</ele>
        <time>2013-08-25T13:10:18Z</time>
      </trkpt>
      <trkpt lat="44.55785" lon="4.01943">
        <ele>1131.61</ele>
        <time>2013-08-25T13:10:19Z</time>
      </trkpt>
      <trkpt lat="44.55788" lon="4.01948">
        <ele>1132.09</ele>
        <time>2013-08-25T13:10:30Z</time>
      </trkpt>
      <trkpt lat="44.55791" lon="4.01951">
        <ele>1131.61</ele>
        <time>2013-08-25T13:10:36Z</time>
      </trkpt>
      <trkpt lat="44.55793" lon="4.01952">
        <ele>1130.65</ele>
        <time>2013-08-25T13:10:37Z</time>
      </trkpt>
      <trkpt lat="44.55795" lon="4.01952">
        <ele>1130.65</ele>
        <time>2013-08-25T13:10:38Z</time>
      </trkpt>
      <trkpt lat="44.55796" lon="4.01952">
        <ele>1131.13</ele>
        <time>2013-08-25T13:10:51Z</time>
      </trkpt>
      <trkpt lat="44.558" lon="4.01953">
        <ele>1130.17</ele>
        <time>2013-08-25T13:10:58Z</time>
      </trkpt>
      <trkpt lat="44.55802" lon="4.01954">
        <ele>1129.69</ele>
        <time>2013-08-25T13:10:59Z</time>
      </trkpt>
      <trkpt lat="44.55805" lon="4.01955">
        <ele>1129.21</ele>
        <time>2013-08-25T13:11:00Z</time>
      </trkpt>
      <trkpt lat="44.55808" lon="4.01958">
        <ele>1128.73</ele>
        <time>2013-08-25T13:11:01Z</time>
      </trkpt>
      <trkpt lat="44.55811" lon="4.01961">
        <ele>1128.24</ele>
        <time>2013-08-25T13:11:02Z</time>
      </trkpt>
      <trkpt lat="44.55815" lon="4.01966">
        <ele>1127.28</ele>
        <time>2013-08-25T13:11:03Z</time>
      </trkpt>
      <trkpt lat="44.55819" lon="4.01971">
        <ele>1127.28</ele>
        <time>2013-08-25T13:11:04Z</time>
      </trkpt>
      <trkpt lat="44.55826" lon="4.01984">
        <ele>1126.32</ele>
        <time>2013-08-25T13:11:06Z</time>
      </trkpt>
      <trkpt lat="44.55829" lon="4.01991">
        <ele>1125.36</ele>
        <time>2013-08-25T13:11:07Z</time>
      </trkpt>
      <trkpt lat="44.55832" lon="4.01998">
        <ele>1124.88</ele>
        <time>2013-08-25T13:11:08Z</time>
      </trkpt>
      <trkpt lat="44.55836" lon="4.02003">
        <ele>1124.4</ele>
        <time>2013-08-25T13:11:09Z</time>
      </trkpt>
      <trkpt lat="44.55839" lon="4.02008">
        <ele>1123.92</ele>
        <time>2013-08-25T13:11:10Z</time>
      </trkpt>
      <trkpt lat="44.55842" lon="4.02014">
        <ele>1122.96</ele>
        <time>2013-08-25T13:11:11Z</time>
      </trkpt>
      <trkpt lat="44.55845" lon="4.02019">
        <ele>1122.96</ele>
        <time>2013-08-25T13:11:12Z</time>
      </trkpt>
      <trkpt lat="44.55848" lon="4.02024">
        <ele>1122.48</ele>
        <time>2013-08-25T13:11:13Z</time>
      </trkpt>
      <trkpt lat="44.55852" lon="4.02035">
        <ele>1120.55</ele>
        <time>2013-08-25T13:11:15Z</time>
      </trkpt>
      <trkpt lat="44.55855" lon="4.02039">
        <ele>1120.07</ele>
        <time>2013-08-25T13:11:16Z</time>
      </trkpt>
      <trkpt lat="44.55864" lon="4.02057">
        <ele>1117.19</ele>
        <time>2013-08-25T13:11:19Z</time>
      </trkpt>
      <trkpt lat="44.55871" lon="4.02071">
        <ele>1115.27</ele>
        <time>2013-08-25T13:11:21Z</time>
      </trkpt>
      <trkpt lat="44.55873" lon="4.02077">
        <ele>1115.27</ele>
        <time>2013-08-25T13:11:22Z</time>
      </trkpt>
      <trkpt lat="44.55875" lon="4.02083">
        <ele>1113.82</ele>
        <time>2013-08-25T13:11:23Z</time>
      </trkpt>
      <trkpt lat="44.55877" lon="4.02088">
        <ele>1113.34</ele>
        <time>2013-08-25T13:11:24Z</time>
      </trkpt>
      <trkpt lat="44.55879" lon="4.02094">
        <ele>1112.86</ele>
        <time>2013-08-25T13:11:25Z</time>
      </trkpt>
      <trkpt lat="44.55882" lon="4.02098">
        <ele>1112.38</ele>
        <time>2013-08-25T13:11:26Z</time>
      </trkpt>
      <trkpt lat="44.55898" lon="4.02123">
        <ele>1109.98</ele>
        <time>2013-08-25T13:11:33Z</time>
      </trkpt>
      <trkpt lat="44.55903" lon="4.02131">
        <ele>1108.06</ele>
        <time>2013-08-25T13:11:36Z</time>
      </trkpt>
      <trkpt lat="44.55904" lon="4.02133">
        <ele>1107.1</ele>
        <time>2013-08-25T13:11:37Z</time>
      </trkpt>
      <trkpt lat="44.55935" lon="4.02145">
        <ele>1104.21</ele>
        <time>2013-08-25T13:11:48Z</time>
      </trkpt>
      <trkpt lat="44.55962" lon="4.02157">
        <ele>1101.33</ele>
        <time>2013-08-25T13:11:54Z</time>
      </trkpt>
      <trkpt lat="44.55968" lon="4.02157">
        <ele>1100.85</ele>
        <time>2013-08-25T13:11:55Z</time>
      </trkpt>
      <trkpt lat="44.5598" lon="4.02158">
        <ele>1099.4</ele>
        <time>2013-08-25T13:11:57Z</time>
      </trkpt>
      <trkpt lat="44.55986" lon="4.02158">
        <ele>1098.92</ele>
        <time>2013-08-25T13:11:58Z</time>
      </trkpt>
      <trkpt lat="44.55994" lon="4.02161">
        <ele>1098.44</ele>
        <time>2013-08-25T13:11:59Z</time>
      </trkpt>
      <trkpt lat="44.56" lon="4.02167">
        <ele>1097.48</ele>
        <time>2013-08-25T13:12:00Z</time>
      </trkpt>
      <trkpt lat="44.56004" lon="4.02175">
        <ele>1097.96</ele>
        <time>2013-08-25T13:12:01Z</time>
      </trkpt>
      <trkpt lat="44.56006" lon="4.02183">
        <ele>1098.44</ele>
        <time>2013-08-25T13:12:02Z</time>
      </trkpt>
      <trkpt lat="44.56007" lon="4.02189">
        <ele>1099.4</ele>
        <time>2013-08-25T13:12:03Z</time>
      </trkpt>
      <trkpt lat="44.56007" lon="4.02195">
        <ele>1099.4</ele>
        <time>2013-08-25T13:12:04Z</time>
      </trkpt>
      <trkpt lat="44.56012" lon="4.02222">
        <ele>1100.37</ele>
        <time>2013-08-25T13:12:13Z</time>
      </trkpt>
      <trkpt lat="44.56016" lon="4.02231">
        <ele>1100.85</ele>
        <time>2013-08-25T13:12:17Z</time>
      </trkpt>
      <trkpt lat="44.56019" lon="4.02233">
        <ele>1101.33</ele>
        <time>2013-08-25T13:12:19Z</time>
      </trkpt>
      <trkpt lat="44.56021" lon="4.02233">
        <ele>1100.85</ele>
        <time>2013-08-25T13:12:20Z</time>
      </trkpt>
      <trkpt lat="44.56036" lon="4.02237">
        <ele>1104.21</ele>
        <time>2013-08-25T13:12:29Z</time>
      </trkpt>
      <trkpt lat="44.56043" lon="4.02237">
        <ele>1105.65</ele>
        <time>2013-08-25T13:12:41Z</time>
      </trkpt>
      <trkpt lat="44.56042" lon="4.02237">
        <ele>1105.17</ele>
        <time>2013-08-25T13:12:56Z</time>
      </trkpt>
      <trkpt lat="44.56042" lon="4.02236">
        <ele>1105.17</ele>
        <time>2013-08-25T13:13:26Z</time>
      </trkpt>
      <trkpt lat="44.56042" lon="4.02236">
        <ele>1105.17</ele>
        <time>2013-08-25T13:14:02Z</time>
      </trkpt>
      <trkpt lat="44.56042" lon="4.02236">
        <ele>1105.17</ele>
        <time>2013-08-25T13:14:11Z</time>
      </trkpt>
      <trkpt lat="44.56039" lon="4.02236">
        <ele>1105.17</ele>
        <time>2013-08-25T13:14:12Z</time>
      </trkpt>
      <trkpt lat="44.56036" lon="4.02235">
        <ele>1103.73</ele>
        <time>2013-08-25T13:14:13Z</time>
      </trkpt>
      <trkpt lat="44.56033" lon="4.02235">
        <ele>1103.73</ele>
        <time>2013-08-25T13:14:14Z</time>
      </trkpt>
      <trkpt lat="44.56015" lon="4.0223">
        <ele>1101.33</ele>
        <time>2013-08-25T13:14:21Z</time>
      </trkpt>
      <trkpt lat="44.56012" lon="4.02228">
        <ele>1100.85</ele>
        <time>2013-08-25T13:14:22Z</time>
      </trkpt>
      <trkpt lat="44.56011" lon="4.02225">
        <ele>1100.85</ele>
        <time>2013-08-25T13:14:23Z</time>
      </trkpt>
      <trkpt lat="44.5601" lon="4.02222">
        <ele>1100.85</ele>
        <time>2013-08-25T13:14:24Z</time>
      </trkpt>
      <trkpt lat="44.56008" lon="4.02219">
        <ele>1100.85</ele>
        <time>2013-08-25T13:14:25Z</time>
      </trkpt>
      <trkpt lat="44.56006" lon="4.02218">
        <ele>1100.37</ele>
        <time>2013-08-25T13:14:26Z</time>
      </trkpt>
      <trkpt lat="44.56004" lon="4.02219">
        <ele>1100.37</ele>
        <time>2013-08-25T13:14:27Z</time>
      </trkpt>
      <trkpt lat="44.56003" lon="4.02221">
        <ele>1100.37</ele>
        <time>2013-08-25T13:14:28Z</time>
      </trkpt>
      <trkpt lat="44.56002" lon="4.02223">
        <ele>1100.37</ele>
        <time>2013-08-25T13:14:29Z</time>
      </trkpt>
      <trkpt lat="44.56002" lon="4.02225">
        <ele>1100.85</ele>
        <time>2013-08-25T13:14:30Z</time>
      </trkpt>
      <trkpt lat="44.56001" lon="4.02227">
        <ele>1100.37</ele>
        <time>2013-08-25T13:14:31Z</time>
      </trkpt>
      <trkpt lat="44.56001" lon="4.02229">
        <ele>1100.37</ele>
        <time>2013-08-25T13:14:32Z</time>
      </trkpt>
      <trkpt lat="44.55994" lon="4.02238">
        <ele>1100.85</ele>
        <time>2013-08-25T13:14:44Z</time>
      </trkpt>
      <trkpt lat="44.55994" lon="4.02238">
        <ele>1100.37</ele>
        <time>2013-08-25T13:15:07Z</time>
      </trkpt>
      <trkpt lat="44.55996" lon="4.02236">
        <ele>1100.37</ele>
        <time>2013-08-25T13:15:10Z</time>
      </trkpt>
      <trkpt lat="44.55997" lon="4.02235">
        <ele>1100.37</ele>
        <time>2013-08-25T13:15:11Z</time>
      </trkpt>
      <trkpt lat="44.55999" lon="4.02232">
        <ele>1100.37</ele>
        <time>2013-08-25T13:15:14Z</time>
      </trkpt>
      <trkpt lat="44.55999" lon="4.0223">
        <ele>1100.37</ele>
        <time>2013-08-25T13:15:15Z</time>
      </trkpt>
      <trkpt lat="44.56004" lon="4.02218">
        <ele>1100.85</ele>
        <time>2013-08-25T13:15:21Z</time>
      </trkpt>
      <trkpt lat="44.56011" lon="4.02225">
        <ele>1101.33</ele>
        <time>2013-08-25T13:15:29Z</time>
      </trkpt>
      <trkpt lat="44.56016" lon="4.02231">
        <ele>1101.33</ele>
        <time>2013-08-25T13:15:34Z</time>
      </trkpt>
      <trkpt lat="44.56028" lon="4.02234">
        <ele>1103.73</ele>
        <time>2013-08-25T13:15:43Z</time>
      </trkpt>
      <trkpt lat="44.56045" lon="4.02237">
        <ele>1106.61</ele>
        <time>2013-08-25T13:15:55Z</time>
      </trkpt>
      <trkpt lat="44.56057" lon="4.0224">
        <ele>1108.06</ele>
        <time>2013-08-25T13:16:05Z</time>
      </trkpt>
      <trkpt lat="44.56078" lon="4.02241">
        <ele>1111.42</ele>
        <time>2013-08-25T13:16:19Z</time>
      </trkpt>
      <trkpt lat="44.56079" lon="4.02242">
        <ele>1110.94</ele>
        <time>2013-08-25T13:16:20Z</time>
      </trkpt>
      <trkpt lat="44.56085" lon="4.02252">
        <ele>1112.86</ele>
        <time>2013-08-25T13:16:26Z</time>
      </trkpt>
      <trkpt lat="44.56083" lon="4.02274">
        <ele>1114.31</ele>
        <time>2013-08-25T13:16:38Z</time>
      </trkpt>
      <trkpt lat="44.56066" lon="4.02294">
        <ele>1113.82</ele>
        <time>2013-08-25T13:16:47Z</time>
      </trkpt>
      <trkpt lat="44.56064" lon="4.02303">
        <ele>1114.31</ele>
        <time>2013-08-25T13:16:51Z</time>
      </trkpt>
      <trkpt lat="44.56063" lon="4.02336">
        <ele>1115.75</ele>
        <time>2013-08-25T13:17:06Z</time>
      </trkpt>
      <trkpt lat="44.56061" lon="4.02342">
        <ele>1116.23</ele>
        <time>2013-08-25T13:17:09Z</time>
      </trkpt>
      <trkpt lat="44.56068" lon="4.02372">
        <ele>1119.11</ele>
        <time>2013-08-25T13:17:24Z</time>
      </trkpt>
      <trkpt lat="44.56079" lon="4.02397">
        <ele>1121.03</ele>
        <time>2013-08-25T13:17:38Z</time>
      </trkpt>
      <trkpt lat="44.56079" lon="4.024">
        <ele>1121.03</ele>
        <time>2013-08-25T13:17:39Z</time>
      </trkpt>
      <trkpt lat="44.5608" lon="4.02412">
        <ele>1121.52</ele>
        <time>2013-08-25T13:17:50Z</time>
      </trkpt>
      <trkpt lat="44.56081" lon="4.02414">
        <ele>1122</ele>
        <time>2013-08-25T13:18:06Z</time>
      </trkpt>
      <trkpt lat="44.56081" lon="4.02414">
        <ele>1121.52</ele>
        <time>2013-08-25T13:18:16Z</time>
      </trkpt>
      <trkpt lat="44.56081" lon="4.02415">
        <ele>1122</ele>
        <time>2013-08-25T13:18:29Z</time>
      </trkpt>
      <trkpt lat="44.56094" lon="4.0244">
        <ele>1120.55</ele>
        <time>2013-08-25T13:18:37Z</time>
      </trkpt>
      <trkpt lat="44.56103" lon="4.02465">
        <ele>1117.67</ele>
        <time>2013-08-25T13:18:42Z</time>
      </trkpt>
      <trkpt lat="44.56106" lon="4.0247">
        <ele>1117.67</ele>
        <time>2013-08-25T13:18:43Z</time>
      </trkpt>
      <trkpt lat="44.56119" lon="4.0249">
        <ele>1116.23</ele>
        <time>2013-08-25T13:18:47Z</time>
      </trkpt>
      <trkpt lat="44.5614" lon="4.0251">
        <ele>1114.79</ele>
        <time>2013-08-25T13:18:53Z</time>
      </trkpt>
      <trkpt lat="44.56144" lon="4.02512">
        <ele>1114.31</ele>
        <time>2013-08-25T13:18:54Z</time>
      </trkpt>
      <trkpt lat="44.56149" lon="4.02514">
        <ele>1113.82</ele>
        <time>2013-08-25T13:18:55Z</time>
      </trkpt>
      <trkpt lat="44.56153" lon="4.02518">
        <ele>1113.34</ele>
        <time>2013-08-25T13:18:56Z</time>
      </trkpt>
      <trkpt lat="44.56159" lon="4.02522">
        <ele>1112.86</ele>
        <time>2013-08-25T13:18:57Z</time>
      </trkpt>
      <trkpt lat="44.56162" lon="4.02526">
        <ele>1113.34</ele>
        <time>2013-08-25T13:18:58Z</time>
      </trkpt>
      <trkpt lat="44.56164" lon="4.02531">
        <ele>1114.31</ele>
        <time>2013-08-25T13:18:59Z</time>
      </trkpt>
      <trkpt lat="44.56165" lon="4.02535">
        <ele>1114.31</ele>
        <time>2013-08-25T13:19:00Z</time>
      </trkpt>
      <trkpt lat="44.56166" lon="4.02538">
        <ele>1114.31</ele>
        <time>2013-08-25T13:19:01Z</time>
      </trkpt>
      <trkpt lat="44.5617" lon="4.02559">
        <ele>1116.71</ele>
        <time>2013-08-25T13:19:06Z</time>
      </trkpt>
      <trkpt lat="44.56175" lon="4.02601">
        <ele>1117.67</ele>
        <time>2013-08-25T13:19:16Z</time>
      </trkpt>
      <trkpt lat="44.56202" lon="4.02646">
        <ele>1115.27</ele>
        <time>2013-08-25T13:19:26Z</time>
      </trkpt>
      <trkpt lat="44.5621" lon="4.02653">
        <ele>1114.31</ele>
        <time>2013-08-25T13:19:28Z</time>
      </trkpt>
      <trkpt lat="44.56232" lon="4.02678">
        <ele>1113.82</ele>
        <time>2013-08-25T13:19:34Z</time>
      </trkpt>
      <trkpt lat="44.56259" lon="4.02705">
        <ele>1113.82</ele>
        <time>2013-08-25T13:19:44Z</time>
      </trkpt>
      <trkpt lat="44.56282" lon="4.02729">
        <ele>1113.82</ele>
        <time>2013-08-25T13:19:53Z</time>
      </trkpt>
      <trkpt lat="44.56287" lon="4.02733">
        <ele>1113.82</ele>
        <time>2013-08-25T13:19:54Z</time>
      </trkpt>
      <trkpt lat="44.5629" lon="4.02737">
        <ele>1113.34</ele>
        <time>2013-08-25T13:19:55Z</time>
      </trkpt>
      <trkpt lat="44.56293" lon="4.0274">
        <ele>1112.38</ele>
        <time>2013-08-25T13:19:56Z</time>
      </trkpt>
      <trkpt lat="44.56296" lon="4.02745">
        <ele>1112.38</ele>
        <time>2013-08-25T13:19:57Z</time>
      </trkpt>
      <trkpt lat="44.56299" lon="4.0275">
        <ele>1112.38</ele>
        <time>2013-08-25T13:19:58Z</time>
      </trkpt>
      <trkpt lat="44.56303" lon="4.02753">
        <ele>1112.86</ele>
        <time>2013-08-25T13:19:59Z</time>
      </trkpt>
      <trkpt lat="44.56315" lon="4.02761">
        <ele>1111.9</ele>
        <time>2013-08-25T13:20:01Z</time>
      </trkpt>
      <trkpt lat="44.56339" lon="4.02795">
        <ele>1112.86</ele>
        <time>2013-08-25T13:20:09Z</time>
      </trkpt>
      <trkpt lat="44.56353" lon="4.02822">
        <ele>1114.31</ele>
        <time>2013-08-25T13:20:16Z</time>
      </trkpt>
      <trkpt lat="44.56354" lon="4.02823">
        <ele>1114.31</ele>
        <time>2013-08-25T13:20:17Z</time>
      </trkpt>
      <trkpt lat="44.56356" lon="4.02825">
        <ele>1114.31</ele>
        <time>2013-08-25T13:20:18Z</time>
      </trkpt>
      <trkpt lat="44.56366" lon="4.02831">
        <ele>1114.31</ele>
        <time>2013-08-25T13:20:32Z</time>
      </trkpt>
      <trkpt lat="44.56368" lon="4.02831">
        <ele>1113.82</ele>
        <time>2013-08-25T13:20:37Z</time>
      </trkpt>
      <trkpt lat="44.56369" lon="4.02832">
        <ele>1113.82</ele>
        <time>2013-08-25T13:20:51Z</time>
      </trkpt>
      <trkpt lat="44.56369" lon="4.02833">
        <ele>1113.34</ele>
        <time>2013-08-25T13:21:19Z</time>
      </trkpt>
      <trkpt lat="44.56371" lon="4.02834">
        <ele>1112.86</ele>
        <time>2013-08-25T13:21:41Z</time>
      </trkpt>
      <trkpt lat="44.56373" lon="4.02836">
        <ele>1112.86</ele>
        <time>2013-08-25T13:21:43Z</time>
      </trkpt>
      <trkpt lat="44.56374" lon="4.02838">
        <ele>1113.82</ele>
        <time>2013-08-25T13:21:44Z</time>
      </trkpt>
      <trkpt lat="44.56376" lon="4.0284">
        <ele>1113.34</ele>
        <time>2013-08-25T13:21:45Z</time>
      </trkpt>
      <trkpt lat="44.56378" lon="4.02842">
        <ele>1113.34</ele>
        <time>2013-08-25T13:21:46Z</time>
      </trkpt>
      <trkpt lat="44.5638" lon="4.02844">
        <ele>1113.82</ele>
        <time>2013-08-25T13:21:47Z</time>
      </trkpt>
      <trkpt lat="44.56382" lon="4.02845">
        <ele>1114.31</ele>
        <time>2013-08-25T13:21:48Z</time>
      </trkpt>
      <trkpt lat="44.56384" lon="4.02847">
        <ele>1114.31</ele>
        <time>2013-08-25T13:21:49Z</time>
      </trkpt>
      <trkpt lat="44.56411" lon="4.02859">
        <ele>1114.31</ele>
        <time>2013-08-25T13:21:59Z</time>
      </trkpt>
      <trkpt lat="44.56436" lon="4.02877">
        <ele>1115.75</ele>
        <time>2013-08-25T13:22:10Z</time>
      </trkpt>
      <trkpt lat="44.56461" lon="4.02907">
        <ele>1117.19</ele>
        <time>2013-08-25T13:22:22Z</time>
      </trkpt>
      <trkpt lat="44.5647" lon="4.02915">
        <ele>1117.67</ele>
        <time>2013-08-25T13:22:28Z</time>
      </trkpt>
      <trkpt lat="44.56471" lon="4.02915">
        <ele>1118.15</ele>
        <time>2013-08-25T13:22:29Z</time>
      </trkpt>
      <trkpt lat="44.56472" lon="4.02916">
        <ele>1118.63</ele>
        <time>2013-08-25T13:22:30Z</time>
      </trkpt>
      <trkpt lat="44.56474" lon="4.02917">
        <ele>1118.15</ele>
        <time>2013-08-25T13:22:31Z</time>
      </trkpt>
      <trkpt lat="44.56476" lon="4.02919">
        <ele>1118.15</ele>
        <time>2013-08-25T13:22:32Z</time>
      </trkpt>
      <trkpt lat="44.56478" lon="4.0292">
        <ele>1118.15</ele>
        <time>2013-08-25T13:22:33Z</time>
      </trkpt>
      <trkpt lat="44.56479" lon="4.02922">
        <ele>1118.63</ele>
        <time>2013-08-25T13:22:34Z</time>
      </trkpt>
      <trkpt lat="44.56495" lon="4.02942">
        <ele>1119.11</ele>
        <time>2013-08-25T13:22:45Z</time>
      </trkpt>
      <trkpt lat="44.56496" lon="4.02944">
        <ele>1119.59</ele>
        <time>2013-08-25T13:22:46Z</time>
      </trkpt>
      <trkpt lat="44.56517" lon="4.02962">
        <ele>1121.03</ele>
        <time>2013-08-25T13:22:57Z</time>
      </trkpt>
      <trkpt lat="44.56519" lon="4.02963">
        <ele>1121.52</ele>
        <time>2013-08-25T13:22:58Z</time>
      </trkpt>
      <trkpt lat="44.56521" lon="4.02965">
        <ele>1122</ele>
        <time>2013-08-25T13:22:59Z</time>
      </trkpt>
      <trkpt lat="44.56535" lon="4.02987">
        <ele>1122.48</ele>
        <time>2013-08-25T13:23:10Z</time>
      </trkpt>
      <trkpt lat="44.56536" lon="4.0299">
        <ele>1122</ele>
        <time>2013-08-25T13:23:11Z</time>
      </trkpt>
      <trkpt lat="44.56538" lon="4.02992">
        <ele>1122.48</ele>
        <time>2013-08-25T13:23:12Z</time>
      </trkpt>
      <trkpt lat="44.56539" lon="4.02994">
        <ele>1122.48</ele>
        <time>2013-08-25T13:23:13Z</time>
      </trkpt>
      <trkpt lat="44.56541" lon="4.02996">
        <ele>1122.48</ele>
        <time>2013-08-25T13:23:14Z</time>
      </trkpt>
      <trkpt lat="44.56541" lon="4.02999">
        <ele>1122.48</ele>
        <time>2013-08-25T13:23:15Z</time>
      </trkpt>
      <trkpt lat="44.56542" lon="4.03001">
        <ele>1122.96</ele>
        <time>2013-08-25T13:23:16Z</time>
      </trkpt>
      <trkpt lat="44.56548" lon="4.0301">
        <ele>1122.96</ele>
        <time>2013-08-25T13:23:21Z</time>
      </trkpt>
      <trkpt lat="44.56549" lon="4.03012">
        <ele>1122.96</ele>
        <time>2013-08-25T13:23:22Z</time>
      </trkpt>
      <trkpt lat="44.5655" lon="4.03014">
        <ele>1123.44</ele>
        <time>2013-08-25T13:23:23Z</time>
      </trkpt>
      <trkpt lat="44.56551" lon="4.03017">
        <ele>1123.92</ele>
        <time>2013-08-25T13:23:24Z</time>
      </trkpt>
      <trkpt lat="44.56567" lon="4.0304">
        <ele>1124.88</ele>
        <time>2013-08-25T13:23:35Z</time>
      </trkpt>
      <trkpt lat="44.56569" lon="4.03049">
        <ele>1125.84</ele>
        <time>2013-08-25T13:23:39Z</time>
      </trkpt>
      <trkpt lat="44.56569" lon="4.03053">
        <ele>1126.32</ele>
        <time>2013-08-25T13:23:42Z</time>
      </trkpt>
      <trkpt lat="44.56571" lon="4.03054">
        <ele>1126.8</ele>
        <time>2013-08-25T13:23:43Z</time>
      </trkpt>
      <trkpt lat="44.56573" lon="4.03054">
        <ele>1126.8</ele>
        <time>2013-08-25T13:23:44Z</time>
      </trkpt>
      <trkpt lat="44.56574" lon="4.03056">
        <ele>1126.8</ele>
        <time>2013-08-25T13:23:45Z</time>
      </trkpt>
      <trkpt lat="44.56576" lon="4.03057">
        <ele>1126.8</ele>
        <time>2013-08-25T13:23:46Z</time>
      </trkpt>
      <trkpt lat="44.56605" lon="4.0307">
        <ele>1128.73</ele>
        <time>2013-08-25T13:24:01Z</time>
      </trkpt>
      <trkpt lat="44.56607" lon="4.03071">
        <ele>1129.21</ele>
        <time>2013-08-25T13:24:03Z</time>
      </trkpt>
      <trkpt lat="44.56609" lon="4.03072">
        <ele>1129.69</ele>
        <time>2013-08-25T13:24:04Z</time>
      </trkpt>
      <trkpt lat="44.5661" lon="4.03074">
        <ele>1129.69</ele>
        <time>2013-08-25T13:24:05Z</time>
      </trkpt>
      <trkpt lat="44.56612" lon="4.03075">
        <ele>1129.21</ele>
        <time>2013-08-25T13:24:06Z</time>
      </trkpt>
      <trkpt lat="44.56618" lon="4.03082">
        <ele>1130.17</ele>
        <time>2013-08-25T13:24:12Z</time>
      </trkpt>
      <trkpt lat="44.5662" lon="4.03083">
        <ele>1130.17</ele>
        <time>2013-08-25T13:24:13Z</time>
      </trkpt>
      <trkpt lat="44.56626" lon="4.03091">
        <ele>1131.61</ele>
        <time>2013-08-25T13:24:21Z</time>
      </trkpt>
      <trkpt lat="44.56636" lon="4.031">
        <ele>1132.57</ele>
        <time>2013-08-25T13:24:28Z</time>
      </trkpt>
      <trkpt lat="44.56639" lon="4.03101">
        <ele>1133.05</ele>
        <time>2013-08-25T13:24:29Z</time>
      </trkpt>
      <trkpt lat="44.56641" lon="4.03102">
        <ele>1133.05</ele>
        <time>2013-08-25T13:24:30Z</time>
      </trkpt>
      <trkpt lat="44.56643" lon="4.03103">
        <ele>1133.05</ele>
        <time>2013-08-25T13:24:31Z</time>
      </trkpt>
      <trkpt lat="44.56644" lon="4.03105">
        <ele>1133.53</ele>
        <time>2013-08-25T13:24:32Z</time>
      </trkpt>
      <trkpt lat="44.56646" lon="4.03106">
        <ele>1134.01</ele>
        <time>2013-08-25T13:24:33Z</time>
      </trkpt>
      <trkpt lat="44.56652" lon="4.03116">
        <ele>1135.94</ele>
        <time>2013-08-25T13:24:43Z</time>
      </trkpt>
      <trkpt lat="44.56654" lon="4.03118">
        <ele>1136.42</ele>
        <time>2013-08-25T13:24:44Z</time>
      </trkpt>
      <trkpt lat="44.56655" lon="4.03119">
        <ele>1136.42</ele>
        <time>2013-08-25T13:24:45Z</time>
      </trkpt>
      <trkpt lat="44.56656" lon="4.03121">
        <ele>1136.42</ele>
        <time>2013-08-25T13:24:46Z</time>
      </trkpt>
      <trkpt lat="44.56658" lon="4.03122">
        <ele>1136.9</ele>
        <time>2013-08-25T13:24:47Z</time>
      </trkpt>
      <trkpt lat="44.5666" lon="4.03123">
        <ele>1136.9</ele>
        <time>2013-08-25T13:24:48Z</time>
      </trkpt>
      <trkpt lat="44.56661" lon="4.03124">
        <ele>1136.9</ele>
        <time>2013-08-25T13:24:49Z</time>
      </trkpt>
      <trkpt lat="44.56663" lon="4.03126">
        <ele>1136.9</ele>
        <time>2013-08-25T13:24:50Z</time>
      </trkpt>
      <trkpt lat="44.56664" lon="4.03127">
        <ele>1136.9</ele>
        <time>2013-08-25T13:24:51Z</time>
      </trkpt>
      <trkpt lat="44.56666" lon="4.03128">
        <ele>1137.38</ele>
        <time>2013-08-25T13:24:52Z</time>
      </trkpt>
      <trkpt lat="44.56683" lon="4.03135">
        <ele>1138.82</ele>
        <time>2013-08-25T13:25:01Z</time>
      </trkpt>
      <trkpt lat="44.56684" lon="4.03136">
        <ele>1138.82</ele>
        <time>2013-08-25T13:25:02Z</time>
      </trkpt>
      <trkpt lat="44.5669" lon="4.03138">
        <ele>1140.26</ele>
        <time>2013-08-25T13:25:05Z</time>
      </trkpt>
      <trkpt lat="44.56706" lon="4.0314">
        <ele>1142.18</ele>
        <time>2013-08-25T13:25:17Z</time>
      </trkpt>
      <trkpt lat="44.56707" lon="4.0314">
        <ele>1142.66</ele>
        <time>2013-08-25T13:25:18Z</time>
      </trkpt>
      <trkpt lat="44.56717" lon="4.03147">
        <ele>1143.63</ele>
        <time>2013-08-25T13:25:28Z</time>
      </trkpt>
      <trkpt lat="44.56718" lon="4.03149">
        <ele>1144.11</ele>
        <time>2013-08-25T13:25:29Z</time>
      </trkpt>
      <trkpt lat="44.5672" lon="4.03151">
        <ele>1144.59</ele>
        <time>2013-08-25T13:25:31Z</time>
      </trkpt>
      <trkpt lat="44.56722" lon="4.03152">
        <ele>1144.59</ele>
        <time>2013-08-25T13:25:32Z</time>
      </trkpt>
      <trkpt lat="44.56723" lon="4.03154">
        <ele>1145.07</ele>
        <time>2013-08-25T13:25:33Z</time>
      </trkpt>
      <trkpt lat="44.56724" lon="4.03155">
        <ele>1145.07</ele>
        <time>2013-08-25T13:25:34Z</time>
      </trkpt>
      <trkpt lat="44.56725" lon="4.03156">
        <ele>1145.55</ele>
        <time>2013-08-25T13:25:35Z</time>
      </trkpt>
      <trkpt lat="44.56727" lon="4.03156">
        <ele>1145.07</ele>
        <time>2013-08-25T13:25:36Z</time>
      </trkpt>
      <trkpt lat="44.56729" lon="4.03156">
        <ele>1145.55</ele>
        <time>2013-08-25T13:25:37Z</time>
      </trkpt>
      <trkpt lat="44.56742" lon="4.03164">
        <ele>1147.95</ele>
        <time>2013-08-25T13:25:49Z</time>
      </trkpt>
      <trkpt lat="44.56754" lon="4.03177">
        <ele>1149.39</ele>
        <time>2013-08-25T13:26:01Z</time>
      </trkpt>
      <trkpt lat="44.56755" lon="4.03179">
        <ele>1149.87</ele>
        <time>2013-08-25T13:26:04Z</time>
      </trkpt>
      <trkpt lat="44.56757" lon="4.03181">
        <ele>1150.35</ele>
        <time>2013-08-25T13:26:05Z</time>
      </trkpt>
      <trkpt lat="44.56772" lon="4.03188">
        <ele>1151.32</ele>
        <time>2013-08-25T13:26:14Z</time>
      </trkpt>
      <trkpt lat="44.56777" lon="4.0319">
        <ele>1152.28</ele>
        <time>2013-08-25T13:26:17Z</time>
      </trkpt>
      <trkpt lat="44.56779" lon="4.03191">
        <ele>1152.28</ele>
        <time>2013-08-25T13:26:18Z</time>
      </trkpt>
      <trkpt lat="44.56782" lon="4.03191">
        <ele>1152.76</ele>
        <time>2013-08-25T13:26:19Z</time>
      </trkpt>
      <trkpt lat="44.56794" lon="4.03199">
        <ele>1154.2</ele>
        <time>2013-08-25T13:26:30Z</time>
      </trkpt>
      <trkpt lat="44.56802" lon="4.03207">
        <ele>1155.16</ele>
        <time>2013-08-25T13:26:38Z</time>
      </trkpt>
      <trkpt lat="44.56808" lon="4.03217">
        <ele>1156.12</ele>
        <time>2013-08-25T13:26:48Z</time>
      </trkpt>
      <trkpt lat="44.56809" lon="4.03218">
        <ele>1155.64</ele>
        <time>2013-08-25T13:27:14Z</time>
      </trkpt>
      <trkpt lat="44.56816" lon="4.03225">
        <ele>1156.12</ele>
        <time>2013-08-25T13:27:23Z</time>
      </trkpt>
      <trkpt lat="44.56822" lon="4.03229">
        <ele>1156.6</ele>
        <time>2013-08-25T13:27:29Z</time>
      </trkpt>
      <trkpt lat="44.56844" lon="4.03232">
        <ele>1159.01</ele>
        <time>2013-08-25T13:27:41Z</time>
      </trkpt>
      <trkpt lat="44.56867" lon="4.03233">
        <ele>1160.45</ele>
        <time>2013-08-25T13:27:52Z</time>
      </trkpt>
      <trkpt lat="44.56867" lon="4.03229">
        <ele>1161.41</ele>
        <time>2013-08-25T13:27:55Z</time>
      </trkpt>
      <trkpt lat="44.56879" lon="4.03229">
        <ele>1163.33</ele>
        <time>2013-08-25T13:28:04Z</time>
      </trkpt>
      <trkpt lat="44.56886" lon="4.03229">
        <ele>1163.33</ele>
        <time>2013-08-25T13:28:08Z</time>
      </trkpt>
      <trkpt lat="44.56907" lon="4.03232">
        <ele>1165.74</ele>
        <time>2013-08-25T13:28:21Z</time>
      </trkpt>
      <trkpt lat="44.56927" lon="4.03232">
        <ele>1167.18</ele>
        <time>2013-08-25T13:28:33Z</time>
      </trkpt>
      <trkpt lat="44.56932" lon="4.03235">
        <ele>1168.62</ele>
        <time>2013-08-25T13:28:38Z</time>
      </trkpt>
      <trkpt lat="44.56957" lon="4.03229">
        <ele>1171.5</ele>
        <time>2013-08-25T13:28:53Z</time>
      </trkpt>
      <trkpt lat="44.56976" lon="4.03222">
        <ele>1173.43</ele>
        <time>2013-08-25T13:29:07Z</time>
      </trkpt>
      <trkpt lat="44.56981" lon="4.03222">
        <ele>1172.95</ele>
        <time>2013-08-25T13:29:10Z</time>
      </trkpt>
      <trkpt lat="44.57002" lon="4.03215">
        <ele>1175.35</ele>
        <time>2013-08-25T13:29:23Z</time>
      </trkpt>
      <trkpt lat="44.5702" lon="4.03221">
        <ele>1175.83</ele>
        <time>2013-08-25T13:29:35Z</time>
      </trkpt>
      <trkpt lat="44.57046" lon="4.03239">
        <ele>1175.35</ele>
        <time>2013-08-25T13:29:47Z</time>
      </trkpt>
      <trkpt lat="44.57068" lon="4.03254">
        <ele>1173.43</ele>
        <time>2013-08-25T13:29:57Z</time>
      </trkpt>
      <trkpt lat="44.57092" lon="4.0326">
        <ele>1174.39</ele>
        <time>2013-08-25T13:30:08Z</time>
      </trkpt>
      <trkpt lat="44.57106" lon="4.03268">
        <ele>1174.87</ele>
        <time>2013-08-25T13:30:17Z</time>
      </trkpt>
      <trkpt lat="44.57114" lon="4.03271">
        <ele>1176.79</ele>
        <time>2013-08-25T13:30:29Z</time>
      </trkpt>
      <trkpt lat="44.57114" lon="4.03271">
        <ele>1175.83</ele>
        <time>2013-08-25T13:31:00Z</time>
      </trkpt>
      <trkpt lat="44.57114" lon="4.03271">
        <ele>1175.83</ele>
        <time>2013-08-25T13:31:30Z</time>
      </trkpt>
      <trkpt lat="44.57114" lon="4.03271">
        <ele>1176.31</ele>
        <time>2013-08-25T13:31:31Z</time>
      </trkpt>
      <trkpt lat="44.5713" lon="4.03292">
        <ele>1177.27</ele>
        <time>2013-08-25T13:31:41Z</time>
      </trkpt>
      <trkpt lat="44.57137" lon="4.03312">
        <ele>1178.23</ele>
        <time>2013-08-25T13:31:48Z</time>
      </trkpt>
      <trkpt lat="44.57156" lon="4.03334">
        <ele>1181.6</ele>
        <time>2013-08-25T13:31:59Z</time>
      </trkpt>
      <trkpt lat="44.57184" lon="4.03356">
        <ele>1180.16</ele>
        <time>2013-08-25T13:32:10Z</time>
      </trkpt>
      <trkpt lat="44.57198" lon="4.0337">
        <ele>1178.23</ele>
        <time>2013-08-25T13:32:14Z</time>
      </trkpt>
      <trkpt lat="44.57202" lon="4.03374">
        <ele>1177.75</ele>
        <time>2013-08-25T13:32:15Z</time>
      </trkpt>
      <trkpt lat="44.57216" lon="4.03398">
        <ele>1177.75</ele>
        <time>2013-08-25T13:32:19Z</time>
      </trkpt>
      <trkpt lat="44.57219" lon="4.03404">
        <ele>1177.75</ele>
        <time>2013-08-25T13:32:20Z</time>
      </trkpt>
      <trkpt lat="44.57222" lon="4.0341">
        <ele>1177.27</ele>
        <time>2013-08-25T13:32:21Z</time>
      </trkpt>
      <trkpt lat="44.57226" lon="4.03415">
        <ele>1177.27</ele>
        <time>2013-08-25T13:32:22Z</time>
      </trkpt>
      <trkpt lat="44.5723" lon="4.0342">
        <ele>1177.75</ele>
        <time>2013-08-25T13:32:23Z</time>
      </trkpt>
      <trkpt lat="44.57242" lon="4.03438">
        <ele>1179.19</ele>
        <time>2013-08-25T13:32:27Z</time>
      </trkpt>
      <trkpt lat="44.57245" lon="4.03442">
        <ele>1178.71</ele>
        <time>2013-08-25T13:32:28Z</time>
      </trkpt>
      <trkpt lat="44.57248" lon="4.03447">
        <ele>1179.19</ele>
        <time>2013-08-25T13:32:29Z</time>
      </trkpt>
      <trkpt lat="44.57262" lon="4.03476">
        <ele>1180.16</ele>
        <time>2013-08-25T13:32:35Z</time>
      </trkpt>
      <trkpt lat="44.57266" lon="4.03481">
        <ele>1180.64</ele>
        <time>2013-08-25T13:32:36Z</time>
      </trkpt>
      <trkpt lat="44.57305" lon="4.03531">
        <ele>1182.56</ele>
        <time>2013-08-25T13:32:48Z</time>
      </trkpt>
      <trkpt lat="44.57309" lon="4.03534">
        <ele>1182.56</ele>
        <time>2013-08-25T13:32:49Z</time>
      </trkpt>
      <trkpt lat="44.57312" lon="4.03538">
        <ele>1182.08</ele>
        <time>2013-08-25T13:32:50Z</time>
      </trkpt>
      <trkpt lat="44.57315" lon="4.03541">
        <ele>1182.56</ele>
        <time>2013-08-25T13:32:51Z</time>
      </trkpt>
      <trkpt lat="44.57327" lon="4.03549">
        <ele>1182.08</ele>
        <time>2013-08-25T13:32:54Z</time>
      </trkpt>
      <trkpt lat="44.57331" lon="4.03552">
        <ele>1181.6</ele>
        <time>2013-08-25T13:32:55Z</time>
      </trkpt>
      <trkpt lat="44.57341" lon="4.03558">
        <ele>1181.12</ele>
        <time>2013-08-25T13:32:57Z</time>
      </trkpt>
      <trkpt lat="44.57346" lon="4.0356">
        <ele>1181.6</ele>
        <time>2013-08-25T13:32:58Z</time>
      </trkpt>
      <trkpt lat="44.5735" lon="4.03562">
        <ele>1181.6</ele>
        <time>2013-08-25T13:32:59Z</time>
      </trkpt>
      <trkpt lat="44.57371" lon="4.03574">
        <ele>1181.6</ele>
        <time>2013-08-25T13:33:04Z</time>
      </trkpt>
      <trkpt lat="44.57388" lon="4.03585">
        <ele>1181.6</ele>
        <time>2013-08-25T13:33:08Z</time>
      </trkpt>
      <trkpt lat="44.57391" lon="4.03588">
        <ele>1182.08</ele>
        <time>2013-08-25T13:33:09Z</time>
      </trkpt>
      <trkpt lat="44.57414" lon="4.03606">
        <ele>1182.56</ele>
        <time>2013-08-25T13:33:15Z</time>
      </trkpt>
      <trkpt lat="44.57467" lon="4.03631">
        <ele>1183.04</ele>
        <time>2013-08-25T13:33:28Z</time>
      </trkpt>
      <trkpt lat="44.57495" lon="4.03649">
        <ele>1182.56</ele>
        <time>2013-08-25T13:33:35Z</time>
      </trkpt>
      <trkpt lat="44.57534" lon="4.03686">
        <ele>1183.52</ele>
        <time>2013-08-25T13:33:47Z</time>
      </trkpt>
      <trkpt lat="44.57538" lon="4.03689">
        <ele>1183.52</ele>
        <time>2013-08-25T13:33:48Z</time>
      </trkpt>
      <trkpt lat="44.57541" lon="4.03692">
        <ele>1183.52</ele>
        <time>2013-08-25T13:33:49Z</time>
      </trkpt>
      <trkpt lat="44.57575" lon="4.03732">
        <ele>1184.48</ele>
        <time>2013-08-25T13:34:01Z</time>
      </trkpt>
      <trkpt lat="44.57579" lon="4.03786">
        <ele>1183.52</ele>
        <time>2013-08-25T13:34:11Z</time>
      </trkpt>
      <trkpt lat="44.57578" lon="4.03872">
        <ele>1181.12</ele>
        <time>2013-08-25T13:34:23Z</time>
      </trkpt>
      <trkpt lat="44.57581" lon="4.03896">
        <ele>1180.64</ele>
        <time>2013-08-25T13:34:26Z</time>
      </trkpt>
      <trkpt lat="44.57584" lon="4.03903">
        <ele>1180.64</ele>
        <time>2013-08-25T13:34:27Z</time>
      </trkpt>
      <trkpt lat="44.57586" lon="4.0391">
        <ele>1180.64</ele>
        <time>2013-08-25T13:34:28Z</time>
      </trkpt>
      <trkpt lat="44.57589" lon="4.03916">
        <ele>1180.64</ele>
        <time>2013-08-25T13:34:29Z</time>
      </trkpt>
      <trkpt lat="44.57591" lon="4.03922">
        <ele>1180.64</ele>
        <time>2013-08-25T13:34:30Z</time>
      </trkpt>
      <trkpt lat="44.57592" lon="4.03928">
        <ele>1180.64</ele>
        <time>2013-08-25T13:34:31Z</time>
      </trkpt>
      <trkpt lat="44.57593" lon="4.03933">
        <ele>1180.16</ele>
        <time>2013-08-25T13:34:32Z</time>
      </trkpt>
      <trkpt lat="44.57594" lon="4.03936">
        <ele>1180.64</ele>
        <time>2013-08-25T13:34:33Z</time>
      </trkpt>
      <trkpt lat="44.57594" lon="4.03938">
        <ele>1180.64</ele>
        <time>2013-08-25T13:34:34Z</time>
      </trkpt>
      <trkpt lat="44.57594" lon="4.03944">
        <ele>1181.12</ele>
        <time>2013-08-25T13:34:38Z</time>
      </trkpt>
      <trkpt lat="44.57594" lon="4.03946">
        <ele>1180.64</ele>
        <time>2013-08-25T13:34:39Z</time>
      </trkpt>
      <trkpt lat="44.57595" lon="4.03948">
        <ele>1180.64</ele>
        <time>2013-08-25T13:34:40Z</time>
      </trkpt>
      <trkpt lat="44.57595" lon="4.0395">
        <ele>1180.64</ele>
        <time>2013-08-25T13:34:41Z</time>
      </trkpt>
      <trkpt lat="44.57595" lon="4.03953">
        <ele>1180.64</ele>
        <time>2013-08-25T13:34:42Z</time>
      </trkpt>
      <trkpt lat="44.57595" lon="4.03955">
        <ele>1180.64</ele>
        <time>2013-08-25T13:34:43Z</time>
      </trkpt>
      <trkpt lat="44.57597" lon="4.03971">
        <ele>1182.08</ele>
        <time>2013-08-25T13:34:49Z</time>
      </trkpt>
      <trkpt lat="44.57597" lon="4.03974">
        <ele>1181.6</ele>
        <time>2013-08-25T13:34:50Z</time>
      </trkpt>
      <trkpt lat="44.57604" lon="4.04007">
        <ele>1182.56</ele>
        <time>2013-08-25T13:35:00Z</time>
      </trkpt>
      <trkpt lat="44.57606" lon="4.0401">
        <ele>1182.56</ele>
        <time>2013-08-25T13:35:01Z</time>
      </trkpt>
      <trkpt lat="44.57614" lon="4.0403">
        <ele>1183.04</ele>
        <time>2013-08-25T13:35:07Z</time>
      </trkpt>
      <trkpt lat="44.57614" lon="4.0404">
        <ele>1183.52</ele>
        <time>2013-08-25T13:35:11Z</time>
      </trkpt>
      <trkpt lat="44.57613" lon="4.04043">
        <ele>1183.52</ele>
        <time>2013-08-25T13:35:12Z</time>
      </trkpt>
      <trkpt lat="44.57613" lon="4.04045">
        <ele>1183.52</ele>
        <time>2013-08-25T13:35:13Z</time>
      </trkpt>
      <trkpt lat="44.57613" lon="4.04048">
        <ele>1183.04</ele>
        <time>2013-08-25T13:35:14Z</time>
      </trkpt>
      <trkpt lat="44.57612" lon="4.04051">
        <ele>1183.52</ele>
        <time>2013-08-25T13:35:15Z</time>
      </trkpt>
      <trkpt lat="44.57611" lon="4.04053">
        <ele>1183.52</ele>
        <time>2013-08-25T13:35:16Z</time>
      </trkpt>
      <trkpt lat="44.57611" lon="4.04057">
        <ele>1183.52</ele>
        <time>2013-08-25T13:35:17Z</time>
      </trkpt>
      <trkpt lat="44.57611" lon="4.04059">
        <ele>1183.52</ele>
        <time>2013-08-25T13:35:18Z</time>
      </trkpt>
      <trkpt lat="44.5761" lon="4.04065">
        <ele>1183.52</ele>
        <time>2013-08-25T13:35:20Z</time>
      </trkpt>
      <trkpt lat="44.5761" lon="4.04068">
        <ele>1183.52</ele>
        <time>2013-08-25T13:35:21Z</time>
      </trkpt>
      <trkpt lat="44.5761" lon="4.0407">
        <ele>1183.52</ele>
        <time>2013-08-25T13:35:22Z</time>
      </trkpt>
      <trkpt lat="44.5761" lon="4.04116">
        <ele>1183.52</ele>
        <time>2013-08-25T13:35:34Z</time>
      </trkpt>
      <trkpt lat="44.57605" lon="4.04173">
        <ele>1181.6</ele>
        <time>2013-08-25T13:35:46Z</time>
      </trkpt>
      <trkpt lat="44.57596" lon="4.0419">
        <ele>1180.16</ele>
        <time>2013-08-25T13:35:49Z</time>
      </trkpt>
      <trkpt lat="44.57592" lon="4.04205">
        <ele>1179.19</ele>
        <time>2013-08-25T13:35:51Z</time>
      </trkpt>
      <trkpt lat="44.5759" lon="4.04221">
        <ele>1178.23</ele>
        <time>2013-08-25T13:35:53Z</time>
      </trkpt>
      <trkpt lat="44.57588" lon="4.04228">
        <ele>1178.23</ele>
        <time>2013-08-25T13:35:54Z</time>
      </trkpt>
      <trkpt lat="44.57586" lon="4.04235">
        <ele>1177.75</ele>
        <time>2013-08-25T13:35:55Z</time>
      </trkpt>
      <trkpt lat="44.57583" lon="4.04242">
        <ele>1177.75</ele>
        <time>2013-08-25T13:35:56Z</time>
      </trkpt>
      <trkpt lat="44.57555" lon="4.04318">
        <ele>1176.79</ele>
        <time>2013-08-25T13:36:07Z</time>
      </trkpt>
      <trkpt lat="44.57542" lon="4.04353">
        <ele>1176.79</ele>
        <time>2013-08-25T13:36:13Z</time>
      </trkpt>
      <trkpt lat="44.57525" lon="4.04415">
        <ele>1177.27</ele>
        <time>2013-08-25T13:36:24Z</time>
      </trkpt>
      <trkpt lat="44.57507" lon="4.04502">
        <ele>1177.27</ele>
        <time>2013-08-25T13:36:39Z</time>
      </trkpt>
      <trkpt lat="44.57498" lon="4.04586">
        <ele>1177.75</ele>
        <time>2013-08-25T13:36:54Z</time>
      </trkpt>
      <trkpt lat="44.57496" lon="4.04662">
        <ele>1179.67</ele>
        <time>2013-08-25T13:37:07Z</time>
      </trkpt>
      <trkpt lat="44.5749" lon="4.04717">
        <ele>1179.67</ele>
        <time>2013-08-25T13:37:18Z</time>
      </trkpt>
      <trkpt lat="44.57485" lon="4.04769">
        <ele>1179.19</ele>
        <time>2013-08-25T13:37:26Z</time>
      </trkpt>
      <trkpt lat="44.57489" lon="4.04786">
        <ele>1178.71</ele>
        <time>2013-08-25T13:37:28Z</time>
      </trkpt>
      <trkpt lat="44.57504" lon="4.0485">
        <ele>1180.64</ele>
        <time>2013-08-25T13:37:39Z</time>
      </trkpt>
      <trkpt lat="44.57514" lon="4.04898">
        <ele>1181.6</ele>
        <time>2013-08-25T13:37:47Z</time>
      </trkpt>
      <trkpt lat="44.57514" lon="4.04904">
        <ele>1181.12</ele>
        <time>2013-08-25T13:37:48Z</time>
      </trkpt>
      <trkpt lat="44.57513" lon="4.0497">
        <ele>1180.64</ele>
        <time>2013-08-25T13:38:02Z</time>
      </trkpt>
      <trkpt lat="44.57515" lon="4.04977">
        <ele>1181.6</ele>
        <time>2013-08-25T13:38:07Z</time>
      </trkpt>
      <trkpt lat="44.57516" lon="4.04975">
        <ele>1181.12</ele>
        <time>2013-08-25T13:38:08Z</time>
      </trkpt>
      <trkpt lat="44.57517" lon="4.04973">
        <ele>1181.12</ele>
        <time>2013-08-25T13:38:09Z</time>
      </trkpt>
      <trkpt lat="44.57516" lon="4.0497">
        <ele>1181.12</ele>
        <time>2013-08-25T13:38:10Z</time>
      </trkpt>
      <trkpt lat="44.57516" lon="4.04967">
        <ele>1181.12</ele>
        <time>2013-08-25T13:38:11Z</time>
      </trkpt>
      <trkpt lat="44.57515" lon="4.04963">
        <ele>1180.64</ele>
        <time>2013-08-25T13:38:12Z</time>
      </trkpt>
      <trkpt lat="44.57514" lon="4.0496">
        <ele>1181.12</ele>
        <time>2013-08-25T13:38:13Z</time>
      </trkpt>
      <trkpt lat="44.57514" lon="4.04956">
        <ele>1180.64</ele>
        <time>2013-08-25T13:38:14Z</time>
      </trkpt>
      <trkpt lat="44.57515" lon="4.04954">
        <ele>1181.12</ele>
        <time>2013-08-25T13:38:15Z</time>
      </trkpt>
      <trkpt lat="44.57516" lon="4.04952">
        <ele>1181.12</ele>
        <time>2013-08-25T13:38:16Z</time>
      </trkpt>
      <trkpt lat="44.57518" lon="4.04951">
        <ele>1181.12</ele>
        <time>2013-08-25T13:38:17Z</time>
      </trkpt>
      <trkpt lat="44.5752" lon="4.0495">
        <ele>1181.12</ele>
        <time>2013-08-25T13:38:18Z</time>
      </trkpt>
      <trkpt lat="44.57522" lon="4.0495">
        <ele>1181.6</ele>
        <time>2013-08-25T13:38:19Z</time>
      </trkpt>
      <trkpt lat="44.57524" lon="4.04949">
        <ele>1181.6</ele>
        <time>2013-08-25T13:38:20Z</time>
      </trkpt>
      <trkpt lat="44.57526" lon="4.04949">
        <ele>1182.08</ele>
        <time>2013-08-25T13:38:21Z</time>
      </trkpt>
      <trkpt lat="44.57529" lon="4.0495">
        <ele>1182.08</ele>
        <time>2013-08-25T13:38:22Z</time>
      </trkpt>
      <trkpt lat="44.57535" lon="4.04952">
        <ele>1183.04</ele>
        <time>2013-08-25T13:38:25Z</time>
      </trkpt>
      <trkpt lat="44.57537" lon="4.04954">
        <ele>1182.56</ele>
        <time>2013-08-25T13:38:26Z</time>
      </trkpt>
      <trkpt lat="44.57539" lon="4.04957">
        <ele>1182.56</ele>
        <time>2013-08-25T13:38:27Z</time>
      </trkpt>
      <trkpt lat="44.57541" lon="4.04959">
        <ele>1182.56</ele>
        <time>2013-08-25T13:38:28Z</time>
      </trkpt>
      <trkpt lat="44.57543" lon="4.04962">
        <ele>1182.08</ele>
        <time>2013-08-25T13:38:29Z</time>
      </trkpt>
      <trkpt lat="44.57544" lon="4.04965">
        <ele>1181.6</ele>
        <time>2013-08-25T13:38:30Z</time>
      </trkpt>
      <trkpt lat="44.57546" lon="4.0497">
        <ele>1181.12</ele>
        <time>2013-08-25T13:38:31Z</time>
      </trkpt>
      <trkpt lat="44.57547" lon="4.04974">
        <ele>1180.64</ele>
        <time>2013-08-25T13:38:32Z</time>
      </trkpt>
      <trkpt lat="44.57548" lon="4.04979">
        <ele>1179.67</ele>
        <time>2013-08-25T13:38:33Z</time>
      </trkpt>
      <trkpt lat="44.5755" lon="4.04983">
        <ele>1179.67</ele>
        <time>2013-08-25T13:38:34Z</time>
      </trkpt>
      <trkpt lat="44.57552" lon="4.04987">
        <ele>1178.71</ele>
        <time>2013-08-25T13:38:35Z</time>
      </trkpt>
      <trkpt lat="44.57552" lon="4.04992">
        <ele>1178.71</ele>
        <time>2013-08-25T13:38:36Z</time>
      </trkpt>
      <trkpt lat="44.57553" lon="4.04997">
        <ele>1177.75</ele>
        <time>2013-08-25T13:38:37Z</time>
      </trkpt>
      <trkpt lat="44.57554" lon="4.05003">
        <ele>1178.23</ele>
        <time>2013-08-25T13:38:38Z</time>
      </trkpt>
      <trkpt lat="44.57555" lon="4.05008">
        <ele>1177.75</ele>
        <time>2013-08-25T13:38:39Z</time>
      </trkpt>
      <trkpt lat="44.57572" lon="4.05053">
        <ele>1176.79</ele>
        <time>2013-08-25T13:38:46Z</time>
      </trkpt>
      <trkpt lat="44.57576" lon="4.05059">
        <ele>1176.31</ele>
        <time>2013-08-25T13:38:47Z</time>
      </trkpt>
      <trkpt lat="44.5758" lon="4.05066">
        <ele>1176.31</ele>
        <time>2013-08-25T13:38:48Z</time>
      </trkpt>
      <trkpt lat="44.57594" lon="4.05097">
        <ele>1175.35</ele>
        <time>2013-08-25T13:38:53Z</time>
      </trkpt>
      <trkpt lat="44.57607" lon="4.05127">
        <ele>1173.91</ele>
        <time>2013-08-25T13:38:58Z</time>
      </trkpt>
      <trkpt lat="44.57609" lon="4.05132">
        <ele>1173.43</ele>
        <time>2013-08-25T13:38:59Z</time>
      </trkpt>
      <trkpt lat="44.5761" lon="4.05136">
        <ele>1172.95</ele>
        <time>2013-08-25T13:39:00Z</time>
      </trkpt>
      <trkpt lat="44.5762" lon="4.0515">
        <ele>1172.95</ele>
        <time>2013-08-25T13:39:03Z</time>
      </trkpt>
      <trkpt lat="44.57657" lon="4.05189">
        <ele>1169.58</ele>
        <time>2013-08-25T13:39:12Z</time>
      </trkpt>
      <trkpt lat="44.57664" lon="4.05196">
        <ele>1169.1</ele>
        <time>2013-08-25T13:39:14Z</time>
      </trkpt>
      <trkpt lat="44.57713" lon="4.05232">
        <ele>1167.18</ele>
        <time>2013-08-25T13:39:25Z</time>
      </trkpt>
      <trkpt lat="44.57765" lon="4.05277">
        <ele>1164.77</ele>
        <time>2013-08-25T13:39:35Z</time>
      </trkpt>
      <trkpt lat="44.57791" lon="4.05292">
        <ele>1164.77</ele>
        <time>2013-08-25T13:39:39Z</time>
      </trkpt>
      <trkpt lat="44.57798" lon="4.05296">
        <ele>1164.29</ele>
        <time>2013-08-25T13:39:40Z</time>
      </trkpt>
      <trkpt lat="44.57821" lon="4.05308">
        <ele>1164.29</ele>
        <time>2013-08-25T13:39:44Z</time>
      </trkpt>
      <trkpt lat="44.57826" lon="4.0531">
        <ele>1164.77</ele>
        <time>2013-08-25T13:39:45Z</time>
      </trkpt>
      <trkpt lat="44.57859" lon="4.05333">
        <ele>1164.77</ele>
        <time>2013-08-25T13:39:51Z</time>
      </trkpt>
      <trkpt lat="44.57867" lon="4.05338">
        <ele>1164.77</ele>
        <time>2013-08-25T13:39:52Z</time>
      </trkpt>
      <trkpt lat="44.5788" lon="4.05345">
        <ele>1164.29</ele>
        <time>2013-08-25T13:39:54Z</time>
      </trkpt>
      <trkpt lat="44.57887" lon="4.05348">
        <ele>1164.29</ele>
        <time>2013-08-25T13:39:55Z</time>
      </trkpt>
      <trkpt lat="44.57894" lon="4.05351">
        <ele>1164.77</ele>
        <time>2013-08-25T13:39:56Z</time>
      </trkpt>
      <trkpt lat="44.57911" lon="4.05359">
        <ele>1163.33</ele>
        <time>2013-08-25T13:39:59Z</time>
      </trkpt>
      <trkpt lat="44.57917" lon="4.05361">
        <ele>1163.33</ele>
        <time>2013-08-25T13:40:00Z</time>
      </trkpt>
      <trkpt lat="44.57946" lon="4.05377">
        <ele>1162.37</ele>
        <time>2013-08-25T13:40:05Z</time>
      </trkpt>
      <trkpt lat="44.5795" lon="4.05384">
        <ele>1161.89</ele>
        <time>2013-08-25T13:40:06Z</time>
      </trkpt>
      <trkpt lat="44.57953" lon="4.05392">
        <ele>1161.89</ele>
        <time>2013-08-25T13:40:07Z</time>
      </trkpt>
      <trkpt lat="44.57959" lon="4.0541">
        <ele>1159.49</ele>
        <time>2013-08-25T13:40:10Z</time>
      </trkpt>
      <trkpt lat="44.57964" lon="4.05433">
        <ele>1156.6</ele>
        <time>2013-08-25T13:40:14Z</time>
      </trkpt>
      <trkpt lat="44.57968" lon="4.05448">
        <ele>1155.64</ele>
        <time>2013-08-25T13:40:17Z</time>
      </trkpt>
      <trkpt lat="44.5797" lon="4.0545">
        <ele>1155.64</ele>
        <time>2013-08-25T13:40:18Z</time>
      </trkpt>
      <trkpt lat="44.57978" lon="4.05455">
        <ele>1155.64</ele>
        <time>2013-08-25T13:40:34Z</time>
      </trkpt>
      <trkpt lat="44.5798" lon="4.05455">
        <ele>1156.12</ele>
        <time>2013-08-25T13:40:39Z</time>
      </trkpt>
      <trkpt lat="44.57982" lon="4.05454">
        <ele>1155.64</ele>
        <time>2013-08-25T13:40:40Z</time>
      </trkpt>
      <trkpt lat="44.57984" lon="4.05452">
        <ele>1155.64</ele>
        <time>2013-08-25T13:40:41Z</time>
      </trkpt>
      <trkpt lat="44.57987" lon="4.05451">
        <ele>1156.12</ele>
        <time>2013-08-25T13:40:42Z</time>
      </trkpt>
      <trkpt lat="44.57989" lon="4.0545">
        <ele>1155.64</ele>
        <time>2013-08-25T13:40:43Z</time>
      </trkpt>
      <trkpt lat="44.58004" lon="4.05439">
        <ele>1154.68</ele>
        <time>2013-08-25T13:40:47Z</time>
      </trkpt>
      <trkpt lat="44.58008" lon="4.05434">
        <ele>1154.2</ele>
        <time>2013-08-25T13:40:48Z</time>
      </trkpt>
      <trkpt lat="44.58012" lon="4.05422">
        <ele>1153.72</ele>
        <time>2013-08-25T13:40:50Z</time>
      </trkpt>
      <trkpt lat="44.58014" lon="4.05414">
        <ele>1152.76</ele>
        <time>2013-08-25T13:40:51Z</time>
      </trkpt>
      <trkpt lat="44.58014" lon="4.05407">
        <ele>1152.28</ele>
        <time>2013-08-25T13:40:52Z</time>
      </trkpt>
      <trkpt lat="44.58014" lon="4.05399">
        <ele>1152.28</ele>
        <time>2013-08-25T13:40:53Z</time>
      </trkpt>
      <trkpt lat="44.58013" lon="4.05391">
        <ele>1152.28</ele>
        <time>2013-08-25T13:40:54Z</time>
      </trkpt>
      <trkpt lat="44.58011" lon="4.05383">
        <ele>1151.8</ele>
        <time>2013-08-25T13:40:55Z</time>
      </trkpt>
      <trkpt lat="44.58008" lon="4.05376">
        <ele>1151.8</ele>
        <time>2013-08-25T13:40:56Z</time>
      </trkpt>
      <trkpt lat="44.58004" lon="4.0537">
        <ele>1151.8</ele>
        <time>2013-08-25T13:40:57Z</time>
      </trkpt>
      <trkpt lat="44.58" lon="4.05365">
        <ele>1151.8</ele>
        <time>2013-08-25T13:40:58Z</time>
      </trkpt>
      <trkpt lat="44.57995" lon="4.0536">
        <ele>1151.8</ele>
        <time>2013-08-25T13:40:59Z</time>
      </trkpt>
      <trkpt lat="44.57982" lon="4.05347">
        <ele>1151.8</ele>
        <time>2013-08-25T13:41:02Z</time>
      </trkpt>
      <trkpt lat="44.57977" lon="4.05344">
        <ele>1151.8</ele>
        <time>2013-08-25T13:41:03Z</time>
      </trkpt>
      <trkpt lat="44.57972" lon="4.05342">
        <ele>1152.28</ele>
        <time>2013-08-25T13:41:04Z</time>
      </trkpt>
      <trkpt lat="44.57954" lon="4.05337">
        <ele>1152.28</ele>
        <time>2013-08-25T13:41:08Z</time>
      </trkpt>
      <trkpt lat="44.57929" lon="4.05326">
        <ele>1153.72</ele>
        <time>2013-08-25T13:41:19Z</time>
      </trkpt>
      <trkpt lat="44.57929" lon="4.05326">
        <ele>1153.24</ele>
        <time>2013-08-25T13:41:35Z</time>
      </trkpt>
      <trkpt lat="44.57929" lon="4.05326">
        <ele>1153.24</ele>
        <time>2013-08-25T13:41:51Z</time>
      </trkpt>
      <trkpt lat="44.5793" lon="4.05327">
        <ele>1153.24</ele>
        <time>2013-08-25T13:41:55Z</time>
      </trkpt>
      <trkpt lat="44.57931" lon="4.05327">
        <ele>1153.72</ele>
        <time>2013-08-25T13:41:56Z</time>
      </trkpt>
      <trkpt lat="44.57933" lon="4.05329">
        <ele>1153.24</ele>
        <time>2013-08-25T13:41:57Z</time>
      </trkpt>
      <trkpt lat="44.57935" lon="4.0533">
        <ele>1153.24</ele>
        <time>2013-08-25T13:41:58Z</time>
      </trkpt>
      <trkpt lat="44.57937" lon="4.05331">
        <ele>1153.24</ele>
        <time>2013-08-25T13:41:59Z</time>
      </trkpt>
      <trkpt lat="44.5795" lon="4.0534">
        <ele>1152.28</ele>
        <time>2013-08-25T13:42:06Z</time>
      </trkpt>
      <trkpt lat="44.57951" lon="4.05341">
        <ele>1152.76</ele>
        <time>2013-08-25T13:42:07Z</time>
      </trkpt>
      <trkpt lat="44.57967" lon="4.05348">
        <ele>1152.28</ele>
        <time>2013-08-25T13:42:11Z</time>
      </trkpt>
      <trkpt lat="44.57972" lon="4.05351">
        <ele>1151.8</ele>
        <time>2013-08-25T13:42:12Z</time>
      </trkpt>
      <trkpt lat="44.57977" lon="4.05355">
        <ele>1152.28</ele>
        <time>2013-08-25T13:42:13Z</time>
      </trkpt>
      <trkpt lat="44.57981" lon="4.0536">
        <ele>1151.8</ele>
        <time>2013-08-25T13:42:14Z</time>
      </trkpt>
      <trkpt lat="44.57985" lon="4.05364">
        <ele>1151.8</ele>
        <time>2013-08-25T13:42:15Z</time>
      </trkpt>
      <trkpt lat="44.57999" lon="4.05389">
        <ele>1152.76</ele>
        <time>2013-08-25T13:42:21Z</time>
      </trkpt>
      <trkpt lat="44.57999" lon="4.05394">
        <ele>1152.76</ele>
        <time>2013-08-25T13:42:22Z</time>
      </trkpt>
      <trkpt lat="44.58" lon="4.054">
        <ele>1153.24</ele>
        <time>2013-08-25T13:42:23Z</time>
      </trkpt>
      <trkpt lat="44.58001" lon="4.05406">
        <ele>1153.72</ele>
        <time>2013-08-25T13:42:24Z</time>
      </trkpt>
      <trkpt lat="44.58001" lon="4.05412">
        <ele>1154.2</ele>
        <time>2013-08-25T13:42:25Z</time>
      </trkpt>
      <trkpt lat="44.58001" lon="4.05417">
        <ele>1154.2</ele>
        <time>2013-08-25T13:42:26Z</time>
      </trkpt>
      <trkpt lat="44.58001" lon="4.05422">
        <ele>1154.68</ele>
        <time>2013-08-25T13:42:27Z</time>
      </trkpt>
      <trkpt lat="44.58001" lon="4.05427">
        <ele>1155.16</ele>
        <time>2013-08-25T13:42:28Z</time>
      </trkpt>
      <trkpt lat="44.57999" lon="4.05432">
        <ele>1155.64</ele>
        <time>2013-08-25T13:42:29Z</time>
      </trkpt>
      <trkpt lat="44.57996" lon="4.05437">
        <ele>1156.12</ele>
        <time>2013-08-25T13:42:30Z</time>
      </trkpt>
      <trkpt lat="44.57994" lon="4.05441">
        <ele>1156.12</ele>
        <time>2013-08-25T13:42:31Z</time>
      </trkpt>
      <trkpt lat="44.57989" lon="4.05447">
        <ele>1156.12</ele>
        <time>2013-08-25T13:42:33Z</time>
      </trkpt>
      <trkpt lat="44.57985" lon="4.05449">
        <ele>1156.12</ele>
        <time>2013-08-25T13:42:34Z</time>
      </trkpt>
      <trkpt lat="44.57941" lon="4.0546">
        <ele>1155.16</ele>
        <time>2013-08-25T13:42:47Z</time>
      </trkpt>
      <trkpt lat="44.57937" lon="4.05463">
        <ele>1154.68</ele>
        <time>2013-08-25T13:42:49Z</time>
      </trkpt>
      <trkpt lat="44.57936" lon="4.05466">
        <ele>1155.16</ele>
        <time>2013-08-25T13:42:50Z</time>
      </trkpt>
      <trkpt lat="44.57937" lon="4.05468">
        <ele>1155.16</ele>
        <time>2013-08-25T13:42:51Z</time>
      </trkpt>
      <trkpt lat="44.57938" lon="4.0547">
        <ele>1154.68</ele>
        <time>2013-08-25T13:42:52Z</time>
      </trkpt>
      <trkpt lat="44.57939" lon="4.05472">
        <ele>1154.2</ele>
        <time>2013-08-25T13:42:53Z</time>
      </trkpt>
      <trkpt lat="44.5794" lon="4.05473">
        <ele>1154.68</ele>
        <time>2013-08-25T13:42:54Z</time>
      </trkpt>
      <trkpt lat="44.57941" lon="4.05473">
        <ele>1154.68</ele>
        <time>2013-08-25T13:42:55Z</time>
      </trkpt>
      <trkpt lat="44.57942" lon="4.05474">
        <ele>1154.2</ele>
        <time>2013-08-25T13:43:07Z</time>
      </trkpt>
      <trkpt lat="44.57948" lon="4.05473">
        <ele>1153.72</ele>
        <time>2013-08-25T13:43:29Z</time>
      </trkpt>
      <trkpt lat="44.57958" lon="4.05473">
        <ele>1151.8</ele>
        <time>2013-08-25T13:43:32Z</time>
      </trkpt>
      <trkpt lat="44.57962" lon="4.05473">
        <ele>1151.8</ele>
        <time>2013-08-25T13:43:33Z</time>
      </trkpt>
      <trkpt lat="44.57975" lon="4.05476">
        <ele>1150.35</ele>
        <time>2013-08-25T13:43:36Z</time>
      </trkpt>
      <trkpt lat="44.5798" lon="4.05478">
        <ele>1148.91</ele>
        <time>2013-08-25T13:43:37Z</time>
      </trkpt>
      <trkpt lat="44.57985" lon="4.0548">
        <ele>1148.43</ele>
        <time>2013-08-25T13:43:38Z</time>
      </trkpt>
      <trkpt lat="44.5799" lon="4.05482">
        <ele>1146.99</ele>
        <time>2013-08-25T13:43:39Z</time>
      </trkpt>
      <trkpt lat="44.57996" lon="4.05482">
        <ele>1146.51</ele>
        <time>2013-08-25T13:43:40Z</time>
      </trkpt>
      <trkpt lat="44.58002" lon="4.05482">
        <ele>1145.07</ele>
        <time>2013-08-25T13:43:41Z</time>
      </trkpt>
      <trkpt lat="44.58032" lon="4.05475">
        <ele>1140.74</ele>
        <time>2013-08-25T13:43:45Z</time>
      </trkpt>
      <trkpt lat="44.58067" lon="4.05466">
        <ele>1137.38</ele>
        <time>2013-08-25T13:43:49Z</time>
      </trkpt>
      <trkpt lat="44.58085" lon="4.05459">
        <ele>1135.45</ele>
        <time>2013-08-25T13:43:51Z</time>
      </trkpt>
      <trkpt lat="44.58094" lon="4.05455">
        <ele>1134.97</ele>
        <time>2013-08-25T13:43:52Z</time>
      </trkpt>
      <trkpt lat="44.58125" lon="4.05432">
        <ele>1131.13</ele>
        <time>2013-08-25T13:43:56Z</time>
      </trkpt>
      <trkpt lat="44.58133" lon="4.05425">
        <ele>1130.65</ele>
        <time>2013-08-25T13:43:57Z</time>
      </trkpt>
      <trkpt lat="44.58141" lon="4.0542">
        <ele>1128.73</ele>
        <time>2013-08-25T13:43:58Z</time>
      </trkpt>
      <trkpt lat="44.5815" lon="4.05416">
        <ele>1128.24</ele>
        <time>2013-08-25T13:43:59Z</time>
      </trkpt>
      <trkpt lat="44.58158" lon="4.05414">
        <ele>1127.28</ele>
        <time>2013-08-25T13:44:00Z</time>
      </trkpt>
      <trkpt lat="44.58167" lon="4.05411">
        <ele>1126.32</ele>
        <time>2013-08-25T13:44:01Z</time>
      </trkpt>
      <trkpt lat="44.58176" lon="4.05408">
        <ele>1126.32</ele>
        <time>2013-08-25T13:44:02Z</time>
      </trkpt>
      <trkpt lat="44.58194" lon="4.05402">
        <ele>1124.88</ele>
        <time>2013-08-25T13:44:04Z</time>
      </trkpt>
      <trkpt lat="44.58201" lon="4.05398">
        <ele>1123.92</ele>
        <time>2013-08-25T13:44:05Z</time>
      </trkpt>
      <trkpt lat="44.58229" lon="4.05374">
        <ele>1120.07</ele>
        <time>2013-08-25T13:44:09Z</time>
      </trkpt>
      <trkpt lat="44.58234" lon="4.05368">
        <ele>1120.07</ele>
        <time>2013-08-25T13:44:10Z</time>
      </trkpt>
      <trkpt lat="44.58248" lon="4.05348">
        <ele>1119.11</ele>
        <time>2013-08-25T13:44:16Z</time>
      </trkpt>
      <trkpt lat="44.58249" lon="4.05348">
        <ele>1119.11</ele>
        <time>2013-08-25T13:44:17Z</time>
      </trkpt>
      <trkpt lat="44.58251" lon="4.0535">
        <ele>1118.63</ele>
        <time>2013-08-25T13:44:29Z</time>
      </trkpt>
      <trkpt lat="44.58251" lon="4.05351">
        <ele>1117.67</ele>
        <time>2013-08-25T13:44:30Z</time>
      </trkpt>
      <trkpt lat="44.58251" lon="4.05354">
        <ele>1116.71</ele>
        <time>2013-08-25T13:44:31Z</time>
      </trkpt>
      <trkpt lat="44.5825" lon="4.05358">
        <ele>1115.75</ele>
        <time>2013-08-25T13:44:32Z</time>
      </trkpt>
      <trkpt lat="44.58251" lon="4.05363">
        <ele>1115.27</ele>
        <time>2013-08-25T13:44:33Z</time>
      </trkpt>
      <trkpt lat="44.58251" lon="4.05369">
        <ele>1114.31</ele>
        <time>2013-08-25T13:44:34Z</time>
      </trkpt>
      <trkpt lat="44.5825" lon="4.05374">
        <ele>1113.34</ele>
        <time>2013-08-25T13:44:35Z</time>
      </trkpt>
      <trkpt lat="44.5825" lon="4.05385">
        <ele>1112.38</ele>
        <time>2013-08-25T13:44:37Z</time>
      </trkpt>
      <trkpt lat="44.58251" lon="4.05391">
        <ele>1111.42</ele>
        <time>2013-08-25T13:44:38Z</time>
      </trkpt>
      <trkpt lat="44.58252" lon="4.05397">
        <ele>1110.46</ele>
        <time>2013-08-25T13:44:39Z</time>
      </trkpt>
      <trkpt lat="44.58255" lon="4.05403">
        <ele>1108.54</ele>
        <time>2013-08-25T13:44:40Z</time>
      </trkpt>
      <trkpt lat="44.58257" lon="4.0541">
        <ele>1107.58</ele>
        <time>2013-08-25T13:44:41Z</time>
      </trkpt>
      <trkpt lat="44.5826" lon="4.05416">
        <ele>1106.61</ele>
        <time>2013-08-25T13:44:42Z</time>
      </trkpt>
      <trkpt lat="44.58262" lon="4.05422">
        <ele>1106.61</ele>
        <time>2013-08-25T13:44:43Z</time>
      </trkpt>
      <trkpt lat="44.58262" lon="4.05428">
        <ele>1106.13</ele>
        <time>2013-08-25T13:44:44Z</time>
      </trkpt>
      <trkpt lat="44.58261" lon="4.05433">
        <ele>1105.17</ele>
        <time>2013-08-25T13:44:45Z</time>
      </trkpt>
      <trkpt lat="44.58258" lon="4.05438">
        <ele>1104.21</ele>
        <time>2013-08-25T13:44:46Z</time>
      </trkpt>
      <trkpt lat="44.58255" lon="4.05441">
        <ele>1103.25</ele>
        <time>2013-08-25T13:44:47Z</time>
      </trkpt>
      <trkpt lat="44.58252" lon="4.05443">
        <ele>1102.77</ele>
        <time>2013-08-25T13:44:48Z</time>
      </trkpt>
      <trkpt lat="44.58249" lon="4.05445">
        <ele>1100.85</ele>
        <time>2013-08-25T13:44:49Z</time>
      </trkpt>
      <trkpt lat="44.58245" lon="4.05447">
        <ele>1100.85</ele>
        <time>2013-08-25T13:44:50Z</time>
      </trkpt>
      <trkpt lat="44.58242" lon="4.05448">
        <ele>1099.4</ele>
        <time>2013-08-25T13:44:51Z</time>
      </trkpt>
      <trkpt lat="44.58239" lon="4.05449">
        <ele>1099.4</ele>
        <time>2013-08-25T13:44:52Z</time>
      </trkpt>
      <trkpt lat="44.58238" lon="4.05451">
        <ele>1098.92</ele>
        <time>2013-08-25T13:44:53Z</time>
      </trkpt>
      <trkpt lat="44.58236" lon="4.05453">
        <ele>1098.44</ele>
        <time>2013-08-25T13:44:54Z</time>
      </trkpt>
      <trkpt lat="44.58235" lon="4.05454">
        <ele>1097.96</ele>
        <time>2013-08-25T13:44:55Z</time>
      </trkpt>
      <trkpt lat="44.58232" lon="4.05459">
        <ele>1096.04</ele>
        <time>2013-08-25T13:44:58Z</time>
      </trkpt>
      <trkpt lat="44.58229" lon="4.05469">
        <ele>1093.64</ele>
        <time>2013-08-25T13:45:02Z</time>
      </trkpt>
      <trkpt lat="44.58225" lon="4.05476">
        <ele>1092.2</ele>
        <time>2013-08-25T13:45:04Z</time>
      </trkpt>
      <trkpt lat="44.58223" lon="4.05478">
        <ele>1091.71</ele>
        <time>2013-08-25T13:45:05Z</time>
      </trkpt>
      <trkpt lat="44.58222" lon="4.05482">
        <ele>1090.75</ele>
        <time>2013-08-25T13:45:06Z</time>
      </trkpt>
      <trkpt lat="44.58218" lon="4.05488">
        <ele>1089.79</ele>
        <time>2013-08-25T13:45:08Z</time>
      </trkpt>
      <trkpt lat="44.58212" lon="4.05499">
        <ele>1087.39</ele>
        <time>2013-08-25T13:45:11Z</time>
      </trkpt>
      <trkpt lat="44.58204" lon="4.05516">
        <ele>1084.99</ele>
        <time>2013-08-25T13:45:15Z</time>
      </trkpt>
      <trkpt lat="44.58202" lon="4.05519">
        <ele>1084.02</ele>
        <time>2013-08-25T13:45:16Z</time>
      </trkpt>
      <trkpt lat="44.58201" lon="4.05523">
        <ele>1083.54</ele>
        <time>2013-08-25T13:45:17Z</time>
      </trkpt>
      <trkpt lat="44.58199" lon="4.0553">
        <ele>1081.14</ele>
        <time>2013-08-25T13:45:21Z</time>
      </trkpt>
      <trkpt lat="44.58198" lon="4.05534">
        <ele>1080.18</ele>
        <time>2013-08-25T13:45:22Z</time>
      </trkpt>
      <trkpt lat="44.58198" lon="4.05538">
        <ele>1080.18</ele>
        <time>2013-08-25T13:45:23Z</time>
      </trkpt>
      <trkpt lat="44.58198" lon="4.05542">
        <ele>1078.74</ele>
        <time>2013-08-25T13:45:24Z</time>
      </trkpt>
      <trkpt lat="44.58196" lon="4.05546">
        <ele>1077.78</ele>
        <time>2013-08-25T13:45:25Z</time>
      </trkpt>
      <trkpt lat="44.58194" lon="4.0555">
        <ele>1077.29</ele>
        <time>2013-08-25T13:45:26Z</time>
      </trkpt>
      <trkpt lat="44.58192" lon="4.05555">
        <ele>1077.29</ele>
        <time>2013-08-25T13:45:27Z</time>
      </trkpt>
      <trkpt lat="44.58175" lon="4.05589">
        <ele>1076.33</ele>
        <time>2013-08-25T13:45:33Z</time>
      </trkpt>
      <trkpt lat="44.58168" lon="4.05609">
        <ele>1076.33</ele>
        <time>2013-08-25T13:45:36Z</time>
      </trkpt>
      <trkpt lat="44.58167" lon="4.05616">
        <ele>1075.37</ele>
        <time>2013-08-25T13:45:37Z</time>
      </trkpt>
      <trkpt lat="44.58168" lon="4.05629">
        <ele>1075.85</ele>
        <time>2013-08-25T13:45:38Z</time>
      </trkpt>
      <trkpt lat="44.5817" lon="4.05639">
        <ele>1075.37</ele>
        <time>2013-08-25T13:45:39Z</time>
      </trkpt>
      <trkpt lat="44.58173" lon="4.05645">
        <ele>1075.37</ele>
        <time>2013-08-25T13:45:40Z</time>
      </trkpt>
      <trkpt lat="44.58177" lon="4.0565">
        <ele>1074.89</ele>
        <time>2013-08-25T13:45:41Z</time>
      </trkpt>
      <trkpt lat="44.58181" lon="4.05654">
        <ele>1075.37</ele>
        <time>2013-08-25T13:45:42Z</time>
      </trkpt>
      <trkpt lat="44.58184" lon="4.05658">
        <ele>1074.89</ele>
        <time>2013-08-25T13:45:43Z</time>
      </trkpt>
      <trkpt lat="44.58213" lon="4.05676">
        <ele>1075.85</ele>
        <time>2013-08-25T13:45:52Z</time>
      </trkpt>
      <trkpt lat="44.58215" lon="4.05674">
        <ele>1075.85</ele>
        <time>2013-08-25T13:45:53Z</time>
      </trkpt>
      <trkpt lat="44.58218" lon="4.05673">
        <ele>1076.33</ele>
        <time>2013-08-25T13:46:03Z</time>
      </trkpt>
      <trkpt lat="44.58224" lon="4.05664">
        <ele>1076.33</ele>
        <time>2013-08-25T13:46:20Z</time>
      </trkpt>
      <trkpt lat="44.58252" lon="4.05631">
        <ele>1076.81</ele>
        <time>2013-08-25T13:46:31Z</time>
      </trkpt>
      <trkpt lat="44.58271" lon="4.0562">
        <ele>1077.78</ele>
        <time>2013-08-25T13:46:40Z</time>
      </trkpt>
      <trkpt lat="44.58295" lon="4.05606">
        <ele>1078.26</ele>
        <time>2013-08-25T13:46:49Z</time>
      </trkpt>
      <trkpt lat="44.58329" lon="4.056">
        <ele>1079.7</ele>
        <time>2013-08-25T13:47:00Z</time>
      </trkpt>
      <trkpt lat="44.58357" lon="4.05596">
        <ele>1080.18</ele>
        <time>2013-08-25T13:47:11Z</time>
      </trkpt>
      <trkpt lat="44.58383" lon="4.05592">
        <ele>1081.14</ele>
        <time>2013-08-25T13:47:21Z</time>
      </trkpt>
      <trkpt lat="44.5841" lon="4.05584">
        <ele>1083.06</ele>
        <time>2013-08-25T13:47:32Z</time>
      </trkpt>
      <trkpt lat="44.58444" lon="4.05576">
        <ele>1084.99</ele>
        <time>2013-08-25T13:47:44Z</time>
      </trkpt>
      <trkpt lat="44.58472" lon="4.05572">
        <ele>1086.43</ele>
        <time>2013-08-25T13:47:54Z</time>
      </trkpt>
      <trkpt lat="44.585" lon="4.05534">
        <ele>1088.83</ele>
        <time>2013-08-25T13:48:07Z</time>
      </trkpt>
      <trkpt lat="44.58496" lon="4.05479">
        <ele>1089.79</ele>
        <time>2013-08-25T13:48:21Z</time>
      </trkpt>
      <trkpt lat="44.5849" lon="4.05432">
        <ele>1090.75</ele>
        <time>2013-08-25T13:48:32Z</time>
      </trkpt>
      <trkpt lat="44.58511" lon="4.05391">
        <ele>1091.71</ele>
        <time>2013-08-25T13:48:44Z</time>
      </trkpt>
      <trkpt lat="44.58545" lon="4.05367">
        <ele>1093.16</ele>
        <time>2013-08-25T13:48:56Z</time>
      </trkpt>
      <trkpt lat="44.58558" lon="4.05354">
        <ele>1093.64</ele>
        <time>2013-08-25T13:49:01Z</time>
      </trkpt>
      <trkpt lat="44.58561" lon="4.05352">
        <ele>1093.64</ele>
        <time>2013-08-25T13:49:02Z</time>
      </trkpt>
      <trkpt lat="44.58563" lon="4.05349">
        <ele>1093.64</ele>
        <time>2013-08-25T13:49:03Z</time>
      </trkpt>
      <trkpt lat="44.58565" lon="4.05346">
        <ele>1093.64</ele>
        <time>2013-08-25T13:49:04Z</time>
      </trkpt>
      <trkpt lat="44.58567" lon="4.05342">
        <ele>1094.12</ele>
        <time>2013-08-25T13:49:05Z</time>
      </trkpt>
      <trkpt lat="44.58568" lon="4.05338">
        <ele>1094.12</ele>
        <time>2013-08-25T13:49:06Z</time>
      </trkpt>
      <trkpt lat="44.58591" lon="4.05285">
        <ele>1095.56</ele>
        <time>2013-08-25T13:49:18Z</time>
      </trkpt>
      <trkpt lat="44.58635" lon="4.05242">
        <ele>1097.48</ele>
        <time>2013-08-25T13:49:34Z</time>
      </trkpt>
      <trkpt lat="44.58672" lon="4.05249">
        <ele>1098.44</ele>
        <time>2013-08-25T13:49:46Z</time>
      </trkpt>
      <trkpt lat="44.58681" lon="4.05295">
        <ele>1099.89</ele>
        <time>2013-08-25T13:49:55Z</time>
      </trkpt>
      <trkpt lat="44.58683" lon="4.05354">
        <ele>1101.81</ele>
        <time>2013-08-25T13:50:07Z</time>
      </trkpt>
      <trkpt lat="44.58683" lon="4.05358">
        <ele>1102.29</ele>
        <time>2013-08-25T13:50:08Z</time>
      </trkpt>
      <trkpt lat="44.58693" lon="4.05401">
        <ele>1103.25</ele>
        <time>2013-08-25T13:50:18Z</time>
      </trkpt>
      <trkpt lat="44.58702" lon="4.05424">
        <ele>1103.73</ele>
        <time>2013-08-25T13:50:24Z</time>
      </trkpt>
      <trkpt lat="44.58704" lon="4.05429">
        <ele>1103.25</ele>
        <time>2013-08-25T13:50:25Z</time>
      </trkpt>
      <trkpt lat="44.58708" lon="4.05432">
        <ele>1103.73</ele>
        <time>2013-08-25T13:50:26Z</time>
      </trkpt>
      <trkpt lat="44.58737" lon="4.05457">
        <ele>1104.21</ele>
        <time>2013-08-25T13:50:36Z</time>
      </trkpt>
      <trkpt lat="44.58772" lon="4.05477">
        <ele>1105.65</ele>
        <time>2013-08-25T13:50:47Z</time>
      </trkpt>
      <trkpt lat="44.58819" lon="4.05498">
        <ele>1107.58</ele>
        <time>2013-08-25T13:50:59Z</time>
      </trkpt>
      <trkpt lat="44.58861" lon="4.05508">
        <ele>1109.5</ele>
        <time>2013-08-25T13:51:10Z</time>
      </trkpt>
      <trkpt lat="44.58896" lon="4.05513">
        <ele>1109.98</ele>
        <time>2013-08-25T13:51:21Z</time>
      </trkpt>
      <trkpt lat="44.58925" lon="4.05509">
        <ele>1110.94</ele>
        <time>2013-08-25T13:51:30Z</time>
      </trkpt>
      <trkpt lat="44.58954" lon="4.055">
        <ele>1111.9</ele>
        <time>2013-08-25T13:51:39Z</time>
      </trkpt>
      <trkpt lat="44.59002" lon="4.05503">
        <ele>1113.34</ele>
        <time>2013-08-25T13:51:52Z</time>
      </trkpt>
      <trkpt lat="44.59037" lon="4.05529">
        <ele>1114.31</ele>
        <time>2013-08-25T13:52:05Z</time>
      </trkpt>
      <trkpt lat="44.59052" lon="4.05553">
        <ele>1114.79</ele>
        <time>2013-08-25T13:52:12Z</time>
      </trkpt>
      <trkpt lat="44.59057" lon="4.05575">
        <ele>1115.75</ele>
        <time>2013-08-25T13:52:19Z</time>
      </trkpt>
      <trkpt lat="44.59055" lon="4.05581">
        <ele>1116.23</ele>
        <time>2013-08-25T13:52:21Z</time>
      </trkpt>
      <trkpt lat="44.59052" lon="4.05593">
        <ele>1116.71</ele>
        <time>2013-08-25T13:52:25Z</time>
      </trkpt>
      <trkpt lat="44.59053" lon="4.05596">
        <ele>1116.23</ele>
        <time>2013-08-25T13:52:26Z</time>
      </trkpt>
      <trkpt lat="44.59066" lon="4.05615">
        <ele>1117.19</ele>
        <time>2013-08-25T13:52:30Z</time>
      </trkpt>
      <trkpt lat="44.59095" lon="4.05655">
        <ele>1118.15</ele>
        <time>2013-08-25T13:52:41Z</time>
      </trkpt>
      <trkpt lat="44.59124" lon="4.05685">
        <ele>1119.11</ele>
        <time>2013-08-25T13:52:52Z</time>
      </trkpt>
      <trkpt lat="44.59134" lon="4.057">
        <ele>1119.59</ele>
        <time>2013-08-25T13:52:57Z</time>
      </trkpt>
      <trkpt lat="44.59135" lon="4.0571">
        <ele>1119.59</ele>
        <time>2013-08-25T13:53:00Z</time>
      </trkpt>
      <trkpt lat="44.59143" lon="4.05725">
        <ele>1120.07</ele>
        <time>2013-08-25T13:53:04Z</time>
      </trkpt>
      <trkpt lat="44.59145" lon="4.05761">
        <ele>1120.55</ele>
        <time>2013-08-25T13:53:14Z</time>
      </trkpt>
      <trkpt lat="44.59147" lon="4.05765">
        <ele>1120.55</ele>
        <time>2013-08-25T13:53:15Z</time>
      </trkpt>
      <trkpt lat="44.59159" lon="4.05802">
        <ele>1121.52</ele>
        <time>2013-08-25T13:53:24Z</time>
      </trkpt>
      <trkpt lat="44.59155" lon="4.05847">
        <ele>1123.44</ele>
        <time>2013-08-25T13:53:36Z</time>
      </trkpt>
      <trkpt lat="44.59151" lon="4.05874">
        <ele>1124.4</ele>
        <time>2013-08-25T13:53:42Z</time>
      </trkpt>
      <trkpt lat="44.5916" lon="4.05891">
        <ele>1124.88</ele>
        <time>2013-08-25T13:53:47Z</time>
      </trkpt>
      <trkpt lat="44.592" lon="4.05903">
        <ele>1125.36</ele>
        <time>2013-08-25T13:53:58Z</time>
      </trkpt>
      <trkpt lat="44.59209" lon="4.05898">
        <ele>1125.84</ele>
        <time>2013-08-25T13:54:00Z</time>
      </trkpt>
      <trkpt lat="44.59249" lon="4.05858">
        <ele>1126.8</ele>
        <time>2013-08-25T13:54:13Z</time>
      </trkpt>
      <trkpt lat="44.59282" lon="4.05795">
        <ele>1128.24</ele>
        <time>2013-08-25T13:54:30Z</time>
      </trkpt>
      <trkpt lat="44.59308" lon="4.05743">
        <ele>1129.21</ele>
        <time>2013-08-25T13:54:45Z</time>
      </trkpt>
      <trkpt lat="44.59359" lon="4.05717">
        <ele>1130.17</ele>
        <time>2013-08-25T13:55:03Z</time>
      </trkpt>
      <trkpt lat="44.59408" lon="4.05686">
        <ele>1132.57</ele>
        <time>2013-08-25T13:55:21Z</time>
      </trkpt>
      <trkpt lat="44.59449" lon="4.05641">
        <ele>1134.49</ele>
        <time>2013-08-25T13:55:37Z</time>
      </trkpt>
      <trkpt lat="44.59499" lon="4.05609">
        <ele>1135.94</ele>
        <time>2013-08-25T13:55:54Z</time>
      </trkpt>
      <trkpt lat="44.59551" lon="4.05584">
        <ele>1138.34</ele>
        <time>2013-08-25T13:56:11Z</time>
      </trkpt>
      <trkpt lat="44.59572" lon="4.05567">
        <ele>1139.3</ele>
        <time>2013-08-25T13:56:20Z</time>
      </trkpt>
      <trkpt lat="44.59574" lon="4.05568">
        <ele>1139.78</ele>
        <time>2013-08-25T13:56:21Z</time>
      </trkpt>
      <trkpt lat="44.59575" lon="4.0557">
        <ele>1139.78</ele>
        <time>2013-08-25T13:56:22Z</time>
      </trkpt>
      <trkpt lat="44.59576" lon="4.05572">
        <ele>1139.78</ele>
        <time>2013-08-25T13:56:23Z</time>
      </trkpt>
      <trkpt lat="44.59577" lon="4.05574">
        <ele>1139.78</ele>
        <time>2013-08-25T13:56:24Z</time>
      </trkpt>
      <trkpt lat="44.59577" lon="4.05576">
        <ele>1139.78</ele>
        <time>2013-08-25T13:56:25Z</time>
      </trkpt>
      <trkpt lat="44.59577" lon="4.05578">
        <ele>1139.78</ele>
        <time>2013-08-25T13:56:26Z</time>
      </trkpt>
      <trkpt lat="44.59576" lon="4.05581">
        <ele>1135.45</ele>
        <time>2013-08-25T13:56:39Z</time>
      </trkpt>
      <trkpt lat="44.59576" lon="4.05581">
        <ele>1142.18</ele>
        <time>2013-08-25T13:56:40Z</time>
      </trkpt>
      <trkpt lat="44.59576" lon="4.05581">
        <ele>1141.7</ele>
        <time>2013-08-25T13:56:41Z</time>
      </trkpt>
      <trkpt lat="44.59576" lon="4.05581">
        <ele>1137.86</ele>
        <time>2013-08-25T13:56:47Z</time>
      </trkpt>
      <trkpt lat="44.59576" lon="4.05581">
        <ele>1141.22</ele>
        <time>2013-08-25T13:57:03Z</time>
      </trkpt>
      <trkpt lat="44.59576" lon="4.0558">
        <ele>1143.63</ele>
        <time>2013-08-25T13:57:13Z</time>
      </trkpt>
      <trkpt lat="44.59576" lon="4.0558">
        <ele>1135.45</ele>
        <time>2013-08-25T13:57:14Z</time>
      </trkpt>
      <trkpt lat="44.59576" lon="4.0558">
        <ele>1140.74</ele>
        <time>2013-08-25T13:57:15Z</time>
      </trkpt>
      <trkpt lat="44.59576" lon="4.0558">
        <ele>1135.94</ele>
        <time>2013-08-25T13:57:17Z</time>
      </trkpt>
      <trkpt lat="44.59576" lon="4.0558">
        <ele>1141.22</ele>
        <time>2013-08-25T13:57:18Z</time>
      </trkpt>
      <trkpt lat="44.59576" lon="4.0558">
        <ele>1135.45</ele>
        <time>2013-08-25T13:57:19Z</time>
      </trkpt>
      <trkpt lat="44.59576" lon="4.0558">
        <ele>1140.74</ele>
        <time>2013-08-25T13:57:20Z</time>
      </trkpt>
      <trkpt lat="44.59576" lon="4.0558">
        <ele>1140.74</ele>
        <time>2013-08-25T13:57:50Z</time>
      </trkpt>
      <trkpt lat="44.59576" lon="4.0558">
        <ele>1140.26</ele>
        <time>2013-08-25T13:58:15Z</time>
      </trkpt>
      <trkpt lat="44.59577" lon="4.0558">
        <ele>1140.26</ele>
        <time>2013-08-25T13:58:44Z</time>
      </trkpt>
      <trkpt lat="44.59577" lon="4.0558">
        <ele>1140.74</ele>
        <time>2013-08-25T13:59:16Z</time>
      </trkpt>
      <trkpt lat="44.59577" lon="4.0558">
        <ele>1140.26</ele>
        <time>2013-08-25T13:59:47Z</time>
      </trkpt>
      <trkpt lat="44.59577" lon="4.0558">
        <ele>1140.26</ele>
        <time>2013-08-25T14:00:12Z</time>
      </trkpt>
      <trkpt lat="44.59577" lon="4.0558">
        <ele>1140.74</ele>
        <time>2013-08-25T14:00:42Z</time>
      </trkpt>
      <trkpt lat="44.59577" lon="4.05581">
        <ele>1139.78</ele>
        <time>2013-08-25T14:01:13Z</time>
      </trkpt>
      <trkpt lat="44.59577" lon="4.05581">
        <ele>1140.26</ele>
        <time>2013-08-25T14:01:36Z</time>
      </trkpt>
      <trkpt lat="44.59578" lon="4.05581">
        <ele>1140.26</ele>
        <time>2013-08-25T14:02:19Z</time>
      </trkpt>
      <trkpt lat="44.59578" lon="4.05581">
        <ele>1140.26</ele>
        <time>2013-08-25T14:03:02Z</time>
      </trkpt>
      <trkpt lat="44.59578" lon="4.05581">
        <ele>1139.78</ele>
        <time>2013-08-25T14:03:47Z</time>
      </trkpt>
      <trkpt lat="44.59577" lon="4.05581">
        <ele>1139.3</ele>
        <time>2013-08-25T14:04:10Z</time>
      </trkpt>
      <trkpt lat="44.59577" lon="4.05581">
        <ele>1138.82</ele>
        <time>2013-08-25T14:04:52Z</time>
      </trkpt>
      <trkpt lat="44.59577" lon="4.05581">
        <ele>1139.3</ele>
        <time>2013-08-25T14:05:10Z</time>
      </trkpt>
      <trkpt lat="44.59577" lon="4.0558">
        <ele>1140.26</ele>
        <time>2013-08-25T14:05:39Z</time>
      </trkpt>
      <trkpt lat="44.59577" lon="4.0558">
        <ele>1140.26</ele>
        <time>2013-08-25T14:06:07Z</time>
      </trkpt>
      <trkpt lat="44.59578" lon="4.05581">
        <ele>1140.26</ele>
        <time>2013-08-25T14:06:24Z</time>
      </trkpt>
      <trkpt lat="44.59578" lon="4.05581">
        <ele>1140.26</ele>
        <time>2013-08-25T14:06:51Z</time>
      </trkpt>
      <trkpt lat="44.59578" lon="4.05582">
        <ele>1141.22</ele>
        <time>2013-08-25T14:07:33Z</time>
      </trkpt>
      <trkpt lat="44.59578" lon="4.05582">
        <ele>1141.22</ele>
        <time>2013-08-25T14:08:07Z</time>
      </trkpt>
      <trkpt lat="44.59578" lon="4.05582">
        <ele>1141.7</ele>
        <time>2013-08-25T14:08:40Z</time>
      </trkpt>
      <trkpt lat="44.59578" lon="4.05581">
        <ele>1141.7</ele>
        <time>2013-08-25T14:08:59Z</time>
      </trkpt>
      <trkpt lat="44.59578" lon="4.05582">
        <ele>1140.74</ele>
        <time>2013-08-25T14:09:31Z</time>
      </trkpt>
      <trkpt lat="44.59578" lon="4.05582">
        <ele>1141.22</ele>
        <time>2013-08-25T14:10:06Z</time>
      </trkpt>
      <trkpt lat="44.59578" lon="4.05581">
        <ele>1140.74</ele>
        <time>2013-08-25T14:10:45Z</time>
      </trkpt>
      <trkpt lat="44.59578" lon="4.05582">
        <ele>1141.22</ele>
        <time>2013-08-25T14:11:20Z</time>
      </trkpt>
      <trkpt lat="44.59575" lon="4.05597">
        <ele>1140.74</ele>
        <time>2013-08-25T14:11:39Z</time>
      </trkpt>
      <trkpt lat="44.59563" lon="4.05633">
        <ele>1141.22</ele>
        <time>2013-08-25T14:11:55Z</time>
      </trkpt>
      <trkpt lat="44.59555" lon="4.05662">
        <ele>1144.59</ele>
        <time>2013-08-25T14:12:09Z</time>
      </trkpt>
      <trkpt lat="44.59544" lon="4.05692">
        <ele>1147.95</ele>
        <time>2013-08-25T14:12:24Z</time>
      </trkpt>
      <trkpt lat="44.59538" lon="4.0572">
        <ele>1149.39</ele>
        <time>2013-08-25T14:12:38Z</time>
      </trkpt>
      <trkpt lat="44.5953" lon="4.05747">
        <ele>1151.8</ele>
        <time>2013-08-25T14:12:52Z</time>
      </trkpt>
      <trkpt lat="44.59529" lon="4.05749">
        <ele>1151.8</ele>
        <time>2013-08-25T14:12:53Z</time>
      </trkpt>
      <trkpt lat="44.59528" lon="4.05751">
        <ele>1152.28</ele>
        <time>2013-08-25T14:12:54Z</time>
      </trkpt>
      <trkpt lat="44.59528" lon="4.05753">
        <ele>1152.28</ele>
        <time>2013-08-25T14:12:55Z</time>
      </trkpt>
      <trkpt lat="44.59528" lon="4.05755">
        <ele>1152.28</ele>
        <time>2013-08-25T14:12:56Z</time>
      </trkpt>
      <trkpt lat="44.59527" lon="4.05757">
        <ele>1152.76</ele>
        <time>2013-08-25T14:12:57Z</time>
      </trkpt>
      <trkpt lat="44.59526" lon="4.05759">
        <ele>1152.76</ele>
        <time>2013-08-25T14:12:58Z</time>
      </trkpt>
      <trkpt lat="44.59523" lon="4.05767">
        <ele>1153.24</ele>
        <time>2013-08-25T14:13:03Z</time>
      </trkpt>
      <trkpt lat="44.59522" lon="4.05769">
        <ele>1153.24</ele>
        <time>2013-08-25T14:13:04Z</time>
      </trkpt>
      <trkpt lat="44.59522" lon="4.05771">
        <ele>1153.24</ele>
        <time>2013-08-25T14:13:05Z</time>
      </trkpt>
      <trkpt lat="44.59521" lon="4.05773">
        <ele>1153.72</ele>
        <time>2013-08-25T14:13:06Z</time>
      </trkpt>
      <trkpt lat="44.5952" lon="4.05775">
        <ele>1153.72</ele>
        <time>2013-08-25T14:13:07Z</time>
      </trkpt>
      <trkpt lat="44.5952" lon="4.05777">
        <ele>1154.2</ele>
        <time>2013-08-25T14:13:08Z</time>
      </trkpt>
      <trkpt lat="44.59515" lon="4.05792">
        <ele>1154.68</ele>
        <time>2013-08-25T14:13:16Z</time>
      </trkpt>
      <trkpt lat="44.59507" lon="4.0582">
        <ele>1156.12</ele>
        <time>2013-08-25T14:13:30Z</time>
      </trkpt>
      <trkpt lat="44.59498" lon="4.05848">
        <ele>1159.01</ele>
        <time>2013-08-25T14:13:45Z</time>
      </trkpt>
      <trkpt lat="44.59498" lon="4.05851">
        <ele>1159.01</ele>
        <time>2013-08-25T14:13:46Z</time>
      </trkpt>
      <trkpt lat="44.59496" lon="4.05857">
        <ele>1158.53</ele>
        <time>2013-08-25T14:13:49Z</time>
      </trkpt>
      <trkpt lat="44.59494" lon="4.05859">
        <ele>1158.53</ele>
        <time>2013-08-25T14:13:50Z</time>
      </trkpt>
      <trkpt lat="44.59494" lon="4.05861">
        <ele>1158.53</ele>
        <time>2013-08-25T14:13:51Z</time>
      </trkpt>
      <trkpt lat="44.59494" lon="4.05863">
        <ele>1158.53</ele>
        <time>2013-08-25T14:13:52Z</time>
      </trkpt>
      <trkpt lat="44.59493" lon="4.05865">
        <ele>1158.53</ele>
        <time>2013-08-25T14:13:53Z</time>
      </trkpt>
      <trkpt lat="44.59493" lon="4.05868">
        <ele>1158.53</ele>
        <time>2013-08-25T14:13:54Z</time>
      </trkpt>
      <trkpt lat="44.59492" lon="4.0587">
        <ele>1159.01</ele>
        <time>2013-08-25T14:13:55Z</time>
      </trkpt>
      <trkpt lat="44.59491" lon="4.05871">
        <ele>1159.01</ele>
        <time>2013-08-25T14:13:56Z</time>
      </trkpt>
      <trkpt lat="44.59489" lon="4.05873">
        <ele>1159.49</ele>
        <time>2013-08-25T14:13:57Z</time>
      </trkpt>
      <trkpt lat="44.59489" lon="4.05874">
        <ele>1159.01</ele>
        <time>2013-08-25T14:13:58Z</time>
      </trkpt>
      <trkpt lat="44.59488" lon="4.05876">
        <ele>1159.49</ele>
        <time>2013-08-25T14:13:59Z</time>
      </trkpt>
      <trkpt lat="44.59487" lon="4.0588">
        <ele>1159.97</ele>
        <time>2013-08-25T14:14:01Z</time>
      </trkpt>
      <trkpt lat="44.59486" lon="4.05882">
        <ele>1159.97</ele>
        <time>2013-08-25T14:14:02Z</time>
      </trkpt>
      <trkpt lat="44.59485" lon="4.05883">
        <ele>1159.97</ele>
        <time>2013-08-25T14:14:03Z</time>
      </trkpt>
      <trkpt lat="44.59483" lon="4.05885">
        <ele>1159.49</ele>
        <time>2013-08-25T14:14:04Z</time>
      </trkpt>
      <trkpt lat="44.59481" lon="4.05886">
        <ele>1159.97</ele>
        <time>2013-08-25T14:14:05Z</time>
      </trkpt>
      <trkpt lat="44.5948" lon="4.05887">
        <ele>1159.97</ele>
        <time>2013-08-25T14:14:06Z</time>
      </trkpt>
      <trkpt lat="44.59478" lon="4.05887">
        <ele>1159.97</ele>
        <time>2013-08-25T14:14:07Z</time>
      </trkpt>
      <trkpt lat="44.59477" lon="4.05889">
        <ele>1159.97</ele>
        <time>2013-08-25T14:14:08Z</time>
      </trkpt>
      <trkpt lat="44.59476" lon="4.0589">
        <ele>1160.45</ele>
        <time>2013-08-25T14:14:09Z</time>
      </trkpt>
      <trkpt lat="44.59475" lon="4.05891">
        <ele>1160.45</ele>
        <time>2013-08-25T14:14:10Z</time>
      </trkpt>
      <trkpt lat="44.59473" lon="4.05892">
        <ele>1160.93</ele>
        <time>2013-08-25T14:14:11Z</time>
      </trkpt>
      <trkpt lat="44.59472" lon="4.05894">
        <ele>1160.45</ele>
        <time>2013-08-25T14:14:12Z</time>
      </trkpt>
      <trkpt lat="44.59471" lon="4.05895">
        <ele>1160.93</ele>
        <time>2013-08-25T14:14:13Z</time>
      </trkpt>
      <trkpt lat="44.5947" lon="4.05896">
        <ele>1161.41</ele>
        <time>2013-08-25T14:14:14Z</time>
      </trkpt>
      <trkpt lat="44.59469" lon="4.05896">
        <ele>1161.41</ele>
        <time>2013-08-25T14:14:15Z</time>
      </trkpt>
      <trkpt lat="44.59467" lon="4.05897">
        <ele>1161.41</ele>
        <time>2013-08-25T14:14:16Z</time>
      </trkpt>
      <trkpt lat="44.59466" lon="4.05898">
        <ele>1160.93</ele>
        <time>2013-08-25T14:14:17Z</time>
      </trkpt>
      <trkpt lat="44.59464" lon="4.05898">
        <ele>1161.41</ele>
        <time>2013-08-25T14:14:18Z</time>
      </trkpt>
      <trkpt lat="44.59463" lon="4.05899">
        <ele>1161.41</ele>
        <time>2013-08-25T14:14:19Z</time>
      </trkpt>
      <trkpt lat="44.59454" lon="4.05915">
        <ele>1163.33</ele>
        <time>2013-08-25T14:14:30Z</time>
      </trkpt>
      <trkpt lat="44.59453" lon="4.05917">
        <ele>1163.33</ele>
        <time>2013-08-25T14:14:31Z</time>
      </trkpt>
      <trkpt lat="44.59452" lon="4.05918">
        <ele>1163.33</ele>
        <time>2013-08-25T14:14:32Z</time>
      </trkpt>
      <trkpt lat="44.59451" lon="4.05922">
        <ele>1163.81</ele>
        <time>2013-08-25T14:14:34Z</time>
      </trkpt>
      <trkpt lat="44.59451" lon="4.05924">
        <ele>1163.81</ele>
        <time>2013-08-25T14:14:35Z</time>
      </trkpt>
      <trkpt lat="44.59449" lon="4.05926">
        <ele>1164.29</ele>
        <time>2013-08-25T14:14:36Z</time>
      </trkpt>
      <trkpt lat="44.59448" lon="4.05928">
        <ele>1164.77</ele>
        <time>2013-08-25T14:14:37Z</time>
      </trkpt>
      <trkpt lat="44.59448" lon="4.0593">
        <ele>1164.77</ele>
        <time>2013-08-25T14:14:38Z</time>
      </trkpt>
      <trkpt lat="44.59446" lon="4.05932">
        <ele>1165.26</ele>
        <time>2013-08-25T14:14:39Z</time>
      </trkpt>
      <trkpt lat="44.59445" lon="4.05933">
        <ele>1164.77</ele>
        <time>2013-08-25T14:14:40Z</time>
      </trkpt>
      <trkpt lat="44.59443" lon="4.05934">
        <ele>1165.26</ele>
        <time>2013-08-25T14:14:41Z</time>
      </trkpt>
      <trkpt lat="44.59442" lon="4.05936">
        <ele>1165.74</ele>
        <time>2013-08-25T14:14:42Z</time>
      </trkpt>
      <trkpt lat="44.59441" lon="4.05937">
        <ele>1165.26</ele>
        <time>2013-08-25T14:14:43Z</time>
      </trkpt>
      <trkpt lat="44.59424" lon="4.05958">
        <ele>1167.66</ele>
        <time>2013-08-25T14:14:57Z</time>
      </trkpt>
      <trkpt lat="44.59419" lon="4.05966">
        <ele>1168.14</ele>
        <time>2013-08-25T14:15:02Z</time>
      </trkpt>
      <trkpt lat="44.59418" lon="4.05968">
        <ele>1168.62</ele>
        <time>2013-08-25T14:15:03Z</time>
      </trkpt>
      <trkpt lat="44.59417" lon="4.0597">
        <ele>1169.1</ele>
        <time>2013-08-25T14:15:04Z</time>
      </trkpt>
      <trkpt lat="44.59416" lon="4.05972">
        <ele>1168.62</ele>
        <time>2013-08-25T14:15:05Z</time>
      </trkpt>
      <trkpt lat="44.59415" lon="4.05974">
        <ele>1169.1</ele>
        <time>2013-08-25T14:15:06Z</time>
      </trkpt>
      <trkpt lat="44.59414" lon="4.05976">
        <ele>1169.1</ele>
        <time>2013-08-25T14:15:07Z</time>
      </trkpt>
      <trkpt lat="44.59413" lon="4.05977">
        <ele>1169.58</ele>
        <time>2013-08-25T14:15:08Z</time>
      </trkpt>
      <trkpt lat="44.59412" lon="4.05979">
        <ele>1169.1</ele>
        <time>2013-08-25T14:15:09Z</time>
      </trkpt>
      <trkpt lat="44.59411" lon="4.05981">
        <ele>1169.58</ele>
        <time>2013-08-25T14:15:10Z</time>
      </trkpt>
      <trkpt lat="44.5941" lon="4.05982">
        <ele>1169.58</ele>
        <time>2013-08-25T14:15:11Z</time>
      </trkpt>
      <trkpt lat="44.59409" lon="4.05984">
        <ele>1170.06</ele>
        <time>2013-08-25T14:15:12Z</time>
      </trkpt>
      <trkpt lat="44.59409" lon="4.05986">
        <ele>1170.06</ele>
        <time>2013-08-25T14:15:13Z</time>
      </trkpt>
      <trkpt lat="44.59404" lon="4.06001">
        <ele>1171.5</ele>
        <time>2013-08-25T14:15:21Z</time>
      </trkpt>
      <trkpt lat="44.59403" lon="4.06003">
        <ele>1171.5</ele>
        <time>2013-08-25T14:15:22Z</time>
      </trkpt>
      <trkpt lat="44.59402" lon="4.06005">
        <ele>1171.5</ele>
        <time>2013-08-25T14:15:23Z</time>
      </trkpt>
      <trkpt lat="44.59401" lon="4.06006">
        <ele>1171.98</ele>
        <time>2013-08-25T14:15:24Z</time>
      </trkpt>
      <trkpt lat="44.594" lon="4.06008">
        <ele>1171.98</ele>
        <time>2013-08-25T14:15:25Z</time>
      </trkpt>
      <trkpt lat="44.59398" lon="4.06012">
        <ele>1172.47</ele>
        <time>2013-08-25T14:15:27Z</time>
      </trkpt>
      <trkpt lat="44.59397" lon="4.06013">
        <ele>1173.43</ele>
        <time>2013-08-25T14:15:28Z</time>
      </trkpt>
      <trkpt lat="44.59396" lon="4.06015">
        <ele>1172.95</ele>
        <time>2013-08-25T14:15:29Z</time>
      </trkpt>
      <trkpt lat="44.59395" lon="4.06017">
        <ele>1172.95</ele>
        <time>2013-08-25T14:15:30Z</time>
      </trkpt>
      <trkpt lat="44.59394" lon="4.06018">
        <ele>1172.95</ele>
        <time>2013-08-25T14:15:31Z</time>
      </trkpt>
      <trkpt lat="44.59393" lon="4.0602">
        <ele>1173.43</ele>
        <time>2013-08-25T14:15:32Z</time>
      </trkpt>
      <trkpt lat="44.59391" lon="4.06022">
        <ele>1173.43</ele>
        <time>2013-08-25T14:15:33Z</time>
      </trkpt>
      <trkpt lat="44.59391" lon="4.06024">
        <ele>1173.43</ele>
        <time>2013-08-25T14:15:34Z</time>
      </trkpt>
      <trkpt lat="44.5939" lon="4.06025">
        <ele>1173.91</ele>
        <time>2013-08-25T14:15:35Z</time>
      </trkpt>
      <trkpt lat="44.59384" lon="4.06034">
        <ele>1174.87</ele>
        <time>2013-08-25T14:15:42Z</time>
      </trkpt>
      <trkpt lat="44.59383" lon="4.06034">
        <ele>1175.35</ele>
        <time>2013-08-25T14:15:43Z</time>
      </trkpt>
      <trkpt lat="44.59375" lon="4.06037">
        <ele>1175.83</ele>
        <time>2013-08-25T14:15:48Z</time>
      </trkpt>
      <trkpt lat="44.59369" lon="4.06038">
        <ele>1176.31</ele>
        <time>2013-08-25T14:15:52Z</time>
      </trkpt>
      <trkpt lat="44.59366" lon="4.0604">
        <ele>1176.31</ele>
        <time>2013-08-25T14:15:55Z</time>
      </trkpt>
      <trkpt lat="44.59361" lon="4.06046">
        <ele>1177.27</ele>
        <time>2013-08-25T14:16:03Z</time>
      </trkpt>
      <trkpt lat="44.59357" lon="4.06053">
        <ele>1177.27</ele>
        <time>2013-08-25T14:16:07Z</time>
      </trkpt>
      <trkpt lat="44.59352" lon="4.06062">
        <ele>1177.75</ele>
        <time>2013-08-25T14:16:13Z</time>
      </trkpt>
      <trkpt lat="44.59351" lon="4.06064">
        <ele>1177.75</ele>
        <time>2013-08-25T14:16:14Z</time>
      </trkpt>
      <trkpt lat="44.59344" lon="4.06073">
        <ele>1178.23</ele>
        <time>2013-08-25T14:16:20Z</time>
      </trkpt>
      <trkpt lat="44.59342" lon="4.06074">
        <ele>1178.23</ele>
        <time>2013-08-25T14:16:21Z</time>
      </trkpt>
      <trkpt lat="44.59325" lon="4.06089">
        <ele>1179.19</ele>
        <time>2013-08-25T14:16:35Z</time>
      </trkpt>
      <trkpt lat="44.5931" lon="4.06108">
        <ele>1180.16</ele>
        <time>2013-08-25T14:16:47Z</time>
      </trkpt>
      <trkpt lat="44.59308" lon="4.0611">
        <ele>1180.64</ele>
        <time>2013-08-25T14:16:48Z</time>
      </trkpt>
      <trkpt lat="44.59295" lon="4.06125">
        <ele>1181.12</ele>
        <time>2013-08-25T14:16:57Z</time>
      </trkpt>
      <trkpt lat="44.59294" lon="4.06127">
        <ele>1181.6</ele>
        <time>2013-08-25T14:16:58Z</time>
      </trkpt>
      <trkpt lat="44.59293" lon="4.06129">
        <ele>1182.08</ele>
        <time>2013-08-25T14:16:59Z</time>
      </trkpt>
      <trkpt lat="44.59292" lon="4.06131">
        <ele>1182.08</ele>
        <time>2013-08-25T14:17:00Z</time>
      </trkpt>
      <trkpt lat="44.5929" lon="4.06132">
        <ele>1182.08</ele>
        <time>2013-08-25T14:17:01Z</time>
      </trkpt>
      <trkpt lat="44.59289" lon="4.06134">
        <ele>1182.08</ele>
        <time>2013-08-25T14:17:02Z</time>
      </trkpt>
      <trkpt lat="44.59288" lon="4.06136">
        <ele>1182.56</ele>
        <time>2013-08-25T14:17:03Z</time>
      </trkpt>
      <trkpt lat="44.59286" lon="4.06137">
        <ele>1182.56</ele>
        <time>2013-08-25T14:17:04Z</time>
      </trkpt>
      <trkpt lat="44.59285" lon="4.06139">
        <ele>1182.56</ele>
        <time>2013-08-25T14:17:05Z</time>
      </trkpt>
      <trkpt lat="44.59283" lon="4.0614">
        <ele>1183.04</ele>
        <time>2013-08-25T14:17:06Z</time>
      </trkpt>
      <trkpt lat="44.59282" lon="4.06141">
        <ele>1183.04</ele>
        <time>2013-08-25T14:17:07Z</time>
      </trkpt>
      <trkpt lat="44.5928" lon="4.06142">
        <ele>1183.04</ele>
        <time>2013-08-25T14:17:08Z</time>
      </trkpt>
      <trkpt lat="44.59258" lon="4.06152">
        <ele>1185.44</ele>
        <time>2013-08-25T14:17:22Z</time>
      </trkpt>
      <trkpt lat="44.59232" lon="4.06161">
        <ele>1188.33</ele>
        <time>2013-08-25T14:17:39Z</time>
      </trkpt>
      <trkpt lat="44.59214" lon="4.06173">
        <ele>1189.77</ele>
        <time>2013-08-25T14:17:53Z</time>
      </trkpt>
      <trkpt lat="44.59204" lon="4.06177">
        <ele>1191.21</ele>
        <time>2013-08-25T14:18:00Z</time>
      </trkpt>
      <trkpt lat="44.59203" lon="4.06178">
        <ele>1191.21</ele>
        <time>2013-08-25T14:18:01Z</time>
      </trkpt>
      <trkpt lat="44.59201" lon="4.06178">
        <ele>1191.21</ele>
        <time>2013-08-25T14:18:02Z</time>
      </trkpt>
      <trkpt lat="44.592" lon="4.06179">
        <ele>1191.21</ele>
        <time>2013-08-25T14:18:03Z</time>
      </trkpt>
      <trkpt lat="44.59198" lon="4.06179">
        <ele>1191.21</ele>
        <time>2013-08-25T14:18:04Z</time>
      </trkpt>
      <trkpt lat="44.59197" lon="4.0618">
        <ele>1191.69</ele>
        <time>2013-08-25T14:18:05Z</time>
      </trkpt>
      <trkpt lat="44.59196" lon="4.06181">
        <ele>1191.21</ele>
        <time>2013-08-25T14:18:06Z</time>
      </trkpt>
      <trkpt lat="44.59194" lon="4.06182">
        <ele>1191.69</ele>
        <time>2013-08-25T14:18:07Z</time>
      </trkpt>
      <trkpt lat="44.59193" lon="4.06182">
        <ele>1191.69</ele>
        <time>2013-08-25T14:18:08Z</time>
      </trkpt>
      <trkpt lat="44.59192" lon="4.06183">
        <ele>1192.17</ele>
        <time>2013-08-25T14:18:09Z</time>
      </trkpt>
      <trkpt lat="44.5918" lon="4.06188">
        <ele>1192.65</ele>
        <time>2013-08-25T14:18:16Z</time>
      </trkpt>
      <trkpt lat="44.59179" lon="4.06188">
        <ele>1192.65</ele>
        <time>2013-08-25T14:18:17Z</time>
      </trkpt>
      <trkpt lat="44.59177" lon="4.06189">
        <ele>1193.13</ele>
        <time>2013-08-25T14:18:18Z</time>
      </trkpt>
      <trkpt lat="44.59176" lon="4.0619">
        <ele>1193.13</ele>
        <time>2013-08-25T14:18:19Z</time>
      </trkpt>
      <trkpt lat="44.59169" lon="4.06195">
        <ele>1193.61</ele>
        <time>2013-08-25T14:18:24Z</time>
      </trkpt>
      <trkpt lat="44.59167" lon="4.06195">
        <ele>1193.61</ele>
        <time>2013-08-25T14:18:25Z</time>
      </trkpt>
      <trkpt lat="44.59146" lon="4.06208">
        <ele>1195.54</ele>
        <time>2013-08-25T14:18:40Z</time>
      </trkpt>
      <trkpt lat="44.59132" lon="4.06218">
        <ele>1196.98</ele>
        <time>2013-08-25T14:18:53Z</time>
      </trkpt>
      <trkpt lat="44.59119" lon="4.06229">
        <ele>1197.94</ele>
        <time>2013-08-25T14:19:02Z</time>
      </trkpt>
      <trkpt lat="44.59102" lon="4.06243">
        <ele>1199.86</ele>
        <time>2013-08-25T14:19:15Z</time>
      </trkpt>
      <trkpt lat="44.59087" lon="4.06259">
        <ele>1201.79</ele>
        <time>2013-08-25T14:19:27Z</time>
      </trkpt>
      <trkpt lat="44.59086" lon="4.0626">
        <ele>1202.27</ele>
        <time>2013-08-25T14:19:28Z</time>
      </trkpt>
      <trkpt lat="44.59084" lon="4.06262">
        <ele>1201.79</ele>
        <time>2013-08-25T14:19:29Z</time>
      </trkpt>
      <trkpt lat="44.59082" lon="4.06262">
        <ele>1202.27</ele>
        <time>2013-08-25T14:19:30Z</time>
      </trkpt>
      <trkpt lat="44.59081" lon="4.06263">
        <ele>1202.27</ele>
        <time>2013-08-25T14:19:31Z</time>
      </trkpt>
      <trkpt lat="44.59061" lon="4.06277">
        <ele>1204.19</ele>
        <time>2013-08-25T14:19:45Z</time>
      </trkpt>
      <trkpt lat="44.59034" lon="4.06284">
        <ele>1207.07</ele>
        <time>2013-08-25T14:20:01Z</time>
      </trkpt>
      <trkpt lat="44.59015" lon="4.06295">
        <ele>1209.48</ele>
        <time>2013-08-25T14:20:15Z</time>
      </trkpt>
      <trkpt lat="44.59004" lon="4.06317">
        <ele>1211.4</ele>
        <time>2013-08-25T14:20:27Z</time>
      </trkpt>
      <trkpt lat="44.59003" lon="4.06321">
        <ele>1211.88</ele>
        <time>2013-08-25T14:20:29Z</time>
      </trkpt>
      <trkpt lat="44.59004" lon="4.06323">
        <ele>1211.4</ele>
        <time>2013-08-25T14:20:30Z</time>
      </trkpt>
      <trkpt lat="44.59005" lon="4.06327">
        <ele>1211.88</ele>
        <time>2013-08-25T14:20:32Z</time>
      </trkpt>
      <trkpt lat="44.59005" lon="4.06329">
        <ele>1211.4</ele>
        <time>2013-08-25T14:20:33Z</time>
      </trkpt>
      <trkpt lat="44.59005" lon="4.0635">
        <ele>1211.4</ele>
        <time>2013-08-25T14:20:43Z</time>
      </trkpt>
      <trkpt lat="44.59005" lon="4.06358">
        <ele>1211.4</ele>
        <time>2013-08-25T14:20:46Z</time>
      </trkpt>
      <trkpt lat="44.59004" lon="4.06361">
        <ele>1211.4</ele>
        <time>2013-08-25T14:20:47Z</time>
      </trkpt>
      <trkpt lat="44.59004" lon="4.06363">
        <ele>1211.4</ele>
        <time>2013-08-25T14:20:48Z</time>
      </trkpt>
      <trkpt lat="44.59003" lon="4.06366">
        <ele>1211.4</ele>
        <time>2013-08-25T14:20:49Z</time>
      </trkpt>
      <trkpt lat="44.59003" lon="4.06369">
        <ele>1211.4</ele>
        <time>2013-08-25T14:20:50Z</time>
      </trkpt>
      <trkpt lat="44.59003" lon="4.06371">
        <ele>1211.4</ele>
        <time>2013-08-25T14:20:51Z</time>
      </trkpt>
      <trkpt lat="44.59005" lon="4.06398">
        <ele>1211.4</ele>
        <time>2013-08-25T14:21:02Z</time>
      </trkpt>
      <trkpt lat="44.59007" lon="4.06443">
        <ele>1210.92</ele>
        <time>2013-08-25T14:21:15Z</time>
      </trkpt>
      <trkpt lat="44.59008" lon="4.0645">
        <ele>1210.44</ele>
        <time>2013-08-25T14:21:17Z</time>
      </trkpt>
      <trkpt lat="44.59007" lon="4.06453">
        <ele>1210.44</ele>
        <time>2013-08-25T14:21:18Z</time>
      </trkpt>
      <trkpt lat="44.59008" lon="4.06457">
        <ele>1210.44</ele>
        <time>2013-08-25T14:21:19Z</time>
      </trkpt>
      <trkpt lat="44.59008" lon="4.0646">
        <ele>1209.96</ele>
        <time>2013-08-25T14:21:20Z</time>
      </trkpt>
      <trkpt lat="44.59008" lon="4.06463">
        <ele>1210.44</ele>
        <time>2013-08-25T14:21:21Z</time>
      </trkpt>
      <trkpt lat="44.59008" lon="4.06467">
        <ele>1209.96</ele>
        <time>2013-08-25T14:21:22Z</time>
      </trkpt>
      <trkpt lat="44.59003" lon="4.06517">
        <ele>1210.92</ele>
        <time>2013-08-25T14:21:35Z</time>
      </trkpt>
      <trkpt lat="44.58991" lon="4.06564">
        <ele>1210.44</ele>
        <time>2013-08-25T14:21:48Z</time>
      </trkpt>
      <trkpt lat="44.58981" lon="4.06606">
        <ele>1209.48</ele>
        <time>2013-08-25T14:21:59Z</time>
      </trkpt>
      <trkpt lat="44.58978" lon="4.06644">
        <ele>1208.03</ele>
        <time>2013-08-25T14:22:06Z</time>
      </trkpt>
      <trkpt lat="44.58979" lon="4.0665">
        <ele>1207.55</ele>
        <time>2013-08-25T14:22:07Z</time>
      </trkpt>
      <trkpt lat="44.58981" lon="4.06656">
        <ele>1207.07</ele>
        <time>2013-08-25T14:22:08Z</time>
      </trkpt>
      <trkpt lat="44.58982" lon="4.06664">
        <ele>1206.59</ele>
        <time>2013-08-25T14:22:09Z</time>
      </trkpt>
      <trkpt lat="44.58983" lon="4.06671">
        <ele>1206.59</ele>
        <time>2013-08-25T14:22:10Z</time>
      </trkpt>
      <trkpt lat="44.58983" lon="4.06678">
        <ele>1206.59</ele>
        <time>2013-08-25T14:22:11Z</time>
      </trkpt>
      <trkpt lat="44.58984" lon="4.06684">
        <ele>1206.11</ele>
        <time>2013-08-25T14:22:12Z</time>
      </trkpt>
      <trkpt lat="44.58985" lon="4.0669">
        <ele>1205.63</ele>
        <time>2013-08-25T14:22:13Z</time>
      </trkpt>
      <trkpt lat="44.58986" lon="4.06698">
        <ele>1205.15</ele>
        <time>2013-08-25T14:22:14Z</time>
      </trkpt>
      <trkpt lat="44.58997" lon="4.06765">
        <ele>1201.79</ele>
        <time>2013-08-25T14:22:22Z</time>
      </trkpt>
      <trkpt lat="44.59" lon="4.06786">
        <ele>1200.82</ele>
        <time>2013-08-25T14:22:24Z</time>
      </trkpt>
      <trkpt lat="44.59" lon="4.0681">
        <ele>1198.42</ele>
        <time>2013-08-25T14:22:26Z</time>
      </trkpt>
      <trkpt lat="44.58999" lon="4.06823">
        <ele>1197.94</ele>
        <time>2013-08-25T14:22:27Z</time>
      </trkpt>
      <trkpt lat="44.58995" lon="4.06835">
        <ele>1196.98</ele>
        <time>2013-08-25T14:22:28Z</time>
      </trkpt>
      <trkpt lat="44.58979" lon="4.06902">
        <ele>1192.65</ele>
        <time>2013-08-25T14:22:34Z</time>
      </trkpt>
      <trkpt lat="44.5897" lon="4.06935">
        <ele>1191.21</ele>
        <time>2013-08-25T14:22:37Z</time>
      </trkpt>
      <trkpt lat="44.58966" lon="4.06945">
        <ele>1190.73</ele>
        <time>2013-08-25T14:22:38Z</time>
      </trkpt>
      <trkpt lat="44.58949" lon="4.06995">
        <ele>1188.81</ele>
        <time>2013-08-25T14:22:43Z</time>
      </trkpt>
      <trkpt lat="44.58931" lon="4.07031">
        <ele>1186.88</ele>
        <time>2013-08-25T14:22:47Z</time>
      </trkpt>
      <trkpt lat="44.58922" lon="4.0706">
        <ele>1185.44</ele>
        <time>2013-08-25T14:22:50Z</time>
      </trkpt>
      <trkpt lat="44.5892" lon="4.07071">
        <ele>1184</ele>
        <time>2013-08-25T14:22:51Z</time>
      </trkpt>
      <trkpt lat="44.58915" lon="4.0712">
        <ele>1180.64</ele>
        <time>2013-08-25T14:22:55Z</time>
      </trkpt>
      <trkpt lat="44.58911" lon="4.07159">
        <ele>1177.75</ele>
        <time>2013-08-25T14:22:58Z</time>
      </trkpt>
      <trkpt lat="44.58911" lon="4.07201">
        <ele>1174.87</ele>
        <time>2013-08-25T14:23:01Z</time>
      </trkpt>
      <trkpt lat="44.58918" lon="4.07257">
        <ele>1171.5</ele>
        <time>2013-08-25T14:23:05Z</time>
      </trkpt>
      <trkpt lat="44.58923" lon="4.07287">
        <ele>1169.1</ele>
        <time>2013-08-25T14:23:07Z</time>
      </trkpt>
      <trkpt lat="44.58923" lon="4.07301">
        <ele>1168.14</ele>
        <time>2013-08-25T14:23:08Z</time>
      </trkpt>
      <trkpt lat="44.58923" lon="4.07317">
        <ele>1167.18</ele>
        <time>2013-08-25T14:23:09Z</time>
      </trkpt>
      <trkpt lat="44.58922" lon="4.07362">
        <ele>1163.33</ele>
        <time>2013-08-25T14:23:12Z</time>
      </trkpt>
      <trkpt lat="44.58925" lon="4.07419">
        <ele>1160.45</ele>
        <time>2013-08-25T14:23:16Z</time>
      </trkpt>
      <trkpt lat="44.58923" lon="4.07432">
        <ele>1159.97</ele>
        <time>2013-08-25T14:23:17Z</time>
      </trkpt>
      <trkpt lat="44.5892" lon="4.07445">
        <ele>1159.97</ele>
        <time>2013-08-25T14:23:18Z</time>
      </trkpt>
      <trkpt lat="44.58917" lon="4.07457">
        <ele>1159.01</ele>
        <time>2013-08-25T14:23:19Z</time>
      </trkpt>
      <trkpt lat="44.58913" lon="4.07468">
        <ele>1159.49</ele>
        <time>2013-08-25T14:23:20Z</time>
      </trkpt>
      <trkpt lat="44.58908" lon="4.07477">
        <ele>1159.49</ele>
        <time>2013-08-25T14:23:21Z</time>
      </trkpt>
      <trkpt lat="44.58903" lon="4.07486">
        <ele>1159.49</ele>
        <time>2013-08-25T14:23:22Z</time>
      </trkpt>
      <trkpt lat="44.58899" lon="4.07493">
        <ele>1159.97</ele>
        <time>2013-08-25T14:23:23Z</time>
      </trkpt>
      <trkpt lat="44.58894" lon="4.07499">
        <ele>1160.45</ele>
        <time>2013-08-25T14:23:24Z</time>
      </trkpt>
      <trkpt lat="44.5889" lon="4.07504">
        <ele>1160.93</ele>
        <time>2013-08-25T14:23:25Z</time>
      </trkpt>
      <trkpt lat="44.58881" lon="4.07512">
        <ele>1160.45</ele>
        <time>2013-08-25T14:23:27Z</time>
      </trkpt>
      <trkpt lat="44.58876" lon="4.07515">
        <ele>1160.93</ele>
        <time>2013-08-25T14:23:28Z</time>
      </trkpt>
      <trkpt lat="44.58872" lon="4.07519">
        <ele>1160.93</ele>
        <time>2013-08-25T14:23:29Z</time>
      </trkpt>
      <trkpt lat="44.58868" lon="4.07521">
        <ele>1161.41</ele>
        <time>2013-08-25T14:23:30Z</time>
      </trkpt>
      <trkpt lat="44.58865" lon="4.07523">
        <ele>1161.41</ele>
        <time>2013-08-25T14:23:31Z</time>
      </trkpt>
      <trkpt lat="44.58861" lon="4.07524">
        <ele>1161.41</ele>
        <time>2013-08-25T14:23:32Z</time>
      </trkpt>
      <trkpt lat="44.58858" lon="4.07525">
        <ele>1161.89</ele>
        <time>2013-08-25T14:23:33Z</time>
      </trkpt>
      <trkpt lat="44.58855" lon="4.07526">
        <ele>1161.89</ele>
        <time>2013-08-25T14:23:34Z</time>
      </trkpt>
      <trkpt lat="44.5885" lon="4.07529">
        <ele>1162.37</ele>
        <time>2013-08-25T14:23:37Z</time>
      </trkpt>
      <trkpt lat="44.58848" lon="4.0753">
        <ele>1161.89</ele>
        <time>2013-08-25T14:23:38Z</time>
      </trkpt>
      <trkpt lat="44.58846" lon="4.07531">
        <ele>1162.37</ele>
        <time>2013-08-25T14:23:39Z</time>
      </trkpt>
      <trkpt lat="44.58831" lon="4.07539">
        <ele>1162.85</ele>
        <time>2013-08-25T14:23:50Z</time>
      </trkpt>
      <trkpt lat="44.58827" lon="4.0754">
        <ele>1163.81</ele>
        <time>2013-08-25T14:23:53Z</time>
      </trkpt>
      <trkpt lat="44.58804" lon="4.0755">
        <ele>1165.74</ele>
        <time>2013-08-25T14:24:08Z</time>
      </trkpt>
      <trkpt lat="44.58801" lon="4.07553">
        <ele>1165.74</ele>
        <time>2013-08-25T14:24:10Z</time>
      </trkpt>
      <trkpt lat="44.588" lon="4.07554">
        <ele>1166.7</ele>
        <time>2013-08-25T14:24:11Z</time>
      </trkpt>
      <trkpt lat="44.58795" lon="4.07557">
        <ele>1166.7</ele>
        <time>2013-08-25T14:24:15Z</time>
      </trkpt>
      <trkpt lat="44.5879" lon="4.07561">
        <ele>1167.18</ele>
        <time>2013-08-25T14:24:19Z</time>
      </trkpt>
      <trkpt lat="44.58772" lon="4.07571">
        <ele>1169.1</ele>
        <time>2013-08-25T14:24:32Z</time>
      </trkpt>
      <trkpt lat="44.58771" lon="4.07572">
        <ele>1168.62</ele>
        <time>2013-08-25T14:24:33Z</time>
      </trkpt>
      <trkpt lat="44.58769" lon="4.07573">
        <ele>1169.58</ele>
        <time>2013-08-25T14:24:34Z</time>
      </trkpt>
      <trkpt lat="44.58768" lon="4.07574">
        <ele>1170.06</ele>
        <time>2013-08-25T14:24:35Z</time>
      </trkpt>
      <trkpt lat="44.58766" lon="4.07575">
        <ele>1170.06</ele>
        <time>2013-08-25T14:24:36Z</time>
      </trkpt>
      <trkpt lat="44.58765" lon="4.07575">
        <ele>1170.06</ele>
        <time>2013-08-25T14:24:37Z</time>
      </trkpt>
      <trkpt lat="44.58756" lon="4.07582">
        <ele>1171.02</ele>
        <time>2013-08-25T14:24:44Z</time>
      </trkpt>
      <trkpt lat="44.58755" lon="4.07583">
        <ele>1171.02</ele>
        <time>2013-08-25T14:24:45Z</time>
      </trkpt>
      <trkpt lat="44.58751" lon="4.07586">
        <ele>1171.5</ele>
        <time>2013-08-25T14:24:48Z</time>
      </trkpt>
      <trkpt lat="44.58743" lon="4.07593">
        <ele>1172.47</ele>
        <time>2013-08-25T14:24:55Z</time>
      </trkpt>
      <trkpt lat="44.58742" lon="4.07594">
        <ele>1172.47</ele>
        <time>2013-08-25T14:24:56Z</time>
      </trkpt>
      <trkpt lat="44.58741" lon="4.07595">
        <ele>1172.47</ele>
        <time>2013-08-25T14:24:57Z</time>
      </trkpt>
      <trkpt lat="44.5874" lon="4.07597">
        <ele>1172.95</ele>
        <time>2013-08-25T14:24:58Z</time>
      </trkpt>
      <trkpt lat="44.58738" lon="4.07599">
        <ele>1172.47</ele>
        <time>2013-08-25T14:24:59Z</time>
      </trkpt>
      <trkpt lat="44.58738" lon="4.07601">
        <ele>1172.95</ele>
        <time>2013-08-25T14:25:00Z</time>
      </trkpt>
      <trkpt lat="44.58736" lon="4.07602">
        <ele>1173.43</ele>
        <time>2013-08-25T14:25:01Z</time>
      </trkpt>
      <trkpt lat="44.58735" lon="4.07603">
        <ele>1173.43</ele>
        <time>2013-08-25T14:25:02Z</time>
      </trkpt>
      <trkpt lat="44.58734" lon="4.07605">
        <ele>1173.43</ele>
        <time>2013-08-25T14:25:03Z</time>
      </trkpt>
      <trkpt lat="44.58732" lon="4.07607">
        <ele>1173.43</ele>
        <time>2013-08-25T14:25:04Z</time>
      </trkpt>
      <trkpt lat="44.58731" lon="4.07608">
        <ele>1173.91</ele>
        <time>2013-08-25T14:25:05Z</time>
      </trkpt>
      <trkpt lat="44.5873" lon="4.0761">
        <ele>1173.91</ele>
        <time>2013-08-25T14:25:06Z</time>
      </trkpt>
      <trkpt lat="44.58729" lon="4.07611">
        <ele>1173.91</ele>
        <time>2013-08-25T14:25:07Z</time>
      </trkpt>
      <trkpt lat="44.58728" lon="4.07613">
        <ele>1173.91</ele>
        <time>2013-08-25T14:25:08Z</time>
      </trkpt>
      <trkpt lat="44.58719" lon="4.07625">
        <ele>1174.87</ele>
        <time>2013-08-25T14:25:16Z</time>
      </trkpt>
      <trkpt lat="44.58718" lon="4.07627">
        <ele>1174.87</ele>
        <time>2013-08-25T14:25:17Z</time>
      </trkpt>
      <trkpt lat="44.58717" lon="4.07629">
        <ele>1175.35</ele>
        <time>2013-08-25T14:25:18Z</time>
      </trkpt>
      <trkpt lat="44.58716" lon="4.0763">
        <ele>1174.87</ele>
        <time>2013-08-25T14:25:19Z</time>
      </trkpt>
      <trkpt lat="44.58715" lon="4.07632">
        <ele>1175.35</ele>
        <time>2013-08-25T14:25:20Z</time>
      </trkpt>
      <trkpt lat="44.58714" lon="4.07634">
        <ele>1175.83</ele>
        <time>2013-08-25T14:25:21Z</time>
      </trkpt>
      <trkpt lat="44.58713" lon="4.07636">
        <ele>1175.83</ele>
        <time>2013-08-25T14:25:22Z</time>
      </trkpt>
      <trkpt lat="44.58711" lon="4.07638">
        <ele>1175.35</ele>
        <time>2013-08-25T14:25:23Z</time>
      </trkpt>
      <trkpt lat="44.58701" lon="4.07661">
        <ele>1177.27</ele>
        <time>2013-08-25T14:25:35Z</time>
      </trkpt>
      <trkpt lat="44.58695" lon="4.07677">
        <ele>1177.75</ele>
        <time>2013-08-25T14:25:42Z</time>
      </trkpt>
      <trkpt lat="44.58691" lon="4.07691">
        <ele>1178.71</ele>
        <time>2013-08-25T14:25:48Z</time>
      </trkpt>
      <trkpt lat="44.5869" lon="4.07693">
        <ele>1178.23</ele>
        <time>2013-08-25T14:25:49Z</time>
      </trkpt>
      <trkpt lat="44.58689" lon="4.07696">
        <ele>1178.71</ele>
        <time>2013-08-25T14:25:50Z</time>
      </trkpt>
      <trkpt lat="44.58688" lon="4.07698">
        <ele>1178.71</ele>
        <time>2013-08-25T14:25:51Z</time>
      </trkpt>
      <trkpt lat="44.58687" lon="4.077">
        <ele>1178.71</ele>
        <time>2013-08-25T14:25:52Z</time>
      </trkpt>
      <trkpt lat="44.58679" lon="4.07718">
        <ele>1179.19</ele>
        <time>2013-08-25T14:26:00Z</time>
      </trkpt>
      <trkpt lat="44.58678" lon="4.0772">
        <ele>1178.23</ele>
        <time>2013-08-25T14:26:01Z</time>
      </trkpt>
      <trkpt lat="44.58675" lon="4.07725">
        <ele>1179.67</ele>
        <time>2013-08-25T14:26:04Z</time>
      </trkpt>
      <trkpt lat="44.58675" lon="4.07727">
        <ele>1179.67</ele>
        <time>2013-08-25T14:26:05Z</time>
      </trkpt>
      <trkpt lat="44.58674" lon="4.07729">
        <ele>1179.19</ele>
        <time>2013-08-25T14:26:06Z</time>
      </trkpt>
      <trkpt lat="44.58673" lon="4.07731">
        <ele>1179.67</ele>
        <time>2013-08-25T14:26:07Z</time>
      </trkpt>
      <trkpt lat="44.58672" lon="4.07734">
        <ele>1179.67</ele>
        <time>2013-08-25T14:26:08Z</time>
      </trkpt>
      <trkpt lat="44.58671" lon="4.07736">
        <ele>1179.67</ele>
        <time>2013-08-25T14:26:09Z</time>
      </trkpt>
      <trkpt lat="44.5867" lon="4.07738">
        <ele>1179.67</ele>
        <time>2013-08-25T14:26:10Z</time>
      </trkpt>
      <trkpt lat="44.58669" lon="4.0774">
        <ele>1180.16</ele>
        <time>2013-08-25T14:26:11Z</time>
      </trkpt>
      <trkpt lat="44.58665" lon="4.07748">
        <ele>1180.64</ele>
        <time>2013-08-25T14:26:15Z</time>
      </trkpt>
      <trkpt lat="44.58664" lon="4.0775">
        <ele>1181.12</ele>
        <time>2013-08-25T14:26:16Z</time>
      </trkpt>
      <trkpt lat="44.58663" lon="4.07752">
        <ele>1181.6</ele>
        <time>2013-08-25T14:26:17Z</time>
      </trkpt>
      <trkpt lat="44.58654" lon="4.07776">
        <ele>1183.04</ele>
        <time>2013-08-25T14:26:27Z</time>
      </trkpt>
      <trkpt lat="44.58653" lon="4.07778">
        <ele>1182.56</ele>
        <time>2013-08-25T14:26:28Z</time>
      </trkpt>
      <trkpt lat="44.58651" lon="4.0778">
        <ele>1182.56</ele>
        <time>2013-08-25T14:26:29Z</time>
      </trkpt>
      <trkpt lat="44.5865" lon="4.07782">
        <ele>1182.56</ele>
        <time>2013-08-25T14:26:30Z</time>
      </trkpt>
      <trkpt lat="44.58649" lon="4.07784">
        <ele>1183.04</ele>
        <time>2013-08-25T14:26:31Z</time>
      </trkpt>
      <trkpt lat="44.58648" lon="4.07787">
        <ele>1183.04</ele>
        <time>2013-08-25T14:26:32Z</time>
      </trkpt>
      <trkpt lat="44.58646" lon="4.07789">
        <ele>1183.52</ele>
        <time>2013-08-25T14:26:33Z</time>
      </trkpt>
      <trkpt lat="44.58645" lon="4.07791">
        <ele>1183.52</ele>
        <time>2013-08-25T14:26:34Z</time>
      </trkpt>
      <trkpt lat="44.58644" lon="4.07793">
        <ele>1183.52</ele>
        <time>2013-08-25T14:26:35Z</time>
      </trkpt>
      <trkpt lat="44.58643" lon="4.07796">
        <ele>1183.52</ele>
        <time>2013-08-25T14:26:36Z</time>
      </trkpt>
      <trkpt lat="44.58637" lon="4.07812">
        <ele>1184</ele>
        <time>2013-08-25T14:26:43Z</time>
      </trkpt>
      <trkpt lat="44.58636" lon="4.07815">
        <ele>1184</ele>
        <time>2013-08-25T14:26:44Z</time>
      </trkpt>
      <trkpt lat="44.58635" lon="4.07817">
        <ele>1184.48</ele>
        <time>2013-08-25T14:26:45Z</time>
      </trkpt>
      <trkpt lat="44.58633" lon="4.07822">
        <ele>1184.48</ele>
        <time>2013-08-25T14:26:47Z</time>
      </trkpt>
      <trkpt lat="44.58632" lon="4.07825">
        <ele>1184</ele>
        <time>2013-08-25T14:26:48Z</time>
      </trkpt>
      <trkpt lat="44.58632" lon="4.07827">
        <ele>1184.96</ele>
        <time>2013-08-25T14:26:49Z</time>
      </trkpt>
      <trkpt lat="44.5863" lon="4.0783">
        <ele>1184.96</ele>
        <time>2013-08-25T14:26:50Z</time>
      </trkpt>
      <trkpt lat="44.5863" lon="4.07832">
        <ele>1185.44</ele>
        <time>2013-08-25T14:26:51Z</time>
      </trkpt>
      <trkpt lat="44.5863" lon="4.07835">
        <ele>1185.44</ele>
        <time>2013-08-25T14:26:52Z</time>
      </trkpt>
      <trkpt lat="44.58629" lon="4.07837">
        <ele>1184.96</ele>
        <time>2013-08-25T14:26:53Z</time>
      </trkpt>
      <trkpt lat="44.58628" lon="4.07839">
        <ele>1184.96</ele>
        <time>2013-08-25T14:26:54Z</time>
      </trkpt>
      <trkpt lat="44.58627" lon="4.07841">
        <ele>1185.44</ele>
        <time>2013-08-25T14:26:55Z</time>
      </trkpt>
      <trkpt lat="44.58626" lon="4.07844">
        <ele>1185.44</ele>
        <time>2013-08-25T14:26:56Z</time>
      </trkpt>
      <trkpt lat="44.58625" lon="4.07846">
        <ele>1185.44</ele>
        <time>2013-08-25T14:26:57Z</time>
      </trkpt>
      <trkpt lat="44.58625" lon="4.07849">
        <ele>1185.92</ele>
        <time>2013-08-25T14:26:58Z</time>
      </trkpt>
      <trkpt lat="44.58616" lon="4.07884">
        <ele>1186.4</ele>
        <time>2013-08-25T14:27:12Z</time>
      </trkpt>
      <trkpt lat="44.58601" lon="4.07922">
        <ele>1187.37</ele>
        <time>2013-08-25T14:27:24Z</time>
      </trkpt>
      <trkpt lat="44.58587" lon="4.0796">
        <ele>1187.85</ele>
        <time>2013-08-25T14:27:35Z</time>
      </trkpt>
      <trkpt lat="44.58569" lon="4.07999">
        <ele>1186.88</ele>
        <time>2013-08-25T14:27:46Z</time>
      </trkpt>
      <trkpt lat="44.5855" lon="4.08052">
        <ele>1186.88</ele>
        <time>2013-08-25T14:27:59Z</time>
      </trkpt>
      <trkpt lat="44.58519" lon="4.08106">
        <ele>1186.88</ele>
        <time>2013-08-25T14:28:13Z</time>
      </trkpt>
      <trkpt lat="44.58497" lon="4.08153">
        <ele>1187.85</ele>
        <time>2013-08-25T14:28:26Z</time>
      </trkpt>
      <trkpt lat="44.58477" lon="4.08198">
        <ele>1189.29</ele>
        <time>2013-08-25T14:28:40Z</time>
      </trkpt>
      <trkpt lat="44.58464" lon="4.08251">
        <ele>1191.21</ele>
        <time>2013-08-25T14:28:54Z</time>
      </trkpt>
      <trkpt lat="44.58455" lon="4.08294">
        <ele>1188.33</ele>
        <time>2013-08-25T14:29:05Z</time>
      </trkpt>
      <trkpt lat="44.58454" lon="4.08298">
        <ele>1191.21</ele>
        <time>2013-08-25T14:29:06Z</time>
      </trkpt>
      <trkpt lat="44.58453" lon="4.08307">
        <ele>1191.21</ele>
        <time>2013-08-25T14:29:08Z</time>
      </trkpt>
      <trkpt lat="44.58453" lon="4.08312">
        <ele>1190.73</ele>
        <time>2013-08-25T14:29:09Z</time>
      </trkpt>
      <trkpt lat="44.58453" lon="4.08316">
        <ele>1190.73</ele>
        <time>2013-08-25T14:29:10Z</time>
      </trkpt>
      <trkpt lat="44.58452" lon="4.08321">
        <ele>1190.73</ele>
        <time>2013-08-25T14:29:11Z</time>
      </trkpt>
      <trkpt lat="44.5845" lon="4.08325">
        <ele>1190.73</ele>
        <time>2013-08-25T14:29:12Z</time>
      </trkpt>
      <trkpt lat="44.58449" lon="4.08329">
        <ele>1190.73</ele>
        <time>2013-08-25T14:29:13Z</time>
      </trkpt>
      <trkpt lat="44.5844" lon="4.08384">
        <ele>1189.29</ele>
        <time>2013-08-25T14:29:24Z</time>
      </trkpt>
      <trkpt lat="44.5843" lon="4.08445">
        <ele>1188.81</ele>
        <time>2013-08-25T14:29:36Z</time>
      </trkpt>
      <trkpt lat="44.58421" lon="4.08497">
        <ele>1189.29</ele>
        <time>2013-08-25T14:29:47Z</time>
      </trkpt>
      <trkpt lat="44.58411" lon="4.08541">
        <ele>1190.73</ele>
        <time>2013-08-25T14:29:57Z</time>
      </trkpt>
      <trkpt lat="44.58397" lon="4.08599">
        <ele>1192.65</ele>
        <time>2013-08-25T14:30:12Z</time>
      </trkpt>
      <trkpt lat="44.58378" lon="4.08639">
        <ele>1193.13</ele>
        <time>2013-08-25T14:30:23Z</time>
      </trkpt>
      <trkpt lat="44.58367" lon="4.08652">
        <ele>1192.17</ele>
        <time>2013-08-25T14:30:28Z</time>
      </trkpt>
      <trkpt lat="44.58366" lon="4.08655">
        <ele>1192.17</ele>
        <time>2013-08-25T14:30:29Z</time>
      </trkpt>
      <trkpt lat="44.58365" lon="4.08657">
        <ele>1192.17</ele>
        <time>2013-08-25T14:30:30Z</time>
      </trkpt>
      <trkpt lat="44.58364" lon="4.0866">
        <ele>1192.17</ele>
        <time>2013-08-25T14:30:31Z</time>
      </trkpt>
      <trkpt lat="44.58363" lon="4.08662">
        <ele>1191.69</ele>
        <time>2013-08-25T14:30:32Z</time>
      </trkpt>
      <trkpt lat="44.58362" lon="4.08665">
        <ele>1191.21</ele>
        <time>2013-08-25T14:30:33Z</time>
      </trkpt>
      <trkpt lat="44.58355" lon="4.08681">
        <ele>1191.21</ele>
        <time>2013-08-25T14:30:41Z</time>
      </trkpt>
      <trkpt lat="44.5835" lon="4.08697">
        <ele>1189.29</ele>
        <time>2013-08-25T14:30:44Z</time>
      </trkpt>
      <trkpt lat="44.58339" lon="4.08734">
        <ele>1186.4</ele>
        <time>2013-08-25T14:30:49Z</time>
      </trkpt>
      <trkpt lat="44.58337" lon="4.08742">
        <ele>1185.44</ele>
        <time>2013-08-25T14:30:50Z</time>
      </trkpt>
      <trkpt lat="44.58333" lon="4.08764">
        <ele>1184</ele>
        <time>2013-08-25T14:30:53Z</time>
      </trkpt>
      <trkpt lat="44.58332" lon="4.08771">
        <ele>1183.04</ele>
        <time>2013-08-25T14:30:54Z</time>
      </trkpt>
      <trkpt lat="44.58333" lon="4.08779">
        <ele>1182.56</ele>
        <time>2013-08-25T14:30:55Z</time>
      </trkpt>
      <trkpt lat="44.58336" lon="4.08787">
        <ele>1181.6</ele>
        <time>2013-08-25T14:30:56Z</time>
      </trkpt>
      <trkpt lat="44.58338" lon="4.08795">
        <ele>1180.64</ele>
        <time>2013-08-25T14:30:57Z</time>
      </trkpt>
      <trkpt lat="44.58341" lon="4.08804">
        <ele>1179.67</ele>
        <time>2013-08-25T14:30:58Z</time>
      </trkpt>
      <trkpt lat="44.5835" lon="4.08835">
        <ele>1176.31</ele>
        <time>2013-08-25T14:31:01Z</time>
      </trkpt>
      <trkpt lat="44.58356" lon="4.08854">
        <ele>1173.91</ele>
        <time>2013-08-25T14:31:03Z</time>
      </trkpt>
      <trkpt lat="44.58359" lon="4.08863">
        <ele>1173.43</ele>
        <time>2013-08-25T14:31:04Z</time>
      </trkpt>
      <trkpt lat="44.5836" lon="4.08872">
        <ele>1172.47</ele>
        <time>2013-08-25T14:31:05Z</time>
      </trkpt>
      <trkpt lat="44.58359" lon="4.08881">
        <ele>1171.02</ele>
        <time>2013-08-25T14:31:06Z</time>
      </trkpt>
      <trkpt lat="44.58357" lon="4.08888">
        <ele>1170.06</ele>
        <time>2013-08-25T14:31:07Z</time>
      </trkpt>
      <trkpt lat="44.58352" lon="4.08893">
        <ele>1168.62</ele>
        <time>2013-08-25T14:31:08Z</time>
      </trkpt>
      <trkpt lat="44.58345" lon="4.08895">
        <ele>1167.66</ele>
        <time>2013-08-25T14:31:09Z</time>
      </trkpt>
      <trkpt lat="44.58338" lon="4.08896">
        <ele>1167.66</ele>
        <time>2013-08-25T14:31:10Z</time>
      </trkpt>
      <trkpt lat="44.5833" lon="4.08896">
        <ele>1166.22</ele>
        <time>2013-08-25T14:31:11Z</time>
      </trkpt>
      <trkpt lat="44.58322" lon="4.08895">
        <ele>1165.26</ele>
        <time>2013-08-25T14:31:12Z</time>
      </trkpt>
      <trkpt lat="44.58306" lon="4.0889">
        <ele>1162.85</ele>
        <time>2013-08-25T14:31:14Z</time>
      </trkpt>
      <trkpt lat="44.583" lon="4.08886">
        <ele>1162.37</ele>
        <time>2013-08-25T14:31:15Z</time>
      </trkpt>
      <trkpt lat="44.58294" lon="4.08881">
        <ele>1161.41</ele>
        <time>2013-08-25T14:31:16Z</time>
      </trkpt>
      <trkpt lat="44.58288" lon="4.08875">
        <ele>1160.93</ele>
        <time>2013-08-25T14:31:17Z</time>
      </trkpt>
      <trkpt lat="44.58283" lon="4.0887">
        <ele>1159.49</ele>
        <time>2013-08-25T14:31:18Z</time>
      </trkpt>
      <trkpt lat="44.58279" lon="4.08863">
        <ele>1159.49</ele>
        <time>2013-08-25T14:31:19Z</time>
      </trkpt>
      <trkpt lat="44.58276" lon="4.08858">
        <ele>1159.01</ele>
        <time>2013-08-25T14:31:20Z</time>
      </trkpt>
      <trkpt lat="44.58272" lon="4.08854">
        <ele>1159.01</ele>
        <time>2013-08-25T14:31:21Z</time>
      </trkpt>
      <trkpt lat="44.58269" lon="4.08854">
        <ele>1159.01</ele>
        <time>2013-08-25T14:31:22Z</time>
      </trkpt>
      <trkpt lat="44.58266" lon="4.08857">
        <ele>1158.53</ele>
        <time>2013-08-25T14:31:23Z</time>
      </trkpt>
      <trkpt lat="44.58265" lon="4.08863">
        <ele>1157.56</ele>
        <time>2013-08-25T14:31:24Z</time>
      </trkpt>
      <trkpt lat="44.58265" lon="4.08869">
        <ele>1156.6</ele>
        <time>2013-08-25T14:31:25Z</time>
      </trkpt>
      <trkpt lat="44.58266" lon="4.08877">
        <ele>1155.64</ele>
        <time>2013-08-25T14:31:26Z</time>
      </trkpt>
      <trkpt lat="44.58268" lon="4.08884">
        <ele>1154.68</ele>
        <time>2013-08-25T14:31:27Z</time>
      </trkpt>
      <trkpt lat="44.58269" lon="4.08892">
        <ele>1153.72</ele>
        <time>2013-08-25T14:31:28Z</time>
      </trkpt>
      <trkpt lat="44.5827" lon="4.089">
        <ele>1152.76</ele>
        <time>2013-08-25T14:31:29Z</time>
      </trkpt>
      <trkpt lat="44.58271" lon="4.08908">
        <ele>1152.28</ele>
        <time>2013-08-25T14:31:30Z</time>
      </trkpt>
      <trkpt lat="44.58274" lon="4.08916">
        <ele>1151.8</ele>
        <time>2013-08-25T14:31:31Z</time>
      </trkpt>
      <trkpt lat="44.58286" lon="4.08946">
        <ele>1147.47</ele>
        <time>2013-08-25T14:31:35Z</time>
      </trkpt>
      <trkpt lat="44.58297" lon="4.08971">
        <ele>1144.59</ele>
        <time>2013-08-25T14:31:38Z</time>
      </trkpt>
      <trkpt lat="44.58308" lon="4.09003">
        <ele>1140.74</ele>
        <time>2013-08-25T14:31:42Z</time>
      </trkpt>
      <trkpt lat="44.58311" lon="4.09009">
        <ele>1140.74</ele>
        <time>2013-08-25T14:31:43Z</time>
      </trkpt>
      <trkpt lat="44.58314" lon="4.09015">
        <ele>1139.78</ele>
        <time>2013-08-25T14:31:44Z</time>
      </trkpt>
      <trkpt lat="44.58317" lon="4.09019">
        <ele>1139.3</ele>
        <time>2013-08-25T14:31:45Z</time>
      </trkpt>
      <trkpt lat="44.58321" lon="4.09023">
        <ele>1138.82</ele>
        <time>2013-08-25T14:31:46Z</time>
      </trkpt>
      <trkpt lat="44.58325" lon="4.09025">
        <ele>1138.34</ele>
        <time>2013-08-25T14:31:47Z</time>
      </trkpt>
      <trkpt lat="44.58329" lon="4.09025">
        <ele>1138.34</ele>
        <time>2013-08-25T14:31:48Z</time>
      </trkpt>
      <trkpt lat="44.58334" lon="4.09024">
        <ele>1137.86</ele>
        <time>2013-08-25T14:31:49Z</time>
      </trkpt>
      <trkpt lat="44.58338" lon="4.09023">
        <ele>1137.38</ele>
        <time>2013-08-25T14:31:50Z</time>
      </trkpt>
      <trkpt lat="44.58342" lon="4.0902">
        <ele>1136.9</ele>
        <time>2013-08-25T14:31:51Z</time>
      </trkpt>
      <trkpt lat="44.58346" lon="4.09016">
        <ele>1136.42</ele>
        <time>2013-08-25T14:31:52Z</time>
      </trkpt>
      <trkpt lat="44.5835" lon="4.09013">
        <ele>1135.94</ele>
        <time>2013-08-25T14:31:53Z</time>
      </trkpt>
      <trkpt lat="44.58355" lon="4.09009">
        <ele>1135.45</ele>
        <time>2013-08-25T14:31:54Z</time>
      </trkpt>
      <trkpt lat="44.58364" lon="4.09002">
        <ele>1133.53</ele>
        <time>2013-08-25T14:31:56Z</time>
      </trkpt>
      <trkpt lat="44.58368" lon="4.08997">
        <ele>1133.05</ele>
        <time>2013-08-25T14:31:57Z</time>
      </trkpt>
      <trkpt lat="44.58377" lon="4.08989">
        <ele>1132.09</ele>
        <time>2013-08-25T14:31:59Z</time>
      </trkpt>
      <trkpt lat="44.58382" lon="4.08987">
        <ele>1131.13</ele>
        <time>2013-08-25T14:32:00Z</time>
      </trkpt>
      <trkpt lat="44.58387" lon="4.08986">
        <ele>1131.61</ele>
        <time>2013-08-25T14:32:01Z</time>
      </trkpt>
      <trkpt lat="44.58392" lon="4.08988">
        <ele>1130.65</ele>
        <time>2013-08-25T14:32:02Z</time>
      </trkpt>
      <trkpt lat="44.58396" lon="4.08991">
        <ele>1130.17</ele>
        <time>2013-08-25T14:32:03Z</time>
      </trkpt>
      <trkpt lat="44.58401" lon="4.08994">
        <ele>1129.69</ele>
        <time>2013-08-25T14:32:04Z</time>
      </trkpt>
      <trkpt lat="44.58406" lon="4.08995">
        <ele>1128.73</ele>
        <time>2013-08-25T14:32:05Z</time>
      </trkpt>
      <trkpt lat="44.5841" lon="4.08995">
        <ele>1128.24</ele>
        <time>2013-08-25T14:32:06Z</time>
      </trkpt>
      <trkpt lat="44.58431" lon="4.08993">
        <ele>1125.36</ele>
        <time>2013-08-25T14:32:10Z</time>
      </trkpt>
      <trkpt lat="44.58442" lon="4.08992">
        <ele>1123.44</ele>
        <time>2013-08-25T14:32:12Z</time>
      </trkpt>
      <trkpt lat="44.58452" lon="4.08991">
        <ele>1122</ele>
        <time>2013-08-25T14:32:14Z</time>
      </trkpt>
      <trkpt lat="44.58458" lon="4.0899">
        <ele>1121.52</ele>
        <time>2013-08-25T14:32:15Z</time>
      </trkpt>
      <trkpt lat="44.58463" lon="4.08989">
        <ele>1120.55</ele>
        <time>2013-08-25T14:32:16Z</time>
      </trkpt>
      <trkpt lat="44.58468" lon="4.08987">
        <ele>1119.59</ele>
        <time>2013-08-25T14:32:17Z</time>
      </trkpt>
      <trkpt lat="44.58473" lon="4.08986">
        <ele>1119.11</ele>
        <time>2013-08-25T14:32:18Z</time>
      </trkpt>
      <trkpt lat="44.58483" lon="4.08984">
        <ele>1118.15</ele>
        <time>2013-08-25T14:32:20Z</time>
      </trkpt>
      <trkpt lat="44.58511" lon="4.08981">
        <ele>1113.82</ele>
        <time>2013-08-25T14:32:25Z</time>
      </trkpt>
      <trkpt lat="44.58529" lon="4.08984">
        <ele>1109.5</ele>
        <time>2013-08-25T14:32:28Z</time>
      </trkpt>
      <trkpt lat="44.58553" lon="4.08991">
        <ele>1106.13</ele>
        <time>2013-08-25T14:32:32Z</time>
      </trkpt>
      <trkpt lat="44.58571" lon="4.08994">
        <ele>1104.21</ele>
        <time>2013-08-25T14:32:35Z</time>
      </trkpt>
      <trkpt lat="44.58577" lon="4.08995">
        <ele>1102.77</ele>
        <time>2013-08-25T14:32:36Z</time>
      </trkpt>
      <trkpt lat="44.58583" lon="4.08995">
        <ele>1101.81</ele>
        <time>2013-08-25T14:32:37Z</time>
      </trkpt>
      <trkpt lat="44.58595" lon="4.08996">
        <ele>1101.81</ele>
        <time>2013-08-25T14:32:39Z</time>
      </trkpt>
      <trkpt lat="44.586" lon="4.08997">
        <ele>1100.37</ele>
        <time>2013-08-25T14:32:40Z</time>
      </trkpt>
      <trkpt lat="44.58606" lon="4.08997">
        <ele>1100.85</ele>
        <time>2013-08-25T14:32:41Z</time>
      </trkpt>
      <trkpt lat="44.58611" lon="4.08999">
        <ele>1099.89</ele>
        <time>2013-08-25T14:32:42Z</time>
      </trkpt>
      <trkpt lat="44.58616" lon="4.09003">
        <ele>1099.89</ele>
        <time>2013-08-25T14:32:43Z</time>
      </trkpt>
      <trkpt lat="44.58617" lon="4.09008">
        <ele>1099.89</ele>
        <time>2013-08-25T14:32:44Z</time>
      </trkpt>
      <trkpt lat="44.58617" lon="4.09013">
        <ele>1099.89</ele>
        <time>2013-08-25T14:32:45Z</time>
      </trkpt>
      <trkpt lat="44.58617" lon="4.09017">
        <ele>1100.37</ele>
        <time>2013-08-25T14:32:46Z</time>
      </trkpt>
      <trkpt lat="44.58616" lon="4.09019">
        <ele>1100.37</ele>
        <time>2013-08-25T14:32:47Z</time>
      </trkpt>
      <trkpt lat="44.58617" lon="4.09022">
        <ele>1100.37</ele>
        <time>2013-08-25T14:32:48Z</time>
      </trkpt>
      <trkpt lat="44.58617" lon="4.09026">
        <ele>1099.89</ele>
        <time>2013-08-25T14:32:49Z</time>
      </trkpt>
      <trkpt lat="44.58616" lon="4.0903">
        <ele>1099.89</ele>
        <time>2013-08-25T14:32:50Z</time>
      </trkpt>
      <trkpt lat="44.58616" lon="4.09034">
        <ele>1099.89</ele>
        <time>2013-08-25T14:32:51Z</time>
      </trkpt>
      <trkpt lat="44.58612" lon="4.09047">
        <ele>1099.4</ele>
        <time>2013-08-25T14:32:54Z</time>
      </trkpt>
      <trkpt lat="44.58611" lon="4.09052">
        <ele>1099.4</ele>
        <time>2013-08-25T14:32:55Z</time>
      </trkpt>
      <trkpt lat="44.58609" lon="4.09057">
        <ele>1098.92</ele>
        <time>2013-08-25T14:32:56Z</time>
      </trkpt>
      <trkpt lat="44.58606" lon="4.09067">
        <ele>1097.96</ele>
        <time>2013-08-25T14:32:58Z</time>
      </trkpt>
      <trkpt lat="44.58599" lon="4.09095">
        <ele>1094.6</ele>
        <time>2013-08-25T14:33:02Z</time>
      </trkpt>
      <trkpt lat="44.58597" lon="4.09102">
        <ele>1094.12</ele>
        <time>2013-08-25T14:33:03Z</time>
      </trkpt>
      <trkpt lat="44.5859" lon="4.09123">
        <ele>1090.75</ele>
        <time>2013-08-25T14:33:06Z</time>
      </trkpt>
      <trkpt lat="44.58584" lon="4.09147">
        <ele>1087.87</ele>
        <time>2013-08-25T14:33:09Z</time>
      </trkpt>
      <trkpt lat="44.58582" lon="4.09155">
        <ele>1087.39</ele>
        <time>2013-08-25T14:33:10Z</time>
      </trkpt>
      <trkpt lat="44.5858" lon="4.09163">
        <ele>1086.91</ele>
        <time>2013-08-25T14:33:11Z</time>
      </trkpt>
      <trkpt lat="44.58579" lon="4.09171">
        <ele>1085.95</ele>
        <time>2013-08-25T14:33:12Z</time>
      </trkpt>
      <trkpt lat="44.58577" lon="4.09179">
        <ele>1085.47</ele>
        <time>2013-08-25T14:33:13Z</time>
      </trkpt>
      <trkpt lat="44.58575" lon="4.09187">
        <ele>1084.99</ele>
        <time>2013-08-25T14:33:14Z</time>
      </trkpt>
      <trkpt lat="44.58574" lon="4.09195">
        <ele>1084.02</ele>
        <time>2013-08-25T14:33:15Z</time>
      </trkpt>
      <trkpt lat="44.58574" lon="4.09204">
        <ele>1084.02</ele>
        <time>2013-08-25T14:33:16Z</time>
      </trkpt>
      <trkpt lat="44.58571" lon="4.09222">
        <ele>1082.1</ele>
        <time>2013-08-25T14:33:18Z</time>
      </trkpt>
      <trkpt lat="44.58569" lon="4.0923">
        <ele>1082.58</ele>
        <time>2013-08-25T14:33:19Z</time>
      </trkpt>
      <trkpt lat="44.5856" lon="4.09261">
        <ele>1081.62</ele>
        <time>2013-08-25T14:33:23Z</time>
      </trkpt>
      <trkpt lat="44.58558" lon="4.09273">
        <ele>1082.1</ele>
        <time>2013-08-25T14:33:25Z</time>
      </trkpt>
      <trkpt lat="44.58558" lon="4.0928">
        <ele>1081.62</ele>
        <time>2013-08-25T14:33:26Z</time>
      </trkpt>
      <trkpt lat="44.58558" lon="4.09295">
        <ele>1080.66</ele>
        <time>2013-08-25T14:33:28Z</time>
      </trkpt>
      <trkpt lat="44.58559" lon="4.09311">
        <ele>1079.22</ele>
        <time>2013-08-25T14:33:30Z</time>
      </trkpt>
      <trkpt lat="44.58558" lon="4.09319">
        <ele>1078.74</ele>
        <time>2013-08-25T14:33:31Z</time>
      </trkpt>
      <trkpt lat="44.58556" lon="4.09325">
        <ele>1077.78</ele>
        <time>2013-08-25T14:33:32Z</time>
      </trkpt>
      <trkpt lat="44.58552" lon="4.09332">
        <ele>1077.29</ele>
        <time>2013-08-25T14:33:33Z</time>
      </trkpt>
      <trkpt lat="44.58548" lon="4.09338">
        <ele>1076.81</ele>
        <time>2013-08-25T14:33:34Z</time>
      </trkpt>
      <trkpt lat="44.58543" lon="4.09344">
        <ele>1076.33</ele>
        <time>2013-08-25T14:33:35Z</time>
      </trkpt>
      <trkpt lat="44.58534" lon="4.09355">
        <ele>1075.37</ele>
        <time>2013-08-25T14:33:37Z</time>
      </trkpt>
      <trkpt lat="44.58529" lon="4.09361">
        <ele>1074.89</ele>
        <time>2013-08-25T14:33:38Z</time>
      </trkpt>
      <trkpt lat="44.58526" lon="4.09368">
        <ele>1074.41</ele>
        <time>2013-08-25T14:33:39Z</time>
      </trkpt>
      <trkpt lat="44.58524" lon="4.09375">
        <ele>1074.41</ele>
        <time>2013-08-25T14:33:40Z</time>
      </trkpt>
      <trkpt lat="44.58523" lon="4.09382">
        <ele>1074.89</ele>
        <time>2013-08-25T14:33:41Z</time>
      </trkpt>
      <trkpt lat="44.58522" lon="4.09389">
        <ele>1074.89</ele>
        <time>2013-08-25T14:33:42Z</time>
      </trkpt>
      <trkpt lat="44.58522" lon="4.09396">
        <ele>1075.37</ele>
        <time>2013-08-25T14:33:43Z</time>
      </trkpt>
      <trkpt lat="44.58519" lon="4.09408">
        <ele>1074.89</ele>
        <time>2013-08-25T14:33:45Z</time>
      </trkpt>
      <trkpt lat="44.58509" lon="4.09441">
        <ele>1075.85</ele>
        <time>2013-08-25T14:33:51Z</time>
      </trkpt>
      <trkpt lat="44.58507" lon="4.09446">
        <ele>1075.85</ele>
        <time>2013-08-25T14:33:52Z</time>
      </trkpt>
      <trkpt lat="44.58505" lon="4.09452">
        <ele>1075.85</ele>
        <time>2013-08-25T14:33:53Z</time>
      </trkpt>
      <trkpt lat="44.58504" lon="4.09457">
        <ele>1075.85</ele>
        <time>2013-08-25T14:33:54Z</time>
      </trkpt>
      <trkpt lat="44.58502" lon="4.09462">
        <ele>1075.85</ele>
        <time>2013-08-25T14:33:55Z</time>
      </trkpt>
      <trkpt lat="44.585" lon="4.09468">
        <ele>1076.33</ele>
        <time>2013-08-25T14:33:56Z</time>
      </trkpt>
      <trkpt lat="44.58499" lon="4.09474">
        <ele>1077.29</ele>
        <time>2013-08-25T14:33:57Z</time>
      </trkpt>
      <trkpt lat="44.58498" lon="4.09479">
        <ele>1076.81</ele>
        <time>2013-08-25T14:33:58Z</time>
      </trkpt>
      <trkpt lat="44.58496" lon="4.09484">
        <ele>1077.29</ele>
        <time>2013-08-25T14:33:59Z</time>
      </trkpt>
      <trkpt lat="44.58493" lon="4.09489">
        <ele>1077.29</ele>
        <time>2013-08-25T14:34:00Z</time>
      </trkpt>
      <trkpt lat="44.58464" lon="4.09552">
        <ele>1078.74</ele>
        <time>2013-08-25T14:34:15Z</time>
      </trkpt>
      <trkpt lat="44.5844" lon="4.09598">
        <ele>1080.18</ele>
        <time>2013-08-25T14:34:27Z</time>
      </trkpt>
      <trkpt lat="44.58421" lon="4.09639">
        <ele>1081.62</ele>
        <time>2013-08-25T14:34:41Z</time>
      </trkpt>
      <trkpt lat="44.58409" lon="4.09673">
        <ele>1084.5</ele>
        <time>2013-08-25T14:34:55Z</time>
      </trkpt>
      <trkpt lat="44.58398" lon="4.09712">
        <ele>1086.43</ele>
        <time>2013-08-25T14:35:10Z</time>
      </trkpt>
      <trkpt lat="44.58389" lon="4.09751">
        <ele>1089.79</ele>
        <time>2013-08-25T14:35:25Z</time>
      </trkpt>
      <trkpt lat="44.58376" lon="4.09792">
        <ele>1089.31</ele>
        <time>2013-08-25T14:35:39Z</time>
      </trkpt>
      <trkpt lat="44.58364" lon="4.09834">
        <ele>1090.27</ele>
        <time>2013-08-25T14:35:51Z</time>
      </trkpt>
      <trkpt lat="44.58365" lon="4.09836">
        <ele>1090.27</ele>
        <time>2013-08-25T14:35:52Z</time>
      </trkpt>
      <trkpt lat="44.58367" lon="4.09844">
        <ele>1090.27</ele>
        <time>2013-08-25T14:35:56Z</time>
      </trkpt>
      <trkpt lat="44.58368" lon="4.09847">
        <ele>1089.79</ele>
        <time>2013-08-25T14:35:57Z</time>
      </trkpt>
      <trkpt lat="44.5837" lon="4.09851">
        <ele>1089.31</ele>
        <time>2013-08-25T14:35:58Z</time>
      </trkpt>
      <trkpt lat="44.58374" lon="4.09875">
        <ele>1086.43</ele>
        <time>2013-08-25T14:36:03Z</time>
      </trkpt>
      <trkpt lat="44.58373" lon="4.09881">
        <ele>1085.95</ele>
        <time>2013-08-25T14:36:04Z</time>
      </trkpt>
      <trkpt lat="44.58371" lon="4.09886">
        <ele>1085.47</ele>
        <time>2013-08-25T14:36:05Z</time>
      </trkpt>
      <trkpt lat="44.58369" lon="4.09892">
        <ele>1085.47</ele>
        <time>2013-08-25T14:36:06Z</time>
      </trkpt>
      <trkpt lat="44.58358" lon="4.09921">
        <ele>1082.58</ele>
        <time>2013-08-25T14:36:11Z</time>
      </trkpt>
      <trkpt lat="44.58353" lon="4.09935">
        <ele>1081.62</ele>
        <time>2013-08-25T14:36:13Z</time>
      </trkpt>
      <trkpt lat="44.5835" lon="4.09941">
        <ele>1081.14</ele>
        <time>2013-08-25T14:36:14Z</time>
      </trkpt>
      <trkpt lat="44.58347" lon="4.09947">
        <ele>1080.66</ele>
        <time>2013-08-25T14:36:15Z</time>
      </trkpt>
      <trkpt lat="44.5834" lon="4.09959">
        <ele>1079.22</ele>
        <time>2013-08-25T14:36:17Z</time>
      </trkpt>
      <trkpt lat="44.5832" lon="4.09987">
        <ele>1076.33</ele>
        <time>2013-08-25T14:36:22Z</time>
      </trkpt>
      <trkpt lat="44.58312" lon="4.09998">
        <ele>1074.89</ele>
        <time>2013-08-25T14:36:24Z</time>
      </trkpt>
      <trkpt lat="44.58309" lon="4.10004">
        <ele>1074.41</ele>
        <time>2013-08-25T14:36:25Z</time>
      </trkpt>
      <trkpt lat="44.58307" lon="4.1001">
        <ele>1073.93</ele>
        <time>2013-08-25T14:36:26Z</time>
      </trkpt>
      <trkpt lat="44.58304" lon="4.10016">
        <ele>1073.93</ele>
        <time>2013-08-25T14:36:27Z</time>
      </trkpt>
      <trkpt lat="44.58301" lon="4.1002">
        <ele>1073.45</ele>
        <time>2013-08-25T14:36:28Z</time>
      </trkpt>
      <trkpt lat="44.58298" lon="4.10025">
        <ele>1072.97</ele>
        <time>2013-08-25T14:36:29Z</time>
      </trkpt>
      <trkpt lat="44.58295" lon="4.1003">
        <ele>1072.49</ele>
        <time>2013-08-25T14:36:30Z</time>
      </trkpt>
      <trkpt lat="44.58292" lon="4.10035">
        <ele>1072.49</ele>
        <time>2013-08-25T14:36:31Z</time>
      </trkpt>
      <trkpt lat="44.58278" lon="4.10063">
        <ele>1070.08</ele>
        <time>2013-08-25T14:36:41Z</time>
      </trkpt>
      <trkpt lat="44.58277" lon="4.10064">
        <ele>1070.08</ele>
        <time>2013-08-25T14:36:42Z</time>
      </trkpt>
      <trkpt lat="44.58276" lon="4.10064">
        <ele>1070.08</ele>
        <time>2013-08-25T14:36:54Z</time>
      </trkpt>
      <trkpt lat="44.58276" lon="4.10065">
        <ele>1069.6</ele>
        <time>2013-08-25T14:37:17Z</time>
      </trkpt>
      <trkpt lat="44.58276" lon="4.10065">
        <ele>1071.05</ele>
        <time>2013-08-25T14:37:45Z</time>
      </trkpt>
      <trkpt lat="44.58276" lon="4.10067">
        <ele>1071.05</ele>
        <time>2013-08-25T14:38:14Z</time>
      </trkpt>
      <trkpt lat="44.58275" lon="4.1007">
        <ele>1070.57</ele>
        <time>2013-08-25T14:38:15Z</time>
      </trkpt>
      <trkpt lat="44.58274" lon="4.10074">
        <ele>1070.08</ele>
        <time>2013-08-25T14:38:16Z</time>
      </trkpt>
      <trkpt lat="44.58272" lon="4.10077">
        <ele>1070.57</ele>
        <time>2013-08-25T14:38:17Z</time>
      </trkpt>
      <trkpt lat="44.5827" lon="4.10081">
        <ele>1070.57</ele>
        <time>2013-08-25T14:38:18Z</time>
      </trkpt>
      <trkpt lat="44.58268" lon="4.10085">
        <ele>1070.57</ele>
        <time>2013-08-25T14:38:19Z</time>
      </trkpt>
      <trkpt lat="44.58265" lon="4.10089">
        <ele>1070.08</ele>
        <time>2013-08-25T14:38:20Z</time>
      </trkpt>
      <trkpt lat="44.58262" lon="4.10093">
        <ele>1069.6</ele>
        <time>2013-08-25T14:38:21Z</time>
      </trkpt>
      <trkpt lat="44.58258" lon="4.10097">
        <ele>1069.6</ele>
        <time>2013-08-25T14:38:22Z</time>
      </trkpt>
      <trkpt lat="44.58246" lon="4.10107">
        <ele>1068.16</ele>
        <time>2013-08-25T14:38:25Z</time>
      </trkpt>
      <trkpt lat="44.58229" lon="4.10116">
        <ele>1066.72</ele>
        <time>2013-08-25T14:38:28Z</time>
      </trkpt>
      <trkpt lat="44.58223" lon="4.10119">
        <ele>1065.76</ele>
        <time>2013-08-25T14:38:29Z</time>
      </trkpt>
      <trkpt lat="44.58217" lon="4.10124">
        <ele>1065.76</ele>
        <time>2013-08-25T14:38:30Z</time>
      </trkpt>
      <trkpt lat="44.58213" lon="4.1013">
        <ele>1065.76</ele>
        <time>2013-08-25T14:38:31Z</time>
      </trkpt>
      <trkpt lat="44.5821" lon="4.10137">
        <ele>1065.28</ele>
        <time>2013-08-25T14:38:32Z</time>
      </trkpt>
      <trkpt lat="44.58209" lon="4.10145">
        <ele>1064.8</ele>
        <time>2013-08-25T14:38:33Z</time>
      </trkpt>
      <trkpt lat="44.58208" lon="4.10153">
        <ele>1063.84</ele>
        <time>2013-08-25T14:38:34Z</time>
      </trkpt>
      <trkpt lat="44.58208" lon="4.10163">
        <ele>1063.36</ele>
        <time>2013-08-25T14:38:35Z</time>
      </trkpt>
      <trkpt lat="44.58208" lon="4.10172">
        <ele>1062.87</ele>
        <time>2013-08-25T14:38:36Z</time>
      </trkpt>
      <trkpt lat="44.58208" lon="4.10182">
        <ele>1062.39</ele>
        <time>2013-08-25T14:38:37Z</time>
      </trkpt>
      <trkpt lat="44.58207" lon="4.10191">
        <ele>1061.91</ele>
        <time>2013-08-25T14:38:38Z</time>
      </trkpt>
      <trkpt lat="44.58204" lon="4.10199">
        <ele>1060.95</ele>
        <time>2013-08-25T14:38:39Z</time>
      </trkpt>
      <trkpt lat="44.58199" lon="4.10207">
        <ele>1059.99</ele>
        <time>2013-08-25T14:38:40Z</time>
      </trkpt>
      <trkpt lat="44.58196" lon="4.10214">
        <ele>1059.51</ele>
        <time>2013-08-25T14:38:41Z</time>
      </trkpt>
      <trkpt lat="44.58191" lon="4.10222">
        <ele>1059.03</ele>
        <time>2013-08-25T14:38:42Z</time>
      </trkpt>
      <trkpt lat="44.58186" lon="4.10229">
        <ele>1059.03</ele>
        <time>2013-08-25T14:38:43Z</time>
      </trkpt>
      <trkpt lat="44.58163" lon="4.10254">
        <ele>1056.15</ele>
        <time>2013-08-25T14:38:47Z</time>
      </trkpt>
      <trkpt lat="44.58152" lon="4.10269">
        <ele>1054.22</ele>
        <time>2013-08-25T14:38:49Z</time>
      </trkpt>
      <trkpt lat="44.58149" lon="4.10278">
        <ele>1054.7</ele>
        <time>2013-08-25T14:38:50Z</time>
      </trkpt>
      <trkpt lat="44.58144" lon="4.10296">
        <ele>1054.22</ele>
        <time>2013-08-25T14:38:52Z</time>
      </trkpt>
      <trkpt lat="44.58143" lon="4.10305">
        <ele>1053.74</ele>
        <time>2013-08-25T14:38:53Z</time>
      </trkpt>
      <trkpt lat="44.58143" lon="4.10315">
        <ele>1053.26</ele>
        <time>2013-08-25T14:38:54Z</time>
      </trkpt>
      <trkpt lat="44.58143" lon="4.10333">
        <ele>1053.74</ele>
        <time>2013-08-25T14:38:56Z</time>
      </trkpt>
      <trkpt lat="44.58144" lon="4.10342">
        <ele>1052.78</ele>
        <time>2013-08-25T14:38:57Z</time>
      </trkpt>
      <trkpt lat="44.58143" lon="4.1035">
        <ele>1052.3</ele>
        <time>2013-08-25T14:38:58Z</time>
      </trkpt>
      <trkpt lat="44.58142" lon="4.10359">
        <ele>1052.3</ele>
        <time>2013-08-25T14:38:59Z</time>
      </trkpt>
      <trkpt lat="44.5814" lon="4.10366">
        <ele>1052.3</ele>
        <time>2013-08-25T14:39:00Z</time>
      </trkpt>
      <trkpt lat="44.58138" lon="4.10374">
        <ele>1051.82</ele>
        <time>2013-08-25T14:39:01Z</time>
      </trkpt>
      <trkpt lat="44.58135" lon="4.10382">
        <ele>1050.86</ele>
        <time>2013-08-25T14:39:02Z</time>
      </trkpt>
      <trkpt lat="44.58128" lon="4.10397">
        <ele>1049.9</ele>
        <time>2013-08-25T14:39:04Z</time>
      </trkpt>
      <trkpt lat="44.58123" lon="4.10403">
        <ele>1049.42</ele>
        <time>2013-08-25T14:39:05Z</time>
      </trkpt>
      <trkpt lat="44.58114" lon="4.10416">
        <ele>1049.42</ele>
        <time>2013-08-25T14:39:07Z</time>
      </trkpt>
      <trkpt lat="44.58111" lon="4.10424">
        <ele>1048.94</ele>
        <time>2013-08-25T14:39:08Z</time>
      </trkpt>
      <trkpt lat="44.58108" lon="4.10432">
        <ele>1047.97</ele>
        <time>2013-08-25T14:39:09Z</time>
      </trkpt>
      <trkpt lat="44.58103" lon="4.10438">
        <ele>1047.49</ele>
        <time>2013-08-25T14:39:10Z</time>
      </trkpt>
      <trkpt lat="44.58098" lon="4.10443">
        <ele>1047.01</ele>
        <time>2013-08-25T14:39:11Z</time>
      </trkpt>
      <trkpt lat="44.58092" lon="4.10445">
        <ele>1047.01</ele>
        <time>2013-08-25T14:39:12Z</time>
      </trkpt>
      <trkpt lat="44.58086" lon="4.10446">
        <ele>1046.53</ele>
        <time>2013-08-25T14:39:13Z</time>
      </trkpt>
      <trkpt lat="44.58082" lon="4.10448">
        <ele>1046.05</ele>
        <time>2013-08-25T14:39:14Z</time>
      </trkpt>
      <trkpt lat="44.58078" lon="4.10452">
        <ele>1046.53</ele>
        <time>2013-08-25T14:39:15Z</time>
      </trkpt>
      <trkpt lat="44.58077" lon="4.10456">
        <ele>1046.05</ele>
        <time>2013-08-25T14:39:16Z</time>
      </trkpt>
      <trkpt lat="44.58074" lon="4.10461">
        <ele>1045.09</ele>
        <time>2013-08-25T14:39:17Z</time>
      </trkpt>
      <trkpt lat="44.58072" lon="4.10466">
        <ele>1044.61</ele>
        <time>2013-08-25T14:39:18Z</time>
      </trkpt>
      <trkpt lat="44.58069" lon="4.10472">
        <ele>1043.17</ele>
        <time>2013-08-25T14:39:19Z</time>
      </trkpt>
      <trkpt lat="44.58064" lon="4.10484">
        <ele>1041.73</ele>
        <time>2013-08-25T14:39:21Z</time>
      </trkpt>
      <trkpt lat="44.58062" lon="4.10491">
        <ele>1040.76</ele>
        <time>2013-08-25T14:39:22Z</time>
      </trkpt>
      <trkpt lat="44.5806" lon="4.10498">
        <ele>1040.76</ele>
        <time>2013-08-25T14:39:23Z</time>
      </trkpt>
      <trkpt lat="44.58055" lon="4.1052">
        <ele>1039.32</ele>
        <time>2013-08-25T14:39:26Z</time>
      </trkpt>
      <trkpt lat="44.58052" lon="4.10527">
        <ele>1038.84</ele>
        <time>2013-08-25T14:39:27Z</time>
      </trkpt>
      <trkpt lat="44.58049" lon="4.10534">
        <ele>1038.36</ele>
        <time>2013-08-25T14:39:28Z</time>
      </trkpt>
      <trkpt lat="44.58042" lon="4.10549">
        <ele>1037.4</ele>
        <time>2013-08-25T14:39:30Z</time>
      </trkpt>
      <trkpt lat="44.58027" lon="4.10579">
        <ele>1035.48</ele>
        <time>2013-08-25T14:39:34Z</time>
      </trkpt>
      <trkpt lat="44.58023" lon="4.10586">
        <ele>1035.96</ele>
        <time>2013-08-25T14:39:35Z</time>
      </trkpt>
      <trkpt lat="44.58019" lon="4.10591">
        <ele>1035.96</ele>
        <time>2013-08-25T14:39:36Z</time>
      </trkpt>
      <trkpt lat="44.58014" lon="4.10596">
        <ele>1035.48</ele>
        <time>2013-08-25T14:39:37Z</time>
      </trkpt>
      <trkpt lat="44.58008" lon="4.10599">
        <ele>1035</ele>
        <time>2013-08-25T14:39:38Z</time>
      </trkpt>
      <trkpt lat="44.58002" lon="4.10602">
        <ele>1034.52</ele>
        <time>2013-08-25T14:39:39Z</time>
      </trkpt>
      <trkpt lat="44.57985" lon="4.10614">
        <ele>1034.04</ele>
        <time>2013-08-25T14:39:42Z</time>
      </trkpt>
      <trkpt lat="44.57975" lon="4.10625">
        <ele>1033.55</ele>
        <time>2013-08-25T14:39:44Z</time>
      </trkpt>
      <trkpt lat="44.57972" lon="4.1063">
        <ele>1034.04</ele>
        <time>2013-08-25T14:39:45Z</time>
      </trkpt>
      <trkpt lat="44.5797" lon="4.10634">
        <ele>1034.04</ele>
        <time>2013-08-25T14:39:46Z</time>
      </trkpt>
      <trkpt lat="44.57944" lon="4.10677">
        <ele>1032.11</ele>
        <time>2013-08-25T14:39:58Z</time>
      </trkpt>
      <trkpt lat="44.57933" lon="4.10686">
        <ele>1030.67</ele>
        <time>2013-08-25T14:40:01Z</time>
      </trkpt>
      <trkpt lat="44.57929" lon="4.10688">
        <ele>1030.19</ele>
        <time>2013-08-25T14:40:02Z</time>
      </trkpt>
      <trkpt lat="44.57921" lon="4.10693">
        <ele>1032.11</ele>
        <time>2013-08-25T14:40:04Z</time>
      </trkpt>
      <trkpt lat="44.57902" lon="4.10701">
        <ele>1032.11</ele>
        <time>2013-08-25T14:40:09Z</time>
      </trkpt>
      <trkpt lat="44.5789" lon="4.10708">
        <ele>1032.11</ele>
        <time>2013-08-25T14:40:12Z</time>
      </trkpt>
      <trkpt lat="44.57882" lon="4.10714">
        <ele>1032.11</ele>
        <time>2013-08-25T14:40:14Z</time>
      </trkpt>
      <trkpt lat="44.57878" lon="4.10717">
        <ele>1031.63</ele>
        <time>2013-08-25T14:40:15Z</time>
      </trkpt>
      <trkpt lat="44.57874" lon="4.1072">
        <ele>1032.11</ele>
        <time>2013-08-25T14:40:16Z</time>
      </trkpt>
      <trkpt lat="44.57853" lon="4.10758">
        <ele>1032.11</ele>
        <time>2013-08-25T14:40:25Z</time>
      </trkpt>
      <trkpt lat="44.57851" lon="4.10763">
        <ele>1031.63</ele>
        <time>2013-08-25T14:40:26Z</time>
      </trkpt>
      <trkpt lat="44.57849" lon="4.1078">
        <ele>1031.63</ele>
        <time>2013-08-25T14:40:29Z</time>
      </trkpt>
      <trkpt lat="44.57849" lon="4.10785">
        <ele>1031.63</ele>
        <time>2013-08-25T14:40:30Z</time>
      </trkpt>
      <trkpt lat="44.57851" lon="4.10796">
        <ele>1031.63</ele>
        <time>2013-08-25T14:40:32Z</time>
      </trkpt>
      <trkpt lat="44.57854" lon="4.10801">
        <ele>1031.15</ele>
        <time>2013-08-25T14:40:33Z</time>
      </trkpt>
      <trkpt lat="44.57857" lon="4.10806">
        <ele>1030.19</ele>
        <time>2013-08-25T14:40:34Z</time>
      </trkpt>
      <trkpt lat="44.57859" lon="4.10812">
        <ele>1029.71</ele>
        <time>2013-08-25T14:40:35Z</time>
      </trkpt>
      <trkpt lat="44.5786" lon="4.10819">
        <ele>1029.71</ele>
        <time>2013-08-25T14:40:36Z</time>
      </trkpt>
      <trkpt lat="44.57861" lon="4.10826">
        <ele>1029.23</ele>
        <time>2013-08-25T14:40:37Z</time>
      </trkpt>
      <trkpt lat="44.57865" lon="4.10849">
        <ele>1027.31</ele>
        <time>2013-08-25T14:40:40Z</time>
      </trkpt>
      <trkpt lat="44.57865" lon="4.10857">
        <ele>1027.31</ele>
        <time>2013-08-25T14:40:41Z</time>
      </trkpt>
      <trkpt lat="44.57865" lon="4.10889">
        <ele>1024.9</ele>
        <time>2013-08-25T14:40:45Z</time>
      </trkpt>
      <trkpt lat="44.57864" lon="4.10904">
        <ele>1023.94</ele>
        <time>2013-08-25T14:40:47Z</time>
      </trkpt>
      <trkpt lat="44.57861" lon="4.10912">
        <ele>1023.46</ele>
        <time>2013-08-25T14:40:48Z</time>
      </trkpt>
      <trkpt lat="44.57849" lon="4.10932">
        <ele>1021.54</ele>
        <time>2013-08-25T14:40:51Z</time>
      </trkpt>
      <trkpt lat="44.57844" lon="4.10936">
        <ele>1020.58</ele>
        <time>2013-08-25T14:40:52Z</time>
      </trkpt>
      <trkpt lat="44.57839" lon="4.10939">
        <ele>1021.06</ele>
        <time>2013-08-25T14:40:53Z</time>
      </trkpt>
      <trkpt lat="44.57834" lon="4.1094">
        <ele>1020.1</ele>
        <time>2013-08-25T14:40:54Z</time>
      </trkpt>
      <trkpt lat="44.5783" lon="4.10943">
        <ele>1018.65</ele>
        <time>2013-08-25T14:40:55Z</time>
      </trkpt>
      <trkpt lat="44.57824" lon="4.10945">
        <ele>1018.17</ele>
        <time>2013-08-25T14:40:56Z</time>
      </trkpt>
      <trkpt lat="44.57819" lon="4.10947">
        <ele>1017.21</ele>
        <time>2013-08-25T14:40:57Z</time>
      </trkpt>
      <trkpt lat="44.57814" lon="4.10951">
        <ele>1016.73</ele>
        <time>2013-08-25T14:40:58Z</time>
      </trkpt>
      <trkpt lat="44.57809" lon="4.10955">
        <ele>1015.29</ele>
        <time>2013-08-25T14:40:59Z</time>
      </trkpt>
      <trkpt lat="44.57807" lon="4.10961">
        <ele>1015.77</ele>
        <time>2013-08-25T14:41:00Z</time>
      </trkpt>
      <trkpt lat="44.57807" lon="4.10967">
        <ele>1015.77</ele>
        <time>2013-08-25T14:41:01Z</time>
      </trkpt>
      <trkpt lat="44.57808" lon="4.10972">
        <ele>1016.73</ele>
        <time>2013-08-25T14:41:02Z</time>
      </trkpt>
      <trkpt lat="44.57809" lon="4.10976">
        <ele>1016.73</ele>
        <time>2013-08-25T14:41:03Z</time>
      </trkpt>
      <trkpt lat="44.57811" lon="4.10999">
        <ele>1019.62</ele>
        <time>2013-08-25T14:41:11Z</time>
      </trkpt>
      <trkpt lat="44.57814" lon="4.11029">
        <ele>1022.5</ele>
        <time>2013-08-25T14:41:23Z</time>
      </trkpt>
      <trkpt lat="44.57813" lon="4.11036">
        <ele>1022.98</ele>
        <time>2013-08-25T14:41:26Z</time>
      </trkpt>
      <trkpt lat="44.57812" lon="4.11038">
        <ele>1022.98</ele>
        <time>2013-08-25T14:41:27Z</time>
      </trkpt>
      <trkpt lat="44.57812" lon="4.1104">
        <ele>1023.46</ele>
        <time>2013-08-25T14:41:28Z</time>
      </trkpt>
      <trkpt lat="44.57811" lon="4.11042">
        <ele>1023.46</ele>
        <time>2013-08-25T14:41:29Z</time>
      </trkpt>
      <trkpt lat="44.5781" lon="4.11044">
        <ele>1023.46</ele>
        <time>2013-08-25T14:41:30Z</time>
      </trkpt>
      <trkpt lat="44.57807" lon="4.11049">
        <ele>1023.94</ele>
        <time>2013-08-25T14:41:33Z</time>
      </trkpt>
      <trkpt lat="44.57806" lon="4.1105">
        <ele>1024.42</ele>
        <time>2013-08-25T14:41:34Z</time>
      </trkpt>
      <trkpt lat="44.578" lon="4.11062">
        <ele>1025.86</ele>
        <time>2013-08-25T14:41:41Z</time>
      </trkpt>
      <trkpt lat="44.57799" lon="4.11063">
        <ele>1025.86</ele>
        <time>2013-08-25T14:41:42Z</time>
      </trkpt>
      <trkpt lat="44.57798" lon="4.11065">
        <ele>1026.34</ele>
        <time>2013-08-25T14:41:43Z</time>
      </trkpt>
      <trkpt lat="44.57797" lon="4.11067">
        <ele>1026.34</ele>
        <time>2013-08-25T14:41:44Z</time>
      </trkpt>
      <trkpt lat="44.57796" lon="4.11069">
        <ele>1026.34</ele>
        <time>2013-08-25T14:41:45Z</time>
      </trkpt>
      <trkpt lat="44.57795" lon="4.1107">
        <ele>1025.86</ele>
        <time>2013-08-25T14:41:46Z</time>
      </trkpt>
      <trkpt lat="44.57793" lon="4.11072">
        <ele>1026.34</ele>
        <time>2013-08-25T14:41:47Z</time>
      </trkpt>
      <trkpt lat="44.57792" lon="4.11073">
        <ele>1026.83</ele>
        <time>2013-08-25T14:41:48Z</time>
      </trkpt>
      <trkpt lat="44.57791" lon="4.11074">
        <ele>1026.83</ele>
        <time>2013-08-25T14:41:49Z</time>
      </trkpt>
      <trkpt lat="44.5779" lon="4.11076">
        <ele>1026.83</ele>
        <time>2013-08-25T14:41:50Z</time>
      </trkpt>
      <trkpt lat="44.57787" lon="4.11081">
        <ele>1027.79</ele>
        <time>2013-08-25T14:41:53Z</time>
      </trkpt>
      <trkpt lat="44.57769" lon="4.11099">
        <ele>1030.67</ele>
        <time>2013-08-25T14:42:06Z</time>
      </trkpt>
      <trkpt lat="44.57745" lon="4.11122">
        <ele>1031.63</ele>
        <time>2013-08-25T14:42:20Z</time>
      </trkpt>
      <trkpt lat="44.57711" lon="4.1114">
        <ele>1033.07</ele>
        <time>2013-08-25T14:42:33Z</time>
      </trkpt>
      <trkpt lat="44.57683" lon="4.11179">
        <ele>1030.67</ele>
        <time>2013-08-25T14:42:43Z</time>
      </trkpt>
      <trkpt lat="44.5768" lon="4.11183">
        <ele>1030.67</ele>
        <time>2013-08-25T14:42:44Z</time>
      </trkpt>
      <trkpt lat="44.57676" lon="4.11187">
        <ele>1030.19</ele>
        <time>2013-08-25T14:42:45Z</time>
      </trkpt>
      <trkpt lat="44.57673" lon="4.1119">
        <ele>1030.19</ele>
        <time>2013-08-25T14:42:46Z</time>
      </trkpt>
      <trkpt lat="44.57669" lon="4.11192">
        <ele>1030.19</ele>
        <time>2013-08-25T14:42:47Z</time>
      </trkpt>
      <trkpt lat="44.57665" lon="4.11194">
        <ele>1030.19</ele>
        <time>2013-08-25T14:42:48Z</time>
      </trkpt>
      <trkpt lat="44.57661" lon="4.11195">
        <ele>1029.71</ele>
        <time>2013-08-25T14:42:49Z</time>
      </trkpt>
      <trkpt lat="44.57657" lon="4.11195">
        <ele>1030.19</ele>
        <time>2013-08-25T14:42:50Z</time>
      </trkpt>
      <trkpt lat="44.57653" lon="4.11196">
        <ele>1029.71</ele>
        <time>2013-08-25T14:42:51Z</time>
      </trkpt>
      <trkpt lat="44.57648" lon="4.11197">
        <ele>1029.71</ele>
        <time>2013-08-25T14:42:52Z</time>
      </trkpt>
      <trkpt lat="44.57643" lon="4.11197">
        <ele>1029.71</ele>
        <time>2013-08-25T14:42:53Z</time>
      </trkpt>
      <trkpt lat="44.57633" lon="4.11198">
        <ele>1028.75</ele>
        <time>2013-08-25T14:42:55Z</time>
      </trkpt>
      <trkpt lat="44.57629" lon="4.11199">
        <ele>1028.75</ele>
        <time>2013-08-25T14:42:56Z</time>
      </trkpt>
      <trkpt lat="44.5762" lon="4.11199">
        <ele>1028.75</ele>
        <time>2013-08-25T14:42:58Z</time>
      </trkpt>
      <trkpt lat="44.57616" lon="4.11199">
        <ele>1028.75</ele>
        <time>2013-08-25T14:42:59Z</time>
      </trkpt>
      <trkpt lat="44.57592" lon="4.11202">
        <ele>1027.31</ele>
        <time>2013-08-25T14:43:05Z</time>
      </trkpt>
      <trkpt lat="44.57587" lon="4.11204">
        <ele>1027.31</ele>
        <time>2013-08-25T14:43:06Z</time>
      </trkpt>
      <trkpt lat="44.57584" lon="4.11207">
        <ele>1027.31</ele>
        <time>2013-08-25T14:43:07Z</time>
      </trkpt>
      <trkpt lat="44.57572" lon="4.11227">
        <ele>1027.79</ele>
        <time>2013-08-25T14:43:12Z</time>
      </trkpt>
      <trkpt lat="44.57571" lon="4.11233">
        <ele>1027.79</ele>
        <time>2013-08-25T14:43:13Z</time>
      </trkpt>
      <trkpt lat="44.5757" lon="4.11238">
        <ele>1027.31</ele>
        <time>2013-08-25T14:43:14Z</time>
      </trkpt>
      <trkpt lat="44.5757" lon="4.11244">
        <ele>1027.79</ele>
        <time>2013-08-25T14:43:15Z</time>
      </trkpt>
      <trkpt lat="44.57569" lon="4.1125">
        <ele>1027.31</ele>
        <time>2013-08-25T14:43:16Z</time>
      </trkpt>
      <trkpt lat="44.57568" lon="4.11269">
        <ele>1026.34</ele>
        <time>2013-08-25T14:43:19Z</time>
      </trkpt>
      <trkpt lat="44.57568" lon="4.11275">
        <ele>1026.83</ele>
        <time>2013-08-25T14:43:20Z</time>
      </trkpt>
      <trkpt lat="44.57568" lon="4.11281">
        <ele>1026.34</ele>
        <time>2013-08-25T14:43:21Z</time>
      </trkpt>
      <trkpt lat="44.57567" lon="4.11287">
        <ele>1025.86</ele>
        <time>2013-08-25T14:43:22Z</time>
      </trkpt>
      <trkpt lat="44.57565" lon="4.11293">
        <ele>1025.86</ele>
        <time>2013-08-25T14:43:23Z</time>
      </trkpt>
      <trkpt lat="44.57563" lon="4.11299">
        <ele>1024.9</ele>
        <time>2013-08-25T14:43:24Z</time>
      </trkpt>
      <trkpt lat="44.5756" lon="4.11305">
        <ele>1024.42</ele>
        <time>2013-08-25T14:43:25Z</time>
      </trkpt>
      <trkpt lat="44.57553" lon="4.11318">
        <ele>1023.46</ele>
        <time>2013-08-25T14:43:27Z</time>
      </trkpt>
      <trkpt lat="44.57548" lon="4.11323">
        <ele>1022.02</ele>
        <time>2013-08-25T14:43:28Z</time>
      </trkpt>
      <trkpt lat="44.57543" lon="4.11329">
        <ele>1022.02</ele>
        <time>2013-08-25T14:43:29Z</time>
      </trkpt>
      <trkpt lat="44.57539" lon="4.11334">
        <ele>1022.02</ele>
        <time>2013-08-25T14:43:30Z</time>
      </trkpt>
      <trkpt lat="44.57535" lon="4.11339">
        <ele>1021.54</ele>
        <time>2013-08-25T14:43:31Z</time>
      </trkpt>
      <trkpt lat="44.57532" lon="4.11344">
        <ele>1021.54</ele>
        <time>2013-08-25T14:43:32Z</time>
      </trkpt>
      <trkpt lat="44.5753" lon="4.11349">
        <ele>1021.54</ele>
        <time>2013-08-25T14:43:33Z</time>
      </trkpt>
      <trkpt lat="44.57529" lon="4.11354">
        <ele>1021.06</ele>
        <time>2013-08-25T14:43:34Z</time>
      </trkpt>
      <trkpt lat="44.57529" lon="4.11359">
        <ele>1021.06</ele>
        <time>2013-08-25T14:43:35Z</time>
      </trkpt>
      <trkpt lat="44.5753" lon="4.11363">
        <ele>1020.58</ele>
        <time>2013-08-25T14:43:36Z</time>
      </trkpt>
      <trkpt lat="44.57531" lon="4.11381">
        <ele>1019.62</ele>
        <time>2013-08-25T14:43:46Z</time>
      </trkpt>
      <trkpt lat="44.57531" lon="4.11381">
        <ele>1019.62</ele>
        <time>2013-08-25T14:44:01Z</time>
      </trkpt>
      <trkpt lat="44.57531" lon="4.11384">
        <ele>1019.13</ele>
        <time>2013-08-25T14:44:02Z</time>
      </trkpt>
      <trkpt lat="44.57532" lon="4.11388">
        <ele>1019.13</ele>
        <time>2013-08-25T14:44:03Z</time>
      </trkpt>
      <trkpt lat="44.57533" lon="4.11392">
        <ele>1018.17</ele>
        <time>2013-08-25T14:44:04Z</time>
      </trkpt>
      <trkpt lat="44.57534" lon="4.11397">
        <ele>1018.17</ele>
        <time>2013-08-25T14:44:05Z</time>
      </trkpt>
      <trkpt lat="44.57536" lon="4.11401">
        <ele>1018.17</ele>
        <time>2013-08-25T14:44:06Z</time>
      </trkpt>
      <trkpt lat="44.57538" lon="4.11407">
        <ele>1017.21</ele>
        <time>2013-08-25T14:44:07Z</time>
      </trkpt>
      <trkpt lat="44.57541" lon="4.11411">
        <ele>1016.25</ele>
        <time>2013-08-25T14:44:08Z</time>
      </trkpt>
      <trkpt lat="44.57546" lon="4.11427">
        <ele>1016.25</ele>
        <time>2013-08-25T14:44:11Z</time>
      </trkpt>
      <trkpt lat="44.57553" lon="4.11469">
        <ele>1014.81</ele>
        <time>2013-08-25T14:44:18Z</time>
      </trkpt>
      <trkpt lat="44.5755" lon="4.11505">
        <ele>1014.33</ele>
        <time>2013-08-25T14:44:24Z</time>
      </trkpt>
      <trkpt lat="44.57549" lon="4.11512">
        <ele>1013.37</ele>
        <time>2013-08-25T14:44:25Z</time>
      </trkpt>
      <trkpt lat="44.57549" lon="4.11519">
        <ele>1012.41</ele>
        <time>2013-08-25T14:44:26Z</time>
      </trkpt>
      <trkpt lat="44.57547" lon="4.11526">
        <ele>1012.41</ele>
        <time>2013-08-25T14:44:27Z</time>
      </trkpt>
      <trkpt lat="44.57547" lon="4.11533">
        <ele>1011.93</ele>
        <time>2013-08-25T14:44:28Z</time>
      </trkpt>
      <trkpt lat="44.57546" lon="4.1154">
        <ele>1011.93</ele>
        <time>2013-08-25T14:44:29Z</time>
      </trkpt>
      <trkpt lat="44.57546" lon="4.11547">
        <ele>1011.93</ele>
        <time>2013-08-25T14:44:30Z</time>
      </trkpt>
      <trkpt lat="44.57544" lon="4.11562">
        <ele>1011.44</ele>
        <time>2013-08-25T14:44:32Z</time>
      </trkpt>
      <trkpt lat="44.57544" lon="4.1159">
        <ele>1010.96</ele>
        <time>2013-08-25T14:44:36Z</time>
      </trkpt>
      <trkpt lat="44.57542" lon="4.11596">
        <ele>1010.96</ele>
        <time>2013-08-25T14:44:37Z</time>
      </trkpt>
      <trkpt lat="44.57535" lon="4.11617">
        <ele>1010</ele>
        <time>2013-08-25T14:44:40Z</time>
      </trkpt>
      <trkpt lat="44.57512" lon="4.11671">
        <ele>1008.56</ele>
        <time>2013-08-25T14:44:48Z</time>
      </trkpt>
      <trkpt lat="44.57507" lon="4.11685">
        <ele>1008.08</ele>
        <time>2013-08-25T14:44:50Z</time>
      </trkpt>
      <trkpt lat="44.57504" lon="4.11693">
        <ele>1007.12</ele>
        <time>2013-08-25T14:44:51Z</time>
      </trkpt>
      <trkpt lat="44.57501" lon="4.117">
        <ele>1007.12</ele>
        <time>2013-08-25T14:44:52Z</time>
      </trkpt>
      <trkpt lat="44.57472" lon="4.11765">
        <ele>1003.75</ele>
        <time>2013-08-25T14:45:01Z</time>
      </trkpt>
      <trkpt lat="44.57465" lon="4.1178">
        <ele>1002.79</ele>
        <time>2013-08-25T14:45:03Z</time>
      </trkpt>
      <trkpt lat="44.57462" lon="4.11788">
        <ele>1002.31</ele>
        <time>2013-08-25T14:45:04Z</time>
      </trkpt>
      <trkpt lat="44.57457" lon="4.1182">
        <ele>1001.35</ele>
        <time>2013-08-25T14:45:08Z</time>
      </trkpt>
      <trkpt lat="44.57456" lon="4.11855">
        <ele>1000.39</ele>
        <time>2013-08-25T14:45:13Z</time>
      </trkpt>
      <trkpt lat="44.57455" lon="4.11861">
        <ele>1000.87</ele>
        <time>2013-08-25T14:45:14Z</time>
      </trkpt>
      <trkpt lat="44.57455" lon="4.11867">
        <ele>1000.39</ele>
        <time>2013-08-25T14:45:15Z</time>
      </trkpt>
      <trkpt lat="44.57455" lon="4.11873">
        <ele>999.91</ele>
        <time>2013-08-25T14:45:16Z</time>
      </trkpt>
      <trkpt lat="44.57455" lon="4.11878">
        <ele>1000.39</ele>
        <time>2013-08-25T14:45:17Z</time>
      </trkpt>
      <trkpt lat="44.57453" lon="4.11882">
        <ele>999.91</ele>
        <time>2013-08-25T14:45:18Z</time>
      </trkpt>
      <trkpt lat="44.5745" lon="4.11881">
        <ele>999.91</ele>
        <time>2013-08-25T14:45:25Z</time>
      </trkpt>
      <trkpt lat="44.5745" lon="4.11881">
        <ele>999.91</ele>
        <time>2013-08-25T14:45:48Z</time>
      </trkpt>
      <trkpt lat="44.5745" lon="4.11881">
        <ele>999.91</ele>
        <time>2013-08-25T14:46:12Z</time>
      </trkpt>
      <trkpt lat="44.57449" lon="4.11881">
        <ele>1000.39</ele>
        <time>2013-08-25T14:46:47Z</time>
      </trkpt>
      <trkpt lat="44.57449" lon="4.11881">
        <ele>1000.87</ele>
        <time>2013-08-25T14:46:58Z</time>
      </trkpt>
      <trkpt lat="44.57448" lon="4.1187">
        <ele>999.43</ele>
        <time>2013-08-25T14:47:02Z</time>
      </trkpt>
      <trkpt lat="44.57447" lon="4.11866">
        <ele>998.95</ele>
        <time>2013-08-25T14:47:03Z</time>
      </trkpt>
      <trkpt lat="44.57445" lon="4.11853">
        <ele>997.02</ele>
        <time>2013-08-25T14:47:06Z</time>
      </trkpt>
      <trkpt lat="44.57439" lon="4.11824">
        <ele>994.14</ele>
        <time>2013-08-25T14:47:11Z</time>
      </trkpt>
      <trkpt lat="44.57435" lon="4.11807">
        <ele>992.22</ele>
        <time>2013-08-25T14:47:14Z</time>
      </trkpt>
      <trkpt lat="44.57434" lon="4.11802">
        <ele>991.74</ele>
        <time>2013-08-25T14:47:15Z</time>
      </trkpt>
      <trkpt lat="44.57431" lon="4.11787">
        <ele>989.81</ele>
        <time>2013-08-25T14:47:18Z</time>
      </trkpt>
      <trkpt lat="44.57431" lon="4.11771">
        <ele>988.85</ele>
        <time>2013-08-25T14:47:21Z</time>
      </trkpt>
      <trkpt lat="44.57431" lon="4.1176">
        <ele>986.93</ele>
        <time>2013-08-25T14:47:23Z</time>
      </trkpt>
      <trkpt lat="44.57429" lon="4.11757">
        <ele>986.93</ele>
        <time>2013-08-25T14:47:24Z</time>
      </trkpt>
      <trkpt lat="44.57425" lon="4.11758">
        <ele>986.45</ele>
        <time>2013-08-25T14:47:25Z</time>
      </trkpt>
      <trkpt lat="44.57422" lon="4.11762">
        <ele>985.01</ele>
        <time>2013-08-25T14:47:26Z</time>
      </trkpt>
      <trkpt lat="44.5742" lon="4.11767">
        <ele>984.05</ele>
        <time>2013-08-25T14:47:27Z</time>
      </trkpt>
      <trkpt lat="44.57417" lon="4.11772">
        <ele>983.09</ele>
        <time>2013-08-25T14:47:28Z</time>
      </trkpt>
      <trkpt lat="44.57414" lon="4.11776">
        <ele>982.6</ele>
        <time>2013-08-25T14:47:29Z</time>
      </trkpt>
      <trkpt lat="44.57411" lon="4.11781">
        <ele>982.12</ele>
        <time>2013-08-25T14:47:30Z</time>
      </trkpt>
      <trkpt lat="44.57409" lon="4.11785">
        <ele>981.64</ele>
        <time>2013-08-25T14:47:31Z</time>
      </trkpt>
      <trkpt lat="44.57404" lon="4.11796">
        <ele>979.72</ele>
        <time>2013-08-25T14:47:33Z</time>
      </trkpt>
      <trkpt lat="44.57402" lon="4.11802">
        <ele>979.24</ele>
        <time>2013-08-25T14:47:34Z</time>
      </trkpt>
      <trkpt lat="44.57401" lon="4.11807">
        <ele>978.76</ele>
        <time>2013-08-25T14:47:35Z</time>
      </trkpt>
      <trkpt lat="44.57401" lon="4.11813">
        <ele>978.76</ele>
        <time>2013-08-25T14:47:36Z</time>
      </trkpt>
      <trkpt lat="44.574" lon="4.11818">
        <ele>977.8</ele>
        <time>2013-08-25T14:47:37Z</time>
      </trkpt>
      <trkpt lat="44.57391" lon="4.11809">
        <ele>976.36</ele>
        <time>2013-08-25T14:47:42Z</time>
      </trkpt>
      <trkpt lat="44.57389" lon="4.11805">
        <ele>975.39</ele>
        <time>2013-08-25T14:47:43Z</time>
      </trkpt>
      <trkpt lat="44.57385" lon="4.11795">
        <ele>973.47</ele>
        <time>2013-08-25T14:47:45Z</time>
      </trkpt>
      <trkpt lat="44.57382" lon="4.1179">
        <ele>972.99</ele>
        <time>2013-08-25T14:47:46Z</time>
      </trkpt>
      <trkpt lat="44.5738" lon="4.11784">
        <ele>971.55</ele>
        <time>2013-08-25T14:47:47Z</time>
      </trkpt>
      <trkpt lat="44.5738" lon="4.11778">
        <ele>970.11</ele>
        <time>2013-08-25T14:47:48Z</time>
      </trkpt>
      <trkpt lat="44.5738" lon="4.11771">
        <ele>970.11</ele>
        <time>2013-08-25T14:47:49Z</time>
      </trkpt>
      <trkpt lat="44.5738" lon="4.11766">
        <ele>969.63</ele>
        <time>2013-08-25T14:47:50Z</time>
      </trkpt>
      <trkpt lat="44.57381" lon="4.1176">
        <ele>969.15</ele>
        <time>2013-08-25T14:47:51Z</time>
      </trkpt>
      <trkpt lat="44.57382" lon="4.11754">
        <ele>968.18</ele>
        <time>2013-08-25T14:47:53Z</time>
      </trkpt>
      <trkpt lat="44.57382" lon="4.11753">
        <ele>968.18</ele>
        <time>2013-08-25T14:48:04Z</time>
      </trkpt>
      <trkpt lat="44.57381" lon="4.11754">
        <ele>968.18</ele>
        <time>2013-08-25T14:48:15Z</time>
      </trkpt>
      <trkpt lat="44.57381" lon="4.11754">
        <ele>968.18</ele>
        <time>2013-08-25T14:48:39Z</time>
      </trkpt>
      <trkpt lat="44.57381" lon="4.11754">
        <ele>968.18</ele>
        <time>2013-08-25T14:49:01Z</time>
      </trkpt>
      <trkpt lat="44.57381" lon="4.11754">
        <ele>968.67</ele>
        <time>2013-08-25T14:49:21Z</time>
      </trkpt>
      <trkpt lat="44.57383" lon="4.1174">
        <ele>966.74</ele>
        <time>2013-08-25T14:49:40Z</time>
      </trkpt>
      <trkpt lat="44.57385" lon="4.1173">
        <ele>965.78</ele>
        <time>2013-08-25T14:49:42Z</time>
      </trkpt>
      <trkpt lat="44.57385" lon="4.11724">
        <ele>965.3</ele>
        <time>2013-08-25T14:49:43Z</time>
      </trkpt>
      <trkpt lat="44.57386" lon="4.11718">
        <ele>963.86</ele>
        <time>2013-08-25T14:49:44Z</time>
      </trkpt>
      <trkpt lat="44.57386" lon="4.11712">
        <ele>963.38</ele>
        <time>2013-08-25T14:49:45Z</time>
      </trkpt>
      <trkpt lat="44.57386" lon="4.11705">
        <ele>962.42</ele>
        <time>2013-08-25T14:49:46Z</time>
      </trkpt>
      <trkpt lat="44.57387" lon="4.11699">
        <ele>961.94</ele>
        <time>2013-08-25T14:49:47Z</time>
      </trkpt>
      <trkpt lat="44.57388" lon="4.11692">
        <ele>960.01</ele>
        <time>2013-08-25T14:49:48Z</time>
      </trkpt>
      <trkpt lat="44.57391" lon="4.11676">
        <ele>958.09</ele>
        <time>2013-08-25T14:49:50Z</time>
      </trkpt>
      <trkpt lat="44.57393" lon="4.11668">
        <ele>956.65</ele>
        <time>2013-08-25T14:49:51Z</time>
      </trkpt>
      <trkpt lat="44.57395" lon="4.1165">
        <ele>954.73</ele>
        <time>2013-08-25T14:49:53Z</time>
      </trkpt>
      <trkpt lat="44.57396" lon="4.1164">
        <ele>953.77</ele>
        <time>2013-08-25T14:49:54Z</time>
      </trkpt>
      <trkpt lat="44.57397" lon="4.11621">
        <ele>951.36</ele>
        <time>2013-08-25T14:49:56Z</time>
      </trkpt>
      <trkpt lat="44.57399" lon="4.11611">
        <ele>950.4</ele>
        <time>2013-08-25T14:49:57Z</time>
      </trkpt>
      <trkpt lat="44.57401" lon="4.11603">
        <ele>949.92</ele>
        <time>2013-08-25T14:49:58Z</time>
      </trkpt>
      <trkpt lat="44.57402" lon="4.11595">
        <ele>950.4</ele>
        <time>2013-08-25T14:49:59Z</time>
      </trkpt>
      <trkpt lat="44.57402" lon="4.11572">
        <ele>949.92</ele>
        <time>2013-08-25T14:50:03Z</time>
      </trkpt>
      <trkpt lat="44.574" lon="4.11569">
        <ele>949.92</ele>
        <time>2013-08-25T14:50:04Z</time>
      </trkpt>
      <trkpt lat="44.57396" lon="4.11567">
        <ele>949.92</ele>
        <time>2013-08-25T14:50:05Z</time>
      </trkpt>
      <trkpt lat="44.57393" lon="4.11566">
        <ele>949.92</ele>
        <time>2013-08-25T14:50:06Z</time>
      </trkpt>
      <trkpt lat="44.57388" lon="4.11567">
        <ele>949.44</ele>
        <time>2013-08-25T14:50:07Z</time>
      </trkpt>
      <trkpt lat="44.57384" lon="4.11567">
        <ele>948.96</ele>
        <time>2013-08-25T14:50:08Z</time>
      </trkpt>
      <trkpt lat="44.5738" lon="4.11568">
        <ele>948.48</ele>
        <time>2013-08-25T14:50:09Z</time>
      </trkpt>
      <trkpt lat="44.57377" lon="4.11567">
        <ele>948</ele>
        <time>2013-08-25T14:50:10Z</time>
      </trkpt>
      <trkpt lat="44.57366" lon="4.11562">
        <ele>945.11</ele>
        <time>2013-08-25T14:50:13Z</time>
      </trkpt>
      <trkpt lat="44.57362" lon="4.11559">
        <ele>943.67</ele>
        <time>2013-08-25T14:50:14Z</time>
      </trkpt>
      <trkpt lat="44.57351" lon="4.11551">
        <ele>942.23</ele>
        <time>2013-08-25T14:50:17Z</time>
      </trkpt>
      <trkpt lat="44.57345" lon="4.11545">
        <ele>941.27</ele>
        <time>2013-08-25T14:50:19Z</time>
      </trkpt>
      <trkpt lat="44.57335" lon="4.11535">
        <ele>939.35</ele>
        <time>2013-08-25T14:50:22Z</time>
      </trkpt>
      <trkpt lat="44.57331" lon="4.11531">
        <ele>937.9</ele>
        <time>2013-08-25T14:50:23Z</time>
      </trkpt>
      <trkpt lat="44.57315" lon="4.11519">
        <ele>935.02</ele>
        <time>2013-08-25T14:50:26Z</time>
      </trkpt>
      <trkpt lat="44.57292" lon="4.115">
        <ele>931.65</ele>
        <time>2013-08-25T14:50:31Z</time>
      </trkpt>
      <trkpt lat="44.57289" lon="4.11497">
        <ele>931.65</ele>
        <time>2013-08-25T14:50:32Z</time>
      </trkpt>
      <trkpt lat="44.57283" lon="4.1149">
        <ele>930.21</ele>
        <time>2013-08-25T14:50:34Z</time>
      </trkpt>
      <trkpt lat="44.5728" lon="4.11486">
        <ele>929.73</ele>
        <time>2013-08-25T14:50:35Z</time>
      </trkpt>
      <trkpt lat="44.57277" lon="4.11482">
        <ele>927.81</ele>
        <time>2013-08-25T14:50:36Z</time>
      </trkpt>
      <trkpt lat="44.57274" lon="4.11477">
        <ele>927.33</ele>
        <time>2013-08-25T14:50:37Z</time>
      </trkpt>
      <trkpt lat="44.57272" lon="4.11472">
        <ele>926.85</ele>
        <time>2013-08-25T14:50:38Z</time>
      </trkpt>
      <trkpt lat="44.57272" lon="4.11467">
        <ele>926.85</ele>
        <time>2013-08-25T14:50:39Z</time>
      </trkpt>
      <trkpt lat="44.57272" lon="4.11461">
        <ele>925.89</ele>
        <time>2013-08-25T14:50:40Z</time>
      </trkpt>
      <trkpt lat="44.57272" lon="4.11456">
        <ele>925.41</ele>
        <time>2013-08-25T14:50:41Z</time>
      </trkpt>
      <trkpt lat="44.57272" lon="4.1145">
        <ele>924.45</ele>
        <time>2013-08-25T14:50:42Z</time>
      </trkpt>
      <trkpt lat="44.57271" lon="4.11446">
        <ele>923.48</ele>
        <time>2013-08-25T14:50:43Z</time>
      </trkpt>
      <trkpt lat="44.57269" lon="4.11444">
        <ele>923</ele>
        <time>2013-08-25T14:50:44Z</time>
      </trkpt>
      <trkpt lat="44.57267" lon="4.11444">
        <ele>922.52</ele>
        <time>2013-08-25T14:50:45Z</time>
      </trkpt>
      <trkpt lat="44.57263" lon="4.1145">
        <ele>921.56</ele>
        <time>2013-08-25T14:50:47Z</time>
      </trkpt>
      <trkpt lat="44.57259" lon="4.1146">
        <ele>919.64</ele>
        <time>2013-08-25T14:50:49Z</time>
      </trkpt>
      <trkpt lat="44.57254" lon="4.11476">
        <ele>917.72</ele>
        <time>2013-08-25T14:50:52Z</time>
      </trkpt>
      <trkpt lat="44.57245" lon="4.11469">
        <ele>914.83</ele>
        <time>2013-08-25T14:50:59Z</time>
      </trkpt>
      <trkpt lat="44.57246" lon="4.11456">
        <ele>913.39</ele>
        <time>2013-08-25T14:51:02Z</time>
      </trkpt>
      <trkpt lat="44.57242" lon="4.11451">
        <ele>911.95</ele>
        <time>2013-08-25T14:51:04Z</time>
      </trkpt>
      <trkpt lat="44.5724" lon="4.1145">
        <ele>911.47</ele>
        <time>2013-08-25T14:51:05Z</time>
      </trkpt>
      <trkpt lat="44.57233" lon="4.11456">
        <ele>909.54</ele>
        <time>2013-08-25T14:51:08Z</time>
      </trkpt>
      <trkpt lat="44.57221" lon="4.11476">
        <ele>905.7</ele>
        <time>2013-08-25T14:51:13Z</time>
      </trkpt>
      <trkpt lat="44.57217" lon="4.11486">
        <ele>904.26</ele>
        <time>2013-08-25T14:51:15Z</time>
      </trkpt>
      <trkpt lat="44.57214" lon="4.11495">
        <ele>903.3</ele>
        <time>2013-08-25T14:51:17Z</time>
      </trkpt>
      <trkpt lat="44.57212" lon="4.11497">
        <ele>902.82</ele>
        <time>2013-08-25T14:51:18Z</time>
      </trkpt>
      <trkpt lat="44.57209" lon="4.11498">
        <ele>901.85</ele>
        <time>2013-08-25T14:51:19Z</time>
      </trkpt>
      <trkpt lat="44.57208" lon="4.11497">
        <ele>901.85</ele>
        <time>2013-08-25T14:51:20Z</time>
      </trkpt>
      <trkpt lat="44.57206" lon="4.11495">
        <ele>900.89</ele>
        <time>2013-08-25T14:51:21Z</time>
      </trkpt>
      <trkpt lat="44.57204" lon="4.11493">
        <ele>900.41</ele>
        <time>2013-08-25T14:51:22Z</time>
      </trkpt>
      <trkpt lat="44.57204" lon="4.11491">
        <ele>900.41</ele>
        <time>2013-08-25T14:51:31Z</time>
      </trkpt>
      <trkpt lat="44.57204" lon="4.11491">
        <ele>901.37</ele>
        <time>2013-08-25T14:51:49Z</time>
      </trkpt>
      <trkpt lat="44.57197" lon="4.11479">
        <ele>898.01</ele>
        <time>2013-08-25T14:51:56Z</time>
      </trkpt>
      <trkpt lat="44.57196" lon="4.11476">
        <ele>897.53</ele>
        <time>2013-08-25T14:51:57Z</time>
      </trkpt>
      <trkpt lat="44.57195" lon="4.11473">
        <ele>897.05</ele>
        <time>2013-08-25T14:51:58Z</time>
      </trkpt>
      <trkpt lat="44.57195" lon="4.11471">
        <ele>897.05</ele>
        <time>2013-08-25T14:51:59Z</time>
      </trkpt>
      <trkpt lat="44.57195" lon="4.11468">
        <ele>897.05</ele>
        <time>2013-08-25T14:52:00Z</time>
      </trkpt>
      <trkpt lat="44.57194" lon="4.11466">
        <ele>896.57</ele>
        <time>2013-08-25T14:52:01Z</time>
      </trkpt>
      <trkpt lat="44.57192" lon="4.11465">
        <ele>896.57</ele>
        <time>2013-08-25T14:52:02Z</time>
      </trkpt>
      <trkpt lat="44.57191" lon="4.11467">
        <ele>896.09</ele>
        <time>2013-08-25T14:52:03Z</time>
      </trkpt>
      <trkpt lat="44.57189" lon="4.1147">
        <ele>896.09</ele>
        <time>2013-08-25T14:52:04Z</time>
      </trkpt>
      <trkpt lat="44.57188" lon="4.11473">
        <ele>895.61</ele>
        <time>2013-08-25T14:52:05Z</time>
      </trkpt>
      <trkpt lat="44.57186" lon="4.11476">
        <ele>895.12</ele>
        <time>2013-08-25T14:52:06Z</time>
      </trkpt>
      <trkpt lat="44.57184" lon="4.11482">
        <ele>893.68</ele>
        <time>2013-08-25T14:52:08Z</time>
      </trkpt>
      <trkpt lat="44.57182" lon="4.11485">
        <ele>893.68</ele>
        <time>2013-08-25T14:52:09Z</time>
      </trkpt>
      <trkpt lat="44.57182" lon="4.11488">
        <ele>893.68</ele>
        <time>2013-08-25T14:52:10Z</time>
      </trkpt>
      <trkpt lat="44.57176" lon="4.11511">
        <ele>890.8</ele>
        <time>2013-08-25T14:52:19Z</time>
      </trkpt>
      <trkpt lat="44.57176" lon="4.11512">
        <ele>890.32</ele>
        <time>2013-08-25T14:52:20Z</time>
      </trkpt>
      <trkpt lat="44.57175" lon="4.11514">
        <ele>889.84</ele>
        <time>2013-08-25T14:52:21Z</time>
      </trkpt>
      <trkpt lat="44.57174" lon="4.11514">
        <ele>889.84</ele>
        <time>2013-08-25T14:52:22Z</time>
      </trkpt>
      <trkpt lat="44.57166" lon="4.11514">
        <ele>888.4</ele>
        <time>2013-08-25T14:52:27Z</time>
      </trkpt>
      <trkpt lat="44.57164" lon="4.11513">
        <ele>887.91</ele>
        <time>2013-08-25T14:52:42Z</time>
      </trkpt>
      <trkpt lat="44.57163" lon="4.11513">
        <ele>887.43</ele>
        <time>2013-08-25T14:52:53Z</time>
      </trkpt>
      <trkpt lat="44.57161" lon="4.11511">
        <ele>887.91</ele>
        <time>2013-08-25T14:52:54Z</time>
      </trkpt>
      <trkpt lat="44.57159" lon="4.11509">
        <ele>887.43</ele>
        <time>2013-08-25T14:52:55Z</time>
      </trkpt>
      <trkpt lat="44.57158" lon="4.11507">
        <ele>886.47</ele>
        <time>2013-08-25T14:52:56Z</time>
      </trkpt>
      <trkpt lat="44.57156" lon="4.11505">
        <ele>885.99</ele>
        <time>2013-08-25T14:52:57Z</time>
      </trkpt>
      <trkpt lat="44.57154" lon="4.11503">
        <ele>885.51</ele>
        <time>2013-08-25T14:52:58Z</time>
      </trkpt>
      <trkpt lat="44.57153" lon="4.115">
        <ele>885.03</ele>
        <time>2013-08-25T14:52:59Z</time>
      </trkpt>
      <trkpt lat="44.57153" lon="4.11498">
        <ele>885.51</ele>
        <time>2013-08-25T14:53:00Z</time>
      </trkpt>
      <trkpt lat="44.57153" lon="4.11496">
        <ele>885.03</ele>
        <time>2013-08-25T14:53:01Z</time>
      </trkpt>
      <trkpt lat="44.57152" lon="4.11493">
        <ele>884.55</ele>
        <time>2013-08-25T14:53:02Z</time>
      </trkpt>
      <trkpt lat="44.5715" lon="4.11492">
        <ele>884.55</ele>
        <time>2013-08-25T14:53:03Z</time>
      </trkpt>
      <trkpt lat="44.57148" lon="4.11492">
        <ele>884.07</ele>
        <time>2013-08-25T14:53:04Z</time>
      </trkpt>
      <trkpt lat="44.57147" lon="4.11494">
        <ele>883.59</ele>
        <time>2013-08-25T14:53:05Z</time>
      </trkpt>
      <trkpt lat="44.57145" lon="4.11495">
        <ele>883.11</ele>
        <time>2013-08-25T14:53:06Z</time>
      </trkpt>
      <trkpt lat="44.57144" lon="4.11497">
        <ele>883.11</ele>
        <time>2013-08-25T14:53:07Z</time>
      </trkpt>
      <trkpt lat="44.57142" lon="4.11499">
        <ele>882.63</ele>
        <time>2013-08-25T14:53:08Z</time>
      </trkpt>
      <trkpt lat="44.5714" lon="4.11501">
        <ele>882.63</ele>
        <time>2013-08-25T14:53:09Z</time>
      </trkpt>
      <trkpt lat="44.57138" lon="4.11503">
        <ele>882.15</ele>
        <time>2013-08-25T14:53:10Z</time>
      </trkpt>
      <trkpt lat="44.57136" lon="4.11505">
        <ele>882.15</ele>
        <time>2013-08-25T14:53:11Z</time>
      </trkpt>
      <trkpt lat="44.57134" lon="4.11507">
        <ele>881.67</ele>
        <time>2013-08-25T14:53:12Z</time>
      </trkpt>
      <trkpt lat="44.57133" lon="4.11509">
        <ele>881.19</ele>
        <time>2013-08-25T14:53:13Z</time>
      </trkpt>
      <trkpt lat="44.57124" lon="4.11527">
        <ele>879.26</ele>
        <time>2013-08-25T14:53:20Z</time>
      </trkpt>
      <trkpt lat="44.57122" lon="4.11528">
        <ele>878.78</ele>
        <time>2013-08-25T14:53:21Z</time>
      </trkpt>
      <trkpt lat="44.5712" lon="4.11528">
        <ele>878.3</ele>
        <time>2013-08-25T14:53:22Z</time>
      </trkpt>
      <trkpt lat="44.57118" lon="4.11528">
        <ele>877.82</ele>
        <time>2013-08-25T14:53:23Z</time>
      </trkpt>
      <trkpt lat="44.57116" lon="4.11529">
        <ele>877.34</ele>
        <time>2013-08-25T14:53:24Z</time>
      </trkpt>
      <trkpt lat="44.57114" lon="4.11531">
        <ele>877.34</ele>
        <time>2013-08-25T14:53:25Z</time>
      </trkpt>
      <trkpt lat="44.57113" lon="4.11532">
        <ele>876.86</ele>
        <time>2013-08-25T14:53:26Z</time>
      </trkpt>
      <trkpt lat="44.57111" lon="4.11534">
        <ele>876.38</ele>
        <time>2013-08-25T14:53:27Z</time>
      </trkpt>
      <trkpt lat="44.57109" lon="4.11536">
        <ele>876.38</ele>
        <time>2013-08-25T14:53:28Z</time>
      </trkpt>
      <trkpt lat="44.57101" lon="4.11543">
        <ele>873.01</ele>
        <time>2013-08-25T14:53:33Z</time>
      </trkpt>
      <trkpt lat="44.571" lon="4.11547">
        <ele>872.05</ele>
        <time>2013-08-25T14:53:41Z</time>
      </trkpt>
      <trkpt lat="44.57099" lon="4.11546">
        <ele>872.05</ele>
        <time>2013-08-25T14:53:58Z</time>
      </trkpt>
      <trkpt lat="44.57099" lon="4.11546">
        <ele>872.05</ele>
        <time>2013-08-25T14:54:26Z</time>
      </trkpt>
      <trkpt lat="44.57095" lon="4.11566">
        <ele>868.69</ele>
        <time>2013-08-25T14:54:34Z</time>
      </trkpt>
      <trkpt lat="44.57093" lon="4.11576">
        <ele>867.25</ele>
        <time>2013-08-25T14:54:37Z</time>
      </trkpt>
      <trkpt lat="44.57093" lon="4.11579">
        <ele>867.25</ele>
        <time>2013-08-25T14:54:38Z</time>
      </trkpt>
      <trkpt lat="44.57095" lon="4.11583">
        <ele>866.77</ele>
        <time>2013-08-25T14:54:55Z</time>
      </trkpt>
      <trkpt lat="44.57095" lon="4.11583">
        <ele>866.77</ele>
        <time>2013-08-25T14:55:21Z</time>
      </trkpt>
      <trkpt lat="44.57095" lon="4.11583">
        <ele>866.77</ele>
        <time>2013-08-25T14:55:31Z</time>
      </trkpt>
      <trkpt lat="44.57097" lon="4.11583">
        <ele>866.29</ele>
        <time>2013-08-25T14:55:33Z</time>
      </trkpt>
      <trkpt lat="44.57107" lon="4.11594">
        <ele>862.92</ele>
        <time>2013-08-25T14:55:42Z</time>
      </trkpt>
      <trkpt lat="44.57103" lon="4.116">
        <ele>861.48</ele>
        <time>2013-08-25T14:55:45Z</time>
      </trkpt>
      <trkpt lat="44.57091" lon="4.11618">
        <ele>858.11</ele>
        <time>2013-08-25T14:55:52Z</time>
      </trkpt>
      <trkpt lat="44.57081" lon="4.11629">
        <ele>855.71</ele>
        <time>2013-08-25T14:55:56Z</time>
      </trkpt>
      <trkpt lat="44.57069" lon="4.11641">
        <ele>853.31</ele>
        <time>2013-08-25T14:56:01Z</time>
      </trkpt>
      <trkpt lat="44.57056" lon="4.11642">
        <ele>850.9</ele>
        <time>2013-08-25T14:56:11Z</time>
      </trkpt>
      <trkpt lat="44.57056" lon="4.11642">
        <ele>850.9</ele>
        <time>2013-08-25T14:56:19Z</time>
      </trkpt>
      <trkpt lat="44.57049" lon="4.11613">
        <ele>847.06</ele>
        <time>2013-08-25T14:56:28Z</time>
      </trkpt>
      <trkpt lat="44.5704" lon="4.11622">
        <ele>844.18</ele>
        <time>2013-08-25T14:56:33Z</time>
      </trkpt>
      <trkpt lat="44.57036" lon="4.11634">
        <ele>842.25</ele>
        <time>2013-08-25T14:56:36Z</time>
      </trkpt>
      <trkpt lat="44.57026" lon="4.11654">
        <ele>839.37</ele>
        <time>2013-08-25T14:56:41Z</time>
      </trkpt>
      <trkpt lat="44.57015" lon="4.11677">
        <ele>836</ele>
        <time>2013-08-25T14:56:46Z</time>
      </trkpt>
      <trkpt lat="44.57012" lon="4.11681">
        <ele>835.04</ele>
        <time>2013-08-25T14:56:47Z</time>
      </trkpt>
      <trkpt lat="44.5701" lon="4.11685">
        <ele>834.56</ele>
        <time>2013-08-25T14:56:48Z</time>
      </trkpt>
      <trkpt lat="44.57007" lon="4.11688">
        <ele>834.08</ele>
        <time>2013-08-25T14:56:49Z</time>
      </trkpt>
      <trkpt lat="44.57005" lon="4.11692">
        <ele>833.6</ele>
        <time>2013-08-25T14:56:50Z</time>
      </trkpt>
      <trkpt lat="44.57002" lon="4.11694">
        <ele>832.64</ele>
        <time>2013-08-25T14:56:51Z</time>
      </trkpt>
      <trkpt lat="44.56994" lon="4.11703">
        <ele>830.72</ele>
        <time>2013-08-25T14:56:54Z</time>
      </trkpt>
      <trkpt lat="44.56989" lon="4.11708">
        <ele>830.24</ele>
        <time>2013-08-25T14:56:56Z</time>
      </trkpt>
      <trkpt lat="44.56987" lon="4.11709">
        <ele>829.76</ele>
        <time>2013-08-25T14:56:57Z</time>
      </trkpt>
      <trkpt lat="44.56984" lon="4.1171">
        <ele>829.27</ele>
        <time>2013-08-25T14:56:58Z</time>
      </trkpt>
      <trkpt lat="44.56983" lon="4.11711">
        <ele>828.79</ele>
        <time>2013-08-25T14:56:59Z</time>
      </trkpt>
      <trkpt lat="44.56983" lon="4.11708">
        <ele>828.79</ele>
        <time>2013-08-25T14:57:05Z</time>
      </trkpt>
      <trkpt lat="44.56983" lon="4.11706">
        <ele>828.31</ele>
        <time>2013-08-25T14:57:06Z</time>
      </trkpt>
      <trkpt lat="44.56984" lon="4.11704">
        <ele>828.31</ele>
        <time>2013-08-25T14:57:07Z</time>
      </trkpt>
      <trkpt lat="44.56984" lon="4.11703">
        <ele>828.79</ele>
        <time>2013-08-25T14:57:17Z</time>
      </trkpt>
      <trkpt lat="44.56987" lon="4.11687">
        <ele>827.35</ele>
        <time>2013-08-25T14:57:25Z</time>
      </trkpt>
      <trkpt lat="44.56991" lon="4.11672">
        <ele>826.87</ele>
        <time>2013-08-25T14:57:29Z</time>
      </trkpt>
      <trkpt lat="44.56989" lon="4.11669">
        <ele>825.91</ele>
        <time>2013-08-25T14:57:30Z</time>
      </trkpt>
      <trkpt lat="44.56987" lon="4.11669">
        <ele>825.43</ele>
        <time>2013-08-25T14:57:31Z</time>
      </trkpt>
      <trkpt lat="44.56985" lon="4.11671">
        <ele>824.95</ele>
        <time>2013-08-25T14:57:32Z</time>
      </trkpt>
      <trkpt lat="44.56983" lon="4.11674">
        <ele>824.47</ele>
        <time>2013-08-25T14:57:33Z</time>
      </trkpt>
      <trkpt lat="44.56981" lon="4.11677">
        <ele>823.99</ele>
        <time>2013-08-25T14:57:34Z</time>
      </trkpt>
      <trkpt lat="44.56965" lon="4.11698">
        <ele>820.62</ele>
        <time>2013-08-25T14:57:40Z</time>
      </trkpt>
      <trkpt lat="44.56957" lon="4.11709">
        <ele>818.7</ele>
        <time>2013-08-25T14:57:43Z</time>
      </trkpt>
      <trkpt lat="44.56951" lon="4.11716">
        <ele>816.78</ele>
        <time>2013-08-25T14:57:45Z</time>
      </trkpt>
      <trkpt lat="44.56948" lon="4.11719">
        <ele>816.3</ele>
        <time>2013-08-25T14:57:46Z</time>
      </trkpt>
      <trkpt lat="44.56945" lon="4.11722">
        <ele>815.82</ele>
        <time>2013-08-25T14:57:47Z</time>
      </trkpt>
      <trkpt lat="44.56942" lon="4.11725">
        <ele>814.85</ele>
        <time>2013-08-25T14:57:48Z</time>
      </trkpt>
      <trkpt lat="44.5694" lon="4.11728">
        <ele>814.37</ele>
        <time>2013-08-25T14:57:49Z</time>
      </trkpt>
      <trkpt lat="44.56937" lon="4.11731">
        <ele>813.41</ele>
        <time>2013-08-25T14:57:50Z</time>
      </trkpt>
      <trkpt lat="44.56933" lon="4.11734">
        <ele>812.93</ele>
        <time>2013-08-25T14:57:51Z</time>
      </trkpt>
      <trkpt lat="44.56929" lon="4.11737">
        <ele>811.49</ele>
        <time>2013-08-25T14:57:52Z</time>
      </trkpt>
      <trkpt lat="44.56918" lon="4.11747">
        <ele>808.61</ele>
        <time>2013-08-25T14:57:55Z</time>
      </trkpt>
      <trkpt lat="44.56904" lon="4.11759">
        <ele>806.2</ele>
        <time>2013-08-25T14:57:59Z</time>
      </trkpt>
      <trkpt lat="44.56896" lon="4.11769">
        <ele>804.76</ele>
        <time>2013-08-25T14:58:02Z</time>
      </trkpt>
      <trkpt lat="44.5689" lon="4.11777">
        <ele>803.32</ele>
        <time>2013-08-25T14:58:04Z</time>
      </trkpt>
      <trkpt lat="44.56878" lon="4.11799">
        <ele>800.44</ele>
        <time>2013-08-25T14:58:10Z</time>
      </trkpt>
      <trkpt lat="44.5687" lon="4.1181">
        <ele>798.51</ele>
        <time>2013-08-25T14:58:13Z</time>
      </trkpt>
      <trkpt lat="44.56864" lon="4.11816">
        <ele>797.55</ele>
        <time>2013-08-25T14:58:15Z</time>
      </trkpt>
      <trkpt lat="44.56849" lon="4.11823">
        <ele>794.19</ele>
        <time>2013-08-25T14:58:20Z</time>
      </trkpt>
      <trkpt lat="44.56831" lon="4.11829">
        <ele>791.3</ele>
        <time>2013-08-25T14:58:25Z</time>
      </trkpt>
      <trkpt lat="44.56816" lon="4.11828">
        <ele>788.9</ele>
        <time>2013-08-25T14:58:29Z</time>
      </trkpt>
      <trkpt lat="44.56812" lon="4.11829">
        <ele>788.42</ele>
        <time>2013-08-25T14:58:30Z</time>
      </trkpt>
      <trkpt lat="44.56806" lon="4.11829">
        <ele>788.42</ele>
        <time>2013-08-25T14:58:31Z</time>
      </trkpt>
      <trkpt lat="44.56796" lon="4.11829">
        <ele>787.46</ele>
        <time>2013-08-25T14:58:33Z</time>
      </trkpt>
      <trkpt lat="44.56791" lon="4.11828">
        <ele>787.46</ele>
        <time>2013-08-25T14:58:34Z</time>
      </trkpt>
      <trkpt lat="44.56785" lon="4.11828">
        <ele>786.5</ele>
        <time>2013-08-25T14:58:35Z</time>
      </trkpt>
      <trkpt lat="44.5678" lon="4.11828">
        <ele>786.5</ele>
        <time>2013-08-25T14:58:36Z</time>
      </trkpt>
      <trkpt lat="44.56774" lon="4.11829">
        <ele>786.02</ele>
        <time>2013-08-25T14:58:37Z</time>
      </trkpt>
      <trkpt lat="44.56741" lon="4.11833">
        <ele>782.65</ele>
        <time>2013-08-25T14:58:42Z</time>
      </trkpt>
      <trkpt lat="44.56735" lon="4.11832">
        <ele>781.21</ele>
        <time>2013-08-25T14:58:43Z</time>
      </trkpt>
      <trkpt lat="44.56727" lon="4.11831">
        <ele>779.29</ele>
        <time>2013-08-25T14:58:44Z</time>
      </trkpt>
      <trkpt lat="44.56719" lon="4.11831">
        <ele>777.84</ele>
        <time>2013-08-25T14:58:45Z</time>
      </trkpt>
      <trkpt lat="44.56712" lon="4.1183">
        <ele>776.4</ele>
        <time>2013-08-25T14:58:46Z</time>
      </trkpt>
      <trkpt lat="44.56675" lon="4.1183">
        <ele>773.52</ele>
        <time>2013-08-25T14:58:52Z</time>
      </trkpt>
      <trkpt lat="44.5667" lon="4.11831">
        <ele>773.52</ele>
        <time>2013-08-25T14:58:53Z</time>
      </trkpt>
      <trkpt lat="44.56665" lon="4.11832">
        <ele>772.56</ele>
        <time>2013-08-25T14:58:54Z</time>
      </trkpt>
      <trkpt lat="44.56661" lon="4.11833">
        <ele>772.56</ele>
        <time>2013-08-25T14:58:55Z</time>
      </trkpt>
      <trkpt lat="44.56656" lon="4.11835">
        <ele>771.11</ele>
        <time>2013-08-25T14:58:56Z</time>
      </trkpt>
      <trkpt lat="44.5665" lon="4.11837">
        <ele>769.67</ele>
        <time>2013-08-25T14:58:57Z</time>
      </trkpt>
      <trkpt lat="44.56645" lon="4.11838">
        <ele>768.71</ele>
        <time>2013-08-25T14:58:58Z</time>
      </trkpt>
      <trkpt lat="44.56639" lon="4.1184">
        <ele>767.75</ele>
        <time>2013-08-25T14:58:59Z</time>
      </trkpt>
      <trkpt lat="44.56633" lon="4.11843">
        <ele>767.27</ele>
        <time>2013-08-25T14:59:00Z</time>
      </trkpt>
      <trkpt lat="44.56627" lon="4.11845">
        <ele>767.27</ele>
        <time>2013-08-25T14:59:01Z</time>
      </trkpt>
      <trkpt lat="44.56621" lon="4.11847">
        <ele>766.79</ele>
        <time>2013-08-25T14:59:02Z</time>
      </trkpt>
      <trkpt lat="44.56607" lon="4.11853">
        <ele>765.83</ele>
        <time>2013-08-25T14:59:04Z</time>
      </trkpt>
      <trkpt lat="44.56601" lon="4.11854">
        <ele>765.35</ele>
        <time>2013-08-25T14:59:05Z</time>
      </trkpt>
      <trkpt lat="44.5658" lon="4.11852">
        <ele>764.39</ele>
        <time>2013-08-25T14:59:12Z</time>
      </trkpt>
      <trkpt lat="44.56572" lon="4.11852">
        <ele>762.46</ele>
        <time>2013-08-25T14:59:14Z</time>
      </trkpt>
      <trkpt lat="44.56567" lon="4.11853">
        <ele>761.98</ele>
        <time>2013-08-25T14:59:15Z</time>
      </trkpt>
      <trkpt lat="44.56562" lon="4.11854">
        <ele>761.98</ele>
        <time>2013-08-25T14:59:16Z</time>
      </trkpt>
      <trkpt lat="44.5655" lon="4.11858">
        <ele>759.58</ele>
        <time>2013-08-25T14:59:19Z</time>
      </trkpt>
      <trkpt lat="44.56546" lon="4.1186">
        <ele>759.58</ele>
        <time>2013-08-25T14:59:20Z</time>
      </trkpt>
      <trkpt lat="44.56541" lon="4.11863">
        <ele>757.66</ele>
        <time>2013-08-25T14:59:21Z</time>
      </trkpt>
      <trkpt lat="44.56538" lon="4.11866">
        <ele>757.66</ele>
        <time>2013-08-25T14:59:22Z</time>
      </trkpt>
      <trkpt lat="44.56535" lon="4.11869">
        <ele>756.69</ele>
        <time>2013-08-25T14:59:23Z</time>
      </trkpt>
      <trkpt lat="44.56532" lon="4.11873">
        <ele>756.69</ele>
        <time>2013-08-25T14:59:24Z</time>
      </trkpt>
      <trkpt lat="44.5653" lon="4.11876">
        <ele>756.21</ele>
        <time>2013-08-25T14:59:25Z</time>
      </trkpt>
      <trkpt lat="44.56527" lon="4.1188">
        <ele>755.25</ele>
        <time>2013-08-25T14:59:26Z</time>
      </trkpt>
      <trkpt lat="44.56525" lon="4.11885">
        <ele>755.25</ele>
        <time>2013-08-25T14:59:27Z</time>
      </trkpt>
      <trkpt lat="44.56508" lon="4.11909">
        <ele>751.89</ele>
        <time>2013-08-25T14:59:34Z</time>
      </trkpt>
      <trkpt lat="44.56506" lon="4.11911">
        <ele>751.89</ele>
        <time>2013-08-25T14:59:35Z</time>
      </trkpt>
      <trkpt lat="44.565" lon="4.11917">
        <ele>750.93</ele>
        <time>2013-08-25T14:59:39Z</time>
      </trkpt>
      <trkpt lat="44.56499" lon="4.11919">
        <ele>748.04</ele>
        <time>2013-08-25T14:59:48Z</time>
      </trkpt>
      <trkpt lat="44.56499" lon="4.11919">
        <ele>751.41</ele>
        <time>2013-08-25T14:59:54Z</time>
      </trkpt>
      <trkpt lat="44.56499" lon="4.11919">
        <ele>747.08</ele>
        <time>2013-08-25T14:59:56Z</time>
      </trkpt>
      <trkpt lat="44.56499" lon="4.11919">
        <ele>749.49</ele>
        <time>2013-08-25T14:59:57Z</time>
      </trkpt>
      <trkpt lat="44.56499" lon="4.11919">
        <ele>752.85</ele>
        <time>2013-08-25T15:00:02Z</time>
      </trkpt>
      <trkpt lat="44.56499" lon="4.11919">
        <ele>748.04</ele>
        <time>2013-08-25T15:00:05Z</time>
      </trkpt>
      <trkpt lat="44.56499" lon="4.11919">
        <ele>750.45</ele>
        <time>2013-08-25T15:00:27Z</time>
      </trkpt>
      <trkpt lat="44.56497" lon="4.1193">
        <ele>749</ele>
        <time>2013-08-25T15:00:52Z</time>
      </trkpt>
      <trkpt lat="44.56495" lon="4.11935">
        <ele>748.04</ele>
        <time>2013-08-25T15:00:53Z</time>
      </trkpt>
      <trkpt lat="44.5648" lon="4.11959">
        <ele>744.68</ele>
        <time>2013-08-25T15:00:57Z</time>
      </trkpt>
      <trkpt lat="44.56475" lon="4.11966">
        <ele>744.68</ele>
        <time>2013-08-25T15:00:58Z</time>
      </trkpt>
      <trkpt lat="44.56466" lon="4.11982">
        <ele>743.24</ele>
        <time>2013-08-25T15:01:00Z</time>
      </trkpt>
      <trkpt lat="44.5646" lon="4.11988">
        <ele>742.76</ele>
        <time>2013-08-25T15:01:01Z</time>
      </trkpt>
      <trkpt lat="44.56453" lon="4.11993">
        <ele>741.31</ele>
        <time>2013-08-25T15:01:02Z</time>
      </trkpt>
      <trkpt lat="44.56446" lon="4.11999">
        <ele>740.83</ele>
        <time>2013-08-25T15:01:03Z</time>
      </trkpt>
      <trkpt lat="44.5644" lon="4.12004">
        <ele>740.35</ele>
        <time>2013-08-25T15:01:04Z</time>
      </trkpt>
      <trkpt lat="44.56437" lon="4.12008">
        <ele>740.83</ele>
        <time>2013-08-25T15:01:05Z</time>
      </trkpt>
      <trkpt lat="44.56427" lon="4.12011">
        <ele>739.87</ele>
        <time>2013-08-25T15:01:12Z</time>
      </trkpt>
      <trkpt lat="44.56427" lon="4.12012">
        <ele>740.35</ele>
        <time>2013-08-25T15:01:26Z</time>
      </trkpt>
      <trkpt lat="44.56426" lon="4.12013">
        <ele>739.87</ele>
        <time>2013-08-25T15:01:34Z</time>
      </trkpt>
      <trkpt lat="44.56425" lon="4.12015">
        <ele>740.35</ele>
        <time>2013-08-25T15:01:35Z</time>
      </trkpt>
      <trkpt lat="44.56422" lon="4.12019">
        <ele>739.39</ele>
        <time>2013-08-25T15:01:37Z</time>
      </trkpt>
      <trkpt lat="44.56421" lon="4.12022">
        <ele>738.91</ele>
        <time>2013-08-25T15:01:38Z</time>
      </trkpt>
      <trkpt lat="44.5642" lon="4.12025">
        <ele>738.43</ele>
        <time>2013-08-25T15:01:39Z</time>
      </trkpt>
      <trkpt lat="44.56419" lon="4.12027">
        <ele>737.95</ele>
        <time>2013-08-25T15:01:40Z</time>
      </trkpt>
      <trkpt lat="44.56418" lon="4.12029">
        <ele>737.95</ele>
        <time>2013-08-25T15:01:41Z</time>
      </trkpt>
      <trkpt lat="44.56416" lon="4.12031">
        <ele>737.47</ele>
        <time>2013-08-25T15:01:42Z</time>
      </trkpt>
      <trkpt lat="44.56415" lon="4.12034">
        <ele>736.51</ele>
        <time>2013-08-25T15:01:43Z</time>
      </trkpt>
      <trkpt lat="44.56413" lon="4.12038">
        <ele>736.03</ele>
        <time>2013-08-25T15:01:44Z</time>
      </trkpt>
      <trkpt lat="44.56399" lon="4.1205">
        <ele>734.1</ele>
        <time>2013-08-25T15:01:49Z</time>
      </trkpt>
      <trkpt lat="44.56396" lon="4.12056">
        <ele>733.14</ele>
        <time>2013-08-25T15:01:51Z</time>
      </trkpt>
      <trkpt lat="44.56385" lon="4.12059">
        <ele>730.74</ele>
        <time>2013-08-25T15:01:56Z</time>
      </trkpt>
      <trkpt lat="44.56379" lon="4.12067">
        <ele>729.3</ele>
        <time>2013-08-25T15:01:59Z</time>
      </trkpt>
      <trkpt lat="44.5637" lon="4.12079">
        <ele>725.93</ele>
        <time>2013-08-25T15:02:03Z</time>
      </trkpt>
      <trkpt lat="44.56368" lon="4.12082">
        <ele>725.45</ele>
        <time>2013-08-25T15:02:04Z</time>
      </trkpt>
      <trkpt lat="44.56361" lon="4.12089">
        <ele>723.53</ele>
        <time>2013-08-25T15:02:07Z</time>
      </trkpt>
      <trkpt lat="44.5635" lon="4.12098">
        <ele>721.13</ele>
        <time>2013-08-25T15:02:12Z</time>
      </trkpt>
      <trkpt lat="44.56343" lon="4.121">
        <ele>719.2</ele>
        <time>2013-08-25T15:02:15Z</time>
      </trkpt>
      <trkpt lat="44.56337" lon="4.12103">
        <ele>718.24</ele>
        <time>2013-08-25T15:02:27Z</time>
      </trkpt>
      <trkpt lat="44.56337" lon="4.12103">
        <ele>718.24</ele>
        <time>2013-08-25T15:02:56Z</time>
      </trkpt>
      <trkpt lat="44.56337" lon="4.12104">
        <ele>717.28</ele>
        <time>2013-08-25T15:03:21Z</time>
      </trkpt>
      <trkpt lat="44.56336" lon="4.12105">
        <ele>717.28</ele>
        <time>2013-08-25T15:03:23Z</time>
      </trkpt>
      <trkpt lat="44.56332" lon="4.12116">
        <ele>716.32</ele>
        <time>2013-08-25T15:03:31Z</time>
      </trkpt>
      <trkpt lat="44.56329" lon="4.12115">
        <ele>716.32</ele>
        <time>2013-08-25T15:03:36Z</time>
      </trkpt>
      <trkpt lat="44.56331" lon="4.12113">
        <ele>716.8</ele>
        <time>2013-08-25T15:03:43Z</time>
      </trkpt>
      <trkpt lat="44.56331" lon="4.12112">
        <ele>716.8</ele>
        <time>2013-08-25T15:04:00Z</time>
      </trkpt>
      <trkpt lat="44.56331" lon="4.12112">
        <ele>716.8</ele>
        <time>2013-08-25T15:04:31Z</time>
      </trkpt>
      <trkpt lat="44.56331" lon="4.12113">
        <ele>716.32</ele>
        <time>2013-08-25T15:04:39Z</time>
      </trkpt>
      <trkpt lat="44.56316" lon="4.12134">
        <ele>713.44</ele>
        <time>2013-08-25T15:04:46Z</time>
      </trkpt>
      <trkpt lat="44.56308" lon="4.12144">
        <ele>712.47</ele>
        <time>2013-08-25T15:04:48Z</time>
      </trkpt>
      <trkpt lat="44.56303" lon="4.12149">
        <ele>711.51</ele>
        <time>2013-08-25T15:04:49Z</time>
      </trkpt>
      <trkpt lat="44.56298" lon="4.12155">
        <ele>710.55</ele>
        <time>2013-08-25T15:04:50Z</time>
      </trkpt>
      <trkpt lat="44.56294" lon="4.1216">
        <ele>710.07</ele>
        <time>2013-08-25T15:04:51Z</time>
      </trkpt>
      <trkpt lat="44.56288" lon="4.12166">
        <ele>709.59</ele>
        <time>2013-08-25T15:04:52Z</time>
      </trkpt>
      <trkpt lat="44.56282" lon="4.12171">
        <ele>709.59</ele>
        <time>2013-08-25T15:04:53Z</time>
      </trkpt>
      <trkpt lat="44.56277" lon="4.12175">
        <ele>708.63</ele>
        <time>2013-08-25T15:04:54Z</time>
      </trkpt>
      <trkpt lat="44.56272" lon="4.12176">
        <ele>708.63</ele>
        <time>2013-08-25T15:04:55Z</time>
      </trkpt>
      <trkpt lat="44.56269" lon="4.12175">
        <ele>709.59</ele>
        <time>2013-08-25T15:04:56Z</time>
      </trkpt>
      <trkpt lat="44.56268" lon="4.12173">
        <ele>709.11</ele>
        <time>2013-08-25T15:04:57Z</time>
      </trkpt>
      <trkpt lat="44.56266" lon="4.12172">
        <ele>709.11</ele>
        <time>2013-08-25T15:04:58Z</time>
      </trkpt>
      <trkpt lat="44.56265" lon="4.12173">
        <ele>709.11</ele>
        <time>2013-08-25T15:04:59Z</time>
      </trkpt>
      <trkpt lat="44.56263" lon="4.12174">
        <ele>709.11</ele>
        <time>2013-08-25T15:05:00Z</time>
      </trkpt>
      <trkpt lat="44.56262" lon="4.12176">
        <ele>709.11</ele>
        <time>2013-08-25T15:05:01Z</time>
      </trkpt>
      <trkpt lat="44.5626" lon="4.12178">
        <ele>709.11</ele>
        <time>2013-08-25T15:05:02Z</time>
      </trkpt>
      <trkpt lat="44.56258" lon="4.12181">
        <ele>708.63</ele>
        <time>2013-08-25T15:05:03Z</time>
      </trkpt>
      <trkpt lat="44.56255" lon="4.12183">
        <ele>708.63</ele>
        <time>2013-08-25T15:05:04Z</time>
      </trkpt>
      <trkpt lat="44.56253" lon="4.12186">
        <ele>708.63</ele>
        <time>2013-08-25T15:05:05Z</time>
      </trkpt>
      <trkpt lat="44.5622" lon="4.12217">
        <ele>709.59</ele>
        <time>2013-08-25T15:05:19Z</time>
      </trkpt>
      <trkpt lat="44.5622" lon="4.1222">
        <ele>709.59</ele>
        <time>2013-08-25T15:05:20Z</time>
      </trkpt>
      <trkpt lat="44.56228" lon="4.12236">
        <ele>709.11</ele>
        <time>2013-08-25T15:05:27Z</time>
      </trkpt>
      <trkpt lat="44.56229" lon="4.1224">
        <ele>709.59</ele>
        <time>2013-08-25T15:05:28Z</time>
      </trkpt>
      <trkpt lat="44.56229" lon="4.12243">
        <ele>709.59</ele>
        <time>2013-08-25T15:05:29Z</time>
      </trkpt>
      <trkpt lat="44.56225" lon="4.12252">
        <ele>710.55</ele>
        <time>2013-08-25T15:05:33Z</time>
      </trkpt>
      <trkpt lat="44.56223" lon="4.12254">
        <ele>711.03</ele>
        <time>2013-08-25T15:05:34Z</time>
      </trkpt>
      <trkpt lat="44.56221" lon="4.12256">
        <ele>711.51</ele>
        <time>2013-08-25T15:05:35Z</time>
      </trkpt>
      <trkpt lat="44.5622" lon="4.12259">
        <ele>711.03</ele>
        <time>2013-08-25T15:05:36Z</time>
      </trkpt>
      <trkpt lat="44.56218" lon="4.12261">
        <ele>711.51</ele>
        <time>2013-08-25T15:05:37Z</time>
      </trkpt>
      <trkpt lat="44.56199" lon="4.12296">
        <ele>714.88</ele>
        <time>2013-08-25T15:05:49Z</time>
      </trkpt>
      <trkpt lat="44.56183" lon="4.12327">
        <ele>717.76</ele>
        <time>2013-08-25T15:06:00Z</time>
      </trkpt>
      <trkpt lat="44.56158" lon="4.12343">
        <ele>719.2</ele>
        <time>2013-08-25T15:06:12Z</time>
      </trkpt>
      <trkpt lat="44.5615" lon="4.12349">
        <ele>718.72</ele>
        <time>2013-08-25T15:06:17Z</time>
      </trkpt>
      <trkpt lat="44.56149" lon="4.1235">
        <ele>718.72</ele>
        <time>2013-08-25T15:06:18Z</time>
      </trkpt>
      <trkpt lat="44.56148" lon="4.12352">
        <ele>718.72</ele>
        <time>2013-08-25T15:06:19Z</time>
      </trkpt>
      <trkpt lat="44.56146" lon="4.12352">
        <ele>719.2</ele>
        <time>2013-08-25T15:06:20Z</time>
      </trkpt>
      <trkpt lat="44.56145" lon="4.12353">
        <ele>719.2</ele>
        <time>2013-08-25T15:06:21Z</time>
      </trkpt>
      <trkpt lat="44.56143" lon="4.12354">
        <ele>719.2</ele>
        <time>2013-08-25T15:06:22Z</time>
      </trkpt>
      <trkpt lat="44.56142" lon="4.12355">
        <ele>719.2</ele>
        <time>2013-08-25T15:06:33Z</time>
      </trkpt>
      <trkpt lat="44.56128" lon="4.12362">
        <ele>718.24</ele>
        <time>2013-08-25T15:06:47Z</time>
      </trkpt>
      <trkpt lat="44.56107" lon="4.12378">
        <ele>717.28</ele>
        <time>2013-08-25T15:06:54Z</time>
      </trkpt>
      <trkpt lat="44.56094" lon="4.12386">
        <ele>715.84</ele>
        <time>2013-08-25T15:06:57Z</time>
      </trkpt>
      <trkpt lat="44.56089" lon="4.12388">
        <ele>715.36</ele>
        <time>2013-08-25T15:06:58Z</time>
      </trkpt>
      <trkpt lat="44.56074" lon="4.1239">
        <ele>715.84</ele>
        <time>2013-08-25T15:07:01Z</time>
      </trkpt>
      <trkpt lat="44.5606" lon="4.12391">
        <ele>714.4</ele>
        <time>2013-08-25T15:07:04Z</time>
      </trkpt>
      <trkpt lat="44.56055" lon="4.1239">
        <ele>714.88</ele>
        <time>2013-08-25T15:07:05Z</time>
      </trkpt>
      <trkpt lat="44.56033" lon="4.12388">
        <ele>716.32</ele>
        <time>2013-08-25T15:07:11Z</time>
      </trkpt>
      <trkpt lat="44.56029" lon="4.12388">
        <ele>715.84</ele>
        <time>2013-08-25T15:07:12Z</time>
      </trkpt>
      <trkpt lat="44.5601" lon="4.12387">
        <ele>718.72</ele>
        <time>2013-08-25T15:07:17Z</time>
      </trkpt>
      <trkpt lat="44.55976" lon="4.12379">
        <ele>720.16</ele>
        <time>2013-08-25T15:07:27Z</time>
      </trkpt>
      <trkpt lat="44.55946" lon="4.1236">
        <ele>722.57</ele>
        <time>2013-08-25T15:07:36Z</time>
      </trkpt>
      <trkpt lat="44.55944" lon="4.12359">
        <ele>722.57</ele>
        <time>2013-08-25T15:07:37Z</time>
      </trkpt>
      <trkpt lat="44.5594" lon="4.1236">
        <ele>723.05</ele>
        <time>2013-08-25T15:07:38Z</time>
      </trkpt>
      <trkpt lat="44.55938" lon="4.1236">
        <ele>723.53</ele>
        <time>2013-08-25T15:07:39Z</time>
      </trkpt>
      <trkpt lat="44.55935" lon="4.12361">
        <ele>724.01</ele>
        <time>2013-08-25T15:07:40Z</time>
      </trkpt>
      <trkpt lat="44.55932" lon="4.12361">
        <ele>724.49</ele>
        <time>2013-08-25T15:07:41Z</time>
      </trkpt>
      <trkpt lat="44.55916" lon="4.12364">
        <ele>724.97</ele>
        <time>2013-08-25T15:07:52Z</time>
      </trkpt>
      <trkpt lat="44.55915" lon="4.12364">
        <ele>724.97</ele>
        <time>2013-08-25T15:07:53Z</time>
      </trkpt>
      <trkpt lat="44.55914" lon="4.12364">
        <ele>724.49</ele>
        <time>2013-08-25T15:07:54Z</time>
      </trkpt>
      <trkpt lat="44.55913" lon="4.12364">
        <ele>724.97</ele>
        <time>2013-08-25T15:07:55Z</time>
      </trkpt>
      <trkpt lat="44.55911" lon="4.12364">
        <ele>724.97</ele>
        <time>2013-08-25T15:07:56Z</time>
      </trkpt>
      <trkpt lat="44.5591" lon="4.12365">
        <ele>724.97</ele>
        <time>2013-08-25T15:07:57Z</time>
      </trkpt>
      <trkpt lat="44.55909" lon="4.12365">
        <ele>724.97</ele>
        <time>2013-08-25T15:07:58Z</time>
      </trkpt>
      <trkpt lat="44.55907" lon="4.12366">
        <ele>724.97</ele>
        <time>2013-08-25T15:07:59Z</time>
      </trkpt>
      <trkpt lat="44.55906" lon="4.12366">
        <ele>724.97</ele>
        <time>2013-08-25T15:08:00Z</time>
      </trkpt>
      <trkpt lat="44.55905" lon="4.12366">
        <ele>724.97</ele>
        <time>2013-08-25T15:08:01Z</time>
      </trkpt>
      <trkpt lat="44.55904" lon="4.12366">
        <ele>724.97</ele>
        <time>2013-08-25T15:08:02Z</time>
      </trkpt>
      <trkpt lat="44.55903" lon="4.12366">
        <ele>724.97</ele>
        <time>2013-08-25T15:08:03Z</time>
      </trkpt>
      <trkpt lat="44.55902" lon="4.12366">
        <ele>724.97</ele>
        <time>2013-08-25T15:08:04Z</time>
      </trkpt>
      <trkpt lat="44.55901" lon="4.12366">
        <ele>725.45</ele>
        <time>2013-08-25T15:08:05Z</time>
      </trkpt>
      <trkpt lat="44.55899" lon="4.12366">
        <ele>725.93</ele>
        <time>2013-08-25T15:08:06Z</time>
      </trkpt>
      <trkpt lat="44.55898" lon="4.12366">
        <ele>725.45</ele>
        <time>2013-08-25T15:08:07Z</time>
      </trkpt>
      <trkpt lat="44.55896" lon="4.12366">
        <ele>725.45</ele>
        <time>2013-08-25T15:08:08Z</time>
      </trkpt>
      <trkpt lat="44.55893" lon="4.12365">
        <ele>725.45</ele>
        <time>2013-08-25T15:08:11Z</time>
      </trkpt>
      <trkpt lat="44.55892" lon="4.12365">
        <ele>725.45</ele>
        <time>2013-08-25T15:08:12Z</time>
      </trkpt>
      <trkpt lat="44.55861" lon="4.12362">
        <ele>725.93</ele>
        <time>2013-08-25T15:08:26Z</time>
      </trkpt>
      <trkpt lat="44.55821" lon="4.12376">
        <ele>725.45</ele>
        <time>2013-08-25T15:08:40Z</time>
      </trkpt>
      <trkpt lat="44.55785" lon="4.12383">
        <ele>726.41</ele>
        <time>2013-08-25T15:08:53Z</time>
      </trkpt>
      <trkpt lat="44.55766" lon="4.12383">
        <ele>727.37</ele>
        <time>2013-08-25T15:09:00Z</time>
      </trkpt>
      <trkpt lat="44.55764" lon="4.12382">
        <ele>727.37</ele>
        <time>2013-08-25T15:09:01Z</time>
      </trkpt>
      <trkpt lat="44.55762" lon="4.12381">
        <ele>727.86</ele>
        <time>2013-08-25T15:09:02Z</time>
      </trkpt>
      <trkpt lat="44.55735" lon="4.12372">
        <ele>731.22</ele>
        <time>2013-08-25T15:09:13Z</time>
      </trkpt>
      <trkpt lat="44.55709" lon="4.12372">
        <ele>733.62</ele>
        <time>2013-08-25T15:09:23Z</time>
      </trkpt>
      <trkpt lat="44.55682" lon="4.12384">
        <ele>736.03</ele>
        <time>2013-08-25T15:09:33Z</time>
      </trkpt>
      <trkpt lat="44.55667" lon="4.12393">
        <ele>736.51</ele>
        <time>2013-08-25T15:09:41Z</time>
      </trkpt>
      <trkpt lat="44.55665" lon="4.12393">
        <ele>736.99</ele>
        <time>2013-08-25T15:09:42Z</time>
      </trkpt>
      <trkpt lat="44.55664" lon="4.12394">
        <ele>736.51</ele>
        <time>2013-08-25T15:09:43Z</time>
      </trkpt>
      <trkpt lat="44.55663" lon="4.12394">
        <ele>736.99</ele>
        <time>2013-08-25T15:09:44Z</time>
      </trkpt>
      <trkpt lat="44.55661" lon="4.12395">
        <ele>736.51</ele>
        <time>2013-08-25T15:09:45Z</time>
      </trkpt>
      <trkpt lat="44.55637" lon="4.12397">
        <ele>736.51</ele>
        <time>2013-08-25T15:10:00Z</time>
      </trkpt>
      <trkpt lat="44.55609" lon="4.1239">
        <ele>736.03</ele>
        <time>2013-08-25T15:10:16Z</time>
      </trkpt>
      <trkpt lat="44.55579" lon="4.12382">
        <ele>735.07</ele>
        <time>2013-08-25T15:10:28Z</time>
      </trkpt>
      <trkpt lat="44.55547" lon="4.12392">
        <ele>736.51</ele>
        <time>2013-08-25T15:10:39Z</time>
      </trkpt>
      <trkpt lat="44.55523" lon="4.12405">
        <ele>740.35</ele>
        <time>2013-08-25T15:10:48Z</time>
      </trkpt>
      <trkpt lat="44.5552" lon="4.12406">
        <ele>740.35</ele>
        <time>2013-08-25T15:10:49Z</time>
      </trkpt>
      <trkpt lat="44.55496" lon="4.12414">
        <ele>743.24</ele>
        <time>2013-08-25T15:10:58Z</time>
      </trkpt>
      <trkpt lat="44.5547" lon="4.12425">
        <ele>745.16</ele>
        <time>2013-08-25T15:11:06Z</time>
      </trkpt>
      <trkpt lat="44.5543" lon="4.12446">
        <ele>747.56</ele>
        <time>2013-08-25T15:11:20Z</time>
      </trkpt>
      <trkpt lat="44.55394" lon="4.12455">
        <ele>749.97</ele>
        <time>2013-08-25T15:11:33Z</time>
      </trkpt>
      <trkpt lat="44.55389" lon="4.12456">
        <ele>750.45</ele>
        <time>2013-08-25T15:11:35Z</time>
      </trkpt>
      <trkpt lat="44.55388" lon="4.12456">
        <ele>750.45</ele>
        <time>2013-08-25T15:11:36Z</time>
      </trkpt>
      <trkpt lat="44.55386" lon="4.12456">
        <ele>750.93</ele>
        <time>2013-08-25T15:11:37Z</time>
      </trkpt>
      <trkpt lat="44.55384" lon="4.12456">
        <ele>750.93</ele>
        <time>2013-08-25T15:11:38Z</time>
      </trkpt>
      <trkpt lat="44.55381" lon="4.12456">
        <ele>750.93</ele>
        <time>2013-08-25T15:11:39Z</time>
      </trkpt>
      <trkpt lat="44.55379" lon="4.12456">
        <ele>750.93</ele>
        <time>2013-08-25T15:11:40Z</time>
      </trkpt>
      <trkpt lat="44.55377" lon="4.12455">
        <ele>750.93</ele>
        <time>2013-08-25T15:11:41Z</time>
      </trkpt>
      <trkpt lat="44.55356" lon="4.12437">
        <ele>752.85</ele>
        <time>2013-08-25T15:11:53Z</time>
      </trkpt>
      <trkpt lat="44.5534" lon="4.12419">
        <ele>754.77</ele>
        <time>2013-08-25T15:12:02Z</time>
      </trkpt>
      <trkpt lat="44.5532" lon="4.1239">
        <ele>758.14</ele>
        <time>2013-08-25T15:12:14Z</time>
      </trkpt>
      <trkpt lat="44.55295" lon="4.12369">
        <ele>760.54</ele>
        <time>2013-08-25T15:12:25Z</time>
      </trkpt>
      <trkpt lat="44.55259" lon="4.12364">
        <ele>761.98</ele>
        <time>2013-08-25T15:12:39Z</time>
      </trkpt>
      <trkpt lat="44.55238" lon="4.12361">
        <ele>762.94</ele>
        <time>2013-08-25T15:12:50Z</time>
      </trkpt>
      <trkpt lat="44.55217" lon="4.1236">
        <ele>762.46</ele>
        <time>2013-08-25T15:13:04Z</time>
      </trkpt>
      <trkpt lat="44.55182" lon="4.12373">
        <ele>760.06</ele>
        <time>2013-08-25T15:13:17Z</time>
      </trkpt>
      <trkpt lat="44.55178" lon="4.12375">
        <ele>760.06</ele>
        <time>2013-08-25T15:13:18Z</time>
      </trkpt>
      <trkpt lat="44.55143" lon="4.12387">
        <ele>756.69</ele>
        <time>2013-08-25T15:13:25Z</time>
      </trkpt>
      <trkpt lat="44.55116" lon="4.12389">
        <ele>754.29</ele>
        <time>2013-08-25T15:13:29Z</time>
      </trkpt>
      <trkpt lat="44.55082" lon="4.12393">
        <ele>750.45</ele>
        <time>2013-08-25T15:13:34Z</time>
      </trkpt>
      <trkpt lat="44.55074" lon="4.12395">
        <ele>749.97</ele>
        <time>2013-08-25T15:13:35Z</time>
      </trkpt>
      <trkpt lat="44.55027" lon="4.12412">
        <ele>746.6</ele>
        <time>2013-08-25T15:13:41Z</time>
      </trkpt>
      <trkpt lat="44.55011" lon="4.12418">
        <ele>745.16</ele>
        <time>2013-08-25T15:13:43Z</time>
      </trkpt>
      <trkpt lat="44.55003" lon="4.12419">
        <ele>744.2</ele>
        <time>2013-08-25T15:13:44Z</time>
      </trkpt>
      <trkpt lat="44.54996" lon="4.12418">
        <ele>743.72</ele>
        <time>2013-08-25T15:13:45Z</time>
      </trkpt>
      <trkpt lat="44.54989" lon="4.12418">
        <ele>743.72</ele>
        <time>2013-08-25T15:13:46Z</time>
      </trkpt>
      <trkpt lat="44.54976" lon="4.12419">
        <ele>743.72</ele>
        <time>2013-08-25T15:13:49Z</time>
      </trkpt>
      <trkpt lat="44.54973" lon="4.12418">
        <ele>743.24</ele>
        <time>2013-08-25T15:13:50Z</time>
      </trkpt>
      <trkpt lat="44.5496" lon="4.12411">
        <ele>743.72</ele>
        <time>2013-08-25T15:13:59Z</time>
      </trkpt>
      <trkpt lat="44.5496" lon="4.12411">
        <ele>742.76</ele>
        <time>2013-08-25T15:14:25Z</time>
      </trkpt>
      <trkpt lat="44.54959" lon="4.12412">
        <ele>743.24</ele>
        <time>2013-08-25T15:14:48Z</time>
      </trkpt>
      <trkpt lat="44.54959" lon="4.12412">
        <ele>743.24</ele>
        <time>2013-08-25T15:15:15Z</time>
      </trkpt>
      <trkpt lat="44.54959" lon="4.12412">
        <ele>742.76</ele>
        <time>2013-08-25T15:15:40Z</time>
      </trkpt>
      <trkpt lat="44.54945" lon="4.12407">
        <ele>742.76</ele>
        <time>2013-08-25T15:15:51Z</time>
      </trkpt>
      <trkpt lat="44.54943" lon="4.12405">
        <ele>742.28</ele>
        <time>2013-08-25T15:15:52Z</time>
      </trkpt>
      <trkpt lat="44.5494" lon="4.12403">
        <ele>742.28</ele>
        <time>2013-08-25T15:15:53Z</time>
      </trkpt>
      <trkpt lat="44.54905" lon="4.12389">
        <ele>742.28</ele>
        <time>2013-08-25T15:16:06Z</time>
      </trkpt>
      <trkpt lat="44.54876" lon="4.12382">
        <ele>743.72</ele>
        <time>2013-08-25T15:16:18Z</time>
      </trkpt>
      <trkpt lat="44.54836" lon="4.12374">
        <ele>744.2</ele>
        <time>2013-08-25T15:16:32Z</time>
      </trkpt>
      <trkpt lat="44.54804" lon="4.12358">
        <ele>744.2</ele>
        <time>2013-08-25T15:16:43Z</time>
      </trkpt>
      <trkpt lat="44.54773" lon="4.12335">
        <ele>744.68</ele>
        <time>2013-08-25T15:16:54Z</time>
      </trkpt>
      <trkpt lat="44.54744" lon="4.12318">
        <ele>742.76</ele>
        <time>2013-08-25T15:17:02Z</time>
      </trkpt>
      <trkpt lat="44.54737" lon="4.12314">
        <ele>741.79</ele>
        <time>2013-08-25T15:17:04Z</time>
      </trkpt>
      <trkpt lat="44.54718" lon="4.12307">
        <ele>739.87</ele>
        <time>2013-08-25T15:17:09Z</time>
      </trkpt>
      <trkpt lat="44.54678" lon="4.12307">
        <ele>736.99</ele>
        <time>2013-08-25T15:17:20Z</time>
      </trkpt>
      <trkpt lat="44.54668" lon="4.12311">
        <ele>736.03</ele>
        <time>2013-08-25T15:17:25Z</time>
      </trkpt>
      <trkpt lat="44.54667" lon="4.1231">
        <ele>735.55</ele>
        <time>2013-08-25T15:17:26Z</time>
      </trkpt>
      <trkpt lat="44.54658" lon="4.12302">
        <ele>735.07</ele>
        <time>2013-08-25T15:17:32Z</time>
      </trkpt>
      <trkpt lat="44.54656" lon="4.12299">
        <ele>735.55</ele>
        <time>2013-08-25T15:17:33Z</time>
      </trkpt>
      <trkpt lat="44.54653" lon="4.12298">
        <ele>735.55</ele>
        <time>2013-08-25T15:17:34Z</time>
      </trkpt>
      <trkpt lat="44.54649" lon="4.12296">
        <ele>735.07</ele>
        <time>2013-08-25T15:17:35Z</time>
      </trkpt>
      <trkpt lat="44.54646" lon="4.12294">
        <ele>735.55</ele>
        <time>2013-08-25T15:17:36Z</time>
      </trkpt>
      <trkpt lat="44.54643" lon="4.12294">
        <ele>735.55</ele>
        <time>2013-08-25T15:17:37Z</time>
      </trkpt>
      <trkpt lat="44.54641" lon="4.12294">
        <ele>735.55</ele>
        <time>2013-08-25T15:17:38Z</time>
      </trkpt>
      <trkpt lat="44.54639" lon="4.12293">
        <ele>735.55</ele>
        <time>2013-08-25T15:17:39Z</time>
      </trkpt>
      <trkpt lat="44.54636" lon="4.12291">
        <ele>736.03</ele>
        <time>2013-08-25T15:17:40Z</time>
      </trkpt>
      <trkpt lat="44.54629" lon="4.12288">
        <ele>736.51</ele>
        <time>2013-08-25T15:17:51Z</time>
      </trkpt>
      <trkpt lat="44.54632" lon="4.12288">
        <ele>736.03</ele>
        <time>2013-08-25T15:18:02Z</time>
      </trkpt>
      <trkpt lat="44.54633" lon="4.12288">
        <ele>735.55</ele>
        <time>2013-08-25T15:18:03Z</time>
      </trkpt>
      <trkpt lat="44.54635" lon="4.12289">
        <ele>735.55</ele>
        <time>2013-08-25T15:18:04Z</time>
      </trkpt>
      <trkpt lat="44.54636" lon="4.1229">
        <ele>736.03</ele>
        <time>2013-08-25T15:18:05Z</time>
      </trkpt>
      <trkpt lat="44.54638" lon="4.12291">
        <ele>735.55</ele>
        <time>2013-08-25T15:18:06Z</time>
      </trkpt>
      <trkpt lat="44.5464" lon="4.12292">
        <ele>735.55</ele>
        <time>2013-08-25T15:18:07Z</time>
      </trkpt>
      <trkpt lat="44.54641" lon="4.12294">
        <ele>735.55</ele>
        <time>2013-08-25T15:18:08Z</time>
      </trkpt>
      <trkpt lat="44.54644" lon="4.12295">
        <ele>735.55</ele>
        <time>2013-08-25T15:18:09Z</time>
      </trkpt>
      <trkpt lat="44.54646" lon="4.12295">
        <ele>735.07</ele>
        <time>2013-08-25T15:18:10Z</time>
      </trkpt>
      <trkpt lat="44.54648" lon="4.12295">
        <ele>735.07</ele>
        <time>2013-08-25T15:18:11Z</time>
      </trkpt>
      <trkpt lat="44.54651" lon="4.12296">
        <ele>735.07</ele>
        <time>2013-08-25T15:18:12Z</time>
      </trkpt>
      <trkpt lat="44.54653" lon="4.12298">
        <ele>735.07</ele>
        <time>2013-08-25T15:18:13Z</time>
      </trkpt>
      <trkpt lat="44.54654" lon="4.123">
        <ele>735.07</ele>
        <time>2013-08-25T15:18:14Z</time>
      </trkpt>
      <trkpt lat="44.54654" lon="4.12301">
        <ele>735.07</ele>
        <time>2013-08-25T15:18:15Z</time>
      </trkpt>
      <trkpt lat="44.5465" lon="4.12305">
        <ele>734.58</ele>
        <time>2013-08-25T15:18:20Z</time>
      </trkpt>
      <trkpt lat="44.54649" lon="4.12306">
        <ele>733.62</ele>
        <time>2013-08-25T15:18:21Z</time>
      </trkpt>
      <trkpt lat="44.54647" lon="4.12305">
        <ele>733.62</ele>
        <time>2013-08-25T15:18:31Z</time>
      </trkpt>
      <trkpt lat="44.54647" lon="4.12305">
        <ele>733.14</ele>
        <time>2013-08-25T15:18:53Z</time>
      </trkpt>
      <trkpt lat="44.54647" lon="4.12305">
        <ele>732.66</ele>
        <time>2013-08-25T15:19:19Z</time>
      </trkpt>
      <trkpt lat="44.54647" lon="4.12305">
        <ele>732.66</ele>
        <time>2013-08-25T15:19:45Z</time>
      </trkpt>
      <trkpt lat="44.54647" lon="4.12306">
        <ele>734.58</ele>
        <time>2013-08-25T15:20:05Z</time>
      </trkpt>
      <trkpt lat="44.54647" lon="4.12306">
        <ele>731.7</ele>
        <time>2013-08-25T15:20:23Z</time>
      </trkpt>
      <trkpt lat="44.54649" lon="4.12305">
        <ele>733.14</ele>
        <time>2013-08-25T15:20:42Z</time>
      </trkpt>
      <trkpt lat="44.54651" lon="4.123">
        <ele>734.1</ele>
        <time>2013-08-25T15:20:47Z</time>
      </trkpt>
      <trkpt lat="44.54651" lon="4.12299">
        <ele>733.62</ele>
        <time>2013-08-25T15:20:48Z</time>
      </trkpt>
      <trkpt lat="44.54649" lon="4.12295">
        <ele>734.1</ele>
        <time>2013-08-25T15:21:00Z</time>
      </trkpt>
      <trkpt lat="44.54648" lon="4.12295">
        <ele>734.1</ele>
        <time>2013-08-25T15:21:09Z</time>
      </trkpt>
      <trkpt lat="44.54639" lon="4.12293">
        <ele>735.55</ele>
        <time>2013-08-25T15:21:24Z</time>
      </trkpt>
      <trkpt lat="44.54639" lon="4.12293">
        <ele>731.7</ele>
        <time>2013-08-25T15:21:25Z</time>
      </trkpt>
      <trkpt lat="44.54639" lon="4.12293">
        <ele>734.58</ele>
        <time>2013-08-25T15:21:27Z</time>
      </trkpt>
      <trkpt lat="44.54639" lon="4.12293">
        <ele>734.58</ele>
        <time>2013-08-25T15:21:28Z</time>
      </trkpt>
      <trkpt lat="44.54636" lon="4.12289">
        <ele>735.07</ele>
        <time>2013-08-25T15:21:43Z</time>
      </trkpt>
      <trkpt lat="44.54627" lon="4.12285">
        <ele>735.07</ele>
        <time>2013-08-25T15:21:54Z</time>
      </trkpt>
      <trkpt lat="44.54609" lon="4.12274">
        <ele>735.55</ele>
        <time>2013-08-25T15:22:04Z</time>
      </trkpt>
      <trkpt lat="44.54591" lon="4.12261">
        <ele>735.55</ele>
        <time>2013-08-25T15:22:14Z</time>
      </trkpt>
      <trkpt lat="44.54566" lon="4.12242">
        <ele>734.58</ele>
        <time>2013-08-25T15:22:22Z</time>
      </trkpt>
      <trkpt lat="44.54562" lon="4.12241">
        <ele>734.58</ele>
        <time>2013-08-25T15:22:23Z</time>
      </trkpt>
      <trkpt lat="44.54558" lon="4.12239">
        <ele>734.1</ele>
        <time>2013-08-25T15:22:24Z</time>
      </trkpt>
      <trkpt lat="44.54554" lon="4.12236">
        <ele>734.58</ele>
        <time>2013-08-25T15:22:25Z</time>
      </trkpt>
      <trkpt lat="44.54551" lon="4.12233">
        <ele>734.58</ele>
        <time>2013-08-25T15:22:26Z</time>
      </trkpt>
      <trkpt lat="44.54526" lon="4.12201">
        <ele>733.62</ele>
        <time>2013-08-25T15:22:35Z</time>
      </trkpt>
      <trkpt lat="44.54506" lon="4.12175">
        <ele>732.66</ele>
        <time>2013-08-25T15:22:43Z</time>
      </trkpt>
      <trkpt lat="44.5448" lon="4.12152">
        <ele>730.74</ele>
        <time>2013-08-25T15:22:51Z</time>
      </trkpt>
      <trkpt lat="44.54425" lon="4.12111">
        <ele>727.37</ele>
        <time>2013-08-25T15:23:03Z</time>
      </trkpt>
      <trkpt lat="44.54396" lon="4.12091">
        <ele>725.93</ele>
        <time>2013-08-25T15:23:09Z</time>
      </trkpt>
      <trkpt lat="44.54392" lon="4.12089">
        <ele>725.45</ele>
        <time>2013-08-25T15:23:10Z</time>
      </trkpt>
      <trkpt lat="44.5438" lon="4.12077">
        <ele>724.49</ele>
        <time>2013-08-25T15:23:13Z</time>
      </trkpt>
      <trkpt lat="44.54377" lon="4.12072">
        <ele>724.01</ele>
        <time>2013-08-25T15:23:14Z</time>
      </trkpt>
      <trkpt lat="44.54329" lon="4.12006">
        <ele>721.13</ele>
        <time>2013-08-25T15:23:28Z</time>
      </trkpt>
      <trkpt lat="44.54325" lon="4.12001">
        <ele>721.13</ele>
        <time>2013-08-25T15:23:29Z</time>
      </trkpt>
      <trkpt lat="44.54285" lon="4.11961">
        <ele>719.68</ele>
        <time>2013-08-25T15:23:40Z</time>
      </trkpt>
      <trkpt lat="44.54272" lon="4.11937">
        <ele>718.72</ele>
        <time>2013-08-25T15:23:47Z</time>
      </trkpt>
      <trkpt lat="44.54269" lon="4.11934">
        <ele>718.24</ele>
        <time>2013-08-25T15:23:48Z</time>
      </trkpt>
      <trkpt lat="44.54265" lon="4.11931">
        <ele>717.28</ele>
        <time>2013-08-25T15:23:49Z</time>
      </trkpt>
      <trkpt lat="44.54261" lon="4.11928">
        <ele>717.76</ele>
        <time>2013-08-25T15:23:50Z</time>
      </trkpt>
      <trkpt lat="44.54256" lon="4.11927">
        <ele>717.28</ele>
        <time>2013-08-25T15:23:51Z</time>
      </trkpt>
      <trkpt lat="44.54252" lon="4.11927">
        <ele>717.76</ele>
        <time>2013-08-25T15:23:52Z</time>
      </trkpt>
      <trkpt lat="44.54247" lon="4.11926">
        <ele>717.28</ele>
        <time>2013-08-25T15:23:53Z</time>
      </trkpt>
      <trkpt lat="44.54242" lon="4.11925">
        <ele>717.28</ele>
        <time>2013-08-25T15:23:54Z</time>
      </trkpt>
      <trkpt lat="44.54234" lon="4.11922">
        <ele>716.8</ele>
        <time>2013-08-25T15:23:56Z</time>
      </trkpt>
      <trkpt lat="44.54183" lon="4.11901">
        <ele>719.2</ele>
        <time>2013-08-25T15:24:09Z</time>
      </trkpt>
      <trkpt lat="44.54141" lon="4.11885">
        <ele>722.09</ele>
        <time>2013-08-25T15:24:21Z</time>
      </trkpt>
      <trkpt lat="44.54095" lon="4.11873">
        <ele>723.05</ele>
        <time>2013-08-25T15:24:34Z</time>
      </trkpt>
      <trkpt lat="44.54051" lon="4.11868">
        <ele>724.01</ele>
        <time>2013-08-25T15:24:46Z</time>
      </trkpt>
      <trkpt lat="44.54044" lon="4.11871">
        <ele>724.01</ele>
        <time>2013-08-25T15:24:48Z</time>
      </trkpt>
      <trkpt lat="44.54042" lon="4.11872">
        <ele>724.01</ele>
        <time>2013-08-25T15:24:49Z</time>
      </trkpt>
      <trkpt lat="44.54039" lon="4.11874">
        <ele>723.53</ele>
        <time>2013-08-25T15:24:50Z</time>
      </trkpt>
      <trkpt lat="44.54036" lon="4.11876">
        <ele>723.53</ele>
        <time>2013-08-25T15:24:51Z</time>
      </trkpt>
      <trkpt lat="44.54032" lon="4.11878">
        <ele>724.01</ele>
        <time>2013-08-25T15:24:52Z</time>
      </trkpt>
      <trkpt lat="44.54029" lon="4.1188">
        <ele>723.53</ele>
        <time>2013-08-25T15:24:53Z</time>
      </trkpt>
      <trkpt lat="44.54025" lon="4.11882">
        <ele>723.05</ele>
        <time>2013-08-25T15:24:54Z</time>
      </trkpt>
      <trkpt lat="44.54021" lon="4.11884">
        <ele>722.57</ele>
        <time>2013-08-25T15:24:55Z</time>
      </trkpt>
      <trkpt lat="44.54017" lon="4.11885">
        <ele>722.09</ele>
        <time>2013-08-25T15:24:56Z</time>
      </trkpt>
      <trkpt lat="44.54012" lon="4.11886">
        <ele>722.09</ele>
        <time>2013-08-25T15:24:57Z</time>
      </trkpt>
      <trkpt lat="44.54007" lon="4.11886">
        <ele>721.13</ele>
        <time>2013-08-25T15:24:58Z</time>
      </trkpt>
      <trkpt lat="44.53992" lon="4.11885">
        <ele>720.16</ele>
        <time>2013-08-25T15:25:01Z</time>
      </trkpt>
      <trkpt lat="44.53982" lon="4.11882">
        <ele>718.72</ele>
        <time>2013-08-25T15:25:03Z</time>
      </trkpt>
      <trkpt lat="44.53972" lon="4.1188">
        <ele>717.76</ele>
        <time>2013-08-25T15:25:05Z</time>
      </trkpt>
      <trkpt lat="44.53949" lon="4.11878">
        <ele>714.88</ele>
        <time>2013-08-25T15:25:09Z</time>
      </trkpt>
      <trkpt lat="44.53943" lon="4.11877">
        <ele>714.4</ele>
        <time>2013-08-25T15:25:10Z</time>
      </trkpt>
      <trkpt lat="44.5393" lon="4.11875">
        <ele>712.47</ele>
        <time>2013-08-25T15:25:12Z</time>
      </trkpt>
      <trkpt lat="44.53912" lon="4.11873">
        <ele>711.03</ele>
        <time>2013-08-25T15:25:15Z</time>
      </trkpt>
      <trkpt lat="44.53884" lon="4.1186">
        <ele>708.15</ele>
        <time>2013-08-25T15:25:20Z</time>
      </trkpt>
      <trkpt lat="44.53877" lon="4.11858">
        <ele>706.71</ele>
        <time>2013-08-25T15:25:21Z</time>
      </trkpt>
      <trkpt lat="44.5387" lon="4.11858">
        <ele>706.23</ele>
        <time>2013-08-25T15:25:22Z</time>
      </trkpt>
      <trkpt lat="44.53862" lon="4.11858">
        <ele>705.26</ele>
        <time>2013-08-25T15:25:23Z</time>
      </trkpt>
      <trkpt lat="44.53855" lon="4.11859">
        <ele>704.3</ele>
        <time>2013-08-25T15:25:24Z</time>
      </trkpt>
      <trkpt lat="44.53846" lon="4.11858">
        <ele>703.82</ele>
        <time>2013-08-25T15:25:25Z</time>
      </trkpt>
      <trkpt lat="44.53838" lon="4.11858">
        <ele>702.86</ele>
        <time>2013-08-25T15:25:26Z</time>
      </trkpt>
      <trkpt lat="44.5383" lon="4.11858">
        <ele>701.9</ele>
        <time>2013-08-25T15:25:27Z</time>
      </trkpt>
      <trkpt lat="44.53824" lon="4.11857">
        <ele>701.9</ele>
        <time>2013-08-25T15:25:28Z</time>
      </trkpt>
      <trkpt lat="44.53818" lon="4.11857">
        <ele>701.42</ele>
        <time>2013-08-25T15:25:29Z</time>
      </trkpt>
      <trkpt lat="44.53789" lon="4.11856">
        <ele>697.57</ele>
        <time>2013-08-25T15:25:34Z</time>
      </trkpt>
      <trkpt lat="44.53762" lon="4.11849">
        <ele>693.73</ele>
        <time>2013-08-25T15:25:38Z</time>
      </trkpt>
      <trkpt lat="44.53746" lon="4.11843">
        <ele>692.29</ele>
        <time>2013-08-25T15:25:40Z</time>
      </trkpt>
      <trkpt lat="44.53739" lon="4.11839">
        <ele>690.84</ele>
        <time>2013-08-25T15:25:41Z</time>
      </trkpt>
      <trkpt lat="44.53732" lon="4.11837">
        <ele>690.84</ele>
        <time>2013-08-25T15:25:42Z</time>
      </trkpt>
      <trkpt lat="44.53717" lon="4.11832">
        <ele>687.96</ele>
        <time>2013-08-25T15:25:44Z</time>
      </trkpt>
      <trkpt lat="44.53708" lon="4.11832">
        <ele>687.48</ele>
        <time>2013-08-25T15:25:45Z</time>
      </trkpt>
      <trkpt lat="44.53684" lon="4.11833">
        <ele>685.56</ele>
        <time>2013-08-25T15:25:48Z</time>
      </trkpt>
      <trkpt lat="44.53668" lon="4.11833">
        <ele>684.6</ele>
        <time>2013-08-25T15:25:50Z</time>
      </trkpt>
      <trkpt lat="44.53656" lon="4.11834">
        <ele>684.12</ele>
        <time>2013-08-25T15:25:52Z</time>
      </trkpt>
      <trkpt lat="44.53651" lon="4.11836">
        <ele>683.63</ele>
        <time>2013-08-25T15:25:53Z</time>
      </trkpt>
      <trkpt lat="44.53646" lon="4.11838">
        <ele>683.15</ele>
        <time>2013-08-25T15:25:54Z</time>
      </trkpt>
      <trkpt lat="44.53642" lon="4.11839">
        <ele>682.19</ele>
        <time>2013-08-25T15:25:55Z</time>
      </trkpt>
      <trkpt lat="44.53637" lon="4.1184">
        <ele>681.71</ele>
        <time>2013-08-25T15:25:56Z</time>
      </trkpt>
      <trkpt lat="44.53632" lon="4.1184">
        <ele>681.23</ele>
        <time>2013-08-25T15:25:57Z</time>
      </trkpt>
      <trkpt lat="44.53627" lon="4.1184">
        <ele>680.75</ele>
        <time>2013-08-25T15:25:58Z</time>
      </trkpt>
      <trkpt lat="44.53619" lon="4.11839">
        <ele>681.23</ele>
        <time>2013-08-25T15:26:06Z</time>
      </trkpt>
      <trkpt lat="44.53613" lon="4.11841">
        <ele>678.83</ele>
        <time>2013-08-25T15:26:33Z</time>
      </trkpt>
      <trkpt lat="44.5361" lon="4.11841">
        <ele>678.83</ele>
        <time>2013-08-25T15:26:34Z</time>
      </trkpt>
      <trkpt lat="44.53593" lon="4.11835">
        <ele>676.91</ele>
        <time>2013-08-25T15:26:40Z</time>
      </trkpt>
      <trkpt lat="44.53592" lon="4.11831">
        <ele>676.91</ele>
        <time>2013-08-25T15:26:41Z</time>
      </trkpt>
      <trkpt lat="44.53592" lon="4.11826">
        <ele>675.94</ele>
        <time>2013-08-25T15:26:42Z</time>
      </trkpt>
      <trkpt lat="44.53592" lon="4.11821">
        <ele>675.46</ele>
        <time>2013-08-25T15:26:43Z</time>
      </trkpt>
      <trkpt lat="44.53592" lon="4.11814">
        <ele>675.46</ele>
        <time>2013-08-25T15:26:44Z</time>
      </trkpt>
      <trkpt lat="44.53594" lon="4.11808">
        <ele>675.46</ele>
        <time>2013-08-25T15:26:45Z</time>
      </trkpt>
      <trkpt lat="44.53595" lon="4.11801">
        <ele>674.5</ele>
        <time>2013-08-25T15:26:46Z</time>
      </trkpt>
      <trkpt lat="44.53597" lon="4.11794">
        <ele>673.54</ele>
        <time>2013-08-25T15:26:47Z</time>
      </trkpt>
      <trkpt lat="44.53598" lon="4.11785">
        <ele>673.06</ele>
        <time>2013-08-25T15:26:48Z</time>
      </trkpt>
      <trkpt lat="44.53599" lon="4.11776">
        <ele>671.62</ele>
        <time>2013-08-25T15:26:49Z</time>
      </trkpt>
      <trkpt lat="44.53599" lon="4.11765">
        <ele>670.18</ele>
        <time>2013-08-25T15:26:50Z</time>
      </trkpt>
      <trkpt lat="44.53598" lon="4.11754">
        <ele>670.18</ele>
        <time>2013-08-25T15:26:51Z</time>
      </trkpt>
      <trkpt lat="44.53598" lon="4.11743">
        <ele>669.22</ele>
        <time>2013-08-25T15:26:52Z</time>
      </trkpt>
      <trkpt lat="44.53598" lon="4.11731">
        <ele>667.77</ele>
        <time>2013-08-25T15:26:53Z</time>
      </trkpt>
      <trkpt lat="44.53599" lon="4.11719">
        <ele>667.29</ele>
        <time>2013-08-25T15:26:54Z</time>
      </trkpt>
      <trkpt lat="44.536" lon="4.11707">
        <ele>666.33</ele>
        <time>2013-08-25T15:26:55Z</time>
      </trkpt>
      <trkpt lat="44.536" lon="4.11695">
        <ele>665.85</ele>
        <time>2013-08-25T15:26:56Z</time>
      </trkpt>
      <trkpt lat="44.53598" lon="4.11684">
        <ele>664.89</ele>
        <time>2013-08-25T15:26:57Z</time>
      </trkpt>
      <trkpt lat="44.53594" lon="4.11672">
        <ele>663.45</ele>
        <time>2013-08-25T15:26:58Z</time>
      </trkpt>
      <trkpt lat="44.53589" lon="4.1166">
        <ele>662.01</ele>
        <time>2013-08-25T15:26:59Z</time>
      </trkpt>
      <trkpt lat="44.53576" lon="4.11623">
        <ele>658.64</ele>
        <time>2013-08-25T15:27:02Z</time>
      </trkpt>
      <trkpt lat="44.53572" lon="4.11611">
        <ele>658.64</ele>
        <time>2013-08-25T15:27:03Z</time>
      </trkpt>
      <trkpt lat="44.53556" lon="4.11573">
        <ele>655.28</ele>
        <time>2013-08-25T15:27:06Z</time>
      </trkpt>
      <trkpt lat="44.53539" lon="4.11535">
        <ele>652.39</ele>
        <time>2013-08-25T15:27:09Z</time>
      </trkpt>
      <trkpt lat="44.53531" lon="4.11524">
        <ele>650.95</ele>
        <time>2013-08-25T15:27:10Z</time>
      </trkpt>
      <trkpt lat="44.53507" lon="4.11493">
        <ele>647.59</ele>
        <time>2013-08-25T15:27:13Z</time>
      </trkpt>
      <trkpt lat="44.535" lon="4.11486">
        <ele>647.59</ele>
        <time>2013-08-25T15:27:14Z</time>
      </trkpt>
      <trkpt lat="44.53476" lon="4.11461">
        <ele>645.18</ele>
        <time>2013-08-25T15:27:18Z</time>
      </trkpt>
      <trkpt lat="44.53449" lon="4.11436">
        <ele>641.82</ele>
        <time>2013-08-25T15:27:23Z</time>
      </trkpt>
      <trkpt lat="44.53445" lon="4.11431">
        <ele>641.34</ele>
        <time>2013-08-25T15:27:24Z</time>
      </trkpt>
      <trkpt lat="44.53442" lon="4.11424">
        <ele>640.38</ele>
        <time>2013-08-25T15:27:25Z</time>
      </trkpt>
      <trkpt lat="44.53438" lon="4.11418">
        <ele>639.89</ele>
        <time>2013-08-25T15:27:26Z</time>
      </trkpt>
      <trkpt lat="44.53434" lon="4.11412">
        <ele>639.41</ele>
        <time>2013-08-25T15:27:27Z</time>
      </trkpt>
      <trkpt lat="44.53429" lon="4.11406">
        <ele>638.45</ele>
        <time>2013-08-25T15:27:28Z</time>
      </trkpt>
      <trkpt lat="44.53425" lon="4.11401">
        <ele>637.97</ele>
        <time>2013-08-25T15:27:29Z</time>
      </trkpt>
      <trkpt lat="44.53419" lon="4.11397">
        <ele>637.49</ele>
        <time>2013-08-25T15:27:30Z</time>
      </trkpt>
      <trkpt lat="44.53413" lon="4.11393">
        <ele>637.01</ele>
        <time>2013-08-25T15:27:31Z</time>
      </trkpt>
      <trkpt lat="44.53402" lon="4.11387">
        <ele>636.05</ele>
        <time>2013-08-25T15:27:33Z</time>
      </trkpt>
      <trkpt lat="44.53379" lon="4.11377">
        <ele>634.61</ele>
        <time>2013-08-25T15:27:37Z</time>
      </trkpt>
      <trkpt lat="44.53372" lon="4.11378">
        <ele>634.13</ele>
        <time>2013-08-25T15:27:39Z</time>
      </trkpt>
      <trkpt lat="44.53371" lon="4.11381">
        <ele>633.65</ele>
        <time>2013-08-25T15:27:40Z</time>
      </trkpt>
      <trkpt lat="44.53371" lon="4.11384">
        <ele>633.65</ele>
        <time>2013-08-25T15:27:41Z</time>
      </trkpt>
      <trkpt lat="44.53371" lon="4.11387">
        <ele>633.65</ele>
        <time>2013-08-25T15:27:42Z</time>
      </trkpt>
      <trkpt lat="44.53372" lon="4.11388">
        <ele>633.17</ele>
        <time>2013-08-25T15:27:54Z</time>
      </trkpt>
      <trkpt lat="44.53372" lon="4.11388">
        <ele>633.65</ele>
        <time>2013-08-25T15:28:19Z</time>
      </trkpt>
      <trkpt lat="44.53372" lon="4.11389">
        <ele>633.17</ele>
        <time>2013-08-25T15:28:32Z</time>
      </trkpt>
      <trkpt lat="44.53373" lon="4.1139">
        <ele>632.68</ele>
        <time>2013-08-25T15:28:33Z</time>
      </trkpt>
      <trkpt lat="44.53375" lon="4.11392">
        <ele>632.2</ele>
        <time>2013-08-25T15:28:34Z</time>
      </trkpt>
      <trkpt lat="44.53377" lon="4.11395">
        <ele>632.2</ele>
        <time>2013-08-25T15:28:35Z</time>
      </trkpt>
      <trkpt lat="44.53379" lon="4.11398">
        <ele>631.72</ele>
        <time>2013-08-25T15:28:36Z</time>
      </trkpt>
      <trkpt lat="44.53383" lon="4.11402">
        <ele>631.24</ele>
        <time>2013-08-25T15:28:37Z</time>
      </trkpt>
      <trkpt lat="44.53391" lon="4.1141">
        <ele>630.28</ele>
        <time>2013-08-25T15:28:39Z</time>
      </trkpt>
      <trkpt lat="44.53395" lon="4.11415">
        <ele>629.8</ele>
        <time>2013-08-25T15:28:40Z</time>
      </trkpt>
      <trkpt lat="44.53403" lon="4.11426">
        <ele>628.36</ele>
        <time>2013-08-25T15:28:42Z</time>
      </trkpt>
      <trkpt lat="44.53407" lon="4.11432">
        <ele>628.36</ele>
        <time>2013-08-25T15:28:43Z</time>
      </trkpt>
      <trkpt lat="44.53415" lon="4.11444">
        <ele>627.4</ele>
        <time>2013-08-25T15:28:45Z</time>
      </trkpt>
      <trkpt lat="44.53433" lon="4.11474">
        <ele>624.03</ele>
        <time>2013-08-25T15:28:49Z</time>
      </trkpt>
      <trkpt lat="44.53442" lon="4.11489">
        <ele>622.59</ele>
        <time>2013-08-25T15:28:51Z</time>
      </trkpt>
      <trkpt lat="44.53457" lon="4.11516">
        <ele>619.71</ele>
        <time>2013-08-25T15:28:54Z</time>
      </trkpt>
      <trkpt lat="44.53468" lon="4.11547">
        <ele>618.26</ele>
        <time>2013-08-25T15:28:57Z</time>
      </trkpt>
      <trkpt lat="44.53472" lon="4.11557">
        <ele>617.3</ele>
        <time>2013-08-25T15:28:58Z</time>
      </trkpt>
      <trkpt lat="44.53477" lon="4.11566">
        <ele>616.82</ele>
        <time>2013-08-25T15:28:59Z</time>
      </trkpt>
      <trkpt lat="44.53482" lon="4.11575">
        <ele>615.86</ele>
        <time>2013-08-25T15:29:00Z</time>
      </trkpt>
      <trkpt lat="44.53487" lon="4.11583">
        <ele>615.86</ele>
        <time>2013-08-25T15:29:01Z</time>
      </trkpt>
      <trkpt lat="44.5349" lon="4.11593">
        <ele>615.38</ele>
        <time>2013-08-25T15:29:02Z</time>
      </trkpt>
      <trkpt lat="44.53493" lon="4.11602">
        <ele>615.86</ele>
        <time>2013-08-25T15:29:03Z</time>
      </trkpt>
      <trkpt lat="44.53501" lon="4.11631">
        <ele>614.42</ele>
        <time>2013-08-25T15:29:06Z</time>
      </trkpt>
      <trkpt lat="44.53506" lon="4.11659">
        <ele>613.94</ele>
        <time>2013-08-25T15:29:09Z</time>
      </trkpt>
      <trkpt lat="44.53508" lon="4.11668">
        <ele>613.94</ele>
        <time>2013-08-25T15:29:10Z</time>
      </trkpt>
      <trkpt lat="44.53513" lon="4.11682">
        <ele>613.94</ele>
        <time>2013-08-25T15:29:12Z</time>
      </trkpt>
      <trkpt lat="44.53513" lon="4.1169">
        <ele>614.42</ele>
        <time>2013-08-25T15:29:13Z</time>
      </trkpt>
      <trkpt lat="44.53512" lon="4.11697">
        <ele>614.9</ele>
        <time>2013-08-25T15:29:14Z</time>
      </trkpt>
      <trkpt lat="44.5351" lon="4.11703">
        <ele>614.9</ele>
        <time>2013-08-25T15:29:15Z</time>
      </trkpt>
      <trkpt lat="44.53507" lon="4.11708">
        <ele>615.38</ele>
        <time>2013-08-25T15:29:16Z</time>
      </trkpt>
      <trkpt lat="44.53503" lon="4.11713">
        <ele>615.86</ele>
        <time>2013-08-25T15:29:17Z</time>
      </trkpt>
      <trkpt lat="44.53499" lon="4.11716">
        <ele>615.86</ele>
        <time>2013-08-25T15:29:18Z</time>
      </trkpt>
      <trkpt lat="44.53494" lon="4.11719">
        <ele>615.86</ele>
        <time>2013-08-25T15:29:19Z</time>
      </trkpt>
      <trkpt lat="44.5349" lon="4.11724">
        <ele>615.86</ele>
        <time>2013-08-25T15:29:20Z</time>
      </trkpt>
      <trkpt lat="44.53486" lon="4.11729">
        <ele>615.86</ele>
        <time>2013-08-25T15:29:21Z</time>
      </trkpt>
      <trkpt lat="44.53483" lon="4.11734">
        <ele>615.86</ele>
        <time>2013-08-25T15:29:22Z</time>
      </trkpt>
      <trkpt lat="44.5348" lon="4.1174">
        <ele>615.86</ele>
        <time>2013-08-25T15:29:23Z</time>
      </trkpt>
      <trkpt lat="44.53477" lon="4.11745">
        <ele>615.86</ele>
        <time>2013-08-25T15:29:24Z</time>
      </trkpt>
      <trkpt lat="44.53472" lon="4.11756">
        <ele>616.82</ele>
        <time>2013-08-25T15:29:26Z</time>
      </trkpt>
      <trkpt lat="44.53465" lon="4.11773">
        <ele>617.3</ele>
        <time>2013-08-25T15:29:29Z</time>
      </trkpt>
      <trkpt lat="44.53463" lon="4.11778">
        <ele>617.3</ele>
        <time>2013-08-25T15:29:30Z</time>
      </trkpt>
      <trkpt lat="44.5346" lon="4.11783">
        <ele>616.82</ele>
        <time>2013-08-25T15:29:31Z</time>
      </trkpt>
      <trkpt lat="44.5345" lon="4.11802">
        <ele>617.78</ele>
        <time>2013-08-25T15:29:35Z</time>
      </trkpt>
      <trkpt lat="44.53447" lon="4.11807">
        <ele>617.3</ele>
        <time>2013-08-25T15:29:36Z</time>
      </trkpt>
      <trkpt lat="44.53441" lon="4.11816">
        <ele>617.3</ele>
        <time>2013-08-25T15:29:38Z</time>
      </trkpt>
      <trkpt lat="44.53431" lon="4.11836">
        <ele>617.78</ele>
        <time>2013-08-25T15:29:42Z</time>
      </trkpt>
      <trkpt lat="44.53428" lon="4.1184">
        <ele>617.3</ele>
        <time>2013-08-25T15:29:43Z</time>
      </trkpt>
      <trkpt lat="44.534" lon="4.11888">
        <ele>618.75</ele>
        <time>2013-08-25T15:29:54Z</time>
      </trkpt>
      <trkpt lat="44.53385" lon="4.11917">
        <ele>619.23</ele>
        <time>2013-08-25T15:30:00Z</time>
      </trkpt>
      <trkpt lat="44.53373" lon="4.1196">
        <ele>617.3</ele>
        <time>2013-08-25T15:30:07Z</time>
      </trkpt>
      <trkpt lat="44.53373" lon="4.11967">
        <ele>616.82</ele>
        <time>2013-08-25T15:30:08Z</time>
      </trkpt>
      <trkpt lat="44.5337" lon="4.11994">
        <ele>614.9</ele>
        <time>2013-08-25T15:30:11Z</time>
      </trkpt>
      <trkpt lat="44.5337" lon="4.12003">
        <ele>613.94</ele>
        <time>2013-08-25T15:30:12Z</time>
      </trkpt>
      <trkpt lat="44.5337" lon="4.12038">
        <ele>610.57</ele>
        <time>2013-08-25T15:30:15Z</time>
      </trkpt>
      <trkpt lat="44.53371" lon="4.12063">
        <ele>608.17</ele>
        <time>2013-08-25T15:30:17Z</time>
      </trkpt>
      <trkpt lat="44.53373" lon="4.12075">
        <ele>607.69</ele>
        <time>2013-08-25T15:30:18Z</time>
      </trkpt>
      <trkpt lat="44.53374" lon="4.12087">
        <ele>607.69</ele>
        <time>2013-08-25T15:30:19Z</time>
      </trkpt>
      <trkpt lat="44.53375" lon="4.12099">
        <ele>607.69</ele>
        <time>2013-08-25T15:30:20Z</time>
      </trkpt>
      <trkpt lat="44.53375" lon="4.1211">
        <ele>607.69</ele>
        <time>2013-08-25T15:30:21Z</time>
      </trkpt>
      <trkpt lat="44.53377" lon="4.12121">
        <ele>607.69</ele>
        <time>2013-08-25T15:30:22Z</time>
      </trkpt>
      <trkpt lat="44.5338" lon="4.12129">
        <ele>608.17</ele>
        <time>2013-08-25T15:30:23Z</time>
      </trkpt>
      <trkpt lat="44.53384" lon="4.12136">
        <ele>607.69</ele>
        <time>2013-08-25T15:30:24Z</time>
      </trkpt>
      <trkpt lat="44.53389" lon="4.12138">
        <ele>607.21</ele>
        <time>2013-08-25T15:30:25Z</time>
      </trkpt>
      <trkpt lat="44.53393" lon="4.12138">
        <ele>607.21</ele>
        <time>2013-08-25T15:30:26Z</time>
      </trkpt>
      <trkpt lat="44.53398" lon="4.12136">
        <ele>606.73</ele>
        <time>2013-08-25T15:30:27Z</time>
      </trkpt>
      <trkpt lat="44.53403" lon="4.12134">
        <ele>605.77</ele>
        <time>2013-08-25T15:30:28Z</time>
      </trkpt>
      <trkpt lat="44.53408" lon="4.12131">
        <ele>604.33</ele>
        <time>2013-08-25T15:30:29Z</time>
      </trkpt>
      <trkpt lat="44.53414" lon="4.12129">
        <ele>603.85</ele>
        <time>2013-08-25T15:30:30Z</time>
      </trkpt>
      <trkpt lat="44.53429" lon="4.12124">
        <ele>602.4</ele>
        <time>2013-08-25T15:30:32Z</time>
      </trkpt>
      <trkpt lat="44.53437" lon="4.12123">
        <ele>600.96</ele>
        <time>2013-08-25T15:30:33Z</time>
      </trkpt>
      <trkpt lat="44.53469" lon="4.1212">
        <ele>597.6</ele>
        <time>2013-08-25T15:30:37Z</time>
      </trkpt>
      <trkpt lat="44.53484" lon="4.12115">
        <ele>595.67</ele>
        <time>2013-08-25T15:30:39Z</time>
      </trkpt>
      <trkpt lat="44.53492" lon="4.12111">
        <ele>594.71</ele>
        <time>2013-08-25T15:30:40Z</time>
      </trkpt>
      <trkpt lat="44.53515" lon="4.12095">
        <ele>591.35</ele>
        <time>2013-08-25T15:30:43Z</time>
      </trkpt>
      <trkpt lat="44.53539" lon="4.12077">
        <ele>588.95</ele>
        <time>2013-08-25T15:30:46Z</time>
      </trkpt>
      <trkpt lat="44.53546" lon="4.12073">
        <ele>587.98</ele>
        <time>2013-08-25T15:30:47Z</time>
      </trkpt>
      <trkpt lat="44.53585" lon="4.12054">
        <ele>585.58</ele>
        <time>2013-08-25T15:30:55Z</time>
      </trkpt>
      <trkpt lat="44.53591" lon="4.12055">
        <ele>585.1</ele>
        <time>2013-08-25T15:30:58Z</time>
      </trkpt>
      <trkpt lat="44.53593" lon="4.12055">
        <ele>585.1</ele>
        <time>2013-08-25T15:31:11Z</time>
      </trkpt>
      <trkpt lat="44.53593" lon="4.12055">
        <ele>582.22</ele>
        <time>2013-08-25T15:31:16Z</time>
      </trkpt>
      <trkpt lat="44.53593" lon="4.12055">
        <ele>585.1</ele>
        <time>2013-08-25T15:31:17Z</time>
      </trkpt>
      <trkpt lat="44.53593" lon="4.12056">
        <ele>584.14</ele>
        <time>2013-08-25T15:31:43Z</time>
      </trkpt>
      <trkpt lat="44.53595" lon="4.12058">
        <ele>585.1</ele>
        <time>2013-08-25T15:31:58Z</time>
      </trkpt>
      <trkpt lat="44.53594" lon="4.12059">
        <ele>584.62</ele>
        <time>2013-08-25T15:31:59Z</time>
      </trkpt>
      <trkpt lat="44.53593" lon="4.12061">
        <ele>584.62</ele>
        <time>2013-08-25T15:32:00Z</time>
      </trkpt>
      <trkpt lat="44.53592" lon="4.12062">
        <ele>584.14</ele>
        <time>2013-08-25T15:32:01Z</time>
      </trkpt>
      <trkpt lat="44.5359" lon="4.12062">
        <ele>584.14</ele>
        <time>2013-08-25T15:32:02Z</time>
      </trkpt>
      <trkpt lat="44.53588" lon="4.12064">
        <ele>584.14</ele>
        <time>2013-08-25T15:32:03Z</time>
      </trkpt>
      <trkpt lat="44.53585" lon="4.12067">
        <ele>583.66</ele>
        <time>2013-08-25T15:32:04Z</time>
      </trkpt>
      <trkpt lat="44.53582" lon="4.12069">
        <ele>582.7</ele>
        <time>2013-08-25T15:32:05Z</time>
      </trkpt>
      <trkpt lat="44.53579" lon="4.12071">
        <ele>581.73</ele>
        <time>2013-08-25T15:32:06Z</time>
      </trkpt>
      <trkpt lat="44.53575" lon="4.12073">
        <ele>582.22</ele>
        <time>2013-08-25T15:32:07Z</time>
      </trkpt>
      <trkpt lat="44.53571" lon="4.12076">
        <ele>581.25</ele>
        <time>2013-08-25T15:32:08Z</time>
      </trkpt>
      <trkpt lat="44.53566" lon="4.1208">
        <ele>580.29</ele>
        <time>2013-08-25T15:32:09Z</time>
      </trkpt>
      <trkpt lat="44.53562" lon="4.12086">
        <ele>579.81</ele>
        <time>2013-08-25T15:32:10Z</time>
      </trkpt>
      <trkpt lat="44.53558" lon="4.12094">
        <ele>578.37</ele>
        <time>2013-08-25T15:32:11Z</time>
      </trkpt>
      <trkpt lat="44.53548" lon="4.12112">
        <ele>575.49</ele>
        <time>2013-08-25T15:32:13Z</time>
      </trkpt>
      <trkpt lat="44.53537" lon="4.12133">
        <ele>572.12</ele>
        <time>2013-08-25T15:32:15Z</time>
      </trkpt>
      <trkpt lat="44.53524" lon="4.12155">
        <ele>568.76</ele>
        <time>2013-08-25T15:32:17Z</time>
      </trkpt>
      <trkpt lat="44.53502" lon="4.12186">
        <ele>565.39</ele>
        <time>2013-08-25T15:32:20Z</time>
      </trkpt>
      <trkpt lat="44.53486" lon="4.12205">
        <ele>563.47</ele>
        <time>2013-08-25T15:32:23Z</time>
      </trkpt>
      <trkpt lat="44.53479" lon="4.12209">
        <ele>562.03</ele>
        <time>2013-08-25T15:32:24Z</time>
      </trkpt>
      <trkpt lat="44.53472" lon="4.12212">
        <ele>561.07</ele>
        <time>2013-08-25T15:32:25Z</time>
      </trkpt>
      <trkpt lat="44.53465" lon="4.12216">
        <ele>560.11</ele>
        <time>2013-08-25T15:32:26Z</time>
      </trkpt>
      <trkpt lat="44.5346" lon="4.12223">
        <ele>558.66</ele>
        <time>2013-08-25T15:32:27Z</time>
      </trkpt>
      <trkpt lat="44.53455" lon="4.12233">
        <ele>557.7</ele>
        <time>2013-08-25T15:32:28Z</time>
      </trkpt>
      <trkpt lat="44.53452" lon="4.12244">
        <ele>557.22</ele>
        <time>2013-08-25T15:32:29Z</time>
      </trkpt>
      <trkpt lat="44.53449" lon="4.12255">
        <ele>555.78</ele>
        <time>2013-08-25T15:32:30Z</time>
      </trkpt>
      <trkpt lat="44.53445" lon="4.12266">
        <ele>554.82</ele>
        <time>2013-08-25T15:32:31Z</time>
      </trkpt>
      <trkpt lat="44.53441" lon="4.12278">
        <ele>553.38</ele>
        <time>2013-08-25T15:32:32Z</time>
      </trkpt>
      <trkpt lat="44.53427" lon="4.12317">
        <ele>549.53</ele>
        <time>2013-08-25T15:32:35Z</time>
      </trkpt>
      <trkpt lat="44.53421" lon="4.1233">
        <ele>547.61</ele>
        <time>2013-08-25T15:32:36Z</time>
      </trkpt>
      <trkpt lat="44.53406" lon="4.12356">
        <ele>543.76</ele>
        <time>2013-08-25T15:32:38Z</time>
      </trkpt>
      <trkpt lat="44.53389" lon="4.12381">
        <ele>540.88</ele>
        <time>2013-08-25T15:32:40Z</time>
      </trkpt>
      <trkpt lat="44.53379" lon="4.12391">
        <ele>539.44</ele>
        <time>2013-08-25T15:32:41Z</time>
      </trkpt>
      <trkpt lat="44.53339" lon="4.12426">
        <ele>535.59</ele>
        <time>2013-08-25T15:32:45Z</time>
      </trkpt>
      <trkpt lat="44.5333" lon="4.12432">
        <ele>534.63</ele>
        <time>2013-08-25T15:32:46Z</time>
      </trkpt>
      <trkpt lat="44.53322" lon="4.12436">
        <ele>533.19</ele>
        <time>2013-08-25T15:32:47Z</time>
      </trkpt>
      <trkpt lat="44.53313" lon="4.12438">
        <ele>531.75</ele>
        <time>2013-08-25T15:32:48Z</time>
      </trkpt>
      <trkpt lat="44.53304" lon="4.1244">
        <ele>530.79</ele>
        <time>2013-08-25T15:32:49Z</time>
      </trkpt>
      <trkpt lat="44.53294" lon="4.1244">
        <ele>529.34</ele>
        <time>2013-08-25T15:32:50Z</time>
      </trkpt>
      <trkpt lat="44.53284" lon="4.12439">
        <ele>527.42</ele>
        <time>2013-08-25T15:32:51Z</time>
      </trkpt>
      <trkpt lat="44.53274" lon="4.12436">
        <ele>526.46</ele>
        <time>2013-08-25T15:32:52Z</time>
      </trkpt>
      <trkpt lat="44.53263" lon="4.12433">
        <ele>525.02</ele>
        <time>2013-08-25T15:32:53Z</time>
      </trkpt>
      <trkpt lat="44.53253" lon="4.12431">
        <ele>524.54</ele>
        <time>2013-08-25T15:32:54Z</time>
      </trkpt>
      <trkpt lat="44.53244" lon="4.12431">
        <ele>523.09</ele>
        <time>2013-08-25T15:32:55Z</time>
      </trkpt>
      <trkpt lat="44.53236" lon="4.12431">
        <ele>523.09</ele>
        <time>2013-08-25T15:32:56Z</time>
      </trkpt>
      <trkpt lat="44.53216" lon="4.12434">
        <ele>519.73</ele>
        <time>2013-08-25T15:33:01Z</time>
      </trkpt>
      <trkpt lat="44.53217" lon="4.1244">
        <ele>519.73</ele>
        <time>2013-08-25T15:33:04Z</time>
      </trkpt>
      <trkpt lat="44.53224" lon="4.1244">
        <ele>520.69</ele>
        <time>2013-08-25T15:33:15Z</time>
      </trkpt>
      <trkpt lat="44.53225" lon="4.12439">
        <ele>519.73</ele>
        <time>2013-08-25T15:33:25Z</time>
      </trkpt>
      <trkpt lat="44.53243" lon="4.12439">
        <ele>521.17</ele>
        <time>2013-08-25T15:33:37Z</time>
      </trkpt>
      <trkpt lat="44.53267" lon="4.12445">
        <ele>522.61</ele>
        <time>2013-08-25T15:33:47Z</time>
      </trkpt>
      <trkpt lat="44.5329" lon="4.12457">
        <ele>524.06</ele>
        <time>2013-08-25T15:33:58Z</time>
      </trkpt>
      <trkpt lat="44.53325" lon="4.12461">
        <ele>524.54</ele>
        <time>2013-08-25T15:34:11Z</time>
      </trkpt>
      <trkpt lat="44.53354" lon="4.12448">
        <ele>526.46</ele>
        <time>2013-08-25T15:34:23Z</time>
      </trkpt>
      <trkpt lat="44.53379" lon="4.12434">
        <ele>527.9</ele>
        <time>2013-08-25T15:34:37Z</time>
      </trkpt>
      <trkpt lat="44.53388" lon="4.12426">
        <ele>527.9</ele>
        <time>2013-08-25T15:34:42Z</time>
      </trkpt>
      <trkpt lat="44.53403" lon="4.12413">
        <ele>529.34</ele>
        <time>2013-08-25T15:34:52Z</time>
      </trkpt>
      <trkpt lat="44.53411" lon="4.12406">
        <ele>529.34</ele>
        <time>2013-08-25T15:34:59Z</time>
      </trkpt>
      <trkpt lat="44.53423" lon="4.12389">
        <ele>530.3</ele>
        <time>2013-08-25T15:35:09Z</time>
      </trkpt>
      <trkpt lat="44.53439" lon="4.12367">
        <ele>531.27</ele>
        <time>2013-08-25T15:35:20Z</time>
      </trkpt>
      <trkpt lat="44.53445" lon="4.12357">
        <ele>531.27</ele>
        <time>2013-08-25T15:35:24Z</time>
      </trkpt>
      <trkpt lat="44.53454" lon="4.12345">
        <ele>533.19</ele>
        <time>2013-08-25T15:35:31Z</time>
      </trkpt>
      <trkpt lat="44.53468" lon="4.12317">
        <ele>534.63</ele>
        <time>2013-08-25T15:35:43Z</time>
      </trkpt>
      <trkpt lat="44.53474" lon="4.12306">
        <ele>535.11</ele>
        <time>2013-08-25T15:35:48Z</time>
      </trkpt>
      <trkpt lat="44.53479" lon="4.12294">
        <ele>535.59</ele>
        <time>2013-08-25T15:35:53Z</time>
      </trkpt>
      <trkpt lat="44.53491" lon="4.12277">
        <ele>536.55</ele>
        <time>2013-08-25T15:36:01Z</time>
      </trkpt>
      <trkpt lat="44.53517" lon="4.12255">
        <ele>537.99</ele>
        <time>2013-08-25T15:36:15Z</time>
      </trkpt>
      <trkpt lat="44.5352" lon="4.12251">
        <ele>537.99</ele>
        <time>2013-08-25T15:36:17Z</time>
      </trkpt>
      <trkpt lat="44.53536" lon="4.12227">
        <ele>539.44</ele>
        <time>2013-08-25T15:36:28Z</time>
      </trkpt>
      <trkpt lat="44.53551" lon="4.12204">
        <ele>540.88</ele>
        <time>2013-08-25T15:36:38Z</time>
      </trkpt>
      <trkpt lat="44.53561" lon="4.12186">
        <ele>542.32</ele>
        <time>2013-08-25T15:36:45Z</time>
      </trkpt>
      <trkpt lat="44.53574" lon="4.12183">
        <ele>542.8</ele>
        <time>2013-08-25T15:36:52Z</time>
      </trkpt>
      <trkpt lat="44.53597" lon="4.122">
        <ele>543.76</ele>
        <time>2013-08-25T15:37:03Z</time>
      </trkpt>
      <trkpt lat="44.53602" lon="4.12211">
        <ele>544.72</ele>
        <time>2013-08-25T15:37:07Z</time>
      </trkpt>
      <trkpt lat="44.53603" lon="4.12216">
        <ele>544.72</ele>
        <time>2013-08-25T15:37:09Z</time>
      </trkpt>
      <trkpt lat="44.53611" lon="4.12253">
        <ele>545.69</ele>
        <time>2013-08-25T15:37:22Z</time>
      </trkpt>
      <trkpt lat="44.53624" lon="4.12288">
        <ele>546.65</ele>
        <time>2013-08-25T15:37:34Z</time>
      </trkpt>
      <trkpt lat="44.53647" lon="4.12305">
        <ele>548.57</ele>
        <time>2013-08-25T15:37:45Z</time>
      </trkpt>
      <trkpt lat="44.53651" lon="4.12307">
        <ele>548.57</ele>
        <time>2013-08-25T15:37:47Z</time>
      </trkpt>
      <trkpt lat="44.53672" lon="4.123">
        <ele>550.97</ele>
        <time>2013-08-25T15:38:00Z</time>
      </trkpt>
      <trkpt lat="44.53689" lon="4.12286">
        <ele>551.93</ele>
        <time>2013-08-25T15:38:09Z</time>
      </trkpt>
      <trkpt lat="44.53707" lon="4.12273">
        <ele>552.9</ele>
        <time>2013-08-25T15:38:20Z</time>
      </trkpt>
      <trkpt lat="44.53712" lon="4.12275">
        <ele>553.38</ele>
        <time>2013-08-25T15:38:22Z</time>
      </trkpt>
      <trkpt lat="44.53721" lon="4.12288">
        <ele>552.9</ele>
        <time>2013-08-25T15:38:27Z</time>
      </trkpt>
      <trkpt lat="44.53719" lon="4.12328">
        <ele>553.86</ele>
        <time>2013-08-25T15:38:39Z</time>
      </trkpt>
      <trkpt lat="44.53717" lon="4.12369">
        <ele>553.86</ele>
        <time>2013-08-25T15:38:51Z</time>
      </trkpt>
      <trkpt lat="44.53735" lon="4.12396">
        <ele>554.34</ele>
        <time>2013-08-25T15:39:01Z</time>
      </trkpt>
      <trkpt lat="44.53763" lon="4.12402">
        <ele>555.3</ele>
        <time>2013-08-25T15:39:14Z</time>
      </trkpt>
      <trkpt lat="44.53773" lon="4.124">
        <ele>555.78</ele>
        <time>2013-08-25T15:39:19Z</time>
      </trkpt>
      <trkpt lat="44.53793" lon="4.12417">
        <ele>556.26</ele>
        <time>2013-08-25T15:39:31Z</time>
      </trkpt>
      <trkpt lat="44.53804" lon="4.1245">
        <ele>556.74</ele>
        <time>2013-08-25T15:39:44Z</time>
      </trkpt>
      <trkpt lat="44.53826" lon="4.12492">
        <ele>558.18</ele>
        <time>2013-08-25T15:39:59Z</time>
      </trkpt>
      <trkpt lat="44.53834" lon="4.12497">
        <ele>558.66</ele>
        <time>2013-08-25T15:40:03Z</time>
      </trkpt>
      <trkpt lat="44.5385" lon="4.12502">
        <ele>559.14</ele>
        <time>2013-08-25T15:40:11Z</time>
      </trkpt>
      <trkpt lat="44.53872" lon="4.12492">
        <ele>561.55</ele>
        <time>2013-08-25T15:40:22Z</time>
      </trkpt>
      <trkpt lat="44.53899" lon="4.12474">
        <ele>563.47</ele>
        <time>2013-08-25T15:40:36Z</time>
      </trkpt>
      <trkpt lat="44.53923" lon="4.12445">
        <ele>565.39</ele>
        <time>2013-08-25T15:40:51Z</time>
      </trkpt>
      <trkpt lat="44.53942" lon="4.12417">
        <ele>567.32</ele>
        <time>2013-08-25T15:41:04Z</time>
      </trkpt>
      <trkpt lat="44.53962" lon="4.12393">
        <ele>568.76</ele>
        <time>2013-08-25T15:41:17Z</time>
      </trkpt>
      <trkpt lat="44.53989" lon="4.12379">
        <ele>570.68</ele>
        <time>2013-08-25T15:41:31Z</time>
      </trkpt>
      <trkpt lat="44.54017" lon="4.12391">
        <ele>573.08</ele>
        <time>2013-08-25T15:41:46Z</time>
      </trkpt>
      <trkpt lat="44.54039" lon="4.12399">
        <ele>575.01</ele>
        <time>2013-08-25T15:41:58Z</time>
      </trkpt>
      <trkpt lat="44.54068" lon="4.12401">
        <ele>576.93</ele>
        <time>2013-08-25T15:42:11Z</time>
      </trkpt>
      <trkpt lat="44.54099" lon="4.12395">
        <ele>578.85</ele>
        <time>2013-08-25T15:42:24Z</time>
      </trkpt>
      <trkpt lat="44.54126" lon="4.12374">
        <ele>580.77</ele>
        <time>2013-08-25T15:42:38Z</time>
      </trkpt>
      <trkpt lat="44.54142" lon="4.12352">
        <ele>581.73</ele>
        <time>2013-08-25T15:42:48Z</time>
      </trkpt>
      <trkpt lat="44.54157" lon="4.12327">
        <ele>582.7</ele>
        <time>2013-08-25T15:42:59Z</time>
      </trkpt>
      <trkpt lat="44.54172" lon="4.123">
        <ele>584.62</ele>
        <time>2013-08-25T15:43:11Z</time>
      </trkpt>
      <trkpt lat="44.54197" lon="4.12277">
        <ele>586.06</ele>
        <time>2013-08-25T15:43:25Z</time>
      </trkpt>
      <trkpt lat="44.54202" lon="4.12276">
        <ele>586.54</ele>
        <time>2013-08-25T15:43:27Z</time>
      </trkpt>
      <trkpt lat="44.54214" lon="4.12287">
        <ele>587.98</ele>
        <time>2013-08-25T15:43:35Z</time>
      </trkpt>
      <trkpt lat="44.54229" lon="4.12324">
        <ele>589.91</ele>
        <time>2013-08-25T15:43:50Z</time>
      </trkpt>
      <trkpt lat="44.54247" lon="4.12356">
        <ele>592.31</ele>
        <time>2013-08-25T15:44:04Z</time>
      </trkpt>
      <trkpt lat="44.54266" lon="4.12381">
        <ele>593.75</ele>
        <time>2013-08-25T15:44:16Z</time>
      </trkpt>
      <trkpt lat="44.54296" lon="4.12391">
        <ele>594.71</ele>
        <time>2013-08-25T15:44:30Z</time>
      </trkpt>
      <trkpt lat="44.54314" lon="4.1239">
        <ele>594.71</ele>
        <time>2013-08-25T15:44:38Z</time>
      </trkpt>
      <trkpt lat="44.54322" lon="4.12429">
        <ele>594.23</ele>
        <time>2013-08-25T15:44:50Z</time>
      </trkpt>
      <trkpt lat="44.54324" lon="4.12491">
        <ele>594.71</ele>
        <time>2013-08-25T15:45:05Z</time>
      </trkpt>
      <trkpt lat="44.54329" lon="4.12552">
        <ele>594.71</ele>
        <time>2013-08-25T15:45:20Z</time>
      </trkpt>
      <trkpt lat="44.54334" lon="4.12592">
        <ele>594.71</ele>
        <time>2013-08-25T15:45:33Z</time>
      </trkpt>
      <trkpt lat="44.54343" lon="4.12621">
        <ele>594.71</ele>
        <time>2013-08-25T15:45:44Z</time>
      </trkpt>
      <trkpt lat="44.54349" lon="4.12627">
        <ele>595.19</ele>
        <time>2013-08-25T15:45:49Z</time>
      </trkpt>
      <trkpt lat="44.54354" lon="4.12628">
        <ele>595.67</ele>
        <time>2013-08-25T15:45:51Z</time>
      </trkpt>
      <trkpt lat="44.54377" lon="4.12638">
        <ele>595.67</ele>
        <time>2013-08-25T15:46:00Z</time>
      </trkpt>
      <trkpt lat="44.54393" lon="4.12642">
        <ele>596.15</ele>
        <time>2013-08-25T15:46:11Z</time>
      </trkpt>
      <trkpt lat="44.54393" lon="4.12642">
        <ele>596.15</ele>
        <time>2013-08-25T15:46:28Z</time>
      </trkpt>
      <trkpt lat="44.54393" lon="4.12642">
        <ele>595.19</ele>
        <time>2013-08-25T15:46:55Z</time>
      </trkpt>
    </trkseg>
  </trk>
</gpx>